<?xml version='1.0' encoding='UTF-8'?>
<gpx version="1.1" creator="https://www.komoot.de" xmlns="http://www.topografix.com/GPX/1/1" xmlns:xsi="http://www.w3.org/2001/XMLSchema-instance" xsi:schemaLocation="http://www.topografix.com/GPX/1/1 http://www.topografix.com/GPX/1/1/gpx.xsd">
  <metadata>
    <name>Rennradtour 10.09.2020 17:41</name>
    <author>
      <link href="https://www.komoot.de">
        <text>komoot</text>
        <type>text/html</type>
      </link>
    </author>
  </metadata>
  <trk>
    <name>Rennradtour 10.09.2020 17:41</name>
    <trkseg>
      <trkpt lat="48.754118" lon="9.986727">
        <ele>701.774977</ele>
        <time>2020-09-10T06:09:34.326Z</time>
      </trkpt>
      <trkpt lat="48.754139" lon="9.986555">
        <ele>701.774977</ele>
        <time>2020-09-10T06:09:37.792Z</time>
      </trkpt>
      <trkpt lat="48.754211" lon="9.986698">
        <ele>701.774977</ele>
        <time>2020-09-10T06:09:38.791Z</time>
      </trkpt>
      <trkpt lat="48.754083" lon="9.986736">
        <ele>701.774977</ele>
        <time>2020-09-10T06:10:35.807Z</time>
      </trkpt>
      <trkpt lat="48.753984" lon="9.986800">
        <ele>701.774977</ele>
        <time>2020-09-10T06:13:06.797Z</time>
      </trkpt>
      <trkpt lat="48.753942" lon="9.986946">
        <ele>701.774977</ele>
        <time>2020-09-10T06:13:10.811Z</time>
      </trkpt>
      <trkpt lat="48.753910" lon="9.987088">
        <ele>701.774977</ele>
        <time>2020-09-10T06:13:15.801Z</time>
      </trkpt>
      <trkpt lat="48.753874" lon="9.987223">
        <ele>701.774977</ele>
        <time>2020-09-10T06:13:22.807Z</time>
      </trkpt>
      <trkpt lat="48.753930" lon="9.987348">
        <ele>701.774977</ele>
        <time>2020-09-10T06:13:29.811Z</time>
      </trkpt>
      <trkpt lat="48.754027" lon="9.987355">
        <ele>701.770867</ele>
        <time>2020-09-10T06:13:32.807Z</time>
      </trkpt>
      <trkpt lat="48.754129" lon="9.987349">
        <ele>701.764821</ele>
        <time>2020-09-10T06:13:35.802Z</time>
      </trkpt>
      <trkpt lat="48.754254" lon="9.987358">
        <ele>701.757410</ele>
        <time>2020-09-10T06:13:38.799Z</time>
      </trkpt>
      <trkpt lat="48.754368" lon="9.987368">
        <ele>701.750647</ele>
        <time>2020-09-10T06:13:41.812Z</time>
      </trkpt>
      <trkpt lat="48.754487" lon="9.987372">
        <ele>701.743598</ele>
        <time>2020-09-10T06:13:44.808Z</time>
      </trkpt>
      <trkpt lat="48.754598" lon="9.987377">
        <ele>701.737021</ele>
        <time>2020-09-10T06:13:47.800Z</time>
      </trkpt>
      <trkpt lat="48.754725" lon="9.987404">
        <ele>701.729426</ele>
        <time>2020-09-10T06:13:50.820Z</time>
      </trkpt>
      <trkpt lat="48.754833" lon="9.987433">
        <ele>701.722930</ele>
        <time>2020-09-10T06:13:53.802Z</time>
      </trkpt>
      <trkpt lat="48.754943" lon="9.987470">
        <ele>701.716257</ele>
        <time>2020-09-10T06:13:56.811Z</time>
      </trkpt>
      <trkpt lat="48.755024" lon="9.987576">
        <ele>701.709921</ele>
        <time>2020-09-10T06:13:59.807Z</time>
      </trkpt>
      <trkpt lat="48.755059" lon="9.987713">
        <ele>701.704184</ele>
        <time>2020-09-10T06:14:01.818Z</time>
      </trkpt>
      <trkpt lat="48.755091" lon="9.987850">
        <ele>701.698509</ele>
        <time>2020-09-10T06:14:03.806Z</time>
      </trkpt>
      <trkpt lat="48.755128" lon="9.987986">
        <ele>701.692764</ele>
        <time>2020-09-10T06:14:05.809Z</time>
      </trkpt>
      <trkpt lat="48.755193" lon="9.988084">
        <ele>701.687336</ele>
        <time>2020-09-10T06:14:07.807Z</time>
      </trkpt>
      <trkpt lat="48.755293" lon="9.988135">
        <ele>701.681088</ele>
        <time>2020-09-10T06:14:09.812Z</time>
      </trkpt>
      <trkpt lat="48.755387" lon="9.988177">
        <ele>701.675284</ele>
        <time>2020-09-10T06:14:11.811Z</time>
      </trkpt>
      <trkpt lat="48.755498" lon="9.988204">
        <ele>701.668626</ele>
        <time>2020-09-10T06:14:14.800Z</time>
      </trkpt>
      <trkpt lat="48.755602" lon="9.988258">
        <ele>701.348777</ele>
        <time>2020-09-10T06:14:18.818Z</time>
      </trkpt>
      <trkpt lat="48.755640" lon="9.988401">
        <ele>701.045037</ele>
        <time>2020-09-10T06:14:21.811Z</time>
      </trkpt>
      <trkpt lat="48.755648" lon="9.988546">
        <ele>700.758383</ele>
        <time>2020-09-10T06:14:23.795Z</time>
      </trkpt>
      <trkpt lat="48.755649" lon="9.988719">
        <ele>700.417553</ele>
        <time>2020-09-10T06:14:25.806Z</time>
      </trkpt>
      <trkpt lat="48.755655" lon="9.988868">
        <ele>700.123470</ele>
        <time>2020-09-10T06:14:27.801Z</time>
      </trkpt>
      <trkpt lat="48.755671" lon="9.989034">
        <ele>699.792968</ele>
        <time>2020-09-10T06:14:29.814Z</time>
      </trkpt>
      <trkpt lat="48.755673" lon="9.989208">
        <ele>699.450129</ele>
        <time>2020-09-10T06:14:31.801Z</time>
      </trkpt>
      <trkpt lat="48.755680" lon="9.989377">
        <ele>699.116536</ele>
        <time>2020-09-10T06:14:33.806Z</time>
      </trkpt>
      <trkpt lat="48.755680" lon="9.989550">
        <ele>698.775720</ele>
        <time>2020-09-10T06:14:35.808Z</time>
      </trkpt>
      <trkpt lat="48.755698" lon="9.989714">
        <ele>698.448187</ele>
        <time>2020-09-10T06:14:37.805Z</time>
      </trkpt>
      <trkpt lat="48.755710" lon="9.989878">
        <ele>698.123117</ele>
        <time>2020-09-10T06:14:39.808Z</time>
      </trkpt>
      <trkpt lat="48.755705" lon="9.990077">
        <ele>697.730795</ele>
        <time>2020-09-10T06:14:41.807Z</time>
      </trkpt>
      <trkpt lat="48.755692" lon="9.990274">
        <ele>697.340759</ele>
        <time>2020-09-10T06:14:43.807Z</time>
      </trkpt>
      <trkpt lat="48.755668" lon="9.990482">
        <ele>696.924762</ele>
        <time>2020-09-10T06:14:45.815Z</time>
      </trkpt>
      <trkpt lat="48.755646" lon="9.990672">
        <ele>696.544726</ele>
        <time>2020-09-10T06:14:47.809Z</time>
      </trkpt>
      <trkpt lat="48.755619" lon="9.990871">
        <ele>696.117966</ele>
        <time>2020-09-10T06:14:49.812Z</time>
      </trkpt>
      <trkpt lat="48.755582" lon="9.991057">
        <ele>695.667255</ele>
        <time>2020-09-10T06:14:51.804Z</time>
      </trkpt>
      <trkpt lat="48.755515" lon="9.991221">
        <ele>695.219669</ele>
        <time>2020-09-10T06:14:53.813Z</time>
      </trkpt>
      <trkpt lat="48.755423" lon="9.991368">
        <ele>694.749457</ele>
        <time>2020-09-10T06:14:55.801Z</time>
      </trkpt>
      <trkpt lat="48.755308" lon="9.991486">
        <ele>694.260896</ele>
        <time>2020-09-10T06:14:57.807Z</time>
      </trkpt>
      <trkpt lat="48.755192" lon="9.991578">
        <ele>693.800280</ele>
        <time>2020-09-10T06:14:59.809Z</time>
      </trkpt>
      <trkpt lat="48.755065" lon="9.991684">
        <ele>693.290198</ele>
        <time>2020-09-10T06:15:01.806Z</time>
      </trkpt>
      <trkpt lat="48.754935" lon="9.991813">
        <ele>692.743554</ele>
        <time>2020-09-10T06:15:03.799Z</time>
      </trkpt>
      <trkpt lat="48.754810" lon="9.991924">
        <ele>692.233864</ele>
        <time>2020-09-10T06:15:05.809Z</time>
      </trkpt>
      <trkpt lat="48.754669" lon="9.992015">
        <ele>691.694662</ele>
        <time>2020-09-10T06:15:07.796Z</time>
      </trkpt>
      <trkpt lat="48.754526" lon="9.992083">
        <ele>691.167319</ele>
        <time>2020-09-10T06:15:09.811Z</time>
      </trkpt>
      <trkpt lat="48.754378" lon="9.992145">
        <ele>690.627034</ele>
        <time>2020-09-10T06:15:11.791Z</time>
      </trkpt>
      <trkpt lat="48.754237" lon="9.992172">
        <ele>690.126939</ele>
        <time>2020-09-10T06:15:13.801Z</time>
      </trkpt>
      <trkpt lat="48.754098" lon="9.992208">
        <ele>689.884951</ele>
        <time>2020-09-10T06:15:15.793Z</time>
      </trkpt>
      <trkpt lat="48.753967" lon="9.992278">
        <ele>689.768345</ele>
        <time>2020-09-10T06:15:17.798Z</time>
      </trkpt>
      <trkpt lat="48.753848" lon="9.992371">
        <ele>689.655958</ele>
        <time>2020-09-10T06:15:19.807Z</time>
      </trkpt>
      <trkpt lat="48.753761" lon="9.992497">
        <ele>689.554969</ele>
        <time>2020-09-10T06:15:21.803Z</time>
      </trkpt>
      <trkpt lat="48.753689" lon="9.992633">
        <ele>689.458426</ele>
        <time>2020-09-10T06:15:23.805Z</time>
      </trkpt>
      <trkpt lat="48.753615" lon="9.992772">
        <ele>689.359537</ele>
        <time>2020-09-10T06:15:25.802Z</time>
      </trkpt>
      <trkpt lat="48.753558" lon="9.992890">
        <ele>689.278569</ele>
        <time>2020-09-10T06:15:27.814Z</time>
      </trkpt>
      <trkpt lat="48.753530" lon="9.993027">
        <ele>689.199178</ele>
        <time>2020-09-10T06:15:30.802Z</time>
      </trkpt>
      <trkpt lat="48.753546" lon="9.993198">
        <ele>689.103579</ele>
        <time>2020-09-10T06:15:33.821Z</time>
      </trkpt>
      <trkpt lat="48.753578" lon="9.993396">
        <ele>688.990739</ele>
        <time>2020-09-10T06:15:36.806Z</time>
      </trkpt>
      <trkpt lat="48.753584" lon="9.993551">
        <ele>688.904798</ele>
        <time>2020-09-10T06:15:38.806Z</time>
      </trkpt>
      <trkpt lat="48.753588" lon="9.993703">
        <ele>688.820597</ele>
        <time>2020-09-10T06:15:40.807Z</time>
      </trkpt>
      <trkpt lat="48.753607" lon="9.993853">
        <ele>688.736053</ele>
        <time>2020-09-10T06:15:42.805Z</time>
      </trkpt>
      <trkpt lat="48.753623" lon="9.994000">
        <ele>688.653585</ele>
        <time>2020-09-10T06:15:44.813Z</time>
      </trkpt>
      <trkpt lat="48.753639" lon="9.994144">
        <ele>688.572756</ele>
        <time>2020-09-10T06:15:46.809Z</time>
      </trkpt>
      <trkpt lat="48.753656" lon="9.994312">
        <ele>688.478678</ele>
        <time>2020-09-10T06:15:48.809Z</time>
      </trkpt>
      <trkpt lat="48.753673" lon="9.994490">
        <ele>688.161673</ele>
        <time>2020-09-10T06:15:50.808Z</time>
      </trkpt>
      <trkpt lat="48.753699" lon="9.994662">
        <ele>687.782472</ele>
        <time>2020-09-10T06:15:52.804Z</time>
      </trkpt>
      <trkpt lat="48.753710" lon="9.994839">
        <ele>687.400432</ele>
        <time>2020-09-10T06:15:54.809Z</time>
      </trkpt>
      <trkpt lat="48.753709" lon="9.995014">
        <ele>687.024361</ele>
        <time>2020-09-10T06:15:56.830Z</time>
      </trkpt>
      <trkpt lat="48.753706" lon="9.995190">
        <ele>686.646029</ele>
        <time>2020-09-10T06:15:58.809Z</time>
      </trkpt>
      <trkpt lat="48.753682" lon="9.995353">
        <ele>686.287131</ele>
        <time>2020-09-10T06:16:00.806Z</time>
      </trkpt>
      <trkpt lat="48.753657" lon="9.995506">
        <ele>685.948403</ele>
        <time>2020-09-10T06:16:02.832Z</time>
      </trkpt>
      <trkpt lat="48.753624" lon="9.995646">
        <ele>685.628908</ele>
        <time>2020-09-10T06:16:04.806Z</time>
      </trkpt>
      <trkpt lat="48.753609" lon="9.995782">
        <ele>685.332596</ele>
        <time>2020-09-10T06:16:06.810Z</time>
      </trkpt>
      <trkpt lat="48.753578" lon="9.995924">
        <ele>685.011159</ele>
        <time>2020-09-10T06:16:08.828Z</time>
      </trkpt>
      <trkpt lat="48.753543" lon="9.996063">
        <ele>684.691419</ele>
        <time>2020-09-10T06:16:10.812Z</time>
      </trkpt>
      <trkpt lat="48.753516" lon="9.996206">
        <ele>684.371773</ele>
        <time>2020-09-10T06:16:12.811Z</time>
      </trkpt>
      <trkpt lat="48.753497" lon="9.996343">
        <ele>684.070930</ele>
        <time>2020-09-10T06:16:14.812Z</time>
      </trkpt>
      <trkpt lat="48.753470" lon="9.996479">
        <ele>683.765717</ele>
        <time>2020-09-10T06:16:16.805Z</time>
      </trkpt>
      <trkpt lat="48.753428" lon="9.996674">
        <ele>683.324886</ele>
        <time>2020-09-10T06:16:19.802Z</time>
      </trkpt>
      <trkpt lat="48.753401" lon="9.996822">
        <ele>682.994897</ele>
        <time>2020-09-10T06:16:21.811Z</time>
      </trkpt>
      <trkpt lat="48.753374" lon="9.996973">
        <ele>682.658690</ele>
        <time>2020-09-10T06:16:23.803Z</time>
      </trkpt>
      <trkpt lat="48.753349" lon="9.997114">
        <ele>682.559502</ele>
        <time>2020-09-10T06:16:25.817Z</time>
      </trkpt>
      <trkpt lat="48.753319" lon="9.997269">
        <ele>682.513694</ele>
        <time>2020-09-10T06:16:27.800Z</time>
      </trkpt>
      <trkpt lat="48.753286" lon="9.997415">
        <ele>682.469927</ele>
        <time>2020-09-10T06:16:29.800Z</time>
      </trkpt>
      <trkpt lat="48.753253" lon="9.997560">
        <ele>682.426429</ele>
        <time>2020-09-10T06:16:31.809Z</time>
      </trkpt>
      <trkpt lat="48.753224" lon="9.997715">
        <ele>682.380739</ele>
        <time>2020-09-10T06:16:33.805Z</time>
      </trkpt>
      <trkpt lat="48.753198" lon="9.997859">
        <ele>682.338402</ele>
        <time>2020-09-10T06:16:35.809Z</time>
      </trkpt>
      <trkpt lat="48.753172" lon="9.998008">
        <ele>682.294695</ele>
        <time>2020-09-10T06:16:37.813Z</time>
      </trkpt>
      <trkpt lat="48.753135" lon="9.998197">
        <ele>682.238787</ele>
        <time>2020-09-10T06:16:40.808Z</time>
      </trkpt>
      <trkpt lat="48.753085" lon="9.998390">
        <ele>682.179984</ele>
        <time>2020-09-10T06:16:43.801Z</time>
      </trkpt>
      <trkpt lat="48.753063" lon="9.998525">
        <ele>682.140550</ele>
        <time>2020-09-10T06:16:45.811Z</time>
      </trkpt>
      <trkpt lat="48.753026" lon="9.998718">
        <ele>682.083554</ele>
        <time>2020-09-10T06:16:48.816Z</time>
      </trkpt>
      <trkpt lat="48.752986" lon="9.998886">
        <ele>682.032902</ele>
        <time>2020-09-10T06:16:51.808Z</time>
      </trkpt>
      <trkpt lat="48.752969" lon="9.999036">
        <ele>681.989742</ele>
        <time>2020-09-10T06:16:55.812Z</time>
      </trkpt>
      <trkpt lat="48.752946" lon="9.999188">
        <ele>681.945519</ele>
        <time>2020-09-10T06:16:59.807Z</time>
      </trkpt>
      <trkpt lat="48.752916" lon="9.999404">
        <ele>681.882923</ele>
        <time>2020-09-10T06:18:51.807Z</time>
      </trkpt>
      <trkpt lat="48.752895" lon="9.999563">
        <ele>681.836939</ele>
        <time>2020-09-10T06:18:54.807Z</time>
      </trkpt>
      <trkpt lat="48.752861" lon="9.999767">
        <ele>681.818225</ele>
        <time>2020-09-10T06:18:57.809Z</time>
      </trkpt>
      <trkpt lat="48.752837" lon="9.999926">
        <ele>681.817903</ele>
        <time>2020-09-10T06:18:59.810Z</time>
      </trkpt>
      <trkpt lat="48.752813" lon="10.000079">
        <ele>681.817592</ele>
        <time>2020-09-10T06:19:01.809Z</time>
      </trkpt>
      <trkpt lat="48.752789" lon="10.000230">
        <ele>681.817285</ele>
        <time>2020-09-10T06:19:03.812Z</time>
      </trkpt>
      <trkpt lat="48.752761" lon="10.000376">
        <ele>681.816985</ele>
        <time>2020-09-10T06:19:05.809Z</time>
      </trkpt>
      <trkpt lat="48.752732" lon="10.000517">
        <ele>681.816693</ele>
        <time>2020-09-10T06:19:07.807Z</time>
      </trkpt>
      <trkpt lat="48.752698" lon="10.000670">
        <ele>681.816374</ele>
        <time>2020-09-10T06:19:09.810Z</time>
      </trkpt>
      <trkpt lat="48.752671" lon="10.000836">
        <ele>681.816036</ele>
        <time>2020-09-10T06:19:11.807Z</time>
      </trkpt>
      <trkpt lat="48.752641" lon="10.001003">
        <ele>681.815694</ele>
        <time>2020-09-10T06:19:13.819Z</time>
      </trkpt>
      <trkpt lat="48.752617" lon="10.001172">
        <ele>681.815352</ele>
        <time>2020-09-10T06:19:15.810Z</time>
      </trkpt>
      <trkpt lat="48.752591" lon="10.001339">
        <ele>681.815013</ele>
        <time>2020-09-10T06:19:17.821Z</time>
      </trkpt>
      <trkpt lat="48.752566" lon="10.001503">
        <ele>681.814680</ele>
        <time>2020-09-10T06:19:19.803Z</time>
      </trkpt>
      <trkpt lat="48.752536" lon="10.001662">
        <ele>681.814353</ele>
        <time>2020-09-10T06:19:21.801Z</time>
      </trkpt>
      <trkpt lat="48.752520" lon="10.001828">
        <ele>681.814022</ele>
        <time>2020-09-10T06:19:23.815Z</time>
      </trkpt>
      <trkpt lat="48.752500" lon="10.001993">
        <ele>681.813690</ele>
        <time>2020-09-10T06:19:25.802Z</time>
      </trkpt>
      <trkpt lat="48.752475" lon="10.002171">
        <ele>681.813331</ele>
        <time>2020-09-10T06:19:27.801Z</time>
      </trkpt>
      <trkpt lat="48.752450" lon="10.002342">
        <ele>681.772018</ele>
        <time>2020-09-10T06:19:29.814Z</time>
      </trkpt>
      <trkpt lat="48.752417" lon="10.002511">
        <ele>681.667345</ele>
        <time>2020-09-10T06:19:31.798Z</time>
      </trkpt>
      <trkpt lat="48.752394" lon="10.002685">
        <ele>681.561956</ele>
        <time>2020-09-10T06:19:33.804Z</time>
      </trkpt>
      <trkpt lat="48.752365" lon="10.002853">
        <ele>681.458823</ele>
        <time>2020-09-10T06:19:35.816Z</time>
      </trkpt>
      <trkpt lat="48.752330" lon="10.003015">
        <ele>681.357582</ele>
        <time>2020-09-10T06:19:37.802Z</time>
      </trkpt>
      <trkpt lat="48.752295" lon="10.003181">
        <ele>681.254082</ele>
        <time>2020-09-10T06:19:39.800Z</time>
      </trkpt>
      <trkpt lat="48.752261" lon="10.003350">
        <ele>681.149149</ele>
        <time>2020-09-10T06:19:41.811Z</time>
      </trkpt>
      <trkpt lat="48.752220" lon="10.003510">
        <ele>681.047205</ele>
        <time>2020-09-10T06:19:43.807Z</time>
      </trkpt>
      <trkpt lat="48.752186" lon="10.003663">
        <ele>680.951321</ele>
        <time>2020-09-10T06:19:45.807Z</time>
      </trkpt>
      <trkpt lat="48.752149" lon="10.003830">
        <ele>680.846694</ele>
        <time>2020-09-10T06:19:47.813Z</time>
      </trkpt>
      <trkpt lat="48.752108" lon="10.003990">
        <ele>680.744750</ele>
        <time>2020-09-10T06:19:49.804Z</time>
      </trkpt>
      <trkpt lat="48.752070" lon="10.004162">
        <ele>680.637022</ele>
        <time>2020-09-10T06:19:51.813Z</time>
      </trkpt>
      <trkpt lat="48.752025" lon="10.004333">
        <ele>680.527679</ele>
        <time>2020-09-10T06:19:53.809Z</time>
      </trkpt>
      <trkpt lat="48.751982" lon="10.004520">
        <ele>680.410065</ele>
        <time>2020-09-10T06:19:55.812Z</time>
      </trkpt>
      <trkpt lat="48.751938" lon="10.004697">
        <ele>680.297726</ele>
        <time>2020-09-10T06:19:57.817Z</time>
      </trkpt>
      <trkpt lat="48.751891" lon="10.004863">
        <ele>680.193118</ele>
        <time>2020-09-10T06:19:59.802Z</time>
      </trkpt>
      <trkpt lat="48.751845" lon="10.005029">
        <ele>680.197343</ele>
        <time>2020-09-10T06:20:01.808Z</time>
      </trkpt>
      <trkpt lat="48.751800" lon="10.005194">
        <ele>680.201533</ele>
        <time>2020-09-10T06:20:03.801Z</time>
      </trkpt>
      <trkpt lat="48.751761" lon="10.005364">
        <ele>680.205757</ele>
        <time>2020-09-10T06:20:05.796Z</time>
      </trkpt>
      <trkpt lat="48.751722" lon="10.005532">
        <ele>680.209936</ele>
        <time>2020-09-10T06:20:07.802Z</time>
      </trkpt>
      <trkpt lat="48.751677" lon="10.005695">
        <ele>680.214083</ele>
        <time>2020-09-10T06:20:09.809Z</time>
      </trkpt>
      <trkpt lat="48.751633" lon="10.005865">
        <ele>680.218368</ele>
        <time>2020-09-10T06:20:11.800Z</time>
      </trkpt>
      <trkpt lat="48.751597" lon="10.006030">
        <ele>680.222446</ele>
        <time>2020-09-10T06:20:13.804Z</time>
      </trkpt>
      <trkpt lat="48.751553" lon="10.006192">
        <ele>680.226557</ele>
        <time>2020-09-10T06:20:15.798Z</time>
      </trkpt>
      <trkpt lat="48.751510" lon="10.006361">
        <ele>680.230808</ele>
        <time>2020-09-10T06:20:17.806Z</time>
      </trkpt>
      <trkpt lat="48.751466" lon="10.006534">
        <ele>680.235159</ele>
        <time>2020-09-10T06:20:19.804Z</time>
      </trkpt>
      <trkpt lat="48.751426" lon="10.006696">
        <ele>680.239218</ele>
        <time>2020-09-10T06:20:21.806Z</time>
      </trkpt>
      <trkpt lat="48.751386" lon="10.006860">
        <ele>680.243321</ele>
        <time>2020-09-10T06:20:23.783Z</time>
      </trkpt>
      <trkpt lat="48.751338" lon="10.007024">
        <ele>680.247532</ele>
        <time>2020-09-10T06:20:25.811Z</time>
      </trkpt>
      <trkpt lat="48.751296" lon="10.007195">
        <ele>680.251813</ele>
        <time>2020-09-10T06:20:27.782Z</time>
      </trkpt>
      <trkpt lat="48.751251" lon="10.007360">
        <ele>680.256003</ele>
        <time>2020-09-10T06:20:29.808Z</time>
      </trkpt>
      <trkpt lat="48.751209" lon="10.007531">
        <ele>680.190094</ele>
        <time>2020-09-10T06:20:31.785Z</time>
      </trkpt>
      <trkpt lat="48.751171" lon="10.007705">
        <ele>680.101694</ele>
        <time>2020-09-10T06:20:33.802Z</time>
      </trkpt>
      <trkpt lat="48.751126" lon="10.007877">
        <ele>680.012451</ele>
        <time>2020-09-10T06:20:35.809Z</time>
      </trkpt>
      <trkpt lat="48.751081" lon="10.008048">
        <ele>679.923655</ele>
        <time>2020-09-10T06:20:37.809Z</time>
      </trkpt>
      <trkpt lat="48.751038" lon="10.008221">
        <ele>679.834490</ele>
        <time>2020-09-10T06:20:39.806Z</time>
      </trkpt>
      <trkpt lat="48.750992" lon="10.008399">
        <ele>679.742286</ele>
        <time>2020-09-10T06:20:41.809Z</time>
      </trkpt>
      <trkpt lat="48.750950" lon="10.008575">
        <ele>679.652016</ele>
        <time>2020-09-10T06:20:43.810Z</time>
      </trkpt>
      <trkpt lat="48.750908" lon="10.008750">
        <ele>679.562200</ele>
        <time>2020-09-10T06:20:45.809Z</time>
      </trkpt>
      <trkpt lat="48.750863" lon="10.008923">
        <ele>679.472508</ele>
        <time>2020-09-10T06:20:47.808Z</time>
      </trkpt>
      <trkpt lat="48.750820" lon="10.009095">
        <ele>679.383793</ele>
        <time>2020-09-10T06:20:49.814Z</time>
      </trkpt>
      <trkpt lat="48.750775" lon="10.009264">
        <ele>679.295892</ele>
        <time>2020-09-10T06:20:51.806Z</time>
      </trkpt>
      <trkpt lat="48.750719" lon="10.009426">
        <ele>679.207676</ele>
        <time>2020-09-10T06:20:53.812Z</time>
      </trkpt>
      <trkpt lat="48.750663" lon="10.009590">
        <ele>679.118605</ele>
        <time>2020-09-10T06:20:55.809Z</time>
      </trkpt>
      <trkpt lat="48.750603" lon="10.009750">
        <ele>679.029832</ele>
        <time>2020-09-10T06:20:57.796Z</time>
      </trkpt>
      <trkpt lat="48.750541" lon="10.009905">
        <ele>678.942398</ele>
        <time>2020-09-10T06:20:59.808Z</time>
      </trkpt>
      <trkpt lat="48.750473" lon="10.010067">
        <ele>678.794597</ele>
        <time>2020-09-10T06:21:01.800Z</time>
      </trkpt>
      <trkpt lat="48.750407" lon="10.010226">
        <ele>678.649401</ele>
        <time>2020-09-10T06:21:03.802Z</time>
      </trkpt>
      <trkpt lat="48.750345" lon="10.010393">
        <ele>678.501292</ele>
        <time>2020-09-10T06:21:05.803Z</time>
      </trkpt>
      <trkpt lat="48.750279" lon="10.010551">
        <ele>678.356749</ele>
        <time>2020-09-10T06:21:07.800Z</time>
      </trkpt>
      <trkpt lat="48.750221" lon="10.010712">
        <ele>678.214969</ele>
        <time>2020-09-10T06:21:09.802Z</time>
      </trkpt>
      <trkpt lat="48.750157" lon="10.010868">
        <ele>678.072981</ele>
        <time>2020-09-10T06:21:11.805Z</time>
      </trkpt>
      <trkpt lat="48.750093" lon="10.011023">
        <ele>677.931648</ele>
        <time>2020-09-10T06:21:13.802Z</time>
      </trkpt>
      <trkpt lat="48.750031" lon="10.011189">
        <ele>677.784211</ele>
        <time>2020-09-10T06:21:15.805Z</time>
      </trkpt>
      <trkpt lat="48.749970" lon="10.011340">
        <ele>677.647358</ele>
        <time>2020-09-10T06:21:17.799Z</time>
      </trkpt>
      <trkpt lat="48.749910" lon="10.011505">
        <ele>677.501740</ele>
        <time>2020-09-10T06:21:19.806Z</time>
      </trkpt>
      <trkpt lat="48.749850" lon="10.011653">
        <ele>677.367475</ele>
        <time>2020-09-10T06:21:21.806Z</time>
      </trkpt>
      <trkpt lat="48.749792" lon="10.011805">
        <ele>677.231757</ele>
        <time>2020-09-10T06:21:23.803Z</time>
      </trkpt>
      <trkpt lat="48.749727" lon="10.011957">
        <ele>677.091749</ele>
        <time>2020-09-10T06:21:25.807Z</time>
      </trkpt>
      <trkpt lat="48.749659" lon="10.012113">
        <ele>676.947228</ele>
        <time>2020-09-10T06:21:27.803Z</time>
      </trkpt>
      <trkpt lat="48.749580" lon="10.012253">
        <ele>676.815214</ele>
        <time>2020-09-10T06:21:29.806Z</time>
      </trkpt>
      <trkpt lat="48.749498" lon="10.012378">
        <ele>676.728747</ele>
        <time>2020-09-10T06:21:31.802Z</time>
      </trkpt>
      <trkpt lat="48.749409" lon="10.012495">
        <ele>676.641150</ele>
        <time>2020-09-10T06:21:33.811Z</time>
      </trkpt>
      <trkpt lat="48.749313" lon="10.012596">
        <ele>676.554255</ele>
        <time>2020-09-10T06:21:35.798Z</time>
      </trkpt>
      <trkpt lat="48.749209" lon="10.012692">
        <ele>676.463707</ele>
        <time>2020-09-10T06:21:37.797Z</time>
      </trkpt>
      <trkpt lat="48.749092" lon="10.012769">
        <ele>676.368851</ele>
        <time>2020-09-10T06:21:39.808Z</time>
      </trkpt>
      <trkpt lat="48.748978" lon="10.012837">
        <ele>676.277744</ele>
        <time>2020-09-10T06:21:41.804Z</time>
      </trkpt>
      <trkpt lat="48.748865" lon="10.012900">
        <ele>676.188204</ele>
        <time>2020-09-10T06:21:43.797Z</time>
      </trkpt>
      <trkpt lat="48.748741" lon="10.012962">
        <ele>676.091099</ele>
        <time>2020-09-10T06:21:45.805Z</time>
      </trkpt>
      <trkpt lat="48.748623" lon="10.013020">
        <ele>675.998845</ele>
        <time>2020-09-10T06:21:47.800Z</time>
      </trkpt>
      <trkpt lat="48.748501" lon="10.013072">
        <ele>675.904594</ele>
        <time>2020-09-10T06:21:49.804Z</time>
      </trkpt>
      <trkpt lat="48.748385" lon="10.013135">
        <ele>675.812957</ele>
        <time>2020-09-10T06:21:51.802Z</time>
      </trkpt>
      <trkpt lat="48.748269" lon="10.013199">
        <ele>675.721153</ele>
        <time>2020-09-10T06:21:53.808Z</time>
      </trkpt>
      <trkpt lat="48.748155" lon="10.013261">
        <ele>675.631081</ele>
        <time>2020-09-10T06:21:55.808Z</time>
      </trkpt>
      <trkpt lat="48.748037" lon="10.013316">
        <ele>675.539269</ele>
        <time>2020-09-10T06:21:57.804Z</time>
      </trkpt>
      <trkpt lat="48.747910" lon="10.013357">
        <ele>675.445666</ele>
        <time>2020-09-10T06:21:59.802Z</time>
      </trkpt>
      <trkpt lat="48.747776" lon="10.013365">
        <ele>675.351526</ele>
        <time>2020-09-10T06:22:01.791Z</time>
      </trkpt>
      <trkpt lat="48.747649" lon="10.013378">
        <ele>675.262171</ele>
        <time>2020-09-10T06:22:03.802Z</time>
      </trkpt>
      <trkpt lat="48.747519" lon="10.013396">
        <ele>675.170533</ele>
        <time>2020-09-10T06:22:05.799Z</time>
      </trkpt>
      <trkpt lat="48.747396" lon="10.013419">
        <ele>675.083534</ele>
        <time>2020-09-10T06:22:07.804Z</time>
      </trkpt>
      <trkpt lat="48.747268" lon="10.013437">
        <ele>674.993294</ele>
        <time>2020-09-10T06:22:09.827Z</time>
      </trkpt>
      <trkpt lat="48.747143" lon="10.013464">
        <ele>674.904660</ele>
        <time>2020-09-10T06:22:11.806Z</time>
      </trkpt>
      <trkpt lat="48.747021" lon="10.013500">
        <ele>674.817411</ele>
        <time>2020-09-10T06:22:13.803Z</time>
      </trkpt>
      <trkpt lat="48.746897" lon="10.013545">
        <ele>674.727907</ele>
        <time>2020-09-10T06:22:15.799Z</time>
      </trkpt>
      <trkpt lat="48.746783" lon="10.013619">
        <ele>674.640857</ele>
        <time>2020-09-10T06:22:17.806Z</time>
      </trkpt>
      <trkpt lat="48.746662" lon="10.013692">
        <ele>674.549442</ele>
        <time>2020-09-10T06:22:19.794Z</time>
      </trkpt>
      <trkpt lat="48.746538" lon="10.013754">
        <ele>674.457787</ele>
        <time>2020-09-10T06:22:21.801Z</time>
      </trkpt>
      <trkpt lat="48.746417" lon="10.013797">
        <ele>674.370545</ele>
        <time>2020-09-10T06:22:23.789Z</time>
      </trkpt>
      <trkpt lat="48.746292" lon="10.013821">
        <ele>674.282096</ele>
        <time>2020-09-10T06:22:25.794Z</time>
      </trkpt>
      <trkpt lat="48.746162" lon="10.013824">
        <ele>674.208559</ele>
        <time>2020-09-10T06:22:27.801Z</time>
      </trkpt>
      <trkpt lat="48.746041" lon="10.013824">
        <ele>674.159398</ele>
        <time>2020-09-10T06:22:29.799Z</time>
      </trkpt>
      <trkpt lat="48.745923" lon="10.013845">
        <ele>674.111127</ele>
        <time>2020-09-10T06:22:31.795Z</time>
      </trkpt>
      <trkpt lat="48.745808" lon="10.013884">
        <ele>674.063250</ele>
        <time>2020-09-10T06:22:33.802Z</time>
      </trkpt>
      <trkpt lat="48.745684" lon="10.013896">
        <ele>674.012767</ele>
        <time>2020-09-10T06:22:35.794Z</time>
      </trkpt>
      <trkpt lat="48.745565" lon="10.013848">
        <ele>673.962738</ele>
        <time>2020-09-10T06:22:37.796Z</time>
      </trkpt>
      <trkpt lat="48.745444" lon="10.013825">
        <ele>673.913192</ele>
        <time>2020-09-10T06:22:39.798Z</time>
      </trkpt>
      <trkpt lat="48.745320" lon="10.013815">
        <ele>673.862741</ele>
        <time>2020-09-10T06:22:41.803Z</time>
      </trkpt>
      <trkpt lat="48.745199" lon="10.013843">
        <ele>673.813011</ele>
        <time>2020-09-10T06:22:43.809Z</time>
      </trkpt>
      <trkpt lat="48.745085" lon="10.013910">
        <ele>673.763337</ele>
        <time>2020-09-10T06:22:45.800Z</time>
      </trkpt>
      <trkpt lat="48.744988" lon="10.013998">
        <ele>673.717414</ele>
        <time>2020-09-10T06:22:47.803Z</time>
      </trkpt>
      <trkpt lat="48.744891" lon="10.014103">
        <ele>673.668994</ele>
        <time>2020-09-10T06:22:49.807Z</time>
      </trkpt>
      <trkpt lat="48.744801" lon="10.014202">
        <ele>673.623821</ele>
        <time>2020-09-10T06:22:51.800Z</time>
      </trkpt>
      <trkpt lat="48.744708" lon="10.014309">
        <ele>673.576392</ele>
        <time>2020-09-10T06:22:53.801Z</time>
      </trkpt>
      <trkpt lat="48.744612" lon="10.014407">
        <ele>673.529375</ele>
        <time>2020-09-10T06:22:55.823Z</time>
      </trkpt>
      <trkpt lat="48.744503" lon="10.014500">
        <ele>673.436549</ele>
        <time>2020-09-10T06:22:57.804Z</time>
      </trkpt>
      <trkpt lat="48.744379" lon="10.014563">
        <ele>673.288799</ele>
        <time>2020-09-10T06:22:59.802Z</time>
      </trkpt>
      <trkpt lat="48.744246" lon="10.014572">
        <ele>673.138385</ele>
        <time>2020-09-10T06:23:01.817Z</time>
      </trkpt>
      <trkpt lat="48.744118" lon="10.014535">
        <ele>672.991166</ele>
        <time>2020-09-10T06:23:03.803Z</time>
      </trkpt>
      <trkpt lat="48.743985" lon="10.014515">
        <ele>672.840165</ele>
        <time>2020-09-10T06:23:05.799Z</time>
      </trkpt>
      <trkpt lat="48.743871" lon="10.014551">
        <ele>672.708604</ele>
        <time>2020-09-10T06:23:07.802Z</time>
      </trkpt>
      <trkpt lat="48.743797" lon="10.014673">
        <ele>672.585107</ele>
        <time>2020-09-10T06:23:09.795Z</time>
      </trkpt>
      <trkpt lat="48.743789" lon="10.014825">
        <ele>672.471503</ele>
        <time>2020-09-10T06:23:11.777Z</time>
      </trkpt>
      <trkpt lat="48.743791" lon="10.014991">
        <ele>672.347808</ele>
        <time>2020-09-10T06:23:13.804Z</time>
      </trkpt>
      <trkpt lat="48.743780" lon="10.015163">
        <ele>672.219062</ele>
        <time>2020-09-10T06:23:15.799Z</time>
      </trkpt>
      <trkpt lat="48.743742" lon="10.015329">
        <ele>672.088147</ele>
        <time>2020-09-10T06:23:17.798Z</time>
      </trkpt>
      <trkpt lat="48.743679" lon="10.015459">
        <ele>671.967952</ele>
        <time>2020-09-10T06:23:19.806Z</time>
      </trkpt>
      <trkpt lat="48.743588" lon="10.015558">
        <ele>671.841419</ele>
        <time>2020-09-10T06:23:21.802Z</time>
      </trkpt>
      <trkpt lat="48.743489" lon="10.015647">
        <ele>671.711391</ele>
        <time>2020-09-10T06:23:23.807Z</time>
      </trkpt>
      <trkpt lat="48.743386" lon="10.015724">
        <ele>671.581649</ele>
        <time>2020-09-10T06:23:25.807Z</time>
      </trkpt>
      <trkpt lat="48.743285" lon="10.015787">
        <ele>671.470184</ele>
        <time>2020-09-10T06:23:27.799Z</time>
      </trkpt>
      <trkpt lat="48.743182" lon="10.015836">
        <ele>671.471756</ele>
        <time>2020-09-10T06:23:29.808Z</time>
      </trkpt>
      <trkpt lat="48.743067" lon="10.015884">
        <ele>671.473493</ele>
        <time>2020-09-10T06:23:31.806Z</time>
      </trkpt>
      <trkpt lat="48.742946" lon="10.015926">
        <ele>671.475301</ele>
        <time>2020-09-10T06:23:33.798Z</time>
      </trkpt>
      <trkpt lat="48.742827" lon="10.015949">
        <ele>671.477049</ele>
        <time>2020-09-10T06:23:35.809Z</time>
      </trkpt>
      <trkpt lat="48.742703" lon="10.015974">
        <ele>671.478870</ele>
        <time>2020-09-10T06:23:37.792Z</time>
      </trkpt>
      <trkpt lat="48.742578" lon="10.015999">
        <ele>671.480707</ele>
        <time>2020-09-10T06:23:39.789Z</time>
      </trkpt>
      <trkpt lat="48.742455" lon="10.016025">
        <ele>671.482516</ele>
        <time>2020-09-10T06:23:41.797Z</time>
      </trkpt>
      <trkpt lat="48.742336" lon="10.016057">
        <ele>671.484276</ele>
        <time>2020-09-10T06:23:43.790Z</time>
      </trkpt>
      <trkpt lat="48.742215" lon="10.016081">
        <ele>671.486053</ele>
        <time>2020-09-10T06:23:45.793Z</time>
      </trkpt>
      <trkpt lat="48.742087" lon="10.016103">
        <ele>671.487929</ele>
        <time>2020-09-10T06:23:47.795Z</time>
      </trkpt>
      <trkpt lat="48.741959" lon="10.016136">
        <ele>671.489820</ele>
        <time>2020-09-10T06:23:49.798Z</time>
      </trkpt>
      <trkpt lat="48.741842" lon="10.016175">
        <ele>671.491565</ele>
        <time>2020-09-10T06:23:51.799Z</time>
      </trkpt>
      <trkpt lat="48.741728" lon="10.016228">
        <ele>671.493302</ele>
        <time>2020-09-10T06:23:53.813Z</time>
      </trkpt>
      <trkpt lat="48.741612" lon="10.016294">
        <ele>671.495106</ele>
        <time>2020-09-10T06:23:55.799Z</time>
      </trkpt>
      <trkpt lat="48.741495" lon="10.016361">
        <ele>671.440283</ele>
        <time>2020-09-10T06:23:57.799Z</time>
      </trkpt>
      <trkpt lat="48.741384" lon="10.016426">
        <ele>671.301573</ele>
        <time>2020-09-10T06:23:59.801Z</time>
      </trkpt>
      <trkpt lat="48.741272" lon="10.016493">
        <ele>671.161218</ele>
        <time>2020-09-10T06:24:01.804Z</time>
      </trkpt>
      <trkpt lat="48.741169" lon="10.016565">
        <ele>671.029004</ele>
        <time>2020-09-10T06:24:03.799Z</time>
      </trkpt>
      <trkpt lat="48.741069" lon="10.016643">
        <ele>670.897912</ele>
        <time>2020-09-10T06:24:05.804Z</time>
      </trkpt>
      <trkpt lat="48.740967" lon="10.016739">
        <ele>670.757965</ele>
        <time>2020-09-10T06:24:07.798Z</time>
      </trkpt>
      <trkpt lat="48.740861" lon="10.016842">
        <ele>670.611204</ele>
        <time>2020-09-10T06:24:09.798Z</time>
      </trkpt>
      <trkpt lat="48.740754" lon="10.016933">
        <ele>670.468191</ele>
        <time>2020-09-10T06:24:11.799Z</time>
      </trkpt>
      <trkpt lat="48.740647" lon="10.017014">
        <ele>670.328778</ele>
        <time>2020-09-10T06:24:13.802Z</time>
      </trkpt>
      <trkpt lat="48.740545" lon="10.017095">
        <ele>670.194554</ele>
        <time>2020-09-10T06:24:15.799Z</time>
      </trkpt>
      <trkpt lat="48.740431" lon="10.017155">
        <ele>670.053883</ele>
        <time>2020-09-10T06:24:17.805Z</time>
      </trkpt>
      <trkpt lat="48.740313" lon="10.017218">
        <ele>669.908048</ele>
        <time>2020-09-10T06:24:19.790Z</time>
      </trkpt>
      <trkpt lat="48.740194" lon="10.017269">
        <ele>669.763891</ele>
        <time>2020-09-10T06:24:21.817Z</time>
      </trkpt>
      <trkpt lat="48.740072" lon="10.017315">
        <ele>669.617341</ele>
        <time>2020-09-10T06:24:23.794Z</time>
      </trkpt>
      <trkpt lat="48.739950" lon="10.017344">
        <ele>669.473384</ele>
        <time>2020-09-10T06:24:25.810Z</time>
      </trkpt>
      <trkpt lat="48.739854" lon="10.017359">
        <ele>669.385366</ele>
        <time>2020-09-10T06:24:27.796Z</time>
      </trkpt>
      <trkpt lat="48.739732" lon="10.017355">
        <ele>669.333341</ele>
        <time>2020-09-10T06:24:30.790Z</time>
      </trkpt>
      <trkpt lat="48.739600" lon="10.017362">
        <ele>669.277031</ele>
        <time>2020-09-10T06:24:33.795Z</time>
      </trkpt>
      <trkpt lat="48.739499" lon="10.017385">
        <ele>669.233488</ele>
        <time>2020-09-10T06:24:35.794Z</time>
      </trkpt>
      <trkpt lat="48.739386" lon="10.017436">
        <ele>669.183224</ele>
        <time>2020-09-10T06:24:37.794Z</time>
      </trkpt>
      <trkpt lat="48.739275" lon="10.017486">
        <ele>669.133857</ele>
        <time>2020-09-10T06:24:39.797Z</time>
      </trkpt>
      <trkpt lat="48.739162" lon="10.017560">
        <ele>669.081381</ele>
        <time>2020-09-10T06:24:41.802Z</time>
      </trkpt>
      <trkpt lat="48.739047" lon="10.017601">
        <ele>669.031016</ele>
        <time>2020-09-10T06:24:43.800Z</time>
      </trkpt>
      <trkpt lat="48.738926" lon="10.017643">
        <ele>668.978095</ele>
        <time>2020-09-10T06:24:45.801Z</time>
      </trkpt>
      <trkpt lat="48.738811" lon="10.017666">
        <ele>668.928642</ele>
        <time>2020-09-10T06:24:47.794Z</time>
      </trkpt>
      <trkpt lat="48.738694" lon="10.017678">
        <ele>668.878648</ele>
        <time>2020-09-10T06:24:49.818Z</time>
      </trkpt>
      <trkpt lat="48.738585" lon="10.017701">
        <ele>668.831729</ele>
        <time>2020-09-10T06:24:51.800Z</time>
      </trkpt>
      <trkpt lat="48.738469" lon="10.017725">
        <ele>668.781817</ele>
        <time>2020-09-10T06:24:53.788Z</time>
      </trkpt>
      <trkpt lat="48.738352" lon="10.017758">
        <ele>668.731080</ele>
        <time>2020-09-10T06:24:55.802Z</time>
      </trkpt>
      <trkpt lat="48.738232" lon="10.017791">
        <ele>668.679086</ele>
        <time>2020-09-10T06:24:57.800Z</time>
      </trkpt>
      <trkpt lat="48.738123" lon="10.017822">
        <ele>668.630753</ele>
        <time>2020-09-10T06:24:59.800Z</time>
      </trkpt>
      <trkpt lat="48.738013" lon="10.017852">
        <ele>668.524717</ele>
        <time>2020-09-10T06:25:01.802Z</time>
      </trkpt>
      <trkpt lat="48.737898" lon="10.017875">
        <ele>668.414667</ele>
        <time>2020-09-10T06:25:03.803Z</time>
      </trkpt>
      <trkpt lat="48.737787" lon="10.017890">
        <ele>668.308939</ele>
        <time>2020-09-10T06:25:05.801Z</time>
      </trkpt>
      <trkpt lat="48.737682" lon="10.017889">
        <ele>668.209320</ele>
        <time>2020-09-10T06:25:07.800Z</time>
      </trkpt>
      <trkpt lat="48.737578" lon="10.017858">
        <ele>668.108762</ele>
        <time>2020-09-10T06:25:09.799Z</time>
      </trkpt>
      <trkpt lat="48.737474" lon="10.017808">
        <ele>668.005252</ele>
        <time>2020-09-10T06:25:11.816Z</time>
      </trkpt>
      <trkpt lat="48.737374" lon="10.017752">
        <ele>667.904115</ele>
        <time>2020-09-10T06:25:13.801Z</time>
      </trkpt>
      <trkpt lat="48.737265" lon="10.017695">
        <ele>667.794725</ele>
        <time>2020-09-10T06:25:15.801Z</time>
      </trkpt>
      <trkpt lat="48.737158" lon="10.017645">
        <ele>667.688498</ele>
        <time>2020-09-10T06:25:17.812Z</time>
      </trkpt>
      <trkpt lat="48.737065" lon="10.017608">
        <ele>667.597279</ele>
        <time>2020-09-10T06:25:19.801Z</time>
      </trkpt>
      <trkpt lat="48.736965" lon="10.017560">
        <ele>667.497764</ele>
        <time>2020-09-10T06:25:21.801Z</time>
      </trkpt>
      <trkpt lat="48.736856" lon="10.017500">
        <ele>667.387748</ele>
        <time>2020-09-10T06:25:23.806Z</time>
      </trkpt>
      <trkpt lat="48.736743" lon="10.017442">
        <ele>667.274564</ele>
        <time>2020-09-10T06:25:25.784Z</time>
      </trkpt>
      <trkpt lat="48.736634" lon="10.017428">
        <ele>667.170781</ele>
        <time>2020-09-10T06:25:27.806Z</time>
      </trkpt>
      <trkpt lat="48.736539" lon="10.017462">
        <ele>667.078174</ele>
        <time>2020-09-10T06:25:29.809Z</time>
      </trkpt>
      <trkpt lat="48.736449" lon="10.017491">
        <ele>666.990881</ele>
        <time>2020-09-10T06:25:31.807Z</time>
      </trkpt>
      <trkpt lat="48.736358" lon="10.017526">
        <ele>666.916497</ele>
        <time>2020-09-10T06:25:33.819Z</time>
      </trkpt>
      <trkpt lat="48.736257" lon="10.017559">
        <ele>666.877452</ele>
        <time>2020-09-10T06:25:35.797Z</time>
      </trkpt>
      <trkpt lat="48.736159" lon="10.017600">
        <ele>666.839033</ele>
        <time>2020-09-10T06:25:37.797Z</time>
      </trkpt>
      <trkpt lat="48.736065" lon="10.017636">
        <ele>666.802394</ele>
        <time>2020-09-10T06:25:39.802Z</time>
      </trkpt>
      <trkpt lat="48.735964" lon="10.017644">
        <ele>666.764173</ele>
        <time>2020-09-10T06:25:41.801Z</time>
      </trkpt>
      <trkpt lat="48.735875" lon="10.017567">
        <ele>666.725449</ele>
        <time>2020-09-10T06:25:43.802Z</time>
      </trkpt>
      <trkpt lat="48.735801" lon="10.017478">
        <ele>666.689754</ele>
        <time>2020-09-10T06:25:45.816Z</time>
      </trkpt>
      <trkpt lat="48.735708" lon="10.017405">
        <ele>666.650178</ele>
        <time>2020-09-10T06:25:47.804Z</time>
      </trkpt>
      <trkpt lat="48.735600" lon="10.017340">
        <ele>666.606267</ele>
        <time>2020-09-10T06:25:49.798Z</time>
      </trkpt>
      <trkpt lat="48.735518" lon="10.017259">
        <ele>666.569282</ele>
        <time>2020-09-10T06:25:51.821Z</time>
      </trkpt>
      <trkpt lat="48.735430" lon="10.017168">
        <ele>666.529028</ele>
        <time>2020-09-10T06:25:53.805Z</time>
      </trkpt>
      <trkpt lat="48.735336" lon="10.017074">
        <ele>666.486474</ele>
        <time>2020-09-10T06:25:55.796Z</time>
      </trkpt>
      <trkpt lat="48.735235" lon="10.016971">
        <ele>666.440475</ele>
        <time>2020-09-10T06:25:57.807Z</time>
      </trkpt>
      <trkpt lat="48.735169" lon="10.016864">
        <ele>666.403959</ele>
        <time>2020-09-10T06:25:59.802Z</time>
      </trkpt>
      <trkpt lat="48.735090" lon="10.016733">
        <ele>666.359717</ele>
        <time>2020-09-10T06:26:02.814Z</time>
      </trkpt>
      <trkpt lat="48.734970" lon="10.016710">
        <ele>666.314007</ele>
        <time>2020-09-10T06:26:05.800Z</time>
      </trkpt>
      <trkpt lat="48.734881" lon="10.016767">
        <ele>666.277496</ele>
        <time>2020-09-10T06:26:07.800Z</time>
      </trkpt>
      <trkpt lat="48.734789" lon="10.016773">
        <ele>666.250142</ele>
        <time>2020-09-10T06:26:09.806Z</time>
      </trkpt>
      <trkpt lat="48.734698" lon="10.016750">
        <ele>666.283567</ele>
        <time>2020-09-10T06:26:11.803Z</time>
      </trkpt>
      <trkpt lat="48.734612" lon="10.016683">
        <ele>666.318599</ele>
        <time>2020-09-10T06:26:13.811Z</time>
      </trkpt>
      <trkpt lat="48.734531" lon="10.016586">
        <ele>666.355996</ele>
        <time>2020-09-10T06:26:15.803Z</time>
      </trkpt>
      <trkpt lat="48.734445" lon="10.016530">
        <ele>666.389907</ele>
        <time>2020-09-10T06:26:17.801Z</time>
      </trkpt>
      <trkpt lat="48.734357" lon="10.016484">
        <ele>666.423632</ele>
        <time>2020-09-10T06:26:19.812Z</time>
      </trkpt>
      <trkpt lat="48.734258" lon="10.016452">
        <ele>666.460307</ele>
        <time>2020-09-10T06:26:21.802Z</time>
      </trkpt>
      <trkpt lat="48.734164" lon="10.016390">
        <ele>666.497448</ele>
        <time>2020-09-10T06:26:23.797Z</time>
      </trkpt>
      <trkpt lat="48.734085" lon="10.016270">
        <ele>666.537964</ele>
        <time>2020-09-10T06:26:25.826Z</time>
      </trkpt>
      <trkpt lat="48.734038" lon="10.016119">
        <ele>666.577864</ele>
        <time>2020-09-10T06:26:27.806Z</time>
      </trkpt>
      <trkpt lat="48.733997" lon="10.015986">
        <ele>666.612947</ele>
        <time>2020-09-10T06:26:29.808Z</time>
      </trkpt>
      <trkpt lat="48.733968" lon="10.015845">
        <ele>666.648241</ele>
        <time>2020-09-10T06:26:31.820Z</time>
      </trkpt>
      <trkpt lat="48.733908" lon="10.015677">
        <ele>666.693895</ele>
        <time>2020-09-10T06:26:34.799Z</time>
      </trkpt>
      <trkpt lat="48.733827" lon="10.015546">
        <ele>666.736805</ele>
        <time>2020-09-10T06:26:37.812Z</time>
      </trkpt>
      <trkpt lat="48.733741" lon="10.015466">
        <ele>666.773361</ele>
        <time>2020-09-10T06:26:40.799Z</time>
      </trkpt>
      <trkpt lat="48.733634" lon="10.015425">
        <ele>666.813347</ele>
        <time>2020-09-10T06:26:44.798Z</time>
      </trkpt>
      <trkpt lat="48.733522" lon="10.015433">
        <ele>666.853971</ele>
        <time>2020-09-10T06:26:48.786Z</time>
      </trkpt>
      <trkpt lat="48.733430" lon="10.015466">
        <ele>666.888224</ele>
        <time>2020-09-10T06:26:52.807Z</time>
      </trkpt>
      <trkpt lat="48.733341" lon="10.015492">
        <ele>666.673254</ele>
        <time>2020-09-10T06:26:55.798Z</time>
      </trkpt>
      <trkpt lat="48.733253" lon="10.015455">
        <ele>666.348206</ele>
        <time>2020-09-10T06:26:58.817Z</time>
      </trkpt>
      <trkpt lat="48.733144" lon="10.015408">
        <ele>665.944846</ele>
        <time>2020-09-10T06:27:02.804Z</time>
      </trkpt>
      <trkpt lat="48.733047" lon="10.015312">
        <ele>665.532536</ele>
        <time>2020-09-10T06:27:05.818Z</time>
      </trkpt>
      <trkpt lat="48.732927" lon="10.015298">
        <ele>665.104145</ele>
        <time>2020-09-10T06:27:08.801Z</time>
      </trkpt>
      <trkpt lat="48.732847" lon="10.015371">
        <ele>664.771798</ele>
        <time>2020-09-10T06:27:10.801Z</time>
      </trkpt>
      <trkpt lat="48.732764" lon="10.015441">
        <ele>664.433736</ele>
        <time>2020-09-10T06:27:12.799Z</time>
      </trkpt>
      <trkpt lat="48.732669" lon="10.015533">
        <ele>664.032500</ele>
        <time>2020-09-10T06:27:15.806Z</time>
      </trkpt>
      <trkpt lat="48.732557" lon="10.015658">
        <ele>663.537481</ele>
        <time>2020-09-10T06:29:53.798Z</time>
      </trkpt>
      <trkpt lat="48.732458" lon="10.015715">
        <ele>663.160547</ele>
        <time>2020-09-10T06:29:57.803Z</time>
      </trkpt>
      <trkpt lat="48.732353" lon="10.015783">
        <ele>662.754142</ele>
        <time>2020-09-10T06:30:01.798Z</time>
      </trkpt>
      <trkpt lat="48.732259" lon="10.015825">
        <ele>662.405332</ele>
        <time>2020-09-10T06:30:04.798Z</time>
      </trkpt>
      <trkpt lat="48.732131" lon="10.015898">
        <ele>661.918561</ele>
        <time>2020-09-10T06:30:07.802Z</time>
      </trkpt>
      <trkpt lat="48.731992" lon="10.015962">
        <ele>661.401492</ele>
        <time>2020-09-10T06:30:09.804Z</time>
      </trkpt>
      <trkpt lat="48.731872" lon="10.016023">
        <ele>660.950995</ele>
        <time>2020-09-10T06:30:11.798Z</time>
      </trkpt>
      <trkpt lat="48.731769" lon="10.016069">
        <ele>660.568802</ele>
        <time>2020-09-10T06:30:13.803Z</time>
      </trkpt>
      <trkpt lat="48.731669" lon="10.016079">
        <ele>660.682088</ele>
        <time>2020-09-10T06:30:15.799Z</time>
      </trkpt>
      <trkpt lat="48.731552" lon="10.016071">
        <ele>660.955127</ele>
        <time>2020-09-10T06:30:18.801Z</time>
      </trkpt>
      <trkpt lat="48.731421" lon="10.016033">
        <ele>661.266066</ele>
        <time>2020-09-10T06:30:21.802Z</time>
      </trkpt>
      <trkpt lat="48.731324" lon="10.015956">
        <ele>661.521323</ele>
        <time>2020-09-10T06:30:23.790Z</time>
      </trkpt>
      <trkpt lat="48.731239" lon="10.015891">
        <ele>661.743263</ele>
        <time>2020-09-10T06:30:25.808Z</time>
      </trkpt>
      <trkpt lat="48.731116" lon="10.015899">
        <ele>662.030276</ele>
        <time>2020-09-10T06:30:28.789Z</time>
      </trkpt>
      <trkpt lat="48.731000" lon="10.015970">
        <ele>662.321913</ele>
        <time>2020-09-10T06:30:30.789Z</time>
      </trkpt>
      <trkpt lat="48.730883" lon="10.016123">
        <ele>662.682122</ele>
        <time>2020-09-10T06:30:32.792Z</time>
      </trkpt>
      <trkpt lat="48.730798" lon="10.016289">
        <ele>663.005271</ele>
        <time>2020-09-10T06:30:34.792Z</time>
      </trkpt>
      <trkpt lat="48.730744" lon="10.016431">
        <ele>663.257317</ele>
        <time>2020-09-10T06:30:36.787Z</time>
      </trkpt>
      <trkpt lat="48.730657" lon="10.016498">
        <ele>663.484807</ele>
        <time>2020-09-10T06:30:38.808Z</time>
      </trkpt>
      <trkpt lat="48.730545" lon="10.016492">
        <ele>663.746075</ele>
        <time>2020-09-10T06:30:41.790Z</time>
      </trkpt>
      <trkpt lat="48.730458" lon="10.016456">
        <ele>663.956316</ele>
        <time>2020-09-10T06:30:43.797Z</time>
      </trkpt>
      <trkpt lat="48.730365" lon="10.016385">
        <ele>664.199064</ele>
        <time>2020-09-10T06:30:45.782Z</time>
      </trkpt>
      <trkpt lat="48.730261" lon="10.016333">
        <ele>664.454364</ele>
        <time>2020-09-10T06:30:47.788Z</time>
      </trkpt>
      <trkpt lat="48.730158" lon="10.016359">
        <ele>664.689226</ele>
        <time>2020-09-10T06:30:49.767Z</time>
      </trkpt>
      <trkpt lat="48.730061" lon="10.016478">
        <ele>664.688591</ele>
        <time>2020-09-10T06:30:51.772Z</time>
      </trkpt>
      <trkpt lat="48.729995" lon="10.016634">
        <ele>664.687969</ele>
        <time>2020-09-10T06:30:53.803Z</time>
      </trkpt>
      <trkpt lat="48.729921" lon="10.016781">
        <ele>664.687349</ele>
        <time>2020-09-10T06:30:55.798Z</time>
      </trkpt>
      <trkpt lat="48.729822" lon="10.016892">
        <ele>664.686722</ele>
        <time>2020-09-10T06:30:57.798Z</time>
      </trkpt>
      <trkpt lat="48.729729" lon="10.016983">
        <ele>664.686159</ele>
        <time>2020-09-10T06:30:59.777Z</time>
      </trkpt>
      <trkpt lat="48.729631" lon="10.017037">
        <ele>664.685628</ele>
        <time>2020-09-10T06:31:01.800Z</time>
      </trkpt>
      <trkpt lat="48.729528" lon="10.017055">
        <ele>664.685101</ele>
        <time>2020-09-10T06:31:03.783Z</time>
      </trkpt>
      <trkpt lat="48.729421" lon="10.017050">
        <ele>664.684556</ele>
        <time>2020-09-10T06:31:05.810Z</time>
      </trkpt>
      <trkpt lat="48.729320" lon="10.017024">
        <ele>664.684035</ele>
        <time>2020-09-10T06:31:07.804Z</time>
      </trkpt>
      <trkpt lat="48.729210" lon="10.017006">
        <ele>664.683472</ele>
        <time>2020-09-10T06:31:09.821Z</time>
      </trkpt>
      <trkpt lat="48.729102" lon="10.016984">
        <ele>664.682917</ele>
        <time>2020-09-10T06:31:11.800Z</time>
      </trkpt>
      <trkpt lat="48.729004" lon="10.016951">
        <ele>664.682406</ele>
        <time>2020-09-10T06:31:13.818Z</time>
      </trkpt>
      <trkpt lat="48.728895" lon="10.016893">
        <ele>664.681819</ele>
        <time>2020-09-10T06:31:15.798Z</time>
      </trkpt>
      <trkpt lat="48.728790" lon="10.016817">
        <ele>664.681227</ele>
        <time>2020-09-10T06:31:17.796Z</time>
      </trkpt>
      <trkpt lat="48.728683" lon="10.016785">
        <ele>664.680672</ele>
        <time>2020-09-10T06:31:19.800Z</time>
      </trkpt>
      <trkpt lat="48.728577" lon="10.016846">
        <ele>664.680095</ele>
        <time>2020-09-10T06:31:21.800Z</time>
      </trkpt>
      <trkpt lat="48.728472" lon="10.016933">
        <ele>664.640064</ele>
        <time>2020-09-10T06:31:23.793Z</time>
      </trkpt>
      <trkpt lat="48.728361" lon="10.017034">
        <ele>664.596615</ele>
        <time>2020-09-10T06:31:25.801Z</time>
      </trkpt>
      <trkpt lat="48.728260" lon="10.017138">
        <ele>664.555638</ele>
        <time>2020-09-10T06:31:27.786Z</time>
      </trkpt>
      <trkpt lat="48.728169" lon="10.017254">
        <ele>664.515735</ele>
        <time>2020-09-10T06:31:29.805Z</time>
      </trkpt>
      <trkpt lat="48.728077" lon="10.017363">
        <ele>664.476547</ele>
        <time>2020-09-10T06:31:31.788Z</time>
      </trkpt>
      <trkpt lat="48.727977" lon="10.017444">
        <ele>664.438495</ele>
        <time>2020-09-10T06:31:33.799Z</time>
      </trkpt>
      <trkpt lat="48.727868" lon="10.017519">
        <ele>664.398321</ele>
        <time>2020-09-10T06:31:35.795Z</time>
      </trkpt>
      <trkpt lat="48.727778" lon="10.017543">
        <ele>664.367652</ele>
        <time>2020-09-10T06:31:37.794Z</time>
      </trkpt>
      <trkpt lat="48.727655" lon="10.017512">
        <ele>664.325804</ele>
        <time>2020-09-10T06:31:40.796Z</time>
      </trkpt>
      <trkpt lat="48.727527" lon="10.017449">
        <ele>664.280638</ele>
        <time>2020-09-10T06:31:43.789Z</time>
      </trkpt>
      <trkpt lat="48.727439" lon="10.017390">
        <ele>664.248344</ele>
        <time>2020-09-10T06:31:45.799Z</time>
      </trkpt>
      <trkpt lat="48.727350" lon="10.017324">
        <ele>664.215092</ele>
        <time>2020-09-10T06:31:47.798Z</time>
      </trkpt>
      <trkpt lat="48.727269" lon="10.017251">
        <ele>664.183466</ele>
        <time>2020-09-10T06:31:49.798Z</time>
      </trkpt>
      <trkpt lat="48.727183" lon="10.017162">
        <ele>664.148518</ele>
        <time>2020-09-10T06:31:52.801Z</time>
      </trkpt>
      <trkpt lat="48.727088" lon="10.017104">
        <ele>664.114146</ele>
        <time>2020-09-10T06:31:55.802Z</time>
      </trkpt>
      <trkpt lat="48.727004" lon="10.017047">
        <ele>664.083259</ele>
        <time>2020-09-10T06:31:57.814Z</time>
      </trkpt>
      <trkpt lat="48.726919" lon="10.016980">
        <ele>664.010388</ele>
        <time>2020-09-10T06:31:59.789Z</time>
      </trkpt>
      <trkpt lat="48.726841" lon="10.016874">
        <ele>663.918719</ele>
        <time>2020-09-10T06:32:01.801Z</time>
      </trkpt>
      <trkpt lat="48.726749" lon="10.016754">
        <ele>663.812510</ele>
        <time>2020-09-10T06:32:03.804Z</time>
      </trkpt>
      <trkpt lat="48.726659" lon="10.016641">
        <ele>663.710246</ele>
        <time>2020-09-10T06:32:05.798Z</time>
      </trkpt>
      <trkpt lat="48.726578" lon="10.016528">
        <ele>663.613916</ele>
        <time>2020-09-10T06:32:07.800Z</time>
      </trkpt>
      <trkpt lat="48.726481" lon="10.016402">
        <ele>663.502132</ele>
        <time>2020-09-10T06:32:09.813Z</time>
      </trkpt>
      <trkpt lat="48.726385" lon="10.016273">
        <ele>663.389869</ele>
        <time>2020-09-10T06:32:11.800Z</time>
      </trkpt>
      <trkpt lat="48.726299" lon="10.016193">
        <ele>663.301571</ele>
        <time>2020-09-10T06:32:13.798Z</time>
      </trkpt>
      <trkpt lat="48.726202" lon="10.016140">
        <ele>663.211341</ele>
        <time>2020-09-10T06:32:15.812Z</time>
      </trkpt>
      <trkpt lat="48.726097" lon="10.016086">
        <ele>663.114312</ele>
        <time>2020-09-10T06:32:17.801Z</time>
      </trkpt>
      <trkpt lat="48.725995" lon="10.016063">
        <ele>663.024069</ele>
        <time>2020-09-10T06:32:19.802Z</time>
      </trkpt>
      <trkpt lat="48.725868" lon="10.016052">
        <ele>662.912750</ele>
        <time>2020-09-10T06:32:21.790Z</time>
      </trkpt>
      <trkpt lat="48.725756" lon="10.016061">
        <ele>662.814602</ele>
        <time>2020-09-10T06:32:23.793Z</time>
      </trkpt>
      <trkpt lat="48.725639" lon="10.016069">
        <ele>662.712111</ele>
        <time>2020-09-10T06:32:25.801Z</time>
      </trkpt>
      <trkpt lat="48.725531" lon="10.016063">
        <ele>662.617537</ele>
        <time>2020-09-10T06:32:27.792Z</time>
      </trkpt>
      <trkpt lat="48.725426" lon="10.016048">
        <ele>662.525244</ele>
        <time>2020-09-10T06:32:29.789Z</time>
      </trkpt>
      <trkpt lat="48.725304" lon="10.016018">
        <ele>662.338295</ele>
        <time>2020-09-10T06:32:31.791Z</time>
      </trkpt>
      <trkpt lat="48.725193" lon="10.015974">
        <ele>662.145215</ele>
        <time>2020-09-10T06:32:33.795Z</time>
      </trkpt>
      <trkpt lat="48.725092" lon="10.015928">
        <ele>661.967739</ele>
        <time>2020-09-10T06:32:35.792Z</time>
      </trkpt>
      <trkpt lat="48.724995" lon="10.015872">
        <ele>661.793062</ele>
        <time>2020-09-10T06:32:37.797Z</time>
      </trkpt>
      <trkpt lat="48.724896" lon="10.015816">
        <ele>661.615236</ele>
        <time>2020-09-10T06:32:39.801Z</time>
      </trkpt>
      <trkpt lat="48.724798" lon="10.015747">
        <ele>661.433393</ele>
        <time>2020-09-10T06:32:41.797Z</time>
      </trkpt>
      <trkpt lat="48.724698" lon="10.015692">
        <ele>661.254371</ele>
        <time>2020-09-10T06:32:43.796Z</time>
      </trkpt>
      <trkpt lat="48.724599" lon="10.015601">
        <ele>661.059529</ele>
        <time>2020-09-10T06:32:45.800Z</time>
      </trkpt>
      <trkpt lat="48.724519" lon="10.015480">
        <ele>660.869346</ele>
        <time>2020-09-10T06:32:47.799Z</time>
      </trkpt>
      <trkpt lat="48.724438" lon="10.015352">
        <ele>660.672435</ele>
        <time>2020-09-10T06:32:49.798Z</time>
      </trkpt>
      <trkpt lat="48.724383" lon="10.015210">
        <ele>660.489628</ele>
        <time>2020-09-10T06:32:51.793Z</time>
      </trkpt>
      <trkpt lat="48.724335" lon="10.015062">
        <ele>660.306541</ele>
        <time>2020-09-10T06:32:53.796Z</time>
      </trkpt>
      <trkpt lat="48.724279" lon="10.014909">
        <ele>660.112293</ele>
        <time>2020-09-10T06:32:55.814Z</time>
      </trkpt>
      <trkpt lat="48.724223" lon="10.014771">
        <ele>659.932425</ele>
        <time>2020-09-10T06:32:57.797Z</time>
      </trkpt>
      <trkpt lat="48.724147" lon="10.014659">
        <ele>659.754048</ele>
        <time>2020-09-10T06:32:59.798Z</time>
      </trkpt>
      <trkpt lat="48.724045" lon="10.014601">
        <ele>659.570715</ele>
        <time>2020-09-10T06:33:01.806Z</time>
      </trkpt>
      <trkpt lat="48.723937" lon="10.014621">
        <ele>659.419633</ele>
        <time>2020-09-10T06:33:03.797Z</time>
      </trkpt>
      <trkpt lat="48.723831" lon="10.014670">
        <ele>659.301047</ele>
        <time>2020-09-10T06:33:05.798Z</time>
      </trkpt>
      <trkpt lat="48.723728" lon="10.014710">
        <ele>659.187268</ele>
        <time>2020-09-10T06:33:07.808Z</time>
      </trkpt>
      <trkpt lat="48.723616" lon="10.014731">
        <ele>659.066504</ele>
        <time>2020-09-10T06:33:09.796Z</time>
      </trkpt>
      <trkpt lat="48.723506" lon="10.014745">
        <ele>658.948380</ele>
        <time>2020-09-10T06:33:11.801Z</time>
      </trkpt>
      <trkpt lat="48.723403" lon="10.014753">
        <ele>658.838016</ele>
        <time>2020-09-10T06:33:13.800Z</time>
      </trkpt>
      <trkpt lat="48.723285" lon="10.014770">
        <ele>658.711177</ele>
        <time>2020-09-10T06:33:15.804Z</time>
      </trkpt>
      <trkpt lat="48.723195" lon="10.014800">
        <ele>658.612568</ele>
        <time>2020-09-10T06:33:17.796Z</time>
      </trkpt>
      <trkpt lat="48.723072" lon="10.014856">
        <ele>658.475138</ele>
        <time>2020-09-10T06:33:20.788Z</time>
      </trkpt>
      <trkpt lat="48.722947" lon="10.014867">
        <ele>658.341152</ele>
        <time>2020-09-10T06:33:22.800Z</time>
      </trkpt>
      <trkpt lat="48.722816" lon="10.014858">
        <ele>658.200826</ele>
        <time>2020-09-10T06:33:24.786Z</time>
      </trkpt>
      <trkpt lat="48.722678" lon="10.014863">
        <ele>658.053111</ele>
        <time>2020-09-10T06:33:26.785Z</time>
      </trkpt>
      <trkpt lat="48.722546" lon="10.014863">
        <ele>657.911859</ele>
        <time>2020-09-10T06:33:28.785Z</time>
      </trkpt>
      <trkpt lat="48.722409" lon="10.014854">
        <ele>657.765119</ele>
        <time>2020-09-10T06:33:30.790Z</time>
      </trkpt>
      <trkpt lat="48.722287" lon="10.014845">
        <ele>657.634414</ele>
        <time>2020-09-10T06:33:32.787Z</time>
      </trkpt>
      <trkpt lat="48.722181" lon="10.014810">
        <ele>657.534044</ele>
        <time>2020-09-10T06:33:34.787Z</time>
      </trkpt>
      <trkpt lat="48.722070" lon="10.014778">
        <ele>657.471593</ele>
        <time>2020-09-10T06:33:36.787Z</time>
      </trkpt>
      <trkpt lat="48.721957" lon="10.014752">
        <ele>657.408421</ele>
        <time>2020-09-10T06:33:38.786Z</time>
      </trkpt>
      <trkpt lat="48.721859" lon="10.014706">
        <ele>657.351717</ele>
        <time>2020-09-10T06:33:40.787Z</time>
      </trkpt>
      <trkpt lat="48.721745" lon="10.014659">
        <ele>657.286419</ele>
        <time>2020-09-10T06:33:43.788Z</time>
      </trkpt>
      <trkpt lat="48.721647" lon="10.014601">
        <ele>657.228270</ele>
        <time>2020-09-10T06:33:45.796Z</time>
      </trkpt>
      <trkpt lat="48.721551" lon="10.014555">
        <ele>657.172621</ele>
        <time>2020-09-10T06:33:47.913Z</time>
      </trkpt>
      <trkpt lat="48.721443" lon="10.014521">
        <ele>657.111654</ele>
        <time>2020-09-10T06:33:49.797Z</time>
      </trkpt>
      <trkpt lat="48.721334" lon="10.014488">
        <ele>657.050218</ele>
        <time>2020-09-10T06:33:51.804Z</time>
      </trkpt>
      <trkpt lat="48.721218" lon="10.014470">
        <ele>656.985768</ele>
        <time>2020-09-10T06:33:53.800Z</time>
      </trkpt>
      <trkpt lat="48.721103" lon="10.014457">
        <ele>656.922029</ele>
        <time>2020-09-10T06:33:55.787Z</time>
      </trkpt>
      <trkpt lat="48.720975" lon="10.014463">
        <ele>656.851248</ele>
        <time>2020-09-10T06:33:57.794Z</time>
      </trkpt>
      <trkpt lat="48.720852" lon="10.014459">
        <ele>656.783248</ele>
        <time>2020-09-10T06:33:59.799Z</time>
      </trkpt>
      <trkpt lat="48.720746" lon="10.014429">
        <ele>656.723648</ele>
        <time>2020-09-10T06:34:01.800Z</time>
      </trkpt>
      <trkpt lat="48.720662" lon="10.014359">
        <ele>656.670666</ele>
        <time>2020-09-10T06:34:03.785Z</time>
      </trkpt>
      <trkpt lat="48.720590" lon="10.014264">
        <ele>656.617905</ele>
        <time>2020-09-10T06:34:05.795Z</time>
      </trkpt>
      <trkpt lat="48.720532" lon="10.014148">
        <ele>656.564831</ele>
        <time>2020-09-10T06:34:07.796Z</time>
      </trkpt>
      <trkpt lat="48.720471" lon="10.014024">
        <ele>656.490543</ele>
        <time>2020-09-10T06:34:09.795Z</time>
      </trkpt>
      <trkpt lat="48.720393" lon="10.013865">
        <ele>656.391522</ele>
        <time>2020-09-10T06:34:11.798Z</time>
      </trkpt>
      <trkpt lat="48.720313" lon="10.013713">
        <ele>656.294348</ele>
        <time>2020-09-10T06:34:13.805Z</time>
      </trkpt>
      <trkpt lat="48.720231" lon="10.013578">
        <ele>656.202640</ele>
        <time>2020-09-10T06:34:15.800Z</time>
      </trkpt>
      <trkpt lat="48.720151" lon="10.013443">
        <ele>656.111953</ele>
        <time>2020-09-10T06:34:17.803Z</time>
      </trkpt>
      <trkpt lat="48.720071" lon="10.013324">
        <ele>656.027045</ele>
        <time>2020-09-10T06:34:19.799Z</time>
      </trkpt>
      <trkpt lat="48.719986" lon="10.013199">
        <ele>655.937332</ele>
        <time>2020-09-10T06:34:21.798Z</time>
      </trkpt>
      <trkpt lat="48.719891" lon="10.013079">
        <ele>655.843656</ele>
        <time>2020-09-10T06:34:23.794Z</time>
      </trkpt>
      <trkpt lat="48.719804" lon="10.012970">
        <ele>655.758153</ele>
        <time>2020-09-10T06:34:25.800Z</time>
      </trkpt>
      <trkpt lat="48.719700" lon="10.012867">
        <ele>655.664046</ele>
        <time>2020-09-10T06:34:27.812Z</time>
      </trkpt>
      <trkpt lat="48.719601" lon="10.012760">
        <ele>655.571940</ele>
        <time>2020-09-10T06:34:29.798Z</time>
      </trkpt>
      <trkpt lat="48.719496" lon="10.012647">
        <ele>655.474392</ele>
        <time>2020-09-10T06:34:31.804Z</time>
      </trkpt>
      <trkpt lat="48.719384" lon="10.012617">
        <ele>655.388236</ele>
        <time>2020-09-10T06:34:33.810Z</time>
      </trkpt>
      <trkpt lat="48.719263" lon="10.012697">
        <ele>655.288237</ele>
        <time>2020-09-10T06:34:35.793Z</time>
      </trkpt>
      <trkpt lat="48.719151" lon="10.012827">
        <ele>655.154026</ele>
        <time>2020-09-10T06:34:37.801Z</time>
      </trkpt>
      <trkpt lat="48.719054" lon="10.012980">
        <ele>654.821945</ele>
        <time>2020-09-10T06:34:39.794Z</time>
      </trkpt>
      <trkpt lat="48.718951" lon="10.013135">
        <ele>654.477650</ele>
        <time>2020-09-10T06:34:41.802Z</time>
      </trkpt>
      <trkpt lat="48.718857" lon="10.013275">
        <ele>654.165040</ele>
        <time>2020-09-10T06:34:43.790Z</time>
      </trkpt>
      <trkpt lat="48.718768" lon="10.013417">
        <ele>653.858515</ele>
        <time>2020-09-10T06:34:45.791Z</time>
      </trkpt>
      <trkpt lat="48.718678" lon="10.013542">
        <ele>653.568950</ele>
        <time>2020-09-10T06:34:47.790Z</time>
      </trkpt>
      <trkpt lat="48.718574" lon="10.013649">
        <ele>653.270784</ele>
        <time>2020-09-10T06:34:49.797Z</time>
      </trkpt>
      <trkpt lat="48.718463" lon="10.013714">
        <ele>652.988512</ele>
        <time>2020-09-10T06:34:51.794Z</time>
      </trkpt>
      <trkpt lat="48.718350" lon="10.013686">
        <ele>652.716906</ele>
        <time>2020-09-10T06:34:53.797Z</time>
      </trkpt>
      <trkpt lat="48.718233" lon="10.013636">
        <ele>652.428548</ele>
        <time>2020-09-10T06:34:55.795Z</time>
      </trkpt>
      <trkpt lat="48.718116" lon="10.013556">
        <ele>652.124077</ele>
        <time>2020-09-10T06:34:57.800Z</time>
      </trkpt>
      <trkpt lat="48.718010" lon="10.013433">
        <ele>651.807407</ele>
        <time>2020-09-10T06:34:59.793Z</time>
      </trkpt>
      <trkpt lat="48.717921" lon="10.013296">
        <ele>651.506504</ele>
        <time>2020-09-10T06:35:01.800Z</time>
      </trkpt>
      <trkpt lat="48.717832" lon="10.013147">
        <ele>651.191943</ele>
        <time>2020-09-10T06:35:03.799Z</time>
      </trkpt>
      <trkpt lat="48.717762" lon="10.012989">
        <ele>650.909298</ele>
        <time>2020-09-10T06:35:05.801Z</time>
      </trkpt>
      <trkpt lat="48.717709" lon="10.012823">
        <ele>650.751570</ele>
        <time>2020-09-10T06:35:07.815Z</time>
      </trkpt>
      <trkpt lat="48.717656" lon="10.012658">
        <ele>650.594612</ele>
        <time>2020-09-10T06:35:09.794Z</time>
      </trkpt>
      <trkpt lat="48.717603" lon="10.012508">
        <ele>650.449080</ele>
        <time>2020-09-10T06:35:11.796Z</time>
      </trkpt>
      <trkpt lat="48.717543" lon="10.012361">
        <ele>650.301238</ele>
        <time>2020-09-10T06:35:13.808Z</time>
      </trkpt>
      <trkpt lat="48.717481" lon="10.012227">
        <ele>650.161256</ele>
        <time>2020-09-10T06:35:15.769Z</time>
      </trkpt>
      <trkpt lat="48.717408" lon="10.012129">
        <ele>650.034841</ele>
        <time>2020-09-10T06:35:17.785Z</time>
      </trkpt>
      <trkpt lat="48.717313" lon="10.012054">
        <ele>649.895984</ele>
        <time>2020-09-10T06:35:19.796Z</time>
      </trkpt>
      <trkpt lat="48.717206" lon="10.012021">
        <ele>649.754433</ele>
        <time>2020-09-10T06:35:21.796Z</time>
      </trkpt>
      <trkpt lat="48.717099" lon="10.012013">
        <ele>649.615556</ele>
        <time>2020-09-10T06:35:23.812Z</time>
      </trkpt>
      <trkpt lat="48.716979" lon="10.012029">
        <ele>649.459395</ele>
        <time>2020-09-10T06:35:25.796Z</time>
      </trkpt>
      <trkpt lat="48.716862" lon="10.012067">
        <ele>649.304280</ele>
        <time>2020-09-10T06:35:27.798Z</time>
      </trkpt>
      <trkpt lat="48.716739" lon="10.012120">
        <ele>649.138512</ele>
        <time>2020-09-10T06:35:29.805Z</time>
      </trkpt>
      <trkpt lat="48.716624" lon="10.012190">
        <ele>648.977860</ele>
        <time>2020-09-10T06:35:31.788Z</time>
      </trkpt>
      <trkpt lat="48.716511" lon="10.012258">
        <ele>648.820250</ele>
        <time>2020-09-10T06:35:33.795Z</time>
      </trkpt>
      <trkpt lat="48.716413" lon="10.012303">
        <ele>648.687506</ele>
        <time>2020-09-10T06:35:35.793Z</time>
      </trkpt>
      <trkpt lat="48.716316" lon="10.012363">
        <ele>648.577242</ele>
        <time>2020-09-10T06:35:37.787Z</time>
      </trkpt>
      <trkpt lat="48.716218" lon="10.012433">
        <ele>648.517828</ele>
        <time>2020-09-10T06:35:39.789Z</time>
      </trkpt>
      <trkpt lat="48.716116" lon="10.012510">
        <ele>648.455335</ele>
        <time>2020-09-10T06:35:41.790Z</time>
      </trkpt>
      <trkpt lat="48.716022" lon="10.012591">
        <ele>648.396034</ele>
        <time>2020-09-10T06:35:43.786Z</time>
      </trkpt>
      <trkpt lat="48.715924" lon="10.012673">
        <ele>648.334643</ele>
        <time>2020-09-10T06:35:45.790Z</time>
      </trkpt>
      <trkpt lat="48.715822" lon="10.012753">
        <ele>648.271659</ele>
        <time>2020-09-10T06:35:47.789Z</time>
      </trkpt>
      <trkpt lat="48.715706" lon="10.012826">
        <ele>648.202776</ele>
        <time>2020-09-10T06:35:49.786Z</time>
      </trkpt>
      <trkpt lat="48.715600" lon="10.012926">
        <ele>648.134303</ele>
        <time>2020-09-10T06:35:51.799Z</time>
      </trkpt>
      <trkpt lat="48.715486" lon="10.013006">
        <ele>648.065407</ele>
        <time>2020-09-10T06:35:53.795Z</time>
      </trkpt>
      <trkpt lat="48.715387" lon="10.013091">
        <ele>648.003007</ele>
        <time>2020-09-10T06:35:55.790Z</time>
      </trkpt>
      <trkpt lat="48.715288" lon="10.013183">
        <ele>647.939321</ele>
        <time>2020-09-10T06:35:57.793Z</time>
      </trkpt>
      <trkpt lat="48.715187" lon="10.013273">
        <ele>647.875067</ele>
        <time>2020-09-10T06:35:59.798Z</time>
      </trkpt>
      <trkpt lat="48.715086" lon="10.013348">
        <ele>647.813386</ele>
        <time>2020-09-10T06:36:01.794Z</time>
      </trkpt>
      <trkpt lat="48.714981" lon="10.013423">
        <ele>647.749727</ele>
        <time>2020-09-10T06:36:03.796Z</time>
      </trkpt>
      <trkpt lat="48.714873" lon="10.013524">
        <ele>647.680130</ele>
        <time>2020-09-10T06:36:05.793Z</time>
      </trkpt>
      <trkpt lat="48.714777" lon="10.013651">
        <ele>647.610247</ele>
        <time>2020-09-10T06:36:07.806Z</time>
      </trkpt>
      <trkpt lat="48.714683" lon="10.013764">
        <ele>647.515818</ele>
        <time>2020-09-10T06:36:09.797Z</time>
      </trkpt>
      <trkpt lat="48.714596" lon="10.013894">
        <ele>647.419358</ele>
        <time>2020-09-10T06:36:11.794Z</time>
      </trkpt>
      <trkpt lat="48.714498" lon="10.014008">
        <ele>647.321821</ele>
        <time>2020-09-10T06:36:13.793Z</time>
      </trkpt>
      <trkpt lat="48.714402" lon="10.014126">
        <ele>647.224232</ele>
        <time>2020-09-10T06:36:15.802Z</time>
      </trkpt>
      <trkpt lat="48.714316" lon="10.014247">
        <ele>647.131584</ele>
        <time>2020-09-10T06:36:17.799Z</time>
      </trkpt>
      <trkpt lat="48.714228" lon="10.014348">
        <ele>647.044431</ele>
        <time>2020-09-10T06:36:19.804Z</time>
      </trkpt>
      <trkpt lat="48.714164" lon="10.014461">
        <ele>646.966852</ele>
        <time>2020-09-10T06:36:25.884Z</time>
      </trkpt>
      <trkpt lat="48.714091" lon="10.014595">
        <ele>646.876327</ele>
        <time>2020-09-10T06:36:25.932Z</time>
      </trkpt>
      <trkpt lat="48.714025" lon="10.014739">
        <ele>646.784988</ele>
        <time>2020-09-10T06:36:25.962Z</time>
      </trkpt>
      <trkpt lat="48.713976" lon="10.014911">
        <ele>646.687390</ele>
        <time>2020-09-10T06:36:27.799Z</time>
      </trkpt>
      <trkpt lat="48.713917" lon="10.015097">
        <ele>646.579879</ele>
        <time>2020-09-10T06:36:29.797Z</time>
      </trkpt>
      <trkpt lat="48.713864" lon="10.015295">
        <ele>646.468567</ele>
        <time>2020-09-10T06:36:31.801Z</time>
      </trkpt>
      <trkpt lat="48.713801" lon="10.015484">
        <ele>646.358257</ele>
        <time>2020-09-10T06:36:33.796Z</time>
      </trkpt>
      <trkpt lat="48.713753" lon="10.015651">
        <ele>646.263363</ele>
        <time>2020-09-10T06:36:35.806Z</time>
      </trkpt>
      <trkpt lat="48.713704" lon="10.015819">
        <ele>646.163645</ele>
        <time>2020-09-10T06:36:37.789Z</time>
      </trkpt>
      <trkpt lat="48.713652" lon="10.015968">
        <ele>646.059616</ele>
        <time>2020-09-10T06:36:39.788Z</time>
      </trkpt>
      <trkpt lat="48.713597" lon="10.016111">
        <ele>645.957462</ele>
        <time>2020-09-10T06:36:41.808Z</time>
      </trkpt>
      <trkpt lat="48.713533" lon="10.016286">
        <ele>645.833978</ele>
        <time>2020-09-10T06:36:43.786Z</time>
      </trkpt>
      <trkpt lat="48.713480" lon="10.016463">
        <ele>645.714017</ele>
        <time>2020-09-10T06:36:45.789Z</time>
      </trkpt>
      <trkpt lat="48.713478" lon="10.016652">
        <ele>645.597357</ele>
        <time>2020-09-10T06:36:47.799Z</time>
      </trkpt>
      <trkpt lat="48.713509" lon="10.016818">
        <ele>645.490883</ele>
        <time>2020-09-10T06:36:49.774Z</time>
      </trkpt>
      <trkpt lat="48.713536" lon="10.016989">
        <ele>645.382368</ele>
        <time>2020-09-10T06:36:51.790Z</time>
      </trkpt>
      <trkpt lat="48.713564" lon="10.017174">
        <ele>645.265227</ele>
        <time>2020-09-10T06:36:53.796Z</time>
      </trkpt>
      <trkpt lat="48.713599" lon="10.017346">
        <ele>645.154141</ele>
        <time>2020-09-10T06:36:55.791Z</time>
      </trkpt>
      <trkpt lat="48.713636" lon="10.017524">
        <ele>645.038963</ele>
        <time>2020-09-10T06:36:57.785Z</time>
      </trkpt>
      <trkpt lat="48.713657" lon="10.017688">
        <ele>644.935860</ele>
        <time>2020-09-10T06:36:59.786Z</time>
      </trkpt>
      <trkpt lat="48.713675" lon="10.017854">
        <ele>644.832036</ele>
        <time>2020-09-10T06:37:01.790Z</time>
      </trkpt>
      <trkpt lat="48.713693" lon="10.018027">
        <ele>644.723947</ele>
        <time>2020-09-10T06:37:03.793Z</time>
      </trkpt>
      <trkpt lat="48.713710" lon="10.018175">
        <ele>644.631233</ele>
        <time>2020-09-10T06:37:05.792Z</time>
      </trkpt>
      <trkpt lat="48.713728" lon="10.018321">
        <ele>644.539567</ele>
        <time>2020-09-10T06:37:07.795Z</time>
      </trkpt>
      <trkpt lat="48.713661" lon="10.018472">
        <ele>644.350511</ele>
        <time>2020-09-10T06:37:09.804Z</time>
      </trkpt>
      <trkpt lat="48.713549" lon="10.018523">
        <ele>644.136000</ele>
        <time>2020-09-10T06:37:12.795Z</time>
      </trkpt>
      <trkpt lat="48.713436" lon="10.018572">
        <ele>643.920411</ele>
        <time>2020-09-10T06:37:14.802Z</time>
      </trkpt>
      <trkpt lat="48.713359" lon="10.018715">
        <ele>643.697022</ele>
        <time>2020-09-10T06:37:16.795Z</time>
      </trkpt>
      <trkpt lat="48.713290" lon="10.018858">
        <ele>643.482610</ele>
        <time>2020-09-10T06:37:18.795Z</time>
      </trkpt>
      <trkpt lat="48.713231" lon="10.019011">
        <ele>643.268129</ele>
        <time>2020-09-10T06:37:20.794Z</time>
      </trkpt>
      <trkpt lat="48.713180" lon="10.019171">
        <ele>643.053069</ele>
        <time>2020-09-10T06:37:22.796Z</time>
      </trkpt>
      <trkpt lat="48.713139" lon="10.019339">
        <ele>642.836275</ele>
        <time>2020-09-10T06:37:24.793Z</time>
      </trkpt>
      <trkpt lat="48.713096" lon="10.019520">
        <ele>642.603444</ele>
        <time>2020-09-10T06:37:26.793Z</time>
      </trkpt>
      <trkpt lat="48.713046" lon="10.019695">
        <ele>642.372637</ele>
        <time>2020-09-10T06:37:28.791Z</time>
      </trkpt>
      <trkpt lat="48.712993" lon="10.019869">
        <ele>642.140687</ele>
        <time>2020-09-10T06:37:30.796Z</time>
      </trkpt>
      <trkpt lat="48.712946" lon="10.020043">
        <ele>641.913131</ele>
        <time>2020-09-10T06:37:32.797Z</time>
      </trkpt>
      <trkpt lat="48.712900" lon="10.020233">
        <ele>641.668181</ele>
        <time>2020-09-10T06:37:34.804Z</time>
      </trkpt>
      <trkpt lat="48.712871" lon="10.020418">
        <ele>641.438042</ele>
        <time>2020-09-10T06:37:36.793Z</time>
      </trkpt>
      <trkpt lat="48.712864" lon="10.020604">
        <ele>641.212558</ele>
        <time>2020-09-10T06:37:38.791Z</time>
      </trkpt>
      <trkpt lat="48.712886" lon="10.020812">
        <ele>640.827680</ele>
        <time>2020-09-10T06:37:40.797Z</time>
      </trkpt>
      <trkpt lat="48.712930" lon="10.021027">
        <ele>640.413841</ele>
        <time>2020-09-10T06:37:42.786Z</time>
      </trkpt>
      <trkpt lat="48.712978" lon="10.021217">
        <ele>640.039811</ele>
        <time>2020-09-10T06:37:44.787Z</time>
      </trkpt>
      <trkpt lat="48.713026" lon="10.021406">
        <ele>639.667497</ele>
        <time>2020-09-10T06:37:46.794Z</time>
      </trkpt>
      <trkpt lat="48.713074" lon="10.021599">
        <ele>639.288312</ele>
        <time>2020-09-10T06:37:48.789Z</time>
      </trkpt>
      <trkpt lat="48.713109" lon="10.021806">
        <ele>638.895461</ele>
        <time>2020-09-10T06:37:50.785Z</time>
      </trkpt>
      <trkpt lat="48.713123" lon="10.021982">
        <ele>638.569554</ele>
        <time>2020-09-10T06:37:52.783Z</time>
      </trkpt>
      <trkpt lat="48.713127" lon="10.022176">
        <ele>638.212725</ele>
        <time>2020-09-10T06:37:54.782Z</time>
      </trkpt>
      <trkpt lat="48.713142" lon="10.022387">
        <ele>637.822571</ele>
        <time>2020-09-10T06:37:56.773Z</time>
      </trkpt>
      <trkpt lat="48.713162" lon="10.022609">
        <ele>637.410653</ele>
        <time>2020-09-10T06:37:58.780Z</time>
      </trkpt>
      <trkpt lat="48.713181" lon="10.022801">
        <ele>637.053727</ele>
        <time>2020-09-10T06:38:00.778Z</time>
      </trkpt>
      <trkpt lat="48.713206" lon="10.022959">
        <ele>636.755020</ele>
        <time>2020-09-10T06:38:02.779Z</time>
      </trkpt>
      <trkpt lat="48.713204" lon="10.023136">
        <ele>636.429571</ele>
        <time>2020-09-10T06:38:04.788Z</time>
      </trkpt>
      <trkpt lat="48.713160" lon="10.023305">
        <ele>636.046523</ele>
        <time>2020-09-10T06:38:06.770Z</time>
      </trkpt>
      <trkpt lat="48.713122" lon="10.023479">
        <ele>635.545883</ele>
        <time>2020-09-10T06:38:08.814Z</time>
      </trkpt>
      <trkpt lat="48.713055" lon="10.023625">
        <ele>635.060115</ele>
        <time>2020-09-10T06:38:10.789Z</time>
      </trkpt>
      <trkpt lat="48.712973" lon="10.023747">
        <ele>634.584422</ele>
        <time>2020-09-10T06:38:12.792Z</time>
      </trkpt>
      <trkpt lat="48.712889" lon="10.023865">
        <ele>634.110280</ele>
        <time>2020-09-10T06:38:14.833Z</time>
      </trkpt>
      <trkpt lat="48.712793" lon="10.023988">
        <ele>633.589878</ele>
        <time>2020-09-10T06:38:16.795Z</time>
      </trkpt>
      <trkpt lat="48.712716" lon="10.024137">
        <ele>633.072912</ele>
        <time>2020-09-10T06:38:18.795Z</time>
      </trkpt>
      <trkpt lat="48.712622" lon="10.024278">
        <ele>632.525406</ele>
        <time>2020-09-10T06:38:20.800Z</time>
      </trkpt>
      <trkpt lat="48.712535" lon="10.024431">
        <ele>631.973705</ele>
        <time>2020-09-10T06:38:22.791Z</time>
      </trkpt>
      <trkpt lat="48.712450" lon="10.024583">
        <ele>631.429459</ele>
        <time>2020-09-10T06:38:24.796Z</time>
      </trkpt>
      <trkpt lat="48.712380" lon="10.024755">
        <ele>630.877454</ele>
        <time>2020-09-10T06:38:26.798Z</time>
      </trkpt>
      <trkpt lat="48.712308" lon="10.024935">
        <ele>630.302486</ele>
        <time>2020-09-10T06:38:28.798Z</time>
      </trkpt>
      <trkpt lat="48.712234" lon="10.025127">
        <ele>629.695114</ele>
        <time>2020-09-10T06:38:30.797Z</time>
      </trkpt>
      <trkpt lat="48.712162" lon="10.025315">
        <ele>629.101350</ele>
        <time>2020-09-10T06:38:32.796Z</time>
      </trkpt>
      <trkpt lat="48.712104" lon="10.025492">
        <ele>628.597467</ele>
        <time>2020-09-10T06:38:34.795Z</time>
      </trkpt>
      <trkpt lat="48.712047" lon="10.025648">
        <ele>628.202943</ele>
        <time>2020-09-10T06:38:36.795Z</time>
      </trkpt>
      <trkpt lat="48.711987" lon="10.025803">
        <ele>627.805358</ele>
        <time>2020-09-10T06:38:38.792Z</time>
      </trkpt>
      <trkpt lat="48.711932" lon="10.025956">
        <ele>627.419879</ele>
        <time>2020-09-10T06:38:40.795Z</time>
      </trkpt>
      <trkpt lat="48.711883" lon="10.026135">
        <ele>626.991123</ele>
        <time>2020-09-10T06:38:42.801Z</time>
      </trkpt>
      <trkpt lat="48.711841" lon="10.026314">
        <ele>626.570800</ele>
        <time>2020-09-10T06:38:44.794Z</time>
      </trkpt>
      <trkpt lat="48.711795" lon="10.026493">
        <ele>626.145796</ele>
        <time>2020-09-10T06:38:46.801Z</time>
      </trkpt>
      <trkpt lat="48.711743" lon="10.026672">
        <ele>625.713084</ele>
        <time>2020-09-10T06:38:48.787Z</time>
      </trkpt>
      <trkpt lat="48.711701" lon="10.026845">
        <ele>625.305244</ele>
        <time>2020-09-10T06:38:50.782Z</time>
      </trkpt>
      <trkpt lat="48.711656" lon="10.027002">
        <ele>624.926532</ele>
        <time>2020-09-10T06:38:52.786Z</time>
      </trkpt>
      <trkpt lat="48.711607" lon="10.027169">
        <ele>624.522169</ele>
        <time>2020-09-10T06:38:54.798Z</time>
      </trkpt>
      <trkpt lat="48.711552" lon="10.027346">
        <ele>624.089313</ele>
        <time>2020-09-10T06:38:56.786Z</time>
      </trkpt>
      <trkpt lat="48.711506" lon="10.027520">
        <ele>623.674595</ele>
        <time>2020-09-10T06:38:58.787Z</time>
      </trkpt>
      <trkpt lat="48.711453" lon="10.027679">
        <ele>623.280474</ele>
        <time>2020-09-10T06:39:00.802Z</time>
      </trkpt>
      <trkpt lat="48.711408" lon="10.027833">
        <ele>622.907840</ele>
        <time>2020-09-10T06:39:02.792Z</time>
      </trkpt>
      <trkpt lat="48.711358" lon="10.027999">
        <ele>622.658289</ele>
        <time>2020-09-10T06:39:04.790Z</time>
      </trkpt>
      <trkpt lat="48.711311" lon="10.028170">
        <ele>622.541383</ele>
        <time>2020-09-10T06:39:06.807Z</time>
      </trkpt>
      <trkpt lat="48.711271" lon="10.028355">
        <ele>622.418521</ele>
        <time>2020-09-10T06:39:08.794Z</time>
      </trkpt>
      <trkpt lat="48.711223" lon="10.028552">
        <ele>622.285989</ele>
        <time>2020-09-10T06:39:10.765Z</time>
      </trkpt>
      <trkpt lat="48.711171" lon="10.028733">
        <ele>622.161403</ele>
        <time>2020-09-10T06:39:12.782Z</time>
      </trkpt>
      <trkpt lat="48.711130" lon="10.028930">
        <ele>622.031038</ele>
        <time>2020-09-10T06:39:14.797Z</time>
      </trkpt>
      <trkpt lat="48.711082" lon="10.029101">
        <ele>621.913761</ele>
        <time>2020-09-10T06:39:16.793Z</time>
      </trkpt>
      <trkpt lat="48.711034" lon="10.029264">
        <ele>621.801112</ele>
        <time>2020-09-10T06:39:18.794Z</time>
      </trkpt>
      <trkpt lat="48.710988" lon="10.029435">
        <ele>621.684570</ele>
        <time>2020-09-10T06:39:20.795Z</time>
      </trkpt>
      <trkpt lat="48.710945" lon="10.029598">
        <ele>621.573783</ele>
        <time>2020-09-10T06:39:22.808Z</time>
      </trkpt>
      <trkpt lat="48.710885" lon="10.029734">
        <ele>621.470536</ele>
        <time>2020-09-10T06:39:24.786Z</time>
      </trkpt>
      <trkpt lat="48.710809" lon="10.029835">
        <ele>621.373859</ele>
        <time>2020-09-10T06:39:26.794Z</time>
      </trkpt>
      <trkpt lat="48.710711" lon="10.029842">
        <ele>621.280025</ele>
        <time>2020-09-10T06:39:28.818Z</time>
      </trkpt>
      <trkpt lat="48.710604" lon="10.029808">
        <ele>621.175462</ele>
        <time>2020-09-10T06:39:30.798Z</time>
      </trkpt>
      <trkpt lat="48.710497" lon="10.029777">
        <ele>621.071271</ele>
        <time>2020-09-10T06:39:32.803Z</time>
      </trkpt>
      <trkpt lat="48.710381" lon="10.029726">
        <ele>620.961257</ele>
        <time>2020-09-10T06:39:34.797Z</time>
      </trkpt>
      <trkpt lat="48.710240" lon="10.029680">
        <ele>620.840650</ele>
        <time>2020-09-10T06:39:36.799Z</time>
      </trkpt>
      <trkpt lat="48.710108" lon="10.029650">
        <ele>620.729036</ele>
        <time>2020-09-10T06:39:38.795Z</time>
      </trkpt>
      <trkpt lat="48.709993" lon="10.029575">
        <ele>620.624345</ele>
        <time>2020-09-10T06:39:40.792Z</time>
      </trkpt>
      <trkpt lat="48.709877" lon="10.029496">
        <ele>620.517999</ele>
        <time>2020-09-10T06:39:42.802Z</time>
      </trkpt>
      <trkpt lat="48.709774" lon="10.029403">
        <ele>620.417741</ele>
        <time>2020-09-10T06:39:44.799Z</time>
      </trkpt>
      <trkpt lat="48.709669" lon="10.029317">
        <ele>620.317936</ele>
        <time>2020-09-10T06:39:46.801Z</time>
      </trkpt>
      <trkpt lat="48.709567" lon="10.029241">
        <ele>620.222890</ele>
        <time>2020-09-10T06:39:48.798Z</time>
      </trkpt>
      <trkpt lat="48.709467" lon="10.029176">
        <ele>620.131902</ele>
        <time>2020-09-10T06:39:50.801Z</time>
      </trkpt>
      <trkpt lat="48.709359" lon="10.029119">
        <ele>620.036271</ele>
        <time>2020-09-10T06:39:52.786Z</time>
      </trkpt>
      <trkpt lat="48.709239" lon="10.029082">
        <ele>619.933870</ele>
        <time>2020-09-10T06:39:54.791Z</time>
      </trkpt>
      <trkpt lat="48.709120" lon="10.029102">
        <ele>619.833751</ele>
        <time>2020-09-10T06:39:56.793Z</time>
      </trkpt>
      <trkpt lat="48.709008" lon="10.029188">
        <ele>619.728759</ele>
        <time>2020-09-10T06:39:58.791Z</time>
      </trkpt>
      <trkpt lat="48.708907" lon="10.029287">
        <ele>619.628174</ele>
        <time>2020-09-10T06:40:00.788Z</time>
      </trkpt>
      <trkpt lat="48.708806" lon="10.029385">
        <ele>619.527888</ele>
        <time>2020-09-10T06:40:02.816Z</time>
      </trkpt>
      <trkpt lat="48.708714" lon="10.029485">
        <ele>619.229402</ele>
        <time>2020-09-10T06:40:04.794Z</time>
      </trkpt>
      <trkpt lat="48.708623" lon="10.029596">
        <ele>618.812119</ele>
        <time>2020-09-10T06:40:06.795Z</time>
      </trkpt>
      <trkpt lat="48.708530" lon="10.029713">
        <ele>618.380352</ele>
        <time>2020-09-10T06:40:08.802Z</time>
      </trkpt>
      <trkpt lat="48.708442" lon="10.029845">
        <ele>617.938054</ele>
        <time>2020-09-10T06:40:10.793Z</time>
      </trkpt>
      <trkpt lat="48.708357" lon="10.029998">
        <ele>617.466608</ele>
        <time>2020-09-10T06:40:12.793Z</time>
      </trkpt>
      <trkpt lat="48.708285" lon="10.030155">
        <ele>617.015932</ele>
        <time>2020-09-10T06:40:14.798Z</time>
      </trkpt>
      <trkpt lat="48.708209" lon="10.030298">
        <ele>616.583121</ele>
        <time>2020-09-10T06:40:16.792Z</time>
      </trkpt>
      <trkpt lat="48.708134" lon="10.030444">
        <ele>616.146982</ele>
        <time>2020-09-10T06:40:18.810Z</time>
      </trkpt>
      <trkpt lat="48.708053" lon="10.030594">
        <ele>615.690102</ele>
        <time>2020-09-10T06:40:20.795Z</time>
      </trkpt>
      <trkpt lat="48.707967" lon="10.030752">
        <ele>615.207313</ele>
        <time>2020-09-10T06:40:22.790Z</time>
      </trkpt>
      <trkpt lat="48.707886" lon="10.030905">
        <ele>614.744938</ele>
        <time>2020-09-10T06:40:24.807Z</time>
      </trkpt>
      <trkpt lat="48.707810" lon="10.031046">
        <ele>614.315786</ele>
        <time>2020-09-10T06:40:26.795Z</time>
      </trkpt>
      <trkpt lat="48.707731" lon="10.031203">
        <ele>613.850384</ele>
        <time>2020-09-10T06:40:28.797Z</time>
      </trkpt>
      <trkpt lat="48.707661" lon="10.031350">
        <ele>613.423072</ele>
        <time>2020-09-10T06:40:30.801Z</time>
      </trkpt>
      <trkpt lat="48.707598" lon="10.031503">
        <ele>613.044843</ele>
        <time>2020-09-10T06:40:32.796Z</time>
      </trkpt>
      <trkpt lat="48.707540" lon="10.031660">
        <ele>612.894634</ele>
        <time>2020-09-10T06:40:34.799Z</time>
      </trkpt>
      <trkpt lat="48.707485" lon="10.031812">
        <ele>612.749916</ele>
        <time>2020-09-10T06:40:36.806Z</time>
      </trkpt>
      <trkpt lat="48.707421" lon="10.031960">
        <ele>612.602195</ele>
        <time>2020-09-10T06:40:38.801Z</time>
      </trkpt>
      <trkpt lat="48.707355" lon="10.032106">
        <ele>612.454454</ele>
        <time>2020-09-10T06:40:40.794Z</time>
      </trkpt>
      <trkpt lat="48.707282" lon="10.032247">
        <ele>612.304838</ele>
        <time>2020-09-10T06:40:42.800Z</time>
      </trkpt>
      <trkpt lat="48.707199" lon="10.032361">
        <ele>612.163124</ele>
        <time>2020-09-10T06:40:44.799Z</time>
      </trkpt>
      <trkpt lat="48.707111" lon="10.032465">
        <ele>612.021943</ele>
        <time>2020-09-10T06:40:46.804Z</time>
      </trkpt>
      <trkpt lat="48.707013" lon="10.032562">
        <ele>611.873862</ele>
        <time>2020-09-10T06:40:48.798Z</time>
      </trkpt>
      <trkpt lat="48.706919" lon="10.032651">
        <ele>611.733640</ele>
        <time>2020-09-10T06:40:50.780Z</time>
      </trkpt>
      <trkpt lat="48.706817" lon="10.032746">
        <ele>611.582178</ele>
        <time>2020-09-10T06:40:52.799Z</time>
      </trkpt>
      <trkpt lat="48.706712" lon="10.032835">
        <ele>611.429976</ele>
        <time>2020-09-10T06:40:54.796Z</time>
      </trkpt>
      <trkpt lat="48.706594" lon="10.032914">
        <ele>611.266776</ele>
        <time>2020-09-10T06:40:56.807Z</time>
      </trkpt>
      <trkpt lat="48.706486" lon="10.032998">
        <ele>611.113201</ele>
        <time>2020-09-10T06:40:58.799Z</time>
      </trkpt>
      <trkpt lat="48.706378" lon="10.033075">
        <ele>610.962205</ele>
        <time>2020-09-10T06:41:00.795Z</time>
      </trkpt>
      <trkpt lat="48.706259" lon="10.033154">
        <ele>610.797847</ele>
        <time>2020-09-10T06:41:02.816Z</time>
      </trkpt>
      <trkpt lat="48.706141" lon="10.033226">
        <ele>610.946659</ele>
        <time>2020-09-10T06:41:04.799Z</time>
      </trkpt>
      <trkpt lat="48.706022" lon="10.033290">
        <ele>611.099676</ele>
        <time>2020-09-10T06:41:06.796Z</time>
      </trkpt>
      <trkpt lat="48.705907" lon="10.033346">
        <ele>611.246052</ele>
        <time>2020-09-10T06:41:08.776Z</time>
      </trkpt>
      <trkpt lat="48.705790" lon="10.033402">
        <ele>611.394738</ele>
        <time>2020-09-10T06:41:10.786Z</time>
      </trkpt>
      <trkpt lat="48.705681" lon="10.033451">
        <ele>611.532514</ele>
        <time>2020-09-10T06:41:12.798Z</time>
      </trkpt>
      <trkpt lat="48.705579" lon="10.033496">
        <ele>611.661250</ele>
        <time>2020-09-10T06:41:14.800Z</time>
      </trkpt>
      <trkpt lat="48.705479" lon="10.033529">
        <ele>611.785270</ele>
        <time>2020-09-10T06:41:16.783Z</time>
      </trkpt>
      <trkpt lat="48.705370" lon="10.033563">
        <ele>611.920126</ele>
        <time>2020-09-10T06:41:18.794Z</time>
      </trkpt>
      <trkpt lat="48.705264" lon="10.033589">
        <ele>612.050249</ele>
        <time>2020-09-10T06:41:20.792Z</time>
      </trkpt>
      <trkpt lat="48.705159" lon="10.033601">
        <ele>612.177849</ele>
        <time>2020-09-10T06:41:22.789Z</time>
      </trkpt>
      <trkpt lat="48.705054" lon="10.033620">
        <ele>612.305992</ele>
        <time>2020-09-10T06:41:24.785Z</time>
      </trkpt>
      <trkpt lat="48.704953" lon="10.033638">
        <ele>612.429228</ele>
        <time>2020-09-10T06:41:26.767Z</time>
      </trkpt>
      <trkpt lat="48.704857" lon="10.033668">
        <ele>612.548009</ele>
        <time>2020-09-10T06:41:28.791Z</time>
      </trkpt>
      <trkpt lat="48.704761" lon="10.033701">
        <ele>612.667298</ele>
        <time>2020-09-10T06:41:30.787Z</time>
      </trkpt>
      <trkpt lat="48.704664" lon="10.033740">
        <ele>612.788910</ele>
        <time>2020-09-10T06:41:32.790Z</time>
      </trkpt>
      <trkpt lat="48.704561" lon="10.033774">
        <ele>612.916652</ele>
        <time>2020-09-10T06:41:34.773Z</time>
      </trkpt>
      <trkpt lat="48.704456" lon="10.033815">
        <ele>613.095220</ele>
        <time>2020-09-10T06:41:36.791Z</time>
      </trkpt>
      <trkpt lat="48.704349" lon="10.033872">
        <ele>613.321075</ele>
        <time>2020-09-10T06:41:38.791Z</time>
      </trkpt>
      <trkpt lat="48.704231" lon="10.033926">
        <ele>613.566534</ele>
        <time>2020-09-10T06:41:40.791Z</time>
      </trkpt>
      <trkpt lat="48.704118" lon="10.033974">
        <ele>613.800229</ele>
        <time>2020-09-10T06:41:42.789Z</time>
      </trkpt>
      <trkpt lat="48.704006" lon="10.034016">
        <ele>614.029986</ele>
        <time>2020-09-10T06:41:44.795Z</time>
      </trkpt>
      <trkpt lat="48.703896" lon="10.034043">
        <ele>614.251887</ele>
        <time>2020-09-10T06:41:46.788Z</time>
      </trkpt>
      <trkpt lat="48.703790" lon="10.034043">
        <ele>614.462967</ele>
        <time>2020-09-10T06:41:48.797Z</time>
      </trkpt>
      <trkpt lat="48.703690" lon="10.034032">
        <ele>614.662624</ele>
        <time>2020-09-10T06:41:50.801Z</time>
      </trkpt>
      <trkpt lat="48.703592" lon="10.034012">
        <ele>614.859536</ele>
        <time>2020-09-10T06:41:52.816Z</time>
      </trkpt>
      <trkpt lat="48.703493" lon="10.033972">
        <ele>615.063566</ele>
        <time>2020-09-10T06:41:54.794Z</time>
      </trkpt>
      <trkpt lat="48.703390" lon="10.033925">
        <ele>615.277771</ele>
        <time>2020-09-10T06:41:56.805Z</time>
      </trkpt>
      <trkpt lat="48.703288" lon="10.033894">
        <ele>615.484932</ele>
        <time>2020-09-10T06:41:58.808Z</time>
      </trkpt>
      <trkpt lat="48.703186" lon="10.033863">
        <ele>615.692093</ele>
        <time>2020-09-10T06:42:00.790Z</time>
      </trkpt>
      <trkpt lat="48.703082" lon="10.033830">
        <ele>615.903683</ele>
        <time>2020-09-10T06:42:02.794Z</time>
      </trkpt>
      <trkpt lat="48.702970" lon="10.033797">
        <ele>616.130889</ele>
        <time>2020-09-10T06:42:04.799Z</time>
      </trkpt>
      <trkpt lat="48.702875" lon="10.033761">
        <ele>616.325891</ele>
        <time>2020-09-10T06:42:06.794Z</time>
      </trkpt>
      <trkpt lat="48.702777" lon="10.033726">
        <ele>616.526389</ele>
        <time>2020-09-10T06:42:08.795Z</time>
      </trkpt>
      <trkpt lat="48.702684" lon="10.033708">
        <ele>616.633696</ele>
        <time>2020-09-10T06:42:10.797Z</time>
      </trkpt>
      <trkpt lat="48.702579" lon="10.033686">
        <ele>616.737821</ele>
        <time>2020-09-10T06:42:12.800Z</time>
      </trkpt>
      <trkpt lat="48.702470" lon="10.033674">
        <ele>616.845176</ele>
        <time>2020-09-10T06:42:14.795Z</time>
      </trkpt>
      <trkpt lat="48.702361" lon="10.033675">
        <ele>616.952251</ele>
        <time>2020-09-10T06:42:16.800Z</time>
      </trkpt>
      <trkpt lat="48.702246" lon="10.033672">
        <ele>617.065234</ele>
        <time>2020-09-10T06:42:18.796Z</time>
      </trkpt>
      <trkpt lat="48.702124" lon="10.033677">
        <ele>617.185121</ele>
        <time>2020-09-10T06:42:20.797Z</time>
      </trkpt>
      <trkpt lat="48.702012" lon="10.033696">
        <ele>617.295828</ele>
        <time>2020-09-10T06:42:22.798Z</time>
      </trkpt>
      <trkpt lat="48.701914" lon="10.033712">
        <ele>617.392653</ele>
        <time>2020-09-10T06:42:24.795Z</time>
      </trkpt>
      <trkpt lat="48.701823" lon="10.033741">
        <ele>617.484000</ele>
        <time>2020-09-10T06:42:26.797Z</time>
      </trkpt>
      <trkpt lat="48.701722" lon="10.033753">
        <ele>617.583519</ele>
        <time>2020-09-10T06:42:28.796Z</time>
      </trkpt>
      <trkpt lat="48.701621" lon="10.033738">
        <ele>617.683208</ele>
        <time>2020-09-10T06:42:30.795Z</time>
      </trkpt>
      <trkpt lat="48.701528" lon="10.033660">
        <ele>617.787626</ele>
        <time>2020-09-10T06:42:32.796Z</time>
      </trkpt>
      <trkpt lat="48.701464" lon="10.033529">
        <ele>617.893292</ele>
        <time>2020-09-10T06:42:34.797Z</time>
      </trkpt>
      <trkpt lat="48.701425" lon="10.033378">
        <ele>617.998417</ele>
        <time>2020-09-10T06:42:36.792Z</time>
      </trkpt>
      <trkpt lat="48.701393" lon="10.033220">
        <ele>618.105566</ele>
        <time>2020-09-10T06:42:38.810Z</time>
      </trkpt>
      <trkpt lat="48.701361" lon="10.033068">
        <ele>618.209002</ele>
        <time>2020-09-10T06:42:40.790Z</time>
      </trkpt>
      <trkpt lat="48.701329" lon="10.032916">
        <ele>618.312438</ele>
        <time>2020-09-10T06:42:42.796Z</time>
      </trkpt>
      <trkpt lat="48.701281" lon="10.032769">
        <ele>618.439659</ele>
        <time>2020-09-10T06:42:44.805Z</time>
      </trkpt>
      <trkpt lat="48.701243" lon="10.032625">
        <ele>618.562195</ele>
        <time>2020-09-10T06:42:46.797Z</time>
      </trkpt>
      <trkpt lat="48.701200" lon="10.032474">
        <ele>618.692136</ele>
        <time>2020-09-10T06:42:48.786Z</time>
      </trkpt>
      <trkpt lat="48.701156" lon="10.032311">
        <ele>618.831282</ele>
        <time>2020-09-10T06:42:50.814Z</time>
      </trkpt>
      <trkpt lat="48.701115" lon="10.032139">
        <ele>618.975776</ele>
        <time>2020-09-10T06:42:52.787Z</time>
      </trkpt>
      <trkpt lat="48.701076" lon="10.031966">
        <ele>619.120221</ele>
        <time>2020-09-10T06:42:54.799Z</time>
      </trkpt>
      <trkpt lat="48.701040" lon="10.031811">
        <ele>619.250053</ele>
        <time>2020-09-10T06:42:56.792Z</time>
      </trkpt>
      <trkpt lat="48.701002" lon="10.031653">
        <ele>619.382924</ele>
        <time>2020-09-10T06:42:58.799Z</time>
      </trkpt>
      <trkpt lat="48.700965" lon="10.031497">
        <ele>619.513901</ele>
        <time>2020-09-10T06:43:00.788Z</time>
      </trkpt>
      <trkpt lat="48.700935" lon="10.031347">
        <ele>619.637743</ele>
        <time>2020-09-10T06:43:02.810Z</time>
      </trkpt>
      <trkpt lat="48.700903" lon="10.031189">
        <ele>619.768329</ele>
        <time>2020-09-10T06:43:04.781Z</time>
      </trkpt>
      <trkpt lat="48.700870" lon="10.031038">
        <ele>619.894009</ele>
        <time>2020-09-10T06:43:06.781Z</time>
      </trkpt>
      <trkpt lat="48.700841" lon="10.030867">
        <ele>620.033511</ele>
        <time>2020-09-10T06:43:08.788Z</time>
      </trkpt>
      <trkpt lat="48.700808" lon="10.030710">
        <ele>620.163700</ele>
        <time>2020-09-10T06:43:10.781Z</time>
      </trkpt>
      <trkpt lat="48.700761" lon="10.030571">
        <ele>620.287103</ele>
        <time>2020-09-10T06:43:12.792Z</time>
      </trkpt>
      <trkpt lat="48.700716" lon="10.030424">
        <ele>620.415138</ele>
        <time>2020-09-10T06:43:14.771Z</time>
      </trkpt>
      <trkpt lat="48.700661" lon="10.030272">
        <ele>620.511854</ele>
        <time>2020-09-10T06:43:16.786Z</time>
      </trkpt>
      <trkpt lat="48.700614" lon="10.030130">
        <ele>620.570504</ele>
        <time>2020-09-10T06:43:18.788Z</time>
      </trkpt>
      <trkpt lat="48.700563" lon="10.030002">
        <ele>620.625705</ele>
        <time>2020-09-10T06:43:20.786Z</time>
      </trkpt>
      <trkpt lat="48.700517" lon="10.029865">
        <ele>620.682455</ele>
        <time>2020-09-10T06:43:22.793Z</time>
      </trkpt>
      <trkpt lat="48.700471" lon="10.029721">
        <ele>620.741519</ele>
        <time>2020-09-10T06:43:24.782Z</time>
      </trkpt>
      <trkpt lat="48.700427" lon="10.029589">
        <ele>620.796116</ele>
        <time>2020-09-10T06:43:26.788Z</time>
      </trkpt>
      <trkpt lat="48.700376" lon="10.029456">
        <ele>620.852906</ele>
        <time>2020-09-10T06:43:28.789Z</time>
      </trkpt>
      <trkpt lat="48.700332" lon="10.029332">
        <ele>620.904884</ele>
        <time>2020-09-10T06:43:30.791Z</time>
      </trkpt>
      <trkpt lat="48.700265" lon="10.029151">
        <ele>620.981502</ele>
        <time>2020-09-10T06:43:33.786Z</time>
      </trkpt>
      <trkpt lat="48.700218" lon="10.029026">
        <ele>621.034616</ele>
        <time>2020-09-10T06:43:35.775Z</time>
      </trkpt>
      <trkpt lat="48.700153" lon="10.028863">
        <ele>621.104928</ele>
        <time>2020-09-10T06:43:38.789Z</time>
      </trkpt>
      <trkpt lat="48.700086" lon="10.028705">
        <ele>621.174264</ele>
        <time>2020-09-10T06:43:41.792Z</time>
      </trkpt>
      <trkpt lat="48.700031" lon="10.028550">
        <ele>621.239237</ele>
        <time>2020-09-10T06:43:44.789Z</time>
      </trkpt>
      <trkpt lat="48.699972" lon="10.028406">
        <ele>621.301814</ele>
        <time>2020-09-10T06:43:47.790Z</time>
      </trkpt>
      <trkpt lat="48.699899" lon="10.028253">
        <ele>621.371517</ele>
        <time>2020-09-10T06:43:50.793Z</time>
      </trkpt>
      <trkpt lat="48.699849" lon="10.028133">
        <ele>621.423911</ele>
        <time>2020-09-10T06:43:52.795Z</time>
      </trkpt>
      <trkpt lat="48.699798" lon="10.028008">
        <ele>621.478168</ele>
        <time>2020-09-10T06:43:54.802Z</time>
      </trkpt>
      <trkpt lat="48.699746" lon="10.027889">
        <ele>621.396245</ele>
        <time>2020-09-10T06:43:56.795Z</time>
      </trkpt>
      <trkpt lat="48.699698" lon="10.027772">
        <ele>621.304917</ele>
        <time>2020-09-10T06:43:58.786Z</time>
      </trkpt>
      <trkpt lat="48.699647" lon="10.027658">
        <ele>621.213616</ele>
        <time>2020-09-10T06:44:00.804Z</time>
      </trkpt>
      <trkpt lat="48.699592" lon="10.027528">
        <ele>621.111247</ele>
        <time>2020-09-10T06:44:02.790Z</time>
      </trkpt>
      <trkpt lat="48.699581" lon="10.027351">
        <ele>620.993387</ele>
        <time>2020-09-10T06:44:04.790Z</time>
      </trkpt>
      <trkpt lat="48.699619" lon="10.027170">
        <ele>620.867470</ele>
        <time>2020-09-10T06:44:06.795Z</time>
      </trkpt>
      <trkpt lat="48.699661" lon="10.026990">
        <ele>620.740903</ele>
        <time>2020-09-10T06:44:08.797Z</time>
      </trkpt>
      <trkpt lat="48.699671" lon="10.026825">
        <ele>620.631057</ele>
        <time>2020-09-10T06:44:11.810Z</time>
      </trkpt>
      <trkpt lat="48.699608" lon="10.026683">
        <ele>620.517627</ele>
        <time>2020-09-10T06:44:13.788Z</time>
      </trkpt>
      <trkpt lat="48.699529" lon="10.026580">
        <ele>620.412941</ele>
        <time>2020-09-10T06:44:16.793Z</time>
      </trkpt>
      <trkpt lat="48.699414" lon="10.026697">
        <ele>620.273803</ele>
        <time>2020-09-10T06:44:19.792Z</time>
      </trkpt>
      <trkpt lat="48.699306" lon="10.026834">
        <ele>620.132322</ele>
        <time>2020-09-10T06:44:21.773Z</time>
      </trkpt>
      <trkpt lat="48.699211" lon="10.026987">
        <ele>619.993061</ele>
        <time>2020-09-10T06:44:23.795Z</time>
      </trkpt>
      <trkpt lat="48.699105" lon="10.027148">
        <ele>619.842301</ele>
        <time>2020-09-10T06:44:25.786Z</time>
      </trkpt>
      <trkpt lat="48.698981" lon="10.027335">
        <ele>619.638566</ele>
        <time>2020-09-10T06:44:27.793Z</time>
      </trkpt>
      <trkpt lat="48.698858" lon="10.027525">
        <ele>618.941754</ele>
        <time>2020-09-10T06:44:29.786Z</time>
      </trkpt>
      <trkpt lat="48.698793" lon="10.027620">
        <ele>618.583489</ele>
        <time>2020-09-10T06:44:30.792Z</time>
      </trkpt>
      <trkpt lat="48.698722" lon="10.027708">
        <ele>618.219601</ele>
        <time>2020-09-10T06:44:31.793Z</time>
      </trkpt>
      <trkpt lat="48.698578" lon="10.027842">
        <ele>617.549226</ele>
        <time>2020-09-10T06:44:33.794Z</time>
      </trkpt>
      <trkpt lat="48.698439" lon="10.027934">
        <ele>616.947507</ele>
        <time>2020-09-10T06:44:35.793Z</time>
      </trkpt>
      <trkpt lat="48.698293" lon="10.028010">
        <ele>616.335106</ele>
        <time>2020-09-10T06:44:37.791Z</time>
      </trkpt>
      <trkpt lat="48.698158" lon="10.028099">
        <ele>615.751071</ele>
        <time>2020-09-10T06:44:39.794Z</time>
      </trkpt>
      <trkpt lat="48.698015" lon="10.028244">
        <ele>615.068481</ele>
        <time>2020-09-10T06:44:41.798Z</time>
      </trkpt>
      <trkpt lat="48.697881" lon="10.028398">
        <ele>614.401289</ele>
        <time>2020-09-10T06:44:43.795Z</time>
      </trkpt>
      <trkpt lat="48.697746" lon="10.028568">
        <ele>613.704928</ele>
        <time>2020-09-10T06:44:45.792Z</time>
      </trkpt>
      <trkpt lat="48.697622" lon="10.028721">
        <ele>613.070544</ele>
        <time>2020-09-10T06:44:47.794Z</time>
      </trkpt>
      <trkpt lat="48.697507" lon="10.028878">
        <ele>612.498656</ele>
        <time>2020-09-10T06:44:49.793Z</time>
      </trkpt>
      <trkpt lat="48.697393" lon="10.029047">
        <ele>612.181774</ele>
        <time>2020-09-10T06:44:51.798Z</time>
      </trkpt>
      <trkpt lat="48.697294" lon="10.029227">
        <ele>611.874521</ele>
        <time>2020-09-10T06:44:53.791Z</time>
      </trkpt>
      <trkpt lat="48.697192" lon="10.029434">
        <ele>611.535769</ele>
        <time>2020-09-10T06:44:55.789Z</time>
      </trkpt>
      <trkpt lat="48.697139" lon="10.029552">
        <ele>611.348599</ele>
        <time>2020-09-10T06:44:56.807Z</time>
      </trkpt>
      <trkpt lat="48.697036" lon="10.029765">
        <ele>611.002338</ele>
        <time>2020-09-10T06:44:58.794Z</time>
      </trkpt>
      <trkpt lat="48.696951" lon="10.029993">
        <ele>610.658951</ele>
        <time>2020-09-10T06:45:00.788Z</time>
      </trkpt>
      <trkpt lat="48.696872" lon="10.030192">
        <ele>610.354425</ele>
        <time>2020-09-10T06:45:02.798Z</time>
      </trkpt>
      <trkpt lat="48.696777" lon="10.030340">
        <ele>610.083700</ele>
        <time>2020-09-10T06:45:04.791Z</time>
      </trkpt>
      <trkpt lat="48.696677" lon="10.030451">
        <ele>609.837404</ele>
        <time>2020-09-10T06:45:06.798Z</time>
      </trkpt>
      <trkpt lat="48.696592" lon="10.030592">
        <ele>609.586987</ele>
        <time>2020-09-10T06:45:08.807Z</time>
      </trkpt>
      <trkpt lat="48.696497" lon="10.030741">
        <ele>609.315319</ele>
        <time>2020-09-10T06:45:10.790Z</time>
      </trkpt>
      <trkpt lat="48.696401" lon="10.030903">
        <ele>609.029819</ele>
        <time>2020-09-10T06:45:12.790Z</time>
      </trkpt>
      <trkpt lat="48.696303" lon="10.031059">
        <ele>608.478523</ele>
        <time>2020-09-10T06:45:14.813Z</time>
      </trkpt>
      <trkpt lat="48.696221" lon="10.031222">
        <ele>607.881396</ele>
        <time>2020-09-10T06:45:16.783Z</time>
      </trkpt>
      <trkpt lat="48.696117" lon="10.031393">
        <ele>607.203918</ele>
        <time>2020-09-10T06:45:18.797Z</time>
      </trkpt>
      <trkpt lat="48.696018" lon="10.031537">
        <ele>606.598111</ele>
        <time>2020-09-10T06:45:20.787Z</time>
      </trkpt>
      <trkpt lat="48.695913" lon="10.031666">
        <ele>606.001379</ele>
        <time>2020-09-10T06:45:22.796Z</time>
      </trkpt>
      <trkpt lat="48.695811" lon="10.031800">
        <ele>605.405433</ele>
        <time>2020-09-10T06:45:24.786Z</time>
      </trkpt>
      <trkpt lat="48.695711" lon="10.031925">
        <ele>604.833163</ele>
        <time>2020-09-10T06:45:26.780Z</time>
      </trkpt>
      <trkpt lat="48.695614" lon="10.032059">
        <ele>604.253709</ele>
        <time>2020-09-10T06:45:28.787Z</time>
      </trkpt>
      <trkpt lat="48.695540" lon="10.032184">
        <ele>603.764481</ele>
        <time>2020-09-10T06:45:30.790Z</time>
      </trkpt>
      <trkpt lat="48.695448" lon="10.032338">
        <ele>603.159294</ele>
        <time>2020-09-10T06:45:32.803Z</time>
      </trkpt>
      <trkpt lat="48.695347" lon="10.032523">
        <ele>602.459786</ele>
        <time>2020-09-10T06:45:34.780Z</time>
      </trkpt>
      <trkpt lat="48.695262" lon="10.032703">
        <ele>601.814935</ele>
        <time>2020-09-10T06:45:36.792Z</time>
      </trkpt>
      <trkpt lat="48.695193" lon="10.032860">
        <ele>601.265370</ele>
        <time>2020-09-10T06:45:38.789Z</time>
      </trkpt>
      <trkpt lat="48.695120" lon="10.033069">
        <ele>600.742536</ele>
        <time>2020-09-10T06:45:40.803Z</time>
      </trkpt>
      <trkpt lat="48.695067" lon="10.033296">
        <ele>600.299096</ele>
        <time>2020-09-10T06:45:42.788Z</time>
      </trkpt>
      <trkpt lat="48.695019" lon="10.033507">
        <ele>599.888075</ele>
        <time>2020-09-10T06:45:44.785Z</time>
      </trkpt>
      <trkpt lat="48.694977" lon="10.033705">
        <ele>599.505058</ele>
        <time>2020-09-10T06:45:46.783Z</time>
      </trkpt>
      <trkpt lat="48.694945" lon="10.033910">
        <ele>599.117103</ele>
        <time>2020-09-10T06:45:48.791Z</time>
      </trkpt>
      <trkpt lat="48.694926" lon="10.034113">
        <ele>598.739505</ele>
        <time>2020-09-10T06:45:50.782Z</time>
      </trkpt>
      <trkpt lat="48.694911" lon="10.034334">
        <ele>598.330351</ele>
        <time>2020-09-10T06:45:52.784Z</time>
      </trkpt>
      <trkpt lat="48.694889" lon="10.034535">
        <ele>597.955121</ele>
        <time>2020-09-10T06:45:54.779Z</time>
      </trkpt>
      <trkpt lat="48.694865" lon="10.034724">
        <ele>597.600663</ele>
        <time>2020-09-10T06:45:56.783Z</time>
      </trkpt>
      <trkpt lat="48.694839" lon="10.034901">
        <ele>597.266713</ele>
        <time>2020-09-10T06:45:58.784Z</time>
      </trkpt>
      <trkpt lat="48.694810" lon="10.035083">
        <ele>596.921901</ele>
        <time>2020-09-10T06:46:00.784Z</time>
      </trkpt>
      <trkpt lat="48.694772" lon="10.035261">
        <ele>596.577365</ele>
        <time>2020-09-10T06:46:02.805Z</time>
      </trkpt>
      <trkpt lat="48.694732" lon="10.035450">
        <ele>596.211834</ele>
        <time>2020-09-10T06:46:04.785Z</time>
      </trkpt>
      <trkpt lat="48.694699" lon="10.035635">
        <ele>596.056567</ele>
        <time>2020-09-10T06:46:06.785Z</time>
      </trkpt>
      <trkpt lat="48.694670" lon="10.035827">
        <ele>596.169918</ele>
        <time>2020-09-10T06:46:08.785Z</time>
      </trkpt>
      <trkpt lat="48.694632" lon="10.036010">
        <ele>596.280321</ele>
        <time>2020-09-10T06:46:10.785Z</time>
      </trkpt>
      <trkpt lat="48.694591" lon="10.036187">
        <ele>596.388274</ele>
        <time>2020-09-10T06:46:12.793Z</time>
      </trkpt>
      <trkpt lat="48.694552" lon="10.036364">
        <ele>596.495661</ele>
        <time>2020-09-10T06:46:14.788Z</time>
      </trkpt>
      <trkpt lat="48.694514" lon="10.036536">
        <ele>596.600044</ele>
        <time>2020-09-10T06:46:16.791Z</time>
      </trkpt>
      <trkpt lat="48.694477" lon="10.036716">
        <ele>596.708539</ele>
        <time>2020-09-10T06:46:18.789Z</time>
      </trkpt>
      <trkpt lat="48.694438" lon="10.036895">
        <ele>596.817020</ele>
        <time>2020-09-10T06:46:20.792Z</time>
      </trkpt>
      <trkpt lat="48.694405" lon="10.037081">
        <ele>596.927861</ele>
        <time>2020-09-10T06:46:22.788Z</time>
      </trkpt>
      <trkpt lat="48.694372" lon="10.037279">
        <ele>597.045385</ele>
        <time>2020-09-10T06:46:24.791Z</time>
      </trkpt>
      <trkpt lat="48.694335" lon="10.037470">
        <ele>597.159941</ele>
        <time>2020-09-10T06:46:26.789Z</time>
      </trkpt>
      <trkpt lat="48.694299" lon="10.037659">
        <ele>597.273148</ele>
        <time>2020-09-10T06:46:28.787Z</time>
      </trkpt>
      <trkpt lat="48.694263" lon="10.037851">
        <ele>597.388014</ele>
        <time>2020-09-10T06:46:30.789Z</time>
      </trkpt>
      <trkpt lat="48.694225" lon="10.038033">
        <ele>597.497870</ele>
        <time>2020-09-10T06:46:32.784Z</time>
      </trkpt>
      <trkpt lat="48.694191" lon="10.038215">
        <ele>597.503991</ele>
        <time>2020-09-10T06:46:34.795Z</time>
      </trkpt>
      <trkpt lat="48.694150" lon="10.038401">
        <ele>597.217706</ele>
        <time>2020-09-10T06:46:36.787Z</time>
      </trkpt>
      <trkpt lat="48.694119" lon="10.038576">
        <ele>596.953181</ele>
        <time>2020-09-10T06:46:38.790Z</time>
      </trkpt>
      <trkpt lat="48.694084" lon="10.038737">
        <ele>596.705715</ele>
        <time>2020-09-10T06:46:40.788Z</time>
      </trkpt>
      <trkpt lat="48.694042" lon="10.038908">
        <ele>596.439347</ele>
        <time>2020-09-10T06:46:42.791Z</time>
      </trkpt>
      <trkpt lat="48.694001" lon="10.039072">
        <ele>596.183324</ele>
        <time>2020-09-10T06:46:44.787Z</time>
      </trkpt>
      <trkpt lat="48.693973" lon="10.039239">
        <ele>595.931775</ele>
        <time>2020-09-10T06:46:46.792Z</time>
      </trkpt>
      <trkpt lat="48.693943" lon="10.039422">
        <ele>595.656493</ele>
        <time>2020-09-10T06:46:48.788Z</time>
      </trkpt>
      <trkpt lat="48.693916" lon="10.039608">
        <ele>595.378460</ele>
        <time>2020-09-10T06:46:50.800Z</time>
      </trkpt>
      <trkpt lat="48.693891" lon="10.039812">
        <ele>595.075546</ele>
        <time>2020-09-10T06:46:52.796Z</time>
      </trkpt>
      <trkpt lat="48.693884" lon="10.040020">
        <ele>594.771488</ele>
        <time>2020-09-10T06:46:54.798Z</time>
      </trkpt>
      <trkpt lat="48.693874" lon="10.040219">
        <ele>594.480123</ele>
        <time>2020-09-10T06:46:56.798Z</time>
      </trkpt>
      <trkpt lat="48.693875" lon="10.040421">
        <ele>594.185210</ele>
        <time>2020-09-10T06:46:58.798Z</time>
      </trkpt>
      <trkpt lat="48.693870" lon="10.040629">
        <ele>593.881345</ele>
        <time>2020-09-10T06:47:00.806Z</time>
      </trkpt>
      <trkpt lat="48.693870" lon="10.040846">
        <ele>593.581035</ele>
        <time>2020-09-10T06:47:02.792Z</time>
      </trkpt>
      <trkpt lat="48.693865" lon="10.041064">
        <ele>593.412540</ele>
        <time>2020-09-10T06:47:04.786Z</time>
      </trkpt>
      <trkpt lat="48.693854" lon="10.041274">
        <ele>593.249817</ele>
        <time>2020-09-10T06:47:06.809Z</time>
      </trkpt>
      <trkpt lat="48.693856" lon="10.041485">
        <ele>593.086814</ele>
        <time>2020-09-10T06:47:08.794Z</time>
      </trkpt>
      <trkpt lat="48.693855" lon="10.041713">
        <ele>592.910693</ele>
        <time>2020-09-10T06:47:10.796Z</time>
      </trkpt>
      <trkpt lat="48.693851" lon="10.041938">
        <ele>592.736829</ele>
        <time>2020-09-10T06:47:12.797Z</time>
      </trkpt>
      <trkpt lat="48.693844" lon="10.042156">
        <ele>592.568237</ele>
        <time>2020-09-10T06:47:14.795Z</time>
      </trkpt>
      <trkpt lat="48.693840" lon="10.042366">
        <ele>592.405956</ele>
        <time>2020-09-10T06:47:16.796Z</time>
      </trkpt>
      <trkpt lat="48.693834" lon="10.042578">
        <ele>592.242047</ele>
        <time>2020-09-10T06:47:18.822Z</time>
      </trkpt>
      <trkpt lat="48.693827" lon="10.042785">
        <ele>592.081941</ele>
        <time>2020-09-10T06:47:20.796Z</time>
      </trkpt>
      <trkpt lat="48.693817" lon="10.042982">
        <ele>591.929320</ele>
        <time>2020-09-10T06:47:22.793Z</time>
      </trkpt>
      <trkpt lat="48.693812" lon="10.043173">
        <ele>591.781667</ele>
        <time>2020-09-10T06:47:24.808Z</time>
      </trkpt>
      <trkpt lat="48.693807" lon="10.043357">
        <ele>591.639416</ele>
        <time>2020-09-10T06:47:26.777Z</time>
      </trkpt>
      <trkpt lat="48.693805" lon="10.043551">
        <ele>591.488869</ele>
        <time>2020-09-10T06:47:28.775Z</time>
      </trkpt>
      <trkpt lat="48.693799" lon="10.043737">
        <ele>591.326373</ele>
        <time>2020-09-10T06:47:30.787Z</time>
      </trkpt>
      <trkpt lat="48.693798" lon="10.043919">
        <ele>591.167555</ele>
        <time>2020-09-10T06:47:32.777Z</time>
      </trkpt>
      <trkpt lat="48.693796" lon="10.044085">
        <ele>591.022680</ele>
        <time>2020-09-10T06:47:34.800Z</time>
      </trkpt>
      <trkpt lat="48.693787" lon="10.044233">
        <ele>590.892990</ele>
        <time>2020-09-10T06:47:36.799Z</time>
      </trkpt>
      <trkpt lat="48.693780" lon="10.044385">
        <ele>590.760033</ele>
        <time>2020-09-10T06:47:38.798Z</time>
      </trkpt>
      <trkpt lat="48.693777" lon="10.044548">
        <ele>590.617745</ele>
        <time>2020-09-10T06:47:40.803Z</time>
      </trkpt>
      <trkpt lat="48.693766" lon="10.044719">
        <ele>590.467824</ele>
        <time>2020-09-10T06:47:42.792Z</time>
      </trkpt>
      <trkpt lat="48.693749" lon="10.044901">
        <ele>590.307430</ele>
        <time>2020-09-10T06:47:44.784Z</time>
      </trkpt>
      <trkpt lat="48.693740" lon="10.045084">
        <ele>590.147302</ele>
        <time>2020-09-10T06:47:46.801Z</time>
      </trkpt>
      <trkpt lat="48.693735" lon="10.045277">
        <ele>589.978762</ele>
        <time>2020-09-10T06:47:48.800Z</time>
      </trkpt>
      <trkpt lat="48.693734" lon="10.045467">
        <ele>589.812964</ele>
        <time>2020-09-10T06:47:50.799Z</time>
      </trkpt>
      <trkpt lat="48.693729" lon="10.045660">
        <ele>589.644423</ele>
        <time>2020-09-10T06:47:52.810Z</time>
      </trkpt>
      <trkpt lat="48.693725" lon="10.045850">
        <ele>589.478546</ele>
        <time>2020-09-10T06:47:54.796Z</time>
      </trkpt>
      <trkpt lat="48.693716" lon="10.046042">
        <ele>589.310586</ele>
        <time>2020-09-10T06:47:56.814Z</time>
      </trkpt>
      <trkpt lat="48.693712" lon="10.046234">
        <ele>589.142964</ele>
        <time>2020-09-10T06:47:58.799Z</time>
      </trkpt>
      <trkpt lat="48.693708" lon="10.046424">
        <ele>589.156150</ele>
        <time>2020-09-10T06:48:00.788Z</time>
      </trkpt>
      <trkpt lat="48.693697" lon="10.046614">
        <ele>589.202660</ele>
        <time>2020-09-10T06:48:02.798Z</time>
      </trkpt>
      <trkpt lat="48.693689" lon="10.046800">
        <ele>589.248114</ele>
        <time>2020-09-10T06:48:04.789Z</time>
      </trkpt>
      <trkpt lat="48.693679" lon="10.046994">
        <ele>589.295566</ele>
        <time>2020-09-10T06:48:06.785Z</time>
      </trkpt>
      <trkpt lat="48.693668" lon="10.047168">
        <ele>589.338191</ele>
        <time>2020-09-10T06:48:08.794Z</time>
      </trkpt>
      <trkpt lat="48.693659" lon="10.047317">
        <ele>589.374677</ele>
        <time>2020-09-10T06:48:10.775Z</time>
      </trkpt>
      <trkpt lat="48.693659" lon="10.047471">
        <ele>589.412231</ele>
        <time>2020-09-10T06:48:12.794Z</time>
      </trkpt>
      <trkpt lat="48.693655" lon="10.047640">
        <ele>589.453469</ele>
        <time>2020-09-10T06:48:14.800Z</time>
      </trkpt>
      <trkpt lat="48.693649" lon="10.047831">
        <ele>589.500098</ele>
        <time>2020-09-10T06:48:16.802Z</time>
      </trkpt>
      <trkpt lat="48.693642" lon="10.048029">
        <ele>589.548451</ele>
        <time>2020-09-10T06:48:18.788Z</time>
      </trkpt>
      <trkpt lat="48.693638" lon="10.048235">
        <ele>589.598707</ele>
        <time>2020-09-10T06:48:20.802Z</time>
      </trkpt>
      <trkpt lat="48.693627" lon="10.048425">
        <ele>589.645218</ele>
        <time>2020-09-10T06:48:22.769Z</time>
      </trkpt>
      <trkpt lat="48.693618" lon="10.048616">
        <ele>589.691913</ele>
        <time>2020-09-10T06:48:24.789Z</time>
      </trkpt>
      <trkpt lat="48.693604" lon="10.048808">
        <ele>589.739018</ele>
        <time>2020-09-10T06:48:26.798Z</time>
      </trkpt>
      <trkpt lat="48.693589" lon="10.048994">
        <ele>589.779725</ele>
        <time>2020-09-10T06:48:28.789Z</time>
      </trkpt>
      <trkpt lat="48.693579" lon="10.049185">
        <ele>589.753602</ele>
        <time>2020-09-10T06:48:30.788Z</time>
      </trkpt>
      <trkpt lat="48.693558" lon="10.049371">
        <ele>589.727873</ele>
        <time>2020-09-10T06:48:32.793Z</time>
      </trkpt>
      <trkpt lat="48.693530" lon="10.049557">
        <ele>589.701862</ele>
        <time>2020-09-10T06:48:34.794Z</time>
      </trkpt>
      <trkpt lat="48.693506" lon="10.049742">
        <ele>589.676155</ele>
        <time>2020-09-10T06:48:36.789Z</time>
      </trkpt>
      <trkpt lat="48.693483" lon="10.049920">
        <ele>589.651425</ele>
        <time>2020-09-10T06:48:38.788Z</time>
      </trkpt>
      <trkpt lat="48.693467" lon="10.050070">
        <ele>589.630708</ele>
        <time>2020-09-10T06:48:40.791Z</time>
      </trkpt>
      <trkpt lat="48.693449" lon="10.050239">
        <ele>589.607367</ele>
        <time>2020-09-10T06:48:43.802Z</time>
      </trkpt>
      <trkpt lat="48.693384" lon="10.050392">
        <ele>589.582559</ele>
        <time>2020-09-10T06:48:47.793Z</time>
      </trkpt>
      <trkpt lat="48.693306" lon="10.050529">
        <ele>589.557891</ele>
        <time>2020-09-10T06:48:50.797Z</time>
      </trkpt>
      <trkpt lat="48.693275" lon="10.050685">
        <ele>589.535678</ele>
        <time>2020-09-10T06:48:52.793Z</time>
      </trkpt>
      <trkpt lat="48.693239" lon="10.050838">
        <ele>589.513532</ele>
        <time>2020-09-10T06:48:54.796Z</time>
      </trkpt>
      <trkpt lat="48.693202" lon="10.051020">
        <ele>589.487566</ele>
        <time>2020-09-10T06:48:56.791Z</time>
      </trkpt>
      <trkpt lat="48.693166" lon="10.051208">
        <ele>589.460877</ele>
        <time>2020-09-10T06:48:58.790Z</time>
      </trkpt>
      <trkpt lat="48.693127" lon="10.051401">
        <ele>589.433356</ele>
        <time>2020-09-10T06:49:00.797Z</time>
      </trkpt>
      <trkpt lat="48.693081" lon="10.051585">
        <ele>589.389816</ele>
        <time>2020-09-10T06:49:02.795Z</time>
      </trkpt>
      <trkpt lat="48.693021" lon="10.051761">
        <ele>589.232409</ele>
        <time>2020-09-10T06:49:04.792Z</time>
      </trkpt>
      <trkpt lat="48.692962" lon="10.051928">
        <ele>589.081891</ele>
        <time>2020-09-10T06:49:06.807Z</time>
      </trkpt>
      <trkpt lat="48.692898" lon="10.052085">
        <ele>588.935260</ele>
        <time>2020-09-10T06:49:08.797Z</time>
      </trkpt>
      <trkpt lat="48.692835" lon="10.052244">
        <ele>588.787897</ele>
        <time>2020-09-10T06:49:10.789Z</time>
      </trkpt>
      <trkpt lat="48.692766" lon="10.052404">
        <ele>588.636025</ele>
        <time>2020-09-10T06:49:12.811Z</time>
      </trkpt>
      <trkpt lat="48.692697" lon="10.052573">
        <ele>588.478117</ele>
        <time>2020-09-10T06:49:14.792Z</time>
      </trkpt>
      <trkpt lat="48.692629" lon="10.052734">
        <ele>588.326231</ele>
        <time>2020-09-10T06:49:16.792Z</time>
      </trkpt>
      <trkpt lat="48.692562" lon="10.052896">
        <ele>588.174318</ele>
        <time>2020-09-10T06:49:18.804Z</time>
      </trkpt>
      <trkpt lat="48.692493" lon="10.053059">
        <ele>588.020444</ele>
        <time>2020-09-10T06:49:20.792Z</time>
      </trkpt>
      <trkpt lat="48.692421" lon="10.053213">
        <ele>587.870482</ele>
        <time>2020-09-10T06:49:22.799Z</time>
      </trkpt>
      <trkpt lat="48.692358" lon="10.053379">
        <ele>587.718321</ele>
        <time>2020-09-10T06:49:24.810Z</time>
      </trkpt>
      <trkpt lat="48.692294" lon="10.053551">
        <ele>587.561422</ele>
        <time>2020-09-10T06:49:26.794Z</time>
      </trkpt>
      <trkpt lat="48.692231" lon="10.053718">
        <ele>587.408572</ele>
        <time>2020-09-10T06:49:28.794Z</time>
      </trkpt>
      <trkpt lat="48.692174" lon="10.053889">
        <ele>587.256344</ele>
        <time>2020-09-10T06:49:30.803Z</time>
      </trkpt>
      <trkpt lat="48.692124" lon="10.054065">
        <ele>587.268193</ele>
        <time>2020-09-10T06:49:32.792Z</time>
      </trkpt>
      <trkpt lat="48.692084" lon="10.054221">
        <ele>587.290383</ele>
        <time>2020-09-10T06:49:34.792Z</time>
      </trkpt>
      <trkpt lat="48.692044" lon="10.054349">
        <ele>587.309161</ele>
        <time>2020-09-10T06:49:36.818Z</time>
      </trkpt>
      <trkpt lat="48.691986" lon="10.054455">
        <ele>587.327417</ele>
        <time>2020-09-10T06:49:38.796Z</time>
      </trkpt>
      <trkpt lat="48.691889" lon="10.054493">
        <ele>587.347541</ele>
        <time>2020-09-10T06:49:40.797Z</time>
      </trkpt>
      <trkpt lat="48.691772" lon="10.054486">
        <ele>587.371061</ele>
        <time>2020-09-10T06:49:42.819Z</time>
      </trkpt>
      <trkpt lat="48.691652" lon="10.054469">
        <ele>587.395270</ele>
        <time>2020-09-10T06:49:44.798Z</time>
      </trkpt>
      <trkpt lat="48.691534" lon="10.054448">
        <ele>587.419135</ele>
        <time>2020-09-10T06:49:46.799Z</time>
      </trkpt>
      <trkpt lat="48.691418" lon="10.054410">
        <ele>587.442974</ele>
        <time>2020-09-10T06:49:48.817Z</time>
      </trkpt>
      <trkpt lat="48.691281" lon="10.054395">
        <ele>587.470565</ele>
        <time>2020-09-10T06:49:50.796Z</time>
      </trkpt>
      <trkpt lat="48.691152" lon="10.054391">
        <ele>587.496482</ele>
        <time>2020-09-10T06:49:52.794Z</time>
      </trkpt>
      <trkpt lat="48.691034" lon="10.054392">
        <ele>587.520185</ele>
        <time>2020-09-10T06:49:54.803Z</time>
      </trkpt>
      <trkpt lat="48.690917" lon="10.054403">
        <ele>587.543731</ele>
        <time>2020-09-10T06:49:56.805Z</time>
      </trkpt>
      <trkpt lat="48.690802" lon="10.054419">
        <ele>587.566928</ele>
        <time>2020-09-10T06:49:58.818Z</time>
      </trkpt>
      <trkpt lat="48.690690" lon="10.054458">
        <ele>587.590012</ele>
        <time>2020-09-10T06:50:00.805Z</time>
      </trkpt>
      <trkpt lat="48.690568" lon="10.054512">
        <ele>587.561430</ele>
        <time>2020-09-10T06:50:02.800Z</time>
      </trkpt>
      <trkpt lat="48.690456" lon="10.054558">
        <ele>587.452385</ele>
        <time>2020-09-10T06:50:04.798Z</time>
      </trkpt>
      <trkpt lat="48.690341" lon="10.054605">
        <ele>587.340456</ele>
        <time>2020-09-10T06:50:06.793Z</time>
      </trkpt>
      <trkpt lat="48.690224" lon="10.054669">
        <ele>587.223564</ele>
        <time>2020-09-10T06:50:08.802Z</time>
      </trkpt>
      <trkpt lat="48.690109" lon="10.054739">
        <ele>587.107101</ele>
        <time>2020-09-10T06:50:10.801Z</time>
      </trkpt>
      <trkpt lat="48.689987" lon="10.054785">
        <ele>586.988961</ele>
        <time>2020-09-10T06:50:12.799Z</time>
      </trkpt>
      <trkpt lat="48.689865" lon="10.054822">
        <ele>586.872043</ele>
        <time>2020-09-10T06:50:14.802Z</time>
      </trkpt>
      <trkpt lat="48.689745" lon="10.054849">
        <ele>586.758042</ele>
        <time>2020-09-10T06:50:16.804Z</time>
      </trkpt>
      <trkpt lat="48.689621" lon="10.054878">
        <ele>586.640140</ele>
        <time>2020-09-10T06:50:18.797Z</time>
      </trkpt>
      <trkpt lat="48.689490" lon="10.054914">
        <ele>586.515031</ele>
        <time>2020-09-10T06:50:20.790Z</time>
      </trkpt>
      <trkpt lat="48.689359" lon="10.054941">
        <ele>586.390796</ele>
        <time>2020-09-10T06:50:22.797Z</time>
      </trkpt>
      <trkpt lat="48.689226" lon="10.054965">
        <ele>586.264933</ele>
        <time>2020-09-10T06:50:24.782Z</time>
      </trkpt>
      <trkpt lat="48.689099" lon="10.054982">
        <ele>586.145127</ele>
        <time>2020-09-10T06:50:26.803Z</time>
      </trkpt>
      <trkpt lat="48.688972" lon="10.054991">
        <ele>586.025656</ele>
        <time>2020-09-10T06:50:28.792Z</time>
      </trkpt>
      <trkpt lat="48.688849" lon="10.055004">
        <ele>585.908687</ele>
        <time>2020-09-10T06:50:30.806Z</time>
      </trkpt>
      <trkpt lat="48.688723" lon="10.055023">
        <ele>585.767954</ele>
        <time>2020-09-10T06:50:32.791Z</time>
      </trkpt>
      <trkpt lat="48.688599" lon="10.055053">
        <ele>585.628390</ele>
        <time>2020-09-10T06:50:34.797Z</time>
      </trkpt>
      <trkpt lat="48.688490" lon="10.055074">
        <ele>585.506267</ele>
        <time>2020-09-10T06:50:36.790Z</time>
      </trkpt>
      <trkpt lat="48.688395" lon="10.055085">
        <ele>585.400373</ele>
        <time>2020-09-10T06:50:38.790Z</time>
      </trkpt>
      <trkpt lat="48.688299" lon="10.055019">
        <ele>585.283200</ele>
        <time>2020-09-10T06:50:42.793Z</time>
      </trkpt>
      <trkpt lat="48.688163" lon="10.055069">
        <ele>585.127657</ele>
        <time>2020-09-10T06:51:25.796Z</time>
      </trkpt>
      <trkpt lat="48.688024" lon="10.055090">
        <ele>584.972401</ele>
        <time>2020-09-10T06:51:28.794Z</time>
      </trkpt>
      <trkpt lat="48.687915" lon="10.055083">
        <ele>584.851146</ele>
        <time>2020-09-10T06:51:30.792Z</time>
      </trkpt>
      <trkpt lat="48.687799" lon="10.055058">
        <ele>584.720921</ele>
        <time>2020-09-10T06:51:32.791Z</time>
      </trkpt>
      <trkpt lat="48.687671" lon="10.055046">
        <ele>584.578385</ele>
        <time>2020-09-10T06:51:34.790Z</time>
      </trkpt>
      <trkpt lat="48.687547" lon="10.055045">
        <ele>584.440565</ele>
        <time>2020-09-10T06:51:36.794Z</time>
      </trkpt>
      <trkpt lat="48.687420" lon="10.055033">
        <ele>584.299139</ele>
        <time>2020-09-10T06:51:38.793Z</time>
      </trkpt>
      <trkpt lat="48.687299" lon="10.055026">
        <ele>584.164557</ele>
        <time>2020-09-10T06:51:40.789Z</time>
      </trkpt>
      <trkpt lat="48.687182" lon="10.055030">
        <ele>584.034486</ele>
        <time>2020-09-10T06:51:42.792Z</time>
      </trkpt>
      <trkpt lat="48.687085" lon="10.055038">
        <ele>583.926517</ele>
        <time>2020-09-10T06:51:44.790Z</time>
      </trkpt>
      <trkpt lat="48.686963" lon="10.055075">
        <ele>584.123060</ele>
        <time>2020-09-10T06:51:47.793Z</time>
      </trkpt>
      <trkpt lat="48.686869" lon="10.055216">
        <ele>584.359052</ele>
        <time>2020-09-10T06:51:50.815Z</time>
      </trkpt>
      <trkpt lat="48.686832" lon="10.055373">
        <ele>584.555377</ele>
        <time>2020-09-10T06:51:52.797Z</time>
      </trkpt>
      <trkpt lat="48.686830" lon="10.055540">
        <ele>584.752082</ele>
        <time>2020-09-10T06:51:54.790Z</time>
      </trkpt>
      <trkpt lat="48.686830" lon="10.055705">
        <ele>584.946400</ele>
        <time>2020-09-10T06:51:56.812Z</time>
      </trkpt>
      <trkpt lat="48.686827" lon="10.055884">
        <ele>585.157274</ele>
        <time>2020-09-10T06:51:58.810Z</time>
      </trkpt>
      <trkpt lat="48.686825" lon="10.056062">
        <ele>585.366932</ele>
        <time>2020-09-10T06:52:00.792Z</time>
      </trkpt>
      <trkpt lat="48.686828" lon="10.056242">
        <ele>585.578983</ele>
        <time>2020-09-10T06:52:02.805Z</time>
      </trkpt>
      <trkpt lat="48.686830" lon="10.056422">
        <ele>585.790996</ele>
        <time>2020-09-10T06:52:04.796Z</time>
      </trkpt>
      <trkpt lat="48.686831" lon="10.056583">
        <ele>585.980612</ele>
        <time>2020-09-10T06:52:06.800Z</time>
      </trkpt>
      <trkpt lat="48.686833" lon="10.056753">
        <ele>586.180850</ele>
        <time>2020-09-10T06:52:08.797Z</time>
      </trkpt>
      <trkpt lat="48.686837" lon="10.056926">
        <ele>586.384714</ele>
        <time>2020-09-10T06:52:10.792Z</time>
      </trkpt>
      <trkpt lat="48.686845" lon="10.057098">
        <ele>586.587778</ele>
        <time>2020-09-10T06:52:12.794Z</time>
      </trkpt>
      <trkpt lat="48.686840" lon="10.057269">
        <ele>586.789359</ele>
        <time>2020-09-10T06:52:14.798Z</time>
      </trkpt>
      <trkpt lat="48.686828" lon="10.057434">
        <ele>586.984853</ele>
        <time>2020-09-10T06:52:16.799Z</time>
      </trkpt>
      <trkpt lat="48.686824" lon="10.057592">
        <ele>587.073345</ele>
        <time>2020-09-10T06:52:18.802Z</time>
      </trkpt>
      <trkpt lat="48.686809" lon="10.057749">
        <ele>586.860717</ele>
        <time>2020-09-10T06:52:20.808Z</time>
      </trkpt>
      <trkpt lat="48.686790" lon="10.057903">
        <ele>586.650730</ele>
        <time>2020-09-10T06:52:22.799Z</time>
      </trkpt>
      <trkpt lat="48.686778" lon="10.058058">
        <ele>586.441552</ele>
        <time>2020-09-10T06:52:24.820Z</time>
      </trkpt>
      <trkpt lat="48.686749" lon="10.058220">
        <ele>586.216574</ele>
        <time>2020-09-10T06:52:26.817Z</time>
      </trkpt>
      <trkpt lat="48.686656" lon="10.058309">
        <ele>585.993230</ele>
        <time>2020-09-10T06:52:29.796Z</time>
      </trkpt>
      <trkpt lat="48.686528" lon="10.058332">
        <ele>585.731529</ele>
        <time>2020-09-10T06:52:32.804Z</time>
      </trkpt>
      <trkpt lat="48.686436" lon="10.058408">
        <ele>585.518770</ele>
        <time>2020-09-10T06:52:34.796Z</time>
      </trkpt>
      <trkpt lat="48.686307" lon="10.058377">
        <ele>585.253586</ele>
        <time>2020-09-10T06:52:36.790Z</time>
      </trkpt>
      <trkpt lat="48.686164" lon="10.058350">
        <ele>584.961007</ele>
        <time>2020-09-10T06:52:38.797Z</time>
      </trkpt>
      <trkpt lat="48.686016" lon="10.058343">
        <ele>584.660377</ele>
        <time>2020-09-10T06:52:40.786Z</time>
      </trkpt>
      <trkpt lat="48.685880" lon="10.058352">
        <ele>584.383993</ele>
        <time>2020-09-10T06:52:42.792Z</time>
      </trkpt>
      <trkpt lat="48.685749" lon="10.058370">
        <ele>584.116932</ele>
        <time>2020-09-10T06:52:44.787Z</time>
      </trkpt>
      <trkpt lat="48.685619" lon="10.058387">
        <ele>583.852012</ele>
        <time>2020-09-10T06:52:46.792Z</time>
      </trkpt>
      <trkpt lat="48.685492" lon="10.058418">
        <ele>583.590837</ele>
        <time>2020-09-10T06:52:48.795Z</time>
      </trkpt>
      <trkpt lat="48.685373" lon="10.058468">
        <ele>583.453833</ele>
        <time>2020-09-10T06:52:50.784Z</time>
      </trkpt>
      <trkpt lat="48.685245" lon="10.058500">
        <ele>583.414862</ele>
        <time>2020-09-10T06:52:52.779Z</time>
      </trkpt>
      <trkpt lat="48.685117" lon="10.058545">
        <ele>583.375390</ele>
        <time>2020-09-10T06:52:54.795Z</time>
      </trkpt>
      <trkpt lat="48.684996" lon="10.058584">
        <ele>583.338228</ele>
        <time>2020-09-10T06:52:56.789Z</time>
      </trkpt>
      <trkpt lat="48.684875" lon="10.058634">
        <ele>583.300552</ele>
        <time>2020-09-10T06:52:58.794Z</time>
      </trkpt>
      <trkpt lat="48.684742" lon="10.058630">
        <ele>583.260592</ele>
        <time>2020-09-10T06:53:00.795Z</time>
      </trkpt>
      <trkpt lat="48.684619" lon="10.058603">
        <ele>583.223258</ele>
        <time>2020-09-10T06:53:02.790Z</time>
      </trkpt>
      <trkpt lat="48.684517" lon="10.058666">
        <ele>583.190168</ele>
        <time>2020-09-10T06:53:04.792Z</time>
      </trkpt>
      <trkpt lat="48.684421" lon="10.058774">
        <ele>583.154246</ele>
        <time>2020-09-10T06:53:06.792Z</time>
      </trkpt>
      <trkpt lat="48.684356" lon="10.058932">
        <ele>583.117326</ele>
        <time>2020-09-10T06:53:08.783Z</time>
      </trkpt>
      <trkpt lat="48.684262" lon="10.059059">
        <ele>583.079488</ele>
        <time>2020-09-10T06:53:10.792Z</time>
      </trkpt>
      <trkpt lat="48.684154" lon="10.059132">
        <ele>583.043962</ele>
        <time>2020-09-10T06:53:12.791Z</time>
      </trkpt>
      <trkpt lat="48.684046" lon="10.059219">
        <ele>583.007216</ele>
        <time>2020-09-10T06:53:14.793Z</time>
      </trkpt>
      <trkpt lat="48.683941" lon="10.059312">
        <ele>582.970678</ele>
        <time>2020-09-10T06:53:16.790Z</time>
      </trkpt>
      <trkpt lat="48.683846" lon="10.059405">
        <ele>582.936699</ele>
        <time>2020-09-10T06:53:18.788Z</time>
      </trkpt>
      <trkpt lat="48.683748" lon="10.059504">
        <ele>583.110518</ele>
        <time>2020-09-10T06:53:20.792Z</time>
      </trkpt>
      <trkpt lat="48.683651" lon="10.059612">
        <ele>583.311030</ele>
        <time>2020-09-10T06:53:22.792Z</time>
      </trkpt>
      <trkpt lat="48.683548" lon="10.059724">
        <ele>583.522213</ele>
        <time>2020-09-10T06:53:24.790Z</time>
      </trkpt>
      <trkpt lat="48.683445" lon="10.059837">
        <ele>583.734040</ele>
        <time>2020-09-10T06:53:26.796Z</time>
      </trkpt>
      <trkpt lat="48.683343" lon="10.059956">
        <ele>583.948481</ele>
        <time>2020-09-10T06:53:28.820Z</time>
      </trkpt>
      <trkpt lat="48.683244" lon="10.060075">
        <ele>584.158986</ele>
        <time>2020-09-10T06:53:30.789Z</time>
      </trkpt>
      <trkpt lat="48.683139" lon="10.060202">
        <ele>584.382788</ele>
        <time>2020-09-10T06:53:32.792Z</time>
      </trkpt>
      <trkpt lat="48.683035" lon="10.060326">
        <ele>584.603236</ele>
        <time>2020-09-10T06:53:34.798Z</time>
      </trkpt>
      <trkpt lat="48.682936" lon="10.060447">
        <ele>584.815116</ele>
        <time>2020-09-10T06:53:36.795Z</time>
      </trkpt>
      <trkpt lat="48.682829" lon="10.060560">
        <ele>585.032374</ele>
        <time>2020-09-10T06:53:38.780Z</time>
      </trkpt>
      <trkpt lat="48.682721" lon="10.060688">
        <ele>585.260779</ele>
        <time>2020-09-10T06:53:40.790Z</time>
      </trkpt>
      <trkpt lat="48.682617" lon="10.060821">
        <ele>585.487482</ele>
        <time>2020-09-10T06:53:42.790Z</time>
      </trkpt>
      <trkpt lat="48.682518" lon="10.060941">
        <ele>585.698674</ele>
        <time>2020-09-10T06:53:44.789Z</time>
      </trkpt>
      <trkpt lat="48.682417" lon="10.061064">
        <ele>585.914528</ele>
        <time>2020-09-10T06:53:46.795Z</time>
      </trkpt>
      <trkpt lat="48.682316" lon="10.061191">
        <ele>585.905364</ele>
        <time>2020-09-10T06:53:48.790Z</time>
      </trkpt>
      <trkpt lat="48.682213" lon="10.061313">
        <ele>585.880122</ele>
        <time>2020-09-10T06:53:50.793Z</time>
      </trkpt>
      <trkpt lat="48.682112" lon="10.061437">
        <ele>585.855024</ele>
        <time>2020-09-10T06:53:52.794Z</time>
      </trkpt>
      <trkpt lat="48.682016" lon="10.061567">
        <ele>585.830165</ele>
        <time>2020-09-10T06:53:54.798Z</time>
      </trkpt>
      <trkpt lat="48.681911" lon="10.061684">
        <ele>585.805000</ele>
        <time>2020-09-10T06:53:56.790Z</time>
      </trkpt>
      <trkpt lat="48.681809" lon="10.061807">
        <ele>585.779831</ele>
        <time>2020-09-10T06:53:58.794Z</time>
      </trkpt>
      <trkpt lat="48.681707" lon="10.061926">
        <ele>585.754976</ele>
        <time>2020-09-10T06:54:00.792Z</time>
      </trkpt>
      <trkpt lat="48.681607" lon="10.062050">
        <ele>585.730027</ele>
        <time>2020-09-10T06:54:02.786Z</time>
      </trkpt>
      <trkpt lat="48.681506" lon="10.062171">
        <ele>585.705168</ele>
        <time>2020-09-10T06:54:04.794Z</time>
      </trkpt>
      <trkpt lat="48.681409" lon="10.062285">
        <ele>585.681466</ele>
        <time>2020-09-10T06:54:06.791Z</time>
      </trkpt>
      <trkpt lat="48.681306" lon="10.062410">
        <ele>585.655987</ele>
        <time>2020-09-10T06:54:08.801Z</time>
      </trkpt>
      <trkpt lat="48.681206" lon="10.062533">
        <ele>585.631119</ele>
        <time>2020-09-10T06:54:10.793Z</time>
      </trkpt>
      <trkpt lat="48.681102" lon="10.062650">
        <ele>585.606110</ele>
        <time>2020-09-10T06:54:12.793Z</time>
      </trkpt>
      <trkpt lat="48.680998" lon="10.062769">
        <ele>585.568622</ele>
        <time>2020-09-10T06:54:14.814Z</time>
      </trkpt>
      <trkpt lat="48.680890" lon="10.062884">
        <ele>585.177218</ele>
        <time>2020-09-10T06:54:16.793Z</time>
      </trkpt>
      <trkpt lat="48.680785" lon="10.063000">
        <ele>584.791906</ele>
        <time>2020-09-10T06:54:18.794Z</time>
      </trkpt>
      <trkpt lat="48.680677" lon="10.063118">
        <ele>584.397095</ele>
        <time>2020-09-10T06:54:20.804Z</time>
      </trkpt>
      <trkpt lat="48.680568" lon="10.063222">
        <ele>584.015161</ele>
        <time>2020-09-10T06:54:22.793Z</time>
      </trkpt>
      <trkpt lat="48.680454" lon="10.063326">
        <ele>583.620604</ele>
        <time>2020-09-10T06:54:24.796Z</time>
      </trkpt>
      <trkpt lat="48.680346" lon="10.063421">
        <ele>583.250328</ele>
        <time>2020-09-10T06:54:26.792Z</time>
      </trkpt>
      <trkpt lat="48.680237" lon="10.063487">
        <ele>582.902303</ele>
        <time>2020-09-10T06:54:28.790Z</time>
      </trkpt>
      <trkpt lat="48.680125" lon="10.063479">
        <ele>582.569884</ele>
        <time>2020-09-10T06:54:30.793Z</time>
      </trkpt>
      <trkpt lat="48.680027" lon="10.063476">
        <ele>582.279281</ele>
        <time>2020-09-10T06:54:32.791Z</time>
      </trkpt>
      <trkpt lat="48.679990" lon="10.063604">
        <ele>582.005759</ele>
        <time>2020-09-10T06:54:34.796Z</time>
      </trkpt>
      <trkpt lat="48.679900" lon="10.063753">
        <ele>581.610453</ele>
        <time>2020-09-10T06:54:37.805Z</time>
      </trkpt>
      <trkpt lat="48.679799" lon="10.063809">
        <ele>581.291580</ele>
        <time>2020-09-10T06:54:39.792Z</time>
      </trkpt>
      <trkpt lat="48.679701" lon="10.063865">
        <ele>580.981044</ele>
        <time>2020-09-10T06:54:41.793Z</time>
      </trkpt>
      <trkpt lat="48.679611" lon="10.063943">
        <ele>580.673620</ele>
        <time>2020-09-10T06:54:43.808Z</time>
      </trkpt>
      <trkpt lat="48.679524" lon="10.064017">
        <ele>580.377795</ele>
        <time>2020-09-10T06:54:45.796Z</time>
      </trkpt>
      <trkpt lat="48.679421" lon="10.064082">
        <ele>580.089140</ele>
        <time>2020-09-10T06:54:47.793Z</time>
      </trkpt>
      <trkpt lat="48.679317" lon="10.064157">
        <ele>579.818800</ele>
        <time>2020-09-10T06:54:49.814Z</time>
      </trkpt>
      <trkpt lat="48.679209" lon="10.064224">
        <ele>579.544890</ele>
        <time>2020-09-10T06:54:51.804Z</time>
      </trkpt>
      <trkpt lat="48.679085" lon="10.064304">
        <ele>579.228565</ele>
        <time>2020-09-10T06:54:53.782Z</time>
      </trkpt>
      <trkpt lat="48.678964" lon="10.064373">
        <ele>578.925122</ele>
        <time>2020-09-10T06:54:55.783Z</time>
      </trkpt>
      <trkpt lat="48.678845" lon="10.064447">
        <ele>578.623210</ele>
        <time>2020-09-10T06:54:57.773Z</time>
      </trkpt>
      <trkpt lat="48.678727" lon="10.064539">
        <ele>578.311728</ele>
        <time>2020-09-10T06:54:59.789Z</time>
      </trkpt>
      <trkpt lat="48.678633" lon="10.064686">
        <ele>577.994614</ele>
        <time>2020-09-10T06:55:01.794Z</time>
      </trkpt>
      <trkpt lat="48.678577" lon="10.064855">
        <ele>577.701595</ele>
        <time>2020-09-10T06:55:03.784Z</time>
      </trkpt>
      <trkpt lat="48.678576" lon="10.065068">
        <ele>577.371512</ele>
        <time>2020-09-10T06:55:05.794Z</time>
      </trkpt>
      <trkpt lat="48.678605" lon="10.065276">
        <ele>577.042079</ele>
        <time>2020-09-10T06:55:07.792Z</time>
      </trkpt>
      <trkpt lat="48.678620" lon="10.065476">
        <ele>576.730157</ele>
        <time>2020-09-10T06:55:09.803Z</time>
      </trkpt>
      <trkpt lat="48.678631" lon="10.065673">
        <ele>576.423787</ele>
        <time>2020-09-10T06:55:11.790Z</time>
      </trkpt>
      <trkpt lat="48.678637" lon="10.065887">
        <ele>576.091864</ele>
        <time>2020-09-10T06:55:13.791Z</time>
      </trkpt>
      <trkpt lat="48.678646" lon="10.066081">
        <ele>576.035612</ele>
        <time>2020-09-10T06:55:15.791Z</time>
      </trkpt>
      <trkpt lat="48.678649" lon="10.066279">
        <ele>576.045461</ele>
        <time>2020-09-10T06:55:17.794Z</time>
      </trkpt>
      <trkpt lat="48.678639" lon="10.066474">
        <ele>576.055187</ele>
        <time>2020-09-10T06:55:19.790Z</time>
      </trkpt>
      <trkpt lat="48.678594" lon="10.066668">
        <ele>576.065413</ele>
        <time>2020-09-10T06:55:21.788Z</time>
      </trkpt>
      <trkpt lat="48.678512" lon="10.066828">
        <ele>576.075485</ele>
        <time>2020-09-10T06:55:23.772Z</time>
      </trkpt>
      <trkpt lat="48.678397" lon="10.066935">
        <ele>576.085651</ele>
        <time>2020-09-10T06:55:25.769Z</time>
      </trkpt>
      <trkpt lat="48.678266" lon="10.067007">
        <ele>576.096147</ele>
        <time>2020-09-10T06:55:27.791Z</time>
      </trkpt>
      <trkpt lat="48.678136" lon="10.067089">
        <ele>576.106753</ele>
        <time>2020-09-10T06:55:29.792Z</time>
      </trkpt>
      <trkpt lat="48.678025" lon="10.067175">
        <ele>576.116144</ele>
        <time>2020-09-10T06:55:31.796Z</time>
      </trkpt>
      <trkpt lat="48.677902" lon="10.067243">
        <ele>576.126005</ele>
        <time>2020-09-10T06:55:33.808Z</time>
      </trkpt>
      <trkpt lat="48.677771" lon="10.067308">
        <ele>576.136388</ele>
        <time>2020-09-10T06:55:35.794Z</time>
      </trkpt>
      <trkpt lat="48.677641" lon="10.067351">
        <ele>576.146410</ele>
        <time>2020-09-10T06:55:37.788Z</time>
      </trkpt>
      <trkpt lat="48.677509" lon="10.067373">
        <ele>576.156412</ele>
        <time>2020-09-10T06:55:39.808Z</time>
      </trkpt>
      <trkpt lat="48.677380" lon="10.067401">
        <ele>576.167270</ele>
        <time>2020-09-10T06:55:41.792Z</time>
      </trkpt>
      <trkpt lat="48.677256" lon="10.067445">
        <ele>576.180473</ele>
        <time>2020-09-10T06:55:43.794Z</time>
      </trkpt>
      <trkpt lat="48.677136" lon="10.067472">
        <ele>576.193051</ele>
        <time>2020-09-10T06:55:45.802Z</time>
      </trkpt>
      <trkpt lat="48.677008" lon="10.067498">
        <ele>576.206440</ele>
        <time>2020-09-10T06:55:47.786Z</time>
      </trkpt>
      <trkpt lat="48.676874" lon="10.067503">
        <ele>576.220337</ele>
        <time>2020-09-10T06:55:49.790Z</time>
      </trkpt>
      <trkpt lat="48.676736" lon="10.067528">
        <ele>576.234746</ele>
        <time>2020-09-10T06:55:51.801Z</time>
      </trkpt>
      <trkpt lat="48.676610" lon="10.067550">
        <ele>576.247896</ele>
        <time>2020-09-10T06:55:53.795Z</time>
      </trkpt>
      <trkpt lat="48.676481" lon="10.067565">
        <ele>576.261309</ele>
        <time>2020-09-10T06:55:55.781Z</time>
      </trkpt>
      <trkpt lat="48.676346" lon="10.067574">
        <ele>576.275319</ele>
        <time>2020-09-10T06:55:57.790Z</time>
      </trkpt>
      <trkpt lat="48.676220" lon="10.067597">
        <ele>576.288476</ele>
        <time>2020-09-10T06:55:59.797Z</time>
      </trkpt>
      <trkpt lat="48.676088" lon="10.067612">
        <ele>576.302200</ele>
        <time>2020-09-10T06:56:01.782Z</time>
      </trkpt>
      <trkpt lat="48.675958" lon="10.067632">
        <ele>576.315747</ele>
        <time>2020-09-10T06:56:03.796Z</time>
      </trkpt>
      <trkpt lat="48.675826" lon="10.067652">
        <ele>576.329501</ele>
        <time>2020-09-10T06:56:05.788Z</time>
      </trkpt>
      <trkpt lat="48.675693" lon="10.067663">
        <ele>576.343310</ele>
        <time>2020-09-10T06:56:07.791Z</time>
      </trkpt>
      <trkpt lat="48.675561" lon="10.067677">
        <ele>576.343550</ele>
        <time>2020-09-10T06:56:09.793Z</time>
      </trkpt>
      <trkpt lat="48.675433" lon="10.067700">
        <ele>576.331534</ele>
        <time>2020-09-10T06:56:11.792Z</time>
      </trkpt>
      <trkpt lat="48.675305" lon="10.067729">
        <ele>576.319468</ele>
        <time>2020-09-10T06:56:13.790Z</time>
      </trkpt>
      <trkpt lat="48.675181" lon="10.067763">
        <ele>576.307719</ele>
        <time>2020-09-10T06:56:15.792Z</time>
      </trkpt>
      <trkpt lat="48.675048" lon="10.067811">
        <ele>576.294973</ele>
        <time>2020-09-10T06:56:17.795Z</time>
      </trkpt>
      <trkpt lat="48.674918" lon="10.067864">
        <ele>576.282422</ele>
        <time>2020-09-10T06:56:19.793Z</time>
      </trkpt>
      <trkpt lat="48.674797" lon="10.067918">
        <ele>576.270662</ele>
        <time>2020-09-10T06:56:21.796Z</time>
      </trkpt>
      <trkpt lat="48.674684" lon="10.067988">
        <ele>576.259280</ele>
        <time>2020-09-10T06:56:23.797Z</time>
      </trkpt>
      <trkpt lat="48.674569" lon="10.068062">
        <ele>576.247631</ele>
        <time>2020-09-10T06:56:25.790Z</time>
      </trkpt>
      <trkpt lat="48.674450" lon="10.068120">
        <ele>576.235977</ele>
        <time>2020-09-10T06:56:27.797Z</time>
      </trkpt>
      <trkpt lat="48.674341" lon="10.068189">
        <ele>576.224963</ele>
        <time>2020-09-10T06:56:29.791Z</time>
      </trkpt>
      <trkpt lat="48.674258" lon="10.068287">
        <ele>576.215151</ele>
        <time>2020-09-10T06:56:31.799Z</time>
      </trkpt>
      <trkpt lat="48.674153" lon="10.068324">
        <ele>576.205101</ele>
        <time>2020-09-10T06:56:33.790Z</time>
      </trkpt>
      <trkpt lat="48.674015" lon="10.068356">
        <ele>576.192085</ele>
        <time>2020-09-10T06:56:35.798Z</time>
      </trkpt>
      <trkpt lat="48.673889" lon="10.068391">
        <ele>576.114185</ele>
        <time>2020-09-10T06:56:37.793Z</time>
      </trkpt>
      <trkpt lat="48.673771" lon="10.068439">
        <ele>575.746175</ele>
        <time>2020-09-10T06:56:39.793Z</time>
      </trkpt>
      <trkpt lat="48.673670" lon="10.068491">
        <ele>575.424866</ele>
        <time>2020-09-10T06:56:41.791Z</time>
      </trkpt>
      <trkpt lat="48.673566" lon="10.068536">
        <ele>575.099087</ele>
        <time>2020-09-10T06:56:43.792Z</time>
      </trkpt>
      <trkpt lat="48.673463" lon="10.068579">
        <ele>574.777282</ele>
        <time>2020-09-10T06:56:45.786Z</time>
      </trkpt>
      <trkpt lat="48.673371" lon="10.068617">
        <ele>574.490059</ele>
        <time>2020-09-10T06:56:47.792Z</time>
      </trkpt>
      <trkpt lat="48.673275" lon="10.068649">
        <ele>574.193989</ele>
        <time>2020-09-10T06:56:49.792Z</time>
      </trkpt>
      <trkpt lat="48.673166" lon="10.068686">
        <ele>573.857539</ele>
        <time>2020-09-10T06:56:52.794Z</time>
      </trkpt>
      <trkpt lat="48.673098" lon="10.068782">
        <ele>573.577527</ele>
        <time>2020-09-10T06:57:00.806Z</time>
      </trkpt>
      <trkpt lat="48.673006" lon="10.068838">
        <ele>573.278879</ele>
        <time>2020-09-10T06:57:10.805Z</time>
      </trkpt>
      <trkpt lat="48.672897" lon="10.068781">
        <ele>572.931552</ele>
        <time>2020-09-10T06:57:14.788Z</time>
      </trkpt>
      <trkpt lat="48.672785" lon="10.068836">
        <ele>572.576918</ele>
        <time>2020-09-10T06:57:17.800Z</time>
      </trkpt>
      <trkpt lat="48.672811" lon="10.068998">
        <ele>572.245325</ele>
        <time>2020-09-10T06:57:20.787Z</time>
      </trkpt>
      <trkpt lat="48.672846" lon="10.069132">
        <ele>571.958711</ele>
        <time>2020-09-10T06:57:22.788Z</time>
      </trkpt>
      <trkpt lat="48.672873" lon="10.069276">
        <ele>571.660978</ele>
        <time>2020-09-10T06:57:24.792Z</time>
      </trkpt>
      <trkpt lat="48.672899" lon="10.069439">
        <ele>571.327452</ele>
        <time>2020-09-10T06:57:26.789Z</time>
      </trkpt>
      <trkpt lat="48.672936" lon="10.069607">
        <ele>570.975212</ele>
        <time>2020-09-10T06:57:28.786Z</time>
      </trkpt>
      <trkpt lat="48.672974" lon="10.069792">
        <ele>570.729396</ele>
        <time>2020-09-10T06:57:30.785Z</time>
      </trkpt>
      <trkpt lat="48.673019" lon="10.069971">
        <ele>570.652284</ele>
        <time>2020-09-10T06:57:32.793Z</time>
      </trkpt>
      <trkpt lat="48.673057" lon="10.070145">
        <ele>570.578500</ele>
        <time>2020-09-10T06:57:34.821Z</time>
      </trkpt>
      <trkpt lat="48.673081" lon="10.070303">
        <ele>570.513227</ele>
        <time>2020-09-10T06:57:36.784Z</time>
      </trkpt>
      <trkpt lat="48.673110" lon="10.070462">
        <ele>570.446817</ele>
        <time>2020-09-10T06:57:38.793Z</time>
      </trkpt>
      <trkpt lat="48.673144" lon="10.070617">
        <ele>570.381060</ele>
        <time>2020-09-10T06:57:40.790Z</time>
      </trkpt>
      <trkpt lat="48.673191" lon="10.070779">
        <ele>570.309822</ele>
        <time>2020-09-10T06:57:42.789Z</time>
      </trkpt>
      <trkpt lat="48.673234" lon="10.070948">
        <ele>570.236906</ele>
        <time>2020-09-10T06:57:44.801Z</time>
      </trkpt>
      <trkpt lat="48.673282" lon="10.071117">
        <ele>570.162840</ele>
        <time>2020-09-10T06:57:46.799Z</time>
      </trkpt>
      <trkpt lat="48.673336" lon="10.071295">
        <ele>570.083977</ele>
        <time>2020-09-10T06:57:48.780Z</time>
      </trkpt>
      <trkpt lat="48.673388" lon="10.071472">
        <ele>570.005982</ele>
        <time>2020-09-10T06:57:50.786Z</time>
      </trkpt>
      <trkpt lat="48.673435" lon="10.071642">
        <ele>569.931784</ele>
        <time>2020-09-10T06:57:52.792Z</time>
      </trkpt>
      <trkpt lat="48.673486" lon="10.071814">
        <ele>569.855876</ele>
        <time>2020-09-10T06:57:54.793Z</time>
      </trkpt>
      <trkpt lat="48.673534" lon="10.072000">
        <ele>569.775478</ele>
        <time>2020-09-10T06:57:56.797Z</time>
      </trkpt>
      <trkpt lat="48.673579" lon="10.072183">
        <ele>569.696860</ele>
        <time>2020-09-10T06:57:58.791Z</time>
      </trkpt>
      <trkpt lat="48.673619" lon="10.072365">
        <ele>569.567395</ele>
        <time>2020-09-10T06:58:00.788Z</time>
      </trkpt>
      <trkpt lat="48.673656" lon="10.072549">
        <ele>569.406691</ele>
        <time>2020-09-10T06:58:02.795Z</time>
      </trkpt>
      <trkpt lat="48.673695" lon="10.072739">
        <ele>569.240452</ele>
        <time>2020-09-10T06:58:04.793Z</time>
      </trkpt>
      <trkpt lat="48.673731" lon="10.072933">
        <ele>569.072085</ele>
        <time>2020-09-10T06:58:06.793Z</time>
      </trkpt>
      <trkpt lat="48.673773" lon="10.073125">
        <ele>568.903095</ele>
        <time>2020-09-10T06:58:08.793Z</time>
      </trkpt>
      <trkpt lat="48.673814" lon="10.073318">
        <ele>568.733704</ele>
        <time>2020-09-10T06:58:10.769Z</time>
      </trkpt>
      <trkpt lat="48.673856" lon="10.073511">
        <ele>568.563921</ele>
        <time>2020-09-10T06:58:12.791Z</time>
      </trkpt>
      <trkpt lat="48.673904" lon="10.073718">
        <ele>568.380618</ele>
        <time>2020-09-10T06:58:14.793Z</time>
      </trkpt>
      <trkpt lat="48.673952" lon="10.073929">
        <ele>568.194159</ele>
        <time>2020-09-10T06:58:16.790Z</time>
      </trkpt>
      <trkpt lat="48.673996" lon="10.074136">
        <ele>568.012470</ele>
        <time>2020-09-10T06:58:18.786Z</time>
      </trkpt>
      <trkpt lat="48.674042" lon="10.074336">
        <ele>567.835524</ele>
        <time>2020-09-10T06:58:20.807Z</time>
      </trkpt>
      <trkpt lat="48.674083" lon="10.074546">
        <ele>567.652560</ele>
        <time>2020-09-10T06:58:22.793Z</time>
      </trkpt>
      <trkpt lat="48.674129" lon="10.074749">
        <ele>567.473245</ele>
        <time>2020-09-10T06:58:24.788Z</time>
      </trkpt>
      <trkpt lat="48.674171" lon="10.074951">
        <ele>567.328774</ele>
        <time>2020-09-10T06:58:26.813Z</time>
      </trkpt>
      <trkpt lat="48.674218" lon="10.075151">
        <ele>567.211291</ele>
        <time>2020-09-10T06:58:28.789Z</time>
      </trkpt>
      <trkpt lat="48.674262" lon="10.075351">
        <ele>567.094627</ele>
        <time>2020-09-10T06:58:30.796Z</time>
      </trkpt>
      <trkpt lat="48.674299" lon="10.075556">
        <ele>566.977015</ele>
        <time>2020-09-10T06:58:32.810Z</time>
      </trkpt>
      <trkpt lat="48.674340" lon="10.075757">
        <ele>566.860593</ele>
        <time>2020-09-10T06:58:34.798Z</time>
      </trkpt>
      <trkpt lat="48.674381" lon="10.075959">
        <ele>566.743642</ele>
        <time>2020-09-10T06:58:36.788Z</time>
      </trkpt>
      <trkpt lat="48.674421" lon="10.076157">
        <ele>566.629053</ele>
        <time>2020-09-10T06:58:38.795Z</time>
      </trkpt>
      <trkpt lat="48.674461" lon="10.076360">
        <ele>566.511815</ele>
        <time>2020-09-10T06:58:40.798Z</time>
      </trkpt>
      <trkpt lat="48.674498" lon="10.076561">
        <ele>566.396338</ele>
        <time>2020-09-10T06:58:42.784Z</time>
      </trkpt>
      <trkpt lat="48.674533" lon="10.076754">
        <ele>566.285574</ele>
        <time>2020-09-10T06:58:44.798Z</time>
      </trkpt>
      <trkpt lat="48.674566" lon="10.076949">
        <ele>566.174172</ele>
        <time>2020-09-10T06:58:46.800Z</time>
      </trkpt>
      <trkpt lat="48.674600" lon="10.077149">
        <ele>566.059880</ele>
        <time>2020-09-10T06:58:48.790Z</time>
      </trkpt>
      <trkpt lat="48.674636" lon="10.077354">
        <ele>565.942488</ele>
        <time>2020-09-10T06:58:50.783Z</time>
      </trkpt>
      <trkpt lat="48.674678" lon="10.077565">
        <ele>565.791600</ele>
        <time>2020-09-10T06:58:52.793Z</time>
      </trkpt>
      <trkpt lat="48.674719" lon="10.077767">
        <ele>565.622233</ele>
        <time>2020-09-10T06:58:54.793Z</time>
      </trkpt>
      <trkpt lat="48.674768" lon="10.077963">
        <ele>565.454269</ele>
        <time>2020-09-10T06:58:56.797Z</time>
      </trkpt>
      <trkpt lat="48.674816" lon="10.078155">
        <ele>565.289734</ele>
        <time>2020-09-10T06:58:58.793Z</time>
      </trkpt>
      <trkpt lat="48.674862" lon="10.078353">
        <ele>565.121513</ele>
        <time>2020-09-10T06:59:00.801Z</time>
      </trkpt>
      <trkpt lat="48.674908" lon="10.078549">
        <ele>564.954804</ele>
        <time>2020-09-10T06:59:02.793Z</time>
      </trkpt>
      <trkpt lat="48.674959" lon="10.078742">
        <ele>564.788201</ele>
        <time>2020-09-10T06:59:04.801Z</time>
      </trkpt>
      <trkpt lat="48.675005" lon="10.078942">
        <ele>564.618468</ele>
        <time>2020-09-10T06:59:06.813Z</time>
      </trkpt>
      <trkpt lat="48.675051" lon="10.079136">
        <ele>564.453269</ele>
        <time>2020-09-10T06:59:08.775Z</time>
      </trkpt>
      <trkpt lat="48.675096" lon="10.079336">
        <ele>564.283932</ele>
        <time>2020-09-10T06:59:10.784Z</time>
      </trkpt>
      <trkpt lat="48.675139" lon="10.079540">
        <ele>564.112311</ele>
        <time>2020-09-10T06:59:12.802Z</time>
      </trkpt>
      <trkpt lat="48.675182" lon="10.079745">
        <ele>563.939926</ele>
        <time>2020-09-10T06:59:14.805Z</time>
      </trkpt>
      <trkpt lat="48.675225" lon="10.079943">
        <ele>563.772880</ele>
        <time>2020-09-10T06:59:16.781Z</time>
      </trkpt>
      <trkpt lat="48.675270" lon="10.080149">
        <ele>563.672612</ele>
        <time>2020-09-10T06:59:18.769Z</time>
      </trkpt>
      <trkpt lat="48.675313" lon="10.080361">
        <ele>563.621826</ele>
        <time>2020-09-10T06:59:20.817Z</time>
      </trkpt>
      <trkpt lat="48.675351" lon="10.080569">
        <ele>563.572406</ele>
        <time>2020-09-10T06:59:22.788Z</time>
      </trkpt>
      <trkpt lat="48.675393" lon="10.080778">
        <ele>563.522379</ele>
        <time>2020-09-10T06:59:24.780Z</time>
      </trkpt>
      <trkpt lat="48.675431" lon="10.080990">
        <ele>563.472075</ele>
        <time>2020-09-10T06:59:26.786Z</time>
      </trkpt>
      <trkpt lat="48.675471" lon="10.081193">
        <ele>563.423563</ele>
        <time>2020-09-10T06:59:28.783Z</time>
      </trkpt>
      <trkpt lat="48.675512" lon="10.081389">
        <ele>563.376482</ele>
        <time>2020-09-10T06:59:30.786Z</time>
      </trkpt>
      <trkpt lat="48.675559" lon="10.081593">
        <ele>563.327006</ele>
        <time>2020-09-10T06:59:32.786Z</time>
      </trkpt>
      <trkpt lat="48.675604" lon="10.081789">
        <ele>563.279487</ele>
        <time>2020-09-10T06:59:34.780Z</time>
      </trkpt>
      <trkpt lat="48.675643" lon="10.082000">
        <ele>563.229312</ele>
        <time>2020-09-10T06:59:36.781Z</time>
      </trkpt>
      <trkpt lat="48.675683" lon="10.082199">
        <ele>563.181678</ele>
        <time>2020-09-10T06:59:38.784Z</time>
      </trkpt>
      <trkpt lat="48.675731" lon="10.082397">
        <ele>563.133378</ele>
        <time>2020-09-10T06:59:40.782Z</time>
      </trkpt>
      <trkpt lat="48.675772" lon="10.082597">
        <ele>563.085423</ele>
        <time>2020-09-10T06:59:42.784Z</time>
      </trkpt>
      <trkpt lat="48.675824" lon="10.082793">
        <ele>563.050419</ele>
        <time>2020-09-10T06:59:44.783Z</time>
      </trkpt>
      <trkpt lat="48.675870" lon="10.082992">
        <ele>563.017778</ele>
        <time>2020-09-10T06:59:46.790Z</time>
      </trkpt>
      <trkpt lat="48.675917" lon="10.083193">
        <ele>562.984768</ele>
        <time>2020-09-10T06:59:48.784Z</time>
      </trkpt>
      <trkpt lat="48.675955" lon="10.083396">
        <ele>562.952103</ele>
        <time>2020-09-10T06:59:50.790Z</time>
      </trkpt>
      <trkpt lat="48.675992" lon="10.083598">
        <ele>562.919650</ele>
        <time>2020-09-10T06:59:52.764Z</time>
      </trkpt>
      <trkpt lat="48.676030" lon="10.083800">
        <ele>562.887134</ele>
        <time>2020-09-10T06:59:54.786Z</time>
      </trkpt>
      <trkpt lat="48.676066" lon="10.084011">
        <ele>562.853396</ele>
        <time>2020-09-10T06:59:56.781Z</time>
      </trkpt>
      <trkpt lat="48.676101" lon="10.084224">
        <ele>562.819416</ele>
        <time>2020-09-10T06:59:58.784Z</time>
      </trkpt>
      <trkpt lat="48.676142" lon="10.084447">
        <ele>562.783580</ele>
        <time>2020-09-10T07:00:00.787Z</time>
      </trkpt>
      <trkpt lat="48.676182" lon="10.084668">
        <ele>562.748105</ele>
        <time>2020-09-10T07:00:02.780Z</time>
      </trkpt>
      <trkpt lat="48.676228" lon="10.084890">
        <ele>562.712085</ele>
        <time>2020-09-10T07:00:04.790Z</time>
      </trkpt>
      <trkpt lat="48.676270" lon="10.085114">
        <ele>562.676037</ele>
        <time>2020-09-10T07:00:06.789Z</time>
      </trkpt>
      <trkpt lat="48.676318" lon="10.085333">
        <ele>562.684244</ele>
        <time>2020-09-10T07:00:08.793Z</time>
      </trkpt>
      <trkpt lat="48.676366" lon="10.085537">
        <ele>562.741039</ele>
        <time>2020-09-10T07:00:10.781Z</time>
      </trkpt>
      <trkpt lat="48.676414" lon="10.085742">
        <ele>562.798080</ele>
        <time>2020-09-10T07:00:12.784Z</time>
      </trkpt>
      <trkpt lat="48.676461" lon="10.085946">
        <ele>562.854743</ele>
        <time>2020-09-10T07:00:14.782Z</time>
      </trkpt>
      <trkpt lat="48.676511" lon="10.086149">
        <ele>562.911563</ele>
        <time>2020-09-10T07:00:16.790Z</time>
      </trkpt>
      <trkpt lat="48.676555" lon="10.086360">
        <ele>562.969592</ele>
        <time>2020-09-10T07:00:18.782Z</time>
      </trkpt>
      <trkpt lat="48.676597" lon="10.086565">
        <ele>563.025882</ele>
        <time>2020-09-10T07:00:20.793Z</time>
      </trkpt>
      <trkpt lat="48.676632" lon="10.086772">
        <ele>563.081919</ele>
        <time>2020-09-10T07:00:22.804Z</time>
      </trkpt>
      <trkpt lat="48.676670" lon="10.086953">
        <ele>563.131728</ele>
        <time>2020-09-10T07:00:24.789Z</time>
      </trkpt>
      <trkpt lat="48.676714" lon="10.087142">
        <ele>563.184283</ele>
        <time>2020-09-10T07:00:26.789Z</time>
      </trkpt>
      <trkpt lat="48.676777" lon="10.087309">
        <ele>563.234723</ele>
        <time>2020-09-10T07:00:28.780Z</time>
      </trkpt>
      <trkpt lat="48.676848" lon="10.087476">
        <ele>563.286811</ele>
        <time>2020-09-10T07:00:30.792Z</time>
      </trkpt>
      <trkpt lat="48.676916" lon="10.087652">
        <ele>563.340288</ele>
        <time>2020-09-10T07:00:32.793Z</time>
      </trkpt>
      <trkpt lat="48.676979" lon="10.087821">
        <ele>563.382991</ele>
        <time>2020-09-10T07:00:34.793Z</time>
      </trkpt>
      <trkpt lat="48.677030" lon="10.087984">
        <ele>563.411115</ele>
        <time>2020-09-10T07:00:36.788Z</time>
      </trkpt>
      <trkpt lat="48.677023" lon="10.088156">
        <ele>563.437985</ele>
        <time>2020-09-10T07:00:38.794Z</time>
      </trkpt>
      <trkpt lat="48.676946" lon="10.088265">
        <ele>563.462874</ele>
        <time>2020-09-10T07:00:40.791Z</time>
      </trkpt>
      <trkpt lat="48.676912" lon="10.088395">
        <ele>563.484676</ele>
        <time>2020-09-10T07:00:42.789Z</time>
      </trkpt>
      <trkpt lat="48.676956" lon="10.088547">
        <ele>563.510554</ele>
        <time>2020-09-10T07:00:44.799Z</time>
      </trkpt>
      <trkpt lat="48.677014" lon="10.088700">
        <ele>563.538062</ele>
        <time>2020-09-10T07:00:46.797Z</time>
      </trkpt>
      <trkpt lat="48.677082" lon="10.088870">
        <ele>563.569054</ele>
        <time>2020-09-10T07:00:48.792Z</time>
      </trkpt>
      <trkpt lat="48.677157" lon="10.089027">
        <ele>563.599268</ele>
        <time>2020-09-10T07:00:50.811Z</time>
      </trkpt>
      <trkpt lat="48.677219" lon="10.089199">
        <ele>563.629823</ele>
        <time>2020-09-10T07:00:52.798Z</time>
      </trkpt>
      <trkpt lat="48.677275" lon="10.089369">
        <ele>563.659445</ele>
        <time>2020-09-10T07:00:54.799Z</time>
      </trkpt>
      <trkpt lat="48.677326" lon="10.089524">
        <ele>563.686448</ele>
        <time>2020-09-10T07:00:56.787Z</time>
      </trkpt>
      <trkpt lat="48.677394" lon="10.089685">
        <ele>563.716247</ele>
        <time>2020-09-10T07:00:58.788Z</time>
      </trkpt>
      <trkpt lat="48.677454" lon="10.089850">
        <ele>563.745618</ele>
        <time>2020-09-10T07:01:00.784Z</time>
      </trkpt>
      <trkpt lat="48.677525" lon="10.090019">
        <ele>563.776850</ele>
        <time>2020-09-10T07:01:02.785Z</time>
      </trkpt>
      <trkpt lat="48.677588" lon="10.090186">
        <ele>563.740044</ele>
        <time>2020-09-10T07:01:04.781Z</time>
      </trkpt>
      <trkpt lat="48.677646" lon="10.090367">
        <ele>563.583194</ele>
        <time>2020-09-10T07:01:06.791Z</time>
      </trkpt>
      <trkpt lat="48.677710" lon="10.090548">
        <ele>563.423125</ele>
        <time>2020-09-10T07:01:08.779Z</time>
      </trkpt>
      <trkpt lat="48.677757" lon="10.090718">
        <ele>563.279442</ele>
        <time>2020-09-10T07:01:10.789Z</time>
      </trkpt>
      <trkpt lat="48.677809" lon="10.090898">
        <ele>563.126269</ele>
        <time>2020-09-10T07:01:12.791Z</time>
      </trkpt>
      <trkpt lat="48.677859" lon="10.091077">
        <ele>562.974745</ele>
        <time>2020-09-10T07:01:14.783Z</time>
      </trkpt>
      <trkpt lat="48.677912" lon="10.091256">
        <ele>562.821807</ele>
        <time>2020-09-10T07:01:16.783Z</time>
      </trkpt>
      <trkpt lat="48.677963" lon="10.091435">
        <ele>562.669819</ele>
        <time>2020-09-10T07:01:18.820Z</time>
      </trkpt>
      <trkpt lat="48.677998" lon="10.091635">
        <ele>562.508515</ele>
        <time>2020-09-10T07:01:20.771Z</time>
      </trkpt>
      <trkpt lat="48.678030" lon="10.091837">
        <ele>562.346565</ele>
        <time>2020-09-10T07:01:22.783Z</time>
      </trkpt>
      <trkpt lat="48.678055" lon="10.092038">
        <ele>562.187108</ele>
        <time>2020-09-10T07:01:24.787Z</time>
      </trkpt>
      <trkpt lat="48.678082" lon="10.092244">
        <ele>562.023375</ele>
        <time>2020-09-10T07:01:26.789Z</time>
      </trkpt>
      <trkpt lat="48.678108" lon="10.092451">
        <ele>561.859103</ele>
        <time>2020-09-10T07:01:28.783Z</time>
      </trkpt>
      <trkpt lat="48.678132" lon="10.092667">
        <ele>561.688341</ele>
        <time>2020-09-10T07:01:30.785Z</time>
      </trkpt>
      <trkpt lat="48.678158" lon="10.092887">
        <ele>561.599773</ele>
        <time>2020-09-10T07:01:32.785Z</time>
      </trkpt>
      <trkpt lat="48.678189" lon="10.093097">
        <ele>561.523014</ele>
        <time>2020-09-10T07:01:34.789Z</time>
      </trkpt>
      <trkpt lat="48.678218" lon="10.093303">
        <ele>561.447879</ele>
        <time>2020-09-10T07:01:36.789Z</time>
      </trkpt>
      <trkpt lat="48.678245" lon="10.093512">
        <ele>561.371912</ele>
        <time>2020-09-10T07:01:38.785Z</time>
      </trkpt>
      <trkpt lat="48.678269" lon="10.093710">
        <ele>561.300102</ele>
        <time>2020-09-10T07:01:40.794Z</time>
      </trkpt>
      <trkpt lat="48.678292" lon="10.093918">
        <ele>561.224872</ele>
        <time>2020-09-10T07:01:42.794Z</time>
      </trkpt>
      <trkpt lat="48.678301" lon="10.094122">
        <ele>561.151940</ele>
        <time>2020-09-10T07:01:44.802Z</time>
      </trkpt>
      <trkpt lat="48.678314" lon="10.094332">
        <ele>561.076701</ele>
        <time>2020-09-10T07:01:46.787Z</time>
      </trkpt>
      <trkpt lat="48.678336" lon="10.094541">
        <ele>561.001206</ele>
        <time>2020-09-10T07:01:48.795Z</time>
      </trkpt>
      <trkpt lat="48.678353" lon="10.094755">
        <ele>560.924319</ele>
        <time>2020-09-10T07:01:50.797Z</time>
      </trkpt>
      <trkpt lat="48.678366" lon="10.094968">
        <ele>560.848015</ele>
        <time>2020-09-10T07:01:52.797Z</time>
      </trkpt>
      <trkpt lat="48.678380" lon="10.095180">
        <ele>560.772014</ele>
        <time>2020-09-10T07:01:54.767Z</time>
      </trkpt>
      <trkpt lat="48.678390" lon="10.095392">
        <ele>560.698555</ele>
        <time>2020-09-10T07:01:56.793Z</time>
      </trkpt>
      <trkpt lat="48.678399" lon="10.095604">
        <ele>560.665944</ele>
        <time>2020-09-10T07:01:58.789Z</time>
      </trkpt>
      <trkpt lat="48.678404" lon="10.095818">
        <ele>560.633074</ele>
        <time>2020-09-10T07:02:00.789Z</time>
      </trkpt>
      <trkpt lat="48.678395" lon="10.096035">
        <ele>560.599697</ele>
        <time>2020-09-10T07:02:02.792Z</time>
      </trkpt>
      <trkpt lat="48.678405" lon="10.096247">
        <ele>560.567071</ele>
        <time>2020-09-10T07:02:04.791Z</time>
      </trkpt>
      <trkpt lat="48.678419" lon="10.096462">
        <ele>560.533907</ele>
        <time>2020-09-10T07:02:06.787Z</time>
      </trkpt>
      <trkpt lat="48.678426" lon="10.096664">
        <ele>560.502856</ele>
        <time>2020-09-10T07:02:08.791Z</time>
      </trkpt>
      <trkpt lat="48.678444" lon="10.096876">
        <ele>560.470045</ele>
        <time>2020-09-10T07:02:10.795Z</time>
      </trkpt>
      <trkpt lat="48.678465" lon="10.097096">
        <ele>560.435923</ele>
        <time>2020-09-10T07:02:12.790Z</time>
      </trkpt>
      <trkpt lat="48.678474" lon="10.097300">
        <ele>560.404538</ele>
        <time>2020-09-10T07:02:14.785Z</time>
      </trkpt>
      <trkpt lat="48.678480" lon="10.097482">
        <ele>560.376565</ele>
        <time>2020-09-10T07:02:16.790Z</time>
      </trkpt>
      <trkpt lat="48.678476" lon="10.097669">
        <ele>560.347845</ele>
        <time>2020-09-10T07:02:18.786Z</time>
      </trkpt>
      <trkpt lat="48.678477" lon="10.097853">
        <ele>560.319599</ele>
        <time>2020-09-10T07:02:20.790Z</time>
      </trkpt>
      <trkpt lat="48.678472" lon="10.098029">
        <ele>560.292557</ele>
        <time>2020-09-10T07:02:22.796Z</time>
      </trkpt>
      <trkpt lat="48.678479" lon="10.098228">
        <ele>560.299063</ele>
        <time>2020-09-10T07:02:24.805Z</time>
      </trkpt>
      <trkpt lat="48.678486" lon="10.098417">
        <ele>560.323336</ele>
        <time>2020-09-10T07:02:26.790Z</time>
      </trkpt>
      <trkpt lat="48.678497" lon="10.098596">
        <ele>560.346387</ele>
        <time>2020-09-10T07:02:28.791Z</time>
      </trkpt>
      <trkpt lat="48.678500" lon="10.098776">
        <ele>560.369475</ele>
        <time>2020-09-10T07:02:30.794Z</time>
      </trkpt>
      <trkpt lat="48.678491" lon="10.098956">
        <ele>560.392622</ele>
        <time>2020-09-10T07:02:32.791Z</time>
      </trkpt>
      <trkpt lat="48.678497" lon="10.099131">
        <ele>560.415091</ele>
        <time>2020-09-10T07:02:34.790Z</time>
      </trkpt>
      <trkpt lat="48.678502" lon="10.099306">
        <ele>560.437551</ele>
        <time>2020-09-10T07:02:36.798Z</time>
      </trkpt>
      <trkpt lat="48.678500" lon="10.099459">
        <ele>560.457174</ele>
        <time>2020-09-10T07:02:38.790Z</time>
      </trkpt>
      <trkpt lat="48.678502" lon="10.099621">
        <ele>560.477950</ele>
        <time>2020-09-10T07:02:40.782Z</time>
      </trkpt>
      <trkpt lat="48.678501" lon="10.099784">
        <ele>560.498851</ele>
        <time>2020-09-10T07:02:42.787Z</time>
      </trkpt>
      <trkpt lat="48.678495" lon="10.099956">
        <ele>560.520936</ele>
        <time>2020-09-10T07:02:44.794Z</time>
      </trkpt>
      <trkpt lat="48.678503" lon="10.100146">
        <ele>560.545349</ele>
        <time>2020-09-10T07:02:46.792Z</time>
      </trkpt>
      <trkpt lat="48.678511" lon="10.100345">
        <ele>560.570912</ele>
        <time>2020-09-10T07:02:48.789Z</time>
      </trkpt>
      <trkpt lat="48.678511" lon="10.100570">
        <ele>560.599763</ele>
        <time>2020-09-10T07:02:50.792Z</time>
      </trkpt>
      <trkpt lat="48.678508" lon="10.100765">
        <ele>560.624773</ele>
        <time>2020-09-10T07:02:52.791Z</time>
      </trkpt>
      <trkpt lat="48.678498" lon="10.100938">
        <ele>560.562020</ele>
        <time>2020-09-10T07:02:54.797Z</time>
      </trkpt>
      <trkpt lat="48.678458" lon="10.101082">
        <ele>560.472687</ele>
        <time>2020-09-10T07:02:56.790Z</time>
      </trkpt>
      <trkpt lat="48.678403" lon="10.101207">
        <ele>560.386791</ele>
        <time>2020-09-10T07:02:58.795Z</time>
      </trkpt>
      <trkpt lat="48.678344" lon="10.101330">
        <ele>560.299855</ele>
        <time>2020-09-10T07:03:00.794Z</time>
      </trkpt>
      <trkpt lat="48.678273" lon="10.101499">
        <ele>560.185312</ele>
        <time>2020-09-10T07:03:03.784Z</time>
      </trkpt>
      <trkpt lat="48.678196" lon="10.101641">
        <ele>560.080239</ele>
        <time>2020-09-10T07:03:06.772Z</time>
      </trkpt>
      <trkpt lat="48.678152" lon="10.101810">
        <ele>559.976358</ele>
        <time>2020-09-10T07:03:09.763Z</time>
      </trkpt>
      <trkpt lat="48.678158" lon="10.101951">
        <ele>559.895562</ele>
        <time>2020-09-10T07:03:11.779Z</time>
      </trkpt>
      <trkpt lat="48.678202" lon="10.102087">
        <ele>559.808958</ele>
        <time>2020-09-10T07:03:13.782Z</time>
      </trkpt>
      <trkpt lat="48.678257" lon="10.102234">
        <ele>559.712341</ele>
        <time>2020-09-10T07:03:15.782Z</time>
      </trkpt>
      <trkpt lat="48.678316" lon="10.102402">
        <ele>559.603530</ele>
        <time>2020-09-10T07:03:17.787Z</time>
      </trkpt>
      <trkpt lat="48.678369" lon="10.102592">
        <ele>559.485584</ele>
        <time>2020-09-10T07:03:19.781Z</time>
      </trkpt>
      <trkpt lat="48.678428" lon="10.102802">
        <ele>559.355081</ele>
        <time>2020-09-10T07:03:21.784Z</time>
      </trkpt>
      <trkpt lat="48.678458" lon="10.103015">
        <ele>559.230541</ele>
        <time>2020-09-10T07:03:23.784Z</time>
      </trkpt>
      <trkpt lat="48.678464" lon="10.103228">
        <ele>559.108630</ele>
        <time>2020-09-10T07:03:25.780Z</time>
      </trkpt>
      <trkpt lat="48.678469" lon="10.103464">
        <ele>558.876005</ele>
        <time>2020-09-10T07:03:27.784Z</time>
      </trkpt>
      <trkpt lat="48.678472" lon="10.103702">
        <ele>558.607248</ele>
        <time>2020-09-10T07:03:29.783Z</time>
      </trkpt>
      <trkpt lat="48.678473" lon="10.103950">
        <ele>558.327244</ele>
        <time>2020-09-10T07:03:31.784Z</time>
      </trkpt>
      <trkpt lat="48.678479" lon="10.104174">
        <ele>558.074134</ele>
        <time>2020-09-10T07:03:33.804Z</time>
      </trkpt>
      <trkpt lat="48.678480" lon="10.104399">
        <ele>557.820097</ele>
        <time>2020-09-10T07:03:35.786Z</time>
      </trkpt>
      <trkpt lat="48.678483" lon="10.104610">
        <ele>557.581818</ele>
        <time>2020-09-10T07:03:37.795Z</time>
      </trkpt>
      <trkpt lat="48.678470" lon="10.104809">
        <ele>557.356045</ele>
        <time>2020-09-10T07:03:39.800Z</time>
      </trkpt>
      <trkpt lat="48.678433" lon="10.105003">
        <ele>557.128059</ele>
        <time>2020-09-10T07:03:41.787Z</time>
      </trkpt>
      <trkpt lat="48.678414" lon="10.105203">
        <ele>556.899929</ele>
        <time>2020-09-10T07:03:43.791Z</time>
      </trkpt>
      <trkpt lat="48.678402" lon="10.105405">
        <ele>556.670944</ele>
        <time>2020-09-10T07:03:45.808Z</time>
      </trkpt>
      <trkpt lat="48.678392" lon="10.105607">
        <ele>556.442240</ele>
        <time>2020-09-10T07:03:47.787Z</time>
      </trkpt>
      <trkpt lat="48.678387" lon="10.105823">
        <ele>556.198220</ele>
        <time>2020-09-10T07:03:49.788Z</time>
      </trkpt>
      <trkpt lat="48.678380" lon="10.106026">
        <ele>555.990007</ele>
        <time>2020-09-10T07:03:51.792Z</time>
      </trkpt>
      <trkpt lat="48.678370" lon="10.106224">
        <ele>555.927401</ele>
        <time>2020-09-10T07:03:53.782Z</time>
      </trkpt>
      <trkpt lat="48.678367" lon="10.106427">
        <ele>555.863384</ele>
        <time>2020-09-10T07:03:55.796Z</time>
      </trkpt>
      <trkpt lat="48.678361" lon="10.106625">
        <ele>555.800895</ele>
        <time>2020-09-10T07:03:57.768Z</time>
      </trkpt>
      <trkpt lat="48.678362" lon="10.106821">
        <ele>555.739099</ele>
        <time>2020-09-10T07:03:59.791Z</time>
      </trkpt>
      <trkpt lat="48.678360" lon="10.107029">
        <ele>555.673516</ele>
        <time>2020-09-10T07:04:01.779Z</time>
      </trkpt>
      <trkpt lat="48.678354" lon="10.107242">
        <ele>555.606301</ele>
        <time>2020-09-10T07:04:03.767Z</time>
      </trkpt>
      <trkpt lat="48.678365" lon="10.107448">
        <ele>555.541143</ele>
        <time>2020-09-10T07:04:05.789Z</time>
      </trkpt>
      <trkpt lat="48.678373" lon="10.107657">
        <ele>555.475141</ele>
        <time>2020-09-10T07:04:07.791Z</time>
      </trkpt>
      <trkpt lat="48.678379" lon="10.107871">
        <ele>555.407611</ele>
        <time>2020-09-10T07:04:09.791Z</time>
      </trkpt>
      <trkpt lat="48.678393" lon="10.108084">
        <ele>555.340126</ele>
        <time>2020-09-10T07:04:11.794Z</time>
      </trkpt>
      <trkpt lat="48.678407" lon="10.108314">
        <ele>555.267306</ele>
        <time>2020-09-10T07:04:13.798Z</time>
      </trkpt>
      <trkpt lat="48.678417" lon="10.108532">
        <ele>555.198411</ele>
        <time>2020-09-10T07:04:15.772Z</time>
      </trkpt>
      <trkpt lat="48.678431" lon="10.108737">
        <ele>555.129019</ele>
        <time>2020-09-10T07:04:17.793Z</time>
      </trkpt>
      <trkpt lat="48.678445" lon="10.108938">
        <ele>555.018434</ele>
        <time>2020-09-10T07:04:19.803Z</time>
      </trkpt>
      <trkpt lat="48.678453" lon="10.109146">
        <ele>554.904437</ele>
        <time>2020-09-10T07:04:21.798Z</time>
      </trkpt>
      <trkpt lat="48.678471" lon="10.109363">
        <ele>554.784775</ele>
        <time>2020-09-10T07:04:23.794Z</time>
      </trkpt>
      <trkpt lat="48.678489" lon="10.109582">
        <ele>554.664027</ele>
        <time>2020-09-10T07:04:25.787Z</time>
      </trkpt>
      <trkpt lat="48.678497" lon="10.109788">
        <ele>554.551122</ele>
        <time>2020-09-10T07:04:27.796Z</time>
      </trkpt>
      <trkpt lat="48.678505" lon="10.109998">
        <ele>554.436032</ele>
        <time>2020-09-10T07:04:29.794Z</time>
      </trkpt>
      <trkpt lat="48.678507" lon="10.110211">
        <ele>554.319481</ele>
        <time>2020-09-10T07:04:31.795Z</time>
      </trkpt>
      <trkpt lat="48.678503" lon="10.110431">
        <ele>554.199065</ele>
        <time>2020-09-10T07:04:33.789Z</time>
      </trkpt>
      <trkpt lat="48.678494" lon="10.110640">
        <ele>554.084470</ele>
        <time>2020-09-10T07:04:35.790Z</time>
      </trkpt>
      <trkpt lat="48.678483" lon="10.110855">
        <ele>553.966483</ele>
        <time>2020-09-10T07:04:37.790Z</time>
      </trkpt>
      <trkpt lat="48.678466" lon="10.111069">
        <ele>553.848552</ele>
        <time>2020-09-10T07:04:39.793Z</time>
      </trkpt>
      <trkpt lat="48.678451" lon="10.111281">
        <ele>553.731895</ele>
        <time>2020-09-10T07:04:41.806Z</time>
      </trkpt>
      <trkpt lat="48.678433" lon="10.111488">
        <ele>553.637036</ele>
        <time>2020-09-10T07:04:43.788Z</time>
      </trkpt>
      <trkpt lat="48.678407" lon="10.111683">
        <ele>553.595451</ele>
        <time>2020-09-10T07:04:45.798Z</time>
      </trkpt>
      <trkpt lat="48.678372" lon="10.111888">
        <ele>553.551190</ele>
        <time>2020-09-10T07:04:47.786Z</time>
      </trkpt>
      <trkpt lat="48.678342" lon="10.112091">
        <ele>553.507706</ele>
        <time>2020-09-10T07:04:49.784Z</time>
      </trkpt>
      <trkpt lat="48.678314" lon="10.112290">
        <ele>553.465174</ele>
        <time>2020-09-10T07:04:51.785Z</time>
      </trkpt>
      <trkpt lat="48.678280" lon="10.112481">
        <ele>553.423822</ele>
        <time>2020-09-10T07:04:53.790Z</time>
      </trkpt>
      <trkpt lat="48.678246" lon="10.112687">
        <ele>553.379436</ele>
        <time>2020-09-10T07:04:55.794Z</time>
      </trkpt>
      <trkpt lat="48.678213" lon="10.112882">
        <ele>553.337357</ele>
        <time>2020-09-10T07:04:57.789Z</time>
      </trkpt>
      <trkpt lat="48.678178" lon="10.113094">
        <ele>553.291677</ele>
        <time>2020-09-10T07:04:59.798Z</time>
      </trkpt>
      <trkpt lat="48.678147" lon="10.113304">
        <ele>553.246696</ele>
        <time>2020-09-10T07:05:01.782Z</time>
      </trkpt>
      <trkpt lat="48.678118" lon="10.113516">
        <ele>553.201439</ele>
        <time>2020-09-10T07:05:03.782Z</time>
      </trkpt>
      <trkpt lat="48.678093" lon="10.113726">
        <ele>553.156834</ele>
        <time>2020-09-10T07:05:05.792Z</time>
      </trkpt>
      <trkpt lat="48.678063" lon="10.113930">
        <ele>553.113146</ele>
        <time>2020-09-10T07:05:07.782Z</time>
      </trkpt>
      <trkpt lat="48.678039" lon="10.114130">
        <ele>553.063401</ele>
        <time>2020-09-10T07:05:09.784Z</time>
      </trkpt>
      <trkpt lat="48.678013" lon="10.114334">
        <ele>552.984748</ele>
        <time>2020-09-10T07:05:11.795Z</time>
      </trkpt>
      <trkpt lat="48.678008" lon="10.114533">
        <ele>552.909358</ele>
        <time>2020-09-10T07:05:13.784Z</time>
      </trkpt>
      <trkpt lat="48.678015" lon="10.114726">
        <ele>552.836183</ele>
        <time>2020-09-10T07:05:15.791Z</time>
      </trkpt>
      <trkpt lat="48.678020" lon="10.114928">
        <ele>552.759658</ele>
        <time>2020-09-10T07:05:17.796Z</time>
      </trkpt>
      <trkpt lat="48.678036" lon="10.115144">
        <ele>552.677374</ele>
        <time>2020-09-10T07:05:19.788Z</time>
      </trkpt>
      <trkpt lat="48.678051" lon="10.115349">
        <ele>552.599292</ele>
        <time>2020-09-10T07:05:21.782Z</time>
      </trkpt>
      <trkpt lat="48.678063" lon="10.115558">
        <ele>552.519873</ele>
        <time>2020-09-10T07:05:23.780Z</time>
      </trkpt>
      <trkpt lat="48.678076" lon="10.115764">
        <ele>552.441532</ele>
        <time>2020-09-10T07:05:25.784Z</time>
      </trkpt>
      <trkpt lat="48.678083" lon="10.115979">
        <ele>552.360040</ele>
        <time>2020-09-10T07:05:27.782Z</time>
      </trkpt>
      <trkpt lat="48.678100" lon="10.116183">
        <ele>552.282200</ele>
        <time>2020-09-10T07:05:29.788Z</time>
      </trkpt>
      <trkpt lat="48.678121" lon="10.116383">
        <ele>552.205534</ele>
        <time>2020-09-10T07:05:31.784Z</time>
      </trkpt>
      <trkpt lat="48.678148" lon="10.116575">
        <ele>552.131219</ele>
        <time>2020-09-10T07:05:33.800Z</time>
      </trkpt>
      <trkpt lat="48.678173" lon="10.116764">
        <ele>552.058248</ele>
        <time>2020-09-10T07:05:35.788Z</time>
      </trkpt>
      <trkpt lat="48.678199" lon="10.116959">
        <ele>552.100474</ele>
        <time>2020-09-10T07:05:37.786Z</time>
      </trkpt>
      <trkpt lat="48.678224" lon="10.117151">
        <ele>552.159483</ele>
        <time>2020-09-10T07:05:39.805Z</time>
      </trkpt>
      <trkpt lat="48.678261" lon="10.117345">
        <ele>552.220371</ele>
        <time>2020-09-10T07:05:41.789Z</time>
      </trkpt>
      <trkpt lat="48.678291" lon="10.117544">
        <ele>552.281919</ele>
        <time>2020-09-10T07:05:43.789Z</time>
      </trkpt>
      <trkpt lat="48.678310" lon="10.117743">
        <ele>552.342547</ele>
        <time>2020-09-10T07:05:45.797Z</time>
      </trkpt>
      <trkpt lat="48.678335" lon="10.117942">
        <ele>552.403628</ele>
        <time>2020-09-10T07:05:47.785Z</time>
      </trkpt>
      <trkpt lat="48.678349" lon="10.118138">
        <ele>552.463072</ele>
        <time>2020-09-10T07:05:49.800Z</time>
      </trkpt>
      <trkpt lat="48.678364" lon="10.118310">
        <ele>552.515386</ele>
        <time>2020-09-10T07:05:51.799Z</time>
      </trkpt>
      <trkpt lat="48.678368" lon="10.118446">
        <ele>552.556434</ele>
        <time>2020-09-10T07:05:53.791Z</time>
      </trkpt>
      <trkpt lat="48.678385" lon="10.118598">
        <ele>552.602920</ele>
        <time>2020-09-10T07:05:59.789Z</time>
      </trkpt>
      <trkpt lat="48.678434" lon="10.118747">
        <ele>552.653111</ele>
        <time>2020-09-10T07:06:03.787Z</time>
      </trkpt>
      <trkpt lat="48.678436" lon="10.118955">
        <ele>552.715836</ele>
        <time>2020-09-10T07:06:06.787Z</time>
      </trkpt>
      <trkpt lat="48.678430" lon="10.119123">
        <ele>552.766567</ele>
        <time>2020-09-10T07:06:08.793Z</time>
      </trkpt>
      <trkpt lat="48.678448" lon="10.119296">
        <ele>552.819375</ele>
        <time>2020-09-10T07:06:10.789Z</time>
      </trkpt>
      <trkpt lat="48.678462" lon="10.119476">
        <ele>552.867127</ele>
        <time>2020-09-10T07:06:12.780Z</time>
      </trkpt>
      <trkpt lat="48.678483" lon="10.119658">
        <ele>552.833195</ele>
        <time>2020-09-10T07:06:14.793Z</time>
      </trkpt>
      <trkpt lat="48.678497" lon="10.119853">
        <ele>552.797172</ele>
        <time>2020-09-10T07:06:16.788Z</time>
      </trkpt>
      <trkpt lat="48.678509" lon="10.120044">
        <ele>552.761935</ele>
        <time>2020-09-10T07:06:18.792Z</time>
      </trkpt>
      <trkpt lat="48.678518" lon="10.120239">
        <ele>552.726035</ele>
        <time>2020-09-10T07:06:20.793Z</time>
      </trkpt>
      <trkpt lat="48.678535" lon="10.120433">
        <ele>552.690094</ele>
        <time>2020-09-10T07:06:22.791Z</time>
      </trkpt>
      <trkpt lat="48.678544" lon="10.120624">
        <ele>552.654927</ele>
        <time>2020-09-10T07:06:24.789Z</time>
      </trkpt>
      <trkpt lat="48.678555" lon="10.120804">
        <ele>552.621728</ele>
        <time>2020-09-10T07:06:26.792Z</time>
      </trkpt>
      <trkpt lat="48.678567" lon="10.120990">
        <ele>552.587406</ele>
        <time>2020-09-10T07:06:28.791Z</time>
      </trkpt>
      <trkpt lat="48.678579" lon="10.121171">
        <ele>552.553997</ele>
        <time>2020-09-10T07:06:30.788Z</time>
      </trkpt>
      <trkpt lat="48.678589" lon="10.121344">
        <ele>552.522103</ele>
        <time>2020-09-10T07:06:32.790Z</time>
      </trkpt>
      <trkpt lat="48.678606" lon="10.121521">
        <ele>552.489255</ele>
        <time>2020-09-10T07:06:34.792Z</time>
      </trkpt>
      <trkpt lat="48.678624" lon="10.121712">
        <ele>552.453821</ele>
        <time>2020-09-10T07:06:36.789Z</time>
      </trkpt>
      <trkpt lat="48.678646" lon="10.121916">
        <ele>552.415859</ele>
        <time>2020-09-10T07:06:38.789Z</time>
      </trkpt>
      <trkpt lat="48.678664" lon="10.122109">
        <ele>552.380062</ele>
        <time>2020-09-10T07:06:40.791Z</time>
      </trkpt>
      <trkpt lat="48.678685" lon="10.122300">
        <ele>552.338246</ele>
        <time>2020-09-10T07:06:42.823Z</time>
      </trkpt>
      <trkpt lat="48.678700" lon="10.122483">
        <ele>552.295889</ele>
        <time>2020-09-10T07:06:44.793Z</time>
      </trkpt>
      <trkpt lat="48.678713" lon="10.122685">
        <ele>552.249271</ele>
        <time>2020-09-10T07:06:46.790Z</time>
      </trkpt>
      <trkpt lat="48.678722" lon="10.122883">
        <ele>552.203684</ele>
        <time>2020-09-10T07:06:48.801Z</time>
      </trkpt>
      <trkpt lat="48.678738" lon="10.123088">
        <ele>552.156269</ele>
        <time>2020-09-10T07:06:50.797Z</time>
      </trkpt>
      <trkpt lat="48.678764" lon="10.123278">
        <ele>552.111700</ele>
        <time>2020-09-10T07:06:52.795Z</time>
      </trkpt>
      <trkpt lat="48.678788" lon="10.123460">
        <ele>552.069070</ele>
        <time>2020-09-10T07:06:54.808Z</time>
      </trkpt>
      <trkpt lat="48.678811" lon="10.123638">
        <ele>552.027409</ele>
        <time>2020-09-10T07:06:56.795Z</time>
      </trkpt>
      <trkpt lat="48.678831" lon="10.123820">
        <ele>551.985029</ele>
        <time>2020-09-10T07:06:58.771Z</time>
      </trkpt>
      <trkpt lat="48.678857" lon="10.123986">
        <ele>551.945842</ele>
        <time>2020-09-10T07:07:00.796Z</time>
      </trkpt>
      <trkpt lat="48.678884" lon="10.124158">
        <ele>551.905234</ele>
        <time>2020-09-10T07:07:02.790Z</time>
      </trkpt>
      <trkpt lat="48.678905" lon="10.124337">
        <ele>551.863475</ele>
        <time>2020-09-10T07:07:04.791Z</time>
      </trkpt>
      <trkpt lat="48.678927" lon="10.124521">
        <ele>551.820524</ele>
        <time>2020-09-10T07:07:06.794Z</time>
      </trkpt>
      <trkpt lat="48.678962" lon="10.124713">
        <ele>551.774773</ele>
        <time>2020-09-10T07:07:08.781Z</time>
      </trkpt>
      <trkpt lat="48.678993" lon="10.124904">
        <ele>551.718522</ele>
        <time>2020-09-10T07:07:10.778Z</time>
      </trkpt>
      <trkpt lat="48.679018" lon="10.125086">
        <ele>551.642428</ele>
        <time>2020-09-10T07:07:12.781Z</time>
      </trkpt>
      <trkpt lat="48.679042" lon="10.125263">
        <ele>551.568464</ele>
        <time>2020-09-10T07:07:14.781Z</time>
      </trkpt>
      <trkpt lat="48.679065" lon="10.125419">
        <ele>551.503035</ele>
        <time>2020-09-10T07:07:16.796Z</time>
      </trkpt>
      <trkpt lat="48.679083" lon="10.125564">
        <ele>551.442642</ele>
        <time>2020-09-10T07:07:18.785Z</time>
      </trkpt>
      <trkpt lat="48.679108" lon="10.125717">
        <ele>551.378125</ele>
        <time>2020-09-10T07:07:20.788Z</time>
      </trkpt>
      <trkpt lat="48.679135" lon="10.125879">
        <ele>551.309733</ele>
        <time>2020-09-10T07:07:22.802Z</time>
      </trkpt>
      <trkpt lat="48.679160" lon="10.126060">
        <ele>551.234041</ele>
        <time>2020-09-10T07:07:24.782Z</time>
      </trkpt>
      <trkpt lat="48.679189" lon="10.126250">
        <ele>551.154217</ele>
        <time>2020-09-10T07:07:26.779Z</time>
      </trkpt>
      <trkpt lat="48.679215" lon="10.126437">
        <ele>551.075993</ele>
        <time>2020-09-10T07:07:28.787Z</time>
      </trkpt>
      <trkpt lat="48.679247" lon="10.126619">
        <ele>550.998898</ele>
        <time>2020-09-10T07:07:30.787Z</time>
      </trkpt>
      <trkpt lat="48.679273" lon="10.126798">
        <ele>550.923876</ele>
        <time>2020-09-10T07:07:32.784Z</time>
      </trkpt>
      <trkpt lat="48.679289" lon="10.126962">
        <ele>550.856017</ele>
        <time>2020-09-10T07:07:34.789Z</time>
      </trkpt>
      <trkpt lat="48.679331" lon="10.127089">
        <ele>550.797876</ele>
        <time>2020-09-10T07:07:36.786Z</time>
      </trkpt>
      <trkpt lat="48.679391" lon="10.127206">
        <ele>550.737236</ele>
        <time>2020-09-10T07:07:40.781Z</time>
      </trkpt>
      <trkpt lat="48.679407" lon="10.127350">
        <ele>550.677464</ele>
        <time>2020-09-10T07:07:44.781Z</time>
      </trkpt>
      <trkpt lat="48.679450" lon="10.127486">
        <ele>550.592392</ele>
        <time>2020-09-10T07:07:47.785Z</time>
      </trkpt>
      <trkpt lat="48.679511" lon="10.127651">
        <ele>550.375518</ele>
        <time>2020-09-10T07:07:50.784Z</time>
      </trkpt>
      <trkpt lat="48.679531" lon="10.127821">
        <ele>550.177482</ele>
        <time>2020-09-10T07:07:53.779Z</time>
      </trkpt>
      <trkpt lat="48.679556" lon="10.127961">
        <ele>550.011155</ele>
        <time>2020-09-10T07:07:55.787Z</time>
      </trkpt>
      <trkpt lat="48.679569" lon="10.128116">
        <ele>549.831965</ele>
        <time>2020-09-10T07:07:57.787Z</time>
      </trkpt>
      <trkpt lat="48.679576" lon="10.128278">
        <ele>549.645778</ele>
        <time>2020-09-10T07:07:59.790Z</time>
      </trkpt>
      <trkpt lat="48.679577" lon="10.128431">
        <ele>549.470301</ele>
        <time>2020-09-10T07:08:01.790Z</time>
      </trkpt>
      <trkpt lat="48.679570" lon="10.128597">
        <ele>549.279536</ele>
        <time>2020-09-10T07:08:03.784Z</time>
      </trkpt>
      <trkpt lat="48.679577" lon="10.128774">
        <ele>549.076180</ele>
        <time>2020-09-10T07:08:05.786Z</time>
      </trkpt>
      <trkpt lat="48.679592" lon="10.128946">
        <ele>548.877208</ele>
        <time>2020-09-10T07:08:07.785Z</time>
      </trkpt>
      <trkpt lat="48.679601" lon="10.129115">
        <ele>548.682762</ele>
        <time>2020-09-10T07:08:09.785Z</time>
      </trkpt>
      <trkpt lat="48.679603" lon="10.129300">
        <ele>548.470566</ele>
        <time>2020-09-10T07:08:11.785Z</time>
      </trkpt>
      <trkpt lat="48.679601" lon="10.129492">
        <ele>548.250344</ele>
        <time>2020-09-10T07:08:13.790Z</time>
      </trkpt>
      <trkpt lat="48.679566" lon="10.129651">
        <ele>548.058128</ele>
        <time>2020-09-10T07:08:15.794Z</time>
      </trkpt>
      <trkpt lat="48.679502" lon="10.129773">
        <ele>547.879427</ele>
        <time>2020-09-10T07:08:17.793Z</time>
      </trkpt>
      <trkpt lat="48.679430" lon="10.129898">
        <ele>547.689187</ele>
        <time>2020-09-10T07:08:19.792Z</time>
      </trkpt>
      <trkpt lat="48.679371" lon="10.130037">
        <ele>547.506579</ele>
        <time>2020-09-10T07:08:21.793Z</time>
      </trkpt>
      <trkpt lat="48.679336" lon="10.130205">
        <ele>547.590014</ele>
        <time>2020-09-10T07:08:23.792Z</time>
      </trkpt>
      <trkpt lat="48.679331" lon="10.130385">
        <ele>547.675342</ele>
        <time>2020-09-10T07:08:25.800Z</time>
      </trkpt>
      <trkpt lat="48.679332" lon="10.130558">
        <ele>547.757282</ele>
        <time>2020-09-10T07:08:27.787Z</time>
      </trkpt>
      <trkpt lat="48.679326" lon="10.130735">
        <ele>547.841224</ele>
        <time>2020-09-10T07:08:29.791Z</time>
      </trkpt>
      <trkpt lat="48.679310" lon="10.130901">
        <ele>547.920679</ele>
        <time>2020-09-10T07:08:31.802Z</time>
      </trkpt>
      <trkpt lat="48.679283" lon="10.131057">
        <ele>547.997061</ele>
        <time>2020-09-10T07:08:33.782Z</time>
      </trkpt>
      <trkpt lat="48.679247" lon="10.131208">
        <ele>548.073098</ele>
        <time>2020-09-10T07:08:35.789Z</time>
      </trkpt>
      <trkpt lat="48.679209" lon="10.131372">
        <ele>548.155416</ele>
        <time>2020-09-10T07:08:37.798Z</time>
      </trkpt>
      <trkpt lat="48.679158" lon="10.131527">
        <ele>548.237439</ele>
        <time>2020-09-10T07:08:39.787Z</time>
      </trkpt>
      <trkpt lat="48.679107" lon="10.131676">
        <ele>548.316928</ele>
        <time>2020-09-10T07:08:41.787Z</time>
      </trkpt>
      <trkpt lat="48.679058" lon="10.131817">
        <ele>548.392394</ele>
        <time>2020-09-10T07:08:43.793Z</time>
      </trkpt>
      <trkpt lat="48.679044" lon="10.131996">
        <ele>548.477766</ele>
        <time>2020-09-10T07:08:45.791Z</time>
      </trkpt>
      <trkpt lat="48.679062" lon="10.132187">
        <ele>548.569146</ele>
        <time>2020-09-10T07:08:47.795Z</time>
      </trkpt>
      <trkpt lat="48.679090" lon="10.132367">
        <ele>548.656733</ele>
        <time>2020-09-10T07:08:49.790Z</time>
      </trkpt>
      <trkpt lat="48.679094" lon="10.132553">
        <ele>548.744874</ele>
        <time>2020-09-10T07:08:51.790Z</time>
      </trkpt>
      <trkpt lat="48.679110" lon="10.132730">
        <ele>548.737677</ele>
        <time>2020-09-10T07:08:53.800Z</time>
      </trkpt>
      <trkpt lat="48.679114" lon="10.132915">
        <ele>548.593585</ele>
        <time>2020-09-10T07:08:55.792Z</time>
      </trkpt>
      <trkpt lat="48.679109" lon="10.133100">
        <ele>548.449451</ele>
        <time>2020-09-10T07:08:57.794Z</time>
      </trkpt>
      <trkpt lat="48.679118" lon="10.133284">
        <ele>548.305823</ele>
        <time>2020-09-10T07:08:59.775Z</time>
      </trkpt>
      <trkpt lat="48.679117" lon="10.133463">
        <ele>548.166475</ele>
        <time>2020-09-10T07:09:01.791Z</time>
      </trkpt>
      <trkpt lat="48.679118" lon="10.133630">
        <ele>548.036467</ele>
        <time>2020-09-10T07:09:03.797Z</time>
      </trkpt>
      <trkpt lat="48.679129" lon="10.133782">
        <ele>547.917434</ele>
        <time>2020-09-10T07:09:05.786Z</time>
      </trkpt>
      <trkpt lat="48.679137" lon="10.133936">
        <ele>547.797181</ele>
        <time>2020-09-10T07:09:07.780Z</time>
      </trkpt>
      <trkpt lat="48.679155" lon="10.134094">
        <ele>547.672368</ele>
        <time>2020-09-10T07:09:09.791Z</time>
      </trkpt>
      <trkpt lat="48.679162" lon="10.134241">
        <ele>547.557639</ele>
        <time>2020-09-10T07:09:11.789Z</time>
      </trkpt>
      <trkpt lat="48.679205" lon="10.134424">
        <ele>547.406430</ele>
        <time>2020-09-10T07:09:14.790Z</time>
      </trkpt>
      <trkpt lat="48.679197" lon="10.134618">
        <ele>547.255116</ele>
        <time>2020-09-10T07:09:17.797Z</time>
      </trkpt>
      <trkpt lat="48.679190" lon="10.134772">
        <ele>547.134950</ele>
        <time>2020-09-10T07:09:19.778Z</time>
      </trkpt>
      <trkpt lat="48.679189" lon="10.134934">
        <ele>547.008835</ele>
        <time>2020-09-10T07:09:21.767Z</time>
      </trkpt>
      <trkpt lat="48.679191" lon="10.135107">
        <ele>546.874142</ele>
        <time>2020-09-10T07:09:23.781Z</time>
      </trkpt>
      <trkpt lat="48.679192" lon="10.135262">
        <ele>546.753476</ele>
        <time>2020-09-10T07:09:25.786Z</time>
      </trkpt>
      <trkpt lat="48.679197" lon="10.135420">
        <ele>546.636959</ele>
        <time>2020-09-10T07:09:27.782Z</time>
      </trkpt>
      <trkpt lat="48.679185" lon="10.135577">
        <ele>546.532500</ele>
        <time>2020-09-10T07:09:29.787Z</time>
      </trkpt>
      <trkpt lat="48.679175" lon="10.135746">
        <ele>546.420354</ele>
        <time>2020-09-10T07:09:31.781Z</time>
      </trkpt>
      <trkpt lat="48.679184" lon="10.135920">
        <ele>546.304999</ele>
        <time>2020-09-10T07:09:33.795Z</time>
      </trkpt>
      <trkpt lat="48.679196" lon="10.136093">
        <ele>546.190029</ele>
        <time>2020-09-10T07:09:35.784Z</time>
      </trkpt>
      <trkpt lat="48.679202" lon="10.136266">
        <ele>546.075530</ele>
        <time>2020-09-10T07:09:37.777Z</time>
      </trkpt>
      <trkpt lat="48.679205" lon="10.136439">
        <ele>545.961149</ele>
        <time>2020-09-10T07:09:39.790Z</time>
      </trkpt>
      <trkpt lat="48.679204" lon="10.136599">
        <ele>545.855395</ele>
        <time>2020-09-10T07:09:41.787Z</time>
      </trkpt>
      <trkpt lat="48.679207" lon="10.136767">
        <ele>545.744317</ele>
        <time>2020-09-10T07:09:43.788Z</time>
      </trkpt>
      <trkpt lat="48.679207" lon="10.136927">
        <ele>545.638568</ele>
        <time>2020-09-10T07:09:45.786Z</time>
      </trkpt>
      <trkpt lat="48.679211" lon="10.137095">
        <ele>545.527459</ele>
        <time>2020-09-10T07:09:47.784Z</time>
      </trkpt>
      <trkpt lat="48.679191" lon="10.137240">
        <ele>545.429555</ele>
        <time>2020-09-10T07:09:49.780Z</time>
      </trkpt>
      <trkpt lat="48.679164" lon="10.137386">
        <ele>545.329345</ele>
        <time>2020-09-10T07:09:51.790Z</time>
      </trkpt>
      <trkpt lat="48.679165" lon="10.137533">
        <ele>545.232183</ele>
        <time>2020-09-10T07:09:53.785Z</time>
      </trkpt>
      <trkpt lat="48.679168" lon="10.137697">
        <ele>545.123748</ele>
        <time>2020-09-10T07:09:55.777Z</time>
      </trkpt>
      <trkpt lat="48.679171" lon="10.137874">
        <ele>545.006724</ele>
        <time>2020-09-10T07:09:57.800Z</time>
      </trkpt>
      <trkpt lat="48.679174" lon="10.138044">
        <ele>544.894326</ele>
        <time>2020-09-10T07:09:59.787Z</time>
      </trkpt>
      <trkpt lat="48.679178" lon="10.138210">
        <ele>544.845924</ele>
        <time>2020-09-10T07:10:01.788Z</time>
      </trkpt>
      <trkpt lat="48.679173" lon="10.138368">
        <ele>544.813315</ele>
        <time>2020-09-10T07:10:03.790Z</time>
      </trkpt>
      <trkpt lat="48.679173" lon="10.138533">
        <ele>544.779300</ele>
        <time>2020-09-10T07:10:06.757Z</time>
      </trkpt>
      <trkpt lat="48.679229" lon="10.138645">
        <ele>544.750339</ele>
        <time>2020-09-10T07:10:11.789Z</time>
      </trkpt>
      <trkpt lat="48.679205" lon="10.138781">
        <ele>544.721319</ele>
        <time>2020-09-10T07:10:40.783Z</time>
      </trkpt>
      <trkpt lat="48.679173" lon="10.138917">
        <ele>544.691555</ele>
        <time>2020-09-10T07:10:43.802Z</time>
      </trkpt>
      <trkpt lat="48.679159" lon="10.139069">
        <ele>544.659917</ele>
        <time>2020-09-10T07:10:46.785Z</time>
      </trkpt>
      <trkpt lat="48.679166" lon="10.139240">
        <ele>544.624598</ele>
        <time>2020-09-10T07:10:49.793Z</time>
      </trkpt>
      <trkpt lat="48.679142" lon="10.139414">
        <ele>544.587954</ele>
        <time>2020-09-10T07:10:52.784Z</time>
      </trkpt>
      <trkpt lat="48.679137" lon="10.139615">
        <ele>544.546489</ele>
        <time>2020-09-10T07:10:55.797Z</time>
      </trkpt>
      <trkpt lat="48.679134" lon="10.139771">
        <ele>544.514316</ele>
        <time>2020-09-10T07:10:57.791Z</time>
      </trkpt>
      <trkpt lat="48.679118" lon="10.139945">
        <ele>544.478100</ele>
        <time>2020-09-10T07:10:59.785Z</time>
      </trkpt>
      <trkpt lat="48.679105" lon="10.140123">
        <ele>544.441182</ele>
        <time>2020-09-10T07:11:01.800Z</time>
      </trkpt>
      <trkpt lat="48.679096" lon="10.140318">
        <ele>544.400885</ele>
        <time>2020-09-10T07:11:03.783Z</time>
      </trkpt>
      <trkpt lat="48.679087" lon="10.140502">
        <ele>544.362850</ele>
        <time>2020-09-10T07:11:05.793Z</time>
      </trkpt>
      <trkpt lat="48.679081" lon="10.140675">
        <ele>544.327137</ele>
        <time>2020-09-10T07:11:07.795Z</time>
      </trkpt>
      <trkpt lat="48.679079" lon="10.140849">
        <ele>544.288340</ele>
        <time>2020-09-10T07:11:09.791Z</time>
      </trkpt>
      <trkpt lat="48.679062" lon="10.141014">
        <ele>544.249107</ele>
        <time>2020-09-10T07:11:11.798Z</time>
      </trkpt>
      <trkpt lat="48.679049" lon="10.141179">
        <ele>544.210067</ele>
        <time>2020-09-10T07:11:13.798Z</time>
      </trkpt>
      <trkpt lat="48.679042" lon="10.141341">
        <ele>544.171926</ele>
        <time>2020-09-10T07:11:15.794Z</time>
      </trkpt>
      <trkpt lat="48.679037" lon="10.141509">
        <ele>544.132417</ele>
        <time>2020-09-10T07:11:17.800Z</time>
      </trkpt>
      <trkpt lat="48.679032" lon="10.141701">
        <ele>544.087274</ele>
        <time>2020-09-10T07:11:19.786Z</time>
      </trkpt>
      <trkpt lat="48.679014" lon="10.141884">
        <ele>544.043807</ele>
        <time>2020-09-10T07:11:21.793Z</time>
      </trkpt>
      <trkpt lat="48.678983" lon="10.142081">
        <ele>543.996228</ele>
        <time>2020-09-10T07:11:23.790Z</time>
      </trkpt>
      <trkpt lat="48.678966" lon="10.142275">
        <ele>543.950251</ele>
        <time>2020-09-10T07:11:25.789Z</time>
      </trkpt>
      <trkpt lat="48.678953" lon="10.142454">
        <ele>543.907943</ele>
        <time>2020-09-10T07:11:27.781Z</time>
      </trkpt>
      <trkpt lat="48.678939" lon="10.142624">
        <ele>543.867695</ele>
        <time>2020-09-10T07:11:29.780Z</time>
      </trkpt>
      <trkpt lat="48.678942" lon="10.142812">
        <ele>543.823514</ele>
        <time>2020-09-10T07:11:33.786Z</time>
      </trkpt>
      <trkpt lat="48.678904" lon="10.143001">
        <ele>543.777098</ele>
        <time>2020-09-10T07:11:36.792Z</time>
      </trkpt>
      <trkpt lat="48.678888" lon="10.143140">
        <ele>543.743949</ele>
        <time>2020-09-10T07:11:38.777Z</time>
      </trkpt>
      <trkpt lat="48.678877" lon="10.143309">
        <ele>543.704053</ele>
        <time>2020-09-10T07:11:40.783Z</time>
      </trkpt>
      <trkpt lat="48.678872" lon="10.143471">
        <ele>543.662465</ele>
        <time>2020-09-10T07:11:42.768Z</time>
      </trkpt>
      <trkpt lat="48.678869" lon="10.143643">
        <ele>543.599497</ele>
        <time>2020-09-10T07:11:44.767Z</time>
      </trkpt>
      <trkpt lat="48.678874" lon="10.143790">
        <ele>543.545629</ele>
        <time>2020-09-10T07:11:46.782Z</time>
      </trkpt>
      <trkpt lat="48.678865" lon="10.143928">
        <ele>543.494879</ele>
        <time>2020-09-10T07:11:48.787Z</time>
      </trkpt>
      <trkpt lat="48.678858" lon="10.144065">
        <ele>543.444592</ele>
        <time>2020-09-10T07:11:50.789Z</time>
      </trkpt>
      <trkpt lat="48.678857" lon="10.144222">
        <ele>543.387133</ele>
        <time>2020-09-10T07:11:52.762Z</time>
      </trkpt>
      <trkpt lat="48.678849" lon="10.144388">
        <ele>543.326220</ele>
        <time>2020-09-10T07:11:54.787Z</time>
      </trkpt>
      <trkpt lat="48.678849" lon="10.144564">
        <ele>543.261810</ele>
        <time>2020-09-10T07:11:56.784Z</time>
      </trkpt>
      <trkpt lat="48.678846" lon="10.144730">
        <ele>543.201037</ele>
        <time>2020-09-10T07:11:58.787Z</time>
      </trkpt>
      <trkpt lat="48.678843" lon="10.144885">
        <ele>543.144288</ele>
        <time>2020-09-10T07:12:00.780Z</time>
      </trkpt>
      <trkpt lat="48.678842" lon="10.145085">
        <ele>543.071092</ele>
        <time>2020-09-10T07:12:03.786Z</time>
      </trkpt>
      <trkpt lat="48.678843" lon="10.145224">
        <ele>543.020220</ele>
        <time>2020-09-10T07:12:05.783Z</time>
      </trkpt>
      <trkpt lat="48.678832" lon="10.145401">
        <ele>542.955157</ele>
        <time>2020-09-10T07:12:07.781Z</time>
      </trkpt>
      <trkpt lat="48.678827" lon="10.145573">
        <ele>542.892150</ele>
        <time>2020-09-10T07:12:09.784Z</time>
      </trkpt>
      <trkpt lat="48.678842" lon="10.145739">
        <ele>542.830833</ele>
        <time>2020-09-10T07:12:12.790Z</time>
      </trkpt>
      <trkpt lat="48.678839" lon="10.145887">
        <ele>542.776644</ele>
        <time>2020-09-10T07:12:15.777Z</time>
      </trkpt>
      <trkpt lat="48.678837" lon="10.146104">
        <ele>542.697222</ele>
        <time>2020-09-10T07:12:18.788Z</time>
      </trkpt>
      <trkpt lat="48.678824" lon="10.146282">
        <ele>542.769602</ele>
        <time>2020-09-10T07:12:20.779Z</time>
      </trkpt>
      <trkpt lat="48.678813" lon="10.146455">
        <ele>542.907195</ele>
        <time>2020-09-10T07:12:22.784Z</time>
      </trkpt>
      <trkpt lat="48.678798" lon="10.146626">
        <ele>543.043761</ele>
        <time>2020-09-10T07:12:24.784Z</time>
      </trkpt>
      <trkpt lat="48.678780" lon="10.146789">
        <ele>543.174597</ele>
        <time>2020-09-10T07:12:26.781Z</time>
      </trkpt>
      <trkpt lat="48.678771" lon="10.146953">
        <ele>543.304880</ele>
        <time>2020-09-10T07:12:28.789Z</time>
      </trkpt>
      <trkpt lat="48.678767" lon="10.147091">
        <ele>543.414237</ele>
        <time>2020-09-10T07:12:30.784Z</time>
      </trkpt>
      <trkpt lat="48.678735" lon="10.147260">
        <ele>543.553423</ele>
        <time>2020-09-10T07:12:33.794Z</time>
      </trkpt>
      <trkpt lat="48.678726" lon="10.147437">
        <ele>543.693965</ele>
        <time>2020-09-10T07:12:36.783Z</time>
      </trkpt>
      <trkpt lat="48.678715" lon="10.147578">
        <ele>543.806368</ele>
        <time>2020-09-10T07:12:38.788Z</time>
      </trkpt>
      <trkpt lat="48.678704" lon="10.147724">
        <ele>543.922703</ele>
        <time>2020-09-10T07:12:40.788Z</time>
      </trkpt>
      <trkpt lat="48.678691" lon="10.147877">
        <ele>544.044829</ele>
        <time>2020-09-10T07:12:42.794Z</time>
      </trkpt>
      <trkpt lat="48.678683" lon="10.148047">
        <ele>544.179755</ele>
        <time>2020-09-10T07:12:44.789Z</time>
      </trkpt>
      <trkpt lat="48.678679" lon="10.148202">
        <ele>544.302559</ele>
        <time>2020-09-10T07:12:46.788Z</time>
      </trkpt>
      <trkpt lat="48.678673" lon="10.148341">
        <ele>544.412838</ele>
        <time>2020-09-10T07:12:48.804Z</time>
      </trkpt>
      <trkpt lat="48.678667" lon="10.148485">
        <ele>544.527066</ele>
        <time>2020-09-10T07:12:50.781Z</time>
      </trkpt>
      <trkpt lat="48.678657" lon="10.148631">
        <ele>544.643272</ele>
        <time>2020-09-10T07:12:52.790Z</time>
      </trkpt>
      <trkpt lat="48.678652" lon="10.148784">
        <ele>544.764547</ele>
        <time>2020-09-10T07:12:54.803Z</time>
      </trkpt>
      <trkpt lat="48.678643" lon="10.148926">
        <ele>544.868439</ele>
        <time>2020-09-10T07:12:56.790Z</time>
      </trkpt>
      <trkpt lat="48.678645" lon="10.149075">
        <ele>544.963039</ele>
        <time>2020-09-10T07:12:58.782Z</time>
      </trkpt>
      <trkpt lat="48.678631" lon="10.149228">
        <ele>545.061085</ele>
        <time>2020-09-10T07:13:00.790Z</time>
      </trkpt>
      <trkpt lat="48.678626" lon="10.149396">
        <ele>545.167833</ele>
        <time>2020-09-10T07:13:02.772Z</time>
      </trkpt>
      <trkpt lat="48.678630" lon="10.149546">
        <ele>545.263125</ele>
        <time>2020-09-10T07:13:04.777Z</time>
      </trkpt>
      <trkpt lat="48.678638" lon="10.149695">
        <ele>545.358017</ele>
        <time>2020-09-10T07:13:06.807Z</time>
      </trkpt>
      <trkpt lat="48.678648" lon="10.149843">
        <ele>545.452452</ele>
        <time>2020-09-10T07:13:08.772Z</time>
      </trkpt>
      <trkpt lat="48.678652" lon="10.150007">
        <ele>545.556624</ele>
        <time>2020-09-10T07:13:10.763Z</time>
      </trkpt>
      <trkpt lat="48.678659" lon="10.150174">
        <ele>545.662843</ele>
        <time>2020-09-10T07:13:12.798Z</time>
      </trkpt>
      <trkpt lat="48.678663" lon="10.150334">
        <ele>545.764477</ele>
        <time>2020-09-10T07:13:15.752Z</time>
      </trkpt>
      <trkpt lat="48.678572" lon="10.150586">
        <ele>545.946797</ele>
        <time>2020-09-10T07:13:46.796Z</time>
      </trkpt>
      <trkpt lat="48.678510" lon="10.150689">
        <ele>546.035269</ele>
        <time>2020-09-10T07:13:48.776Z</time>
      </trkpt>
      <trkpt lat="48.678483" lon="10.150849">
        <ele>546.140095</ele>
        <time>2020-09-10T07:13:50.775Z</time>
      </trkpt>
      <trkpt lat="48.678450" lon="10.151017">
        <ele>546.251354</ele>
        <time>2020-09-10T07:13:53.783Z</time>
      </trkpt>
      <trkpt lat="48.678431" lon="10.151164">
        <ele>546.346436</ele>
        <time>2020-09-10T07:13:56.786Z</time>
      </trkpt>
      <trkpt lat="48.678389" lon="10.151328">
        <ele>546.458093</ele>
        <time>2020-09-10T07:13:59.781Z</time>
      </trkpt>
      <trkpt lat="48.678343" lon="10.151469">
        <ele>546.557924</ele>
        <time>2020-09-10T07:14:02.782Z</time>
      </trkpt>
      <trkpt lat="48.678257" lon="10.151593">
        <ele>546.968542</ele>
        <time>2020-09-10T07:14:05.770Z</time>
      </trkpt>
      <trkpt lat="48.678181" lon="10.151681">
        <ele>547.305951</ele>
        <time>2020-09-10T07:14:08.784Z</time>
      </trkpt>
      <trkpt lat="48.678107" lon="10.151761">
        <ele>547.626614</ele>
        <time>2020-09-10T07:14:14.780Z</time>
      </trkpt>
      <trkpt lat="48.678045" lon="10.151892">
        <ele>548.001958</ele>
        <time>2020-09-10T07:14:17.786Z</time>
      </trkpt>
      <trkpt lat="48.677943" lon="10.151943">
        <ele>548.380800</ele>
        <time>2020-09-10T07:14:20.778Z</time>
      </trkpt>
      <trkpt lat="48.677829" lon="10.151954">
        <ele>548.783682</ele>
        <time>2020-09-10T07:14:22.781Z</time>
      </trkpt>
      <trkpt lat="48.677729" lon="10.151962">
        <ele>549.136865</ele>
        <time>2020-09-10T07:14:24.784Z</time>
      </trkpt>
      <trkpt lat="48.677630" lon="10.151961">
        <ele>549.486036</ele>
        <time>2020-09-10T07:14:26.778Z</time>
      </trkpt>
      <trkpt lat="48.677536" lon="10.151929">
        <ele>549.825837</ele>
        <time>2020-09-10T07:14:28.781Z</time>
      </trkpt>
      <trkpt lat="48.677407" lon="10.151886">
        <ele>550.291697</ele>
        <time>2020-09-10T07:14:31.788Z</time>
      </trkpt>
      <trkpt lat="48.677318" lon="10.151854">
        <ele>550.614317</ele>
        <time>2020-09-10T07:14:33.785Z</time>
      </trkpt>
      <trkpt lat="48.677183" lon="10.151878">
        <ele>551.093718</ele>
        <time>2020-09-10T07:14:36.781Z</time>
      </trkpt>
      <trkpt lat="48.677087" lon="10.151870">
        <ele>551.432813</ele>
        <time>2020-09-10T07:14:38.799Z</time>
      </trkpt>
      <trkpt lat="48.676996" lon="10.151853">
        <ele>551.756193</ele>
        <time>2020-09-10T07:14:40.781Z</time>
      </trkpt>
      <trkpt lat="48.676908" lon="10.151802">
        <ele>552.088510</ele>
        <time>2020-09-10T07:14:42.777Z</time>
      </trkpt>
      <trkpt lat="48.676806" lon="10.151763">
        <ele>552.459542</ele>
        <time>2020-09-10T07:14:44.782Z</time>
      </trkpt>
      <trkpt lat="48.676701" lon="10.151722">
        <ele>552.841978</ele>
        <time>2020-09-10T07:14:46.771Z</time>
      </trkpt>
      <trkpt lat="48.676604" lon="10.151687">
        <ele>552.856284</ele>
        <time>2020-09-10T07:14:48.784Z</time>
      </trkpt>
      <trkpt lat="48.676502" lon="10.151678">
        <ele>552.796013</ele>
        <time>2020-09-10T07:14:50.767Z</time>
      </trkpt>
      <trkpt lat="48.676393" lon="10.151658">
        <ele>552.731245</ele>
        <time>2020-09-10T07:14:52.781Z</time>
      </trkpt>
      <trkpt lat="48.676302" lon="10.151632">
        <ele>552.676618</ele>
        <time>2020-09-10T07:14:54.777Z</time>
      </trkpt>
      <trkpt lat="48.676204" lon="10.151616">
        <ele>552.618474</ele>
        <time>2020-09-10T07:14:56.789Z</time>
      </trkpt>
      <trkpt lat="48.676096" lon="10.151587">
        <ele>552.553772</ele>
        <time>2020-09-10T07:14:58.781Z</time>
      </trkpt>
      <trkpt lat="48.675975" lon="10.151563">
        <ele>552.481786</ele>
        <time>2020-09-10T07:15:00.801Z</time>
      </trkpt>
      <trkpt lat="48.675848" lon="10.151527">
        <ele>552.405569</ele>
        <time>2020-09-10T07:15:02.781Z</time>
      </trkpt>
      <trkpt lat="48.675734" lon="10.151486">
        <ele>552.336451</ele>
        <time>2020-09-10T07:15:04.782Z</time>
      </trkpt>
      <trkpt lat="48.675617" lon="10.151450">
        <ele>552.266024</ele>
        <time>2020-09-10T07:15:06.810Z</time>
      </trkpt>
      <trkpt lat="48.675517" lon="10.151431">
        <ele>552.206573</ele>
        <time>2020-09-10T07:15:08.778Z</time>
      </trkpt>
      <trkpt lat="48.675417" lon="10.151433">
        <ele>552.147579</ele>
        <time>2020-09-10T07:15:10.782Z</time>
      </trkpt>
      <trkpt lat="48.675321" lon="10.151432">
        <ele>552.090948</ele>
        <time>2020-09-10T07:15:12.774Z</time>
      </trkpt>
      <trkpt lat="48.675226" lon="10.151400">
        <ele>552.033539</ele>
        <time>2020-09-10T07:15:14.781Z</time>
      </trkpt>
      <trkpt lat="48.675118" lon="10.151340">
        <ele>551.965679</ele>
        <time>2020-09-10T07:15:17.794Z</time>
      </trkpt>
      <trkpt lat="48.675009" lon="10.151270">
        <ele>551.895839</ele>
        <time>2020-09-10T07:15:20.789Z</time>
      </trkpt>
      <trkpt lat="48.674895" lon="10.151239">
        <ele>551.771470</ele>
        <time>2020-09-10T07:15:23.781Z</time>
      </trkpt>
      <trkpt lat="48.674799" lon="10.151248">
        <ele>551.517344</ele>
        <time>2020-09-10T07:15:26.774Z</time>
      </trkpt>
      <trkpt lat="48.674681" lon="10.151231">
        <ele>551.204169</ele>
        <time>2020-09-10T07:15:30.775Z</time>
      </trkpt>
      <trkpt lat="48.674606" lon="10.151126">
        <ele>550.934308</ele>
        <time>2020-09-10T07:15:33.765Z</time>
      </trkpt>
      <trkpt lat="48.674595" lon="10.150987">
        <ele>550.690065</ele>
        <time>2020-09-10T07:15:36.772Z</time>
      </trkpt>
      <trkpt lat="48.674594" lon="10.150843">
        <ele>550.438819</ele>
        <time>2020-09-10T07:15:39.781Z</time>
      </trkpt>
      <trkpt lat="48.674571" lon="10.150700">
        <ele>550.182038</ele>
        <time>2020-09-10T07:15:44.781Z</time>
      </trkpt>
      <trkpt lat="48.674480" lon="10.150635">
        <ele>549.916205</ele>
        <time>2020-09-10T07:15:49.773Z</time>
      </trkpt>
      <trkpt lat="48.674397" lon="10.150544">
        <ele>549.645472</ele>
        <time>2020-09-10T07:15:53.779Z</time>
      </trkpt>
      <trkpt lat="48.674307" lon="10.150455">
        <ele>549.361476</ele>
        <time>2020-09-10T07:15:57.785Z</time>
      </trkpt>
      <trkpt lat="48.674236" lon="10.150359">
        <ele>549.109996</ele>
        <time>2020-09-10T07:16:01.779Z</time>
      </trkpt>
      <trkpt lat="48.674139" lon="10.150272">
        <ele>548.812137</ele>
        <time>2020-09-10T07:16:05.779Z</time>
      </trkpt>
      <trkpt lat="48.674049" lon="10.150178">
        <ele>548.523278</ele>
        <time>2020-09-10T07:16:09.784Z</time>
      </trkpt>
      <trkpt lat="48.673934" lon="10.150074">
        <ele>548.169382</ele>
        <time>2020-09-10T07:16:12.776Z</time>
      </trkpt>
      <trkpt lat="48.673820" lon="10.149988">
        <ele>547.832880</ele>
        <time>2020-09-10T07:16:15.792Z</time>
      </trkpt>
      <trkpt lat="48.673708" lon="10.149891">
        <ele>547.491990</ele>
        <time>2020-09-10T07:16:18.774Z</time>
      </trkpt>
      <trkpt lat="48.673624" lon="10.149827">
        <ele>547.243548</ele>
        <time>2020-09-10T07:16:20.784Z</time>
      </trkpt>
      <trkpt lat="48.673546" lon="10.149758">
        <ele>547.087061</ele>
        <time>2020-09-10T07:16:22.797Z</time>
      </trkpt>
      <trkpt lat="48.673430" lon="10.149686">
        <ele>547.070293</ele>
        <time>2020-09-10T07:16:25.763Z</time>
      </trkpt>
      <trkpt lat="48.673347" lon="10.149624">
        <ele>547.057914</ele>
        <time>2020-09-10T07:16:27.784Z</time>
      </trkpt>
      <trkpt lat="48.673256" lon="10.149576">
        <ele>547.045024</ele>
        <time>2020-09-10T07:16:29.781Z</time>
      </trkpt>
      <trkpt lat="48.673157" lon="10.149527">
        <ele>547.031093</ele>
        <time>2020-09-10T07:16:31.785Z</time>
      </trkpt>
      <trkpt lat="48.673071" lon="10.149474">
        <ele>547.018674</ele>
        <time>2020-09-10T07:16:33.780Z</time>
      </trkpt>
      <trkpt lat="48.672975" lon="10.149415">
        <ele>547.004816</ele>
        <time>2020-09-10T07:16:35.780Z</time>
      </trkpt>
      <trkpt lat="48.672874" lon="10.149358">
        <ele>546.990399</ele>
        <time>2020-09-10T07:16:37.768Z</time>
      </trkpt>
      <trkpt lat="48.672783" lon="10.149300">
        <ele>546.977193</ele>
        <time>2020-09-10T07:16:39.781Z</time>
      </trkpt>
      <trkpt lat="48.672690" lon="10.149238">
        <ele>546.963601</ele>
        <time>2020-09-10T07:16:41.786Z</time>
      </trkpt>
      <trkpt lat="48.672577" lon="10.149157">
        <ele>546.946879</ele>
        <time>2020-09-10T07:16:44.783Z</time>
      </trkpt>
      <trkpt lat="48.672491" lon="10.149113">
        <ele>546.934737</ele>
        <time>2020-09-10T07:16:46.787Z</time>
      </trkpt>
      <trkpt lat="48.672391" lon="10.149065">
        <ele>546.920705</ele>
        <time>2020-09-10T07:16:48.786Z</time>
      </trkpt>
      <trkpt lat="48.672291" lon="10.149001">
        <ele>546.906184</ele>
        <time>2020-09-10T07:16:50.786Z</time>
      </trkpt>
      <trkpt lat="48.672203" lon="10.148946">
        <ele>546.893450</ele>
        <time>2020-09-10T07:16:52.783Z</time>
      </trkpt>
      <trkpt lat="48.672093" lon="10.148902">
        <ele>546.878232</ele>
        <time>2020-09-10T07:16:54.805Z</time>
      </trkpt>
      <trkpt lat="48.671985" lon="10.148843">
        <ele>546.862875</ele>
        <time>2020-09-10T07:16:56.791Z</time>
      </trkpt>
      <trkpt lat="48.671873" lon="10.148776">
        <ele>546.801530</ele>
        <time>2020-09-10T07:16:58.782Z</time>
      </trkpt>
      <trkpt lat="48.671762" lon="10.148713">
        <ele>546.610476</ele>
        <time>2020-09-10T07:17:00.791Z</time>
      </trkpt>
      <trkpt lat="48.671655" lon="10.148654">
        <ele>546.426945</ele>
        <time>2020-09-10T07:17:02.787Z</time>
      </trkpt>
      <trkpt lat="48.671547" lon="10.148595">
        <ele>546.241898</ele>
        <time>2020-09-10T07:17:04.811Z</time>
      </trkpt>
      <trkpt lat="48.671439" lon="10.148557">
        <ele>546.063195</ele>
        <time>2020-09-10T07:17:06.802Z</time>
      </trkpt>
      <trkpt lat="48.671325" lon="10.148534">
        <ele>545.877836</ele>
        <time>2020-09-10T07:17:08.785Z</time>
      </trkpt>
      <trkpt lat="48.671209" lon="10.148508">
        <ele>545.688839</ele>
        <time>2020-09-10T07:17:10.777Z</time>
      </trkpt>
      <trkpt lat="48.671087" lon="10.148484">
        <ele>545.490557</ele>
        <time>2020-09-10T07:17:12.778Z</time>
      </trkpt>
      <trkpt lat="48.670970" lon="10.148453">
        <ele>545.299121</ele>
        <time>2020-09-10T07:17:14.788Z</time>
      </trkpt>
      <trkpt lat="48.670845" lon="10.148421">
        <ele>545.094797</ele>
        <time>2020-09-10T07:17:16.782Z</time>
      </trkpt>
      <trkpt lat="48.670725" lon="10.148377">
        <ele>544.895801</ele>
        <time>2020-09-10T07:17:18.778Z</time>
      </trkpt>
      <trkpt lat="48.670616" lon="10.148331">
        <ele>544.713428</ele>
        <time>2020-09-10T07:17:20.791Z</time>
      </trkpt>
      <trkpt lat="48.670504" lon="10.148275">
        <ele>544.523330</ele>
        <time>2020-09-10T07:17:22.794Z</time>
      </trkpt>
      <trkpt lat="48.670392" lon="10.148242">
        <ele>544.339432</ele>
        <time>2020-09-10T07:17:24.787Z</time>
      </trkpt>
      <trkpt lat="48.670276" lon="10.148220">
        <ele>544.151011</ele>
        <time>2020-09-10T07:17:26.789Z</time>
      </trkpt>
      <trkpt lat="48.670160" lon="10.148207">
        <ele>543.963540</ele>
        <time>2020-09-10T07:17:28.789Z</time>
      </trkpt>
      <trkpt lat="48.670060" lon="10.148204">
        <ele>543.943361</ele>
        <time>2020-09-10T07:17:30.784Z</time>
      </trkpt>
      <trkpt lat="48.669966" lon="10.148196">
        <ele>543.934649</ele>
        <time>2020-09-10T07:17:32.797Z</time>
      </trkpt>
      <trkpt lat="48.669867" lon="10.148187">
        <ele>543.925471</ele>
        <time>2020-09-10T07:17:36.782Z</time>
      </trkpt>
      <trkpt lat="48.669773" lon="10.148204">
        <ele>543.916711</ele>
        <time>2020-09-10T07:17:42.795Z</time>
      </trkpt>
      <trkpt lat="48.669651" lon="10.148255">
        <ele>543.905000</ele>
        <time>2020-09-10T07:17:45.787Z</time>
      </trkpt>
      <trkpt lat="48.669529" lon="10.148287">
        <ele>543.893542</ele>
        <time>2020-09-10T07:17:47.780Z</time>
      </trkpt>
      <trkpt lat="48.669403" lon="10.148332">
        <ele>543.881563</ele>
        <time>2020-09-10T07:17:49.789Z</time>
      </trkpt>
      <trkpt lat="48.669276" lon="10.148401">
        <ele>543.869078</ele>
        <time>2020-09-10T07:17:51.788Z</time>
      </trkpt>
      <trkpt lat="48.669147" lon="10.148492">
        <ele>543.855909</ele>
        <time>2020-09-10T07:17:53.774Z</time>
      </trkpt>
      <trkpt lat="48.669014" lon="10.148603">
        <ele>543.841856</ele>
        <time>2020-09-10T07:17:55.779Z</time>
      </trkpt>
      <trkpt lat="48.668884" lon="10.148702">
        <ele>543.828391</ele>
        <time>2020-09-10T07:17:57.785Z</time>
      </trkpt>
      <trkpt lat="48.668742" lon="10.148762">
        <ele>543.814749</ele>
        <time>2020-09-10T07:17:59.777Z</time>
      </trkpt>
      <trkpt lat="48.668584" lon="10.148788">
        <ele>543.800042</ele>
        <time>2020-09-10T07:18:01.774Z</time>
      </trkpt>
      <trkpt lat="48.668419" lon="10.148810">
        <ele>543.779181</ele>
        <time>2020-09-10T07:18:03.783Z</time>
      </trkpt>
      <trkpt lat="48.668264" lon="10.148856">
        <ele>543.663266</ele>
        <time>2020-09-10T07:18:05.778Z</time>
      </trkpt>
      <trkpt lat="48.668118" lon="10.148906">
        <ele>543.553414</ele>
        <time>2020-09-10T07:18:07.767Z</time>
      </trkpt>
      <trkpt lat="48.667978" lon="10.148946">
        <ele>543.448858</ele>
        <time>2020-09-10T07:18:09.794Z</time>
      </trkpt>
      <trkpt lat="48.667836" lon="10.148985">
        <ele>543.342947</ele>
        <time>2020-09-10T07:18:11.777Z</time>
      </trkpt>
      <trkpt lat="48.667697" lon="10.149035">
        <ele>543.238100</ele>
        <time>2020-09-10T07:18:13.779Z</time>
      </trkpt>
      <trkpt lat="48.667569" lon="10.149089">
        <ele>543.140586</ele>
        <time>2020-09-10T07:18:15.786Z</time>
      </trkpt>
      <trkpt lat="48.667451" lon="10.149169">
        <ele>543.045704</ele>
        <time>2020-09-10T07:18:17.782Z</time>
      </trkpt>
      <trkpt lat="48.667363" lon="10.149311">
        <ele>542.951325</ele>
        <time>2020-09-10T07:18:19.777Z</time>
      </trkpt>
      <trkpt lat="48.667356" lon="10.149472">
        <ele>542.873124</ele>
        <time>2020-09-10T07:18:21.779Z</time>
      </trkpt>
      <trkpt lat="48.667307" lon="10.149597">
        <ele>542.802672</ele>
        <time>2020-09-10T07:18:23.779Z</time>
      </trkpt>
      <trkpt lat="48.667218" lon="10.149680">
        <ele>542.725962</ele>
        <time>2020-09-10T07:18:25.779Z</time>
      </trkpt>
      <trkpt lat="48.667119" lon="10.149764">
        <ele>542.642679</ele>
        <time>2020-09-10T07:18:27.782Z</time>
      </trkpt>
      <trkpt lat="48.667018" lon="10.149874">
        <ele>542.551375</ele>
        <time>2020-09-10T07:18:29.783Z</time>
      </trkpt>
      <trkpt lat="48.666918" lon="10.150007">
        <ele>542.435779</ele>
        <time>2020-09-10T07:18:31.781Z</time>
      </trkpt>
      <trkpt lat="48.666826" lon="10.150152">
        <ele>542.190804</ele>
        <time>2020-09-10T07:18:33.778Z</time>
      </trkpt>
      <trkpt lat="48.666731" lon="10.150292">
        <ele>541.946249</ele>
        <time>2020-09-10T07:18:35.785Z</time>
      </trkpt>
      <trkpt lat="48.666637" lon="10.150435">
        <ele>541.700436</ele>
        <time>2020-09-10T07:18:37.788Z</time>
      </trkpt>
      <trkpt lat="48.666542" lon="10.150576">
        <ele>541.455029</ele>
        <time>2020-09-10T07:18:39.779Z</time>
      </trkpt>
      <trkpt lat="48.666438" lon="10.150708">
        <ele>541.204685</ele>
        <time>2020-09-10T07:18:41.783Z</time>
      </trkpt>
      <trkpt lat="48.666340" lon="10.150862">
        <ele>540.944132</ele>
        <time>2020-09-10T07:18:43.782Z</time>
      </trkpt>
      <trkpt lat="48.666256" lon="10.151000">
        <ele>540.715481</ele>
        <time>2020-09-10T07:18:45.783Z</time>
      </trkpt>
      <trkpt lat="48.666186" lon="10.151152">
        <ele>540.489713</ele>
        <time>2020-09-10T07:18:47.783Z</time>
      </trkpt>
      <trkpt lat="48.666123" lon="10.151301">
        <ele>540.274162</ele>
        <time>2020-09-10T07:18:49.782Z</time>
      </trkpt>
      <trkpt lat="48.666055" lon="10.151445">
        <ele>540.058484</ele>
        <time>2020-09-10T07:18:51.782Z</time>
      </trkpt>
      <trkpt lat="48.665958" lon="10.151581">
        <ele>539.814608</ele>
        <time>2020-09-10T07:18:53.783Z</time>
      </trkpt>
      <trkpt lat="48.665864" lon="10.151731">
        <ele>539.562676</ele>
        <time>2020-09-10T07:18:55.759Z</time>
      </trkpt>
      <trkpt lat="48.665757" lon="10.151893">
        <ele>539.283535</ele>
        <time>2020-09-10T07:18:57.783Z</time>
      </trkpt>
      <trkpt lat="48.665647" lon="10.152040">
        <ele>539.048994</ele>
        <time>2020-09-10T07:18:59.783Z</time>
      </trkpt>
      <trkpt lat="48.665532" lon="10.152187">
        <ele>538.845857</ele>
        <time>2020-09-10T07:19:01.783Z</time>
      </trkpt>
      <trkpt lat="48.665406" lon="10.152320">
        <ele>538.638542</ele>
        <time>2020-09-10T07:19:03.774Z</time>
      </trkpt>
      <trkpt lat="48.665302" lon="10.152447">
        <ele>538.458205</ele>
        <time>2020-09-10T07:19:05.788Z</time>
      </trkpt>
      <trkpt lat="48.665189" lon="10.152567">
        <ele>538.271910</ele>
        <time>2020-09-10T07:19:07.783Z</time>
      </trkpt>
      <trkpt lat="48.665087" lon="10.152696">
        <ele>538.092528</ele>
        <time>2020-09-10T07:19:09.788Z</time>
      </trkpt>
      <trkpt lat="48.664966" lon="10.152811">
        <ele>537.899701</ele>
        <time>2020-09-10T07:19:11.801Z</time>
      </trkpt>
      <trkpt lat="48.664850" lon="10.152917">
        <ele>537.716826</ele>
        <time>2020-09-10T07:19:13.796Z</time>
      </trkpt>
      <trkpt lat="48.664747" lon="10.153012">
        <ele>537.554040</ele>
        <time>2020-09-10T07:19:15.783Z</time>
      </trkpt>
      <trkpt lat="48.664648" lon="10.153109">
        <ele>537.394878</ele>
        <time>2020-09-10T07:19:17.788Z</time>
      </trkpt>
      <trkpt lat="48.664549" lon="10.153206">
        <ele>537.235716</ele>
        <time>2020-09-10T07:19:19.788Z</time>
      </trkpt>
      <trkpt lat="48.664438" lon="10.153287">
        <ele>537.069403</ele>
        <time>2020-09-10T07:19:21.781Z</time>
      </trkpt>
      <trkpt lat="48.664322" lon="10.153376">
        <ele>536.893879</ele>
        <time>2020-09-10T07:19:23.799Z</time>
      </trkpt>
      <trkpt lat="48.664214" lon="10.153473">
        <ele>536.724389</ele>
        <time>2020-09-10T07:19:25.786Z</time>
      </trkpt>
      <trkpt lat="48.664112" lon="10.153573">
        <ele>536.539271</ele>
        <time>2020-09-10T07:19:27.781Z</time>
      </trkpt>
      <trkpt lat="48.663995" lon="10.153659">
        <ele>536.340485</ele>
        <time>2020-09-10T07:19:29.768Z</time>
      </trkpt>
      <trkpt lat="48.663877" lon="10.153751">
        <ele>536.137622</ele>
        <time>2020-09-10T07:19:31.761Z</time>
      </trkpt>
      <trkpt lat="48.663760" lon="10.153847">
        <ele>535.934225</ele>
        <time>2020-09-10T07:19:33.789Z</time>
      </trkpt>
      <trkpt lat="48.663654" lon="10.153943">
        <ele>535.745438</ele>
        <time>2020-09-10T07:19:35.783Z</time>
      </trkpt>
      <trkpt lat="48.663551" lon="10.154038">
        <ele>535.561100</ele>
        <time>2020-09-10T07:19:37.784Z</time>
      </trkpt>
      <trkpt lat="48.663449" lon="10.154138">
        <ele>535.375370</ele>
        <time>2020-09-10T07:19:39.789Z</time>
      </trkpt>
      <trkpt lat="48.663343" lon="10.154214">
        <ele>535.196108</ele>
        <time>2020-09-10T07:19:41.782Z</time>
      </trkpt>
      <trkpt lat="48.663233" lon="10.154285">
        <ele>535.013341</ele>
        <time>2020-09-10T07:19:43.782Z</time>
      </trkpt>
      <trkpt lat="48.663138" lon="10.154379">
        <ele>534.839882</ele>
        <time>2020-09-10T07:19:45.783Z</time>
      </trkpt>
      <trkpt lat="48.663037" lon="10.154509">
        <ele>534.637265</ele>
        <time>2020-09-10T07:19:47.789Z</time>
      </trkpt>
      <trkpt lat="48.662935" lon="10.154619">
        <ele>534.445860</ele>
        <time>2020-09-10T07:19:49.784Z</time>
      </trkpt>
      <trkpt lat="48.662825" lon="10.154724">
        <ele>534.247108</ele>
        <time>2020-09-10T07:19:51.784Z</time>
      </trkpt>
      <trkpt lat="48.662712" lon="10.154821">
        <ele>534.048567</ele>
        <time>2020-09-10T07:19:53.778Z</time>
      </trkpt>
      <trkpt lat="48.662610" lon="10.154922">
        <ele>533.915313</ele>
        <time>2020-09-10T07:19:55.787Z</time>
      </trkpt>
      <trkpt lat="48.662508" lon="10.155018">
        <ele>533.821550</ele>
        <time>2020-09-10T07:19:57.785Z</time>
      </trkpt>
      <trkpt lat="48.662412" lon="10.155107">
        <ele>533.733669</ele>
        <time>2020-09-10T07:19:59.785Z</time>
      </trkpt>
      <trkpt lat="48.662314" lon="10.155204">
        <ele>533.642262</ele>
        <time>2020-09-10T07:20:01.790Z</time>
      </trkpt>
      <trkpt lat="48.662219" lon="10.155298">
        <ele>533.553661</ele>
        <time>2020-09-10T07:20:03.790Z</time>
      </trkpt>
      <trkpt lat="48.662113" lon="10.155401">
        <ele>533.455330</ele>
        <time>2020-09-10T07:20:05.780Z</time>
      </trkpt>
      <trkpt lat="48.662000" lon="10.155500">
        <ele>533.353406</ele>
        <time>2020-09-10T07:20:07.782Z</time>
      </trkpt>
      <trkpt lat="48.661885" lon="10.155609">
        <ele>533.247483</ele>
        <time>2020-09-10T07:20:09.792Z</time>
      </trkpt>
      <trkpt lat="48.661780" lon="10.155701">
        <ele>533.152772</ele>
        <time>2020-09-10T07:20:11.756Z</time>
      </trkpt>
      <trkpt lat="48.661667" lon="10.155780">
        <ele>533.055602</ele>
        <time>2020-09-10T07:20:13.781Z</time>
      </trkpt>
      <trkpt lat="48.661552" lon="10.155847">
        <ele>532.959404</ele>
        <time>2020-09-10T07:20:15.776Z</time>
      </trkpt>
      <trkpt lat="48.661435" lon="10.155929">
        <ele>532.858750</ele>
        <time>2020-09-10T07:20:17.791Z</time>
      </trkpt>
      <trkpt lat="48.661313" lon="10.156012">
        <ele>532.754331</ele>
        <time>2020-09-10T07:20:19.778Z</time>
      </trkpt>
      <trkpt lat="48.661196" lon="10.156095">
        <ele>532.653460</ele>
        <time>2020-09-10T07:20:21.780Z</time>
      </trkpt>
      <trkpt lat="48.661087" lon="10.156171">
        <ele>532.566920</ele>
        <time>2020-09-10T07:20:23.780Z</time>
      </trkpt>
      <trkpt lat="48.660974" lon="10.156247">
        <ele>532.573175</ele>
        <time>2020-09-10T07:20:25.794Z</time>
      </trkpt>
      <trkpt lat="48.660862" lon="10.156310">
        <ele>532.579219</ele>
        <time>2020-09-10T07:20:27.782Z</time>
      </trkpt>
      <trkpt lat="48.660747" lon="10.156374">
        <ele>532.585418</ele>
        <time>2020-09-10T07:20:29.780Z</time>
      </trkpt>
      <trkpt lat="48.660627" lon="10.156437">
        <ele>532.591843</ele>
        <time>2020-09-10T07:20:31.777Z</time>
      </trkpt>
      <trkpt lat="48.660497" lon="10.156502">
        <ele>532.598769</ele>
        <time>2020-09-10T07:20:33.791Z</time>
      </trkpt>
      <trkpt lat="48.660371" lon="10.156574">
        <ele>532.605582</ele>
        <time>2020-09-10T07:20:35.781Z</time>
      </trkpt>
      <trkpt lat="48.660258" lon="10.156669">
        <ele>532.612121</ele>
        <time>2020-09-10T07:20:37.780Z</time>
      </trkpt>
      <trkpt lat="48.660152" lon="10.156775">
        <ele>532.618547</ele>
        <time>2020-09-10T07:20:39.778Z</time>
      </trkpt>
      <trkpt lat="48.660029" lon="10.156868">
        <ele>532.625502</ele>
        <time>2020-09-10T07:20:41.782Z</time>
      </trkpt>
      <trkpt lat="48.659910" lon="10.156966">
        <ele>532.632356</ele>
        <time>2020-09-10T07:20:43.788Z</time>
      </trkpt>
      <trkpt lat="48.659789" lon="10.157072">
        <ele>532.639428</ele>
        <time>2020-09-10T07:20:45.782Z</time>
      </trkpt>
      <trkpt lat="48.659683" lon="10.157187">
        <ele>532.646025</ele>
        <time>2020-09-10T07:20:47.776Z</time>
      </trkpt>
      <trkpt lat="48.659589" lon="10.157304">
        <ele>532.652181</ele>
        <time>2020-09-10T07:20:49.802Z</time>
      </trkpt>
      <trkpt lat="48.659492" lon="10.157410">
        <ele>532.680104</ele>
        <time>2020-09-10T07:20:51.774Z</time>
      </trkpt>
      <trkpt lat="48.659400" lon="10.157501">
        <ele>532.846265</ele>
        <time>2020-09-10T07:20:53.782Z</time>
      </trkpt>
      <trkpt lat="48.659303" lon="10.157600">
        <ele>533.023142</ele>
        <time>2020-09-10T07:20:55.782Z</time>
      </trkpt>
      <trkpt lat="48.659194" lon="10.157685">
        <ele>533.208527</ele>
        <time>2020-09-10T07:20:57.789Z</time>
      </trkpt>
      <trkpt lat="48.659086" lon="10.157735">
        <ele>533.379286</ele>
        <time>2020-09-10T07:20:59.779Z</time>
      </trkpt>
      <trkpt lat="48.658977" lon="10.157766">
        <ele>533.546975</ele>
        <time>2020-09-10T07:21:02.782Z</time>
      </trkpt>
      <trkpt lat="48.658889" lon="10.157789">
        <ele>533.681998</ele>
        <time>2020-09-10T07:21:07.783Z</time>
      </trkpt>
      <trkpt lat="48.658798" lon="10.157791">
        <ele>533.819603</ele>
        <time>2020-09-10T07:21:12.792Z</time>
      </trkpt>
      <trkpt lat="48.658660" lon="10.157805">
        <ele>534.028725</ele>
        <time>2020-09-10T07:21:41.789Z</time>
      </trkpt>
      <trkpt lat="48.658553" lon="10.157815">
        <ele>534.190815</ele>
        <time>2020-09-10T07:21:44.791Z</time>
      </trkpt>
      <trkpt lat="48.658461" lon="10.157827">
        <ele>534.330433</ele>
        <time>2020-09-10T07:21:46.786Z</time>
      </trkpt>
      <trkpt lat="48.658360" lon="10.157851">
        <ele>534.485013</ele>
        <time>2020-09-10T07:21:48.781Z</time>
      </trkpt>
      <trkpt lat="48.658232" lon="10.157846">
        <ele>534.678611</ele>
        <time>2020-09-10T07:21:50.789Z</time>
      </trkpt>
      <trkpt lat="48.658105" lon="10.157859">
        <ele>534.871071</ele>
        <time>2020-09-10T07:21:52.788Z</time>
      </trkpt>
      <trkpt lat="48.657999" lon="10.157880">
        <ele>535.032708</ele>
        <time>2020-09-10T07:21:54.788Z</time>
      </trkpt>
      <trkpt lat="48.657886" lon="10.157890">
        <ele>535.203854</ele>
        <time>2020-09-10T07:21:56.781Z</time>
      </trkpt>
      <trkpt lat="48.657774" lon="10.157896">
        <ele>535.373302</ele>
        <time>2020-09-10T07:21:58.782Z</time>
      </trkpt>
      <trkpt lat="48.657668" lon="10.157914">
        <ele>535.345148</ele>
        <time>2020-09-10T07:22:00.793Z</time>
      </trkpt>
      <trkpt lat="48.657559" lon="10.157935">
        <ele>535.311573</ele>
        <time>2020-09-10T07:22:02.781Z</time>
      </trkpt>
      <trkpt lat="48.657446" lon="10.157946">
        <ele>535.276973</ele>
        <time>2020-09-10T07:22:04.792Z</time>
      </trkpt>
      <trkpt lat="48.657335" lon="10.157960">
        <ele>535.242938</ele>
        <time>2020-09-10T07:22:06.792Z</time>
      </trkpt>
      <trkpt lat="48.657228" lon="10.157975">
        <ele>535.210103</ele>
        <time>2020-09-10T07:22:08.762Z</time>
      </trkpt>
      <trkpt lat="48.657110" lon="10.157985">
        <ele>535.173990</ele>
        <time>2020-09-10T07:22:10.782Z</time>
      </trkpt>
      <trkpt lat="48.656983" lon="10.158013">
        <ele>535.134774</ele>
        <time>2020-09-10T07:22:12.803Z</time>
      </trkpt>
      <trkpt lat="48.656863" lon="10.158069">
        <ele>535.096404</ele>
        <time>2020-09-10T07:22:14.779Z</time>
      </trkpt>
      <trkpt lat="48.656744" lon="10.158108">
        <ele>535.059199</ele>
        <time>2020-09-10T07:22:16.786Z</time>
      </trkpt>
      <trkpt lat="48.656615" lon="10.158150">
        <ele>535.018880</ele>
        <time>2020-09-10T07:22:18.800Z</time>
      </trkpt>
      <trkpt lat="48.656496" lon="10.158210">
        <ele>534.980554</ele>
        <time>2020-09-10T07:22:20.782Z</time>
      </trkpt>
      <trkpt lat="48.656400" lon="10.158256">
        <ele>534.949786</ele>
        <time>2020-09-10T07:22:22.778Z</time>
      </trkpt>
      <trkpt lat="48.656269" lon="10.158312">
        <ele>534.908192</ele>
        <time>2020-09-10T07:22:25.794Z</time>
      </trkpt>
      <trkpt lat="48.656181" lon="10.158341">
        <ele>534.880672</ele>
        <time>2020-09-10T07:22:27.778Z</time>
      </trkpt>
      <trkpt lat="48.656072" lon="10.158379">
        <ele>534.846494</ele>
        <time>2020-09-10T07:22:31.784Z</time>
      </trkpt>
      <trkpt lat="48.655921" lon="10.158420">
        <ele>534.775203</ele>
        <time>2020-09-10T07:22:53.774Z</time>
      </trkpt>
      <trkpt lat="48.655809" lon="10.158444">
        <ele>534.710258</ele>
        <time>2020-09-10T07:22:56.790Z</time>
      </trkpt>
      <trkpt lat="48.655720" lon="10.158488">
        <ele>534.656504</ele>
        <time>2020-09-10T07:22:58.791Z</time>
      </trkpt>
      <trkpt lat="48.655626" lon="10.158534">
        <ele>534.599785</ele>
        <time>2020-09-10T07:23:00.783Z</time>
      </trkpt>
      <trkpt lat="48.655533" lon="10.158542">
        <ele>534.546304</ele>
        <time>2020-09-10T07:23:02.798Z</time>
      </trkpt>
      <trkpt lat="48.655425" lon="10.158569">
        <ele>534.483457</ele>
        <time>2020-09-10T07:23:04.780Z</time>
      </trkpt>
      <trkpt lat="48.655313" lon="10.158595">
        <ele>534.418402</ele>
        <time>2020-09-10T07:23:06.785Z</time>
      </trkpt>
      <trkpt lat="48.655198" lon="10.158597">
        <ele>534.352372</ele>
        <time>2020-09-10T07:23:08.787Z</time>
      </trkpt>
      <trkpt lat="48.655091" lon="10.158595">
        <ele>534.290934</ele>
        <time>2020-09-10T07:23:10.783Z</time>
      </trkpt>
      <trkpt lat="48.654974" lon="10.158562">
        <ele>534.222604</ele>
        <time>2020-09-10T07:23:12.788Z</time>
      </trkpt>
      <trkpt lat="48.654860" lon="10.158525">
        <ele>534.155665</ele>
        <time>2020-09-10T07:23:14.784Z</time>
      </trkpt>
      <trkpt lat="48.654743" lon="10.158506">
        <ele>534.088105</ele>
        <time>2020-09-10T07:23:16.784Z</time>
      </trkpt>
      <trkpt lat="48.654625" lon="10.158505">
        <ele>534.020356</ele>
        <time>2020-09-10T07:23:18.787Z</time>
      </trkpt>
      <trkpt lat="48.654510" lon="10.158510">
        <ele>533.954303</ele>
        <time>2020-09-10T07:23:20.803Z</time>
      </trkpt>
      <trkpt lat="48.654391" lon="10.158484">
        <ele>533.885272</ele>
        <time>2020-09-10T07:23:22.791Z</time>
      </trkpt>
      <trkpt lat="48.654264" lon="10.158463">
        <ele>533.811923</ele>
        <time>2020-09-10T07:23:24.789Z</time>
      </trkpt>
      <trkpt lat="48.654136" lon="10.158441">
        <ele>533.933151</ele>
        <time>2020-09-10T07:23:26.786Z</time>
      </trkpt>
      <trkpt lat="48.654007" lon="10.158414">
        <ele>534.115485</ele>
        <time>2020-09-10T07:23:28.782Z</time>
      </trkpt>
      <trkpt lat="48.653878" lon="10.158379">
        <ele>534.298980</ele>
        <time>2020-09-10T07:23:30.782Z</time>
      </trkpt>
      <trkpt lat="48.653747" lon="10.158362">
        <ele>534.483068</ele>
        <time>2020-09-10T07:23:32.784Z</time>
      </trkpt>
      <trkpt lat="48.653618" lon="10.158363">
        <ele>534.663687</ele>
        <time>2020-09-10T07:23:34.791Z</time>
      </trkpt>
      <trkpt lat="48.653491" lon="10.158356">
        <ele>534.841620</ele>
        <time>2020-09-10T07:23:36.784Z</time>
      </trkpt>
      <trkpt lat="48.653361" lon="10.158355">
        <ele>535.023639</ele>
        <time>2020-09-10T07:23:38.789Z</time>
      </trkpt>
      <trkpt lat="48.653238" lon="10.158370">
        <ele>535.196412</ele>
        <time>2020-09-10T07:23:40.787Z</time>
      </trkpt>
      <trkpt lat="48.653107" lon="10.158381">
        <ele>535.380110</ele>
        <time>2020-09-10T07:23:42.788Z</time>
      </trkpt>
      <trkpt lat="48.652974" lon="10.158388">
        <ele>535.566439</ele>
        <time>2020-09-10T07:23:44.782Z</time>
      </trkpt>
      <trkpt lat="48.652843" lon="10.158390">
        <ele>535.749865</ele>
        <time>2020-09-10T07:23:46.786Z</time>
      </trkpt>
      <trkpt lat="48.652717" lon="10.158402">
        <ele>535.926629</ele>
        <time>2020-09-10T07:23:48.782Z</time>
      </trkpt>
      <trkpt lat="48.652591" lon="10.158423">
        <ele>536.104111</ele>
        <time>2020-09-10T07:23:50.778Z</time>
      </trkpt>
      <trkpt lat="48.652458" lon="10.158447">
        <ele>536.291646</ele>
        <time>2020-09-10T07:23:52.795Z</time>
      </trkpt>
      <trkpt lat="48.652327" lon="10.158479">
        <ele>536.655505</ele>
        <time>2020-09-10T07:23:54.784Z</time>
      </trkpt>
      <trkpt lat="48.652197" lon="10.158516">
        <ele>537.041331</ele>
        <time>2020-09-10T07:23:56.784Z</time>
      </trkpt>
      <trkpt lat="48.652059" lon="10.158542">
        <ele>537.446953</ele>
        <time>2020-09-10T07:23:58.785Z</time>
      </trkpt>
      <trkpt lat="48.651919" lon="10.158557">
        <ele>537.856324</ele>
        <time>2020-09-10T07:24:00.797Z</time>
      </trkpt>
      <trkpt lat="48.651776" lon="10.158593">
        <ele>538.279153</ele>
        <time>2020-09-10T07:24:02.778Z</time>
      </trkpt>
      <trkpt lat="48.651629" lon="10.158641">
        <ele>538.717783</ele>
        <time>2020-09-10T07:24:04.777Z</time>
      </trkpt>
      <trkpt lat="48.651480" lon="10.158698">
        <ele>539.166048</ele>
        <time>2020-09-10T07:24:06.772Z</time>
      </trkpt>
      <trkpt lat="48.651341" lon="10.158749">
        <ele>539.583221</ele>
        <time>2020-09-10T07:24:08.799Z</time>
      </trkpt>
      <trkpt lat="48.651209" lon="10.158792">
        <ele>539.977051</ele>
        <time>2020-09-10T07:24:10.776Z</time>
      </trkpt>
      <trkpt lat="48.651078" lon="10.158831">
        <ele>540.366470</ele>
        <time>2020-09-10T07:24:12.783Z</time>
      </trkpt>
      <trkpt lat="48.650956" lon="10.158867">
        <ele>540.729016</ele>
        <time>2020-09-10T07:24:14.774Z</time>
      </trkpt>
      <trkpt lat="48.650833" lon="10.158894">
        <ele>541.091533</ele>
        <time>2020-09-10T07:24:16.802Z</time>
      </trkpt>
      <trkpt lat="48.650727" lon="10.158943">
        <ele>541.414809</ele>
        <time>2020-09-10T07:24:18.776Z</time>
      </trkpt>
      <trkpt lat="48.650621" lon="10.158992">
        <ele>541.373770</ele>
        <time>2020-09-10T07:24:20.782Z</time>
      </trkpt>
      <trkpt lat="48.650525" lon="10.159032">
        <ele>541.072387</ele>
        <time>2020-09-10T07:24:22.794Z</time>
      </trkpt>
      <trkpt lat="48.650417" lon="10.159109">
        <ele>540.711043</ele>
        <time>2020-09-10T07:24:25.776Z</time>
      </trkpt>
      <trkpt lat="48.650309" lon="10.159198">
        <ele>540.338841</ele>
        <time>2020-09-10T07:24:28.772Z</time>
      </trkpt>
      <trkpt lat="48.650219" lon="10.159281">
        <ele>540.019848</ele>
        <time>2020-09-10T07:24:31.784Z</time>
      </trkpt>
      <trkpt lat="48.650153" lon="10.159406">
        <ele>539.699867</ele>
        <time>2020-09-10T07:24:34.779Z</time>
      </trkpt>
      <trkpt lat="48.650036" lon="10.159435">
        <ele>539.341012</ele>
        <time>2020-09-10T07:24:37.778Z</time>
      </trkpt>
      <trkpt lat="48.649935" lon="10.159488">
        <ele>539.017454</ele>
        <time>2020-09-10T07:24:39.781Z</time>
      </trkpt>
      <trkpt lat="48.649823" lon="10.159538">
        <ele>538.664013</ele>
        <time>2020-09-10T07:24:41.778Z</time>
      </trkpt>
      <trkpt lat="48.649704" lon="10.159583">
        <ele>538.292751</ele>
        <time>2020-09-10T07:24:43.782Z</time>
      </trkpt>
      <trkpt lat="48.649580" lon="10.159618">
        <ele>537.910956</ele>
        <time>2020-09-10T07:24:45.773Z</time>
      </trkpt>
      <trkpt lat="48.649460" lon="10.159662">
        <ele>537.537233</ele>
        <time>2020-09-10T07:24:47.777Z</time>
      </trkpt>
      <trkpt lat="48.649338" lon="10.159703">
        <ele>537.158969</ele>
        <time>2020-09-10T07:24:49.778Z</time>
      </trkpt>
      <trkpt lat="48.649217" lon="10.159739">
        <ele>536.785715</ele>
        <time>2020-09-10T07:24:51.778Z</time>
      </trkpt>
      <trkpt lat="48.649094" lon="10.159786">
        <ele>536.401737</ele>
        <time>2020-09-10T07:24:53.788Z</time>
      </trkpt>
      <trkpt lat="48.648963" lon="10.159849">
        <ele>536.016401</ele>
        <time>2020-09-10T07:24:55.777Z</time>
      </trkpt>
      <trkpt lat="48.648833" lon="10.159925">
        <ele>535.694660</ele>
        <time>2020-09-10T07:24:57.783Z</time>
      </trkpt>
      <trkpt lat="48.648704" lon="10.160001">
        <ele>535.375072</ele>
        <time>2020-09-10T07:24:59.782Z</time>
      </trkpt>
      <trkpt lat="48.648579" lon="10.160051">
        <ele>535.076576</ele>
        <time>2020-09-10T07:25:01.776Z</time>
      </trkpt>
      <trkpt lat="48.648456" lon="10.160081">
        <ele>534.788942</ele>
        <time>2020-09-10T07:25:03.782Z</time>
      </trkpt>
      <trkpt lat="48.648337" lon="10.160113">
        <ele>534.509904</ele>
        <time>2020-09-10T07:25:05.785Z</time>
      </trkpt>
      <trkpt lat="48.648211" lon="10.160162">
        <ele>534.209559</ele>
        <time>2020-09-10T07:25:07.782Z</time>
      </trkpt>
      <trkpt lat="48.648081" lon="10.160205">
        <ele>533.902344</ele>
        <time>2020-09-10T07:25:09.782Z</time>
      </trkpt>
      <trkpt lat="48.647958" lon="10.160239">
        <ele>533.613676</ele>
        <time>2020-09-10T07:25:11.783Z</time>
      </trkpt>
      <trkpt lat="48.647833" lon="10.160270">
        <ele>533.321239</ele>
        <time>2020-09-10T07:25:13.788Z</time>
      </trkpt>
      <trkpt lat="48.647713" lon="10.160306">
        <ele>533.038805</ele>
        <time>2020-09-10T07:25:15.770Z</time>
      </trkpt>
      <trkpt lat="48.647580" lon="10.160341">
        <ele>532.727141</ele>
        <time>2020-09-10T07:25:17.788Z</time>
      </trkpt>
      <trkpt lat="48.647442" lon="10.160368">
        <ele>532.405888</ele>
        <time>2020-09-10T07:25:19.790Z</time>
      </trkpt>
      <trkpt lat="48.647301" lon="10.160392">
        <ele>532.078309</ele>
        <time>2020-09-10T07:25:21.783Z</time>
      </trkpt>
      <trkpt lat="48.647168" lon="10.160418">
        <ele>531.817895</ele>
        <time>2020-09-10T07:25:23.758Z</time>
      </trkpt>
      <trkpt lat="48.647034" lon="10.160445">
        <ele>531.584985</ele>
        <time>2020-09-10T07:25:25.776Z</time>
      </trkpt>
      <trkpt lat="48.646902" lon="10.160468">
        <ele>531.356055</ele>
        <time>2020-09-10T07:25:27.782Z</time>
      </trkpt>
      <trkpt lat="48.646765" lon="10.160490">
        <ele>531.118688</ele>
        <time>2020-09-10T07:25:29.784Z</time>
      </trkpt>
      <trkpt lat="48.646633" lon="10.160514">
        <ele>530.889625</ele>
        <time>2020-09-10T07:25:31.776Z</time>
      </trkpt>
      <trkpt lat="48.646503" lon="10.160535">
        <ele>530.664371</ele>
        <time>2020-09-10T07:25:33.777Z</time>
      </trkpt>
      <trkpt lat="48.646384" lon="10.160556">
        <ele>530.457953</ele>
        <time>2020-09-10T07:25:35.783Z</time>
      </trkpt>
      <trkpt lat="48.646262" lon="10.160578">
        <ele>530.246268</ele>
        <time>2020-09-10T07:25:37.785Z</time>
      </trkpt>
      <trkpt lat="48.646137" lon="10.160601">
        <ele>530.029315</ele>
        <time>2020-09-10T07:25:39.784Z</time>
      </trkpt>
      <trkpt lat="48.646010" lon="10.160620">
        <ele>529.809436</ele>
        <time>2020-09-10T07:25:41.794Z</time>
      </trkpt>
      <trkpt lat="48.645877" lon="10.160635">
        <ele>529.579650</ele>
        <time>2020-09-10T07:25:43.785Z</time>
      </trkpt>
      <trkpt lat="48.645744" lon="10.160641">
        <ele>529.350398</ele>
        <time>2020-09-10T07:25:45.784Z</time>
      </trkpt>
      <trkpt lat="48.645611" lon="10.160637">
        <ele>529.121202</ele>
        <time>2020-09-10T07:25:47.797Z</time>
      </trkpt>
      <trkpt lat="48.645475" lon="10.160614">
        <ele>528.885424</ele>
        <time>2020-09-10T07:25:49.766Z</time>
      </trkpt>
      <trkpt lat="48.645341" lon="10.160587">
        <ele>529.039971</ele>
        <time>2020-09-10T07:25:51.782Z</time>
      </trkpt>
      <trkpt lat="48.645211" lon="10.160538">
        <ele>529.232740</ele>
        <time>2020-09-10T07:25:53.798Z</time>
      </trkpt>
      <trkpt lat="48.645086" lon="10.160461">
        <ele>529.426928</ele>
        <time>2020-09-10T07:25:55.776Z</time>
      </trkpt>
      <trkpt lat="48.644957" lon="10.160390">
        <ele>529.624438</ele>
        <time>2020-09-10T07:25:57.784Z</time>
      </trkpt>
      <trkpt lat="48.644837" lon="10.160310">
        <ele>529.813114</ele>
        <time>2020-09-10T07:25:59.788Z</time>
      </trkpt>
      <trkpt lat="48.644722" lon="10.160223">
        <ele>529.998107</ele>
        <time>2020-09-10T07:26:01.783Z</time>
      </trkpt>
      <trkpt lat="48.644621" lon="10.160130">
        <ele>530.168218</ele>
        <time>2020-09-10T07:26:03.783Z</time>
      </trkpt>
      <trkpt lat="48.644526" lon="10.160012">
        <ele>530.345054</ele>
        <time>2020-09-10T07:26:05.787Z</time>
      </trkpt>
      <trkpt lat="48.644428" lon="10.159889">
        <ele>530.528245</ele>
        <time>2020-09-10T07:26:07.772Z</time>
      </trkpt>
      <trkpt lat="48.644338" lon="10.159753">
        <ele>530.711243</ele>
        <time>2020-09-10T07:26:09.760Z</time>
      </trkpt>
      <trkpt lat="48.644248" lon="10.159604">
        <ele>530.903173</ele>
        <time>2020-09-10T07:26:11.780Z</time>
      </trkpt>
      <trkpt lat="48.644168" lon="10.159448">
        <ele>531.090916</ele>
        <time>2020-09-10T07:26:13.772Z</time>
      </trkpt>
      <trkpt lat="48.644098" lon="10.159291">
        <ele>531.270984</ele>
        <time>2020-09-10T07:26:15.774Z</time>
      </trkpt>
      <trkpt lat="48.644032" lon="10.159131">
        <ele>531.450311</ele>
        <time>2020-09-10T07:26:17.770Z</time>
      </trkpt>
      <trkpt lat="48.643981" lon="10.158971">
        <ele>531.186420</ele>
        <time>2020-09-10T07:26:19.771Z</time>
      </trkpt>
      <trkpt lat="48.643930" lon="10.158819">
        <ele>530.929735</ele>
        <time>2020-09-10T07:26:21.773Z</time>
      </trkpt>
      <trkpt lat="48.643888" lon="10.158672">
        <ele>530.688588</ele>
        <time>2020-09-10T07:26:23.773Z</time>
      </trkpt>
      <trkpt lat="48.643848" lon="10.158532">
        <ele>530.458925</ele>
        <time>2020-09-10T07:26:25.752Z</time>
      </trkpt>
      <trkpt lat="48.643814" lon="10.158399">
        <ele>530.244199</ele>
        <time>2020-09-10T07:26:27.776Z</time>
      </trkpt>
      <trkpt lat="48.643780" lon="10.158266">
        <ele>530.029474</ele>
        <time>2020-09-10T07:26:29.776Z</time>
      </trkpt>
      <trkpt lat="48.643735" lon="10.158140">
        <ele>529.813813</ele>
        <time>2020-09-10T07:26:31.772Z</time>
      </trkpt>
      <trkpt lat="48.643631" lon="10.158077">
        <ele>529.558535</ele>
        <time>2020-09-10T07:26:33.762Z</time>
      </trkpt>
      <trkpt lat="48.643522" lon="10.158074">
        <ele>529.310102</ele>
        <time>2020-09-10T07:26:35.779Z</time>
      </trkpt>
      <trkpt lat="48.643401" lon="10.158082">
        <ele>529.034100</ele>
        <time>2020-09-10T07:26:37.782Z</time>
      </trkpt>
      <trkpt lat="48.643281" lon="10.158079">
        <ele>528.760603</ele>
        <time>2020-09-10T07:26:39.777Z</time>
      </trkpt>
      <trkpt lat="48.643153" lon="10.158058">
        <ele>528.467204</ele>
        <time>2020-09-10T07:26:41.772Z</time>
      </trkpt>
      <trkpt lat="48.643019" lon="10.158016">
        <ele>528.155360</ele>
        <time>2020-09-10T07:26:43.777Z</time>
      </trkpt>
      <trkpt lat="48.642895" lon="10.157956">
        <ele>527.858694</ele>
        <time>2020-09-10T07:26:45.777Z</time>
      </trkpt>
      <trkpt lat="48.642764" lon="10.157885">
        <ele>527.541602</ele>
        <time>2020-09-10T07:26:47.776Z</time>
      </trkpt>
      <trkpt lat="48.642632" lon="10.157827">
        <ele>527.314871</ele>
        <time>2020-09-10T07:26:49.785Z</time>
      </trkpt>
      <trkpt lat="48.642504" lon="10.157781">
        <ele>527.223321</ele>
        <time>2020-09-10T07:26:51.780Z</time>
      </trkpt>
      <trkpt lat="48.642384" lon="10.157737">
        <ele>527.137399</ele>
        <time>2020-09-10T07:26:53.798Z</time>
      </trkpt>
      <trkpt lat="48.642272" lon="10.157710">
        <ele>527.058477</ele>
        <time>2020-09-10T07:26:55.788Z</time>
      </trkpt>
      <trkpt lat="48.642164" lon="10.157675">
        <ele>526.981617</ele>
        <time>2020-09-10T07:26:57.783Z</time>
      </trkpt>
      <trkpt lat="48.642051" lon="10.157637">
        <ele>526.901065</ele>
        <time>2020-09-10T07:26:59.780Z</time>
      </trkpt>
      <trkpt lat="48.641952" lon="10.157604">
        <ele>526.830521</ele>
        <time>2020-09-10T07:27:01.784Z</time>
      </trkpt>
      <trkpt lat="48.641821" lon="10.157592">
        <ele>526.739193</ele>
        <time>2020-09-10T07:27:04.776Z</time>
      </trkpt>
      <trkpt lat="48.641736" lon="10.157656">
        <ele>526.673126</ele>
        <time>2020-09-10T07:27:06.795Z</time>
      </trkpt>
      <trkpt lat="48.641681" lon="10.157781">
        <ele>526.604072</ele>
        <time>2020-09-10T07:27:08.778Z</time>
      </trkpt>
      <trkpt lat="48.641653" lon="10.157952">
        <ele>526.523065</ele>
        <time>2020-09-10T07:27:10.781Z</time>
      </trkpt>
      <trkpt lat="48.641633" lon="10.158126">
        <ele>526.441855</ele>
        <time>2020-09-10T07:27:12.790Z</time>
      </trkpt>
      <trkpt lat="48.641628" lon="10.158308">
        <ele>526.358096</ele>
        <time>2020-09-10T07:27:14.776Z</time>
      </trkpt>
      <trkpt lat="48.641628" lon="10.158496">
        <ele>526.271651</ele>
        <time>2020-09-10T07:27:16.786Z</time>
      </trkpt>
      <trkpt lat="48.641633" lon="10.158687">
        <ele>526.183756</ele>
        <time>2020-09-10T07:27:18.780Z</time>
      </trkpt>
      <trkpt lat="48.641642" lon="10.158878">
        <ele>526.107493</ele>
        <time>2020-09-10T07:27:20.778Z</time>
      </trkpt>
      <trkpt lat="48.641657" lon="10.159063">
        <ele>526.204151</ele>
        <time>2020-09-10T07:27:22.780Z</time>
      </trkpt>
      <trkpt lat="48.641666" lon="10.159257">
        <ele>526.305006</ele>
        <time>2020-09-10T07:27:24.786Z</time>
      </trkpt>
      <trkpt lat="48.641681" lon="10.159456">
        <ele>526.408874</ele>
        <time>2020-09-10T07:27:26.779Z</time>
      </trkpt>
      <trkpt lat="48.641691" lon="10.159651">
        <ele>526.510303</ele>
        <time>2020-09-10T07:27:28.780Z</time>
      </trkpt>
      <trkpt lat="48.641701" lon="10.159846">
        <ele>526.611732</ele>
        <time>2020-09-10T07:27:30.780Z</time>
      </trkpt>
      <trkpt lat="48.641715" lon="10.160047">
        <ele>526.716546</ele>
        <time>2020-09-10T07:27:32.782Z</time>
      </trkpt>
      <trkpt lat="48.641734" lon="10.160250">
        <ele>526.822871</ele>
        <time>2020-09-10T07:27:34.784Z</time>
      </trkpt>
      <trkpt lat="48.641750" lon="10.160454">
        <ele>526.929406</ele>
        <time>2020-09-10T07:27:36.777Z</time>
      </trkpt>
      <trkpt lat="48.641757" lon="10.160652">
        <ele>527.032233</ele>
        <time>2020-09-10T07:27:38.779Z</time>
      </trkpt>
      <trkpt lat="48.641770" lon="10.160846">
        <ele>527.133355</ele>
        <time>2020-09-10T07:27:40.782Z</time>
      </trkpt>
      <trkpt lat="48.641782" lon="10.161046">
        <ele>527.237500</ele>
        <time>2020-09-10T07:27:42.782Z</time>
      </trkpt>
      <trkpt lat="48.641796" lon="10.161246">
        <ele>527.341798</ele>
        <time>2020-09-10T07:27:44.782Z</time>
      </trkpt>
      <trkpt lat="48.641809" lon="10.161441">
        <ele>527.443436</ele>
        <time>2020-09-10T07:27:46.779Z</time>
      </trkpt>
      <trkpt lat="48.641820" lon="10.161638">
        <ele>527.484217</ele>
        <time>2020-09-10T07:27:48.783Z</time>
      </trkpt>
      <trkpt lat="48.641827" lon="10.161829">
        <ele>527.398281</ele>
        <time>2020-09-10T07:27:50.783Z</time>
      </trkpt>
      <trkpt lat="48.641845" lon="10.162017">
        <ele>527.312942</ele>
        <time>2020-09-10T07:27:52.803Z</time>
      </trkpt>
      <trkpt lat="48.641854" lon="10.162200">
        <ele>527.230504</ele>
        <time>2020-09-10T07:27:54.782Z</time>
      </trkpt>
      <trkpt lat="48.641865" lon="10.162368">
        <ele>527.154662</ele>
        <time>2020-09-10T07:27:56.782Z</time>
      </trkpt>
      <trkpt lat="48.641822" lon="10.162520">
        <ele>527.080383</ele>
        <time>2020-09-10T07:27:58.807Z</time>
      </trkpt>
      <trkpt lat="48.641710" lon="10.162597">
        <ele>526.996748</ele>
        <time>2020-09-10T07:28:00.774Z</time>
      </trkpt>
      <trkpt lat="48.641587" lon="10.162599">
        <ele>526.913118</ele>
        <time>2020-09-10T07:28:02.771Z</time>
      </trkpt>
      <trkpt lat="48.641462" lon="10.162595">
        <ele>526.828114</ele>
        <time>2020-09-10T07:28:04.792Z</time>
      </trkpt>
      <trkpt lat="48.641336" lon="10.162594">
        <ele>526.742448</ele>
        <time>2020-09-10T07:28:06.772Z</time>
      </trkpt>
      <trkpt lat="48.641221" lon="10.162591">
        <ele>526.664251</ele>
        <time>2020-09-10T07:28:08.779Z</time>
      </trkpt>
      <trkpt lat="48.641118" lon="10.162595">
        <ele>526.594200</ele>
        <time>2020-09-10T07:28:10.781Z</time>
      </trkpt>
      <trkpt lat="48.641013" lon="10.162582">
        <ele>526.522574</ele>
        <time>2020-09-10T07:28:12.777Z</time>
      </trkpt>
      <trkpt lat="48.640921" lon="10.162571">
        <ele>526.459831</ele>
        <time>2020-09-10T07:28:14.773Z</time>
      </trkpt>
      <trkpt lat="48.640824" lon="10.162561">
        <ele>526.393730</ele>
        <time>2020-09-10T07:28:16.781Z</time>
      </trkpt>
      <trkpt lat="48.640726" lon="10.162548">
        <ele>526.326846</ele>
        <time>2020-09-10T07:28:18.778Z</time>
      </trkpt>
      <trkpt lat="48.640632" lon="10.162546">
        <ele>526.292880</ele>
        <time>2020-09-10T07:28:20.794Z</time>
      </trkpt>
      <trkpt lat="48.640540" lon="10.162534">
        <ele>526.299508</ele>
        <time>2020-09-10T07:28:22.774Z</time>
      </trkpt>
      <trkpt lat="48.640444" lon="10.162524">
        <ele>526.306416</ele>
        <time>2020-09-10T07:28:24.773Z</time>
      </trkpt>
      <trkpt lat="48.640347" lon="10.162527">
        <ele>526.313381</ele>
        <time>2020-09-10T07:28:26.778Z</time>
      </trkpt>
      <trkpt lat="48.640234" lon="10.162528">
        <ele>526.321493</ele>
        <time>2020-09-10T07:28:28.772Z</time>
      </trkpt>
      <trkpt lat="48.640116" lon="10.162521">
        <ele>526.329970</ele>
        <time>2020-09-10T07:28:30.772Z</time>
      </trkpt>
      <trkpt lat="48.640003" lon="10.162517">
        <ele>526.338084</ele>
        <time>2020-09-10T07:28:32.778Z</time>
      </trkpt>
      <trkpt lat="48.639891" lon="10.162507">
        <ele>526.346139</ele>
        <time>2020-09-10T07:28:34.776Z</time>
      </trkpt>
      <trkpt lat="48.639785" lon="10.162502">
        <ele>526.353752</ele>
        <time>2020-09-10T07:28:36.778Z</time>
      </trkpt>
      <trkpt lat="48.639686" lon="10.162496">
        <ele>526.360864</ele>
        <time>2020-09-10T07:28:38.777Z</time>
      </trkpt>
      <trkpt lat="48.639590" lon="10.162485">
        <ele>526.367775</ele>
        <time>2020-09-10T07:28:40.774Z</time>
      </trkpt>
      <trkpt lat="48.639494" lon="10.162473">
        <ele>526.374690</ele>
        <time>2020-09-10T07:28:42.777Z</time>
      </trkpt>
      <trkpt lat="48.639402" lon="10.162460">
        <ele>526.381323</ele>
        <time>2020-09-10T07:28:44.774Z</time>
      </trkpt>
      <trkpt lat="48.639276" lon="10.162451">
        <ele>526.390379</ele>
        <time>2020-09-10T07:28:47.774Z</time>
      </trkpt>
      <trkpt lat="48.639150" lon="10.162445">
        <ele>526.399428</ele>
        <time>2020-09-10T07:28:50.770Z</time>
      </trkpt>
      <trkpt lat="48.639031" lon="10.162429">
        <ele>526.408004</ele>
        <time>2020-09-10T07:28:53.776Z</time>
      </trkpt>
      <trkpt lat="48.638914" lon="10.162419">
        <ele>526.416417</ele>
        <time>2020-09-10T07:28:56.777Z</time>
      </trkpt>
      <trkpt lat="48.638811" lon="10.162409">
        <ele>526.406578</ele>
        <time>2020-09-10T07:28:59.776Z</time>
      </trkpt>
      <trkpt lat="48.638710" lon="10.162388">
        <ele>526.386971</ele>
        <time>2020-09-10T07:29:02.777Z</time>
      </trkpt>
      <trkpt lat="48.638614" lon="10.162380">
        <ele>526.368480</ele>
        <time>2020-09-10T07:29:05.779Z</time>
      </trkpt>
      <trkpt lat="48.638510" lon="10.162367">
        <ele>526.348411</ele>
        <time>2020-09-10T07:29:09.780Z</time>
      </trkpt>
      <trkpt lat="48.638399" lon="10.162362">
        <ele>526.327054</ele>
        <time>2020-09-10T07:29:14.786Z</time>
      </trkpt>
      <trkpt lat="48.638301" lon="10.162350">
        <ele>526.308145</ele>
        <time>2020-09-10T07:29:17.777Z</time>
      </trkpt>
      <trkpt lat="48.638185" lon="10.162326">
        <ele>526.285628</ele>
        <time>2020-09-10T07:29:20.783Z</time>
      </trkpt>
      <trkpt lat="48.638088" lon="10.162294">
        <ele>526.266535</ele>
        <time>2020-09-10T07:29:22.776Z</time>
      </trkpt>
      <trkpt lat="48.637980" lon="10.162279">
        <ele>526.245677</ele>
        <time>2020-09-10T07:29:24.800Z</time>
      </trkpt>
      <trkpt lat="48.637857" lon="10.162258">
        <ele>526.221871</ele>
        <time>2020-09-10T07:29:26.776Z</time>
      </trkpt>
      <trkpt lat="48.637725" lon="10.162242">
        <ele>526.196404</ele>
        <time>2020-09-10T07:29:28.782Z</time>
      </trkpt>
      <trkpt lat="48.637586" lon="10.162224">
        <ele>526.169574</ele>
        <time>2020-09-10T07:29:30.775Z</time>
      </trkpt>
      <trkpt lat="48.637449" lon="10.162204">
        <ele>526.143104</ele>
        <time>2020-09-10T07:29:32.780Z</time>
      </trkpt>
      <trkpt lat="48.637312" lon="10.162184">
        <ele>526.116633</ele>
        <time>2020-09-10T07:29:34.782Z</time>
      </trkpt>
      <trkpt lat="48.637174" lon="10.162153">
        <ele>526.089802</ele>
        <time>2020-09-10T07:29:36.774Z</time>
      </trkpt>
      <trkpt lat="48.637043" lon="10.162131">
        <ele>526.059193</ele>
        <time>2020-09-10T07:29:38.787Z</time>
      </trkpt>
      <trkpt lat="48.636911" lon="10.162129">
        <ele>526.018576</ele>
        <time>2020-09-10T07:29:40.784Z</time>
      </trkpt>
      <trkpt lat="48.636780" lon="10.162120">
        <ele>525.978226</ele>
        <time>2020-09-10T07:29:42.782Z</time>
      </trkpt>
      <trkpt lat="48.636650" lon="10.162107">
        <ele>525.938139</ele>
        <time>2020-09-10T07:29:44.787Z</time>
      </trkpt>
      <trkpt lat="48.636523" lon="10.162086">
        <ele>525.898829</ele>
        <time>2020-09-10T07:29:46.775Z</time>
      </trkpt>
      <trkpt lat="48.636394" lon="10.162067">
        <ele>525.858949</ele>
        <time>2020-09-10T07:29:48.782Z</time>
      </trkpt>
      <trkpt lat="48.636261" lon="10.162045">
        <ele>525.817782</ele>
        <time>2020-09-10T07:29:50.781Z</time>
      </trkpt>
      <trkpt lat="48.636127" lon="10.162024">
        <ele>525.776330</ele>
        <time>2020-09-10T07:29:52.779Z</time>
      </trkpt>
      <trkpt lat="48.635992" lon="10.162009">
        <ele>525.734680</ele>
        <time>2020-09-10T07:29:54.786Z</time>
      </trkpt>
      <trkpt lat="48.635859" lon="10.161998">
        <ele>525.693695</ele>
        <time>2020-09-10T07:29:56.785Z</time>
      </trkpt>
      <trkpt lat="48.635728" lon="10.161981">
        <ele>525.653239</ele>
        <time>2020-09-10T07:29:58.779Z</time>
      </trkpt>
      <trkpt lat="48.635594" lon="10.161958">
        <ele>525.611744</ele>
        <time>2020-09-10T07:30:00.783Z</time>
      </trkpt>
      <trkpt lat="48.635459" lon="10.161938">
        <ele>525.570007</ele>
        <time>2020-09-10T07:30:02.787Z</time>
      </trkpt>
      <trkpt lat="48.635325" lon="10.161915">
        <ele>525.528511</ele>
        <time>2020-09-10T07:30:04.787Z</time>
      </trkpt>
      <trkpt lat="48.635194" lon="10.161886">
        <ele>525.551929</ele>
        <time>2020-09-10T07:30:06.785Z</time>
      </trkpt>
      <trkpt lat="48.635060" lon="10.161859">
        <ele>525.593684</ele>
        <time>2020-09-10T07:30:08.777Z</time>
      </trkpt>
      <trkpt lat="48.634931" lon="10.161837">
        <ele>525.633782</ele>
        <time>2020-09-10T07:30:10.792Z</time>
      </trkpt>
      <trkpt lat="48.634801" lon="10.161805">
        <ele>525.674463</ele>
        <time>2020-09-10T07:30:12.784Z</time>
      </trkpt>
      <trkpt lat="48.634666" lon="10.161768">
        <ele>525.716840</ele>
        <time>2020-09-10T07:30:14.775Z</time>
      </trkpt>
      <trkpt lat="48.634528" lon="10.161730">
        <ele>525.760165</ele>
        <time>2020-09-10T07:30:16.774Z</time>
      </trkpt>
      <trkpt lat="48.634391" lon="10.161694">
        <ele>525.803114</ele>
        <time>2020-09-10T07:30:18.774Z</time>
      </trkpt>
      <trkpt lat="48.634264" lon="10.161660">
        <ele>525.842951</ele>
        <time>2020-09-10T07:30:20.773Z</time>
      </trkpt>
      <trkpt lat="48.634135" lon="10.161618">
        <ele>525.883708</ele>
        <time>2020-09-10T07:30:22.776Z</time>
      </trkpt>
      <trkpt lat="48.634022" lon="10.161559">
        <ele>525.920630</ele>
        <time>2020-09-10T07:30:24.783Z</time>
      </trkpt>
      <trkpt lat="48.633922" lon="10.161486">
        <ele>525.954925</ele>
        <time>2020-09-10T07:30:26.759Z</time>
      </trkpt>
      <trkpt lat="48.633831" lon="10.161395">
        <ele>525.988616</ele>
        <time>2020-09-10T07:30:28.778Z</time>
      </trkpt>
      <trkpt lat="48.633732" lon="10.161287">
        <ele>526.026313</ele>
        <time>2020-09-10T07:30:31.785Z</time>
      </trkpt>
      <trkpt lat="48.633663" lon="10.161186">
        <ele>526.055966</ele>
        <time>2020-09-10T07:30:33.783Z</time>
      </trkpt>
      <trkpt lat="48.633601" lon="10.161065">
        <ele>526.095729</ele>
        <time>2020-09-10T07:30:36.776Z</time>
      </trkpt>
      <trkpt lat="48.633542" lon="10.160958">
        <ele>526.144567</ele>
        <time>2020-09-10T07:30:42.777Z</time>
      </trkpt>
      <trkpt lat="48.633497" lon="10.160837">
        <ele>526.193227</ele>
        <time>2020-09-10T07:30:45.775Z</time>
      </trkpt>
      <trkpt lat="48.633463" lon="10.160669">
        <ele>526.254803</ele>
        <time>2020-09-10T07:30:48.784Z</time>
      </trkpt>
      <trkpt lat="48.633430" lon="10.160538">
        <ele>526.303936</ele>
        <time>2020-09-10T07:30:50.779Z</time>
      </trkpt>
      <trkpt lat="48.633389" lon="10.160412">
        <ele>526.353158</ele>
        <time>2020-09-10T07:30:52.776Z</time>
      </trkpt>
      <trkpt lat="48.633348" lon="10.160282">
        <ele>526.403640</ele>
        <time>2020-09-10T07:30:54.780Z</time>
      </trkpt>
      <trkpt lat="48.633308" lon="10.160150">
        <ele>526.454533</ele>
        <time>2020-09-10T07:30:56.774Z</time>
      </trkpt>
      <trkpt lat="48.633246" lon="10.160031">
        <ele>526.507640</ele>
        <time>2020-09-10T07:30:59.775Z</time>
      </trkpt>
      <trkpt lat="48.633182" lon="10.159915">
        <ele>526.560599</ele>
        <time>2020-09-10T07:31:02.776Z</time>
      </trkpt>
      <trkpt lat="48.633104" lon="10.159757">
        <ele>526.629716</ele>
        <time>2020-09-10T07:31:05.775Z</time>
      </trkpt>
      <trkpt lat="48.633051" lon="10.159642">
        <ele>526.678852</ele>
        <time>2020-09-10T07:31:07.786Z</time>
      </trkpt>
      <trkpt lat="48.632997" lon="10.159524">
        <ele>526.729154</ele>
        <time>2020-09-10T07:31:09.771Z</time>
      </trkpt>
      <trkpt lat="48.632944" lon="10.159387">
        <ele>526.784790</ele>
        <time>2020-09-10T07:31:11.771Z</time>
      </trkpt>
      <trkpt lat="48.632900" lon="10.159261">
        <ele>526.834734</ele>
        <time>2020-09-10T07:31:13.769Z</time>
      </trkpt>
      <trkpt lat="48.632830" lon="10.159089">
        <ele>526.905528</ele>
        <time>2020-09-10T07:31:16.775Z</time>
      </trkpt>
      <trkpt lat="48.632764" lon="10.158916">
        <ele>526.975536</ele>
        <time>2020-09-10T07:31:19.789Z</time>
      </trkpt>
      <trkpt lat="48.632718" lon="10.158782">
        <ele>527.028456</ele>
        <time>2020-09-10T07:31:21.765Z</time>
      </trkpt>
      <trkpt lat="48.632679" lon="10.158634">
        <ele>526.996759</ele>
        <time>2020-09-10T07:31:23.776Z</time>
      </trkpt>
      <trkpt lat="48.632626" lon="10.158481">
        <ele>526.961153</ele>
        <time>2020-09-10T07:31:25.783Z</time>
      </trkpt>
      <trkpt lat="48.632555" lon="10.158352">
        <ele>526.926549</ele>
        <time>2020-09-10T07:31:27.777Z</time>
      </trkpt>
      <trkpt lat="48.632469" lon="10.158231">
        <ele>526.889922</ele>
        <time>2020-09-10T07:31:29.775Z</time>
      </trkpt>
      <trkpt lat="48.632363" lon="10.158162">
        <ele>526.853932</ele>
        <time>2020-09-10T07:31:31.765Z</time>
      </trkpt>
      <trkpt lat="48.632250" lon="10.158131">
        <ele>526.818114</ele>
        <time>2020-09-10T07:31:33.778Z</time>
      </trkpt>
      <trkpt lat="48.632137" lon="10.158093">
        <ele>526.782010</ele>
        <time>2020-09-10T07:31:35.773Z</time>
      </trkpt>
      <trkpt lat="48.632013" lon="10.158067">
        <ele>526.742966</ele>
        <time>2020-09-10T07:31:37.782Z</time>
      </trkpt>
      <trkpt lat="48.631896" lon="10.158031">
        <ele>526.705728</ele>
        <time>2020-09-10T07:31:39.778Z</time>
      </trkpt>
      <trkpt lat="48.631780" lon="10.157993">
        <ele>526.668710</ele>
        <time>2020-09-10T07:31:41.769Z</time>
      </trkpt>
      <trkpt lat="48.631666" lon="10.157951">
        <ele>526.632116</ele>
        <time>2020-09-10T07:31:43.773Z</time>
      </trkpt>
      <trkpt lat="48.631547" lon="10.157919">
        <ele>526.594419</ele>
        <time>2020-09-10T07:31:45.773Z</time>
      </trkpt>
      <trkpt lat="48.631435" lon="10.157899">
        <ele>526.559245</ele>
        <time>2020-09-10T07:31:47.791Z</time>
      </trkpt>
      <trkpt lat="48.631340" lon="10.157883">
        <ele>526.529432</ele>
        <time>2020-09-10T07:31:49.782Z</time>
      </trkpt>
      <trkpt lat="48.631215" lon="10.157833">
        <ele>526.489106</ele>
        <time>2020-09-10T07:31:52.778Z</time>
      </trkpt>
      <trkpt lat="48.631160" lon="10.157657">
        <ele>526.414789</ele>
        <time>2020-09-10T07:31:55.776Z</time>
      </trkpt>
      <trkpt lat="48.631156" lon="10.157509">
        <ele>526.329943</ele>
        <time>2020-09-10T07:31:57.774Z</time>
      </trkpt>
      <trkpt lat="48.631151" lon="10.157341">
        <ele>526.233615</ele>
        <time>2020-09-10T07:31:59.792Z</time>
      </trkpt>
      <trkpt lat="48.631148" lon="10.157154">
        <ele>526.126469</ele>
        <time>2020-09-10T07:32:01.781Z</time>
      </trkpt>
      <trkpt lat="48.631140" lon="10.156964">
        <ele>526.017416</ele>
        <time>2020-09-10T07:32:03.780Z</time>
      </trkpt>
      <trkpt lat="48.631137" lon="10.156781">
        <ele>525.912560</ele>
        <time>2020-09-10T07:32:05.791Z</time>
      </trkpt>
      <trkpt lat="48.631132" lon="10.156597">
        <ele>525.807076</ele>
        <time>2020-09-10T07:32:07.781Z</time>
      </trkpt>
      <trkpt lat="48.631137" lon="10.156418">
        <ele>525.704452</ele>
        <time>2020-09-10T07:32:09.778Z</time>
      </trkpt>
      <trkpt lat="48.631145" lon="10.156247">
        <ele>525.606258</ele>
        <time>2020-09-10T07:32:11.788Z</time>
      </trkpt>
      <trkpt lat="48.631168" lon="10.156087">
        <ele>525.512467</ele>
        <time>2020-09-10T07:32:13.776Z</time>
      </trkpt>
      <trkpt lat="48.631208" lon="10.155929">
        <ele>525.415551</ele>
        <time>2020-09-10T07:32:15.778Z</time>
      </trkpt>
      <trkpt lat="48.631265" lon="10.155766">
        <ele>525.309920</ele>
        <time>2020-09-10T07:32:17.786Z</time>
      </trkpt>
      <trkpt lat="48.631340" lon="10.155610">
        <ele>525.199422</ele>
        <time>2020-09-10T07:32:19.754Z</time>
      </trkpt>
      <trkpt lat="48.631427" lon="10.155485">
        <ele>525.095440</ele>
        <time>2020-09-10T07:32:21.783Z</time>
      </trkpt>
      <trkpt lat="48.631531" lon="10.155378">
        <ele>524.986440</ele>
        <time>2020-09-10T07:32:23.778Z</time>
      </trkpt>
      <trkpt lat="48.631639" lon="10.155291">
        <ele>524.913376</ele>
        <time>2020-09-10T07:32:25.771Z</time>
      </trkpt>
      <trkpt lat="48.631757" lon="10.155241">
        <ele>524.928282</ele>
        <time>2020-09-10T07:32:27.776Z</time>
      </trkpt>
      <trkpt lat="48.631877" lon="10.155196">
        <ele>524.943320</ele>
        <time>2020-09-10T07:32:29.807Z</time>
      </trkpt>
      <trkpt lat="48.631991" lon="10.155170">
        <ele>524.957343</ele>
        <time>2020-09-10T07:32:31.758Z</time>
      </trkpt>
      <trkpt lat="48.632108" lon="10.155151">
        <ele>524.971656</ele>
        <time>2020-09-10T07:32:33.782Z</time>
      </trkpt>
      <trkpt lat="48.632226" lon="10.155118">
        <ele>524.986252</ele>
        <time>2020-09-10T07:32:35.774Z</time>
      </trkpt>
      <trkpt lat="48.632343" lon="10.155083">
        <ele>525.000759</ele>
        <time>2020-09-10T07:32:37.790Z</time>
      </trkpt>
      <trkpt lat="48.632458" lon="10.155030">
        <ele>525.015382</ele>
        <time>2020-09-10T07:32:39.789Z</time>
      </trkpt>
      <trkpt lat="48.632574" lon="10.154968">
        <ele>525.030346</ele>
        <time>2020-09-10T07:32:41.773Z</time>
      </trkpt>
      <trkpt lat="48.632685" lon="10.154889">
        <ele>525.045266</ele>
        <time>2020-09-10T07:32:43.778Z</time>
      </trkpt>
      <trkpt lat="48.632784" lon="10.154793">
        <ele>525.059569</ele>
        <time>2020-09-10T07:32:45.770Z</time>
      </trkpt>
      <trkpt lat="48.632875" lon="10.154687">
        <ele>525.073538</ele>
        <time>2020-09-10T07:32:47.825Z</time>
      </trkpt>
      <trkpt lat="48.632959" lon="10.154577">
        <ele>525.087050</ele>
        <time>2020-09-10T07:32:49.753Z</time>
      </trkpt>
      <trkpt lat="48.633033" lon="10.154443">
        <ele>525.101088</ele>
        <time>2020-09-10T07:32:51.776Z</time>
      </trkpt>
      <trkpt lat="48.633113" lon="10.154305">
        <ele>525.115844</ele>
        <time>2020-09-10T07:32:53.781Z</time>
      </trkpt>
      <trkpt lat="48.633187" lon="10.154151">
        <ele>525.135575</ele>
        <time>2020-09-10T07:32:55.772Z</time>
      </trkpt>
      <trkpt lat="48.633253" lon="10.153983">
        <ele>525.174062</ele>
        <time>2020-09-10T07:32:57.800Z</time>
      </trkpt>
      <trkpt lat="48.633311" lon="10.153818">
        <ele>525.210864</ele>
        <time>2020-09-10T07:32:59.770Z</time>
      </trkpt>
      <trkpt lat="48.633365" lon="10.153638">
        <ele>525.249791</ele>
        <time>2020-09-10T07:33:01.783Z</time>
      </trkpt>
      <trkpt lat="48.633417" lon="10.153458">
        <ele>525.288476</ele>
        <time>2020-09-10T07:33:03.776Z</time>
      </trkpt>
      <trkpt lat="48.633468" lon="10.153274">
        <ele>525.327767</ele>
        <time>2020-09-10T07:33:05.778Z</time>
      </trkpt>
      <trkpt lat="48.633521" lon="10.153096">
        <ele>525.366212</ele>
        <time>2020-09-10T07:33:07.754Z</time>
      </trkpt>
      <trkpt lat="48.633584" lon="10.152924">
        <ele>525.404937</ele>
        <time>2020-09-10T07:33:09.747Z</time>
      </trkpt>
      <trkpt lat="48.633641" lon="10.152753">
        <ele>525.442651</ele>
        <time>2020-09-10T07:33:11.772Z</time>
      </trkpt>
      <trkpt lat="48.633702" lon="10.152584">
        <ele>525.480571</ele>
        <time>2020-09-10T07:33:13.771Z</time>
      </trkpt>
      <trkpt lat="48.633766" lon="10.152409">
        <ele>525.519956</ele>
        <time>2020-09-10T07:33:15.759Z</time>
      </trkpt>
      <trkpt lat="48.633826" lon="10.152241">
        <ele>525.557560</ele>
        <time>2020-09-10T07:33:17.772Z</time>
      </trkpt>
      <trkpt lat="48.633888" lon="10.152073">
        <ele>525.595452</ele>
        <time>2020-09-10T07:33:19.782Z</time>
      </trkpt>
      <trkpt lat="48.633952" lon="10.151925">
        <ele>525.630280</ele>
        <time>2020-09-10T07:33:21.773Z</time>
      </trkpt>
      <trkpt lat="48.634018" lon="10.151786">
        <ele>525.663984</ele>
        <time>2020-09-10T07:33:23.781Z</time>
      </trkpt>
      <trkpt lat="48.634089" lon="10.151664">
        <ele>525.905174</ele>
        <time>2020-09-10T07:33:25.777Z</time>
      </trkpt>
      <trkpt lat="48.634162" lon="10.151550">
        <ele>526.141048</ele>
        <time>2020-09-10T07:33:27.777Z</time>
      </trkpt>
      <trkpt lat="48.634234" lon="10.151430">
        <ele>526.381888</ele>
        <time>2020-09-10T07:33:29.781Z</time>
      </trkpt>
      <trkpt lat="48.634303" lon="10.151308">
        <ele>526.620495</ele>
        <time>2020-09-10T07:33:31.780Z</time>
      </trkpt>
      <trkpt lat="48.634375" lon="10.151185">
        <ele>526.864653</ele>
        <time>2020-09-10T07:33:33.773Z</time>
      </trkpt>
      <trkpt lat="48.634444" lon="10.151060">
        <ele>527.106664</ele>
        <time>2020-09-10T07:33:35.771Z</time>
      </trkpt>
      <trkpt lat="48.634516" lon="10.150959">
        <ele>527.327417</ele>
        <time>2020-09-10T07:33:37.782Z</time>
      </trkpt>
      <trkpt lat="48.634608" lon="10.150837">
        <ele>527.602470</ele>
        <time>2020-09-10T07:33:40.779Z</time>
      </trkpt>
      <trkpt lat="48.634663" lon="10.150678">
        <ele>527.869140</ele>
        <time>2020-09-10T07:33:44.787Z</time>
      </trkpt>
      <trkpt lat="48.634640" lon="10.150514">
        <ele>528.118257</ele>
        <time>2020-09-10T07:33:47.772Z</time>
      </trkpt>
      <trkpt lat="48.634574" lon="10.150418">
        <ele>528.324099</ele>
        <time>2020-09-10T07:33:49.772Z</time>
      </trkpt>
      <trkpt lat="48.634503" lon="10.150314">
        <ele>528.546285</ele>
        <time>2020-09-10T07:33:51.780Z</time>
      </trkpt>
      <trkpt lat="48.634430" lon="10.150224">
        <ele>528.758007</ele>
        <time>2020-09-10T07:33:53.774Z</time>
      </trkpt>
      <trkpt lat="48.634349" lon="10.150138">
        <ele>528.980493</ele>
        <time>2020-09-10T07:33:55.781Z</time>
      </trkpt>
      <trkpt lat="48.634258" lon="10.150065">
        <ele>529.212079</ele>
        <time>2020-09-10T07:33:57.781Z</time>
      </trkpt>
      <trkpt lat="48.634166" lon="10.149989">
        <ele>529.447757</ele>
        <time>2020-09-10T07:33:59.792Z</time>
      </trkpt>
      <trkpt lat="48.634071" lon="10.149942">
        <ele>529.672489</ele>
        <time>2020-09-10T07:34:01.783Z</time>
      </trkpt>
      <trkpt lat="48.633970" lon="10.149904">
        <ele>529.803595</ele>
        <time>2020-09-10T07:34:03.776Z</time>
      </trkpt>
      <trkpt lat="48.633872" lon="10.149863">
        <ele>529.913554</ele>
        <time>2020-09-10T07:34:05.784Z</time>
      </trkpt>
      <trkpt lat="48.633777" lon="10.149832">
        <ele>530.018653</ele>
        <time>2020-09-10T07:34:07.787Z</time>
      </trkpt>
      <trkpt lat="48.633671" lon="10.149795">
        <ele>530.136297</ele>
        <time>2020-09-10T07:34:09.766Z</time>
      </trkpt>
      <trkpt lat="48.633565" lon="10.149755">
        <ele>530.254442</ele>
        <time>2020-09-10T07:34:11.780Z</time>
      </trkpt>
      <trkpt lat="48.633454" lon="10.149712">
        <ele>530.378355</ele>
        <time>2020-09-10T07:34:13.781Z</time>
      </trkpt>
      <trkpt lat="48.633346" lon="10.149670">
        <ele>530.498947</ele>
        <time>2020-09-10T07:34:15.758Z</time>
      </trkpt>
      <trkpt lat="48.633230" lon="10.149648">
        <ele>530.625377</ele>
        <time>2020-09-10T07:34:17.770Z</time>
      </trkpt>
      <trkpt lat="48.633112" lon="10.149625">
        <ele>530.754042</ele>
        <time>2020-09-10T07:34:19.777Z</time>
      </trkpt>
      <trkpt lat="48.633004" lon="10.149593">
        <ele>530.873057</ele>
        <time>2020-09-10T07:34:21.778Z</time>
      </trkpt>
      <trkpt lat="48.632897" lon="10.149569">
        <ele>530.990037</ele>
        <time>2020-09-10T07:34:23.771Z</time>
      </trkpt>
      <trkpt lat="48.632789" lon="10.149543">
        <ele>531.108302</ele>
        <time>2020-09-10T07:34:25.773Z</time>
      </trkpt>
      <trkpt lat="48.632681" lon="10.149509">
        <ele>531.227600</ele>
        <time>2020-09-10T07:34:27.778Z</time>
      </trkpt>
      <trkpt lat="48.632576" lon="10.149481">
        <ele>531.342902</ele>
        <time>2020-09-10T07:34:29.783Z</time>
      </trkpt>
      <trkpt lat="48.632465" lon="10.149452">
        <ele>531.464720</ele>
        <time>2020-09-10T07:34:31.771Z</time>
      </trkpt>
      <trkpt lat="48.632365" lon="10.149434">
        <ele>531.573627</ele>
        <time>2020-09-10T07:34:33.786Z</time>
      </trkpt>
      <trkpt lat="48.632259" lon="10.149415">
        <ele>531.691244</ele>
        <time>2020-09-10T07:34:35.776Z</time>
      </trkpt>
      <trkpt lat="48.632157" lon="10.149386">
        <ele>531.810345</ele>
        <time>2020-09-10T07:34:37.774Z</time>
      </trkpt>
      <trkpt lat="48.632049" lon="10.149366">
        <ele>531.935207</ele>
        <time>2020-09-10T07:34:39.772Z</time>
      </trkpt>
      <trkpt lat="48.631955" lon="10.149367">
        <ele>532.043082</ele>
        <time>2020-09-10T07:34:41.770Z</time>
      </trkpt>
      <trkpt lat="48.631859" lon="10.149382">
        <ele>532.153835</ele>
        <time>2020-09-10T07:34:43.776Z</time>
      </trkpt>
      <trkpt lat="48.631763" lon="10.149411">
        <ele>532.266176</ele>
        <time>2020-09-10T07:34:45.788Z</time>
      </trkpt>
      <trkpt lat="48.631660" lon="10.149432">
        <ele>532.385444</ele>
        <time>2020-09-10T07:34:47.781Z</time>
      </trkpt>
      <trkpt lat="48.631564" lon="10.149457">
        <ele>532.497230</ele>
        <time>2020-09-10T07:34:49.777Z</time>
      </trkpt>
      <trkpt lat="48.631466" lon="10.149467">
        <ele>532.609948</ele>
        <time>2020-09-10T07:34:51.785Z</time>
      </trkpt>
      <trkpt lat="48.631346" lon="10.149446">
        <ele>532.748575</ele>
        <time>2020-09-10T07:34:54.774Z</time>
      </trkpt>
      <trkpt lat="48.631220" lon="10.149383">
        <ele>532.900859</ele>
        <time>2020-09-10T07:34:57.775Z</time>
      </trkpt>
      <trkpt lat="48.631132" lon="10.149315">
        <ele>533.014252</ele>
        <time>2020-09-10T07:34:59.772Z</time>
      </trkpt>
      <trkpt lat="48.631056" lon="10.149213">
        <ele>533.130834</ele>
        <time>2020-09-10T07:35:01.797Z</time>
      </trkpt>
      <trkpt lat="48.630987" lon="10.149083">
        <ele>533.257290</ele>
        <time>2020-09-10T07:35:03.770Z</time>
      </trkpt>
      <trkpt lat="48.630923" lon="10.148934">
        <ele>533.392067</ele>
        <time>2020-09-10T07:35:05.772Z</time>
      </trkpt>
      <trkpt lat="48.630879" lon="10.148785">
        <ele>533.515842</ele>
        <time>2020-09-10T07:35:07.790Z</time>
      </trkpt>
      <trkpt lat="48.630835" lon="10.148640">
        <ele>533.636853</ele>
        <time>2020-09-10T07:35:09.783Z</time>
      </trkpt>
      <trkpt lat="48.630801" lon="10.148500">
        <ele>533.725615</ele>
        <time>2020-09-10T07:35:11.774Z</time>
      </trkpt>
      <trkpt lat="48.630759" lon="10.148363">
        <ele>533.754360</ele>
        <time>2020-09-10T07:35:13.788Z</time>
      </trkpt>
      <trkpt lat="48.630693" lon="10.148230">
        <ele>533.786016</ele>
        <time>2020-09-10T07:35:15.778Z</time>
      </trkpt>
      <trkpt lat="48.630596" lon="10.148117">
        <ele>533.821272</ele>
        <time>2020-09-10T07:35:17.782Z</time>
      </trkpt>
      <trkpt lat="48.630484" lon="10.148036">
        <ele>533.857022</ele>
        <time>2020-09-10T07:35:19.782Z</time>
      </trkpt>
      <trkpt lat="48.630364" lon="10.148023">
        <ele>533.891670</ele>
        <time>2020-09-10T07:35:21.774Z</time>
      </trkpt>
      <trkpt lat="48.630242" lon="10.148049">
        <ele>533.927152</ele>
        <time>2020-09-10T07:35:23.774Z</time>
      </trkpt>
      <trkpt lat="48.630119" lon="10.148092">
        <ele>533.963508</ele>
        <time>2020-09-10T07:35:25.785Z</time>
      </trkpt>
      <trkpt lat="48.629997" lon="10.148124">
        <ele>533.999167</ele>
        <time>2020-09-10T07:35:27.774Z</time>
      </trkpt>
      <trkpt lat="48.629867" lon="10.148154">
        <ele>534.037039</ele>
        <time>2020-09-10T07:35:29.780Z</time>
      </trkpt>
      <trkpt lat="48.629728" lon="10.148186">
        <ele>534.077531</ele>
        <time>2020-09-10T07:35:31.791Z</time>
      </trkpt>
      <trkpt lat="48.629595" lon="10.148227">
        <ele>534.116620</ele>
        <time>2020-09-10T07:35:33.773Z</time>
      </trkpt>
      <trkpt lat="48.629456" lon="10.148255">
        <ele>534.157005</ele>
        <time>2020-09-10T07:35:35.777Z</time>
      </trkpt>
      <trkpt lat="48.629323" lon="10.148271">
        <ele>534.195428</ele>
        <time>2020-09-10T07:35:37.783Z</time>
      </trkpt>
      <trkpt lat="48.629197" lon="10.148285">
        <ele>534.231813</ele>
        <time>2020-09-10T07:35:39.777Z</time>
      </trkpt>
      <trkpt lat="48.629078" lon="10.148298">
        <ele>534.012112</ele>
        <time>2020-09-10T07:35:41.780Z</time>
      </trkpt>
      <trkpt lat="48.628964" lon="10.148305">
        <ele>533.773274</ele>
        <time>2020-09-10T07:35:43.774Z</time>
      </trkpt>
      <trkpt lat="48.628856" lon="10.148305">
        <ele>533.547193</ele>
        <time>2020-09-10T07:35:45.779Z</time>
      </trkpt>
      <trkpt lat="48.628741" lon="10.148300">
        <ele>533.306359</ele>
        <time>2020-09-10T07:35:47.774Z</time>
      </trkpt>
      <trkpt lat="48.628621" lon="10.148281">
        <ele>533.053785</ele>
        <time>2020-09-10T07:35:49.779Z</time>
      </trkpt>
      <trkpt lat="48.628503" lon="10.148263">
        <ele>532.805518</ele>
        <time>2020-09-10T07:35:51.781Z</time>
      </trkpt>
      <trkpt lat="48.628391" lon="10.148238">
        <ele>532.568526</ele>
        <time>2020-09-10T07:35:53.785Z</time>
      </trkpt>
      <trkpt lat="48.628266" lon="10.148214">
        <ele>532.304759</ele>
        <time>2020-09-10T07:35:56.779Z</time>
      </trkpt>
      <trkpt lat="48.628191" lon="10.148293">
        <ele>532.113457</ele>
        <time>2020-09-10T07:36:00.772Z</time>
      </trkpt>
      <trkpt lat="48.628175" lon="10.148449">
        <ele>531.895035</ele>
        <time>2020-09-10T07:36:02.755Z</time>
      </trkpt>
      <trkpt lat="48.628167" lon="10.148649">
        <ele>531.617813</ele>
        <time>2020-09-10T07:36:04.774Z</time>
      </trkpt>
      <trkpt lat="48.628176" lon="10.148868">
        <ele>531.314223</ele>
        <time>2020-09-10T07:36:06.773Z</time>
      </trkpt>
      <trkpt lat="48.628190" lon="10.149093">
        <ele>531.001541</ele>
        <time>2020-09-10T07:36:08.777Z</time>
      </trkpt>
      <trkpt lat="48.628200" lon="10.149302">
        <ele>530.711615</ele>
        <time>2020-09-10T07:36:10.776Z</time>
      </trkpt>
      <trkpt lat="48.628216" lon="10.149512">
        <ele>530.373205</ele>
        <time>2020-09-10T07:36:12.781Z</time>
      </trkpt>
      <trkpt lat="48.628224" lon="10.149730">
        <ele>529.799715</ele>
        <time>2020-09-10T07:36:14.782Z</time>
      </trkpt>
      <trkpt lat="48.628232" lon="10.149947">
        <ele>529.228848</ele>
        <time>2020-09-10T07:36:16.784Z</time>
      </trkpt>
      <trkpt lat="48.628247" lon="10.150175">
        <ele>528.627015</ele>
        <time>2020-09-10T07:36:18.777Z</time>
      </trkpt>
      <trkpt lat="48.628259" lon="10.150419">
        <ele>527.984343</ele>
        <time>2020-09-10T07:36:20.770Z</time>
      </trkpt>
      <trkpt lat="48.628273" lon="10.150675">
        <ele>527.309625</ele>
        <time>2020-09-10T07:36:22.777Z</time>
      </trkpt>
      <trkpt lat="48.628290" lon="10.150930">
        <ele>526.636434</ele>
        <time>2020-09-10T07:36:24.772Z</time>
      </trkpt>
      <trkpt lat="48.628287" lon="10.151158">
        <ele>526.037442</ele>
        <time>2020-09-10T07:36:26.783Z</time>
      </trkpt>
      <trkpt lat="48.628261" lon="10.151379">
        <ele>525.447830</ele>
        <time>2020-09-10T07:36:28.790Z</time>
      </trkpt>
      <trkpt lat="48.628243" lon="10.151607">
        <ele>524.844700</ele>
        <time>2020-09-10T07:36:30.771Z</time>
      </trkpt>
      <trkpt lat="48.628227" lon="10.151819">
        <ele>524.284233</ele>
        <time>2020-09-10T07:36:32.778Z</time>
      </trkpt>
      <trkpt lat="48.628212" lon="10.152016">
        <ele>523.763362</ele>
        <time>2020-09-10T07:36:34.783Z</time>
      </trkpt>
      <trkpt lat="48.628188" lon="10.152203">
        <ele>523.323717</ele>
        <time>2020-09-10T07:36:36.774Z</time>
      </trkpt>
      <trkpt lat="48.628172" lon="10.152376">
        <ele>523.334652</ele>
        <time>2020-09-10T07:36:38.778Z</time>
      </trkpt>
      <trkpt lat="48.628135" lon="10.152552">
        <ele>523.346213</ele>
        <time>2020-09-10T07:36:40.767Z</time>
      </trkpt>
      <trkpt lat="48.628104" lon="10.152706">
        <ele>523.356290</ele>
        <time>2020-09-10T07:36:42.786Z</time>
      </trkpt>
      <trkpt lat="48.628076" lon="10.152851">
        <ele>523.365746</ele>
        <time>2020-09-10T07:36:44.774Z</time>
      </trkpt>
      <trkpt lat="48.627976" lon="10.152970">
        <ele>523.377795</ele>
        <time>2020-09-10T07:36:47.767Z</time>
      </trkpt>
      <trkpt lat="48.627875" lon="10.152966">
        <ele>523.387364</ele>
        <time>2020-09-10T07:36:49.773Z</time>
      </trkpt>
      <trkpt lat="48.627772" lon="10.152914">
        <ele>523.397647</ele>
        <time>2020-09-10T07:36:51.784Z</time>
      </trkpt>
      <trkpt lat="48.627667" lon="10.152851">
        <ele>523.408345</ele>
        <time>2020-09-10T07:36:53.792Z</time>
      </trkpt>
      <trkpt lat="48.627548" lon="10.152804">
        <ele>523.419993</ele>
        <time>2020-09-10T07:36:55.776Z</time>
      </trkpt>
      <trkpt lat="48.627429" lon="10.152753">
        <ele>523.431707</ele>
        <time>2020-09-10T07:36:57.773Z</time>
      </trkpt>
      <trkpt lat="48.627321" lon="10.152715">
        <ele>523.442208</ele>
        <time>2020-09-10T07:36:59.763Z</time>
      </trkpt>
      <trkpt lat="48.627218" lon="10.152677">
        <ele>523.452249</ele>
        <time>2020-09-10T07:37:01.773Z</time>
      </trkpt>
      <trkpt lat="48.627103" lon="10.152642">
        <ele>523.463359</ele>
        <time>2020-09-10T07:37:03.772Z</time>
      </trkpt>
      <trkpt lat="48.626980" lon="10.152619">
        <ele>523.475096</ele>
        <time>2020-09-10T07:37:05.788Z</time>
      </trkpt>
      <trkpt lat="48.626853" lon="10.152593">
        <ele>523.487234</ele>
        <time>2020-09-10T07:37:07.773Z</time>
      </trkpt>
      <trkpt lat="48.626723" lon="10.152559">
        <ele>523.494238</ele>
        <time>2020-09-10T07:37:09.774Z</time>
      </trkpt>
      <trkpt lat="48.626597" lon="10.152534">
        <ele>523.496938</ele>
        <time>2020-09-10T07:37:11.776Z</time>
      </trkpt>
      <trkpt lat="48.626475" lon="10.152513">
        <ele>523.499548</ele>
        <time>2020-09-10T07:37:13.786Z</time>
      </trkpt>
      <trkpt lat="48.626360" lon="10.152493">
        <ele>523.502007</ele>
        <time>2020-09-10T07:37:15.774Z</time>
      </trkpt>
      <trkpt lat="48.626250" lon="10.152479">
        <ele>523.504353</ele>
        <time>2020-09-10T07:37:17.774Z</time>
      </trkpt>
      <trkpt lat="48.626146" lon="10.152416">
        <ele>523.506733</ele>
        <time>2020-09-10T07:37:20.773Z</time>
      </trkpt>
      <trkpt lat="48.626043" lon="10.152446">
        <ele>523.508962</ele>
        <time>2020-09-10T07:37:45.774Z</time>
      </trkpt>
      <trkpt lat="48.625947" lon="10.152474">
        <ele>523.511040</ele>
        <time>2020-09-10T07:37:48.776Z</time>
      </trkpt>
      <trkpt lat="48.625818" lon="10.152463">
        <ele>523.513785</ele>
        <time>2020-09-10T07:37:51.778Z</time>
      </trkpt>
      <trkpt lat="48.625693" lon="10.152458">
        <ele>523.516442</ele>
        <time>2020-09-10T07:37:54.770Z</time>
      </trkpt>
      <trkpt lat="48.625566" lon="10.152453">
        <ele>523.519142</ele>
        <time>2020-09-10T07:37:57.776Z</time>
      </trkpt>
      <trkpt lat="48.625452" lon="10.152392">
        <ele>523.521711</ele>
        <time>2020-09-10T07:38:00.776Z</time>
      </trkpt>
      <trkpt lat="48.625373" lon="10.152245">
        <ele>523.524372</ele>
        <time>2020-09-10T07:38:03.777Z</time>
      </trkpt>
      <trkpt lat="48.625294" lon="10.152078">
        <ele>523.527256</ele>
        <time>2020-09-10T07:38:06.781Z</time>
      </trkpt>
      <trkpt lat="48.625232" lon="10.151973">
        <ele>523.529234</ele>
        <time>2020-09-10T07:38:08.784Z</time>
      </trkpt>
      <trkpt lat="48.625121" lon="10.151913">
        <ele>523.551794</ele>
        <time>2020-09-10T07:38:11.776Z</time>
      </trkpt>
      <trkpt lat="48.624989" lon="10.151928">
        <ele>523.619502</ele>
        <time>2020-09-10T07:38:14.772Z</time>
      </trkpt>
      <trkpt lat="48.624887" lon="10.151952">
        <ele>523.672301</ele>
        <time>2020-09-10T07:38:16.771Z</time>
      </trkpt>
      <trkpt lat="48.624793" lon="10.151988">
        <ele>523.721898</ele>
        <time>2020-09-10T07:38:18.769Z</time>
      </trkpt>
      <trkpt lat="48.624661" lon="10.152023">
        <ele>523.790444</ele>
        <time>2020-09-10T07:38:21.774Z</time>
      </trkpt>
      <trkpt lat="48.624546" lon="10.152086">
        <ele>523.853003</ele>
        <time>2020-09-10T07:38:24.772Z</time>
      </trkpt>
      <trkpt lat="48.624460" lon="10.152226">
        <ele>523.917621</ele>
        <time>2020-09-10T07:38:27.780Z</time>
      </trkpt>
      <trkpt lat="48.624362" lon="10.152356">
        <ele>523.984287</ele>
        <time>2020-09-10T07:38:30.755Z</time>
      </trkpt>
      <trkpt lat="48.624252" lon="10.152474">
        <ele>524.053260</ele>
        <time>2020-09-10T07:38:33.772Z</time>
      </trkpt>
      <trkpt lat="48.624158" lon="10.152492">
        <ele>524.101724</ele>
        <time>2020-09-10T07:38:35.767Z</time>
      </trkpt>
      <trkpt lat="48.624066" lon="10.152495">
        <ele>524.148792</ele>
        <time>2020-09-10T07:38:37.792Z</time>
      </trkpt>
      <trkpt lat="48.623930" lon="10.152510">
        <ele>524.218540</ele>
        <time>2020-09-10T07:38:40.776Z</time>
      </trkpt>
      <trkpt lat="48.623837" lon="10.152529">
        <ele>524.266540</ele>
        <time>2020-09-10T07:38:42.772Z</time>
      </trkpt>
      <trkpt lat="48.623742" lon="10.152552">
        <ele>524.315751</ele>
        <time>2020-09-10T07:38:44.787Z</time>
      </trkpt>
      <trkpt lat="48.623642" lon="10.152565">
        <ele>524.367088</ele>
        <time>2020-09-10T07:38:46.771Z</time>
      </trkpt>
      <trkpt lat="48.623545" lon="10.152594">
        <ele>524.417663</ele>
        <time>2020-09-10T07:38:48.770Z</time>
      </trkpt>
      <trkpt lat="48.623444" lon="10.152618">
        <ele>524.436757</ele>
        <time>2020-09-10T07:38:50.775Z</time>
      </trkpt>
      <trkpt lat="48.623338" lon="10.152633">
        <ele>524.396533</ele>
        <time>2020-09-10T07:38:52.771Z</time>
      </trkpt>
      <trkpt lat="48.623239" lon="10.152647">
        <ele>524.358965</ele>
        <time>2020-09-10T07:38:54.773Z</time>
      </trkpt>
      <trkpt lat="48.623145" lon="10.152668">
        <ele>524.323065</ele>
        <time>2020-09-10T07:38:56.782Z</time>
      </trkpt>
      <trkpt lat="48.623049" lon="10.152691">
        <ele>524.286341</ele>
        <time>2020-09-10T07:38:58.770Z</time>
      </trkpt>
      <trkpt lat="48.622959" lon="10.152718">
        <ele>524.251675</ele>
        <time>2020-09-10T07:39:00.772Z</time>
      </trkpt>
      <trkpt lat="48.622862" lon="10.152729">
        <ele>524.214923</ele>
        <time>2020-09-10T07:39:02.772Z</time>
      </trkpt>
      <trkpt lat="48.622763" lon="10.152758">
        <ele>524.176824</ele>
        <time>2020-09-10T07:39:04.776Z</time>
      </trkpt>
      <trkpt lat="48.622673" lon="10.152788">
        <ele>524.142004</ele>
        <time>2020-09-10T07:39:06.771Z</time>
      </trkpt>
      <trkpt lat="48.622576" lon="10.152820">
        <ele>524.104494</ele>
        <time>2020-09-10T07:39:08.772Z</time>
      </trkpt>
      <trkpt lat="48.622483" lon="10.152848">
        <ele>524.068668</ele>
        <time>2020-09-10T07:39:10.775Z</time>
      </trkpt>
      <trkpt lat="48.622393" lon="10.152877">
        <ele>524.033901</ele>
        <time>2020-09-10T07:39:12.786Z</time>
      </trkpt>
      <trkpt lat="48.622302" lon="10.152906">
        <ele>523.998764</ele>
        <time>2020-09-10T07:39:14.773Z</time>
      </trkpt>
      <trkpt lat="48.622206" lon="10.152930">
        <ele>523.962001</ele>
        <time>2020-09-10T07:39:16.778Z</time>
      </trkpt>
      <trkpt lat="48.622110" lon="10.152958">
        <ele>523.925062</ele>
        <time>2020-09-10T07:39:18.770Z</time>
      </trkpt>
      <trkpt lat="48.622019" lon="10.152982">
        <ele>523.890161</ele>
        <time>2020-09-10T07:39:20.781Z</time>
      </trkpt>
      <trkpt lat="48.621926" lon="10.153001">
        <ele>523.854705</ele>
        <time>2020-09-10T07:39:22.773Z</time>
      </trkpt>
      <trkpt lat="48.621836" lon="10.153036">
        <ele>523.819595</ele>
        <time>2020-09-10T07:39:24.778Z</time>
      </trkpt>
      <trkpt lat="48.621748" lon="10.153086">
        <ele>523.784079</ele>
        <time>2020-09-10T07:39:26.769Z</time>
      </trkpt>
      <trkpt lat="48.621632" lon="10.153156">
        <ele>523.773598</ele>
        <time>2020-09-10T07:39:29.779Z</time>
      </trkpt>
      <trkpt lat="48.621503" lon="10.153201">
        <ele>523.776951</ele>
        <time>2020-09-10T07:39:32.783Z</time>
      </trkpt>
      <trkpt lat="48.621417" lon="10.153243">
        <ele>523.779240</ele>
        <time>2020-09-10T07:39:34.788Z</time>
      </trkpt>
      <trkpt lat="48.621331" lon="10.153287">
        <ele>523.781539</ele>
        <time>2020-09-10T07:39:36.770Z</time>
      </trkpt>
      <trkpt lat="48.621237" lon="10.153329">
        <ele>523.784022</ele>
        <time>2020-09-10T07:39:38.770Z</time>
      </trkpt>
      <trkpt lat="48.621145" lon="10.153369">
        <ele>523.786446</ele>
        <time>2020-09-10T07:39:40.783Z</time>
      </trkpt>
      <trkpt lat="48.621058" lon="10.153405">
        <ele>523.788731</ele>
        <time>2020-09-10T07:39:42.773Z</time>
      </trkpt>
      <trkpt lat="48.620930" lon="10.153471">
        <ele>523.792156</ele>
        <time>2020-09-10T07:39:45.777Z</time>
      </trkpt>
      <trkpt lat="48.620842" lon="10.153514">
        <ele>523.794498</ele>
        <time>2020-09-10T07:39:47.774Z</time>
      </trkpt>
      <trkpt lat="48.620731" lon="10.153573">
        <ele>523.797478</ele>
        <time>2020-09-10T07:39:50.775Z</time>
      </trkpt>
      <trkpt lat="48.620635" lon="10.153636">
        <ele>523.800128</ele>
        <time>2020-09-10T07:39:53.775Z</time>
      </trkpt>
      <trkpt lat="48.620531" lon="10.153700">
        <ele>523.802972</ele>
        <time>2020-09-10T07:39:56.771Z</time>
      </trkpt>
      <trkpt lat="48.620438" lon="10.153767">
        <ele>523.805581</ele>
        <time>2020-09-10T07:39:59.773Z</time>
      </trkpt>
      <trkpt lat="48.620326" lon="10.153823">
        <ele>523.808569</ele>
        <time>2020-09-10T07:40:02.773Z</time>
      </trkpt>
      <trkpt lat="48.620242" lon="10.153879">
        <ele>523.810894</ele>
        <time>2020-09-10T07:40:04.779Z</time>
      </trkpt>
      <trkpt lat="48.620115" lon="10.153954">
        <ele>523.814347</ele>
        <time>2020-09-10T07:40:07.776Z</time>
      </trkpt>
      <trkpt lat="48.620000" lon="10.154013">
        <ele>523.819157</ele>
        <time>2020-09-10T07:40:10.777Z</time>
      </trkpt>
      <trkpt lat="48.619905" lon="10.154065">
        <ele>523.829439</ele>
        <time>2020-09-10T07:40:13.776Z</time>
      </trkpt>
      <trkpt lat="48.619816" lon="10.154099">
        <ele>523.838782</ele>
        <time>2020-09-10T07:40:16.781Z</time>
      </trkpt>
      <trkpt lat="48.619709" lon="10.154132">
        <ele>523.849896</ele>
        <time>2020-09-10T07:40:20.779Z</time>
      </trkpt>
      <trkpt lat="48.619664" lon="10.154255">
        <ele>523.859354</ele>
        <time>2020-09-10T07:40:23.775Z</time>
      </trkpt>
      <trkpt lat="48.619680" lon="10.154439">
        <ele>523.871841</ele>
        <time>2020-09-10T07:40:26.775Z</time>
      </trkpt>
      <trkpt lat="48.619700" lon="10.154594">
        <ele>523.882466</ele>
        <time>2020-09-10T07:40:29.776Z</time>
      </trkpt>
      <trkpt lat="48.619668" lon="10.154746">
        <ele>523.893199</ele>
        <time>2020-09-10T07:40:32.773Z</time>
      </trkpt>
      <trkpt lat="48.619578" lon="10.154790">
        <ele>523.902825</ele>
        <time>2020-09-10T07:40:34.767Z</time>
      </trkpt>
      <trkpt lat="48.619445" lon="10.154775">
        <ele>523.916399</ele>
        <time>2020-09-10T07:40:37.769Z</time>
      </trkpt>
      <trkpt lat="48.619327" lon="10.154771">
        <ele>523.928412</ele>
        <time>2020-09-10T07:40:40.788Z</time>
      </trkpt>
      <trkpt lat="48.619224" lon="10.154781">
        <ele>523.938917</ele>
        <time>2020-09-10T07:40:43.773Z</time>
      </trkpt>
      <trkpt lat="48.619114" lon="10.154786">
        <ele>523.950117</ele>
        <time>2020-09-10T07:40:47.769Z</time>
      </trkpt>
      <trkpt lat="48.619014" lon="10.154825">
        <ele>523.960628</ele>
        <time>2020-09-10T07:41:01.771Z</time>
      </trkpt>
      <trkpt lat="48.618904" lon="10.154827">
        <ele>523.971824</ele>
        <time>2020-09-10T07:41:05.776Z</time>
      </trkpt>
      <trkpt lat="48.618794" lon="10.154803">
        <ele>523.983136</ele>
        <time>2020-09-10T07:41:08.772Z</time>
      </trkpt>
      <trkpt lat="48.618673" lon="10.154776">
        <ele>523.995584</ele>
        <time>2020-09-10T07:41:11.778Z</time>
      </trkpt>
      <trkpt lat="48.618573" lon="10.154744">
        <ele>523.971037</ele>
        <time>2020-09-10T07:41:14.768Z</time>
      </trkpt>
      <trkpt lat="48.618460" lon="10.154704">
        <ele>523.914921</ele>
        <time>2020-09-10T07:41:18.774Z</time>
      </trkpt>
      <trkpt lat="48.618356" lon="10.154668">
        <ele>523.863334</ele>
        <time>2020-09-10T07:41:22.772Z</time>
      </trkpt>
      <trkpt lat="48.618254" lon="10.154640">
        <ele>523.813208</ele>
        <time>2020-09-10T07:41:26.775Z</time>
      </trkpt>
      <trkpt lat="48.618157" lon="10.154618">
        <ele>523.765780</ele>
        <time>2020-09-10T07:41:30.773Z</time>
      </trkpt>
      <trkpt lat="48.618058" lon="10.154600">
        <ele>523.717566</ele>
        <time>2020-09-10T07:41:33.782Z</time>
      </trkpt>
      <trkpt lat="48.617940" lon="10.154595">
        <ele>523.660486</ele>
        <time>2020-09-10T07:41:37.773Z</time>
      </trkpt>
      <trkpt lat="48.617827" lon="10.154618">
        <ele>523.605354</ele>
        <time>2020-09-10T07:41:40.797Z</time>
      </trkpt>
      <trkpt lat="48.617729" lon="10.154649">
        <ele>523.556943</ele>
        <time>2020-09-10T07:41:43.773Z</time>
      </trkpt>
      <trkpt lat="48.617623" lon="10.154702">
        <ele>523.502960</ele>
        <time>2020-09-10T07:41:46.783Z</time>
      </trkpt>
      <trkpt lat="48.617533" lon="10.154751">
        <ele>523.456709</ele>
        <time>2020-09-10T07:41:48.773Z</time>
      </trkpt>
      <trkpt lat="48.617452" lon="10.154811">
        <ele>523.413099</ele>
        <time>2020-09-10T07:41:50.785Z</time>
      </trkpt>
      <trkpt lat="48.617330" lon="10.154881">
        <ele>523.350006</ele>
        <time>2020-09-10T07:41:53.783Z</time>
      </trkpt>
      <trkpt lat="48.617218" lon="10.154957">
        <ele>523.290651</ele>
        <time>2020-09-10T07:41:56.784Z</time>
      </trkpt>
      <trkpt lat="48.617102" lon="10.155041">
        <ele>523.228465</ele>
        <time>2020-09-10T07:41:59.774Z</time>
      </trkpt>
      <trkpt lat="48.616982" lon="10.155107">
        <ele>523.166724</ele>
        <time>2020-09-10T07:42:02.783Z</time>
      </trkpt>
      <trkpt lat="48.616861" lon="10.155181">
        <ele>523.128373</ele>
        <time>2020-09-10T07:42:05.766Z</time>
      </trkpt>
      <trkpt lat="48.616776" lon="10.155226">
        <ele>523.125378</ele>
        <time>2020-09-10T07:42:07.771Z</time>
      </trkpt>
      <trkpt lat="48.616652" lon="10.155292">
        <ele>523.121008</ele>
        <time>2020-09-10T07:42:10.771Z</time>
      </trkpt>
      <trkpt lat="48.616565" lon="10.155333">
        <ele>523.117978</ele>
        <time>2020-09-10T07:42:12.773Z</time>
      </trkpt>
      <trkpt lat="48.616479" lon="10.155377">
        <ele>523.114959</ele>
        <time>2020-09-10T07:42:14.796Z</time>
      </trkpt>
      <trkpt lat="48.616352" lon="10.155426">
        <ele>523.110601</ele>
        <time>2020-09-10T07:42:17.778Z</time>
      </trkpt>
      <trkpt lat="48.616259" lon="10.155465">
        <ele>523.107392</ele>
        <time>2020-09-10T07:42:19.784Z</time>
      </trkpt>
      <trkpt lat="48.616142" lon="10.155517">
        <ele>523.103337</ele>
        <time>2020-09-10T07:42:22.774Z</time>
      </trkpt>
      <trkpt lat="48.616038" lon="10.155543">
        <ele>523.099832</ele>
        <time>2020-09-10T07:42:25.774Z</time>
      </trkpt>
      <trkpt lat="48.615927" lon="10.155558">
        <ele>523.096127</ele>
        <time>2020-09-10T07:42:28.774Z</time>
      </trkpt>
      <trkpt lat="48.615795" lon="10.155566">
        <ele>523.091734</ele>
        <time>2020-09-10T07:42:31.777Z</time>
      </trkpt>
      <trkpt lat="48.615694" lon="10.155564">
        <ele>523.088376</ele>
        <time>2020-09-10T07:42:33.768Z</time>
      </trkpt>
      <trkpt lat="48.615586" lon="10.155567">
        <ele>523.084784</ele>
        <time>2020-09-10T07:42:35.765Z</time>
      </trkpt>
      <trkpt lat="48.615481" lon="10.155557">
        <ele>523.081286</ele>
        <time>2020-09-10T07:42:37.767Z</time>
      </trkpt>
      <trkpt lat="48.615391" lon="10.155531">
        <ele>523.078239</ele>
        <time>2020-09-10T07:42:39.773Z</time>
      </trkpt>
      <trkpt lat="48.615291" lon="10.155509">
        <ele>523.074879</ele>
        <time>2020-09-10T07:42:41.772Z</time>
      </trkpt>
      <trkpt lat="48.615190" lon="10.155459">
        <ele>523.071346</ele>
        <time>2020-09-10T07:42:43.754Z</time>
      </trkpt>
      <trkpt lat="48.615096" lon="10.155418">
        <ele>523.058466</ele>
        <time>2020-09-10T07:42:45.778Z</time>
      </trkpt>
      <trkpt lat="48.615001" lon="10.155374">
        <ele>523.041352</ele>
        <time>2020-09-10T07:42:47.775Z</time>
      </trkpt>
      <trkpt lat="48.614908" lon="10.155339">
        <ele>523.024843</ele>
        <time>2020-09-10T07:42:49.765Z</time>
      </trkpt>
      <trkpt lat="48.614812" lon="10.155295">
        <ele>523.007564</ele>
        <time>2020-09-10T07:42:51.768Z</time>
      </trkpt>
      <trkpt lat="48.614722" lon="10.155246">
        <ele>522.991087</ele>
        <time>2020-09-10T07:42:53.769Z</time>
      </trkpt>
      <trkpt lat="48.614630" lon="10.155191">
        <ele>522.974046</ele>
        <time>2020-09-10T07:42:55.781Z</time>
      </trkpt>
      <trkpt lat="48.614541" lon="10.155138">
        <ele>522.957570</ele>
        <time>2020-09-10T07:42:57.766Z</time>
      </trkpt>
      <trkpt lat="48.614453" lon="10.155080">
        <ele>522.941034</ele>
        <time>2020-09-10T07:42:59.766Z</time>
      </trkpt>
      <trkpt lat="48.614364" lon="10.155023">
        <ele>522.924386</ele>
        <time>2020-09-10T07:43:01.781Z</time>
      </trkpt>
      <trkpt lat="48.614278" lon="10.154955">
        <ele>522.907669</ele>
        <time>2020-09-10T07:43:03.772Z</time>
      </trkpt>
      <trkpt lat="48.614196" lon="10.154881">
        <ele>522.891221</ele>
        <time>2020-09-10T07:43:05.765Z</time>
      </trkpt>
      <trkpt lat="48.614113" lon="10.154805">
        <ele>522.874508</ele>
        <time>2020-09-10T07:43:07.778Z</time>
      </trkpt>
      <trkpt lat="48.614022" lon="10.154669">
        <ele>522.852471</ele>
        <time>2020-09-10T07:43:10.768Z</time>
      </trkpt>
      <trkpt lat="48.613967" lon="10.154562">
        <ele>522.837036</ele>
        <time>2020-09-10T07:43:12.775Z</time>
      </trkpt>
      <trkpt lat="48.613905" lon="10.154449">
        <ele>522.820312</ele>
        <time>2020-09-10T07:43:14.774Z</time>
      </trkpt>
      <trkpt lat="48.613850" lon="10.154330">
        <ele>522.803777</ele>
        <time>2020-09-10T07:43:16.766Z</time>
      </trkpt>
      <trkpt lat="48.613791" lon="10.154218">
        <ele>522.787468</ele>
        <time>2020-09-10T07:43:18.776Z</time>
      </trkpt>
      <trkpt lat="48.613736" lon="10.154099">
        <ele>522.770932</ele>
        <time>2020-09-10T07:43:20.772Z</time>
      </trkpt>
      <trkpt lat="48.613686" lon="10.153973">
        <ele>522.751318</ele>
        <time>2020-09-10T07:43:22.775Z</time>
      </trkpt>
      <trkpt lat="48.613625" lon="10.153852">
        <ele>522.726158</ele>
        <time>2020-09-10T07:43:24.784Z</time>
      </trkpt>
      <trkpt lat="48.613561" lon="10.153733">
        <ele>522.700793</ele>
        <time>2020-09-10T07:43:26.769Z</time>
      </trkpt>
      <trkpt lat="48.613495" lon="10.153626">
        <ele>522.676596</ele>
        <time>2020-09-10T07:43:28.761Z</time>
      </trkpt>
      <trkpt lat="48.613426" lon="10.153535">
        <ele>522.653701</ele>
        <time>2020-09-10T07:43:30.777Z</time>
      </trkpt>
      <trkpt lat="48.613325" lon="10.153414">
        <ele>522.621477</ele>
        <time>2020-09-10T07:43:33.783Z</time>
      </trkpt>
      <trkpt lat="48.613208" lon="10.153352">
        <ele>522.590471</ele>
        <time>2020-09-10T07:43:36.820Z</time>
      </trkpt>
      <trkpt lat="48.613090" lon="10.153398">
        <ele>522.559995</ele>
        <time>2020-09-10T07:43:39.774Z</time>
      </trkpt>
      <trkpt lat="48.613020" lon="10.153503">
        <ele>522.535339</ele>
        <time>2020-09-10T07:43:41.788Z</time>
      </trkpt>
      <trkpt lat="48.612963" lon="10.153629">
        <ele>522.510094</ele>
        <time>2020-09-10T07:43:43.756Z</time>
      </trkpt>
      <trkpt lat="48.612910" lon="10.153767">
        <ele>522.483705</ele>
        <time>2020-09-10T07:43:45.774Z</time>
      </trkpt>
      <trkpt lat="48.612857" lon="10.153900">
        <ele>522.458027</ele>
        <time>2020-09-10T07:43:47.778Z</time>
      </trkpt>
      <trkpt lat="48.612800" lon="10.154025">
        <ele>522.432919</ele>
        <time>2020-09-10T07:43:49.776Z</time>
      </trkpt>
      <trkpt lat="48.612739" lon="10.154146">
        <ele>522.407758</ele>
        <time>2020-09-10T07:43:51.772Z</time>
      </trkpt>
      <trkpt lat="48.612681" lon="10.154272">
        <ele>522.382371</ele>
        <time>2020-09-10T07:43:53.796Z</time>
      </trkpt>
      <trkpt lat="48.612609" lon="10.154370">
        <ele>522.358146</ele>
        <time>2020-09-10T07:43:55.773Z</time>
      </trkpt>
      <trkpt lat="48.612540" lon="10.154459">
        <ele>522.335466</ele>
        <time>2020-09-10T07:43:57.767Z</time>
      </trkpt>
      <trkpt lat="48.612468" lon="10.154551">
        <ele>522.311893</ele>
        <time>2020-09-10T07:43:59.769Z</time>
      </trkpt>
      <trkpt lat="48.612385" lon="10.154649">
        <ele>522.374535</ele>
        <time>2020-09-10T07:44:01.770Z</time>
      </trkpt>
      <trkpt lat="48.612306" lon="10.154753">
        <ele>522.440962</ele>
        <time>2020-09-10T07:44:03.781Z</time>
      </trkpt>
      <trkpt lat="48.612231" lon="10.154883">
        <ele>522.513313</ele>
        <time>2020-09-10T07:44:05.767Z</time>
      </trkpt>
      <trkpt lat="48.612178" lon="10.155040">
        <ele>522.587234</ele>
        <time>2020-09-10T07:44:07.772Z</time>
      </trkpt>
      <trkpt lat="48.612128" lon="10.155182">
        <ele>522.654699</ele>
        <time>2020-09-10T07:44:09.783Z</time>
      </trkpt>
      <trkpt lat="48.612074" lon="10.155315">
        <ele>522.720148</ele>
        <time>2020-09-10T07:44:11.771Z</time>
      </trkpt>
      <trkpt lat="48.612019" lon="10.155446">
        <ele>522.785222</ele>
        <time>2020-09-10T07:44:13.774Z</time>
      </trkpt>
      <trkpt lat="48.611971" lon="10.155588">
        <ele>522.852100</ele>
        <time>2020-09-10T07:44:15.785Z</time>
      </trkpt>
      <trkpt lat="48.611932" lon="10.155732">
        <ele>522.917355</ele>
        <time>2020-09-10T07:44:17.773Z</time>
      </trkpt>
      <trkpt lat="48.611909" lon="10.155876">
        <ele>522.979478</ele>
        <time>2020-09-10T07:44:19.772Z</time>
      </trkpt>
      <trkpt lat="48.611867" lon="10.156019">
        <ele>523.045094</ele>
        <time>2020-09-10T07:44:21.781Z</time>
      </trkpt>
      <trkpt lat="48.611810" lon="10.156172">
        <ele>523.118739</ele>
        <time>2020-09-10T07:44:23.774Z</time>
      </trkpt>
      <trkpt lat="48.611755" lon="10.156321">
        <ele>523.190299</ele>
        <time>2020-09-10T07:44:25.777Z</time>
      </trkpt>
      <trkpt lat="48.611689" lon="10.156455">
        <ele>523.260370</ele>
        <time>2020-09-10T07:44:27.779Z</time>
      </trkpt>
      <trkpt lat="48.611628" lon="10.156582">
        <ele>523.326197</ele>
        <time>2020-09-10T07:44:29.763Z</time>
      </trkpt>
      <trkpt lat="48.611566" lon="10.156710">
        <ele>523.392736</ele>
        <time>2020-09-10T07:44:31.777Z</time>
      </trkpt>
      <trkpt lat="48.611503" lon="10.156835">
        <ele>523.447777</ele>
        <time>2020-09-10T07:44:33.801Z</time>
      </trkpt>
      <trkpt lat="48.611438" lon="10.156950">
        <ele>523.414416</ele>
        <time>2020-09-10T07:44:35.767Z</time>
      </trkpt>
      <trkpt lat="48.611375" lon="10.157065">
        <ele>523.381484</ele>
        <time>2020-09-10T07:44:37.772Z</time>
      </trkpt>
      <trkpt lat="48.611309" lon="10.157188">
        <ele>523.346553</ele>
        <time>2020-09-10T07:44:39.749Z</time>
      </trkpt>
      <trkpt lat="48.611253" lon="10.157308">
        <ele>523.314165</ele>
        <time>2020-09-10T07:44:41.769Z</time>
      </trkpt>
      <trkpt lat="48.611203" lon="10.157433">
        <ele>523.281950</ele>
        <time>2020-09-10T07:44:43.768Z</time>
      </trkpt>
      <trkpt lat="48.611146" lon="10.157572">
        <ele>523.245883</ele>
        <time>2020-09-10T07:44:45.769Z</time>
      </trkpt>
      <trkpt lat="48.611090" lon="10.157711">
        <ele>523.209990</ele>
        <time>2020-09-10T07:44:47.770Z</time>
      </trkpt>
      <trkpt lat="48.611030" lon="10.157862">
        <ele>523.171143</ele>
        <time>2020-09-10T07:44:49.768Z</time>
      </trkpt>
      <trkpt lat="48.610974" lon="10.158010">
        <ele>523.133542</ele>
        <time>2020-09-10T07:44:51.763Z</time>
      </trkpt>
      <trkpt lat="48.610916" lon="10.158162">
        <ele>523.094843</ele>
        <time>2020-09-10T07:44:53.765Z</time>
      </trkpt>
      <trkpt lat="48.610866" lon="10.158311">
        <ele>523.057998</ele>
        <time>2020-09-10T07:44:55.762Z</time>
      </trkpt>
      <trkpt lat="48.610809" lon="10.158458">
        <ele>523.020420</ele>
        <time>2020-09-10T07:44:57.771Z</time>
      </trkpt>
      <trkpt lat="48.610757" lon="10.158600">
        <ele>522.984626</ele>
        <time>2020-09-10T07:44:59.745Z</time>
      </trkpt>
      <trkpt lat="48.610701" lon="10.158729">
        <ele>522.950597</ele>
        <time>2020-09-10T07:45:01.774Z</time>
      </trkpt>
      <trkpt lat="48.610640" lon="10.158877">
        <ele>522.912140</ele>
        <time>2020-09-10T07:45:03.771Z</time>
      </trkpt>
      <trkpt lat="48.610574" lon="10.159023">
        <ele>522.873140</ele>
        <time>2020-09-10T07:45:05.751Z</time>
      </trkpt>
      <trkpt lat="48.610515" lon="10.159152">
        <ele>522.816511</ele>
        <time>2020-09-10T07:45:07.760Z</time>
      </trkpt>
      <trkpt lat="48.610422" lon="10.159292">
        <ele>522.699135</ele>
        <time>2020-09-10T07:45:10.770Z</time>
      </trkpt>
      <trkpt lat="48.610336" lon="10.159432">
        <ele>522.586111</ele>
        <time>2020-09-10T07:45:13.770Z</time>
      </trkpt>
      <trkpt lat="48.610254" lon="10.159578">
        <ele>522.472810</ele>
        <time>2020-09-10T07:45:16.770Z</time>
      </trkpt>
      <trkpt lat="48.610167" lon="10.159705">
        <ele>522.364649</ele>
        <time>2020-09-10T07:45:19.774Z</time>
      </trkpt>
      <trkpt lat="48.610065" lon="10.159832">
        <ele>522.246466</ele>
        <time>2020-09-10T07:45:22.775Z</time>
      </trkpt>
      <trkpt lat="48.609961" lon="10.159939">
        <ele>522.133949</ele>
        <time>2020-09-10T07:45:25.767Z</time>
      </trkpt>
      <trkpt lat="48.609854" lon="10.160016">
        <ele>522.027952</ele>
        <time>2020-09-10T07:45:28.787Z</time>
      </trkpt>
      <trkpt lat="48.609744" lon="10.160132">
        <ele>521.907995</ele>
        <time>2020-09-10T07:45:31.761Z</time>
      </trkpt>
      <trkpt lat="48.609675" lon="10.160227">
        <ele>521.824528</ele>
        <time>2020-09-10T07:45:33.771Z</time>
      </trkpt>
      <trkpt lat="48.609586" lon="10.160345">
        <ele>521.718654</ele>
        <time>2020-09-10T07:45:36.759Z</time>
      </trkpt>
      <trkpt lat="48.609507" lon="10.160469">
        <ele>521.616807</ele>
        <time>2020-09-10T07:45:39.743Z</time>
      </trkpt>
      <trkpt lat="48.609432" lon="10.160584">
        <ele>521.521269</ele>
        <time>2020-09-10T07:45:42.767Z</time>
      </trkpt>
      <trkpt lat="48.609338" lon="10.160652">
        <ele>521.428059</ele>
        <time>2020-09-10T07:45:45.769Z</time>
      </trkpt>
      <trkpt lat="48.609222" lon="10.160640">
        <ele>521.324050</ele>
        <time>2020-09-10T07:45:48.763Z</time>
      </trkpt>
      <trkpt lat="48.609111" lon="10.160591">
        <ele>521.222396</ele>
        <time>2020-09-10T07:45:51.768Z</time>
      </trkpt>
      <trkpt lat="48.609001" lon="10.160566">
        <ele>521.130924</ele>
        <time>2020-09-10T07:45:54.771Z</time>
      </trkpt>
      <trkpt lat="48.608892" lon="10.160606">
        <ele>521.038689</ele>
        <time>2020-09-10T07:45:57.764Z</time>
      </trkpt>
      <trkpt lat="48.608782" lon="10.160695">
        <ele>520.936101</ele>
        <time>2020-09-10T07:46:00.764Z</time>
      </trkpt>
      <trkpt lat="48.608686" lon="10.160822">
        <ele>520.831218</ele>
        <time>2020-09-10T07:46:03.771Z</time>
      </trkpt>
      <trkpt lat="48.608608" lon="10.160925">
        <ele>520.746068</ele>
        <time>2020-09-10T07:46:05.766Z</time>
      </trkpt>
      <trkpt lat="48.608526" lon="10.161015">
        <ele>520.662751</ele>
        <time>2020-09-10T07:46:07.776Z</time>
      </trkpt>
      <trkpt lat="48.608401" lon="10.161078">
        <ele>520.554402</ele>
        <time>2020-09-10T07:46:10.763Z</time>
      </trkpt>
      <trkpt lat="48.608304" lon="10.161088">
        <ele>520.474450</ele>
        <time>2020-09-10T07:46:12.766Z</time>
      </trkpt>
      <trkpt lat="48.608203" lon="10.161082">
        <ele>520.391331</ele>
        <time>2020-09-10T07:46:14.769Z</time>
      </trkpt>
      <trkpt lat="48.608091" lon="10.161077">
        <ele>520.299189</ele>
        <time>2020-09-10T07:46:16.765Z</time>
      </trkpt>
      <trkpt lat="48.607972" lon="10.161075">
        <ele>520.201325</ele>
        <time>2020-09-10T07:46:18.768Z</time>
      </trkpt>
      <trkpt lat="48.607858" lon="10.161070">
        <ele>520.107540</ele>
        <time>2020-09-10T07:46:20.761Z</time>
      </trkpt>
      <trkpt lat="48.607748" lon="10.161076">
        <ele>520.017024</ele>
        <time>2020-09-10T07:46:22.769Z</time>
      </trkpt>
      <trkpt lat="48.607643" lon="10.161089">
        <ele>519.930391</ele>
        <time>2020-09-10T07:46:24.766Z</time>
      </trkpt>
      <trkpt lat="48.607532" lon="10.161079">
        <ele>519.838950</ele>
        <time>2020-09-10T07:46:26.767Z</time>
      </trkpt>
      <trkpt lat="48.607431" lon="10.161044">
        <ele>519.776781</ele>
        <time>2020-09-10T07:46:28.758Z</time>
      </trkpt>
      <trkpt lat="48.607326" lon="10.161011">
        <ele>519.894359</ele>
        <time>2020-09-10T07:46:30.764Z</time>
      </trkpt>
      <trkpt lat="48.607209" lon="10.160980">
        <ele>520.024589</ele>
        <time>2020-09-10T07:46:32.756Z</time>
      </trkpt>
      <trkpt lat="48.607082" lon="10.160956">
        <ele>520.164911</ele>
        <time>2020-09-10T07:46:34.769Z</time>
      </trkpt>
      <trkpt lat="48.606963" lon="10.160935">
        <ele>520.296264</ele>
        <time>2020-09-10T07:46:36.768Z</time>
      </trkpt>
      <trkpt lat="48.606854" lon="10.160901">
        <ele>520.418284</ele>
        <time>2020-09-10T07:46:38.756Z</time>
      </trkpt>
      <trkpt lat="48.606744" lon="10.160866">
        <ele>520.541525</ele>
        <time>2020-09-10T07:46:40.770Z</time>
      </trkpt>
      <trkpt lat="48.606647" lon="10.160854">
        <ele>520.648229</ele>
        <time>2020-09-10T07:46:42.769Z</time>
      </trkpt>
      <trkpt lat="48.606550" lon="10.160857">
        <ele>520.754599</ele>
        <time>2020-09-10T07:46:44.773Z</time>
      </trkpt>
      <trkpt lat="48.606454" lon="10.160856">
        <ele>520.859853</ele>
        <time>2020-09-10T07:46:46.765Z</time>
      </trkpt>
      <trkpt lat="48.606353" lon="10.160865">
        <ele>520.970779</ele>
        <time>2020-09-10T07:46:48.751Z</time>
      </trkpt>
      <trkpt lat="48.606250" lon="10.160886">
        <ele>521.084727</ele>
        <time>2020-09-10T07:46:50.762Z</time>
      </trkpt>
      <trkpt lat="48.606156" lon="10.160890">
        <ele>521.187826</ele>
        <time>2020-09-10T07:46:52.752Z</time>
      </trkpt>
      <trkpt lat="48.606066" lon="10.160906">
        <ele>521.287179</ele>
        <time>2020-09-10T07:46:54.756Z</time>
      </trkpt>
      <trkpt lat="48.605966" lon="10.160923">
        <ele>521.397507</ele>
        <time>2020-09-10T07:46:56.778Z</time>
      </trkpt>
      <trkpt lat="48.605870" lon="10.160941">
        <ele>521.503565</ele>
        <time>2020-09-10T07:46:58.760Z</time>
      </trkpt>
      <trkpt lat="48.605774" lon="10.160969">
        <ele>521.610756</ele>
        <time>2020-09-10T07:47:00.750Z</time>
      </trkpt>
      <trkpt lat="48.605679" lon="10.161007">
        <ele>521.718493</ele>
        <time>2020-09-10T07:47:02.760Z</time>
      </trkpt>
      <trkpt lat="48.605590" lon="10.161063">
        <ele>521.908786</ele>
        <time>2020-09-10T07:47:04.757Z</time>
      </trkpt>
      <trkpt lat="48.605466" lon="10.161128">
        <ele>522.190103</ele>
        <time>2020-09-10T07:47:07.746Z</time>
      </trkpt>
      <trkpt lat="48.605382" lon="10.161194">
        <ele>522.393014</ele>
        <time>2020-09-10T07:47:09.761Z</time>
      </trkpt>
      <trkpt lat="48.605293" lon="10.161264">
        <ele>522.608050</ele>
        <time>2020-09-10T07:47:11.754Z</time>
      </trkpt>
      <trkpt lat="48.605184" lon="10.161348">
        <ele>522.870286</ele>
        <time>2020-09-10T07:47:14.762Z</time>
      </trkpt>
      <trkpt lat="48.605106" lon="10.161422">
        <ele>523.067662</ele>
        <time>2020-09-10T07:47:16.758Z</time>
      </trkpt>
      <trkpt lat="48.605020" lon="10.161499">
        <ele>523.281894</ele>
        <time>2020-09-10T07:47:18.748Z</time>
      </trkpt>
      <trkpt lat="48.604940" lon="10.161566">
        <ele>523.477920</ele>
        <time>2020-09-10T07:47:20.764Z</time>
      </trkpt>
      <trkpt lat="48.604853" lon="10.161669">
        <ele>523.714760</ele>
        <time>2020-09-10T07:47:23.772Z</time>
      </trkpt>
      <trkpt lat="48.604769" lon="10.161759">
        <ele>523.935431</ele>
        <time>2020-09-10T07:47:26.764Z</time>
      </trkpt>
      <trkpt lat="48.604683" lon="10.161882">
        <ele>524.189162</ele>
        <time>2020-09-10T07:47:29.769Z</time>
      </trkpt>
      <trkpt lat="48.604600" lon="10.162003">
        <ele>524.436285</ele>
        <time>2020-09-10T07:47:32.763Z</time>
      </trkpt>
      <trkpt lat="48.604501" lon="10.162140">
        <ele>524.723937</ele>
        <time>2020-09-10T07:47:35.760Z</time>
      </trkpt>
      <trkpt lat="48.604437" lon="10.162239">
        <ele>524.920183</ele>
        <time>2020-09-10T07:47:37.769Z</time>
      </trkpt>
      <trkpt lat="48.604377" lon="10.162340">
        <ele>525.112632</ele>
        <time>2020-09-10T07:47:39.762Z</time>
      </trkpt>
      <trkpt lat="48.604307" lon="10.162437">
        <ele>525.316149</ele>
        <time>2020-09-10T07:47:41.766Z</time>
      </trkpt>
      <trkpt lat="48.604240" lon="10.162541">
        <ele>525.521958</ele>
        <time>2020-09-10T07:47:43.780Z</time>
      </trkpt>
      <trkpt lat="48.604155" lon="10.162641">
        <ele>525.531446</ele>
        <time>2020-09-10T07:47:45.757Z</time>
      </trkpt>
      <trkpt lat="48.604079" lon="10.162740">
        <ele>525.452102</ele>
        <time>2020-09-10T07:47:47.765Z</time>
      </trkpt>
      <trkpt lat="48.604007" lon="10.162838">
        <ele>525.375480</ele>
        <time>2020-09-10T07:47:49.777Z</time>
      </trkpt>
      <trkpt lat="48.603937" lon="10.162933">
        <ele>525.301082</ele>
        <time>2020-09-10T07:47:51.767Z</time>
      </trkpt>
      <trkpt lat="48.603869" lon="10.163038">
        <ele>525.224210</ele>
        <time>2020-09-10T07:47:53.764Z</time>
      </trkpt>
      <trkpt lat="48.603771" lon="10.163176">
        <ele>525.118289</ele>
        <time>2020-09-10T07:47:56.783Z</time>
      </trkpt>
      <trkpt lat="48.603705" lon="10.163275">
        <ele>525.044757</ele>
        <time>2020-09-10T07:47:58.760Z</time>
      </trkpt>
      <trkpt lat="48.603631" lon="10.163373">
        <ele>524.966951</ele>
        <time>2020-09-10T07:48:00.774Z</time>
      </trkpt>
      <trkpt lat="48.603560" lon="10.163491">
        <ele>524.883503</ele>
        <time>2020-09-10T07:48:02.770Z</time>
      </trkpt>
      <trkpt lat="48.603482" lon="10.163611">
        <ele>524.795490</ele>
        <time>2020-09-10T07:48:04.768Z</time>
      </trkpt>
      <trkpt lat="48.603392" lon="10.163731">
        <ele>524.700581</ele>
        <time>2020-09-10T07:48:06.760Z</time>
      </trkpt>
      <trkpt lat="48.603307" lon="10.163841">
        <ele>524.612088</ele>
        <time>2020-09-10T07:48:08.766Z</time>
      </trkpt>
      <trkpt lat="48.603226" lon="10.163945">
        <ele>524.528038</ele>
        <time>2020-09-10T07:48:10.755Z</time>
      </trkpt>
      <trkpt lat="48.603147" lon="10.164055">
        <ele>524.443095</ele>
        <time>2020-09-10T07:48:12.789Z</time>
      </trkpt>
      <trkpt lat="48.603072" lon="10.164179">
        <ele>524.355196</ele>
        <time>2020-09-10T07:48:14.755Z</time>
      </trkpt>
      <trkpt lat="48.602967" lon="10.164301">
        <ele>524.250456</ele>
        <time>2020-09-10T07:48:16.772Z</time>
      </trkpt>
      <trkpt lat="48.602873" lon="10.164438">
        <ele>524.112441</ele>
        <time>2020-09-10T07:48:18.765Z</time>
      </trkpt>
      <trkpt lat="48.602776" lon="10.164575">
        <ele>523.835330</ele>
        <time>2020-09-10T07:48:20.762Z</time>
      </trkpt>
      <trkpt lat="48.602683" lon="10.164711">
        <ele>523.565224</ele>
        <time>2020-09-10T07:48:22.769Z</time>
      </trkpt>
      <trkpt lat="48.602604" lon="10.164861">
        <ele>523.300473</ele>
        <time>2020-09-10T07:48:24.762Z</time>
      </trkpt>
      <trkpt lat="48.602531" lon="10.165034">
        <ele>523.017138</ele>
        <time>2020-09-10T07:48:26.760Z</time>
      </trkpt>
      <trkpt lat="48.602465" lon="10.165183">
        <ele>522.769536</ele>
        <time>2020-09-10T07:48:28.760Z</time>
      </trkpt>
      <trkpt lat="48.602411" lon="10.165330">
        <ele>522.537370</ele>
        <time>2020-09-10T07:48:30.761Z</time>
      </trkpt>
      <trkpt lat="48.602349" lon="10.165480">
        <ele>522.293146</ele>
        <time>2020-09-10T07:48:32.770Z</time>
      </trkpt>
      <trkpt lat="48.602297" lon="10.165604">
        <ele>522.090425</ele>
        <time>2020-09-10T07:48:34.778Z</time>
      </trkpt>
      <trkpt lat="48.602250" lon="10.165733">
        <ele>521.887078</ele>
        <time>2020-09-10T07:48:36.762Z</time>
      </trkpt>
      <trkpt lat="48.602196" lon="10.165901">
        <ele>521.629181</ele>
        <time>2020-09-10T07:48:39.744Z</time>
      </trkpt>
      <trkpt lat="48.602155" lon="10.166045">
        <ele>521.412722</ele>
        <time>2020-09-10T07:48:42.767Z</time>
      </trkpt>
      <trkpt lat="48.602129" lon="10.166186">
        <ele>521.210624</ele>
        <time>2020-09-10T07:48:45.744Z</time>
      </trkpt>
      <trkpt lat="48.602104" lon="10.166323">
        <ele>521.014406</ele>
        <time>2020-09-10T07:48:48.774Z</time>
      </trkpt>
      <trkpt lat="48.602068" lon="10.166519">
        <ele>520.733554</ele>
        <time>2020-09-10T07:48:51.780Z</time>
      </trkpt>
      <trkpt lat="48.602030" lon="10.166651">
        <ele>520.534788</ele>
        <time>2020-09-10T07:48:53.763Z</time>
      </trkpt>
      <trkpt lat="48.601983" lon="10.166769">
        <ele>520.451516</ele>
        <time>2020-09-10T07:48:55.765Z</time>
      </trkpt>
      <trkpt lat="48.601913" lon="10.166911">
        <ele>520.588508</ele>
        <time>2020-09-10T07:48:58.731Z</time>
      </trkpt>
      <trkpt lat="48.601852" lon="10.167065">
        <ele>520.727356</ele>
        <time>2020-09-10T07:49:01.780Z</time>
      </trkpt>
      <trkpt lat="48.601822" lon="10.167205">
        <ele>520.841186</ele>
        <time>2020-09-10T07:49:03.763Z</time>
      </trkpt>
      <trkpt lat="48.601796" lon="10.167351">
        <ele>520.958136</ele>
        <time>2020-09-10T07:49:05.759Z</time>
      </trkpt>
      <trkpt lat="48.601755" lon="10.167497">
        <ele>521.080824</ele>
        <time>2020-09-10T07:49:07.748Z</time>
      </trkpt>
      <trkpt lat="48.601714" lon="10.167630">
        <ele>521.194325</ele>
        <time>2020-09-10T07:49:09.762Z</time>
      </trkpt>
      <trkpt lat="48.601646" lon="10.167780">
        <ele>521.334990</ele>
        <time>2020-09-10T07:49:12.759Z</time>
      </trkpt>
      <trkpt lat="48.601611" lon="10.167908">
        <ele>521.442125</ele>
        <time>2020-09-10T07:49:14.764Z</time>
      </trkpt>
      <trkpt lat="48.601563" lon="10.168033">
        <ele>521.553928</ele>
        <time>2020-09-10T07:49:16.766Z</time>
      </trkpt>
      <trkpt lat="48.601515" lon="10.168169">
        <ele>521.673166</ele>
        <time>2020-09-10T07:49:18.756Z</time>
      </trkpt>
      <trkpt lat="48.601449" lon="10.168343">
        <ele>521.828319</ele>
        <time>2020-09-10T07:49:21.754Z</time>
      </trkpt>
      <trkpt lat="48.601380" lon="10.168489">
        <ele>521.967122</ele>
        <time>2020-09-10T07:49:24.761Z</time>
      </trkpt>
      <trkpt lat="48.601292" lon="10.168613">
        <ele>522.107811</ele>
        <time>2020-09-10T07:49:27.780Z</time>
      </trkpt>
      <trkpt lat="48.601197" lon="10.168723">
        <ele>522.247760</ele>
        <time>2020-09-10T07:49:30.761Z</time>
      </trkpt>
      <trkpt lat="48.601098" lon="10.168829">
        <ele>522.389643</ele>
        <time>2020-09-10T07:49:33.776Z</time>
      </trkpt>
      <trkpt lat="48.600995" lon="10.168932">
        <ele>522.504028</ele>
        <time>2020-09-10T07:49:36.760Z</time>
      </trkpt>
      <trkpt lat="48.600898" lon="10.169043">
        <ele>522.397368</ele>
        <time>2020-09-10T07:49:39.766Z</time>
      </trkpt>
      <trkpt lat="48.600818" lon="10.169169">
        <ele>522.296085</ele>
        <time>2020-09-10T07:49:42.763Z</time>
      </trkpt>
      <trkpt lat="48.600745" lon="10.169332">
        <ele>522.181935</ele>
        <time>2020-09-10T07:49:45.766Z</time>
      </trkpt>
      <trkpt lat="48.600670" lon="10.169491">
        <ele>522.068689</ele>
        <time>2020-09-10T07:49:48.766Z</time>
      </trkpt>
      <trkpt lat="48.600590" lon="10.169631">
        <ele>521.961402</ele>
        <time>2020-09-10T07:49:51.765Z</time>
      </trkpt>
      <trkpt lat="48.600488" lon="10.169769">
        <ele>521.841394</ele>
        <time>2020-09-10T07:49:54.751Z</time>
      </trkpt>
      <trkpt lat="48.600427" lon="10.169876">
        <ele>521.759478</ele>
        <time>2020-09-10T07:49:56.767Z</time>
      </trkpt>
      <trkpt lat="48.600367" lon="10.169988">
        <ele>521.675900</ele>
        <time>2020-09-10T07:49:58.767Z</time>
      </trkpt>
      <trkpt lat="48.600299" lon="10.170100">
        <ele>521.587737</ele>
        <time>2020-09-10T07:50:00.769Z</time>
      </trkpt>
      <trkpt lat="48.600239" lon="10.170220">
        <ele>521.500505</ele>
        <time>2020-09-10T07:50:02.768Z</time>
      </trkpt>
      <trkpt lat="48.600169" lon="10.170328">
        <ele>521.412818</ele>
        <time>2020-09-10T07:50:04.765Z</time>
      </trkpt>
      <trkpt lat="48.600103" lon="10.170448">
        <ele>521.322315</ele>
        <time>2020-09-10T07:50:06.756Z</time>
      </trkpt>
      <trkpt lat="48.600016" lon="10.170600">
        <ele>521.205750</ele>
        <time>2020-09-10T07:50:09.759Z</time>
      </trkpt>
      <trkpt lat="48.599934" lon="10.170757">
        <ele>521.089744</ele>
        <time>2020-09-10T07:50:12.782Z</time>
      </trkpt>
      <trkpt lat="48.599839" lon="10.170886">
        <ele>520.977789</ele>
        <time>2020-09-10T07:50:15.767Z</time>
      </trkpt>
      <trkpt lat="48.599770" lon="10.171016">
        <ele>520.924156</ele>
        <time>2020-09-10T07:50:18.763Z</time>
      </trkpt>
      <trkpt lat="48.599697" lon="10.171176">
        <ele>520.894093</ele>
        <time>2020-09-10T07:50:21.769Z</time>
      </trkpt>
      <trkpt lat="48.599640" lon="10.171296">
        <ele>520.871242</ele>
        <time>2020-09-10T07:50:23.758Z</time>
      </trkpt>
      <trkpt lat="48.599583" lon="10.171412">
        <ele>520.848891</ele>
        <time>2020-09-10T07:50:25.768Z</time>
      </trkpt>
      <trkpt lat="48.599530" lon="10.171534">
        <ele>520.826316</ele>
        <time>2020-09-10T07:50:27.750Z</time>
      </trkpt>
      <trkpt lat="48.599473" lon="10.171644">
        <ele>520.804702</ele>
        <time>2020-09-10T07:50:29.759Z</time>
      </trkpt>
      <trkpt lat="48.599416" lon="10.171762">
        <ele>520.782102</ele>
        <time>2020-09-10T07:50:31.754Z</time>
      </trkpt>
      <trkpt lat="48.599351" lon="10.171882">
        <ele>520.758112</ele>
        <time>2020-09-10T07:50:33.763Z</time>
      </trkpt>
      <trkpt lat="48.599284" lon="10.172010">
        <ele>520.732865</ele>
        <time>2020-09-10T07:50:35.758Z</time>
      </trkpt>
      <trkpt lat="48.599230" lon="10.172146">
        <ele>520.708331</ele>
        <time>2020-09-10T07:50:37.776Z</time>
      </trkpt>
      <trkpt lat="48.599187" lon="10.172288">
        <ele>520.684176</ele>
        <time>2020-09-10T07:50:39.761Z</time>
      </trkpt>
      <trkpt lat="48.599156" lon="10.172428">
        <ele>520.661342</ele>
        <time>2020-09-10T07:50:41.752Z</time>
      </trkpt>
      <trkpt lat="48.599122" lon="10.172571">
        <ele>520.637839</ele>
        <time>2020-09-10T07:50:43.767Z</time>
      </trkpt>
      <trkpt lat="48.599084" lon="10.172709">
        <ele>520.614719</ele>
        <time>2020-09-10T07:50:45.763Z</time>
      </trkpt>
      <trkpt lat="48.599047" lon="10.172837">
        <ele>520.593114</ele>
        <time>2020-09-10T07:50:47.765Z</time>
      </trkpt>
      <trkpt lat="48.598993" lon="10.173025">
        <ele>520.561413</ele>
        <time>2020-09-10T07:50:50.767Z</time>
      </trkpt>
      <trkpt lat="48.598961" lon="10.173153">
        <ele>520.540249</ele>
        <time>2020-09-10T07:50:52.786Z</time>
      </trkpt>
      <trkpt lat="48.598940" lon="10.173288">
        <ele>520.519390</ele>
        <time>2020-09-10T07:50:54.766Z</time>
      </trkpt>
      <trkpt lat="48.598925" lon="10.173430">
        <ele>520.533454</ele>
        <time>2020-09-10T07:50:56.762Z</time>
      </trkpt>
      <trkpt lat="48.598909" lon="10.173573">
        <ele>520.547639</ele>
        <time>2020-09-10T07:50:58.772Z</time>
      </trkpt>
      <trkpt lat="48.598891" lon="10.173723">
        <ele>520.562549</ele>
        <time>2020-09-10T07:51:00.757Z</time>
      </trkpt>
      <trkpt lat="48.598876" lon="10.173860">
        <ele>520.576131</ele>
        <time>2020-09-10T07:51:02.769Z</time>
      </trkpt>
      <trkpt lat="48.598863" lon="10.173995">
        <ele>520.589473</ele>
        <time>2020-09-10T07:51:04.780Z</time>
      </trkpt>
      <trkpt lat="48.598858" lon="10.174176">
        <ele>520.607191</ele>
        <time>2020-09-10T07:51:07.764Z</time>
      </trkpt>
      <trkpt lat="48.598856" lon="10.174322">
        <ele>520.621474</ele>
        <time>2020-09-10T07:51:09.758Z</time>
      </trkpt>
      <trkpt lat="48.598840" lon="10.174514">
        <ele>520.640400</ele>
        <time>2020-09-10T07:51:12.764Z</time>
      </trkpt>
      <trkpt lat="48.598821" lon="10.174653">
        <ele>520.654282</ele>
        <time>2020-09-10T07:51:14.753Z</time>
      </trkpt>
      <trkpt lat="48.598801" lon="10.174819">
        <ele>520.670785</ele>
        <time>2020-09-10T07:51:16.770Z</time>
      </trkpt>
      <trkpt lat="48.598761" lon="10.174992">
        <ele>520.688709</ele>
        <time>2020-09-10T07:51:19.764Z</time>
      </trkpt>
      <trkpt lat="48.598716" lon="10.175144">
        <ele>520.704997</ele>
        <time>2020-09-10T07:51:22.764Z</time>
      </trkpt>
      <trkpt lat="48.598666" lon="10.175305">
        <ele>520.722393</ele>
        <time>2020-09-10T07:51:25.756Z</time>
      </trkpt>
      <trkpt lat="48.598602" lon="10.175488">
        <ele>520.742640</ele>
        <time>2020-09-10T07:51:28.766Z</time>
      </trkpt>
      <trkpt lat="48.598562" lon="10.175619">
        <ele>520.756752</ele>
        <time>2020-09-10T07:51:30.754Z</time>
      </trkpt>
      <trkpt lat="48.598539" lon="10.175764">
        <ele>520.771336</ele>
        <time>2020-09-10T07:51:33.754Z</time>
      </trkpt>
      <trkpt lat="48.598548" lon="10.175918">
        <ele>520.769834</ele>
        <time>2020-09-10T07:51:44.768Z</time>
      </trkpt>
      <trkpt lat="48.598588" lon="10.176091">
        <ele>520.557485</ele>
        <time>2020-09-10T07:57:01.763Z</time>
      </trkpt>
      <trkpt lat="48.598596" lon="10.176253">
        <ele>520.369258</ele>
        <time>2020-09-10T07:57:07.763Z</time>
      </trkpt>
      <trkpt lat="48.598594" lon="10.176424">
        <ele>520.171093</ele>
        <time>2020-09-10T07:57:11.763Z</time>
      </trkpt>
      <trkpt lat="48.598603" lon="10.176591">
        <ele>519.976953</ele>
        <time>2020-09-10T07:57:14.773Z</time>
      </trkpt>
      <trkpt lat="48.598620" lon="10.176781">
        <ele>519.754800</ele>
        <time>2020-09-10T07:57:17.764Z</time>
      </trkpt>
      <trkpt lat="48.598650" lon="10.176977">
        <ele>519.521696</ele>
        <time>2020-09-10T07:57:20.763Z</time>
      </trkpt>
      <trkpt lat="48.598680" lon="10.177116">
        <ele>519.352281</ele>
        <time>2020-09-10T07:57:22.762Z</time>
      </trkpt>
      <trkpt lat="48.598724" lon="10.177298">
        <ele>519.127754</ele>
        <time>2020-09-10T07:57:25.759Z</time>
      </trkpt>
      <trkpt lat="48.598763" lon="10.177426">
        <ele>518.964461</ele>
        <time>2020-09-10T07:57:27.765Z</time>
      </trkpt>
      <trkpt lat="48.598805" lon="10.177553">
        <ele>518.799936</ele>
        <time>2020-09-10T07:57:29.757Z</time>
      </trkpt>
      <trkpt lat="48.598864" lon="10.177722">
        <ele>518.578512</ele>
        <time>2020-09-10T07:57:32.770Z</time>
      </trkpt>
      <trkpt lat="48.598915" lon="10.177905">
        <ele>518.348417</ele>
        <time>2020-09-10T07:57:35.763Z</time>
      </trkpt>
      <trkpt lat="48.598955" lon="10.178031">
        <ele>518.186476</ele>
        <time>2020-09-10T07:57:37.757Z</time>
      </trkpt>
      <trkpt lat="48.599016" lon="10.178218">
        <ele>517.944881</ele>
        <time>2020-09-10T07:57:40.758Z</time>
      </trkpt>
      <trkpt lat="48.599063" lon="10.178354">
        <ele>517.767084</ele>
        <time>2020-09-10T07:57:42.768Z</time>
      </trkpt>
      <trkpt lat="48.599127" lon="10.178494">
        <ele>517.635588</ele>
        <time>2020-09-10T07:57:44.762Z</time>
      </trkpt>
      <trkpt lat="48.599198" lon="10.178637">
        <ele>517.641133</ele>
        <time>2020-09-10T07:57:46.761Z</time>
      </trkpt>
      <trkpt lat="48.599284" lon="10.178749">
        <ele>517.646456</ele>
        <time>2020-09-10T07:57:48.761Z</time>
      </trkpt>
      <trkpt lat="48.599362" lon="10.178843">
        <ele>517.651133</ele>
        <time>2020-09-10T07:57:50.762Z</time>
      </trkpt>
      <trkpt lat="48.599466" lon="10.178905">
        <ele>517.656375</ele>
        <time>2020-09-10T07:57:52.759Z</time>
      </trkpt>
      <trkpt lat="48.599554" lon="10.178954">
        <ele>517.660772</ele>
        <time>2020-09-10T07:57:54.762Z</time>
      </trkpt>
      <trkpt lat="48.599672" lon="10.178974">
        <ele>517.666340</ele>
        <time>2020-09-10T07:57:57.770Z</time>
      </trkpt>
      <trkpt lat="48.599781" lon="10.178921">
        <ele>517.671709</ele>
        <time>2020-09-10T07:58:01.757Z</time>
      </trkpt>
      <trkpt lat="48.599859" lon="10.178801">
        <ele>517.676927</ele>
        <time>2020-09-10T07:58:05.770Z</time>
      </trkpt>
      <trkpt lat="48.599953" lon="10.178683">
        <ele>517.682656</ele>
        <time>2020-09-10T07:58:09.760Z</time>
      </trkpt>
      <trkpt lat="48.600030" lon="10.178572">
        <ele>517.687644</ele>
        <time>2020-09-10T07:58:12.762Z</time>
      </trkpt>
      <trkpt lat="48.600108" lon="10.178474">
        <ele>517.692400</ele>
        <time>2020-09-10T07:58:15.767Z</time>
      </trkpt>
      <trkpt lat="48.600196" lon="10.178361">
        <ele>517.697813</ele>
        <time>2020-09-10T07:58:18.760Z</time>
      </trkpt>
      <trkpt lat="48.600286" lon="10.178259">
        <ele>517.703087</ele>
        <time>2020-09-10T07:58:20.755Z</time>
      </trkpt>
      <trkpt lat="48.600383" lon="10.178150">
        <ele>517.708754</ele>
        <time>2020-09-10T07:58:22.766Z</time>
      </trkpt>
      <trkpt lat="48.600484" lon="10.178028">
        <ele>517.714816</ele>
        <time>2020-09-10T07:58:24.757Z</time>
      </trkpt>
      <trkpt lat="48.600591" lon="10.177891">
        <ele>517.779605</ele>
        <time>2020-09-10T07:58:26.760Z</time>
      </trkpt>
      <trkpt lat="48.600665" lon="10.177751">
        <ele>517.887143</ele>
        <time>2020-09-10T07:58:28.782Z</time>
      </trkpt>
      <trkpt lat="48.600738" lon="10.177620">
        <ele>517.989931</ele>
        <time>2020-09-10T07:58:30.775Z</time>
      </trkpt>
      <trkpt lat="48.600794" lon="10.177492">
        <ele>518.082019</ele>
        <time>2020-09-10T07:58:32.766Z</time>
      </trkpt>
      <trkpt lat="48.600849" lon="10.177368">
        <ele>518.171607</ele>
        <time>2020-09-10T07:58:34.782Z</time>
      </trkpt>
      <trkpt lat="48.600909" lon="10.177239">
        <ele>518.266236</ele>
        <time>2020-09-10T07:58:36.764Z</time>
      </trkpt>
      <trkpt lat="48.600973" lon="10.177099">
        <ele>518.368355</ele>
        <time>2020-09-10T07:58:38.762Z</time>
      </trkpt>
      <trkpt lat="48.601043" lon="10.176955">
        <ele>518.475590</ele>
        <time>2020-09-10T07:58:40.788Z</time>
      </trkpt>
      <trkpt lat="48.601099" lon="10.176835">
        <ele>518.563714</ele>
        <time>2020-09-10T07:58:42.765Z</time>
      </trkpt>
      <trkpt lat="48.601169" lon="10.176702">
        <ele>518.665705</ele>
        <time>2020-09-10T07:58:45.766Z</time>
      </trkpt>
      <trkpt lat="48.601246" lon="10.176616">
        <ele>518.752559</ele>
        <time>2020-09-10T07:58:48.765Z</time>
      </trkpt>
      <trkpt lat="48.601359" lon="10.176686">
        <ele>518.863356</ele>
        <time>2020-09-10T07:58:51.763Z</time>
      </trkpt>
      <trkpt lat="48.601465" lon="10.176758">
        <ele>518.968790</ele>
        <time>2020-09-10T07:58:54.768Z</time>
      </trkpt>
      <trkpt lat="48.601572" lon="10.176847">
        <ele>519.079591</ele>
        <time>2020-09-10T07:58:57.768Z</time>
      </trkpt>
      <trkpt lat="48.601662" lon="10.176944">
        <ele>519.179869</ele>
        <time>2020-09-10T07:59:00.766Z</time>
      </trkpt>
      <trkpt lat="48.601768" lon="10.177054">
        <ele>519.296513</ele>
        <time>2020-09-10T07:59:03.767Z</time>
      </trkpt>
      <trkpt lat="48.601816" lon="10.177216">
        <ele>519.384108</ele>
        <time>2020-09-10T07:59:06.765Z</time>
      </trkpt>
      <trkpt lat="48.601764" lon="10.177345">
        <ele>519.442310</ele>
        <time>2020-09-10T07:59:08.768Z</time>
      </trkpt>
      <trkpt lat="48.601705" lon="10.177470">
        <ele>519.501474</ele>
        <time>2020-09-10T07:59:10.766Z</time>
      </trkpt>
      <trkpt lat="48.601648" lon="10.177612">
        <ele>519.565468</ele>
        <time>2020-09-10T07:59:12.767Z</time>
      </trkpt>
      <trkpt lat="48.601599" lon="10.177753">
        <ele>519.626832</ele>
        <time>2020-09-10T07:59:14.769Z</time>
      </trkpt>
      <trkpt lat="48.601549" lon="10.177884">
        <ele>519.685102</ele>
        <time>2020-09-10T07:59:16.761Z</time>
      </trkpt>
      <trkpt lat="48.601490" lon="10.178027">
        <ele>519.750035</ele>
        <time>2020-09-10T07:59:18.756Z</time>
      </trkpt>
      <trkpt lat="48.601433" lon="10.178158">
        <ele>519.810448</ele>
        <time>2020-09-10T07:59:20.779Z</time>
      </trkpt>
      <trkpt lat="48.601370" lon="10.178269">
        <ele>519.866801</ele>
        <time>2020-09-10T07:59:22.772Z</time>
      </trkpt>
      <trkpt lat="48.601309" lon="10.178374">
        <ele>519.920644</ele>
        <time>2020-09-10T07:59:24.760Z</time>
      </trkpt>
      <trkpt lat="48.601206" lon="10.178508">
        <ele>519.999799</ele>
        <time>2020-09-10T07:59:27.757Z</time>
      </trkpt>
      <trkpt lat="48.601103" lon="10.178611">
        <ele>520.071737</ele>
        <time>2020-09-10T07:59:30.761Z</time>
      </trkpt>
      <trkpt lat="48.601015" lon="10.178710">
        <ele>520.135635</ele>
        <time>2020-09-10T07:59:33.746Z</time>
      </trkpt>
      <trkpt lat="48.600926" lon="10.178825">
        <ele>520.203834</ele>
        <time>2020-09-10T07:59:36.761Z</time>
      </trkpt>
      <trkpt lat="48.600858" lon="10.178914">
        <ele>520.256226</ele>
        <time>2020-09-10T07:59:38.759Z</time>
      </trkpt>
      <trkpt lat="48.600763" lon="10.179051">
        <ele>520.332702</ele>
        <time>2020-09-10T07:59:41.757Z</time>
      </trkpt>
      <trkpt lat="48.600708" lon="10.179159">
        <ele>520.385217</ele>
        <time>2020-09-10T07:59:43.755Z</time>
      </trkpt>
      <trkpt lat="48.600643" lon="10.179316">
        <ele>520.603493</ele>
        <time>2020-09-10T07:59:46.751Z</time>
      </trkpt>
      <trkpt lat="48.600582" lon="10.179452">
        <ele>520.825597</ele>
        <time>2020-09-10T07:59:49.761Z</time>
      </trkpt>
      <trkpt lat="48.600535" lon="10.179588">
        <ele>521.032997</ele>
        <time>2020-09-10T07:59:52.770Z</time>
      </trkpt>
      <trkpt lat="48.600506" lon="10.179716">
        <ele>521.215870</ele>
        <time>2020-09-10T07:59:55.740Z</time>
      </trkpt>
      <trkpt lat="48.600459" lon="10.179865">
        <ele>521.438991</ele>
        <time>2020-09-10T07:59:59.764Z</time>
      </trkpt>
      <trkpt lat="48.600422" lon="10.180019">
        <ele>521.660445</ele>
        <time>2020-09-10T08:00:02.746Z</time>
      </trkpt>
      <trkpt lat="48.600383" lon="10.180180">
        <ele>521.892188</ele>
        <time>2020-09-10T08:00:06.752Z</time>
      </trkpt>
      <trkpt lat="48.600357" lon="10.180338">
        <ele>522.112250</ele>
        <time>2020-09-10T08:00:10.761Z</time>
      </trkpt>
      <trkpt lat="48.600344" lon="10.180489">
        <ele>522.318060</ele>
        <time>2020-09-10T08:00:13.766Z</time>
      </trkpt>
      <trkpt lat="48.600326" lon="10.180648">
        <ele>522.536087</ele>
        <time>2020-09-10T08:00:16.772Z</time>
      </trkpt>
      <trkpt lat="48.600306" lon="10.180831">
        <ele>522.786781</ele>
        <time>2020-09-10T08:00:19.765Z</time>
      </trkpt>
      <trkpt lat="48.600301" lon="10.181012">
        <ele>523.031631</ele>
        <time>2020-09-10T08:00:22.759Z</time>
      </trkpt>
      <trkpt lat="48.600253" lon="10.181194">
        <ele>523.296459</ele>
        <time>2020-09-10T08:00:25.757Z</time>
      </trkpt>
      <trkpt lat="48.600177" lon="10.181349">
        <ele>523.557256</ele>
        <time>2020-09-10T08:00:28.756Z</time>
      </trkpt>
      <trkpt lat="48.600101" lon="10.181501">
        <ele>523.814808</ele>
        <time>2020-09-10T08:00:31.754Z</time>
      </trkpt>
      <trkpt lat="48.600021" lon="10.181648">
        <ele>524.072118</ele>
        <time>2020-09-10T08:00:34.762Z</time>
      </trkpt>
      <trkpt lat="48.599967" lon="10.181791">
        <ele>525.205296</ele>
        <time>2020-09-10T08:00:37.763Z</time>
      </trkpt>
      <trkpt lat="48.599909" lon="10.181895">
        <ele>526.148130</ele>
        <time>2020-09-10T08:00:40.761Z</time>
      </trkpt>
      <trkpt lat="48.599837" lon="10.182029">
        <ele>527.344687</ele>
        <time>2020-09-10T08:00:44.761Z</time>
      </trkpt>
      <trkpt lat="48.599760" lon="10.182150">
        <ele>528.508453</ele>
        <time>2020-09-10T08:00:48.762Z</time>
      </trkpt>
      <trkpt lat="48.599717" lon="10.182284">
        <ele>529.540680</ele>
        <time>2020-09-10T08:00:52.757Z</time>
      </trkpt>
      <trkpt lat="48.599725" lon="10.182436">
        <ele>530.597428</ele>
        <time>2020-09-10T08:00:56.756Z</time>
      </trkpt>
      <trkpt lat="48.599730" lon="10.182588">
        <ele>531.652147</ele>
        <time>2020-09-10T08:01:00.760Z</time>
      </trkpt>
      <trkpt lat="48.599742" lon="10.182748">
        <ele>532.768115</ele>
        <time>2020-09-10T08:01:04.783Z</time>
      </trkpt>
      <trkpt lat="48.599733" lon="10.182912">
        <ele>533.908603</ele>
        <time>2020-09-10T08:01:08.769Z</time>
      </trkpt>
      <trkpt lat="48.599720" lon="10.183064">
        <ele>534.970793</ele>
        <time>2020-09-10T08:01:12.763Z</time>
      </trkpt>
      <trkpt lat="48.599709" lon="10.183234">
        <ele>536.154583</ele>
        <time>2020-09-10T08:01:17.767Z</time>
      </trkpt>
      <trkpt lat="48.599684" lon="10.183384">
        <ele>537.226645</ele>
        <time>2020-09-10T08:01:21.768Z</time>
      </trkpt>
      <trkpt lat="48.599661" lon="10.183525">
        <ele>538.233117</ele>
        <time>2020-09-10T08:01:25.765Z</time>
      </trkpt>
      <trkpt lat="48.599657" lon="10.183681">
        <ele>539.315069</ele>
        <time>2020-09-10T08:01:30.764Z</time>
      </trkpt>
      <trkpt lat="48.599661" lon="10.183844">
        <ele>540.445499</ele>
        <time>2020-09-10T08:01:35.760Z</time>
      </trkpt>
      <trkpt lat="48.599670" lon="10.184014">
        <ele>541.627433</ele>
        <time>2020-09-10T08:01:40.765Z</time>
      </trkpt>
      <trkpt lat="48.599650" lon="10.184160">
        <ele>542.660749</ele>
        <time>2020-09-10T08:01:45.759Z</time>
      </trkpt>
      <trkpt lat="48.599636" lon="10.184323">
        <ele>543.800815</ele>
        <time>2020-09-10T08:01:51.771Z</time>
      </trkpt>
      <trkpt lat="48.599603" lon="10.184490">
        <ele>545.010030</ele>
        <time>2020-09-10T08:01:55.764Z</time>
      </trkpt>
      <trkpt lat="48.599569" lon="10.184644">
        <ele>546.136404</ele>
        <time>2020-09-10T08:01:59.754Z</time>
      </trkpt>
      <trkpt lat="48.599529" lon="10.184801">
        <ele>547.303663</ele>
        <time>2020-09-10T08:02:03.759Z</time>
      </trkpt>
      <trkpt lat="48.599499" lon="10.184945">
        <ele>548.351096</ele>
        <time>2020-09-10T08:02:07.763Z</time>
      </trkpt>
      <trkpt lat="48.599485" lon="10.185098">
        <ele>549.422681</ele>
        <time>2020-09-10T08:02:11.778Z</time>
      </trkpt>
      <trkpt lat="48.599487" lon="10.185239">
        <ele>550.401126</ele>
        <time>2020-09-10T08:02:15.762Z</time>
      </trkpt>
      <trkpt lat="48.599492" lon="10.185377">
        <ele>551.359968</ele>
        <time>2020-09-10T08:02:19.760Z</time>
      </trkpt>
      <trkpt lat="48.599511" lon="10.185515">
        <ele>552.337903</ele>
        <time>2020-09-10T08:02:23.759Z</time>
      </trkpt>
      <trkpt lat="48.599538" lon="10.185656">
        <ele>553.356305</ele>
        <time>2020-09-10T08:02:27.757Z</time>
      </trkpt>
      <trkpt lat="48.599554" lon="10.185803">
        <ele>554.389870</ele>
        <time>2020-09-10T08:02:31.770Z</time>
      </trkpt>
      <trkpt lat="48.599564" lon="10.185940">
        <ele>555.346109</ele>
        <time>2020-09-10T08:02:34.770Z</time>
      </trkpt>
      <trkpt lat="48.599560" lon="10.186077">
        <ele>556.297503</ele>
        <time>2020-09-10T08:02:37.761Z</time>
      </trkpt>
      <trkpt lat="48.599569" lon="10.186216">
        <ele>557.266456</ele>
        <time>2020-09-10T08:02:40.775Z</time>
      </trkpt>
      <trkpt lat="48.599583" lon="10.186354">
        <ele>558.235061</ele>
        <time>2020-09-10T08:02:43.761Z</time>
      </trkpt>
      <trkpt lat="48.599588" lon="10.186509">
        <ele>559.311685</ele>
        <time>2020-09-10T08:02:47.773Z</time>
      </trkpt>
      <trkpt lat="48.599633" lon="10.186642">
        <ele>560.348153</ele>
        <time>2020-09-10T08:02:51.766Z</time>
      </trkpt>
      <trkpt lat="48.599682" lon="10.186786">
        <ele>561.471676</ele>
        <time>2020-09-10T08:02:55.766Z</time>
      </trkpt>
      <trkpt lat="48.599777" lon="10.186878">
        <ele>562.181635</ele>
        <time>2020-09-10T08:02:59.762Z</time>
      </trkpt>
      <trkpt lat="48.599876" lon="10.186950">
        <ele>562.701577</ele>
        <time>2020-09-10T08:03:03.759Z</time>
      </trkpt>
      <trkpt lat="48.599784" lon="10.186823">
        <ele>563.291166</ele>
        <time>2020-09-10T08:03:12.765Z</time>
      </trkpt>
      <trkpt lat="48.599678" lon="10.186762">
        <ele>563.827965</ele>
        <time>2020-09-10T08:03:14.769Z</time>
      </trkpt>
      <trkpt lat="48.599559" lon="10.186731">
        <ele>564.399486</ele>
        <time>2020-09-10T08:03:16.763Z</time>
      </trkpt>
      <trkpt lat="48.599457" lon="10.186744">
        <ele>564.883961</ele>
        <time>2020-09-10T08:03:18.768Z</time>
      </trkpt>
      <trkpt lat="48.599374" lon="10.186804">
        <ele>565.319381</ele>
        <time>2020-09-10T08:03:21.764Z</time>
      </trkpt>
      <trkpt lat="48.599317" lon="10.186953">
        <ele>565.858161</ele>
        <time>2020-09-10T08:06:25.759Z</time>
      </trkpt>
      <trkpt lat="48.599320" lon="10.187099">
        <ele>566.315364</ele>
        <time>2020-09-10T08:06:29.764Z</time>
      </trkpt>
      <trkpt lat="48.599326" lon="10.187258">
        <ele>566.813846</ele>
        <time>2020-09-10T08:06:32.763Z</time>
      </trkpt>
      <trkpt lat="48.599298" lon="10.187399">
        <ele>567.274646</ele>
        <time>2020-09-10T08:06:37.754Z</time>
      </trkpt>
      <trkpt lat="48.599286" lon="10.187577">
        <ele>567.834677</ele>
        <time>2020-09-10T08:06:41.763Z</time>
      </trkpt>
      <trkpt lat="48.599278" lon="10.187714">
        <ele>568.265158</ele>
        <time>2020-09-10T08:06:44.754Z</time>
      </trkpt>
      <trkpt lat="48.599275" lon="10.187851">
        <ele>568.694205</ele>
        <time>2020-09-10T08:06:47.760Z</time>
      </trkpt>
      <trkpt lat="48.599273" lon="10.188028">
        <ele>569.248300</ele>
        <time>2020-09-10T08:06:51.772Z</time>
      </trkpt>
      <trkpt lat="48.599243" lon="10.188201">
        <ele>569.808100</ele>
        <time>2020-09-10T08:06:55.767Z</time>
      </trkpt>
      <trkpt lat="48.599205" lon="10.188326">
        <ele>570.238711</ele>
        <time>2020-09-10T08:06:58.758Z</time>
      </trkpt>
      <trkpt lat="48.599133" lon="10.188585">
        <ele>570.910065</ele>
        <time>2020-09-10T08:07:32.766Z</time>
      </trkpt>
      <trkpt lat="48.599074" lon="10.188705">
        <ele>571.258304</ele>
        <time>2020-09-10T08:07:36.755Z</time>
      </trkpt>
      <trkpt lat="48.599030" lon="10.188827">
        <ele>571.581932</ele>
        <time>2020-09-10T08:07:39.759Z</time>
      </trkpt>
      <trkpt lat="48.598962" lon="10.188957">
        <ele>571.967943</ele>
        <time>2020-09-10T08:07:43.774Z</time>
      </trkpt>
      <trkpt lat="48.598886" lon="10.189073">
        <ele>572.348221</ele>
        <time>2020-09-10T08:07:47.755Z</time>
      </trkpt>
      <trkpt lat="48.598806" lon="10.189187">
        <ele>572.735333</ele>
        <time>2020-09-10T08:07:51.758Z</time>
      </trkpt>
      <trkpt lat="48.598726" lon="10.189305">
        <ele>573.128892</ele>
        <time>2020-09-10T08:07:55.768Z</time>
      </trkpt>
      <trkpt lat="48.598638" lon="10.189422">
        <ele>573.541544</ele>
        <time>2020-09-10T08:07:59.761Z</time>
      </trkpt>
      <trkpt lat="48.598549" lon="10.189517">
        <ele>573.925185</ele>
        <time>2020-09-10T08:08:03.746Z</time>
      </trkpt>
      <trkpt lat="48.598458" lon="10.189608">
        <ele>574.309385</ele>
        <time>2020-09-10T08:08:07.743Z</time>
      </trkpt>
      <trkpt lat="48.598370" lon="10.189696">
        <ele>574.680919</ele>
        <time>2020-09-10T08:08:11.750Z</time>
      </trkpt>
      <trkpt lat="48.598279" lon="10.189798">
        <ele>575.079824</ele>
        <time>2020-09-10T08:08:15.787Z</time>
      </trkpt>
      <trkpt lat="48.598217" lon="10.189902">
        <ele>575.405915</ele>
        <time>2020-09-10T08:08:18.760Z</time>
      </trkpt>
      <trkpt lat="48.598135" lon="10.190039">
        <ele>575.836248</ele>
        <time>2020-09-10T08:08:22.765Z</time>
      </trkpt>
      <trkpt lat="48.598052" lon="10.190181">
        <ele>576.277610</ele>
        <time>2020-09-10T08:08:25.771Z</time>
      </trkpt>
      <trkpt lat="48.597966" lon="10.190327">
        <ele>576.639984</ele>
        <time>2020-09-10T08:08:28.778Z</time>
      </trkpt>
      <trkpt lat="48.597901" lon="10.190478">
        <ele>576.642906</ele>
        <time>2020-09-10T08:08:31.759Z</time>
      </trkpt>
      <trkpt lat="48.597836" lon="10.190629">
        <ele>576.645829</ele>
        <time>2020-09-10T08:08:34.778Z</time>
      </trkpt>
      <trkpt lat="48.597765" lon="10.190778">
        <ele>576.648807</ele>
        <time>2020-09-10T08:08:37.763Z</time>
      </trkpt>
      <trkpt lat="48.597695" lon="10.190914">
        <ele>576.651603</ele>
        <time>2020-09-10T08:08:40.761Z</time>
      </trkpt>
      <trkpt lat="48.597634" lon="10.191043">
        <ele>576.654175</ele>
        <time>2020-09-10T08:08:43.750Z</time>
      </trkpt>
      <trkpt lat="48.597586" lon="10.191158">
        <ele>576.656381</ele>
        <time>2020-09-10T08:08:46.757Z</time>
      </trkpt>
      <trkpt lat="48.597526" lon="10.191312">
        <ele>576.659280</ele>
        <time>2020-09-10T08:08:50.770Z</time>
      </trkpt>
      <trkpt lat="48.597474" lon="10.191424">
        <ele>576.661499</ele>
        <time>2020-09-10T08:08:53.760Z</time>
      </trkpt>
      <trkpt lat="48.597412" lon="10.191551">
        <ele>576.664060</ele>
        <time>2020-09-10T08:08:56.758Z</time>
      </trkpt>
      <trkpt lat="48.597329" lon="10.191698">
        <ele>576.667195</ele>
        <time>2020-09-10T08:08:59.757Z</time>
      </trkpt>
      <trkpt lat="48.597263" lon="10.191806">
        <ele>576.669580</ele>
        <time>2020-09-10T08:09:01.757Z</time>
      </trkpt>
      <trkpt lat="48.597197" lon="10.191919">
        <ele>576.672026</ele>
        <time>2020-09-10T08:09:03.767Z</time>
      </trkpt>
      <trkpt lat="48.597120" lon="10.192034">
        <ele>576.674680</ele>
        <time>2020-09-10T08:09:05.770Z</time>
      </trkpt>
      <trkpt lat="48.597036" lon="10.192143">
        <ele>576.677395</ele>
        <time>2020-09-10T08:09:07.769Z</time>
      </trkpt>
      <trkpt lat="48.596933" lon="10.192243">
        <ele>576.680397</ele>
        <time>2020-09-10T08:09:09.761Z</time>
      </trkpt>
      <trkpt lat="48.596808" lon="10.192330">
        <ele>576.639234</ele>
        <time>2020-09-10T08:09:11.759Z</time>
      </trkpt>
      <trkpt lat="48.596672" lon="10.192412">
        <ele>576.152701</ele>
        <time>2020-09-10T08:09:13.759Z</time>
      </trkpt>
      <trkpt lat="48.596547" lon="10.192495">
        <ele>575.699039</ele>
        <time>2020-09-10T08:09:15.762Z</time>
      </trkpt>
      <trkpt lat="48.596413" lon="10.192580">
        <ele>575.216161</ele>
        <time>2020-09-10T08:09:17.760Z</time>
      </trkpt>
      <trkpt lat="48.596281" lon="10.192652">
        <ele>574.749856</ele>
        <time>2020-09-10T08:09:19.750Z</time>
      </trkpt>
      <trkpt lat="48.596150" lon="10.192722">
        <ele>574.288160</ele>
        <time>2020-09-10T08:09:21.756Z</time>
      </trkpt>
      <trkpt lat="48.596025" lon="10.192806">
        <ele>573.833609</ele>
        <time>2020-09-10T08:09:23.762Z</time>
      </trkpt>
      <trkpt lat="48.595902" lon="10.192888">
        <ele>573.386914</ele>
        <time>2020-09-10T08:09:25.764Z</time>
      </trkpt>
      <trkpt lat="48.595784" lon="10.192989">
        <ele>572.936333</ele>
        <time>2020-09-10T08:09:27.755Z</time>
      </trkpt>
      <trkpt lat="48.595680" lon="10.193100">
        <ele>572.513315</ele>
        <time>2020-09-10T08:09:29.761Z</time>
      </trkpt>
      <trkpt lat="48.595572" lon="10.193209">
        <ele>572.081825</ele>
        <time>2020-09-10T08:09:31.765Z</time>
      </trkpt>
      <trkpt lat="48.595442" lon="10.193269">
        <ele>571.630158</ele>
        <time>2020-09-10T08:09:33.758Z</time>
      </trkpt>
      <trkpt lat="48.595306" lon="10.193308">
        <ele>571.170174</ele>
        <time>2020-09-10T08:09:35.762Z</time>
      </trkpt>
      <trkpt lat="48.595164" lon="10.193331">
        <ele>570.698822</ele>
        <time>2020-09-10T08:09:37.760Z</time>
      </trkpt>
      <trkpt lat="48.595024" lon="10.193350">
        <ele>570.368877</ele>
        <time>2020-09-10T08:09:39.763Z</time>
      </trkpt>
      <trkpt lat="48.594885" lon="10.193369">
        <ele>570.041270</ele>
        <time>2020-09-10T08:09:41.756Z</time>
      </trkpt>
      <trkpt lat="48.594744" lon="10.193388">
        <ele>569.708986</ele>
        <time>2020-09-10T08:09:43.757Z</time>
      </trkpt>
      <trkpt lat="48.594602" lon="10.193402">
        <ele>569.374960</ele>
        <time>2020-09-10T08:09:45.763Z</time>
      </trkpt>
      <trkpt lat="48.594464" lon="10.193419">
        <ele>569.049957</ele>
        <time>2020-09-10T08:09:47.767Z</time>
      </trkpt>
      <trkpt lat="48.594347" lon="10.193418">
        <ele>568.775317</ele>
        <time>2020-09-10T08:09:49.775Z</time>
      </trkpt>
      <trkpt lat="48.594228" lon="10.193417">
        <ele>568.495982</ele>
        <time>2020-09-10T08:09:51.760Z</time>
      </trkpt>
      <trkpt lat="48.594112" lon="10.193424">
        <ele>568.223477</ele>
        <time>2020-09-10T08:09:53.762Z</time>
      </trkpt>
      <trkpt lat="48.594008" lon="10.193434">
        <ele>567.978863</ele>
        <time>2020-09-10T08:09:55.768Z</time>
      </trkpt>
      <trkpt lat="48.593879" lon="10.193471">
        <ele>567.670659</ele>
        <time>2020-09-10T08:09:58.766Z</time>
      </trkpt>
      <trkpt lat="48.593759" lon="10.193535">
        <ele>567.371971</ele>
        <time>2020-09-10T08:10:01.757Z</time>
      </trkpt>
      <trkpt lat="48.593709" lon="10.193707">
        <ele>567.080286</ele>
        <time>2020-09-10T08:10:04.763Z</time>
      </trkpt>
      <trkpt lat="48.593704" lon="10.193915">
        <ele>566.757153</ele>
        <time>2020-09-10T08:10:07.746Z</time>
      </trkpt>
      <trkpt lat="48.593700" lon="10.194060">
        <ele>566.531845</ele>
        <time>2020-09-10T08:10:09.763Z</time>
      </trkpt>
      <trkpt lat="48.593687" lon="10.194245">
        <ele>566.061126</ele>
        <time>2020-09-10T08:10:11.764Z</time>
      </trkpt>
      <trkpt lat="48.593674" lon="10.194445">
        <ele>565.514200</ele>
        <time>2020-09-10T08:10:13.759Z</time>
      </trkpt>
      <trkpt lat="48.593658" lon="10.194659">
        <ele>564.928086</ele>
        <time>2020-09-10T08:10:15.761Z</time>
      </trkpt>
      <trkpt lat="48.593641" lon="10.194879">
        <ele>564.325279</ele>
        <time>2020-09-10T08:10:17.754Z</time>
      </trkpt>
      <trkpt lat="48.593627" lon="10.195119">
        <ele>563.669579</ele>
        <time>2020-09-10T08:10:19.771Z</time>
      </trkpt>
      <trkpt lat="48.593611" lon="10.195353">
        <ele>563.029349</ele>
        <time>2020-09-10T08:10:21.758Z</time>
      </trkpt>
      <trkpt lat="48.593586" lon="10.195588">
        <ele>562.381571</ele>
        <time>2020-09-10T08:10:23.756Z</time>
      </trkpt>
      <trkpt lat="48.593554" lon="10.195807">
        <ele>561.771186</ele>
        <time>2020-09-10T08:10:25.769Z</time>
      </trkpt>
      <trkpt lat="48.593541" lon="10.195962">
        <ele>561.345971</ele>
        <time>2020-09-10T08:10:27.758Z</time>
      </trkpt>
      <trkpt lat="48.593575" lon="10.196143">
        <ele>560.833893</ele>
        <time>2020-09-10T08:10:30.761Z</time>
      </trkpt>
      <trkpt lat="48.593595" lon="10.196280">
        <ele>560.452070</ele>
        <time>2020-09-10T08:10:32.763Z</time>
      </trkpt>
      <trkpt lat="48.593622" lon="10.196424">
        <ele>560.044728</ele>
        <time>2020-09-10T08:10:34.771Z</time>
      </trkpt>
      <trkpt lat="48.593655" lon="10.196558">
        <ele>559.655584</ele>
        <time>2020-09-10T08:10:36.760Z</time>
      </trkpt>
      <trkpt lat="48.593691" lon="10.196698">
        <ele>559.246788</ele>
        <time>2020-09-10T08:10:38.756Z</time>
      </trkpt>
      <trkpt lat="48.593722" lon="10.196851">
        <ele>558.855153</ele>
        <time>2020-09-10T08:10:40.752Z</time>
      </trkpt>
      <trkpt lat="48.593747" lon="10.196995">
        <ele>558.515263</ele>
        <time>2020-09-10T08:10:42.756Z</time>
      </trkpt>
      <trkpt lat="48.593782" lon="10.197172">
        <ele>558.093498</ele>
        <time>2020-09-10T08:10:45.765Z</time>
      </trkpt>
      <trkpt lat="48.593796" lon="10.197342">
        <ele>557.702390</ele>
        <time>2020-09-10T08:10:49.761Z</time>
      </trkpt>
      <trkpt lat="48.593817" lon="10.197481">
        <ele>557.376879</ele>
        <time>2020-09-10T08:10:51.783Z</time>
      </trkpt>
      <trkpt lat="48.593847" lon="10.197642">
        <ele>556.995007</ele>
        <time>2020-09-10T08:10:53.759Z</time>
      </trkpt>
      <trkpt lat="48.593886" lon="10.197808">
        <ele>556.592830</ele>
        <time>2020-09-10T08:10:55.751Z</time>
      </trkpt>
      <trkpt lat="48.593921" lon="10.197985">
        <ele>556.171066</ele>
        <time>2020-09-10T08:10:57.766Z</time>
      </trkpt>
      <trkpt lat="48.593933" lon="10.198151">
        <ele>555.789831</ele>
        <time>2020-09-10T08:10:59.760Z</time>
      </trkpt>
      <trkpt lat="48.593925" lon="10.198332">
        <ele>555.375687</ele>
        <time>2020-09-10T08:11:01.761Z</time>
      </trkpt>
      <trkpt lat="48.593935" lon="10.198536">
        <ele>554.908678</ele>
        <time>2020-09-10T08:11:03.770Z</time>
      </trkpt>
      <trkpt lat="48.593939" lon="10.198720">
        <ele>554.488380</ele>
        <time>2020-09-10T08:11:05.736Z</time>
      </trkpt>
      <trkpt lat="48.593943" lon="10.198900">
        <ele>554.077209</ele>
        <time>2020-09-10T08:11:07.759Z</time>
      </trkpt>
      <trkpt lat="48.593956" lon="10.199083">
        <ele>553.657018</ele>
        <time>2020-09-10T08:11:09.772Z</time>
      </trkpt>
      <trkpt lat="48.593957" lon="10.199274">
        <ele>553.220952</ele>
        <time>2020-09-10T08:11:11.771Z</time>
      </trkpt>
      <trkpt lat="48.593966" lon="10.199460">
        <ele>552.695922</ele>
        <time>2020-09-10T08:11:13.756Z</time>
      </trkpt>
      <trkpt lat="48.593978" lon="10.199644">
        <ele>551.748342</ele>
        <time>2020-09-10T08:11:15.770Z</time>
      </trkpt>
      <trkpt lat="48.593968" lon="10.199832">
        <ele>550.781724</ele>
        <time>2020-09-10T08:11:17.762Z</time>
      </trkpt>
      <trkpt lat="48.593939" lon="10.200026">
        <ele>549.762388</ele>
        <time>2020-09-10T08:11:19.756Z</time>
      </trkpt>
      <trkpt lat="48.593914" lon="10.200214">
        <ele>548.779598</ele>
        <time>2020-09-10T08:11:21.773Z</time>
      </trkpt>
      <trkpt lat="48.593893" lon="10.200407">
        <ele>547.777168</ele>
        <time>2020-09-10T08:11:23.758Z</time>
      </trkpt>
      <trkpt lat="48.593879" lon="10.200567">
        <ele>546.950016</ele>
        <time>2020-09-10T08:11:25.764Z</time>
      </trkpt>
      <trkpt lat="48.593840" lon="10.200722">
        <ele>546.100091</ele>
        <time>2020-09-10T08:11:27.781Z</time>
      </trkpt>
      <trkpt lat="48.593734" lon="10.200868">
        <ele>544.988985</ele>
        <time>2020-09-10T08:11:29.748Z</time>
      </trkpt>
      <trkpt lat="48.593619" lon="10.201020">
        <ele>543.805366</ele>
        <time>2020-09-10T08:11:31.758Z</time>
      </trkpt>
      <trkpt lat="48.593518" lon="10.201226">
        <ele>542.491151</ele>
        <time>2020-09-10T08:11:33.771Z</time>
      </trkpt>
      <trkpt lat="48.593439" lon="10.201470">
        <ele>541.098834</ele>
        <time>2020-09-10T08:11:35.760Z</time>
      </trkpt>
      <trkpt lat="48.593390" lon="10.201728">
        <ele>539.723125</ele>
        <time>2020-09-10T08:11:37.756Z</time>
      </trkpt>
      <trkpt lat="48.593356" lon="10.201962">
        <ele>538.394692</ele>
        <time>2020-09-10T08:11:39.761Z</time>
      </trkpt>
      <trkpt lat="48.593351" lon="10.202125">
        <ele>537.368216</ele>
        <time>2020-09-10T08:11:41.748Z</time>
      </trkpt>
      <trkpt lat="48.593322" lon="10.202271">
        <ele>536.409260</ele>
        <time>2020-09-10T08:11:44.758Z</time>
      </trkpt>
      <trkpt lat="48.593233" lon="10.202391">
        <ele>535.275073</ele>
        <time>2020-09-10T08:11:47.762Z</time>
      </trkpt>
      <trkpt lat="48.593119" lon="10.202494">
        <ele>534.011960</ele>
        <time>2020-09-10T08:11:50.763Z</time>
      </trkpt>
      <trkpt lat="48.593017" lon="10.202570">
        <ele>532.930420</ele>
        <time>2020-09-10T08:11:52.757Z</time>
      </trkpt>
      <trkpt lat="48.592904" lon="10.202650">
        <ele>531.743675</ele>
        <time>2020-09-10T08:11:54.765Z</time>
      </trkpt>
      <trkpt lat="48.592772" lon="10.202758">
        <ele>530.316170</ele>
        <time>2020-09-10T08:11:56.761Z</time>
      </trkpt>
      <trkpt lat="48.592640" lon="10.202854">
        <ele>528.923008</ele>
        <time>2020-09-10T08:11:58.762Z</time>
      </trkpt>
      <trkpt lat="48.592502" lon="10.202957">
        <ele>527.459255</ele>
        <time>2020-09-10T08:12:00.766Z</time>
      </trkpt>
      <trkpt lat="48.592384" lon="10.203081">
        <ele>526.092484</ele>
        <time>2020-09-10T08:12:02.751Z</time>
      </trkpt>
      <trkpt lat="48.592295" lon="10.203254">
        <ele>524.713738</ele>
        <time>2020-09-10T08:12:04.762Z</time>
      </trkpt>
      <trkpt lat="48.592217" lon="10.203448">
        <ele>523.285535</ele>
        <time>2020-09-10T08:12:06.762Z</time>
      </trkpt>
      <trkpt lat="48.592133" lon="10.203646">
        <ele>521.816939</ele>
        <time>2020-09-10T08:12:08.749Z</time>
      </trkpt>
      <trkpt lat="48.592042" lon="10.203826">
        <ele>521.039420</ele>
        <time>2020-09-10T08:12:10.743Z</time>
      </trkpt>
      <trkpt lat="48.591977" lon="10.203986">
        <ele>520.395018</ele>
        <time>2020-09-10T08:12:12.761Z</time>
      </trkpt>
      <trkpt lat="48.591938" lon="10.204157">
        <ele>519.774261</ele>
        <time>2020-09-10T08:12:15.760Z</time>
      </trkpt>
      <trkpt lat="48.591924" lon="10.204352">
        <ele>519.101117</ele>
        <time>2020-09-10T08:12:18.761Z</time>
      </trkpt>
      <trkpt lat="48.591920" lon="10.204505">
        <ele>518.575631</ele>
        <time>2020-09-10T08:12:20.753Z</time>
      </trkpt>
      <trkpt lat="48.591961" lon="10.204658">
        <ele>518.009098</ele>
        <time>2020-09-10T08:12:22.752Z</time>
      </trkpt>
      <trkpt lat="48.592027" lon="10.204806">
        <ele>517.396521</ele>
        <time>2020-09-10T08:12:24.770Z</time>
      </trkpt>
      <trkpt lat="48.592074" lon="10.204949">
        <ele>516.848514</ele>
        <time>2020-09-10T08:12:26.752Z</time>
      </trkpt>
      <trkpt lat="48.592121" lon="10.205091">
        <ele>516.303579</ele>
        <time>2020-09-10T08:12:31.763Z</time>
      </trkpt>
      <trkpt lat="48.592202" lon="10.205205">
        <ele>515.729386</ele>
        <time>2020-09-10T08:12:35.753Z</time>
      </trkpt>
      <trkpt lat="48.592312" lon="10.205235">
        <ele>515.149423</ele>
        <time>2020-09-10T08:12:38.753Z</time>
      </trkpt>
      <trkpt lat="48.592358" lon="10.205374">
        <ele>514.616019</ele>
        <time>2020-09-10T08:12:40.752Z</time>
      </trkpt>
      <trkpt lat="48.592380" lon="10.205527">
        <ele>514.078683</ele>
        <time>2020-09-10T08:12:42.761Z</time>
      </trkpt>
      <trkpt lat="48.592432" lon="10.205689">
        <ele>513.460715</ele>
        <time>2020-09-10T08:12:44.762Z</time>
      </trkpt>
      <trkpt lat="48.592447" lon="10.205843">
        <ele>512.926513</ele>
        <time>2020-09-10T08:12:46.754Z</time>
      </trkpt>
      <trkpt lat="48.592441" lon="10.205988">
        <ele>512.526196</ele>
        <time>2020-09-10T08:12:48.752Z</time>
      </trkpt>
      <trkpt lat="48.592417" lon="10.206143">
        <ele>512.747821</ele>
        <time>2020-09-10T08:12:50.757Z</time>
      </trkpt>
      <trkpt lat="48.592410" lon="10.206301">
        <ele>512.968281</ele>
        <time>2020-09-10T08:12:52.764Z</time>
      </trkpt>
      <trkpt lat="48.592411" lon="10.206446">
        <ele>513.170160</ele>
        <time>2020-09-10T08:12:54.752Z</time>
      </trkpt>
      <trkpt lat="48.592423" lon="10.206585">
        <ele>513.365317</ele>
        <time>2020-09-10T08:12:56.754Z</time>
      </trkpt>
      <trkpt lat="48.592437" lon="10.206719">
        <ele>513.554185</ele>
        <time>2020-09-10T08:12:58.771Z</time>
      </trkpt>
      <trkpt lat="48.592502" lon="10.206886">
        <ele>513.823951</ele>
        <time>2020-09-10T08:13:01.749Z</time>
      </trkpt>
      <trkpt lat="48.592581" lon="10.206962">
        <ele>514.021045</ele>
        <time>2020-09-10T08:13:03.752Z</time>
      </trkpt>
      <trkpt lat="48.592692" lon="10.207059">
        <ele>514.290906</ele>
        <time>2020-09-10T08:13:06.756Z</time>
      </trkpt>
      <trkpt lat="48.592754" lon="10.207176">
        <ele>514.499624</ele>
        <time>2020-09-10T08:13:08.751Z</time>
      </trkpt>
      <trkpt lat="48.592680" lon="10.207375">
        <ele>514.817454</ele>
        <time>2020-09-10T08:13:38.754Z</time>
      </trkpt>
      <trkpt lat="48.592599" lon="10.207447">
        <ele>515.015232</ele>
        <time>2020-09-10T08:13:41.755Z</time>
      </trkpt>
      <trkpt lat="48.592513" lon="10.207523">
        <ele>515.224907</ele>
        <time>2020-09-10T08:13:45.774Z</time>
      </trkpt>
      <trkpt lat="48.592420" lon="10.207598">
        <ele>515.446768</ele>
        <time>2020-09-10T08:13:50.760Z</time>
      </trkpt>
      <trkpt lat="48.592337" lon="10.207654">
        <ele>515.638080</ele>
        <time>2020-09-10T08:13:55.744Z</time>
      </trkpt>
      <trkpt lat="48.592246" lon="10.207699">
        <ele>515.839610</ele>
        <time>2020-09-10T08:13:59.758Z</time>
      </trkpt>
      <trkpt lat="48.592141" lon="10.207736">
        <ele>516.066546</ele>
        <time>2020-09-10T08:14:05.757Z</time>
      </trkpt>
      <trkpt lat="48.592049" lon="10.207759">
        <ele>516.262826</ele>
        <time>2020-09-10T08:14:08.766Z</time>
      </trkpt>
      <trkpt lat="48.591935" lon="10.207769">
        <ele>515.924833</ele>
        <time>2020-09-10T08:14:11.750Z</time>
      </trkpt>
      <trkpt lat="48.591826" lon="10.207764">
        <ele>515.549316</ele>
        <time>2020-09-10T08:14:14.753Z</time>
      </trkpt>
      <trkpt lat="48.591715" lon="10.207740">
        <ele>515.163196</ele>
        <time>2020-09-10T08:14:17.746Z</time>
      </trkpt>
      <trkpt lat="48.591625" lon="10.207738">
        <ele>514.853246</ele>
        <time>2020-09-10T08:14:19.764Z</time>
      </trkpt>
      <trkpt lat="48.591492" lon="10.207749">
        <ele>514.394573</ele>
        <time>2020-09-10T08:14:22.748Z</time>
      </trkpt>
      <trkpt lat="48.591373" lon="10.207754">
        <ele>513.984635</ele>
        <time>2020-09-10T08:14:25.752Z</time>
      </trkpt>
      <trkpt lat="48.591258" lon="10.207757">
        <ele>513.588571</ele>
        <time>2020-09-10T08:14:28.753Z</time>
      </trkpt>
      <trkpt lat="48.591128" lon="10.207745">
        <ele>513.140080</ele>
        <time>2020-09-10T08:14:31.748Z</time>
      </trkpt>
      <trkpt lat="48.591030" lon="10.207727">
        <ele>512.800134</ele>
        <time>2020-09-10T08:14:33.747Z</time>
      </trkpt>
      <trkpt lat="48.590928" lon="10.207706">
        <ele>512.445653</ele>
        <time>2020-09-10T08:14:35.752Z</time>
      </trkpt>
      <trkpt lat="48.590822" lon="10.207681">
        <ele>512.076225</ele>
        <time>2020-09-10T08:14:37.751Z</time>
      </trkpt>
      <trkpt lat="48.590716" lon="10.207665">
        <ele>511.709397</ele>
        <time>2020-09-10T08:14:39.745Z</time>
      </trkpt>
      <trkpt lat="48.590614" lon="10.207666">
        <ele>511.358150</ele>
        <time>2020-09-10T08:14:41.752Z</time>
      </trkpt>
      <trkpt lat="48.590512" lon="10.207653">
        <ele>511.005665</ele>
        <time>2020-09-10T08:14:43.747Z</time>
      </trkpt>
      <trkpt lat="48.590397" lon="10.207643">
        <ele>510.609006</ele>
        <time>2020-09-10T08:14:45.748Z</time>
      </trkpt>
      <trkpt lat="48.590288" lon="10.207641">
        <ele>510.233634</ele>
        <time>2020-09-10T08:14:47.749Z</time>
      </trkpt>
      <trkpt lat="48.590188" lon="10.207647">
        <ele>510.024895</ele>
        <time>2020-09-10T08:14:49.748Z</time>
      </trkpt>
      <trkpt lat="48.590084" lon="10.207657">
        <ele>509.908520</ele>
        <time>2020-09-10T08:14:51.748Z</time>
      </trkpt>
      <trkpt lat="48.589984" lon="10.207665">
        <ele>509.796692</ele>
        <time>2020-09-10T08:14:53.747Z</time>
      </trkpt>
      <trkpt lat="48.589882" lon="10.207678">
        <ele>509.682382</ele>
        <time>2020-09-10T08:14:55.741Z</time>
      </trkpt>
      <trkpt lat="48.589785" lon="10.207683">
        <ele>509.573996</ele>
        <time>2020-09-10T08:14:57.745Z</time>
      </trkpt>
      <trkpt lat="48.589656" lon="10.207685">
        <ele>509.429931</ele>
        <time>2020-09-10T08:15:00.744Z</time>
      </trkpt>
      <trkpt lat="48.589531" lon="10.207677">
        <ele>509.290215</ele>
        <time>2020-09-10T08:15:03.746Z</time>
      </trkpt>
      <trkpt lat="48.589399" lon="10.207677">
        <ele>509.142807</ele>
        <time>2020-09-10T08:15:06.750Z</time>
      </trkpt>
      <trkpt lat="48.589307" lon="10.207678">
        <ele>509.040066</ele>
        <time>2020-09-10T08:15:08.747Z</time>
      </trkpt>
      <trkpt lat="48.589217" lon="10.207696">
        <ele>508.938685</ele>
        <time>2020-09-10T08:15:10.751Z</time>
      </trkpt>
      <trkpt lat="48.589127" lon="10.207705">
        <ele>508.837960</ele>
        <time>2020-09-10T08:15:12.747Z</time>
      </trkpt>
      <trkpt lat="48.588992" lon="10.207712">
        <ele>508.687113</ele>
        <time>2020-09-10T08:15:15.751Z</time>
      </trkpt>
      <trkpt lat="48.588902" lon="10.207722">
        <ele>508.586337</ele>
        <time>2020-09-10T08:15:17.750Z</time>
      </trkpt>
      <trkpt lat="48.588806" lon="10.207742">
        <ele>508.478118</ele>
        <time>2020-09-10T08:15:19.767Z</time>
      </trkpt>
      <trkpt lat="48.588708" lon="10.207760">
        <ele>508.367874</ele>
        <time>2020-09-10T08:15:21.759Z</time>
      </trkpt>
      <trkpt lat="48.588607" lon="10.207767">
        <ele>508.254966</ele>
        <time>2020-09-10T08:15:23.748Z</time>
      </trkpt>
      <trkpt lat="48.588494" lon="10.207784">
        <ele>508.128153</ele>
        <time>2020-09-10T08:15:25.755Z</time>
      </trkpt>
      <trkpt lat="48.588387" lon="10.207804">
        <ele>508.096061</ele>
        <time>2020-09-10T08:15:27.751Z</time>
      </trkpt>
      <trkpt lat="48.588270" lon="10.207827">
        <ele>508.122035</ele>
        <time>2020-09-10T08:15:29.756Z</time>
      </trkpt>
      <trkpt lat="48.588167" lon="10.207850">
        <ele>508.144956</ele>
        <time>2020-09-10T08:15:31.754Z</time>
      </trkpt>
      <trkpt lat="48.588056" lon="10.207883">
        <ele>508.169861</ele>
        <time>2020-09-10T08:15:33.755Z</time>
      </trkpt>
      <trkpt lat="48.587946" lon="10.207916">
        <ele>508.194549</ele>
        <time>2020-09-10T08:15:35.736Z</time>
      </trkpt>
      <trkpt lat="48.587845" lon="10.207949">
        <ele>508.217298</ele>
        <time>2020-09-10T08:15:37.756Z</time>
      </trkpt>
      <trkpt lat="48.587742" lon="10.207986">
        <ele>508.240604</ele>
        <time>2020-09-10T08:15:39.754Z</time>
      </trkpt>
      <trkpt lat="48.587641" lon="10.208023">
        <ele>508.263483</ele>
        <time>2020-09-10T08:15:41.760Z</time>
      </trkpt>
      <trkpt lat="48.587535" lon="10.208064">
        <ele>508.287570</ele>
        <time>2020-09-10T08:15:43.754Z</time>
      </trkpt>
      <trkpt lat="48.587432" lon="10.208107">
        <ele>508.311094</ele>
        <time>2020-09-10T08:15:45.754Z</time>
      </trkpt>
      <trkpt lat="48.587330" lon="10.208138">
        <ele>508.333998</ele>
        <time>2020-09-10T08:15:47.762Z</time>
      </trkpt>
      <trkpt lat="48.587224" lon="10.208162">
        <ele>508.357594</ele>
        <time>2020-09-10T08:15:49.757Z</time>
      </trkpt>
      <trkpt lat="48.587121" lon="10.208192">
        <ele>508.380687</ele>
        <time>2020-09-10T08:15:51.755Z</time>
      </trkpt>
      <trkpt lat="48.587014" lon="10.208238">
        <ele>508.405176</ele>
        <time>2020-09-10T08:15:53.766Z</time>
      </trkpt>
      <trkpt lat="48.586908" lon="10.208300">
        <ele>508.430198</ele>
        <time>2020-09-10T08:15:55.755Z</time>
      </trkpt>
      <trkpt lat="48.586801" lon="10.208367">
        <ele>508.455694</ele>
        <time>2020-09-10T08:15:57.755Z</time>
      </trkpt>
      <trkpt lat="48.586693" lon="10.208435">
        <ele>508.476876</ele>
        <time>2020-09-10T08:15:59.767Z</time>
      </trkpt>
      <trkpt lat="48.586583" lon="10.208507">
        <ele>508.472811</ele>
        <time>2020-09-10T08:16:01.728Z</time>
      </trkpt>
      <trkpt lat="48.586480" lon="10.208580">
        <ele>508.468954</ele>
        <time>2020-09-10T08:16:03.722Z</time>
      </trkpt>
      <trkpt lat="48.586379" lon="10.208650">
        <ele>508.465186</ele>
        <time>2020-09-10T08:16:05.750Z</time>
      </trkpt>
      <trkpt lat="48.586277" lon="10.208731">
        <ele>508.461279</ele>
        <time>2020-09-10T08:16:07.758Z</time>
      </trkpt>
      <trkpt lat="48.586163" lon="10.208800">
        <ele>508.457115</ele>
        <time>2020-09-10T08:16:09.745Z</time>
      </trkpt>
      <trkpt lat="48.586044" lon="10.208865">
        <ele>508.452824</ele>
        <time>2020-09-10T08:16:11.757Z</time>
      </trkpt>
      <trkpt lat="48.585934" lon="10.208936">
        <ele>508.448769</ele>
        <time>2020-09-10T08:16:13.746Z</time>
      </trkpt>
      <trkpt lat="48.585832" lon="10.209022">
        <ele>508.444808</ele>
        <time>2020-09-10T08:16:15.744Z</time>
      </trkpt>
      <trkpt lat="48.585741" lon="10.209110">
        <ele>508.441145</ele>
        <time>2020-09-10T08:16:17.750Z</time>
      </trkpt>
      <trkpt lat="48.585649" lon="10.209213">
        <ele>508.437263</ele>
        <time>2020-09-10T08:16:19.742Z</time>
      </trkpt>
      <trkpt lat="48.585553" lon="10.209325">
        <ele>508.433151</ele>
        <time>2020-09-10T08:16:21.755Z</time>
      </trkpt>
      <trkpt lat="48.585462" lon="10.209432">
        <ele>508.429241</ele>
        <time>2020-09-10T08:16:23.746Z</time>
      </trkpt>
      <trkpt lat="48.585373" lon="10.209552">
        <ele>508.425197</ele>
        <time>2020-09-10T08:16:25.745Z</time>
      </trkpt>
      <trkpt lat="48.585280" lon="10.209684">
        <ele>508.420872</ele>
        <time>2020-09-10T08:16:27.747Z</time>
      </trkpt>
      <trkpt lat="48.585196" lon="10.209821">
        <ele>508.416681</ele>
        <time>2020-09-10T08:16:29.752Z</time>
      </trkpt>
      <trkpt lat="48.585110" lon="10.209966">
        <ele>508.419706</ele>
        <time>2020-09-10T08:16:31.746Z</time>
      </trkpt>
      <trkpt lat="48.585035" lon="10.210108">
        <ele>508.422837</ele>
        <time>2020-09-10T08:16:33.748Z</time>
      </trkpt>
      <trkpt lat="48.584957" lon="10.210246">
        <ele>508.425964</ele>
        <time>2020-09-10T08:16:35.746Z</time>
      </trkpt>
      <trkpt lat="48.584878" lon="10.210375">
        <ele>508.428993</ele>
        <time>2020-09-10T08:16:37.748Z</time>
      </trkpt>
      <trkpt lat="48.584804" lon="10.210502">
        <ele>508.431908</ele>
        <time>2020-09-10T08:16:39.748Z</time>
      </trkpt>
      <trkpt lat="48.584735" lon="10.210620">
        <ele>508.434622</ele>
        <time>2020-09-10T08:16:41.744Z</time>
      </trkpt>
      <trkpt lat="48.584661" lon="10.210721">
        <ele>508.437218</ele>
        <time>2020-09-10T08:16:43.744Z</time>
      </trkpt>
      <trkpt lat="48.584581" lon="10.210813">
        <ele>508.439836</ele>
        <time>2020-09-10T08:16:45.747Z</time>
      </trkpt>
      <trkpt lat="48.584501" lon="10.210900">
        <ele>508.442403</ele>
        <time>2020-09-10T08:16:47.747Z</time>
      </trkpt>
      <trkpt lat="48.584442" lon="10.211018">
        <ele>508.444952</ele>
        <time>2020-09-10T08:16:49.745Z</time>
      </trkpt>
      <trkpt lat="48.584387" lon="10.211148">
        <ele>508.447610</ele>
        <time>2020-09-10T08:16:51.752Z</time>
      </trkpt>
      <trkpt lat="48.584327" lon="10.211285">
        <ele>508.450441</ele>
        <time>2020-09-10T08:16:53.752Z</time>
      </trkpt>
      <trkpt lat="48.584263" lon="10.211412">
        <ele>508.453192</ele>
        <time>2020-09-10T08:16:55.757Z</time>
      </trkpt>
      <trkpt lat="48.584201" lon="10.211540">
        <ele>508.455925</ele>
        <time>2020-09-10T08:16:57.751Z</time>
      </trkpt>
      <trkpt lat="48.584170" lon="10.211673">
        <ele>508.458354</ele>
        <time>2020-09-10T08:16:59.746Z</time>
      </trkpt>
      <trkpt lat="48.584168" lon="10.211811">
        <ele>508.460733</ele>
        <time>2020-09-10T08:17:01.746Z</time>
      </trkpt>
      <trkpt lat="48.584134" lon="10.211950">
        <ele>508.463286</ele>
        <time>2020-09-10T08:17:03.750Z</time>
      </trkpt>
      <trkpt lat="48.584023" lon="10.211994">
        <ele>508.306089</ele>
        <time>2020-09-10T08:17:05.760Z</time>
      </trkpt>
      <trkpt lat="48.583910" lon="10.211939">
        <ele>508.140454</ele>
        <time>2020-09-10T08:17:07.748Z</time>
      </trkpt>
      <trkpt lat="48.583796" lon="10.211890">
        <ele>507.975090</ele>
        <time>2020-09-10T08:17:09.744Z</time>
      </trkpt>
      <trkpt lat="48.583676" lon="10.211836">
        <ele>507.800397</ele>
        <time>2020-09-10T08:17:11.756Z</time>
      </trkpt>
      <trkpt lat="48.583562" lon="10.211770">
        <ele>507.630072</ele>
        <time>2020-09-10T08:17:13.749Z</time>
      </trkpt>
      <trkpt lat="48.583454" lon="10.211709">
        <ele>507.469209</ele>
        <time>2020-09-10T08:17:15.754Z</time>
      </trkpt>
      <trkpt lat="48.583351" lon="10.211656">
        <ele>507.317399</ele>
        <time>2020-09-10T08:17:17.764Z</time>
      </trkpt>
      <trkpt lat="48.583257" lon="10.211600">
        <ele>507.176427</ele>
        <time>2020-09-10T08:17:19.751Z</time>
      </trkpt>
      <trkpt lat="48.583149" lon="10.211476">
        <ele>506.987202</ele>
        <time>2020-09-10T08:17:22.751Z</time>
      </trkpt>
      <trkpt lat="48.583094" lon="10.211352">
        <ele>506.849403</ele>
        <time>2020-09-10T08:17:24.752Z</time>
      </trkpt>
      <trkpt lat="48.583043" lon="10.211232">
        <ele>506.717754</ele>
        <time>2020-09-10T08:17:26.757Z</time>
      </trkpt>
      <trkpt lat="48.582973" lon="10.211074">
        <ele>506.542235</ele>
        <time>2020-09-10T08:17:29.764Z</time>
      </trkpt>
      <trkpt lat="48.582894" lon="10.210947">
        <ele>506.381329</ele>
        <time>2020-09-10T08:17:32.751Z</time>
      </trkpt>
      <trkpt lat="48.582816" lon="10.210815">
        <ele>506.217963</ele>
        <time>2020-09-10T08:17:36.745Z</time>
      </trkpt>
      <trkpt lat="48.582713" lon="10.210775">
        <ele>506.069584</ele>
        <time>2020-09-10T08:17:40.752Z</time>
      </trkpt>
      <trkpt lat="48.582633" lon="10.210878">
        <ele>505.948709</ele>
        <time>2020-09-10T08:17:43.754Z</time>
      </trkpt>
      <trkpt lat="48.582588" lon="10.211007">
        <ele>505.926598</ele>
        <time>2020-09-10T08:17:45.757Z</time>
      </trkpt>
      <trkpt lat="48.582539" lon="10.211161">
        <ele>505.900690</ele>
        <time>2020-09-10T08:17:47.756Z</time>
      </trkpt>
      <trkpt lat="48.582487" lon="10.211320">
        <ele>505.873798</ele>
        <time>2020-09-10T08:17:49.756Z</time>
      </trkpt>
      <trkpt lat="48.582428" lon="10.211491">
        <ele>505.844558</ele>
        <time>2020-09-10T08:17:51.755Z</time>
      </trkpt>
      <trkpt lat="48.582371" lon="10.211655">
        <ele>505.816471</ele>
        <time>2020-09-10T08:17:53.757Z</time>
      </trkpt>
      <trkpt lat="48.582316" lon="10.211808">
        <ele>505.790071</ele>
        <time>2020-09-10T08:17:55.761Z</time>
      </trkpt>
      <trkpt lat="48.582258" lon="10.211976">
        <ele>505.761340</ele>
        <time>2020-09-10T08:17:57.755Z</time>
      </trkpt>
      <trkpt lat="48.582205" lon="10.212148">
        <ele>505.732572</ele>
        <time>2020-09-10T08:17:59.757Z</time>
      </trkpt>
      <trkpt lat="48.582137" lon="10.212303">
        <ele>505.704374</ele>
        <time>2020-09-10T08:18:01.756Z</time>
      </trkpt>
      <trkpt lat="48.582068" lon="10.212436">
        <ele>505.678748</ele>
        <time>2020-09-10T08:18:03.770Z</time>
      </trkpt>
      <trkpt lat="48.581994" lon="10.212566">
        <ele>505.652747</ele>
        <time>2020-09-10T08:18:05.765Z</time>
      </trkpt>
      <trkpt lat="48.581920" lon="10.212691">
        <ele>505.627314</ele>
        <time>2020-09-10T08:18:07.748Z</time>
      </trkpt>
      <trkpt lat="48.581845" lon="10.212798">
        <ele>505.603679</ele>
        <time>2020-09-10T08:18:09.760Z</time>
      </trkpt>
      <trkpt lat="48.581782" lon="10.212902">
        <ele>505.582299</ele>
        <time>2020-09-10T08:18:11.751Z</time>
      </trkpt>
      <trkpt lat="48.581721" lon="10.213013">
        <ele>505.560421</ele>
        <time>2020-09-10T08:18:13.751Z</time>
      </trkpt>
      <trkpt lat="48.581611" lon="10.213125">
        <ele>505.551910</ele>
        <time>2020-09-10T08:18:16.747Z</time>
      </trkpt>
      <trkpt lat="48.581508" lon="10.213051">
        <ele>505.575389</ele>
        <time>2020-09-10T08:18:18.750Z</time>
      </trkpt>
      <trkpt lat="48.581420" lon="10.212957">
        <ele>505.597573</ele>
        <time>2020-09-10T08:18:20.763Z</time>
      </trkpt>
      <trkpt lat="48.581335" lon="10.212867">
        <ele>505.618939</ele>
        <time>2020-09-10T08:18:22.743Z</time>
      </trkpt>
      <trkpt lat="48.581262" lon="10.212777">
        <ele>505.638333</ele>
        <time>2020-09-10T08:18:24.748Z</time>
      </trkpt>
      <trkpt lat="48.581173" lon="10.212685">
        <ele>505.660531</ele>
        <time>2020-09-10T08:18:26.752Z</time>
      </trkpt>
      <trkpt lat="48.581090" lon="10.212597">
        <ele>505.681403</ele>
        <time>2020-09-10T08:18:28.749Z</time>
      </trkpt>
      <trkpt lat="48.581007" lon="10.212506">
        <ele>505.702513</ele>
        <time>2020-09-10T08:18:30.749Z</time>
      </trkpt>
      <trkpt lat="48.580921" lon="10.212420">
        <ele>505.723742</ele>
        <time>2020-09-10T08:18:32.753Z</time>
      </trkpt>
      <trkpt lat="48.580831" lon="10.212333">
        <ele>505.745736</ele>
        <time>2020-09-10T08:18:34.749Z</time>
      </trkpt>
      <trkpt lat="48.580729" lon="10.212247">
        <ele>505.769782</ele>
        <time>2020-09-10T08:18:36.747Z</time>
      </trkpt>
      <trkpt lat="48.580618" lon="10.212171">
        <ele>505.794869</ele>
        <time>2020-09-10T08:18:38.750Z</time>
      </trkpt>
      <trkpt lat="48.580510" lon="10.212097">
        <ele>505.819282</ele>
        <time>2020-09-10T08:18:40.750Z</time>
      </trkpt>
      <trkpt lat="48.580390" lon="10.212025">
        <ele>505.845863</ele>
        <time>2020-09-10T08:18:42.750Z</time>
      </trkpt>
      <trkpt lat="48.580271" lon="10.211973">
        <ele>505.871365</ele>
        <time>2020-09-10T08:18:44.746Z</time>
      </trkpt>
      <trkpt lat="48.580161" lon="10.211925">
        <ele>505.894937</ele>
        <time>2020-09-10T08:18:46.745Z</time>
      </trkpt>
      <trkpt lat="48.580051" lon="10.211870">
        <ele>505.944974</ele>
        <time>2020-09-10T08:18:48.745Z</time>
      </trkpt>
      <trkpt lat="48.579933" lon="10.211805">
        <ele>506.068458</ele>
        <time>2020-09-10T08:18:50.746Z</time>
      </trkpt>
      <trkpt lat="48.579820" lon="10.211755">
        <ele>506.184224</ele>
        <time>2020-09-10T08:18:52.744Z</time>
      </trkpt>
      <trkpt lat="48.579711" lon="10.211706">
        <ele>506.296035</ele>
        <time>2020-09-10T08:18:54.749Z</time>
      </trkpt>
      <trkpt lat="48.579602" lon="10.211661">
        <ele>506.407131</ele>
        <time>2020-09-10T08:18:56.746Z</time>
      </trkpt>
      <trkpt lat="48.579491" lon="10.211627">
        <ele>506.518487</ele>
        <time>2020-09-10T08:18:58.745Z</time>
      </trkpt>
      <trkpt lat="48.579393" lon="10.211595">
        <ele>506.617065</ele>
        <time>2020-09-10T08:19:00.752Z</time>
      </trkpt>
      <trkpt lat="48.579280" lon="10.211557">
        <ele>506.730886</ele>
        <time>2020-09-10T08:19:03.750Z</time>
      </trkpt>
      <trkpt lat="48.579159" lon="10.211540">
        <ele>506.850368</ele>
        <time>2020-09-10T08:19:06.750Z</time>
      </trkpt>
      <trkpt lat="48.579058" lon="10.211514">
        <ele>506.951104</ele>
        <time>2020-09-10T08:19:08.747Z</time>
      </trkpt>
      <trkpt lat="48.578942" lon="10.211489">
        <ele>507.066311</ele>
        <time>2020-09-10T08:19:10.752Z</time>
      </trkpt>
      <trkpt lat="48.578815" lon="10.211466">
        <ele>507.192073</ele>
        <time>2020-09-10T08:19:12.767Z</time>
      </trkpt>
      <trkpt lat="48.578695" lon="10.211448">
        <ele>507.310639</ele>
        <time>2020-09-10T08:19:14.750Z</time>
      </trkpt>
      <trkpt lat="48.578581" lon="10.211418">
        <ele>507.424412</ele>
        <time>2020-09-10T08:19:16.750Z</time>
      </trkpt>
      <trkpt lat="48.578462" lon="10.211388">
        <ele>507.543032</ele>
        <time>2020-09-10T08:19:18.752Z</time>
      </trkpt>
      <trkpt lat="48.578337" lon="10.211354">
        <ele>507.667909</ele>
        <time>2020-09-10T08:19:20.745Z</time>
      </trkpt>
      <trkpt lat="48.578206" lon="10.211303">
        <ele>507.534228</ele>
        <time>2020-09-10T08:19:22.749Z</time>
      </trkpt>
      <trkpt lat="48.578087" lon="10.211219">
        <ele>507.377794</ele>
        <time>2020-09-10T08:19:24.759Z</time>
      </trkpt>
      <trkpt lat="48.577986" lon="10.211148">
        <ele>507.245120</ele>
        <time>2020-09-10T08:19:26.752Z</time>
      </trkpt>
      <trkpt lat="48.577888" lon="10.211049">
        <ele>507.104722</ele>
        <time>2020-09-10T08:19:28.749Z</time>
      </trkpt>
      <trkpt lat="48.577794" lon="10.210919">
        <ele>506.952965</ele>
        <time>2020-09-10T08:19:30.749Z</time>
      </trkpt>
      <trkpt lat="48.577708" lon="10.210755">
        <ele>506.788057</ele>
        <time>2020-09-10T08:19:32.748Z</time>
      </trkpt>
      <trkpt lat="48.577642" lon="10.210578">
        <ele>506.627948</ele>
        <time>2020-09-10T08:19:34.752Z</time>
      </trkpt>
      <trkpt lat="48.577578" lon="10.210405">
        <ele>506.471754</ele>
        <time>2020-09-10T08:19:36.752Z</time>
      </trkpt>
      <trkpt lat="48.577520" lon="10.210230">
        <ele>506.317512</ele>
        <time>2020-09-10T08:19:38.748Z</time>
      </trkpt>
      <trkpt lat="48.577463" lon="10.210066">
        <ele>506.171527</ele>
        <time>2020-09-10T08:19:40.748Z</time>
      </trkpt>
      <trkpt lat="48.577415" lon="10.209910">
        <ele>506.035950</ele>
        <time>2020-09-10T08:19:42.752Z</time>
      </trkpt>
      <trkpt lat="48.577348" lon="10.209750">
        <ele>505.886732</ele>
        <time>2020-09-10T08:19:44.754Z</time>
      </trkpt>
      <trkpt lat="48.577279" lon="10.209590">
        <ele>505.736226</ele>
        <time>2020-09-10T08:19:46.753Z</time>
      </trkpt>
      <trkpt lat="48.577211" lon="10.209445">
        <ele>505.596167</ele>
        <time>2020-09-10T08:19:48.755Z</time>
      </trkpt>
      <trkpt lat="48.577148" lon="10.209307">
        <ele>505.549100</ele>
        <time>2020-09-10T08:19:50.757Z</time>
      </trkpt>
      <trkpt lat="48.577082" lon="10.209178">
        <ele>505.568438</ele>
        <time>2020-09-10T08:19:52.762Z</time>
      </trkpt>
      <trkpt lat="48.577015" lon="10.209049">
        <ele>505.587885</ele>
        <time>2020-09-10T08:19:54.742Z</time>
      </trkpt>
      <trkpt lat="48.576934" lon="10.208921">
        <ele>505.608889</ele>
        <time>2020-09-10T08:19:56.755Z</time>
      </trkpt>
      <trkpt lat="48.576841" lon="10.208787">
        <ele>505.631918</ele>
        <time>2020-09-10T08:19:58.744Z</time>
      </trkpt>
      <trkpt lat="48.576744" lon="10.208661">
        <ele>505.654842</ele>
        <time>2020-09-10T08:20:00.755Z</time>
      </trkpt>
      <trkpt lat="48.576652" lon="10.208532">
        <ele>505.677334</ele>
        <time>2020-09-10T08:20:02.759Z</time>
      </trkpt>
      <trkpt lat="48.576554" lon="10.208405">
        <ele>505.700471</ele>
        <time>2020-09-10T08:20:04.755Z</time>
      </trkpt>
      <trkpt lat="48.576460" lon="10.208290">
        <ele>505.722146</ele>
        <time>2020-09-10T08:20:06.753Z</time>
      </trkpt>
      <trkpt lat="48.576369" lon="10.208178">
        <ele>505.743180</ele>
        <time>2020-09-10T08:20:08.745Z</time>
      </trkpt>
      <trkpt lat="48.576277" lon="10.208060">
        <ele>505.764806</ele>
        <time>2020-09-10T08:20:10.731Z</time>
      </trkpt>
      <trkpt lat="48.576179" lon="10.207945">
        <ele>505.787044</ele>
        <time>2020-09-10T08:20:12.746Z</time>
      </trkpt>
      <trkpt lat="48.576091" lon="10.207843">
        <ele>505.806920</ele>
        <time>2020-09-10T08:20:14.765Z</time>
      </trkpt>
      <trkpt lat="48.576008" lon="10.207745">
        <ele>505.825797</ele>
        <time>2020-09-10T08:20:16.748Z</time>
      </trkpt>
      <trkpt lat="48.575927" lon="10.207650">
        <ele>505.844173</ele>
        <time>2020-09-10T08:20:18.749Z</time>
      </trkpt>
      <trkpt lat="48.575834" lon="10.207544">
        <ele>505.905087</ele>
        <time>2020-09-10T08:20:20.749Z</time>
      </trkpt>
      <trkpt lat="48.575739" lon="10.207439">
        <ele>506.105831</ele>
        <time>2020-09-10T08:20:22.748Z</time>
      </trkpt>
      <trkpt lat="48.575654" lon="10.207339">
        <ele>506.289559</ele>
        <time>2020-09-10T08:20:24.751Z</time>
      </trkpt>
      <trkpt lat="48.575562" lon="10.207240">
        <ele>506.482192</ele>
        <time>2020-09-10T08:20:26.750Z</time>
      </trkpt>
      <trkpt lat="48.575462" lon="10.207146">
        <ele>506.683058</ele>
        <time>2020-09-10T08:20:28.744Z</time>
      </trkpt>
      <trkpt lat="48.575369" lon="10.207057">
        <ele>506.870812</ele>
        <time>2020-09-10T08:20:30.746Z</time>
      </trkpt>
      <trkpt lat="48.575276" lon="10.206980">
        <ele>507.051683</ele>
        <time>2020-09-10T08:20:32.747Z</time>
      </trkpt>
      <trkpt lat="48.575190" lon="10.206909">
        <ele>507.218829</ele>
        <time>2020-09-10T08:20:34.746Z</time>
      </trkpt>
      <trkpt lat="48.575102" lon="10.206831">
        <ele>507.392837</ele>
        <time>2020-09-10T08:20:36.747Z</time>
      </trkpt>
      <trkpt lat="48.574991" lon="10.206796">
        <ele>507.586245</ele>
        <time>2020-09-10T08:20:38.749Z</time>
      </trkpt>
      <trkpt lat="48.574869" lon="10.206781">
        <ele>507.795026</ele>
        <time>2020-09-10T08:20:40.748Z</time>
      </trkpt>
      <trkpt lat="48.574749" lon="10.206735">
        <ele>508.006189</ele>
        <time>2020-09-10T08:20:42.749Z</time>
      </trkpt>
      <trkpt lat="48.574633" lon="10.206679">
        <ele>508.213897</ele>
        <time>2020-09-10T08:20:44.749Z</time>
      </trkpt>
      <trkpt lat="48.574524" lon="10.206612">
        <ele>508.414605</ele>
        <time>2020-09-10T08:20:46.747Z</time>
      </trkpt>
      <trkpt lat="48.574415" lon="10.206553">
        <ele>508.612088</ele>
        <time>2020-09-10T08:20:48.753Z</time>
      </trkpt>
      <trkpt lat="48.574307" lon="10.206480">
        <ele>508.813886</ele>
        <time>2020-09-10T08:20:50.746Z</time>
      </trkpt>
      <trkpt lat="48.574202" lon="10.206414">
        <ele>508.858676</ele>
        <time>2020-09-10T08:20:52.747Z</time>
      </trkpt>
      <trkpt lat="48.574102" lon="10.206347">
        <ele>508.695513</ele>
        <time>2020-09-10T08:20:54.758Z</time>
      </trkpt>
      <trkpt lat="48.573998" lon="10.206280">
        <ele>508.526879</ele>
        <time>2020-09-10T08:20:56.747Z</time>
      </trkpt>
      <trkpt lat="48.573884" lon="10.206232">
        <ele>508.350357</ele>
        <time>2020-09-10T08:20:58.743Z</time>
      </trkpt>
      <trkpt lat="48.573761" lon="10.206198">
        <ele>508.163844</ele>
        <time>2020-09-10T08:21:00.757Z</time>
      </trkpt>
      <trkpt lat="48.573642" lon="10.206184">
        <ele>507.985803</ele>
        <time>2020-09-10T08:21:02.747Z</time>
      </trkpt>
      <trkpt lat="48.573523" lon="10.206173">
        <ele>507.807967</ele>
        <time>2020-09-10T08:21:04.748Z</time>
      </trkpt>
      <trkpt lat="48.573405" lon="10.206152">
        <ele>507.630739</ele>
        <time>2020-09-10T08:21:06.757Z</time>
      </trkpt>
      <trkpt lat="48.573289" lon="10.206134">
        <ele>507.456800</ele>
        <time>2020-09-10T08:21:08.748Z</time>
      </trkpt>
      <trkpt lat="48.573167" lon="10.206115">
        <ele>507.273858</ele>
        <time>2020-09-10T08:21:10.725Z</time>
      </trkpt>
      <trkpt lat="48.573044" lon="10.206093">
        <ele>507.089107</ele>
        <time>2020-09-10T08:21:12.755Z</time>
      </trkpt>
      <trkpt lat="48.572919" lon="10.206078">
        <ele>506.902067</ele>
        <time>2020-09-10T08:21:14.748Z</time>
      </trkpt>
      <trkpt lat="48.572801" lon="10.206061">
        <ele>506.725257</ele>
        <time>2020-09-10T08:21:16.734Z</time>
      </trkpt>
      <trkpt lat="48.572675" lon="10.206045">
        <ele>506.536649</ele>
        <time>2020-09-10T08:21:18.751Z</time>
      </trkpt>
      <trkpt lat="48.572558" lon="10.206028">
        <ele>506.361324</ele>
        <time>2020-09-10T08:21:20.749Z</time>
      </trkpt>
      <trkpt lat="48.572427" lon="10.206009">
        <ele>506.244848</ele>
        <time>2020-09-10T08:21:22.749Z</time>
      </trkpt>
      <trkpt lat="48.572303" lon="10.205997">
        <ele>506.243660</ele>
        <time>2020-09-10T08:21:24.748Z</time>
      </trkpt>
      <trkpt lat="48.572196" lon="10.206004">
        <ele>506.242635</ele>
        <time>2020-09-10T08:21:26.751Z</time>
      </trkpt>
      <trkpt lat="48.572092" lon="10.205992">
        <ele>506.241638</ele>
        <time>2020-09-10T08:21:28.754Z</time>
      </trkpt>
      <trkpt lat="48.571989" lon="10.205969">
        <ele>506.240642</ele>
        <time>2020-09-10T08:21:30.749Z</time>
      </trkpt>
      <trkpt lat="48.571878" lon="10.205981">
        <ele>506.239578</ele>
        <time>2020-09-10T08:21:32.755Z</time>
      </trkpt>
      <trkpt lat="48.571760" lon="10.205967">
        <ele>506.238446</ele>
        <time>2020-09-10T08:21:34.749Z</time>
      </trkpt>
      <trkpt lat="48.571642" lon="10.205917">
        <ele>506.237274</ele>
        <time>2020-09-10T08:21:36.749Z</time>
      </trkpt>
      <trkpt lat="48.571522" lon="10.205881">
        <ele>506.236104</ele>
        <time>2020-09-10T08:21:38.747Z</time>
      </trkpt>
      <trkpt lat="48.571392" lon="10.205824">
        <ele>506.234809</ele>
        <time>2020-09-10T08:21:40.773Z</time>
      </trkpt>
      <trkpt lat="48.571265" lon="10.205774">
        <ele>506.233554</ele>
        <time>2020-09-10T08:21:42.745Z</time>
      </trkpt>
      <trkpt lat="48.571153" lon="10.205707">
        <ele>506.232402</ele>
        <time>2020-09-10T08:21:44.755Z</time>
      </trkpt>
      <trkpt lat="48.571032" lon="10.205635">
        <ele>506.231159</ele>
        <time>2020-09-10T08:21:46.770Z</time>
      </trkpt>
      <trkpt lat="48.570903" lon="10.205557">
        <ele>506.229830</ele>
        <time>2020-09-10T08:21:48.749Z</time>
      </trkpt>
      <trkpt lat="48.570774" lon="10.205517">
        <ele>506.228570</ele>
        <time>2020-09-10T08:21:50.762Z</time>
      </trkpt>
      <trkpt lat="48.570640" lon="10.205524">
        <ele>506.156873</ele>
        <time>2020-09-10T08:21:52.758Z</time>
      </trkpt>
      <trkpt lat="48.570515" lon="10.205580">
        <ele>506.055111</ele>
        <time>2020-09-10T08:21:54.751Z</time>
      </trkpt>
      <trkpt lat="48.570403" lon="10.205686">
        <ele>505.951966</ele>
        <time>2020-09-10T08:21:56.739Z</time>
      </trkpt>
      <trkpt lat="48.570298" lon="10.205816">
        <ele>505.846020</ele>
        <time>2020-09-10T08:21:58.763Z</time>
      </trkpt>
      <trkpt lat="48.570189" lon="10.205947">
        <ele>505.737321</ele>
        <time>2020-09-10T08:22:00.740Z</time>
      </trkpt>
      <trkpt lat="48.570085" lon="10.206078">
        <ele>505.631648</ele>
        <time>2020-09-10T08:22:02.744Z</time>
      </trkpt>
      <trkpt lat="48.569990" lon="10.206211">
        <ele>505.530571</ele>
        <time>2020-09-10T08:22:04.738Z</time>
      </trkpt>
      <trkpt lat="48.569909" lon="10.206360">
        <ele>505.430977</ele>
        <time>2020-09-10T08:22:06.746Z</time>
      </trkpt>
      <trkpt lat="48.569831" lon="10.206513">
        <ele>505.331224</ele>
        <time>2020-09-10T08:22:08.761Z</time>
      </trkpt>
      <trkpt lat="48.569765" lon="10.206658">
        <ele>505.240328</ele>
        <time>2020-09-10T08:22:10.746Z</time>
      </trkpt>
      <trkpt lat="48.569708" lon="10.206795">
        <ele>505.156746</ele>
        <time>2020-09-10T08:22:12.760Z</time>
      </trkpt>
      <trkpt lat="48.569649" lon="10.206929">
        <ele>505.073617</ele>
        <time>2020-09-10T08:22:14.765Z</time>
      </trkpt>
      <trkpt lat="48.569588" lon="10.207071">
        <ele>504.986178</ele>
        <time>2020-09-10T08:22:16.747Z</time>
      </trkpt>
      <trkpt lat="48.569521" lon="10.207205">
        <ele>504.899435</ele>
        <time>2020-09-10T08:22:18.751Z</time>
      </trkpt>
      <trkpt lat="48.569454" lon="10.207330">
        <ele>504.833752</ele>
        <time>2020-09-10T08:22:20.748Z</time>
      </trkpt>
      <trkpt lat="48.569378" lon="10.207457">
        <ele>504.939240</ele>
        <time>2020-09-10T08:22:22.744Z</time>
      </trkpt>
      <trkpt lat="48.569294" lon="10.207586">
        <ele>505.050736</ele>
        <time>2020-09-10T08:22:24.744Z</time>
      </trkpt>
      <trkpt lat="48.569216" lon="10.207719">
        <ele>505.160220</ele>
        <time>2020-09-10T08:22:26.749Z</time>
      </trkpt>
      <trkpt lat="48.569148" lon="10.207867">
        <ele>505.271219</ele>
        <time>2020-09-10T08:22:28.750Z</time>
      </trkpt>
      <trkpt lat="48.569077" lon="10.208017">
        <ele>505.384835</ele>
        <time>2020-09-10T08:22:30.748Z</time>
      </trkpt>
      <trkpt lat="48.569012" lon="10.208177">
        <ele>505.500498</ele>
        <time>2020-09-10T08:22:32.748Z</time>
      </trkpt>
      <trkpt lat="48.568939" lon="10.208365">
        <ele>505.634785</ele>
        <time>2020-09-10T08:22:34.751Z</time>
      </trkpt>
      <trkpt lat="48.568872" lon="10.208551">
        <ele>505.765249</ele>
        <time>2020-09-10T08:22:36.773Z</time>
      </trkpt>
      <trkpt lat="48.568809" lon="10.208721">
        <ele>505.885285</ele>
        <time>2020-09-10T08:22:38.752Z</time>
      </trkpt>
      <trkpt lat="48.568739" lon="10.208885">
        <ele>506.005513</ele>
        <time>2020-09-10T08:22:40.745Z</time>
      </trkpt>
      <trkpt lat="48.568676" lon="10.209046">
        <ele>506.120743</ele>
        <time>2020-09-10T08:22:42.755Z</time>
      </trkpt>
      <trkpt lat="48.568617" lon="10.209202">
        <ele>506.231438</ele>
        <time>2020-09-10T08:22:44.744Z</time>
      </trkpt>
      <trkpt lat="48.568556" lon="10.209355">
        <ele>506.341482</ele>
        <time>2020-09-10T08:22:46.746Z</time>
      </trkpt>
      <trkpt lat="48.568497" lon="10.209519">
        <ele>506.456482</ele>
        <time>2020-09-10T08:22:48.751Z</time>
      </trkpt>
      <trkpt lat="48.568457" lon="10.209692">
        <ele>506.651569</ele>
        <time>2020-09-10T08:22:50.747Z</time>
      </trkpt>
      <trkpt lat="48.568433" lon="10.209870">
        <ele>506.893832</ele>
        <time>2020-09-10T08:22:52.751Z</time>
      </trkpt>
      <trkpt lat="48.568397" lon="10.210041">
        <ele>507.133146</ele>
        <time>2020-09-10T08:22:54.753Z</time>
      </trkpt>
      <trkpt lat="48.568362" lon="10.210208">
        <ele>507.366766</ele>
        <time>2020-09-10T08:22:56.752Z</time>
      </trkpt>
      <trkpt lat="48.568319" lon="10.210366">
        <ele>507.594604</ele>
        <time>2020-09-10T08:22:58.749Z</time>
      </trkpt>
      <trkpt lat="48.568274" lon="10.210517">
        <ele>507.815462</ele>
        <time>2020-09-10T08:23:00.753Z</time>
      </trkpt>
      <trkpt lat="48.568233" lon="10.210679">
        <ele>508.046773</ele>
        <time>2020-09-10T08:23:02.750Z</time>
      </trkpt>
      <trkpt lat="48.568184" lon="10.210838">
        <ele>508.280689</ele>
        <time>2020-09-10T08:23:04.745Z</time>
      </trkpt>
      <trkpt lat="48.568131" lon="10.210993">
        <ele>508.513369</ele>
        <time>2020-09-10T08:23:06.749Z</time>
      </trkpt>
      <trkpt lat="48.568079" lon="10.211110">
        <ele>508.701332</ele>
        <time>2020-09-10T08:23:08.753Z</time>
      </trkpt>
      <trkpt lat="48.568009" lon="10.211198">
        <ele>508.884842</ele>
        <time>2020-09-10T08:23:10.726Z</time>
      </trkpt>
      <trkpt lat="48.567895" lon="10.211267">
        <ele>509.132339</ele>
        <time>2020-09-10T08:23:13.746Z</time>
      </trkpt>
      <trkpt lat="48.567779" lon="10.211269">
        <ele>509.366138</ele>
        <time>2020-09-10T08:23:16.747Z</time>
      </trkpt>
      <trkpt lat="48.567681" lon="10.211248">
        <ele>509.565621</ele>
        <time>2020-09-10T08:23:19.757Z</time>
      </trkpt>
      <trkpt lat="48.567587" lon="10.211206">
        <ele>509.763174</ele>
        <time>2020-09-10T08:23:22.747Z</time>
      </trkpt>
      <trkpt lat="48.567457" lon="10.211130">
        <ele>510.044096</ele>
        <time>2020-09-10T08:23:25.753Z</time>
      </trkpt>
      <trkpt lat="48.567376" lon="10.210997">
        <ele>510.031459</ele>
        <time>2020-09-10T08:23:27.747Z</time>
      </trkpt>
      <trkpt lat="48.567327" lon="10.210829">
        <ele>509.891414</ele>
        <time>2020-09-10T08:23:29.763Z</time>
      </trkpt>
      <trkpt lat="48.567322" lon="10.210633">
        <ele>509.741795</ele>
        <time>2020-09-10T08:23:31.750Z</time>
      </trkpt>
      <trkpt lat="48.567328" lon="10.210447">
        <ele>509.599747</ele>
        <time>2020-09-10T08:23:33.747Z</time>
      </trkpt>
      <trkpt lat="48.567335" lon="10.210262">
        <ele>509.458400</ele>
        <time>2020-09-10T08:23:35.757Z</time>
      </trkpt>
      <trkpt lat="48.567354" lon="10.210060">
        <ele>509.302767</ele>
        <time>2020-09-10T08:23:37.755Z</time>
      </trkpt>
      <trkpt lat="48.567365" lon="10.209847">
        <ele>509.139798</ele>
        <time>2020-09-10T08:23:39.755Z</time>
      </trkpt>
      <trkpt lat="48.567356" lon="10.209655">
        <ele>508.992975</ele>
        <time>2020-09-10T08:23:41.751Z</time>
      </trkpt>
      <trkpt lat="48.567353" lon="10.209464">
        <ele>508.847240</ele>
        <time>2020-09-10T08:23:43.750Z</time>
      </trkpt>
      <trkpt lat="48.567351" lon="10.209285">
        <ele>508.710681</ele>
        <time>2020-09-10T08:23:45.743Z</time>
      </trkpt>
      <trkpt lat="48.567353" lon="10.209097">
        <ele>508.567257</ele>
        <time>2020-09-10T08:23:47.742Z</time>
      </trkpt>
      <trkpt lat="48.567365" lon="10.208903">
        <ele>508.418630</ele>
        <time>2020-09-10T08:23:49.744Z</time>
      </trkpt>
      <trkpt lat="48.567383" lon="10.208709">
        <ele>508.269201</ele>
        <time>2020-09-10T08:23:51.748Z</time>
      </trkpt>
      <trkpt lat="48.567387" lon="10.208542">
        <ele>508.141731</ele>
        <time>2020-09-10T08:23:53.742Z</time>
      </trkpt>
      <trkpt lat="48.567389" lon="10.208385">
        <ele>508.052722</ele>
        <time>2020-09-10T08:23:55.750Z</time>
      </trkpt>
      <trkpt lat="48.567392" lon="10.208219">
        <ele>508.062800</ele>
        <time>2020-09-10T08:23:57.740Z</time>
      </trkpt>
      <trkpt lat="48.567386" lon="10.208077">
        <ele>508.071435</ele>
        <time>2020-09-10T08:23:59.749Z</time>
      </trkpt>
      <trkpt lat="48.567352" lon="10.207931">
        <ele>508.080829</ele>
        <time>2020-09-10T08:24:01.743Z</time>
      </trkpt>
      <trkpt lat="48.567259" lon="10.207810">
        <ele>508.092084</ele>
        <time>2020-09-10T08:24:03.764Z</time>
      </trkpt>
      <trkpt lat="48.567119" lon="10.207745">
        <ele>508.105516</ele>
        <time>2020-09-10T08:24:05.742Z</time>
      </trkpt>
      <trkpt lat="48.566969" lon="10.207744">
        <ele>508.119273</ele>
        <time>2020-09-10T08:24:07.749Z</time>
      </trkpt>
      <trkpt lat="48.566823" lon="10.207766">
        <ele>508.132729</ele>
        <time>2020-09-10T08:24:09.753Z</time>
      </trkpt>
      <trkpt lat="48.566684" lon="10.207804">
        <ele>508.145684</ele>
        <time>2020-09-10T08:24:11.731Z</time>
      </trkpt>
      <trkpt lat="48.566551" lon="10.207848">
        <ele>508.158171</ele>
        <time>2020-09-10T08:24:13.762Z</time>
      </trkpt>
      <trkpt lat="48.566423" lon="10.207906">
        <ele>508.170426</ele>
        <time>2020-09-10T08:24:15.752Z</time>
      </trkpt>
      <trkpt lat="48.566308" lon="10.207966">
        <ele>508.181584</ele>
        <time>2020-09-10T08:24:17.748Z</time>
      </trkpt>
      <trkpt lat="48.566188" lon="10.208031">
        <ele>508.193275</ele>
        <time>2020-09-10T08:24:19.744Z</time>
      </trkpt>
      <trkpt lat="48.566067" lon="10.208107">
        <ele>508.205293</ele>
        <time>2020-09-10T08:24:21.760Z</time>
      </trkpt>
      <trkpt lat="48.565952" lon="10.208182">
        <ele>508.210072</ele>
        <time>2020-09-10T08:24:23.751Z</time>
      </trkpt>
      <trkpt lat="48.565841" lon="10.208243">
        <ele>508.167810</ele>
        <time>2020-09-10T08:24:25.750Z</time>
      </trkpt>
      <trkpt lat="48.565731" lon="10.208297">
        <ele>508.126425</ele>
        <time>2020-09-10T08:24:27.770Z</time>
      </trkpt>
      <trkpt lat="48.565628" lon="10.208364">
        <ele>508.086300</ele>
        <time>2020-09-10T08:24:29.759Z</time>
      </trkpt>
      <trkpt lat="48.565524" lon="10.208448">
        <ele>508.044106</ele>
        <time>2020-09-10T08:24:31.749Z</time>
      </trkpt>
      <trkpt lat="48.565419" lon="10.208543">
        <ele>508.000316</ele>
        <time>2020-09-10T08:24:33.750Z</time>
      </trkpt>
      <trkpt lat="48.565300" lon="10.208647">
        <ele>507.951127</ele>
        <time>2020-09-10T08:24:35.747Z</time>
      </trkpt>
      <trkpt lat="48.565189" lon="10.208756">
        <ele>507.903760</ele>
        <time>2020-09-10T08:24:37.750Z</time>
      </trkpt>
      <trkpt lat="48.565070" lon="10.208859">
        <ele>507.854690</ele>
        <time>2020-09-10T08:24:39.749Z</time>
      </trkpt>
      <trkpt lat="48.564952" lon="10.208962">
        <ele>507.805930</ele>
        <time>2020-09-10T08:24:41.752Z</time>
      </trkpt>
      <trkpt lat="48.564824" lon="10.209028">
        <ele>507.757536</ele>
        <time>2020-09-10T08:24:43.747Z</time>
      </trkpt>
      <trkpt lat="48.564693" lon="10.209016">
        <ele>507.710576</ele>
        <time>2020-09-10T08:24:45.750Z</time>
      </trkpt>
      <trkpt lat="48.564577" lon="10.208924">
        <ele>507.663700</ele>
        <time>2020-09-10T08:24:47.749Z</time>
      </trkpt>
      <trkpt lat="48.564483" lon="10.208775">
        <ele>507.614955</ele>
        <time>2020-09-10T08:24:49.759Z</time>
      </trkpt>
      <trkpt lat="48.564397" lon="10.208625">
        <ele>507.568445</ele>
        <time>2020-09-10T08:24:51.751Z</time>
      </trkpt>
      <trkpt lat="48.564313" lon="10.208470">
        <ele>507.526953</ele>
        <time>2020-09-10T08:24:53.753Z</time>
      </trkpt>
      <trkpt lat="48.564232" lon="10.208308">
        <ele>507.484902</ele>
        <time>2020-09-10T08:24:55.756Z</time>
      </trkpt>
      <trkpt lat="48.564151" lon="10.208147">
        <ele>507.443016</ele>
        <time>2020-09-10T08:24:57.756Z</time>
      </trkpt>
      <trkpt lat="48.564073" lon="10.207987">
        <ele>507.401858</ele>
        <time>2020-09-10T08:24:59.754Z</time>
      </trkpt>
      <trkpt lat="48.563987" lon="10.207831">
        <ele>507.359808</ele>
        <time>2020-09-10T08:25:01.757Z</time>
      </trkpt>
      <trkpt lat="48.563909" lon="10.207662">
        <ele>507.317135</ele>
        <time>2020-09-10T08:25:03.745Z</time>
      </trkpt>
      <trkpt lat="48.563833" lon="10.207494">
        <ele>507.274988</ele>
        <time>2020-09-10T08:25:05.735Z</time>
      </trkpt>
      <trkpt lat="48.563768" lon="10.207316">
        <ele>507.232883</ele>
        <time>2020-09-10T08:25:07.748Z</time>
      </trkpt>
      <trkpt lat="48.563714" lon="10.207128">
        <ele>507.190437</ele>
        <time>2020-09-10T08:25:09.752Z</time>
      </trkpt>
      <trkpt lat="48.563677" lon="10.206932">
        <ele>507.148224</ele>
        <time>2020-09-10T08:25:11.748Z</time>
      </trkpt>
      <trkpt lat="48.563651" lon="10.206735">
        <ele>507.106620</ele>
        <time>2020-09-10T08:25:13.749Z</time>
      </trkpt>
      <trkpt lat="48.563644" lon="10.206529">
        <ele>507.063899</ele>
        <time>2020-09-10T08:25:15.747Z</time>
      </trkpt>
      <trkpt lat="48.563647" lon="10.206325">
        <ele>507.021638</ele>
        <time>2020-09-10T08:25:17.748Z</time>
      </trkpt>
      <trkpt lat="48.563662" lon="10.206111">
        <ele>507.088028</ele>
        <time>2020-09-10T08:25:19.761Z</time>
      </trkpt>
      <trkpt lat="48.563676" lon="10.205898">
        <ele>507.198063</ele>
        <time>2020-09-10T08:25:21.750Z</time>
      </trkpt>
      <trkpt lat="48.563694" lon="10.205689">
        <ele>507.306408</ele>
        <time>2020-09-10T08:25:23.741Z</time>
      </trkpt>
      <trkpt lat="48.563718" lon="10.205476">
        <ele>507.417479</ele>
        <time>2020-09-10T08:25:25.745Z</time>
      </trkpt>
      <trkpt lat="48.563740" lon="10.205256">
        <ele>507.531857</ele>
        <time>2020-09-10T08:25:27.750Z</time>
      </trkpt>
      <trkpt lat="48.563761" lon="10.205037">
        <ele>507.645613</ele>
        <time>2020-09-10T08:25:29.749Z</time>
      </trkpt>
      <trkpt lat="48.563782" lon="10.204822">
        <ele>507.757334</ele>
        <time>2020-09-10T08:25:31.753Z</time>
      </trkpt>
      <trkpt lat="48.563807" lon="10.204614">
        <ele>507.866008</ele>
        <time>2020-09-10T08:25:33.756Z</time>
      </trkpt>
      <trkpt lat="48.563826" lon="10.204402">
        <ele>507.975984</ele>
        <time>2020-09-10T08:25:35.750Z</time>
      </trkpt>
      <trkpt lat="48.563836" lon="10.204210">
        <ele>508.074989</ele>
        <time>2020-09-10T08:25:37.741Z</time>
      </trkpt>
      <trkpt lat="48.563844" lon="10.204023">
        <ele>508.171320</ele>
        <time>2020-09-10T08:25:39.749Z</time>
      </trkpt>
      <trkpt lat="48.563846" lon="10.203830">
        <ele>508.270546</ele>
        <time>2020-09-10T08:25:41.744Z</time>
      </trkpt>
      <trkpt lat="48.563845" lon="10.203653">
        <ele>508.361538</ele>
        <time>2020-09-10T08:25:43.750Z</time>
      </trkpt>
      <trkpt lat="48.563841" lon="10.203478">
        <ele>508.381544</ele>
        <time>2020-09-10T08:25:45.750Z</time>
      </trkpt>
      <trkpt lat="48.563831" lon="10.203304">
        <ele>508.333076</ele>
        <time>2020-09-10T08:25:47.760Z</time>
      </trkpt>
      <trkpt lat="48.563817" lon="10.203128">
        <ele>508.283883</ele>
        <time>2020-09-10T08:25:49.751Z</time>
      </trkpt>
      <trkpt lat="48.563809" lon="10.202948">
        <ele>508.233818</ele>
        <time>2020-09-10T08:25:51.759Z</time>
      </trkpt>
      <trkpt lat="48.563797" lon="10.202760">
        <ele>508.181405</ele>
        <time>2020-09-10T08:25:53.753Z</time>
      </trkpt>
      <trkpt lat="48.563776" lon="10.202571">
        <ele>508.128222</ele>
        <time>2020-09-10T08:25:55.751Z</time>
      </trkpt>
      <trkpt lat="48.563762" lon="10.202384">
        <ele>508.075996</ele>
        <time>2020-09-10T08:25:57.748Z</time>
      </trkpt>
      <trkpt lat="48.563757" lon="10.202205">
        <ele>508.026278</ele>
        <time>2020-09-10T08:25:59.748Z</time>
      </trkpt>
      <trkpt lat="48.563756" lon="10.202027">
        <ele>507.976880</ele>
        <time>2020-09-10T08:26:01.736Z</time>
      </trkpt>
      <trkpt lat="48.563752" lon="10.201851">
        <ele>507.928009</ele>
        <time>2020-09-10T08:26:03.743Z</time>
      </trkpt>
      <trkpt lat="48.563748" lon="10.201671">
        <ele>507.878030</ele>
        <time>2020-09-10T08:26:05.745Z</time>
      </trkpt>
      <trkpt lat="48.563751" lon="10.201487">
        <ele>507.826952</ele>
        <time>2020-09-10T08:26:07.745Z</time>
      </trkpt>
      <trkpt lat="48.563757" lon="10.201291">
        <ele>507.772503</ele>
        <time>2020-09-10T08:26:09.747Z</time>
      </trkpt>
      <trkpt lat="48.563766" lon="10.201094">
        <ele>507.717703</ele>
        <time>2020-09-10T08:26:11.749Z</time>
      </trkpt>
      <trkpt lat="48.563770" lon="10.200902">
        <ele>507.664395</ele>
        <time>2020-09-10T08:26:13.723Z</time>
      </trkpt>
      <trkpt lat="48.563773" lon="10.200699">
        <ele>507.651472</ele>
        <time>2020-09-10T08:26:15.733Z</time>
      </trkpt>
      <trkpt lat="48.563783" lon="10.200501">
        <ele>507.650989</ele>
        <time>2020-09-10T08:26:17.750Z</time>
      </trkpt>
      <trkpt lat="48.563791" lon="10.200306">
        <ele>507.650513</ele>
        <time>2020-09-10T08:26:19.763Z</time>
      </trkpt>
      <trkpt lat="48.563791" lon="10.200118">
        <ele>507.650054</ele>
        <time>2020-09-10T08:26:21.750Z</time>
      </trkpt>
      <trkpt lat="48.563792" lon="10.199939">
        <ele>507.649618</ele>
        <time>2020-09-10T08:26:23.759Z</time>
      </trkpt>
      <trkpt lat="48.563799" lon="10.199766">
        <ele>507.649196</ele>
        <time>2020-09-10T08:26:25.739Z</time>
      </trkpt>
      <trkpt lat="48.563804" lon="10.199589">
        <ele>507.648764</ele>
        <time>2020-09-10T08:26:27.759Z</time>
      </trkpt>
      <trkpt lat="48.563813" lon="10.199407">
        <ele>507.648320</ele>
        <time>2020-09-10T08:26:29.750Z</time>
      </trkpt>
      <trkpt lat="48.563832" lon="10.199230">
        <ele>507.647883</ele>
        <time>2020-09-10T08:26:31.748Z</time>
      </trkpt>
      <trkpt lat="48.563861" lon="10.199053">
        <ele>507.647439</ele>
        <time>2020-09-10T08:26:33.755Z</time>
      </trkpt>
      <trkpt lat="48.563904" lon="10.198871">
        <ele>507.646968</ele>
        <time>2020-09-10T08:26:35.750Z</time>
      </trkpt>
      <trkpt lat="48.563951" lon="10.198692">
        <ele>507.646499</ele>
        <time>2020-09-10T08:26:37.769Z</time>
      </trkpt>
      <trkpt lat="48.563992" lon="10.198497">
        <ele>507.646000</ele>
        <time>2020-09-10T08:26:39.762Z</time>
      </trkpt>
      <trkpt lat="48.564034" lon="10.198308">
        <ele>507.645514</ele>
        <time>2020-09-10T08:26:41.750Z</time>
      </trkpt>
      <trkpt lat="48.564067" lon="10.198115">
        <ele>507.709879</ele>
        <time>2020-09-10T08:26:43.750Z</time>
      </trkpt>
      <trkpt lat="48.564105" lon="10.197918">
        <ele>507.866402</ele>
        <time>2020-09-10T08:26:45.762Z</time>
      </trkpt>
      <trkpt lat="48.564144" lon="10.197727">
        <ele>508.018872</ele>
        <time>2020-09-10T08:26:47.749Z</time>
      </trkpt>
      <trkpt lat="48.564176" lon="10.197534">
        <ele>508.170640</ele>
        <time>2020-09-10T08:26:49.746Z</time>
      </trkpt>
      <trkpt lat="48.564204" lon="10.197350">
        <ele>508.314656</ele>
        <time>2020-09-10T08:26:51.748Z</time>
      </trkpt>
      <trkpt lat="48.564224" lon="10.197167">
        <ele>508.456137</ele>
        <time>2020-09-10T08:26:53.747Z</time>
      </trkpt>
      <trkpt lat="48.564233" lon="10.196985">
        <ele>508.595351</ele>
        <time>2020-09-10T08:26:55.747Z</time>
      </trkpt>
      <trkpt lat="48.564233" lon="10.196812">
        <ele>508.727314</ele>
        <time>2020-09-10T08:26:57.747Z</time>
      </trkpt>
      <trkpt lat="48.564232" lon="10.196635">
        <ele>508.862332</ele>
        <time>2020-09-10T08:26:59.750Z</time>
      </trkpt>
      <trkpt lat="48.564220" lon="10.196463">
        <ele>508.994258</ele>
        <time>2020-09-10T08:27:01.748Z</time>
      </trkpt>
      <trkpt lat="48.564200" lon="10.196285">
        <ele>509.131978</ele>
        <time>2020-09-10T08:27:03.749Z</time>
      </trkpt>
      <trkpt lat="48.564178" lon="10.196102">
        <ele>509.273852</ele>
        <time>2020-09-10T08:27:05.749Z</time>
      </trkpt>
      <trkpt lat="48.564157" lon="10.195916">
        <ele>509.417781</ele>
        <time>2020-09-10T08:27:07.750Z</time>
      </trkpt>
      <trkpt lat="48.564119" lon="10.195736">
        <ele>509.561900</ele>
        <time>2020-09-10T08:27:09.803Z</time>
      </trkpt>
      <trkpt lat="48.564073" lon="10.195569">
        <ele>509.699880</ele>
        <time>2020-09-10T08:27:11.747Z</time>
      </trkpt>
      <trkpt lat="48.564023" lon="10.195408">
        <ele>509.886026</ele>
        <time>2020-09-10T08:27:13.755Z</time>
      </trkpt>
      <trkpt lat="48.563966" lon="10.195257">
        <ele>510.075782</ele>
        <time>2020-09-10T08:27:15.750Z</time>
      </trkpt>
      <trkpt lat="48.563897" lon="10.195122">
        <ele>510.261976</ele>
        <time>2020-09-10T08:27:17.750Z</time>
      </trkpt>
      <trkpt lat="48.563823" lon="10.195004">
        <ele>510.439428</ele>
        <time>2020-09-10T08:27:19.753Z</time>
      </trkpt>
      <trkpt lat="48.563744" lon="10.194904">
        <ele>510.609413</ele>
        <time>2020-09-10T08:27:21.750Z</time>
      </trkpt>
      <trkpt lat="48.563656" lon="10.194817">
        <ele>510.782870</ele>
        <time>2020-09-10T08:27:23.733Z</time>
      </trkpt>
      <trkpt lat="48.563557" lon="10.194755">
        <ele>510.959633</ele>
        <time>2020-09-10T08:27:25.753Z</time>
      </trkpt>
      <trkpt lat="48.563452" lon="10.194703">
        <ele>511.141888</ele>
        <time>2020-09-10T08:27:27.746Z</time>
      </trkpt>
      <trkpt lat="48.563337" lon="10.194681">
        <ele>511.333087</ele>
        <time>2020-09-10T08:27:29.753Z</time>
      </trkpt>
      <trkpt lat="48.563216" lon="10.194668">
        <ele>511.533173</ele>
        <time>2020-09-10T08:27:31.754Z</time>
      </trkpt>
      <trkpt lat="48.563088" lon="10.194686">
        <ele>511.745213</ele>
        <time>2020-09-10T08:27:33.757Z</time>
      </trkpt>
      <trkpt lat="48.562953" lon="10.194704">
        <ele>511.968752</ele>
        <time>2020-09-10T08:27:35.751Z</time>
      </trkpt>
      <trkpt lat="48.562829" lon="10.194745">
        <ele>512.178121</ele>
        <time>2020-09-10T08:27:37.754Z</time>
      </trkpt>
      <trkpt lat="48.562703" lon="10.194796">
        <ele>512.393277</ele>
        <time>2020-09-10T08:27:39.741Z</time>
      </trkpt>
      <trkpt lat="48.562583" lon="10.194863">
        <ele>512.604289</ele>
        <time>2020-09-10T08:27:41.740Z</time>
      </trkpt>
      <trkpt lat="48.562464" lon="10.194931">
        <ele>512.600714</ele>
        <time>2020-09-10T08:27:43.741Z</time>
      </trkpt>
      <trkpt lat="48.562350" lon="10.194985">
        <ele>512.471719</ele>
        <time>2020-09-10T08:27:45.744Z</time>
      </trkpt>
      <trkpt lat="48.562246" lon="10.195024">
        <ele>512.356021</ele>
        <time>2020-09-10T08:27:47.740Z</time>
      </trkpt>
      <trkpt lat="48.562138" lon="10.195060">
        <ele>512.236608</ele>
        <time>2020-09-10T08:27:49.735Z</time>
      </trkpt>
      <trkpt lat="48.562039" lon="10.195081">
        <ele>512.128667</ele>
        <time>2020-09-10T08:27:51.735Z</time>
      </trkpt>
      <trkpt lat="48.561940" lon="10.195099">
        <ele>512.021004</ele>
        <time>2020-09-10T08:27:53.750Z</time>
      </trkpt>
      <trkpt lat="48.561838" lon="10.195121">
        <ele>511.909756</ele>
        <time>2020-09-10T08:27:55.726Z</time>
      </trkpt>
      <trkpt lat="48.561736" lon="10.195147">
        <ele>511.798068</ele>
        <time>2020-09-10T08:27:57.747Z</time>
      </trkpt>
      <trkpt lat="48.561635" lon="10.195173">
        <ele>511.687445</ele>
        <time>2020-09-10T08:27:59.746Z</time>
      </trkpt>
      <trkpt lat="48.561527" lon="10.195178">
        <ele>511.570780</ele>
        <time>2020-09-10T08:28:01.744Z</time>
      </trkpt>
      <trkpt lat="48.561409" lon="10.195161">
        <ele>511.442795</ele>
        <time>2020-09-10T08:28:03.745Z</time>
      </trkpt>
      <trkpt lat="48.561299" lon="10.195120">
        <ele>511.320465</ele>
        <time>2020-09-10T08:28:05.750Z</time>
      </trkpt>
      <trkpt lat="48.561199" lon="10.195063">
        <ele>511.205066</ele>
        <time>2020-09-10T08:28:07.746Z</time>
      </trkpt>
      <trkpt lat="48.561105" lon="10.195006">
        <ele>511.095704</ele>
        <time>2020-09-10T08:28:09.750Z</time>
      </trkpt>
      <trkpt lat="48.561023" lon="10.194937">
        <ele>510.994363</ele>
        <time>2020-09-10T08:28:11.741Z</time>
      </trkpt>
      <trkpt lat="48.560945" lon="10.194861">
        <ele>510.894153</ele>
        <time>2020-09-10T08:28:13.745Z</time>
      </trkpt>
      <trkpt lat="48.560869" lon="10.194770">
        <ele>510.789452</ele>
        <time>2020-09-10T08:28:15.772Z</time>
      </trkpt>
      <trkpt lat="48.560790" lon="10.194669">
        <ele>510.803888</ele>
        <time>2020-09-10T08:28:17.735Z</time>
      </trkpt>
      <trkpt lat="48.560712" lon="10.194574">
        <ele>510.904410</ele>
        <time>2020-09-10T08:28:19.750Z</time>
      </trkpt>
      <trkpt lat="48.560628" lon="10.194467">
        <ele>511.014646</ele>
        <time>2020-09-10T08:28:21.760Z</time>
      </trkpt>
      <trkpt lat="48.560535" lon="10.194352">
        <ele>511.135223</ele>
        <time>2020-09-10T08:28:23.750Z</time>
      </trkpt>
      <trkpt lat="48.560449" lon="10.194247">
        <ele>511.246162</ele>
        <time>2020-09-10T08:28:25.748Z</time>
      </trkpt>
      <trkpt lat="48.560358" lon="10.194149">
        <ele>511.358286</ele>
        <time>2020-09-10T08:28:27.753Z</time>
      </trkpt>
      <trkpt lat="48.560268" lon="10.194050">
        <ele>511.469984</ele>
        <time>2020-09-10T08:28:29.738Z</time>
      </trkpt>
      <trkpt lat="48.560195" lon="10.193965">
        <ele>511.562454</ele>
        <time>2020-09-10T08:28:31.742Z</time>
      </trkpt>
      <trkpt lat="48.560098" lon="10.193847">
        <ele>511.687404</ele>
        <time>2020-09-10T08:28:34.749Z</time>
      </trkpt>
      <trkpt lat="48.560015" lon="10.193745">
        <ele>511.794750</ele>
        <time>2020-09-10T08:28:37.741Z</time>
      </trkpt>
      <trkpt lat="48.559943" lon="10.193631">
        <ele>511.899391</ele>
        <time>2020-09-10T08:28:40.748Z</time>
      </trkpt>
      <trkpt lat="48.559883" lon="10.193523">
        <ele>511.993027</ele>
        <time>2020-09-10T08:28:43.747Z</time>
      </trkpt>
      <trkpt lat="48.559774" lon="10.193484">
        <ele>512.105418</ele>
        <time>2020-09-10T08:28:47.746Z</time>
      </trkpt>
      <trkpt lat="48.559664" lon="10.193486">
        <ele>512.215795</ele>
        <time>2020-09-10T08:28:50.747Z</time>
      </trkpt>
      <trkpt lat="48.559562" lon="10.193458">
        <ele>512.319813</ele>
        <time>2020-09-10T08:28:52.749Z</time>
      </trkpt>
      <trkpt lat="48.559446" lon="10.193441">
        <ele>512.436748</ele>
        <time>2020-09-10T08:28:54.798Z</time>
      </trkpt>
      <trkpt lat="48.559333" lon="10.193431">
        <ele>512.555975</ele>
        <time>2020-09-10T08:28:56.750Z</time>
      </trkpt>
      <trkpt lat="48.559222" lon="10.193414">
        <ele>512.918561</ele>
        <time>2020-09-10T08:28:58.745Z</time>
      </trkpt>
      <trkpt lat="48.559106" lon="10.193406">
        <ele>513.295941</ele>
        <time>2020-09-10T08:29:00.755Z</time>
      </trkpt>
      <trkpt lat="48.558991" lon="10.193391">
        <ele>513.671069</ele>
        <time>2020-09-10T08:29:02.751Z</time>
      </trkpt>
      <trkpt lat="48.558889" lon="10.193395">
        <ele>514.002670</ele>
        <time>2020-09-10T08:29:04.753Z</time>
      </trkpt>
      <trkpt lat="48.558757" lon="10.193423">
        <ele>514.435863</ele>
        <time>2020-09-10T08:29:07.750Z</time>
      </trkpt>
      <trkpt lat="48.558634" lon="10.193478">
        <ele>514.852738</ele>
        <time>2020-09-10T08:29:10.750Z</time>
      </trkpt>
      <trkpt lat="48.558519" lon="10.193560">
        <ele>515.266005</ele>
        <time>2020-09-10T08:29:13.745Z</time>
      </trkpt>
      <trkpt lat="48.558412" lon="10.193663">
        <ele>515.678322</ele>
        <time>2020-09-10T08:29:16.763Z</time>
      </trkpt>
      <trkpt lat="48.558334" lon="10.193812">
        <ele>516.086947</ele>
        <time>2020-09-10T08:29:19.747Z</time>
      </trkpt>
      <trkpt lat="48.558275" lon="10.193985">
        <ele>516.505560</ele>
        <time>2020-09-10T08:29:22.771Z</time>
      </trkpt>
      <trkpt lat="48.558234" lon="10.194107">
        <ele>516.799869</ele>
        <time>2020-09-10T08:29:24.746Z</time>
      </trkpt>
      <trkpt lat="48.558191" lon="10.194276">
        <ele>517.189319</ele>
        <time>2020-09-10T08:29:27.753Z</time>
      </trkpt>
      <trkpt lat="48.558146" lon="10.194447">
        <ele>517.585143</ele>
        <time>2020-09-10T08:29:30.757Z</time>
      </trkpt>
      <trkpt lat="48.558115" lon="10.194612">
        <ele>517.954075</ele>
        <time>2020-09-10T08:29:33.759Z</time>
      </trkpt>
      <trkpt lat="48.558079" lon="10.194774">
        <ele>518.321650</ele>
        <time>2020-09-10T08:29:36.749Z</time>
      </trkpt>
      <trkpt lat="48.558043" lon="10.194917">
        <ele>518.541806</ele>
        <time>2020-09-10T08:29:39.752Z</time>
      </trkpt>
      <trkpt lat="48.558008" lon="10.195052">
        <ele>518.721763</ele>
        <time>2020-09-10T08:29:42.742Z</time>
      </trkpt>
      <trkpt lat="48.557968" lon="10.195182">
        <ele>518.899701</ele>
        <time>2020-09-10T08:29:45.750Z</time>
      </trkpt>
      <trkpt lat="48.557932" lon="10.195339">
        <ele>519.105930</ele>
        <time>2020-09-10T08:29:48.751Z</time>
      </trkpt>
      <trkpt lat="48.557900" lon="10.195486">
        <ele>519.297999</ele>
        <time>2020-09-10T08:29:51.753Z</time>
      </trkpt>
      <trkpt lat="48.557865" lon="10.195634">
        <ele>519.493069</ele>
        <time>2020-09-10T08:29:54.751Z</time>
      </trkpt>
      <trkpt lat="48.557825" lon="10.195784">
        <ele>519.693790</ele>
        <time>2020-09-10T08:29:57.751Z</time>
      </trkpt>
      <trkpt lat="48.557787" lon="10.195966">
        <ele>519.930660</ele>
        <time>2020-09-10T08:30:00.730Z</time>
      </trkpt>
      <trkpt lat="48.557747" lon="10.196149">
        <ele>520.169863</ele>
        <time>2020-09-10T08:30:03.748Z</time>
      </trkpt>
      <trkpt lat="48.557711" lon="10.196275">
        <ele>520.340203</ele>
        <time>2020-09-10T08:30:05.758Z</time>
      </trkpt>
      <trkpt lat="48.557651" lon="10.196444">
        <ele>520.578236</ele>
        <time>2020-09-10T08:30:08.748Z</time>
      </trkpt>
      <trkpt lat="48.557601" lon="10.196603">
        <ele>520.796728</ele>
        <time>2020-09-10T08:30:11.751Z</time>
      </trkpt>
      <trkpt lat="48.557580" lon="10.196780">
        <ele>521.019921</ele>
        <time>2020-09-10T08:30:14.754Z</time>
      </trkpt>
      <trkpt lat="48.557557" lon="10.196952">
        <ele>521.237720</ele>
        <time>2020-09-10T08:30:17.745Z</time>
      </trkpt>
      <trkpt lat="48.557528" lon="10.197129">
        <ele>521.464043</ele>
        <time>2020-09-10T08:30:20.744Z</time>
      </trkpt>
      <trkpt lat="48.557484" lon="10.197300">
        <ele>521.691762</ele>
        <time>2020-09-10T08:30:23.744Z</time>
      </trkpt>
      <trkpt lat="48.557444" lon="10.197486">
        <ele>521.719690</ele>
        <time>2020-09-10T08:30:26.744Z</time>
      </trkpt>
      <trkpt lat="48.557410" lon="10.197612">
        <ele>521.673047</ele>
        <time>2020-09-10T08:30:28.760Z</time>
      </trkpt>
      <trkpt lat="48.557380" lon="10.197743">
        <ele>521.625530</ele>
        <time>2020-09-10T08:30:30.757Z</time>
      </trkpt>
      <trkpt lat="48.557347" lon="10.197876">
        <ele>521.576840</ele>
        <time>2020-09-10T08:30:32.753Z</time>
      </trkpt>
      <trkpt lat="48.557319" lon="10.198012">
        <ele>521.528018</ele>
        <time>2020-09-10T08:30:34.754Z</time>
      </trkpt>
      <trkpt lat="48.557296" lon="10.198161">
        <ele>521.475571</ele>
        <time>2020-09-10T08:30:36.747Z</time>
      </trkpt>
      <trkpt lat="48.557267" lon="10.198316">
        <ele>521.420357</ele>
        <time>2020-09-10T08:30:38.751Z</time>
      </trkpt>
      <trkpt lat="48.557252" lon="10.198493">
        <ele>521.359188</ele>
        <time>2020-09-10T08:30:40.763Z</time>
      </trkpt>
      <trkpt lat="48.557242" lon="10.198673">
        <ele>521.297269</ele>
        <time>2020-09-10T08:30:42.748Z</time>
      </trkpt>
      <trkpt lat="48.557244" lon="10.198844">
        <ele>521.238642</ele>
        <time>2020-09-10T08:30:44.749Z</time>
      </trkpt>
      <trkpt lat="48.557247" lon="10.199012">
        <ele>521.181033</ele>
        <time>2020-09-10T08:30:46.769Z</time>
      </trkpt>
      <trkpt lat="48.557252" lon="10.199158">
        <ele>521.130919</ele>
        <time>2020-09-10T08:30:48.768Z</time>
      </trkpt>
      <trkpt lat="48.557259" lon="10.199304">
        <ele>521.080740</ele>
        <time>2020-09-10T08:30:50.737Z</time>
      </trkpt>
      <trkpt lat="48.557263" lon="10.199492">
        <ele>521.016262</ele>
        <time>2020-09-10T08:30:53.748Z</time>
      </trkpt>
      <trkpt lat="48.557260" lon="10.199631">
        <ele>520.968589</ele>
        <time>2020-09-10T08:30:55.752Z</time>
      </trkpt>
      <trkpt lat="48.557267" lon="10.199769">
        <ele>520.921146</ele>
        <time>2020-09-10T08:30:57.749Z</time>
      </trkpt>
      <trkpt lat="48.557272" lon="10.199916">
        <ele>520.870689</ele>
        <time>2020-09-10T08:30:59.753Z</time>
      </trkpt>
      <trkpt lat="48.557277" lon="10.200118">
        <ele>520.853868</ele>
        <time>2020-09-10T08:31:02.749Z</time>
      </trkpt>
      <trkpt lat="48.557276" lon="10.200268">
        <ele>520.883604</ele>
        <time>2020-09-10T08:31:04.754Z</time>
      </trkpt>
      <trkpt lat="48.557272" lon="10.200421">
        <ele>520.913957</ele>
        <time>2020-09-10T08:31:06.745Z</time>
      </trkpt>
      <trkpt lat="48.557272" lon="10.200577">
        <ele>520.944881</ele>
        <time>2020-09-10T08:31:08.752Z</time>
      </trkpt>
      <trkpt lat="48.557279" lon="10.200727">
        <ele>520.974690</ele>
        <time>2020-09-10T08:31:10.752Z</time>
      </trkpt>
      <trkpt lat="48.557282" lon="10.200883">
        <ele>521.005627</ele>
        <time>2020-09-10T08:31:12.753Z</time>
      </trkpt>
      <trkpt lat="48.557272" lon="10.201040">
        <ele>521.036893</ele>
        <time>2020-09-10T08:31:14.763Z</time>
      </trkpt>
      <trkpt lat="48.557282" lon="10.201182">
        <ele>521.065201</ele>
        <time>2020-09-10T08:31:16.748Z</time>
      </trkpt>
      <trkpt lat="48.557283" lon="10.201328">
        <ele>521.094144</ele>
        <time>2020-09-10T08:31:18.774Z</time>
      </trkpt>
      <trkpt lat="48.557284" lon="10.201479">
        <ele>521.124079</ele>
        <time>2020-09-10T08:31:20.752Z</time>
      </trkpt>
      <trkpt lat="48.557286" lon="10.201627">
        <ele>521.153423</ele>
        <time>2020-09-10T08:31:22.751Z</time>
      </trkpt>
      <trkpt lat="48.557282" lon="10.201775">
        <ele>521.182786</ele>
        <time>2020-09-10T08:31:24.748Z</time>
      </trkpt>
      <trkpt lat="48.557280" lon="10.201920">
        <ele>521.211536</ele>
        <time>2020-09-10T08:31:26.750Z</time>
      </trkpt>
      <trkpt lat="48.557278" lon="10.202067">
        <ele>521.240682</ele>
        <time>2020-09-10T08:31:28.753Z</time>
      </trkpt>
      <trkpt lat="48.557279" lon="10.202207">
        <ele>521.268436</ele>
        <time>2020-09-10T08:31:30.764Z</time>
      </trkpt>
      <trkpt lat="48.557283" lon="10.202349">
        <ele>521.296610</ele>
        <time>2020-09-10T08:31:32.746Z</time>
      </trkpt>
      <trkpt lat="48.557286" lon="10.202538">
        <ele>521.334087</ele>
        <time>2020-09-10T08:31:35.785Z</time>
      </trkpt>
      <trkpt lat="48.557280" lon="10.202688">
        <ele>521.363876</ele>
        <time>2020-09-10T08:31:38.749Z</time>
      </trkpt>
      <trkpt lat="48.557181" lon="10.202775">
        <ele>521.722924</ele>
        <time>2020-09-10T08:31:42.751Z</time>
      </trkpt>
      <trkpt lat="48.557075" lon="10.202727">
        <ele>522.189390</ele>
        <time>2020-09-10T08:31:44.748Z</time>
      </trkpt>
      <trkpt lat="48.556977" lon="10.202680">
        <ele>522.622808</ele>
        <time>2020-09-10T08:31:46.749Z</time>
      </trkpt>
      <trkpt lat="48.556881" lon="10.202644">
        <ele>523.039761</ele>
        <time>2020-09-10T08:31:48.753Z</time>
      </trkpt>
      <trkpt lat="48.556760" lon="10.202586">
        <ele>523.574875</ele>
        <time>2020-09-10T08:31:51.757Z</time>
      </trkpt>
      <trkpt lat="48.556652" lon="10.202540">
        <ele>524.047878</ele>
        <time>2020-09-10T08:31:54.753Z</time>
      </trkpt>
      <trkpt lat="48.556546" lon="10.202504">
        <ele>524.505856</ele>
        <time>2020-09-10T08:31:57.754Z</time>
      </trkpt>
      <trkpt lat="48.556448" lon="10.202460">
        <ele>524.936816</ele>
        <time>2020-09-10T08:32:00.749Z</time>
      </trkpt>
      <trkpt lat="48.556353" lon="10.202418">
        <ele>525.354069</ele>
        <time>2020-09-10T08:32:03.754Z</time>
      </trkpt>
      <trkpt lat="48.556262" lon="10.202376">
        <ele>525.755166</ele>
        <time>2020-09-10T08:32:06.762Z</time>
      </trkpt>
      <trkpt lat="48.556151" lon="10.202335">
        <ele>526.236851</ele>
        <time>2020-09-10T08:32:10.728Z</time>
      </trkpt>
      <trkpt lat="48.556065" lon="10.202291">
        <ele>526.619595</ele>
        <time>2020-09-10T08:32:14.746Z</time>
      </trkpt>
      <trkpt lat="48.555979" lon="10.202383">
        <ele>527.063791</ele>
        <time>2020-09-10T08:32:19.746Z</time>
      </trkpt>
      <trkpt lat="48.555914" lon="10.202518">
        <ele>527.529570</ele>
        <time>2020-09-10T08:32:22.743Z</time>
      </trkpt>
      <trkpt lat="48.555837" lon="10.202628">
        <ele>527.976278</ele>
        <time>2020-09-10T08:32:24.741Z</time>
      </trkpt>
      <trkpt lat="48.555730" lon="10.202727">
        <ele>528.505181</ele>
        <time>2020-09-10T08:32:26.744Z</time>
      </trkpt>
      <trkpt lat="48.555596" lon="10.202792">
        <ele>529.029135</ele>
        <time>2020-09-10T08:32:28.744Z</time>
      </trkpt>
      <trkpt lat="48.555465" lon="10.202849">
        <ele>529.325623</ele>
        <time>2020-09-10T08:32:30.747Z</time>
      </trkpt>
      <trkpt lat="48.555339" lon="10.202907">
        <ele>529.612094</ele>
        <time>2020-09-10T08:32:32.746Z</time>
      </trkpt>
      <trkpt lat="48.555218" lon="10.202984">
        <ele>529.897645</ele>
        <time>2020-09-10T08:32:34.755Z</time>
      </trkpt>
      <trkpt lat="48.555120" lon="10.203065">
        <ele>530.140593</ele>
        <time>2020-09-10T08:32:36.732Z</time>
      </trkpt>
      <trkpt lat="48.555025" lon="10.203174">
        <ele>530.400035</ele>
        <time>2020-09-10T08:32:38.749Z</time>
      </trkpt>
      <trkpt lat="48.554945" lon="10.203284">
        <ele>530.635295</ele>
        <time>2020-09-10T08:32:40.747Z</time>
      </trkpt>
      <trkpt lat="48.554877" lon="10.203428">
        <ele>530.889938</ele>
        <time>2020-09-10T08:32:43.757Z</time>
      </trkpt>
      <trkpt lat="48.554836" lon="10.203554">
        <ele>531.092055</ele>
        <time>2020-09-10T08:32:45.763Z</time>
      </trkpt>
      <trkpt lat="48.554798" lon="10.203711">
        <ele>531.332701</ele>
        <time>2020-09-10T08:32:47.752Z</time>
      </trkpt>
      <trkpt lat="48.554765" lon="10.203875">
        <ele>531.579456</ele>
        <time>2020-09-10T08:32:49.752Z</time>
      </trkpt>
      <trkpt lat="48.554735" lon="10.204027">
        <ele>531.807789</ele>
        <time>2020-09-10T08:32:51.746Z</time>
      </trkpt>
      <trkpt lat="48.554707" lon="10.204174">
        <ele>532.027992</ele>
        <time>2020-09-10T08:32:53.750Z</time>
      </trkpt>
      <trkpt lat="48.554681" lon="10.204319">
        <ele>532.244252</ele>
        <time>2020-09-10T08:32:55.751Z</time>
      </trkpt>
      <trkpt lat="48.554664" lon="10.204467">
        <ele>532.460490</ele>
        <time>2020-09-10T08:32:57.752Z</time>
      </trkpt>
      <trkpt lat="48.554646" lon="10.204618">
        <ele>532.681361</ele>
        <time>2020-09-10T08:32:59.750Z</time>
      </trkpt>
      <trkpt lat="48.554626" lon="10.204763">
        <ele>532.942140</ele>
        <time>2020-09-10T08:33:01.753Z</time>
      </trkpt>
      <trkpt lat="48.554599" lon="10.204903">
        <ele>533.515130</ele>
        <time>2020-09-10T08:33:03.751Z</time>
      </trkpt>
      <trkpt lat="48.554578" lon="10.205046">
        <ele>534.090696</ele>
        <time>2020-09-10T08:33:05.747Z</time>
      </trkpt>
      <trkpt lat="48.554565" lon="10.205187">
        <ele>534.650089</ele>
        <time>2020-09-10T08:33:07.743Z</time>
      </trkpt>
      <trkpt lat="48.554533" lon="10.205381">
        <ele>535.435705</ele>
        <time>2020-09-10T08:33:10.759Z</time>
      </trkpt>
      <trkpt lat="48.554447" lon="10.205525">
        <ele>536.197817</ele>
        <time>2020-09-10T08:33:13.748Z</time>
      </trkpt>
      <trkpt lat="48.554352" lon="10.205568">
        <ele>536.786549</ele>
        <time>2020-09-10T08:33:16.749Z</time>
      </trkpt>
      <trkpt lat="48.554251" lon="10.205555">
        <ele>537.388305</ele>
        <time>2020-09-10T08:33:19.752Z</time>
      </trkpt>
      <trkpt lat="48.554160" lon="10.205521">
        <ele>537.944800</ele>
        <time>2020-09-10T08:33:22.769Z</time>
      </trkpt>
      <trkpt lat="48.554052" lon="10.205481">
        <ele>538.604924</ele>
        <time>2020-09-10T08:33:26.750Z</time>
      </trkpt>
      <trkpt lat="48.553952" lon="10.205436">
        <ele>539.224347</ele>
        <time>2020-09-10T08:33:30.740Z</time>
      </trkpt>
      <trkpt lat="48.553855" lon="10.205399">
        <ele>539.818255</ele>
        <time>2020-09-10T08:33:34.756Z</time>
      </trkpt>
      <trkpt lat="48.553757" lon="10.205468">
        <ele>540.460108</ele>
        <time>2020-09-10T08:33:39.747Z</time>
      </trkpt>
      <trkpt lat="48.553762" lon="10.205612">
        <ele>541.026727</ele>
        <time>2020-09-10T08:33:42.737Z</time>
      </trkpt>
      <trkpt lat="48.553769" lon="10.205776">
        <ele>541.672496</ele>
        <time>2020-09-10T08:33:45.750Z</time>
      </trkpt>
      <trkpt lat="48.553770" lon="10.205927">
        <ele>542.265873</ele>
        <time>2020-09-10T08:33:48.735Z</time>
      </trkpt>
      <trkpt lat="48.553774" lon="10.206065">
        <ele>542.808657</ele>
        <time>2020-09-10T08:33:51.745Z</time>
      </trkpt>
      <trkpt lat="48.553774" lon="10.206218">
        <ele>543.409863</ele>
        <time>2020-09-10T08:33:54.745Z</time>
      </trkpt>
      <trkpt lat="48.553771" lon="10.206409">
        <ele>543.792954</ele>
        <time>2020-09-10T08:33:58.743Z</time>
      </trkpt>
      <trkpt lat="48.553738" lon="10.206576">
        <ele>544.069005</ele>
        <time>2020-09-10T08:34:01.748Z</time>
      </trkpt>
      <trkpt lat="48.553726" lon="10.206738">
        <ele>544.327202</ele>
        <time>2020-09-10T08:34:04.741Z</time>
      </trkpt>
      <trkpt lat="48.553730" lon="10.206909">
        <ele>544.598222</ele>
        <time>2020-09-10T08:34:07.738Z</time>
      </trkpt>
      <trkpt lat="48.553735" lon="10.207051">
        <ele>544.823458</ele>
        <time>2020-09-10T08:34:10.746Z</time>
      </trkpt>
      <trkpt lat="48.553742" lon="10.207187">
        <ele>545.039522</ele>
        <time>2020-09-10T08:34:13.760Z</time>
      </trkpt>
      <trkpt lat="48.553740" lon="10.207344">
        <ele>545.288244</ele>
        <time>2020-09-10T08:34:17.751Z</time>
      </trkpt>
      <trkpt lat="48.553736" lon="10.207517">
        <ele>545.562430</ele>
        <time>2020-09-10T08:34:21.747Z</time>
      </trkpt>
      <trkpt lat="48.553742" lon="10.207657">
        <ele>545.784644</ele>
        <time>2020-09-10T08:34:25.758Z</time>
      </trkpt>
      <trkpt lat="48.553759" lon="10.207791">
        <ele>546.000753</ele>
        <time>2020-09-10T08:34:28.751Z</time>
      </trkpt>
      <trkpt lat="48.553808" lon="10.207913">
        <ele>546.226783</ele>
        <time>2020-09-10T08:34:30.750Z</time>
      </trkpt>
      <trkpt lat="48.553841" lon="10.208081">
        <ele>546.504352</ele>
        <time>2020-09-10T08:34:33.749Z</time>
      </trkpt>
      <trkpt lat="48.553861" lon="10.208227">
        <ele>546.740504</ele>
        <time>2020-09-10T08:34:35.753Z</time>
      </trkpt>
      <trkpt lat="48.553886" lon="10.208420">
        <ele>547.052000</ele>
        <time>2020-09-10T08:34:38.751Z</time>
      </trkpt>
      <trkpt lat="48.553903" lon="10.208626">
        <ele>547.380813</ele>
        <time>2020-09-10T08:34:41.751Z</time>
      </trkpt>
      <trkpt lat="48.553918" lon="10.208763">
        <ele>547.600759</ele>
        <time>2020-09-10T08:34:43.751Z</time>
      </trkpt>
      <trkpt lat="48.553927" lon="10.208899">
        <ele>547.817246</ele>
        <time>2020-09-10T08:34:45.750Z</time>
      </trkpt>
      <trkpt lat="48.553936" lon="10.209038">
        <ele>547.937163</ele>
        <time>2020-09-10T08:34:47.752Z</time>
      </trkpt>
      <trkpt lat="48.553946" lon="10.209217">
        <ele>548.069791</ele>
        <time>2020-09-10T08:34:50.755Z</time>
      </trkpt>
      <trkpt lat="48.553951" lon="10.209402">
        <ele>548.206492</ele>
        <time>2020-09-10T08:34:53.754Z</time>
      </trkpt>
      <trkpt lat="48.553964" lon="10.209573">
        <ele>548.333573</ele>
        <time>2020-09-10T08:34:56.749Z</time>
      </trkpt>
      <trkpt lat="48.553986" lon="10.209756">
        <ele>548.470894</ele>
        <time>2020-09-10T08:34:59.752Z</time>
      </trkpt>
      <trkpt lat="48.553998" lon="10.209916">
        <ele>548.589779</ele>
        <time>2020-09-10T08:35:02.745Z</time>
      </trkpt>
      <trkpt lat="48.554020" lon="10.210098">
        <ele>548.726374</ele>
        <time>2020-09-10T08:35:05.744Z</time>
      </trkpt>
      <trkpt lat="48.554036" lon="10.210288">
        <ele>548.867783</ele>
        <time>2020-09-10T08:35:08.747Z</time>
      </trkpt>
      <trkpt lat="48.554045" lon="10.210462">
        <ele>548.996640</ele>
        <time>2020-09-10T08:35:11.761Z</time>
      </trkpt>
      <trkpt lat="48.554058" lon="10.210622">
        <ele>549.115656</ele>
        <time>2020-09-10T08:35:14.752Z</time>
      </trkpt>
      <trkpt lat="48.554074" lon="10.210810">
        <ele>549.255601</ele>
        <time>2020-09-10T08:35:17.743Z</time>
      </trkpt>
      <trkpt lat="48.554075" lon="10.210953">
        <ele>549.361185</ele>
        <time>2020-09-10T08:35:19.720Z</time>
      </trkpt>
      <trkpt lat="48.554088" lon="10.211103">
        <ele>549.472876</ele>
        <time>2020-09-10T08:35:21.750Z</time>
      </trkpt>
      <trkpt lat="48.554097" lon="10.211243">
        <ele>549.576726</ele>
        <time>2020-09-10T08:35:23.750Z</time>
      </trkpt>
      <trkpt lat="48.554107" lon="10.211380">
        <ele>549.678487</ele>
        <time>2020-09-10T08:35:25.747Z</time>
      </trkpt>
      <trkpt lat="48.554103" lon="10.211519">
        <ele>549.781209</ele>
        <time>2020-09-10T08:35:27.726Z</time>
      </trkpt>
      <trkpt lat="48.554087" lon="10.211717">
        <ele>550.004759</ele>
        <time>2020-09-10T08:35:30.747Z</time>
      </trkpt>
      <trkpt lat="48.554083" lon="10.211853">
        <ele>550.209542</ele>
        <time>2020-09-10T08:35:32.756Z</time>
      </trkpt>
      <trkpt lat="48.554080" lon="10.212028">
        <ele>550.472878</ele>
        <time>2020-09-10T08:35:35.746Z</time>
      </trkpt>
      <trkpt lat="48.554066" lon="10.212215">
        <ele>550.755972</ele>
        <time>2020-09-10T08:35:38.744Z</time>
      </trkpt>
      <trkpt lat="48.554058" lon="10.212399">
        <ele>551.033355</ele>
        <time>2020-09-10T08:35:41.747Z</time>
      </trkpt>
      <trkpt lat="48.554054" lon="10.212587">
        <ele>551.316305</ele>
        <time>2020-09-10T08:35:44.740Z</time>
      </trkpt>
      <trkpt lat="48.554043" lon="10.212771">
        <ele>551.594219</ele>
        <time>2020-09-10T08:35:47.747Z</time>
      </trkpt>
      <trkpt lat="48.554032" lon="10.212960">
        <ele>551.879624</ele>
        <time>2020-09-10T08:35:50.749Z</time>
      </trkpt>
      <trkpt lat="48.554029" lon="10.213156">
        <ele>552.174541</ele>
        <time>2020-09-10T08:35:53.751Z</time>
      </trkpt>
      <trkpt lat="48.554019" lon="10.213338">
        <ele>552.449261</ele>
        <time>2020-09-10T08:35:56.750Z</time>
      </trkpt>
      <trkpt lat="48.554010" lon="10.213524">
        <ele>552.729804</ele>
        <time>2020-09-10T08:35:59.749Z</time>
      </trkpt>
      <trkpt lat="48.554000" lon="10.213714">
        <ele>553.016518</ele>
        <time>2020-09-10T08:36:02.746Z</time>
      </trkpt>
      <trkpt lat="48.553981" lon="10.213910">
        <ele>553.314502</ele>
        <time>2020-09-10T08:36:05.752Z</time>
      </trkpt>
      <trkpt lat="48.553966" lon="10.214046">
        <ele>553.521905</ele>
        <time>2020-09-10T08:36:07.750Z</time>
      </trkpt>
      <trkpt lat="48.553947" lon="10.214184">
        <ele>553.733939</ele>
        <time>2020-09-10T08:36:09.761Z</time>
      </trkpt>
      <trkpt lat="48.553933" lon="10.214324">
        <ele>553.944218</ele>
        <time>2020-09-10T08:36:11.749Z</time>
      </trkpt>
      <trkpt lat="48.553919" lon="10.214460">
        <ele>554.022051</ele>
        <time>2020-09-10T08:36:13.742Z</time>
      </trkpt>
      <trkpt lat="48.553915" lon="10.214606">
        <ele>554.104686</ele>
        <time>2020-09-10T08:36:15.729Z</time>
      </trkpt>
      <trkpt lat="48.553909" lon="10.214750">
        <ele>554.186281</ele>
        <time>2020-09-10T08:36:17.745Z</time>
      </trkpt>
      <trkpt lat="48.553916" lon="10.214891">
        <ele>554.266242</ele>
        <time>2020-09-10T08:36:19.754Z</time>
      </trkpt>
      <trkpt lat="48.553922" lon="10.215040">
        <ele>554.350658</ele>
        <time>2020-09-10T08:36:21.751Z</time>
      </trkpt>
      <trkpt lat="48.553934" lon="10.215194">
        <ele>554.438348</ele>
        <time>2020-09-10T08:36:23.757Z</time>
      </trkpt>
      <trkpt lat="48.553947" lon="10.215349">
        <ele>554.526703</ele>
        <time>2020-09-10T08:36:25.765Z</time>
      </trkpt>
      <trkpt lat="48.553959" lon="10.215506">
        <ele>554.616078</ele>
        <time>2020-09-10T08:36:27.753Z</time>
      </trkpt>
      <trkpt lat="48.553972" lon="10.215657">
        <ele>554.702189</ele>
        <time>2020-09-10T08:36:29.750Z</time>
      </trkpt>
      <trkpt lat="48.553985" lon="10.215799">
        <ele>554.783256</ele>
        <time>2020-09-10T08:36:31.756Z</time>
      </trkpt>
      <trkpt lat="48.553998" lon="10.216000">
        <ele>554.897464</ele>
        <time>2020-09-10T08:36:34.755Z</time>
      </trkpt>
      <trkpt lat="48.554008" lon="10.216136">
        <ele>554.974846</ele>
        <time>2020-09-10T08:36:36.760Z</time>
      </trkpt>
      <trkpt lat="48.554013" lon="10.216344">
        <ele>555.092550</ele>
        <time>2020-09-10T08:36:39.747Z</time>
      </trkpt>
      <trkpt lat="48.554028" lon="10.216486">
        <ele>555.173868</ele>
        <time>2020-09-10T08:36:41.749Z</time>
      </trkpt>
      <trkpt lat="48.554037" lon="10.216627">
        <ele>555.253975</ele>
        <time>2020-09-10T08:36:43.753Z</time>
      </trkpt>
      <trkpt lat="48.554043" lon="10.216771">
        <ele>555.335569</ele>
        <time>2020-09-10T08:36:45.751Z</time>
      </trkpt>
      <trkpt lat="48.554053" lon="10.216920">
        <ele>555.420262</ele>
        <time>2020-09-10T08:36:47.750Z</time>
      </trkpt>
      <trkpt lat="48.554067" lon="10.217059">
        <ele>555.521939</ele>
        <time>2020-09-10T08:36:49.740Z</time>
      </trkpt>
      <trkpt lat="48.554072" lon="10.217206">
        <ele>555.695144</ele>
        <time>2020-09-10T08:36:51.746Z</time>
      </trkpt>
      <trkpt lat="48.554079" lon="10.217355">
        <ele>555.870914</ele>
        <time>2020-09-10T08:36:53.748Z</time>
      </trkpt>
      <trkpt lat="48.554095" lon="10.217501">
        <ele>556.045053</ele>
        <time>2020-09-10T08:36:55.760Z</time>
      </trkpt>
      <trkpt lat="48.554115" lon="10.217648">
        <ele>556.221645</ele>
        <time>2020-09-10T08:36:57.753Z</time>
      </trkpt>
      <trkpt lat="48.554129" lon="10.217784">
        <ele>556.383601</ele>
        <time>2020-09-10T08:36:59.742Z</time>
      </trkpt>
      <trkpt lat="48.554147" lon="10.217935">
        <ele>556.564143</ele>
        <time>2020-09-10T08:37:01.742Z</time>
      </trkpt>
      <trkpt lat="48.554156" lon="10.218077">
        <ele>556.731999</ele>
        <time>2020-09-10T08:37:03.761Z</time>
      </trkpt>
      <trkpt lat="48.554174" lon="10.218278">
        <ele>556.970672</ele>
        <time>2020-09-10T08:37:06.752Z</time>
      </trkpt>
      <trkpt lat="48.554185" lon="10.218419">
        <ele>557.137737</ele>
        <time>2020-09-10T08:37:08.743Z</time>
      </trkpt>
      <trkpt lat="48.554196" lon="10.218567">
        <ele>557.312984</ele>
        <time>2020-09-10T08:37:10.747Z</time>
      </trkpt>
      <trkpt lat="48.554198" lon="10.218725">
        <ele>557.498937</ele>
        <time>2020-09-10T08:37:12.757Z</time>
      </trkpt>
      <trkpt lat="48.554197" lon="10.218882">
        <ele>557.683689</ele>
        <time>2020-09-10T08:37:14.747Z</time>
      </trkpt>
      <trkpt lat="48.554207" lon="10.219049">
        <ele>557.881001</ele>
        <time>2020-09-10T08:37:16.747Z</time>
      </trkpt>
      <trkpt lat="48.554219" lon="10.219202">
        <ele>558.062297</ele>
        <time>2020-09-10T08:37:18.749Z</time>
      </trkpt>
      <trkpt lat="48.554230" lon="10.219351">
        <ele>558.238713</ele>
        <time>2020-09-10T08:37:20.749Z</time>
      </trkpt>
      <trkpt lat="48.554239" lon="10.219505">
        <ele>558.420631</ele>
        <time>2020-09-10T08:37:22.748Z</time>
      </trkpt>
      <trkpt lat="48.554247" lon="10.219655">
        <ele>558.597709</ele>
        <time>2020-09-10T08:37:24.747Z</time>
      </trkpt>
      <trkpt lat="48.554255" lon="10.219801">
        <ele>558.828216</ele>
        <time>2020-09-10T08:37:26.744Z</time>
      </trkpt>
      <trkpt lat="48.554259" lon="10.219951">
        <ele>559.114895</ele>
        <time>2020-09-10T08:37:28.747Z</time>
      </trkpt>
      <trkpt lat="48.554267" lon="10.220094">
        <ele>559.388947</ele>
        <time>2020-09-10T08:37:30.750Z</time>
      </trkpt>
      <trkpt lat="48.554268" lon="10.220238">
        <ele>559.663950</ele>
        <time>2020-09-10T08:37:32.746Z</time>
      </trkpt>
      <trkpt lat="48.554271" lon="10.220386">
        <ele>559.946709</ele>
        <time>2020-09-10T08:37:34.749Z</time>
      </trkpt>
      <trkpt lat="48.554269" lon="10.220524">
        <ele>560.210302</ele>
        <time>2020-09-10T08:37:36.750Z</time>
      </trkpt>
      <trkpt lat="48.554266" lon="10.220724">
        <ele>560.592328</ele>
        <time>2020-09-10T08:37:39.748Z</time>
      </trkpt>
      <trkpt lat="48.554231" lon="10.220855">
        <ele>560.862101</ele>
        <time>2020-09-10T08:37:41.760Z</time>
      </trkpt>
      <trkpt lat="48.554154" lon="10.220942">
        <ele>561.139503</ele>
        <time>2020-09-10T08:37:43.749Z</time>
      </trkpt>
      <trkpt lat="48.554064" lon="10.220980">
        <ele>561.409106</ele>
        <time>2020-09-10T08:37:45.749Z</time>
      </trkpt>
      <trkpt lat="48.553931" lon="10.221012">
        <ele>561.797652</ele>
        <time>2020-09-10T08:37:48.747Z</time>
      </trkpt>
      <trkpt lat="48.553807" lon="10.221069">
        <ele>562.171591</ele>
        <time>2020-09-10T08:37:51.748Z</time>
      </trkpt>
      <trkpt lat="48.553723" lon="10.221185">
        <ele>562.499922</ele>
        <time>2020-09-10T08:37:54.742Z</time>
      </trkpt>
      <trkpt lat="48.553719" lon="10.221362">
        <ele>562.838129</ele>
        <time>2020-09-10T08:37:57.749Z</time>
      </trkpt>
      <trkpt lat="48.553776" lon="10.221543">
        <ele>563.220902</ele>
        <time>2020-09-10T08:38:00.746Z</time>
      </trkpt>
      <trkpt lat="48.553809" lon="10.221678">
        <ele>563.495724</ele>
        <time>2020-09-10T08:38:02.747Z</time>
      </trkpt>
      <trkpt lat="48.553843" lon="10.221810">
        <ele>563.766211</ele>
        <time>2020-09-10T08:38:04.744Z</time>
      </trkpt>
      <trkpt lat="48.553883" lon="10.221995">
        <ele>563.926707</ele>
        <time>2020-09-10T08:38:07.746Z</time>
      </trkpt>
      <trkpt lat="48.553924" lon="10.222166">
        <ele>564.004318</ele>
        <time>2020-09-10T08:38:10.748Z</time>
      </trkpt>
      <trkpt lat="48.553957" lon="10.222328">
        <ele>564.076648</ele>
        <time>2020-09-10T08:38:13.749Z</time>
      </trkpt>
      <trkpt lat="48.553982" lon="10.222477">
        <ele>564.142241</ele>
        <time>2020-09-10T08:38:15.752Z</time>
      </trkpt>
      <trkpt lat="48.554007" lon="10.222632">
        <ele>564.210320</ele>
        <time>2020-09-10T08:38:17.749Z</time>
      </trkpt>
      <trkpt lat="48.554044" lon="10.222785">
        <ele>564.279831</ele>
        <time>2020-09-10T08:38:19.749Z</time>
      </trkpt>
      <trkpt lat="48.554072" lon="10.222940">
        <ele>564.348393</ele>
        <time>2020-09-10T08:38:21.753Z</time>
      </trkpt>
      <trkpt lat="48.554109" lon="10.223093">
        <ele>564.417903</ele>
        <time>2020-09-10T08:38:23.752Z</time>
      </trkpt>
      <trkpt lat="48.554146" lon="10.223252">
        <ele>564.489824</ele>
        <time>2020-09-10T08:38:25.750Z</time>
      </trkpt>
      <trkpt lat="48.554187" lon="10.223401">
        <ele>564.558682</ele>
        <time>2020-09-10T08:38:27.743Z</time>
      </trkpt>
      <trkpt lat="48.554221" lon="10.223548">
        <ele>564.625131</ele>
        <time>2020-09-10T08:38:29.736Z</time>
      </trkpt>
      <trkpt lat="48.554252" lon="10.223699">
        <ele>564.692595</ele>
        <time>2020-09-10T08:38:31.733Z</time>
      </trkpt>
      <trkpt lat="48.554287" lon="10.223844">
        <ele>564.758456</ele>
        <time>2020-09-10T08:38:33.750Z</time>
      </trkpt>
      <trkpt lat="48.554324" lon="10.223989">
        <ele>564.824770</ele>
        <time>2020-09-10T08:38:35.741Z</time>
      </trkpt>
      <trkpt lat="48.554354" lon="10.224136">
        <ele>564.890413</ele>
        <time>2020-09-10T08:38:37.742Z</time>
      </trkpt>
      <trkpt lat="48.554373" lon="10.224277">
        <ele>564.951816</ele>
        <time>2020-09-10T08:38:39.757Z</time>
      </trkpt>
      <trkpt lat="48.554412" lon="10.224465">
        <ele>565.070196</ele>
        <time>2020-09-10T08:38:42.724Z</time>
      </trkpt>
      <trkpt lat="48.554455" lon="10.224642">
        <ele>565.416677</ele>
        <time>2020-09-10T08:38:45.744Z</time>
      </trkpt>
      <trkpt lat="48.554494" lon="10.224817">
        <ele>565.756005</ele>
        <time>2020-09-10T08:38:48.736Z</time>
      </trkpt>
      <trkpt lat="48.554592" lon="10.224895">
        <ele>566.063529</ele>
        <time>2020-09-10T08:38:51.742Z</time>
      </trkpt>
      <trkpt lat="48.554703" lon="10.224862">
        <ele>566.377609</ele>
        <time>2020-09-10T08:38:54.748Z</time>
      </trkpt>
      <trkpt lat="48.554820" lon="10.224852">
        <ele>566.702955</ele>
        <time>2020-09-10T08:38:57.740Z</time>
      </trkpt>
      <trkpt lat="48.554932" lon="10.224849">
        <ele>567.013950</ele>
        <time>2020-09-10T08:39:00.743Z</time>
      </trkpt>
      <trkpt lat="48.555052" lon="10.224848">
        <ele>567.347111</ele>
        <time>2020-09-10T08:39:03.748Z</time>
      </trkpt>
      <trkpt lat="48.555184" lon="10.224843">
        <ele>567.713697</ele>
        <time>2020-09-10T08:39:06.746Z</time>
      </trkpt>
      <trkpt lat="48.555275" lon="10.224832">
        <ele>567.967148</ele>
        <time>2020-09-10T08:39:08.743Z</time>
      </trkpt>
      <trkpt lat="48.555403" lon="10.224831">
        <ele>568.322519</ele>
        <time>2020-09-10T08:39:11.744Z</time>
      </trkpt>
      <trkpt lat="48.555525" lon="10.224823">
        <ele>568.661546</ele>
        <time>2020-09-10T08:39:14.749Z</time>
      </trkpt>
      <trkpt lat="48.555644" lon="10.224809">
        <ele>568.992926</ele>
        <time>2020-09-10T08:39:17.762Z</time>
      </trkpt>
      <trkpt lat="48.555741" lon="10.224821">
        <ele>569.263129</ele>
        <time>2020-09-10T08:39:20.742Z</time>
      </trkpt>
      <trkpt lat="48.555802" lon="10.224924">
        <ele>569.517108</ele>
        <time>2020-09-10T08:39:23.751Z</time>
      </trkpt>
      <trkpt lat="48.555829" lon="10.225111">
        <ele>569.868821</ele>
        <time>2020-09-10T08:39:26.746Z</time>
      </trkpt>
      <trkpt lat="48.555837" lon="10.225249">
        <ele>569.897816</ele>
        <time>2020-09-10T08:39:28.752Z</time>
      </trkpt>
      <trkpt lat="48.555845" lon="10.225394">
        <ele>569.586929</ele>
        <time>2020-09-10T08:39:30.749Z</time>
      </trkpt>
      <trkpt lat="48.555848" lon="10.225550">
        <ele>569.253473</ele>
        <time>2020-09-10T08:39:32.754Z</time>
      </trkpt>
      <trkpt lat="48.555839" lon="10.225706">
        <ele>568.918893</ele>
        <time>2020-09-10T08:39:34.749Z</time>
      </trkpt>
      <trkpt lat="48.555828" lon="10.225854">
        <ele>568.600683</ele>
        <time>2020-09-10T08:39:36.746Z</time>
      </trkpt>
      <trkpt lat="48.555819" lon="10.226014">
        <ele>568.257588</ele>
        <time>2020-09-10T08:39:38.748Z</time>
      </trkpt>
      <trkpt lat="48.555806" lon="10.226161">
        <ele>567.940710</ele>
        <time>2020-09-10T08:39:40.749Z</time>
      </trkpt>
      <trkpt lat="48.555800" lon="10.226307">
        <ele>567.628160</ele>
        <time>2020-09-10T08:39:42.747Z</time>
      </trkpt>
      <trkpt lat="48.555786" lon="10.226464">
        <ele>567.289677</ele>
        <time>2020-09-10T08:39:44.743Z</time>
      </trkpt>
      <trkpt lat="48.555767" lon="10.226635">
        <ele>566.919198</ele>
        <time>2020-09-10T08:39:46.746Z</time>
      </trkpt>
      <trkpt lat="48.555740" lon="10.226828">
        <ele>566.497716</ele>
        <time>2020-09-10T08:39:48.745Z</time>
      </trkpt>
      <trkpt lat="48.555698" lon="10.227017">
        <ele>566.071738</ele>
        <time>2020-09-10T08:39:50.752Z</time>
      </trkpt>
      <trkpt lat="48.555649" lon="10.227206">
        <ele>565.638038</ele>
        <time>2020-09-10T08:39:52.745Z</time>
      </trkpt>
      <trkpt lat="48.555604" lon="10.227394">
        <ele>565.210889</ele>
        <time>2020-09-10T08:39:54.745Z</time>
      </trkpt>
      <trkpt lat="48.555579" lon="10.227574">
        <ele>564.817916</ele>
        <time>2020-09-10T08:39:56.746Z</time>
      </trkpt>
      <trkpt lat="48.555558" lon="10.227717">
        <ele>564.504945</ele>
        <time>2020-09-10T08:39:58.742Z</time>
      </trkpt>
      <trkpt lat="48.555525" lon="10.227872">
        <ele>564.150572</ele>
        <time>2020-09-10T08:40:00.735Z</time>
      </trkpt>
      <trkpt lat="48.555496" lon="10.228040">
        <ele>563.736567</ele>
        <time>2020-09-10T08:40:02.744Z</time>
      </trkpt>
      <trkpt lat="48.555473" lon="10.228235">
        <ele>563.264252</ele>
        <time>2020-09-10T08:40:04.750Z</time>
      </trkpt>
      <trkpt lat="48.555447" lon="10.228438">
        <ele>562.771206</ele>
        <time>2020-09-10T08:40:06.765Z</time>
      </trkpt>
      <trkpt lat="48.555422" lon="10.228662">
        <ele>562.229523</ele>
        <time>2020-09-10T08:40:08.738Z</time>
      </trkpt>
      <trkpt lat="48.555397" lon="10.228889">
        <ele>561.680785</ele>
        <time>2020-09-10T08:40:10.751Z</time>
      </trkpt>
      <trkpt lat="48.555375" lon="10.229119">
        <ele>561.126637</ele>
        <time>2020-09-10T08:40:12.759Z</time>
      </trkpt>
      <trkpt lat="48.555347" lon="10.229356">
        <ele>560.552563</ele>
        <time>2020-09-10T08:40:14.738Z</time>
      </trkpt>
      <trkpt lat="48.555315" lon="10.229599">
        <ele>559.961755</ele>
        <time>2020-09-10T08:40:16.740Z</time>
      </trkpt>
      <trkpt lat="48.555290" lon="10.229848">
        <ele>559.361205</ele>
        <time>2020-09-10T08:40:18.741Z</time>
      </trkpt>
      <trkpt lat="48.555266" lon="10.230087">
        <ele>558.784771</ele>
        <time>2020-09-10T08:40:20.753Z</time>
      </trkpt>
      <trkpt lat="48.555243" lon="10.230313">
        <ele>558.239524</ele>
        <time>2020-09-10T08:40:22.736Z</time>
      </trkpt>
      <trkpt lat="48.555218" lon="10.230523">
        <ele>557.732045</ele>
        <time>2020-09-10T08:40:24.743Z</time>
      </trkpt>
      <trkpt lat="48.555201" lon="10.230695">
        <ele>557.552474</ele>
        <time>2020-09-10T08:40:26.774Z</time>
      </trkpt>
      <trkpt lat="48.555177" lon="10.230829">
        <ele>557.409134</ele>
        <time>2020-09-10T08:40:28.727Z</time>
      </trkpt>
      <trkpt lat="48.555166" lon="10.231015">
        <ele>557.216311</ele>
        <time>2020-09-10T08:40:31.739Z</time>
      </trkpt>
      <trkpt lat="48.555175" lon="10.231168">
        <ele>557.057706</ele>
        <time>2020-09-10T08:40:34.742Z</time>
      </trkpt>
      <trkpt lat="48.555187" lon="10.231324">
        <ele>556.895541</ele>
        <time>2020-09-10T08:40:37.743Z</time>
      </trkpt>
      <trkpt lat="48.555188" lon="10.231478">
        <ele>556.736518</ele>
        <time>2020-09-10T08:40:39.730Z</time>
      </trkpt>
      <trkpt lat="48.555176" lon="10.231638">
        <ele>556.570249</ele>
        <time>2020-09-10T08:40:41.747Z</time>
      </trkpt>
      <trkpt lat="48.555160" lon="10.231797">
        <ele>556.404185</ele>
        <time>2020-09-10T08:40:43.722Z</time>
      </trkpt>
      <trkpt lat="48.555144" lon="10.231987">
        <ele>556.206415</ele>
        <time>2020-09-10T08:40:45.744Z</time>
      </trkpt>
      <trkpt lat="48.555128" lon="10.232206">
        <ele>555.978909</ele>
        <time>2020-09-10T08:40:47.725Z</time>
      </trkpt>
      <trkpt lat="48.555107" lon="10.232409">
        <ele>555.766753</ele>
        <time>2020-09-10T08:40:49.739Z</time>
      </trkpt>
      <trkpt lat="48.555087" lon="10.232637">
        <ele>555.529268</ele>
        <time>2020-09-10T08:40:51.731Z</time>
      </trkpt>
      <trkpt lat="48.555062" lon="10.232831">
        <ele>555.325189</ele>
        <time>2020-09-10T08:40:53.748Z</time>
      </trkpt>
      <trkpt lat="48.555032" lon="10.233016">
        <ele>555.128514</ele>
        <time>2020-09-10T08:40:55.741Z</time>
      </trkpt>
      <trkpt lat="48.555016" lon="10.233232">
        <ele>554.924720</ele>
        <time>2020-09-10T08:40:57.753Z</time>
      </trkpt>
      <trkpt lat="48.555004" lon="10.233468">
        <ele>554.898986</ele>
        <time>2020-09-10T08:40:59.747Z</time>
      </trkpt>
      <trkpt lat="48.554996" lon="10.233679">
        <ele>554.876008</ele>
        <time>2020-09-10T08:41:01.747Z</time>
      </trkpt>
      <trkpt lat="48.554998" lon="10.233873">
        <ele>554.854913</ele>
        <time>2020-09-10T08:41:03.749Z</time>
      </trkpt>
      <trkpt lat="48.555011" lon="10.234062">
        <ele>554.834253</ele>
        <time>2020-09-10T08:41:05.748Z</time>
      </trkpt>
      <trkpt lat="48.555025" lon="10.234277">
        <ele>554.810765</ele>
        <time>2020-09-10T08:41:07.748Z</time>
      </trkpt>
      <trkpt lat="48.555020" lon="10.234487">
        <ele>554.787918</ele>
        <time>2020-09-10T08:41:09.744Z</time>
      </trkpt>
      <trkpt lat="48.555027" lon="10.234716">
        <ele>554.762994</ele>
        <time>2020-09-10T08:41:11.741Z</time>
      </trkpt>
      <trkpt lat="48.555042" lon="10.234937">
        <ele>554.738840</ele>
        <time>2020-09-10T08:41:13.752Z</time>
      </trkpt>
      <trkpt lat="48.555043" lon="10.235161">
        <ele>554.714485</ele>
        <time>2020-09-10T08:41:15.747Z</time>
      </trkpt>
      <trkpt lat="48.555044" lon="10.235369">
        <ele>554.691870</ele>
        <time>2020-09-10T08:41:17.749Z</time>
      </trkpt>
      <trkpt lat="48.555040" lon="10.235570">
        <ele>554.670007</ele>
        <time>2020-09-10T08:41:19.746Z</time>
      </trkpt>
      <trkpt lat="48.555031" lon="10.235758">
        <ele>554.649514</ele>
        <time>2020-09-10T08:41:21.751Z</time>
      </trkpt>
      <trkpt lat="48.555020" lon="10.235934">
        <ele>554.624570</ele>
        <time>2020-09-10T08:41:23.749Z</time>
      </trkpt>
      <trkpt lat="48.555013" lon="10.236112">
        <ele>554.526549</ele>
        <time>2020-09-10T08:41:25.746Z</time>
      </trkpt>
      <trkpt lat="48.555010" lon="10.236292">
        <ele>554.427569</ele>
        <time>2020-09-10T08:41:27.749Z</time>
      </trkpt>
      <trkpt lat="48.555003" lon="10.236465">
        <ele>554.332291</ele>
        <time>2020-09-10T08:41:29.753Z</time>
      </trkpt>
      <trkpt lat="48.554978" lon="10.236629">
        <ele>554.239778</ele>
        <time>2020-09-10T08:41:31.751Z</time>
      </trkpt>
      <trkpt lat="48.554951" lon="10.236781">
        <ele>554.153265</ele>
        <time>2020-09-10T08:41:33.745Z</time>
      </trkpt>
      <trkpt lat="48.554917" lon="10.236933">
        <ele>554.065066</ele>
        <time>2020-09-10T08:41:35.747Z</time>
      </trkpt>
      <trkpt lat="48.554880" lon="10.237074">
        <ele>553.981687</ele>
        <time>2020-09-10T08:41:37.750Z</time>
      </trkpt>
      <trkpt lat="48.554834" lon="10.237213">
        <ele>553.896258</ele>
        <time>2020-09-10T08:41:39.746Z</time>
      </trkpt>
      <trkpt lat="48.554779" lon="10.237379">
        <ele>553.794212</ele>
        <time>2020-09-10T08:41:41.754Z</time>
      </trkpt>
      <trkpt lat="48.554721" lon="10.237549">
        <ele>553.689076</ele>
        <time>2020-09-10T08:41:43.747Z</time>
      </trkpt>
      <trkpt lat="48.554690" lon="10.237721">
        <ele>553.591082</ele>
        <time>2020-09-10T08:41:45.746Z</time>
      </trkpt>
      <trkpt lat="48.554666" lon="10.237898">
        <ele>553.491762</ele>
        <time>2020-09-10T08:41:47.738Z</time>
      </trkpt>
      <trkpt lat="48.554633" lon="10.238057">
        <ele>553.400160</ele>
        <time>2020-09-10T08:41:49.749Z</time>
      </trkpt>
      <trkpt lat="48.554612" lon="10.238214">
        <ele>553.312110</ele>
        <time>2020-09-10T08:41:51.745Z</time>
      </trkpt>
      <trkpt lat="48.554573" lon="10.238362">
        <ele>553.224541</ele>
        <time>2020-09-10T08:41:53.747Z</time>
      </trkpt>
      <trkpt lat="48.554460" lon="10.238439">
        <ele>553.047698</ele>
        <time>2020-09-10T08:41:56.764Z</time>
      </trkpt>
      <trkpt lat="48.554343" lon="10.238325">
        <ele>552.408798</ele>
        <time>2020-09-10T08:41:59.742Z</time>
      </trkpt>
      <trkpt lat="48.554239" lon="10.238238">
        <ele>551.863256</ele>
        <time>2020-09-10T08:42:01.735Z</time>
      </trkpt>
      <trkpt lat="48.554125" lon="10.238218">
        <ele>551.336588</ele>
        <time>2020-09-10T08:42:03.756Z</time>
      </trkpt>
      <trkpt lat="48.554015" lon="10.238184">
        <ele>550.821335</ele>
        <time>2020-09-10T08:42:05.728Z</time>
      </trkpt>
      <trkpt lat="48.553892" lon="10.238148">
        <ele>550.246385</ele>
        <time>2020-09-10T08:42:07.747Z</time>
      </trkpt>
      <trkpt lat="48.553758" lon="10.238113">
        <ele>549.622328</ele>
        <time>2020-09-10T08:42:09.741Z</time>
      </trkpt>
      <trkpt lat="48.553615" lon="10.238071">
        <ele>548.953806</ele>
        <time>2020-09-10T08:42:11.743Z</time>
      </trkpt>
      <trkpt lat="48.553477" lon="10.238029">
        <ele>548.307793</ele>
        <time>2020-09-10T08:42:13.745Z</time>
      </trkpt>
      <trkpt lat="48.553330" lon="10.237975">
        <ele>547.613545</ele>
        <time>2020-09-10T08:42:15.745Z</time>
      </trkpt>
      <trkpt lat="48.553183" lon="10.237927">
        <ele>546.923376</ele>
        <time>2020-09-10T08:42:17.742Z</time>
      </trkpt>
      <trkpt lat="48.553032" lon="10.237886">
        <ele>546.219325</ele>
        <time>2020-09-10T08:42:19.740Z</time>
      </trkpt>
      <trkpt lat="48.552890" lon="10.237868">
        <ele>545.565388</ele>
        <time>2020-09-10T08:42:21.750Z</time>
      </trkpt>
      <trkpt lat="48.552761" lon="10.237876">
        <ele>544.972901</ele>
        <time>2020-09-10T08:42:23.745Z</time>
      </trkpt>
      <trkpt lat="48.552632" lon="10.237901">
        <ele>544.789270</ele>
        <time>2020-09-10T08:42:25.741Z</time>
      </trkpt>
      <trkpt lat="48.552495" lon="10.237930">
        <ele>544.671042</ele>
        <time>2020-09-10T08:42:27.748Z</time>
      </trkpt>
      <trkpt lat="48.552357" lon="10.237957">
        <ele>544.552118</ele>
        <time>2020-09-10T08:42:29.743Z</time>
      </trkpt>
      <trkpt lat="48.552214" lon="10.237990">
        <ele>544.428488</ele>
        <time>2020-09-10T08:42:31.741Z</time>
      </trkpt>
      <trkpt lat="48.552071" lon="10.238015">
        <ele>544.305460</ele>
        <time>2020-09-10T08:42:33.745Z</time>
      </trkpt>
      <trkpt lat="48.551927" lon="10.238044">
        <ele>544.181305</ele>
        <time>2020-09-10T08:42:35.740Z</time>
      </trkpt>
      <trkpt lat="48.551784" lon="10.238073">
        <ele>544.057996</ele>
        <time>2020-09-10T08:42:37.743Z</time>
      </trkpt>
      <trkpt lat="48.551651" lon="10.238097">
        <ele>543.943522</ele>
        <time>2020-09-10T08:42:39.742Z</time>
      </trkpt>
      <trkpt lat="48.551519" lon="10.238122">
        <ele>543.829828</ele>
        <time>2020-09-10T08:42:41.744Z</time>
      </trkpt>
      <trkpt lat="48.551395" lon="10.238149">
        <ele>543.722758</ele>
        <time>2020-09-10T08:42:43.743Z</time>
      </trkpt>
      <trkpt lat="48.551272" lon="10.238171">
        <ele>543.616904</ele>
        <time>2020-09-10T08:42:45.743Z</time>
      </trkpt>
      <trkpt lat="48.551151" lon="10.238192">
        <ele>543.512814</ele>
        <time>2020-09-10T08:42:47.746Z</time>
      </trkpt>
      <trkpt lat="48.551029" lon="10.238221">
        <ele>543.407266</ele>
        <time>2020-09-10T08:42:49.749Z</time>
      </trkpt>
      <trkpt lat="48.550901" lon="10.238252">
        <ele>543.255987</ele>
        <time>2020-09-10T08:42:51.748Z</time>
      </trkpt>
      <trkpt lat="48.550774" lon="10.238281">
        <ele>543.057646</ele>
        <time>2020-09-10T08:42:53.742Z</time>
      </trkpt>
      <trkpt lat="48.550645" lon="10.238303">
        <ele>542.857179</ele>
        <time>2020-09-10T08:42:55.748Z</time>
      </trkpt>
      <trkpt lat="48.550511" lon="10.238333">
        <ele>542.647996</ele>
        <time>2020-09-10T08:42:57.745Z</time>
      </trkpt>
      <trkpt lat="48.550375" lon="10.238358">
        <ele>542.436435</ele>
        <time>2020-09-10T08:42:59.746Z</time>
      </trkpt>
      <trkpt lat="48.550235" lon="10.238388">
        <ele>542.218083</ele>
        <time>2020-09-10T08:43:01.727Z</time>
      </trkpt>
      <trkpt lat="48.550095" lon="10.238421">
        <ele>541.999279</ele>
        <time>2020-09-10T08:43:03.744Z</time>
      </trkpt>
      <trkpt lat="48.549952" lon="10.238443">
        <ele>541.777316</ele>
        <time>2020-09-10T08:43:05.750Z</time>
      </trkpt>
      <trkpt lat="48.549819" lon="10.238474">
        <ele>541.569507</ele>
        <time>2020-09-10T08:43:07.731Z</time>
      </trkpt>
      <trkpt lat="48.549673" lon="10.238506">
        <ele>541.341693</ele>
        <time>2020-09-10T08:43:09.744Z</time>
      </trkpt>
      <trkpt lat="48.549521" lon="10.238531">
        <ele>541.105587</ele>
        <time>2020-09-10T08:43:11.748Z</time>
      </trkpt>
      <trkpt lat="48.549370" lon="10.238562">
        <ele>540.870270</ele>
        <time>2020-09-10T08:43:13.747Z</time>
      </trkpt>
      <trkpt lat="48.549215" lon="10.238590">
        <ele>540.629213</ele>
        <time>2020-09-10T08:43:15.761Z</time>
      </trkpt>
      <trkpt lat="48.549060" lon="10.238631">
        <ele>540.434555</ele>
        <time>2020-09-10T08:43:17.746Z</time>
      </trkpt>
      <trkpt lat="48.548913" lon="10.238663">
        <ele>540.265798</ele>
        <time>2020-09-10T08:43:19.751Z</time>
      </trkpt>
      <trkpt lat="48.548764" lon="10.238695">
        <ele>540.094791</ele>
        <time>2020-09-10T08:43:21.764Z</time>
      </trkpt>
      <trkpt lat="48.548617" lon="10.238721">
        <ele>539.926618</ele>
        <time>2020-09-10T08:43:23.751Z</time>
      </trkpt>
      <trkpt lat="48.548475" lon="10.238749">
        <ele>539.763898</ele>
        <time>2020-09-10T08:43:25.748Z</time>
      </trkpt>
      <trkpt lat="48.548333" lon="10.238777">
        <ele>539.601179</ele>
        <time>2020-09-10T08:43:27.758Z</time>
      </trkpt>
      <trkpt lat="48.548187" lon="10.238806">
        <ele>539.433855</ele>
        <time>2020-09-10T08:43:29.747Z</time>
      </trkpt>
      <trkpt lat="48.548038" lon="10.238840">
        <ele>539.262630</ele>
        <time>2020-09-10T08:43:31.751Z</time>
      </trkpt>
      <trkpt lat="48.547885" lon="10.238875">
        <ele>539.086798</ele>
        <time>2020-09-10T08:43:33.761Z</time>
      </trkpt>
      <trkpt lat="48.547731" lon="10.238903">
        <ele>538.910549</ele>
        <time>2020-09-10T08:43:35.747Z</time>
      </trkpt>
      <trkpt lat="48.547580" lon="10.238924">
        <ele>538.738246</ele>
        <time>2020-09-10T08:43:37.732Z</time>
      </trkpt>
      <trkpt lat="48.547432" lon="10.238953">
        <ele>538.568669</ele>
        <time>2020-09-10T08:43:39.757Z</time>
      </trkpt>
      <trkpt lat="48.547287" lon="10.238971">
        <ele>538.274162</ele>
        <time>2020-09-10T08:43:41.748Z</time>
      </trkpt>
      <trkpt lat="48.547137" lon="10.238995">
        <ele>537.921400</ele>
        <time>2020-09-10T08:43:43.732Z</time>
      </trkpt>
      <trkpt lat="48.546995" lon="10.239038">
        <ele>537.582702</ele>
        <time>2020-09-10T08:43:45.744Z</time>
      </trkpt>
      <trkpt lat="48.546849" lon="10.239069">
        <ele>537.237900</ele>
        <time>2020-09-10T08:43:47.749Z</time>
      </trkpt>
      <trkpt lat="48.546704" lon="10.239093">
        <ele>536.896764</ele>
        <time>2020-09-10T08:43:49.742Z</time>
      </trkpt>
      <trkpt lat="48.546555" lon="10.239119">
        <ele>536.545986</ele>
        <time>2020-09-10T08:43:51.737Z</time>
      </trkpt>
      <trkpt lat="48.546403" lon="10.239156">
        <ele>536.185923</ele>
        <time>2020-09-10T08:43:53.752Z</time>
      </trkpt>
      <trkpt lat="48.546254" lon="10.239189">
        <ele>535.833736</ele>
        <time>2020-09-10T08:43:55.742Z</time>
      </trkpt>
      <trkpt lat="48.546102" lon="10.239222">
        <ele>535.474606</ele>
        <time>2020-09-10T08:43:57.740Z</time>
      </trkpt>
      <trkpt lat="48.545952" lon="10.239256">
        <ele>535.119878</ele>
        <time>2020-09-10T08:43:59.742Z</time>
      </trkpt>
      <trkpt lat="48.545801" lon="10.239278">
        <ele>534.765101</ele>
        <time>2020-09-10T08:44:01.753Z</time>
      </trkpt>
      <trkpt lat="48.545649" lon="10.239307">
        <ele>534.406800</ele>
        <time>2020-09-10T08:44:03.738Z</time>
      </trkpt>
      <trkpt lat="48.545499" lon="10.239339">
        <ele>534.246304</ele>
        <time>2020-09-10T08:44:05.744Z</time>
      </trkpt>
      <trkpt lat="48.545354" lon="10.239370">
        <ele>534.152857</ele>
        <time>2020-09-10T08:44:07.738Z</time>
      </trkpt>
      <trkpt lat="48.545217" lon="10.239399">
        <ele>534.064583</ele>
        <time>2020-09-10T08:44:09.736Z</time>
      </trkpt>
      <trkpt lat="48.545070" lon="10.239429">
        <ele>533.969930</ele>
        <time>2020-09-10T08:44:11.739Z</time>
      </trkpt>
      <trkpt lat="48.544937" lon="10.239462">
        <ele>533.883925</ele>
        <time>2020-09-10T08:44:13.743Z</time>
      </trkpt>
      <trkpt lat="48.544815" lon="10.239494">
        <ele>533.804912</ele>
        <time>2020-09-10T08:44:15.746Z</time>
      </trkpt>
      <trkpt lat="48.544694" lon="10.239517">
        <ele>533.727092</ele>
        <time>2020-09-10T08:44:17.743Z</time>
      </trkpt>
      <trkpt lat="48.544563" lon="10.239539">
        <ele>533.642986</ele>
        <time>2020-09-10T08:44:19.743Z</time>
      </trkpt>
      <trkpt lat="48.544431" lon="10.239575">
        <ele>533.557395</ele>
        <time>2020-09-10T08:44:21.745Z</time>
      </trkpt>
      <trkpt lat="48.544303" lon="10.239603">
        <ele>533.474866</ele>
        <time>2020-09-10T08:44:23.738Z</time>
      </trkpt>
      <trkpt lat="48.544170" lon="10.239624">
        <ele>533.389536</ele>
        <time>2020-09-10T08:44:25.742Z</time>
      </trkpt>
      <trkpt lat="48.544041" lon="10.239646">
        <ele>533.306698</ele>
        <time>2020-09-10T08:44:27.744Z</time>
      </trkpt>
      <trkpt lat="48.543914" lon="10.239677">
        <ele>533.224607</ele>
        <time>2020-09-10T08:44:29.754Z</time>
      </trkpt>
      <trkpt lat="48.543782" lon="10.239698">
        <ele>533.152038</ele>
        <time>2020-09-10T08:44:31.743Z</time>
      </trkpt>
      <trkpt lat="48.543655" lon="10.239727">
        <ele>533.101742</ele>
        <time>2020-09-10T08:44:33.743Z</time>
      </trkpt>
      <trkpt lat="48.543533" lon="10.239757">
        <ele>533.053339</ele>
        <time>2020-09-10T08:44:35.743Z</time>
      </trkpt>
      <trkpt lat="48.543408" lon="10.239775">
        <ele>533.004169</ele>
        <time>2020-09-10T08:44:37.747Z</time>
      </trkpt>
      <trkpt lat="48.543287" lon="10.239800">
        <ele>532.956345</ele>
        <time>2020-09-10T08:44:39.743Z</time>
      </trkpt>
      <trkpt lat="48.543160" lon="10.239820">
        <ele>532.906344</ele>
        <time>2020-09-10T08:44:41.742Z</time>
      </trkpt>
      <trkpt lat="48.543041" lon="10.239844">
        <ele>532.859331</ele>
        <time>2020-09-10T08:44:43.745Z</time>
      </trkpt>
      <trkpt lat="48.542927" lon="10.239869">
        <ele>532.814222</ele>
        <time>2020-09-10T08:44:45.747Z</time>
      </trkpt>
      <trkpt lat="48.542815" lon="10.239880">
        <ele>532.770272</ele>
        <time>2020-09-10T08:44:47.746Z</time>
      </trkpt>
      <trkpt lat="48.542710" lon="10.239841">
        <ele>532.727930</ele>
        <time>2020-09-10T08:44:49.743Z</time>
      </trkpt>
      <trkpt lat="48.542606" lon="10.239831">
        <ele>532.687122</ele>
        <time>2020-09-10T08:44:51.747Z</time>
      </trkpt>
      <trkpt lat="48.542492" lon="10.239914">
        <ele>532.637566</ele>
        <time>2020-09-10T08:44:53.752Z</time>
      </trkpt>
      <trkpt lat="48.542365" lon="10.239947">
        <ele>532.587103</ele>
        <time>2020-09-10T08:44:55.747Z</time>
      </trkpt>
      <trkpt lat="48.542236" lon="10.239974">
        <ele>532.536106</ele>
        <time>2020-09-10T08:44:57.748Z</time>
      </trkpt>
      <trkpt lat="48.542088" lon="10.240015">
        <ele>532.477184</ele>
        <time>2020-09-10T08:44:59.761Z</time>
      </trkpt>
      <trkpt lat="48.541936" lon="10.240044">
        <ele>531.902966</ele>
        <time>2020-09-10T08:45:01.749Z</time>
      </trkpt>
      <trkpt lat="48.541781" lon="10.240065">
        <ele>531.212572</ele>
        <time>2020-09-10T08:45:03.746Z</time>
      </trkpt>
      <trkpt lat="48.541637" lon="10.240101">
        <ele>530.565047</ele>
        <time>2020-09-10T08:45:05.754Z</time>
      </trkpt>
      <trkpt lat="48.541501" lon="10.240153">
        <ele>529.942673</ele>
        <time>2020-09-10T08:45:07.743Z</time>
      </trkpt>
      <trkpt lat="48.541350" lon="10.240188">
        <ele>529.264943</ele>
        <time>2020-09-10T08:45:09.742Z</time>
      </trkpt>
      <trkpt lat="48.541195" lon="10.240220">
        <ele>528.570916</ele>
        <time>2020-09-10T08:45:11.751Z</time>
      </trkpt>
      <trkpt lat="48.541042" lon="10.240234">
        <ele>527.890911</ele>
        <time>2020-09-10T08:45:13.746Z</time>
      </trkpt>
      <trkpt lat="48.540888" lon="10.240243">
        <ele>527.207203</ele>
        <time>2020-09-10T08:45:15.747Z</time>
      </trkpt>
      <trkpt lat="48.540729" lon="10.240263">
        <ele>526.499383</ele>
        <time>2020-09-10T08:45:17.748Z</time>
      </trkpt>
      <trkpt lat="48.540598" lon="10.240255">
        <ele>525.917747</ele>
        <time>2020-09-10T08:45:19.742Z</time>
      </trkpt>
      <trkpt lat="48.540480" lon="10.240267">
        <ele>525.393073</ele>
        <time>2020-09-10T08:45:21.753Z</time>
      </trkpt>
      <trkpt lat="48.540390" lon="10.240305">
        <ele>524.978495</ele>
        <time>2020-09-10T08:45:23.752Z</time>
      </trkpt>
      <trkpt lat="48.540283" lon="10.240356">
        <ele>524.476372</ele>
        <time>2020-09-10T08:45:25.744Z</time>
      </trkpt>
      <trkpt lat="48.540161" lon="10.240395">
        <ele>523.570967</ele>
        <time>2020-09-10T08:45:27.743Z</time>
      </trkpt>
      <trkpt lat="48.540026" lon="10.240437">
        <ele>522.570221</ele>
        <time>2020-09-10T08:45:29.738Z</time>
      </trkpt>
      <trkpt lat="48.539881" lon="10.240470">
        <ele>521.505562</ele>
        <time>2020-09-10T08:45:31.748Z</time>
      </trkpt>
      <trkpt lat="48.539721" lon="10.240499">
        <ele>520.335546</ele>
        <time>2020-09-10T08:45:33.746Z</time>
      </trkpt>
      <trkpt lat="48.539545" lon="10.240535">
        <ele>519.046031</ele>
        <time>2020-09-10T08:45:35.738Z</time>
      </trkpt>
      <trkpt lat="48.539369" lon="10.240563">
        <ele>517.761112</ele>
        <time>2020-09-10T08:45:37.738Z</time>
      </trkpt>
      <trkpt lat="48.539203" lon="10.240591">
        <ele>516.548375</ele>
        <time>2020-09-10T08:45:39.738Z</time>
      </trkpt>
      <trkpt lat="48.539054" lon="10.240622">
        <ele>515.456343</ele>
        <time>2020-09-10T08:45:41.740Z</time>
      </trkpt>
      <trkpt lat="48.538921" lon="10.240654">
        <ele>514.478519</ele>
        <time>2020-09-10T08:45:43.742Z</time>
      </trkpt>
      <trkpt lat="48.538783" lon="10.240685">
        <ele>513.465547</ele>
        <time>2020-09-10T08:45:45.738Z</time>
      </trkpt>
      <trkpt lat="48.538619" lon="10.240719">
        <ele>512.263658</ele>
        <time>2020-09-10T08:45:47.751Z</time>
      </trkpt>
      <trkpt lat="48.538446" lon="10.240751">
        <ele>511.151012</ele>
        <time>2020-09-10T08:45:49.741Z</time>
      </trkpt>
      <trkpt lat="48.538351" lon="10.240771">
        <ele>510.701899</ele>
        <time>2020-09-10T08:45:50.746Z</time>
      </trkpt>
      <trkpt lat="48.538258" lon="10.240787">
        <ele>510.263635</ele>
        <time>2020-09-10T08:45:51.737Z</time>
      </trkpt>
      <trkpt lat="48.538080" lon="10.240821">
        <ele>509.423558</ele>
        <time>2020-09-10T08:45:53.737Z</time>
      </trkpt>
      <trkpt lat="48.537908" lon="10.240853">
        <ele>508.612127</ele>
        <time>2020-09-10T08:45:55.735Z</time>
      </trkpt>
      <trkpt lat="48.537747" lon="10.240876">
        <ele>507.854922</ele>
        <time>2020-09-10T08:45:57.734Z</time>
      </trkpt>
      <trkpt lat="48.537603" lon="10.240888">
        <ele>507.179655</ele>
        <time>2020-09-10T08:45:59.742Z</time>
      </trkpt>
      <trkpt lat="48.537498" lon="10.240860">
        <ele>506.680415</ele>
        <time>2020-09-10T08:46:04.747Z</time>
      </trkpt>
      <trkpt lat="48.537423" lon="10.240941">
        <ele>506.248698</ele>
        <time>2020-09-10T08:46:09.744Z</time>
      </trkpt>
      <trkpt lat="48.537505" lon="10.240862">
        <ele>505.793288</ele>
        <time>2020-09-10T08:46:18.739Z</time>
      </trkpt>
      <trkpt lat="48.537510" lon="10.240718">
        <ele>505.346239</ele>
        <time>2020-09-10T08:46:21.746Z</time>
      </trkpt>
      <trkpt lat="48.537479" lon="10.240541">
        <ele>504.778623</ele>
        <time>2020-09-10T08:46:24.742Z</time>
      </trkpt>
      <trkpt lat="48.537459" lon="10.240399">
        <ele>504.328538</ele>
        <time>2020-09-10T08:46:26.746Z</time>
      </trkpt>
      <trkpt lat="48.537433" lon="10.240248">
        <ele>503.844831</ele>
        <time>2020-09-10T08:46:28.744Z</time>
      </trkpt>
      <trkpt lat="48.537412" lon="10.240096">
        <ele>503.363443</ele>
        <time>2020-09-10T08:46:30.740Z</time>
      </trkpt>
      <trkpt lat="48.537380" lon="10.239952">
        <ele>503.003957</ele>
        <time>2020-09-10T08:46:32.744Z</time>
      </trkpt>
      <trkpt lat="48.537346" lon="10.239802">
        <ele>502.991538</ele>
        <time>2020-09-10T08:46:34.743Z</time>
      </trkpt>
      <trkpt lat="48.537317" lon="10.239645">
        <ele>502.978771</ele>
        <time>2020-09-10T08:46:36.746Z</time>
      </trkpt>
      <trkpt lat="48.537284" lon="10.239477">
        <ele>502.965045</ele>
        <time>2020-09-10T08:46:38.760Z</time>
      </trkpt>
      <trkpt lat="48.537254" lon="10.239301">
        <ele>502.950809</ele>
        <time>2020-09-10T08:46:40.739Z</time>
      </trkpt>
      <trkpt lat="48.537210" lon="10.239131">
        <ele>502.936512</ele>
        <time>2020-09-10T08:46:42.749Z</time>
      </trkpt>
      <trkpt lat="48.537161" lon="10.238940">
        <ele>502.920467</ele>
        <time>2020-09-10T08:46:44.777Z</time>
      </trkpt>
      <trkpt lat="48.537121" lon="10.238752">
        <ele>502.905000</ele>
        <time>2020-09-10T08:46:46.747Z</time>
      </trkpt>
      <trkpt lat="48.537092" lon="10.238587">
        <ele>502.891628</ele>
        <time>2020-09-10T08:46:48.753Z</time>
      </trkpt>
      <trkpt lat="48.537053" lon="10.238425">
        <ele>502.878126</ele>
        <time>2020-09-10T08:46:50.757Z</time>
      </trkpt>
      <trkpt lat="48.537016" lon="10.238270">
        <ele>502.865220</ele>
        <time>2020-09-10T08:46:52.748Z</time>
      </trkpt>
      <trkpt lat="48.536980" lon="10.238127">
        <ele>502.853236</ele>
        <time>2020-09-10T08:46:54.751Z</time>
      </trkpt>
      <trkpt lat="48.536949" lon="10.237998">
        <ele>502.842487</ele>
        <time>2020-09-10T08:46:56.752Z</time>
      </trkpt>
      <trkpt lat="48.536927" lon="10.237863">
        <ele>502.831597</ele>
        <time>2020-09-10T08:46:58.747Z</time>
      </trkpt>
      <trkpt lat="48.536898" lon="10.237713">
        <ele>502.819357</ele>
        <time>2020-09-10T08:47:00.750Z</time>
      </trkpt>
      <trkpt lat="48.536864" lon="10.237568">
        <ele>502.807308</ele>
        <time>2020-09-10T08:47:02.755Z</time>
      </trkpt>
      <trkpt lat="48.536831" lon="10.237442">
        <ele>502.796694</ele>
        <time>2020-09-10T08:47:04.751Z</time>
      </trkpt>
      <trkpt lat="48.536779" lon="10.237263">
        <ele>502.916248</ele>
        <time>2020-09-10T08:47:07.745Z</time>
      </trkpt>
      <trkpt lat="48.536743" lon="10.237114">
        <ele>503.035914</ele>
        <time>2020-09-10T08:47:12.738Z</time>
      </trkpt>
      <trkpt lat="48.536635" lon="10.237059">
        <ele>503.165780</ele>
        <time>2020-09-10T08:48:04.753Z</time>
      </trkpt>
      <trkpt lat="48.536540" lon="10.237113">
        <ele>503.281439</ele>
        <time>2020-09-10T08:48:09.742Z</time>
      </trkpt>
      <trkpt lat="48.536508" lon="10.237155">
        <ele>503.329746</ele>
        <time>2020-09-10T09:08:44.360Z</time>
      </trkpt>
      <trkpt lat="48.536435" lon="10.237077">
        <ele>503.431637</ele>
        <time>2020-09-10T09:14:02.735Z</time>
      </trkpt>
      <trkpt lat="48.536337" lon="10.237143">
        <ele>503.553901</ele>
        <time>2020-09-10T09:14:07.737Z</time>
      </trkpt>
      <trkpt lat="48.536254" lon="10.237216">
        <ele>503.663343</ele>
        <time>2020-09-10T09:14:11.721Z</time>
      </trkpt>
      <trkpt lat="48.536157" lon="10.237285">
        <ele>503.785514</ele>
        <time>2020-09-10T09:14:14.724Z</time>
      </trkpt>
      <trkpt lat="48.536066" lon="10.237363">
        <ele>503.904738</ele>
        <time>2020-09-10T09:14:17.723Z</time>
      </trkpt>
      <trkpt lat="48.535972" lon="10.237442">
        <ele>504.027312</ele>
        <time>2020-09-10T09:14:20.722Z</time>
      </trkpt>
      <trkpt lat="48.535874" lon="10.237531">
        <ele>504.157611</ele>
        <time>2020-09-10T09:14:23.724Z</time>
      </trkpt>
      <trkpt lat="48.535764" lon="10.237621">
        <ele>504.300160</ele>
        <time>2020-09-10T09:14:26.723Z</time>
      </trkpt>
      <trkpt lat="48.535668" lon="10.237726">
        <ele>504.435220</ele>
        <time>2020-09-10T09:14:29.704Z</time>
      </trkpt>
      <trkpt lat="48.535573" lon="10.237821">
        <ele>504.565045</ele>
        <time>2020-09-10T09:14:32.724Z</time>
      </trkpt>
      <trkpt lat="48.535468" lon="10.237907">
        <ele>504.701148</ele>
        <time>2020-09-10T09:14:35.716Z</time>
      </trkpt>
      <trkpt lat="48.535361" lon="10.237991">
        <ele>504.838555</ele>
        <time>2020-09-10T09:14:38.701Z</time>
      </trkpt>
      <trkpt lat="48.535253" lon="10.238079">
        <ele>504.653777</ele>
        <time>2020-09-10T09:14:41.729Z</time>
      </trkpt>
      <trkpt lat="48.535163" lon="10.238136">
        <ele>504.497366</ele>
        <time>2020-09-10T09:14:44.726Z</time>
      </trkpt>
      <trkpt lat="48.535059" lon="10.238202">
        <ele>504.316569</ele>
        <time>2020-09-10T09:14:48.735Z</time>
      </trkpt>
      <trkpt lat="48.534971" lon="10.238271">
        <ele>504.157657</ele>
        <time>2020-09-10T09:15:01.718Z</time>
      </trkpt>
      <trkpt lat="48.534865" lon="10.238345">
        <ele>503.970500</ele>
        <time>2020-09-10T09:15:06.718Z</time>
      </trkpt>
      <trkpt lat="48.534743" lon="10.238431">
        <ele>503.754722</ele>
        <time>2020-09-10T09:15:09.733Z</time>
      </trkpt>
      <trkpt lat="48.534658" lon="10.238487">
        <ele>503.606095</ele>
        <time>2020-09-10T09:15:11.730Z</time>
      </trkpt>
      <trkpt lat="48.534572" lon="10.238547">
        <ele>503.454268</ele>
        <time>2020-09-10T09:15:13.728Z</time>
      </trkpt>
      <trkpt lat="48.534477" lon="10.238592">
        <ele>503.294699</ele>
        <time>2020-09-10T09:15:15.737Z</time>
      </trkpt>
      <trkpt lat="48.534376" lon="10.238635">
        <ele>503.126519</ele>
        <time>2020-09-10T09:15:17.728Z</time>
      </trkpt>
      <trkpt lat="48.534280" lon="10.238685">
        <ele>502.963769</ele>
        <time>2020-09-10T09:15:19.730Z</time>
      </trkpt>
      <trkpt lat="48.534159" lon="10.238773">
        <ele>502.748529</ele>
        <time>2020-09-10T09:15:22.730Z</time>
      </trkpt>
      <trkpt lat="48.534143" lon="10.238928">
        <ele>502.582048</ele>
        <time>2020-09-10T09:15:25.720Z</time>
      </trkpt>
      <trkpt lat="48.534215" lon="10.239016">
        <ele>502.433599</ele>
        <time>2020-09-10T09:15:28.727Z</time>
      </trkpt>
      <trkpt lat="48.534325" lon="10.239041">
        <ele>502.255319</ele>
        <time>2020-09-10T09:16:11.711Z</time>
      </trkpt>
      <trkpt lat="48.534408" lon="10.239110">
        <ele>502.103474</ele>
        <time>2020-09-10T09:16:14.716Z</time>
      </trkpt>
      <trkpt lat="48.534475" lon="10.239201">
        <ele>501.959556</ele>
        <time>2020-09-10T09:16:16.731Z</time>
      </trkpt>
      <trkpt lat="48.534551" lon="10.239296">
        <ele>501.845540</ele>
        <time>2020-09-10T09:16:18.714Z</time>
      </trkpt>
      <trkpt lat="48.534638" lon="10.239407">
        <ele>501.713916</ele>
        <time>2020-09-10T09:16:20.713Z</time>
      </trkpt>
      <trkpt lat="48.534714" lon="10.239538">
        <ele>501.580633</ele>
        <time>2020-09-10T09:16:22.716Z</time>
      </trkpt>
      <trkpt lat="48.534795" lon="10.239668">
        <ele>501.444032</ele>
        <time>2020-09-10T09:16:24.717Z</time>
      </trkpt>
      <trkpt lat="48.534878" lon="10.239788">
        <ele>501.311239</ele>
        <time>2020-09-10T09:16:26.716Z</time>
      </trkpt>
      <trkpt lat="48.534943" lon="10.239914">
        <ele>501.189009</ele>
        <time>2020-09-10T09:16:28.713Z</time>
      </trkpt>
      <trkpt lat="48.535012" lon="10.240030">
        <ele>501.069682</ele>
        <time>2020-09-10T09:16:30.715Z</time>
      </trkpt>
      <trkpt lat="48.535071" lon="10.240165">
        <ele>500.945900</ele>
        <time>2020-09-10T09:16:32.711Z</time>
      </trkpt>
      <trkpt lat="48.535131" lon="10.240300">
        <ele>500.821478</ele>
        <time>2020-09-10T09:16:34.717Z</time>
      </trkpt>
      <trkpt lat="48.535200" lon="10.240420">
        <ele>500.699857</ele>
        <time>2020-09-10T09:16:36.711Z</time>
      </trkpt>
      <trkpt lat="48.535268" lon="10.240533">
        <ele>500.583009</ele>
        <time>2020-09-10T09:16:38.716Z</time>
      </trkpt>
      <trkpt lat="48.535333" lon="10.240658">
        <ele>500.461382</ele>
        <time>2020-09-10T09:16:40.721Z</time>
      </trkpt>
      <trkpt lat="48.535404" lon="10.240764">
        <ele>500.346001</ele>
        <time>2020-09-10T09:16:42.707Z</time>
      </trkpt>
      <trkpt lat="48.535469" lon="10.240889">
        <ele>500.224375</ele>
        <time>2020-09-10T09:16:44.703Z</time>
      </trkpt>
      <trkpt lat="48.535527" lon="10.241002">
        <ele>500.114965</ele>
        <time>2020-09-10T09:16:46.706Z</time>
      </trkpt>
      <trkpt lat="48.535586" lon="10.241116">
        <ele>500.004241</ele>
        <time>2020-09-10T09:16:48.706Z</time>
      </trkpt>
      <trkpt lat="48.535660" lon="10.241284">
        <ele>499.851413</ele>
        <time>2020-09-10T09:16:51.708Z</time>
      </trkpt>
      <trkpt lat="48.535746" lon="10.241425">
        <ele>499.711876</ele>
        <time>2020-09-10T09:16:54.711Z</time>
      </trkpt>
      <trkpt lat="48.535805" lon="10.241587">
        <ele>499.577299</ele>
        <time>2020-09-10T09:16:57.708Z</time>
      </trkpt>
      <trkpt lat="48.535862" lon="10.241764">
        <ele>499.434035</ele>
        <time>2020-09-10T09:17:00.710Z</time>
      </trkpt>
      <trkpt lat="48.535924" lon="10.241931">
        <ele>499.294676</ele>
        <time>2020-09-10T09:17:03.709Z</time>
      </trkpt>
      <trkpt lat="48.535978" lon="10.242060">
        <ele>499.183589</ele>
        <time>2020-09-10T09:17:06.712Z</time>
      </trkpt>
      <trkpt lat="48.536046" lon="10.242185">
        <ele>499.065836</ele>
        <time>2020-09-10T09:17:09.711Z</time>
      </trkpt>
      <trkpt lat="48.536110" lon="10.242320">
        <ele>498.944983</ele>
        <time>2020-09-10T09:17:12.704Z</time>
      </trkpt>
      <trkpt lat="48.536180" lon="10.242491">
        <ele>498.798651</ele>
        <time>2020-09-10T09:17:15.709Z</time>
      </trkpt>
      <trkpt lat="48.536231" lon="10.242603">
        <ele>498.699712</ele>
        <time>2020-09-10T09:17:17.715Z</time>
      </trkpt>
      <trkpt lat="48.536272" lon="10.242739">
        <ele>498.590944</ele>
        <time>2020-09-10T09:17:19.713Z</time>
      </trkpt>
      <trkpt lat="48.536277" lon="10.242894">
        <ele>498.477989</ele>
        <time>2020-09-10T09:17:21.712Z</time>
      </trkpt>
      <trkpt lat="48.536258" lon="10.243046">
        <ele>498.365398</ele>
        <time>2020-09-10T09:17:23.712Z</time>
      </trkpt>
      <trkpt lat="48.536237" lon="10.243199">
        <ele>498.251665</ele>
        <time>2020-09-10T09:17:25.715Z</time>
      </trkpt>
      <trkpt lat="48.536217" lon="10.243343">
        <ele>498.144570</ele>
        <time>2020-09-10T09:17:27.712Z</time>
      </trkpt>
      <trkpt lat="48.536200" lon="10.243490">
        <ele>498.035952</ele>
        <time>2020-09-10T09:17:29.710Z</time>
      </trkpt>
      <trkpt lat="48.536179" lon="10.243636">
        <ele>497.927204</ele>
        <time>2020-09-10T09:17:31.710Z</time>
      </trkpt>
      <trkpt lat="48.536158" lon="10.243779">
        <ele>497.924863</ele>
        <time>2020-09-10T09:17:33.710Z</time>
      </trkpt>
      <trkpt lat="48.536140" lon="10.243933">
        <ele>497.951666</ele>
        <time>2020-09-10T09:17:35.708Z</time>
      </trkpt>
      <trkpt lat="48.536119" lon="10.244089">
        <ele>497.978951</ele>
        <time>2020-09-10T09:17:37.713Z</time>
      </trkpt>
      <trkpt lat="48.536099" lon="10.244235">
        <ele>498.004504</ele>
        <time>2020-09-10T09:17:39.712Z</time>
      </trkpt>
      <trkpt lat="48.536076" lon="10.244384">
        <ele>498.030727</ele>
        <time>2020-09-10T09:17:41.713Z</time>
      </trkpt>
      <trkpt lat="48.536055" lon="10.244545">
        <ele>498.058852</ele>
        <time>2020-09-10T09:17:43.715Z</time>
      </trkpt>
      <trkpt lat="48.536036" lon="10.244710">
        <ele>498.087557</ele>
        <time>2020-09-10T09:17:45.714Z</time>
      </trkpt>
      <trkpt lat="48.536019" lon="10.244862">
        <ele>498.113978</ele>
        <time>2020-09-10T09:17:47.714Z</time>
      </trkpt>
      <trkpt lat="48.536000" lon="10.245006">
        <ele>498.139144</ele>
        <time>2020-09-10T09:17:49.719Z</time>
      </trkpt>
      <trkpt lat="48.535984" lon="10.245150">
        <ele>498.164171</ele>
        <time>2020-09-10T09:17:51.713Z</time>
      </trkpt>
      <trkpt lat="48.535962" lon="10.245301">
        <ele>498.190671</ele>
        <time>2020-09-10T09:17:53.714Z</time>
      </trkpt>
      <trkpt lat="48.535947" lon="10.245456">
        <ele>498.217519</ele>
        <time>2020-09-10T09:17:55.715Z</time>
      </trkpt>
      <trkpt lat="48.535940" lon="10.245611">
        <ele>498.244147</ele>
        <time>2020-09-10T09:17:57.700Z</time>
      </trkpt>
      <trkpt lat="48.535943" lon="10.245763">
        <ele>498.270211</ele>
        <time>2020-09-10T09:17:59.704Z</time>
      </trkpt>
      <trkpt lat="48.535957" lon="10.245923">
        <ele>498.297873</ele>
        <time>2020-09-10T09:18:01.706Z</time>
      </trkpt>
      <trkpt lat="48.535971" lon="10.246080">
        <ele>498.325025</ele>
        <time>2020-09-10T09:18:03.704Z</time>
      </trkpt>
      <trkpt lat="48.535983" lon="10.246237">
        <ele>498.352113</ele>
        <time>2020-09-10T09:18:05.714Z</time>
      </trkpt>
      <trkpt lat="48.535993" lon="10.246397">
        <ele>498.361917</ele>
        <time>2020-09-10T09:18:07.702Z</time>
      </trkpt>
      <trkpt lat="48.536010" lon="10.246554">
        <ele>498.335989</ele>
        <time>2020-09-10T09:18:09.713Z</time>
      </trkpt>
      <trkpt lat="48.536029" lon="10.246699">
        <ele>498.311899</ele>
        <time>2020-09-10T09:18:11.718Z</time>
      </trkpt>
      <trkpt lat="48.536044" lon="10.246840">
        <ele>498.288624</ele>
        <time>2020-09-10T09:18:15.707Z</time>
      </trkpt>
      <trkpt lat="48.536050" lon="10.246989">
        <ele>498.264295</ele>
        <time>2020-09-10T09:18:21.723Z</time>
      </trkpt>
      <trkpt lat="48.536028" lon="10.246843">
        <ele>498.239892</ele>
        <time>2020-09-10T09:18:36.711Z</time>
      </trkpt>
      <trkpt lat="48.536012" lon="10.246671">
        <ele>498.211584</ele>
        <time>2020-09-10T09:18:41.718Z</time>
      </trkpt>
      <trkpt lat="48.535999" lon="10.246534">
        <ele>498.189028</ele>
        <time>2020-09-10T09:18:44.713Z</time>
      </trkpt>
      <trkpt lat="48.535945" lon="10.246420">
        <ele>498.166183</ele>
        <time>2020-09-10T09:18:47.719Z</time>
      </trkpt>
      <trkpt lat="48.535855" lon="10.246461">
        <ele>498.143045</ele>
        <time>2020-09-10T09:18:49.713Z</time>
      </trkpt>
      <trkpt lat="48.535733" lon="10.246527">
        <ele>498.111148</ele>
        <time>2020-09-10T09:18:52.712Z</time>
      </trkpt>
      <trkpt lat="48.535603" lon="10.246596">
        <ele>498.077231</ele>
        <time>2020-09-10T09:18:55.744Z</time>
      </trkpt>
      <trkpt lat="48.535516" lon="10.246649">
        <ele>498.054141</ele>
        <time>2020-09-10T09:18:57.701Z</time>
      </trkpt>
      <trkpt lat="48.535422" lon="10.246703">
        <ele>498.029387</ele>
        <time>2020-09-10T09:18:59.704Z</time>
      </trkpt>
      <trkpt lat="48.535330" lon="10.246745">
        <ele>498.005730</ele>
        <time>2020-09-10T09:19:01.713Z</time>
      </trkpt>
      <trkpt lat="48.535243" lon="10.246791">
        <ele>497.983041</ele>
        <time>2020-09-10T09:19:03.716Z</time>
      </trkpt>
      <trkpt lat="48.535152" lon="10.246839">
        <ele>497.959316</ele>
        <time>2020-09-10T09:19:05.710Z</time>
      </trkpt>
      <trkpt lat="48.535057" lon="10.246889">
        <ele>497.934554</ele>
        <time>2020-09-10T09:19:07.718Z</time>
      </trkpt>
      <trkpt lat="48.534960" lon="10.246943">
        <ele>497.879350</ele>
        <time>2020-09-10T09:19:09.712Z</time>
      </trkpt>
      <trkpt lat="48.534861" lon="10.246995">
        <ele>497.812589</ele>
        <time>2020-09-10T09:19:11.747Z</time>
      </trkpt>
      <trkpt lat="48.534759" lon="10.247049">
        <ele>497.743746</ele>
        <time>2020-09-10T09:19:13.710Z</time>
      </trkpt>
      <trkpt lat="48.534655" lon="10.247100">
        <ele>497.674101</ele>
        <time>2020-09-10T09:19:15.709Z</time>
      </trkpt>
      <trkpt lat="48.534553" lon="10.247152">
        <ele>497.605532</ele>
        <time>2020-09-10T09:19:17.704Z</time>
      </trkpt>
      <trkpt lat="48.534449" lon="10.247206">
        <ele>497.535486</ele>
        <time>2020-09-10T09:19:19.711Z</time>
      </trkpt>
      <trkpt lat="48.534353" lon="10.247255">
        <ele>497.470943</ele>
        <time>2020-09-10T09:19:21.715Z</time>
      </trkpt>
      <trkpt lat="48.534249" lon="10.247306">
        <ele>497.401298</ele>
        <time>2020-09-10T09:19:23.720Z</time>
      </trkpt>
      <trkpt lat="48.534150" lon="10.247366">
        <ele>497.333354</ele>
        <time>2020-09-10T09:19:25.710Z</time>
      </trkpt>
      <trkpt lat="48.534047" lon="10.247421">
        <ele>497.263770</ele>
        <time>2020-09-10T09:19:27.711Z</time>
      </trkpt>
      <trkpt lat="48.533947" lon="10.247470">
        <ele>497.196809</ele>
        <time>2020-09-10T09:19:29.707Z</time>
      </trkpt>
      <trkpt lat="48.533844" lon="10.247526">
        <ele>497.127083</ele>
        <time>2020-09-10T09:19:31.707Z</time>
      </trkpt>
      <trkpt lat="48.533742" lon="10.247586">
        <ele>497.057362</ele>
        <time>2020-09-10T09:19:33.712Z</time>
      </trkpt>
      <trkpt lat="48.533635" lon="10.247637">
        <ele>496.985897</ele>
        <time>2020-09-10T09:19:35.712Z</time>
      </trkpt>
      <trkpt lat="48.533528" lon="10.247692">
        <ele>496.913906</ele>
        <time>2020-09-10T09:19:37.711Z</time>
      </trkpt>
      <trkpt lat="48.533418" lon="10.247749">
        <ele>496.839834</ele>
        <time>2020-09-10T09:19:39.717Z</time>
      </trkpt>
      <trkpt lat="48.533307" lon="10.247805">
        <ele>496.795578</ele>
        <time>2020-09-10T09:19:41.713Z</time>
      </trkpt>
      <trkpt lat="48.533200" lon="10.247861">
        <ele>496.852305</ele>
        <time>2020-09-10T09:19:43.700Z</time>
      </trkpt>
      <trkpt lat="48.533100" lon="10.247924">
        <ele>496.906583</ele>
        <time>2020-09-10T09:19:45.702Z</time>
      </trkpt>
      <trkpt lat="48.532995" lon="10.247972">
        <ele>496.961538</ele>
        <time>2020-09-10T09:19:47.703Z</time>
      </trkpt>
      <trkpt lat="48.532892" lon="10.248026">
        <ele>497.016155</ele>
        <time>2020-09-10T09:19:49.716Z</time>
      </trkpt>
      <trkpt lat="48.532791" lon="10.248075">
        <ele>497.069296</ele>
        <time>2020-09-10T09:19:51.703Z</time>
      </trkpt>
      <trkpt lat="48.532689" lon="10.248129">
        <ele>497.123440</ele>
        <time>2020-09-10T09:19:53.713Z</time>
      </trkpt>
      <trkpt lat="48.532588" lon="10.248192">
        <ele>497.178180</ele>
        <time>2020-09-10T09:19:55.749Z</time>
      </trkpt>
      <trkpt lat="48.532486" lon="10.248252">
        <ele>497.233014</ele>
        <time>2020-09-10T09:19:57.730Z</time>
      </trkpt>
      <trkpt lat="48.532383" lon="10.248304">
        <ele>497.287417</ele>
        <time>2020-09-10T09:19:59.727Z</time>
      </trkpt>
      <trkpt lat="48.532278" lon="10.248358">
        <ele>497.342982</ele>
        <time>2020-09-10T09:20:01.709Z</time>
      </trkpt>
      <trkpt lat="48.532171" lon="10.248405">
        <ele>497.398803</ele>
        <time>2020-09-10T09:20:03.698Z</time>
      </trkpt>
      <trkpt lat="48.532065" lon="10.248465">
        <ele>497.455509</ele>
        <time>2020-09-10T09:20:05.722Z</time>
      </trkpt>
      <trkpt lat="48.531956" lon="10.248518">
        <ele>497.512872</ele>
        <time>2020-09-10T09:20:07.710Z</time>
      </trkpt>
      <trkpt lat="48.531846" lon="10.248579">
        <ele>497.571572</ele>
        <time>2020-09-10T09:20:09.711Z</time>
      </trkpt>
      <trkpt lat="48.531737" lon="10.248642">
        <ele>497.630037</ele>
        <time>2020-09-10T09:20:11.706Z</time>
      </trkpt>
      <trkpt lat="48.531631" lon="10.248697">
        <ele>497.684557</ele>
        <time>2020-09-10T09:20:13.714Z</time>
      </trkpt>
      <trkpt lat="48.531527" lon="10.248754">
        <ele>497.709317</ele>
        <time>2020-09-10T09:20:15.715Z</time>
      </trkpt>
      <trkpt lat="48.531417" lon="10.248807">
        <ele>497.735157</ele>
        <time>2020-09-10T09:20:17.714Z</time>
      </trkpt>
      <trkpt lat="48.531312" lon="10.248865">
        <ele>497.760177</ele>
        <time>2020-09-10T09:20:19.710Z</time>
      </trkpt>
      <trkpt lat="48.531210" lon="10.248920">
        <ele>497.784416</ele>
        <time>2020-09-10T09:20:21.709Z</time>
      </trkpt>
      <trkpt lat="48.531109" lon="10.248974">
        <ele>497.808393</ele>
        <time>2020-09-10T09:20:23.721Z</time>
      </trkpt>
      <trkpt lat="48.531015" lon="10.249045">
        <ele>497.831915</ele>
        <time>2020-09-10T09:20:25.720Z</time>
      </trkpt>
      <trkpt lat="48.530974" lon="10.249171">
        <ele>497.852720</ele>
        <time>2020-09-10T09:20:27.711Z</time>
      </trkpt>
      <trkpt lat="48.530970" lon="10.249322">
        <ele>497.875116</ele>
        <time>2020-09-10T09:20:29.714Z</time>
      </trkpt>
      <trkpt lat="48.530956" lon="10.249477">
        <ele>497.898299</ele>
        <time>2020-09-10T09:20:31.701Z</time>
      </trkpt>
      <trkpt lat="48.530943" lon="10.249635">
        <ele>497.921895</ele>
        <time>2020-09-10T09:20:33.704Z</time>
      </trkpt>
      <trkpt lat="48.530924" lon="10.249794">
        <ele>497.945839</ele>
        <time>2020-09-10T09:20:35.713Z</time>
      </trkpt>
      <trkpt lat="48.530914" lon="10.249952">
        <ele>497.969361</ele>
        <time>2020-09-10T09:20:37.714Z</time>
      </trkpt>
      <trkpt lat="48.530905" lon="10.250112">
        <ele>497.993158</ele>
        <time>2020-09-10T09:20:39.717Z</time>
      </trkpt>
      <trkpt lat="48.530889" lon="10.250281">
        <ele>498.018458</ele>
        <time>2020-09-10T09:20:41.716Z</time>
      </trkpt>
      <trkpt lat="48.530867" lon="10.250444">
        <ele>498.043111</ele>
        <time>2020-09-10T09:20:43.706Z</time>
      </trkpt>
      <trkpt lat="48.530817" lon="10.250589">
        <ele>498.067338</ele>
        <time>2020-09-10T09:20:45.694Z</time>
      </trkpt>
      <trkpt lat="48.530726" lon="10.250697">
        <ele>498.092459</ele>
        <time>2020-09-10T09:20:47.696Z</time>
      </trkpt>
      <trkpt lat="48.530624" lon="10.250765">
        <ele>498.114804</ele>
        <time>2020-09-10T09:20:49.703Z</time>
      </trkpt>
      <trkpt lat="48.530519" lon="10.250823">
        <ele>498.137210</ele>
        <time>2020-09-10T09:20:51.711Z</time>
      </trkpt>
      <trkpt lat="48.530421" lon="10.250888">
        <ele>498.158661</ele>
        <time>2020-09-10T09:20:53.709Z</time>
      </trkpt>
      <trkpt lat="48.530322" lon="10.250947">
        <ele>498.179990</ele>
        <time>2020-09-10T09:20:55.710Z</time>
      </trkpt>
      <trkpt lat="48.530219" lon="10.251010">
        <ele>498.202260</ele>
        <time>2020-09-10T09:20:57.711Z</time>
      </trkpt>
      <trkpt lat="48.530120" lon="10.251071">
        <ele>498.223689</ele>
        <time>2020-09-10T09:20:59.722Z</time>
      </trkpt>
      <trkpt lat="48.530016" lon="10.251133">
        <ele>498.246096</ele>
        <time>2020-09-10T09:21:01.718Z</time>
      </trkpt>
      <trkpt lat="48.529915" lon="10.251198">
        <ele>498.268098</ele>
        <time>2020-09-10T09:21:03.711Z</time>
      </trkpt>
      <trkpt lat="48.529820" lon="10.251261">
        <ele>498.288892</ele>
        <time>2020-09-10T09:21:05.709Z</time>
      </trkpt>
      <trkpt lat="48.529717" lon="10.251329">
        <ele>498.311420</ele>
        <time>2020-09-10T09:21:07.717Z</time>
      </trkpt>
      <trkpt lat="48.529616" lon="10.251386">
        <ele>498.333028</ele>
        <time>2020-09-10T09:21:09.714Z</time>
      </trkpt>
      <trkpt lat="48.529519" lon="10.251446">
        <ele>498.354035</ele>
        <time>2020-09-10T09:21:11.718Z</time>
      </trkpt>
      <trkpt lat="48.529416" lon="10.251511">
        <ele>498.376407</ele>
        <time>2020-09-10T09:21:13.720Z</time>
      </trkpt>
      <trkpt lat="48.529314" lon="10.251575">
        <ele>498.398543</ele>
        <time>2020-09-10T09:21:15.713Z</time>
      </trkpt>
      <trkpt lat="48.529209" lon="10.251643">
        <ele>498.421439</ele>
        <time>2020-09-10T09:21:17.726Z</time>
      </trkpt>
      <trkpt lat="48.529107" lon="10.251696">
        <ele>498.443056</ele>
        <time>2020-09-10T09:21:19.723Z</time>
      </trkpt>
      <trkpt lat="48.529005" lon="10.251758">
        <ele>498.458522</ele>
        <time>2020-09-10T09:21:21.717Z</time>
      </trkpt>
      <trkpt lat="48.528906" lon="10.251816">
        <ele>498.472395</ele>
        <time>2020-09-10T09:21:23.706Z</time>
      </trkpt>
      <trkpt lat="48.528806" lon="10.251876">
        <ele>498.486452</ele>
        <time>2020-09-10T09:21:25.728Z</time>
      </trkpt>
      <trkpt lat="48.528705" lon="10.251937">
        <ele>498.500663</ele>
        <time>2020-09-10T09:21:27.709Z</time>
      </trkpt>
      <trkpt lat="48.528609" lon="10.252002">
        <ele>498.514407</ele>
        <time>2020-09-10T09:21:29.703Z</time>
      </trkpt>
      <trkpt lat="48.528507" lon="10.252067">
        <ele>498.528870</ele>
        <time>2020-09-10T09:21:31.699Z</time>
      </trkpt>
      <trkpt lat="48.528406" lon="10.252129">
        <ele>498.543113</ele>
        <time>2020-09-10T09:21:33.704Z</time>
      </trkpt>
      <trkpt lat="48.528301" lon="10.252192">
        <ele>498.557874</ele>
        <time>2020-09-10T09:21:35.725Z</time>
      </trkpt>
      <trkpt lat="48.528198" lon="10.252252">
        <ele>498.572296</ele>
        <time>2020-09-10T09:21:37.713Z</time>
      </trkpt>
      <trkpt lat="48.528093" lon="10.252314">
        <ele>498.587025</ele>
        <time>2020-09-10T09:21:39.721Z</time>
      </trkpt>
      <trkpt lat="48.527988" lon="10.252375">
        <ele>498.601722</ele>
        <time>2020-09-10T09:21:41.708Z</time>
      </trkpt>
      <trkpt lat="48.527877" lon="10.252447">
        <ele>498.617504</ele>
        <time>2020-09-10T09:21:43.708Z</time>
      </trkpt>
      <trkpt lat="48.527768" lon="10.252516">
        <ele>498.632944</ele>
        <time>2020-09-10T09:21:45.711Z</time>
      </trkpt>
      <trkpt lat="48.527657" lon="10.252585">
        <ele>498.648626</ele>
        <time>2020-09-10T09:21:47.703Z</time>
      </trkpt>
      <trkpt lat="48.527547" lon="10.252654">
        <ele>498.664187</ele>
        <time>2020-09-10T09:21:49.715Z</time>
      </trkpt>
      <trkpt lat="48.527436" lon="10.252725">
        <ele>498.679935</ele>
        <time>2020-09-10T09:21:51.709Z</time>
      </trkpt>
      <trkpt lat="48.527324" lon="10.252790">
        <ele>498.635826</ele>
        <time>2020-09-10T09:21:53.729Z</time>
      </trkpt>
      <trkpt lat="48.527209" lon="10.252854">
        <ele>498.585440</ele>
        <time>2020-09-10T09:21:55.716Z</time>
      </trkpt>
      <trkpt lat="48.527101" lon="10.252916">
        <ele>498.537940</ele>
        <time>2020-09-10T09:21:57.715Z</time>
      </trkpt>
      <trkpt lat="48.526992" lon="10.252984">
        <ele>498.489455</ele>
        <time>2020-09-10T09:21:59.705Z</time>
      </trkpt>
      <trkpt lat="48.526885" lon="10.253055">
        <ele>498.441407</ele>
        <time>2020-09-10T09:22:01.706Z</time>
      </trkpt>
      <trkpt lat="48.526777" lon="10.253120">
        <ele>498.393611</ele>
        <time>2020-09-10T09:22:03.706Z</time>
      </trkpt>
      <trkpt lat="48.526668" lon="10.253183">
        <ele>498.345630</ele>
        <time>2020-09-10T09:22:05.715Z</time>
      </trkpt>
      <trkpt lat="48.526564" lon="10.253247">
        <ele>498.299460</ele>
        <time>2020-09-10T09:22:07.708Z</time>
      </trkpt>
      <trkpt lat="48.526458" lon="10.253316">
        <ele>498.252006</ele>
        <time>2020-09-10T09:22:09.716Z</time>
      </trkpt>
      <trkpt lat="48.526353" lon="10.253379">
        <ele>498.205557</ele>
        <time>2020-09-10T09:22:11.709Z</time>
      </trkpt>
      <trkpt lat="48.526249" lon="10.253444">
        <ele>498.159284</ele>
        <time>2020-09-10T09:22:13.708Z</time>
      </trkpt>
      <trkpt lat="48.526148" lon="10.253506">
        <ele>498.114462</ele>
        <time>2020-09-10T09:22:15.714Z</time>
      </trkpt>
      <trkpt lat="48.526041" lon="10.253569">
        <ele>498.067248</ele>
        <time>2020-09-10T09:22:17.708Z</time>
      </trkpt>
      <trkpt lat="48.525932" lon="10.253645">
        <ele>498.017891</ele>
        <time>2020-09-10T09:22:19.712Z</time>
      </trkpt>
      <trkpt lat="48.525820" lon="10.253716">
        <ele>497.967954</ele>
        <time>2020-09-10T09:22:21.714Z</time>
      </trkpt>
      <trkpt lat="48.525705" lon="10.253785">
        <ele>497.911198</ele>
        <time>2020-09-10T09:22:23.714Z</time>
      </trkpt>
      <trkpt lat="48.525586" lon="10.253862">
        <ele>497.845289</ele>
        <time>2020-09-10T09:22:25.714Z</time>
      </trkpt>
      <trkpt lat="48.525458" lon="10.253935">
        <ele>497.775633</ele>
        <time>2020-09-10T09:22:27.711Z</time>
      </trkpt>
      <trkpt lat="48.525339" lon="10.254010">
        <ele>497.709986</ele>
        <time>2020-09-10T09:22:29.714Z</time>
      </trkpt>
      <trkpt lat="48.525220" lon="10.254084">
        <ele>497.644468</ele>
        <time>2020-09-10T09:22:31.713Z</time>
      </trkpt>
      <trkpt lat="48.525097" lon="10.254157">
        <ele>497.577187</ele>
        <time>2020-09-10T09:22:33.711Z</time>
      </trkpt>
      <trkpt lat="48.524980" lon="10.254227">
        <ele>497.513118</ele>
        <time>2020-09-10T09:22:35.704Z</time>
      </trkpt>
      <trkpt lat="48.524868" lon="10.254296">
        <ele>497.451537</ele>
        <time>2020-09-10T09:22:37.709Z</time>
      </trkpt>
      <trkpt lat="48.524767" lon="10.254357">
        <ele>497.396159</ele>
        <time>2020-09-10T09:22:39.703Z</time>
      </trkpt>
      <trkpt lat="48.524669" lon="10.254408">
        <ele>497.343388</ele>
        <time>2020-09-10T09:22:41.714Z</time>
      </trkpt>
      <trkpt lat="48.524575" lon="10.254466">
        <ele>497.291693</ele>
        <time>2020-09-10T09:22:43.708Z</time>
      </trkpt>
      <trkpt lat="48.524485" lon="10.254537">
        <ele>497.239998</ele>
        <time>2020-09-10T09:22:45.719Z</time>
      </trkpt>
      <trkpt lat="48.524386" lon="10.254603">
        <ele>497.184904</ele>
        <time>2020-09-10T09:22:47.704Z</time>
      </trkpt>
      <trkpt lat="48.524282" lon="10.254660">
        <ele>497.128579</ele>
        <time>2020-09-10T09:22:49.702Z</time>
      </trkpt>
      <trkpt lat="48.524179" lon="10.254723">
        <ele>497.072004</ele>
        <time>2020-09-10T09:22:51.707Z</time>
      </trkpt>
      <trkpt lat="48.524073" lon="10.254790">
        <ele>497.030386</ele>
        <time>2020-09-10T09:22:53.717Z</time>
      </trkpt>
      <trkpt lat="48.523965" lon="10.254859">
        <ele>497.050705</ele>
        <time>2020-09-10T09:22:55.712Z</time>
      </trkpt>
      <trkpt lat="48.523853" lon="10.254925">
        <ele>497.071537</ele>
        <time>2020-09-10T09:22:57.705Z</time>
      </trkpt>
      <trkpt lat="48.523737" lon="10.254994">
        <ele>497.093140</ele>
        <time>2020-09-10T09:22:59.706Z</time>
      </trkpt>
      <trkpt lat="48.523614" lon="10.255072">
        <ele>497.116256</ele>
        <time>2020-09-10T09:23:01.710Z</time>
      </trkpt>
      <trkpt lat="48.523489" lon="10.255152">
        <ele>497.139781</ele>
        <time>2020-09-10T09:23:03.706Z</time>
      </trkpt>
      <trkpt lat="48.523365" lon="10.255228">
        <ele>497.162969</ele>
        <time>2020-09-10T09:23:05.721Z</time>
      </trkpt>
      <trkpt lat="48.523245" lon="10.255293">
        <ele>497.185059</ele>
        <time>2020-09-10T09:23:07.713Z</time>
      </trkpt>
      <trkpt lat="48.523124" lon="10.255357">
        <ele>497.207275</ele>
        <time>2020-09-10T09:23:09.711Z</time>
      </trkpt>
      <trkpt lat="48.523004" lon="10.255429">
        <ele>497.229649</ele>
        <time>2020-09-10T09:23:11.719Z</time>
      </trkpt>
      <trkpt lat="48.522882" lon="10.255498">
        <ele>497.252222</ele>
        <time>2020-09-10T09:23:13.720Z</time>
      </trkpt>
      <trkpt lat="48.522758" lon="10.255564">
        <ele>497.275004</ele>
        <time>2020-09-10T09:23:15.703Z</time>
      </trkpt>
      <trkpt lat="48.522636" lon="10.255640">
        <ele>497.297872</ele>
        <time>2020-09-10T09:23:17.702Z</time>
      </trkpt>
      <trkpt lat="48.522519" lon="10.255710">
        <ele>497.319678</ele>
        <time>2020-09-10T09:23:19.706Z</time>
      </trkpt>
      <trkpt lat="48.522411" lon="10.255780">
        <ele>497.341465</ele>
        <time>2020-09-10T09:23:21.706Z</time>
      </trkpt>
      <trkpt lat="48.522299" lon="10.255847">
        <ele>497.375295</ele>
        <time>2020-09-10T09:23:23.703Z</time>
      </trkpt>
      <trkpt lat="48.522177" lon="10.255916">
        <ele>497.411880</ele>
        <time>2020-09-10T09:23:25.709Z</time>
      </trkpt>
      <trkpt lat="48.522050" lon="10.255989">
        <ele>497.450041</ele>
        <time>2020-09-10T09:23:27.714Z</time>
      </trkpt>
      <trkpt lat="48.521924" lon="10.256063">
        <ele>497.488007</ele>
        <time>2020-09-10T09:23:29.707Z</time>
      </trkpt>
      <trkpt lat="48.521797" lon="10.256139">
        <ele>497.526370</ele>
        <time>2020-09-10T09:23:31.731Z</time>
      </trkpt>
      <trkpt lat="48.521671" lon="10.256209">
        <ele>497.564073</ele>
        <time>2020-09-10T09:23:33.707Z</time>
      </trkpt>
      <trkpt lat="48.521544" lon="10.256283">
        <ele>497.602301</ele>
        <time>2020-09-10T09:23:35.711Z</time>
      </trkpt>
      <trkpt lat="48.521423" lon="10.256353">
        <ele>497.638689</ele>
        <time>2020-09-10T09:23:37.712Z</time>
      </trkpt>
      <trkpt lat="48.521303" lon="10.256421">
        <ele>497.674683</ele>
        <time>2020-09-10T09:23:39.707Z</time>
      </trkpt>
      <trkpt lat="48.521183" lon="10.256496">
        <ele>497.711154</ele>
        <time>2020-09-10T09:23:41.723Z</time>
      </trkpt>
      <trkpt lat="48.521063" lon="10.256565">
        <ele>497.747214</ele>
        <time>2020-09-10T09:23:43.716Z</time>
      </trkpt>
      <trkpt lat="48.520935" lon="10.256636">
        <ele>497.785508</ele>
        <time>2020-09-10T09:23:45.709Z</time>
      </trkpt>
      <trkpt lat="48.520814" lon="10.256703">
        <ele>497.821700</ele>
        <time>2020-09-10T09:23:47.712Z</time>
      </trkpt>
      <trkpt lat="48.520689" lon="10.256778">
        <ele>497.834409</ele>
        <time>2020-09-10T09:23:49.714Z</time>
      </trkpt>
      <trkpt lat="48.520563" lon="10.256851">
        <ele>497.815175</ele>
        <time>2020-09-10T09:23:51.710Z</time>
      </trkpt>
      <trkpt lat="48.520433" lon="10.256926">
        <ele>497.795341</ele>
        <time>2020-09-10T09:23:53.715Z</time>
      </trkpt>
      <trkpt lat="48.520298" lon="10.257003">
        <ele>497.774773</ele>
        <time>2020-09-10T09:23:55.724Z</time>
      </trkpt>
      <trkpt lat="48.520169" lon="10.257075">
        <ele>497.755172</ele>
        <time>2020-09-10T09:23:57.711Z</time>
      </trkpt>
      <trkpt lat="48.520048" lon="10.257141">
        <ele>497.736837</ele>
        <time>2020-09-10T09:23:59.705Z</time>
      </trkpt>
      <trkpt lat="48.519928" lon="10.257219">
        <ele>497.718217</ele>
        <time>2020-09-10T09:24:01.708Z</time>
      </trkpt>
      <trkpt lat="48.519803" lon="10.257286">
        <ele>497.699313</ele>
        <time>2020-09-10T09:24:03.706Z</time>
      </trkpt>
      <trkpt lat="48.519678" lon="10.257365">
        <ele>497.680000</ele>
        <time>2020-09-10T09:24:05.703Z</time>
      </trkpt>
      <trkpt lat="48.519556" lon="10.257445">
        <ele>497.661044</ele>
        <time>2020-09-10T09:24:07.721Z</time>
      </trkpt>
      <trkpt lat="48.519438" lon="10.257487">
        <ele>497.643766</ele>
        <time>2020-09-10T09:24:09.708Z</time>
      </trkpt>
      <trkpt lat="48.519353" lon="10.257391">
        <ele>497.628637</ele>
        <time>2020-09-10T09:24:11.695Z</time>
      </trkpt>
      <trkpt lat="48.519326" lon="10.257235">
        <ele>497.613416</ele>
        <time>2020-09-10T09:24:13.713Z</time>
      </trkpt>
      <trkpt lat="48.519221" lon="10.257113">
        <ele>497.594533</ele>
        <time>2020-09-10T09:24:16.710Z</time>
      </trkpt>
      <trkpt lat="48.519101" lon="10.257169">
        <ele>497.594206</ele>
        <time>2020-09-10T09:24:18.746Z</time>
      </trkpt>
      <trkpt lat="48.518980" lon="10.257243">
        <ele>497.608713</ele>
        <time>2020-09-10T09:24:20.713Z</time>
      </trkpt>
      <trkpt lat="48.518870" lon="10.257308">
        <ele>497.621839</ele>
        <time>2020-09-10T09:24:22.710Z</time>
      </trkpt>
      <trkpt lat="48.518760" lon="10.257374">
        <ele>497.634992</ele>
        <time>2020-09-10T09:24:24.707Z</time>
      </trkpt>
      <trkpt lat="48.518643" lon="10.257448">
        <ele>497.649088</ele>
        <time>2020-09-10T09:24:26.710Z</time>
      </trkpt>
      <trkpt lat="48.518528" lon="10.257528">
        <ele>497.663157</ele>
        <time>2020-09-10T09:24:28.704Z</time>
      </trkpt>
      <trkpt lat="48.518417" lon="10.257600">
        <ele>497.676582</ele>
        <time>2020-09-10T09:24:30.709Z</time>
      </trkpt>
      <trkpt lat="48.518304" lon="10.257681">
        <ele>497.690482</ele>
        <time>2020-09-10T09:24:32.706Z</time>
      </trkpt>
      <trkpt lat="48.518188" lon="10.257758">
        <ele>497.704562</ele>
        <time>2020-09-10T09:24:34.712Z</time>
      </trkpt>
      <trkpt lat="48.518075" lon="10.257827">
        <ele>497.718107</ele>
        <time>2020-09-10T09:24:36.717Z</time>
      </trkpt>
      <trkpt lat="48.517963" lon="10.257900">
        <ele>497.731663</ele>
        <time>2020-09-10T09:24:38.714Z</time>
      </trkpt>
      <trkpt lat="48.517851" lon="10.257982">
        <ele>497.745494</ele>
        <time>2020-09-10T09:24:40.711Z</time>
      </trkpt>
      <trkpt lat="48.517743" lon="10.258047">
        <ele>497.758413</ele>
        <time>2020-09-10T09:24:42.710Z</time>
      </trkpt>
      <trkpt lat="48.517641" lon="10.258111">
        <ele>497.770687</ele>
        <time>2020-09-10T09:24:44.719Z</time>
      </trkpt>
      <trkpt lat="48.517526" lon="10.258187">
        <ele>497.784637</ele>
        <time>2020-09-10T09:24:46.701Z</time>
      </trkpt>
      <trkpt lat="48.517407" lon="10.258258">
        <ele>497.758485</ele>
        <time>2020-09-10T09:24:48.702Z</time>
      </trkpt>
      <trkpt lat="48.517297" lon="10.258332">
        <ele>497.728598</ele>
        <time>2020-09-10T09:24:50.703Z</time>
      </trkpt>
      <trkpt lat="48.517190" lon="10.258402">
        <ele>497.699658</ele>
        <time>2020-09-10T09:24:52.707Z</time>
      </trkpt>
      <trkpt lat="48.517088" lon="10.258469">
        <ele>497.672052</ele>
        <time>2020-09-10T09:24:54.704Z</time>
      </trkpt>
      <trkpt lat="48.516988" lon="10.258534">
        <ele>497.645032</ele>
        <time>2020-09-10T09:24:56.702Z</time>
      </trkpt>
      <trkpt lat="48.516882" lon="10.258605">
        <ele>497.616253</ele>
        <time>2020-09-10T09:24:58.704Z</time>
      </trkpt>
      <trkpt lat="48.516781" lon="10.258671">
        <ele>497.588940</ele>
        <time>2020-09-10T09:25:00.702Z</time>
      </trkpt>
      <trkpt lat="48.516671" lon="10.258734">
        <ele>497.559743</ele>
        <time>2020-09-10T09:25:02.705Z</time>
      </trkpt>
      <trkpt lat="48.516551" lon="10.258780">
        <ele>497.529017</ele>
        <time>2020-09-10T09:25:04.722Z</time>
      </trkpt>
      <trkpt lat="48.516434" lon="10.258830">
        <ele>497.498840</ele>
        <time>2020-09-10T09:25:06.708Z</time>
      </trkpt>
      <trkpt lat="48.516306" lon="10.258866">
        <ele>497.466527</ele>
        <time>2020-09-10T09:25:08.704Z</time>
      </trkpt>
      <trkpt lat="48.516185" lon="10.258902">
        <ele>497.435921</ele>
        <time>2020-09-10T09:25:10.708Z</time>
      </trkpt>
      <trkpt lat="48.516064" lon="10.258942">
        <ele>497.405180</ele>
        <time>2020-09-10T09:25:12.709Z</time>
      </trkpt>
      <trkpt lat="48.515940" lon="10.258978">
        <ele>497.373843</ele>
        <time>2020-09-10T09:25:14.717Z</time>
      </trkpt>
      <trkpt lat="48.515817" lon="10.259014">
        <ele>497.342750</ele>
        <time>2020-09-10T09:25:16.711Z</time>
      </trkpt>
      <trkpt lat="48.515700" lon="10.259047">
        <ele>497.387644</ele>
        <time>2020-09-10T09:25:18.709Z</time>
      </trkpt>
      <trkpt lat="48.515582" lon="10.259088">
        <ele>497.441098</ele>
        <time>2020-09-10T09:25:20.709Z</time>
      </trkpt>
      <trkpt lat="48.515467" lon="10.259126">
        <ele>497.493068</ele>
        <time>2020-09-10T09:25:22.712Z</time>
      </trkpt>
      <trkpt lat="48.515348" lon="10.259168">
        <ele>497.547018</ele>
        <time>2020-09-10T09:25:24.710Z</time>
      </trkpt>
      <trkpt lat="48.515226" lon="10.259201">
        <ele>497.601734</ele>
        <time>2020-09-10T09:25:26.708Z</time>
      </trkpt>
      <trkpt lat="48.515101" lon="10.259235">
        <ele>497.657805</ele>
        <time>2020-09-10T09:25:28.701Z</time>
      </trkpt>
      <trkpt lat="48.514977" lon="10.259279">
        <ele>497.714038</ele>
        <time>2020-09-10T09:25:30.712Z</time>
      </trkpt>
      <trkpt lat="48.514858" lon="10.259317">
        <ele>497.767734</ele>
        <time>2020-09-10T09:25:32.718Z</time>
      </trkpt>
      <trkpt lat="48.514745" lon="10.259347">
        <ele>497.818384</ele>
        <time>2020-09-10T09:25:34.701Z</time>
      </trkpt>
      <trkpt lat="48.514634" lon="10.259387">
        <ele>497.868763</ele>
        <time>2020-09-10T09:25:36.710Z</time>
      </trkpt>
      <trkpt lat="48.514521" lon="10.259421">
        <ele>497.919629</ele>
        <time>2020-09-10T09:25:38.714Z</time>
      </trkpt>
      <trkpt lat="48.514407" lon="10.259458">
        <ele>497.971106</ele>
        <time>2020-09-10T09:25:40.716Z</time>
      </trkpt>
      <trkpt lat="48.514298" lon="10.259488">
        <ele>498.020018</ele>
        <time>2020-09-10T09:25:42.705Z</time>
      </trkpt>
      <trkpt lat="48.514192" lon="10.259518">
        <ele>498.067628</ele>
        <time>2020-09-10T09:25:44.708Z</time>
      </trkpt>
      <trkpt lat="48.514083" lon="10.259547">
        <ele>498.116489</ele>
        <time>2020-09-10T09:25:46.714Z</time>
      </trkpt>
      <trkpt lat="48.513971" lon="10.259547">
        <ele>498.057853</ele>
        <time>2020-09-10T09:25:48.714Z</time>
      </trkpt>
      <trkpt lat="48.513863" lon="10.259515">
        <ele>497.941863</ele>
        <time>2020-09-10T09:25:50.710Z</time>
      </trkpt>
      <trkpt lat="48.513753" lon="10.259455">
        <ele>497.818601</ele>
        <time>2020-09-10T09:25:52.708Z</time>
      </trkpt>
      <trkpt lat="48.513638" lon="10.259388">
        <ele>497.688693</ele>
        <time>2020-09-10T09:25:54.710Z</time>
      </trkpt>
      <trkpt lat="48.513528" lon="10.259326">
        <ele>497.564950</ele>
        <time>2020-09-10T09:25:56.712Z</time>
      </trkpt>
      <trkpt lat="48.513422" lon="10.259262">
        <ele>497.444636</ele>
        <time>2020-09-10T09:25:58.707Z</time>
      </trkpt>
      <trkpt lat="48.513322" lon="10.259208">
        <ele>497.332708</ele>
        <time>2020-09-10T09:26:00.710Z</time>
      </trkpt>
      <trkpt lat="48.513227" lon="10.259157">
        <ele>497.226448</ele>
        <time>2020-09-10T09:26:02.717Z</time>
      </trkpt>
      <trkpt lat="48.513140" lon="10.259108">
        <ele>497.128587</ele>
        <time>2020-09-10T09:26:04.710Z</time>
      </trkpt>
      <trkpt lat="48.513047" lon="10.259053">
        <ele>497.023324</ele>
        <time>2020-09-10T09:26:06.710Z</time>
      </trkpt>
      <trkpt lat="48.512949" lon="10.259001">
        <ele>496.913850</ele>
        <time>2020-09-10T09:26:08.709Z</time>
      </trkpt>
      <trkpt lat="48.512846" lon="10.258943">
        <ele>496.797994</ele>
        <time>2020-09-10T09:26:10.704Z</time>
      </trkpt>
      <trkpt lat="48.512742" lon="10.258896">
        <ele>496.683585</ele>
        <time>2020-09-10T09:26:12.713Z</time>
      </trkpt>
      <trkpt lat="48.512627" lon="10.258868">
        <ele>496.560823</ele>
        <time>2020-09-10T09:26:14.732Z</time>
      </trkpt>
      <trkpt lat="48.512508" lon="10.258866">
        <ele>496.435405</ele>
        <time>2020-09-10T09:26:16.704Z</time>
      </trkpt>
      <trkpt lat="48.512391" lon="10.258867">
        <ele>496.312100</ele>
        <time>2020-09-10T09:26:18.712Z</time>
      </trkpt>
      <trkpt lat="48.512275" lon="10.258867">
        <ele>496.264347</ele>
        <time>2020-09-10T09:26:20.700Z</time>
      </trkpt>
      <trkpt lat="48.512160" lon="10.258868">
        <ele>496.328800</ele>
        <time>2020-09-10T09:26:22.699Z</time>
      </trkpt>
      <trkpt lat="48.512050" lon="10.258872">
        <ele>496.390467</ele>
        <time>2020-09-10T09:26:24.716Z</time>
      </trkpt>
      <trkpt lat="48.511940" lon="10.258888">
        <ele>496.452403</ele>
        <time>2020-09-10T09:26:26.704Z</time>
      </trkpt>
      <trkpt lat="48.511837" lon="10.258893">
        <ele>496.510159</ele>
        <time>2020-09-10T09:26:28.702Z</time>
      </trkpt>
      <trkpt lat="48.511737" lon="10.258905">
        <ele>496.566381</ele>
        <time>2020-09-10T09:26:30.711Z</time>
      </trkpt>
      <trkpt lat="48.511636" lon="10.258911">
        <ele>496.623031</ele>
        <time>2020-09-10T09:26:32.703Z</time>
      </trkpt>
      <trkpt lat="48.511538" lon="10.258929">
        <ele>496.678360</ele>
        <time>2020-09-10T09:26:34.705Z</time>
      </trkpt>
      <trkpt lat="48.511435" lon="10.258945">
        <ele>496.736392</ele>
        <time>2020-09-10T09:26:36.703Z</time>
      </trkpt>
      <trkpt lat="48.511345" lon="10.258966">
        <ele>496.787431</ele>
        <time>2020-09-10T09:26:38.706Z</time>
      </trkpt>
      <trkpt lat="48.511234" lon="10.259008">
        <ele>496.851566</ele>
        <time>2020-09-10T09:26:42.708Z</time>
      </trkpt>
      <trkpt lat="48.511130" lon="10.259015">
        <ele>496.909911</ele>
        <time>2020-09-10T09:26:45.734Z</time>
      </trkpt>
      <trkpt lat="48.511044" lon="10.258866">
        <ele>496.983284</ele>
        <time>2020-09-10T09:26:48.696Z</time>
      </trkpt>
      <trkpt lat="48.510973" lon="10.258698">
        <ele>497.057272</ele>
        <time>2020-09-10T09:26:51.706Z</time>
      </trkpt>
      <trkpt lat="48.510907" lon="10.258603">
        <ele>497.108384</ele>
        <time>2020-09-10T09:26:53.709Z</time>
      </trkpt>
      <trkpt lat="48.510790" lon="10.258530">
        <ele>497.179337</ele>
        <time>2020-09-10T09:26:56.712Z</time>
      </trkpt>
      <trkpt lat="48.510697" lon="10.258408">
        <ele>497.246855</ele>
        <time>2020-09-10T09:26:59.701Z</time>
      </trkpt>
      <trkpt lat="48.510605" lon="10.258283">
        <ele>497.258749</ele>
        <time>2020-09-10T09:27:02.694Z</time>
      </trkpt>
      <trkpt lat="48.510513" lon="10.258141">
        <ele>497.271393</ele>
        <time>2020-09-10T09:27:05.715Z</time>
      </trkpt>
      <trkpt lat="48.510445" lon="10.258045">
        <ele>497.280339</ele>
        <time>2020-09-10T09:27:07.720Z</time>
      </trkpt>
      <trkpt lat="48.510375" lon="10.257954">
        <ele>497.289216</ele>
        <time>2020-09-10T09:27:09.706Z</time>
      </trkpt>
      <trkpt lat="48.510308" lon="10.257858">
        <ele>497.298092</ele>
        <time>2020-09-10T09:27:11.708Z</time>
      </trkpt>
      <trkpt lat="48.510247" lon="10.257758">
        <ele>497.306745</ele>
        <time>2020-09-10T09:27:13.708Z</time>
      </trkpt>
      <trkpt lat="48.510179" lon="10.257655">
        <ele>497.316002</ele>
        <time>2020-09-10T09:27:15.708Z</time>
      </trkpt>
      <trkpt lat="48.510108" lon="10.257554">
        <ele>497.325376</ele>
        <time>2020-09-10T09:27:17.711Z</time>
      </trkpt>
      <trkpt lat="48.510042" lon="10.257451">
        <ele>497.334498</ele>
        <time>2020-09-10T09:27:19.710Z</time>
      </trkpt>
      <trkpt lat="48.509968" lon="10.257352">
        <ele>497.343999</ele>
        <time>2020-09-10T09:27:21.706Z</time>
      </trkpt>
      <trkpt lat="48.509896" lon="10.257255">
        <ele>497.353272</ele>
        <time>2020-09-10T09:27:23.711Z</time>
      </trkpt>
      <trkpt lat="48.509827" lon="10.257150">
        <ele>497.362687</ele>
        <time>2020-09-10T09:27:25.708Z</time>
      </trkpt>
      <trkpt lat="48.509758" lon="10.257043">
        <ele>497.372192</ele>
        <time>2020-09-10T09:27:27.707Z</time>
      </trkpt>
      <trkpt lat="48.509685" lon="10.256939">
        <ele>497.381838</ele>
        <time>2020-09-10T09:27:29.715Z</time>
      </trkpt>
      <trkpt lat="48.509612" lon="10.256829">
        <ele>497.391749</ele>
        <time>2020-09-10T09:27:31.715Z</time>
      </trkpt>
      <trkpt lat="48.509537" lon="10.256724">
        <ele>497.401578</ele>
        <time>2020-09-10T09:27:33.710Z</time>
      </trkpt>
      <trkpt lat="48.509462" lon="10.256619">
        <ele>497.411407</ele>
        <time>2020-09-10T09:27:35.719Z</time>
      </trkpt>
      <trkpt lat="48.509388" lon="10.256524">
        <ele>497.442559</ele>
        <time>2020-09-10T09:27:37.703Z</time>
      </trkpt>
      <trkpt lat="48.509322" lon="10.256415">
        <ele>497.600953</ele>
        <time>2020-09-10T09:27:39.703Z</time>
      </trkpt>
      <trkpt lat="48.509256" lon="10.256317">
        <ele>497.750848</ele>
        <time>2020-09-10T09:27:41.719Z</time>
      </trkpt>
      <trkpt lat="48.509193" lon="10.256217">
        <ele>497.898868</ele>
        <time>2020-09-10T09:27:43.705Z</time>
      </trkpt>
      <trkpt lat="48.509126" lon="10.256057">
        <ele>498.101899</ele>
        <time>2020-09-10T09:27:46.706Z</time>
      </trkpt>
      <trkpt lat="48.509108" lon="10.255903">
        <ele>498.269636</ele>
        <time>2020-09-10T09:27:49.704Z</time>
      </trkpt>
      <trkpt lat="48.509103" lon="10.255761">
        <ele>498.422166</ele>
        <time>2020-09-10T09:27:52.706Z</time>
      </trkpt>
      <trkpt lat="48.509090" lon="10.255599">
        <ele>498.597203</ele>
        <time>2020-09-10T09:27:56.708Z</time>
      </trkpt>
      <trkpt lat="48.509057" lon="10.255426">
        <ele>498.790308</ele>
        <time>2020-09-10T09:28:00.707Z</time>
      </trkpt>
      <trkpt lat="48.509044" lon="10.255283">
        <ele>498.945133</ele>
        <time>2020-09-10T09:28:03.705Z</time>
      </trkpt>
      <trkpt lat="48.509018" lon="10.255123">
        <ele>499.121843</ele>
        <time>2020-09-10T09:28:06.708Z</time>
      </trkpt>
      <trkpt lat="48.509003" lon="10.254974">
        <ele>499.283501</ele>
        <time>2020-09-10T09:28:09.711Z</time>
      </trkpt>
      <trkpt lat="48.508993" lon="10.254815">
        <ele>499.454817</ele>
        <time>2020-09-10T09:28:13.700Z</time>
      </trkpt>
      <trkpt lat="48.508977" lon="10.254670">
        <ele>499.612493</ele>
        <time>2020-09-10T09:28:17.699Z</time>
      </trkpt>
      <trkpt lat="48.508958" lon="10.254529">
        <ele>499.766832</ele>
        <time>2020-09-10T09:28:21.701Z</time>
      </trkpt>
      <trkpt lat="48.508943" lon="10.254373">
        <ele>499.935917</ele>
        <time>2020-09-10T09:28:25.713Z</time>
      </trkpt>
      <trkpt lat="48.508929" lon="10.254215">
        <ele>500.106904</ele>
        <time>2020-09-10T09:28:28.712Z</time>
      </trkpt>
      <trkpt lat="48.508907" lon="10.254047">
        <ele>500.290594</ele>
        <time>2020-09-10T09:28:31.710Z</time>
      </trkpt>
      <trkpt lat="48.508892" lon="10.253852">
        <ele>500.197972</ele>
        <time>2020-09-10T09:28:34.711Z</time>
      </trkpt>
      <trkpt lat="48.508874" lon="10.253716">
        <ele>500.080892</ele>
        <time>2020-09-10T09:28:36.707Z</time>
      </trkpt>
      <trkpt lat="48.508861" lon="10.253575">
        <ele>499.960713</ele>
        <time>2020-09-10T09:28:38.709Z</time>
      </trkpt>
      <trkpt lat="48.508843" lon="10.253428">
        <ele>499.834514</ele>
        <time>2020-09-10T09:28:40.707Z</time>
      </trkpt>
      <trkpt lat="48.508829" lon="10.253273">
        <ele>499.702453</ele>
        <time>2020-09-10T09:28:42.709Z</time>
      </trkpt>
      <trkpt lat="48.508815" lon="10.253113">
        <ele>499.566208</ele>
        <time>2020-09-10T09:28:44.712Z</time>
      </trkpt>
      <trkpt lat="48.508801" lon="10.252956">
        <ele>499.432473</ele>
        <time>2020-09-10T09:28:46.723Z</time>
      </trkpt>
      <trkpt lat="48.508783" lon="10.252799">
        <ele>499.297964</ele>
        <time>2020-09-10T09:28:48.716Z</time>
      </trkpt>
      <trkpt lat="48.508766" lon="10.252644">
        <ele>499.165332</ele>
        <time>2020-09-10T09:28:50.708Z</time>
      </trkpt>
      <trkpt lat="48.508753" lon="10.252491">
        <ele>499.035112</ele>
        <time>2020-09-10T09:28:52.729Z</time>
      </trkpt>
      <trkpt lat="48.508739" lon="10.252342">
        <ele>498.908067</ele>
        <time>2020-09-10T09:28:54.711Z</time>
      </trkpt>
      <trkpt lat="48.508720" lon="10.252193">
        <ele>498.779972</ele>
        <time>2020-09-10T09:28:56.711Z</time>
      </trkpt>
      <trkpt lat="48.508706" lon="10.252039">
        <ele>498.648747</ele>
        <time>2020-09-10T09:28:58.730Z</time>
      </trkpt>
      <trkpt lat="48.508689" lon="10.251894">
        <ele>498.524436</ele>
        <time>2020-09-10T09:29:00.719Z</time>
      </trkpt>
      <trkpt lat="48.508674" lon="10.251709">
        <ele>498.367093</ele>
        <time>2020-09-10T09:29:03.742Z</time>
      </trkpt>
      <trkpt lat="48.508652" lon="10.251533">
        <ele>498.215892</ele>
        <time>2020-09-10T09:29:06.706Z</time>
      </trkpt>
      <trkpt lat="48.508547" lon="10.251466">
        <ele>498.070631</ele>
        <time>2020-09-10T09:29:09.698Z</time>
      </trkpt>
      <trkpt lat="48.508456" lon="10.251517">
        <ele>497.933713</ele>
        <time>2020-09-10T09:29:11.725Z</time>
      </trkpt>
      <trkpt lat="48.508360" lon="10.251557">
        <ele>497.788689</ele>
        <time>2020-09-10T09:29:13.702Z</time>
      </trkpt>
      <trkpt lat="48.508269" lon="10.251599">
        <ele>497.650119</ele>
        <time>2020-09-10T09:29:15.700Z</time>
      </trkpt>
      <trkpt lat="48.508172" lon="10.251649">
        <ele>497.500859</ele>
        <time>2020-09-10T09:29:17.702Z</time>
      </trkpt>
      <trkpt lat="48.508076" lon="10.251694">
        <ele>497.354478</ele>
        <time>2020-09-10T09:29:19.703Z</time>
      </trkpt>
      <trkpt lat="48.507958" lon="10.251745">
        <ele>497.175741</ele>
        <time>2020-09-10T09:29:22.707Z</time>
      </trkpt>
      <trkpt lat="48.507861" lon="10.251788">
        <ele>497.028524</ele>
        <time>2020-09-10T09:29:25.706Z</time>
      </trkpt>
      <trkpt lat="48.507743" lon="10.251849">
        <ele>496.846895</ele>
        <time>2020-09-10T09:29:28.708Z</time>
      </trkpt>
      <trkpt lat="48.507652" lon="10.251887">
        <ele>496.709403</ele>
        <time>2020-09-10T09:29:30.706Z</time>
      </trkpt>
      <trkpt lat="48.507529" lon="10.251814">
        <ele>496.516942</ele>
        <time>2020-09-10T09:29:33.709Z</time>
      </trkpt>
      <trkpt lat="48.507447" lon="10.251683">
        <ele>496.343071</ele>
        <time>2020-09-10T09:29:36.712Z</time>
      </trkpt>
      <trkpt lat="48.507322" lon="10.251641">
        <ele>496.156591</ele>
        <time>2020-09-10T09:29:39.718Z</time>
      </trkpt>
      <trkpt lat="48.507223" lon="10.251655">
        <ele>496.011797</ele>
        <time>2020-09-10T09:29:41.707Z</time>
      </trkpt>
      <trkpt lat="48.507105" lon="10.251656">
        <ele>495.839963</ele>
        <time>2020-09-10T09:29:43.710Z</time>
      </trkpt>
      <trkpt lat="48.506979" lon="10.251677">
        <ele>495.655367</ele>
        <time>2020-09-10T09:29:45.707Z</time>
      </trkpt>
      <trkpt lat="48.506847" lon="10.251726">
        <ele>495.457421</ele>
        <time>2020-09-10T09:29:47.705Z</time>
      </trkpt>
      <trkpt lat="48.506720" lon="10.251772">
        <ele>495.325314</ele>
        <time>2020-09-10T09:29:49.708Z</time>
      </trkpt>
      <trkpt lat="48.506592" lon="10.251817">
        <ele>495.206505</ele>
        <time>2020-09-10T09:29:51.709Z</time>
      </trkpt>
      <trkpt lat="48.506465" lon="10.251865">
        <ele>495.088153</ele>
        <time>2020-09-10T09:29:53.717Z</time>
      </trkpt>
      <trkpt lat="48.506336" lon="10.251915">
        <ele>494.967753</ele>
        <time>2020-09-10T09:29:55.710Z</time>
      </trkpt>
      <trkpt lat="48.506203" lon="10.251966">
        <ele>494.843702</ele>
        <time>2020-09-10T09:29:57.698Z</time>
      </trkpt>
      <trkpt lat="48.506080" lon="10.252025">
        <ele>494.727030</ele>
        <time>2020-09-10T09:29:59.712Z</time>
      </trkpt>
      <trkpt lat="48.505957" lon="10.252098">
        <ele>494.607551</ele>
        <time>2020-09-10T09:30:01.703Z</time>
      </trkpt>
      <trkpt lat="48.505826" lon="10.252151">
        <ele>494.484947</ele>
        <time>2020-09-10T09:30:03.704Z</time>
      </trkpt>
      <trkpt lat="48.505691" lon="10.252191">
        <ele>494.360578</ele>
        <time>2020-09-10T09:30:05.705Z</time>
      </trkpt>
      <trkpt lat="48.505559" lon="10.252235">
        <ele>494.238375</ele>
        <time>2020-09-10T09:30:07.707Z</time>
      </trkpt>
      <trkpt lat="48.505422" lon="10.252278">
        <ele>494.111878</ele>
        <time>2020-09-10T09:30:09.701Z</time>
      </trkpt>
      <trkpt lat="48.505283" lon="10.252319">
        <ele>493.983845</ele>
        <time>2020-09-10T09:30:11.715Z</time>
      </trkpt>
      <trkpt lat="48.505141" lon="10.252360">
        <ele>493.853150</ele>
        <time>2020-09-10T09:30:13.704Z</time>
      </trkpt>
      <trkpt lat="48.504999" lon="10.252401">
        <ele>493.778675</ele>
        <time>2020-09-10T09:30:15.707Z</time>
      </trkpt>
      <trkpt lat="48.504856" lon="10.252443">
        <ele>493.749851</ele>
        <time>2020-09-10T09:30:17.710Z</time>
      </trkpt>
      <trkpt lat="48.504722" lon="10.252484">
        <ele>493.722799</ele>
        <time>2020-09-10T09:30:19.707Z</time>
      </trkpt>
      <trkpt lat="48.504583" lon="10.252520">
        <ele>493.694895</ele>
        <time>2020-09-10T09:30:21.704Z</time>
      </trkpt>
      <trkpt lat="48.504446" lon="10.252560">
        <ele>493.667287</ele>
        <time>2020-09-10T09:30:23.706Z</time>
      </trkpt>
      <trkpt lat="48.504311" lon="10.252601">
        <ele>493.640041</ele>
        <time>2020-09-10T09:30:25.728Z</time>
      </trkpt>
      <trkpt lat="48.504170" lon="10.252633">
        <ele>493.611830</ele>
        <time>2020-09-10T09:30:27.708Z</time>
      </trkpt>
      <trkpt lat="48.504029" lon="10.252669">
        <ele>493.583536</ele>
        <time>2020-09-10T09:30:29.721Z</time>
      </trkpt>
      <trkpt lat="48.503893" lon="10.252703">
        <ele>493.556261</ele>
        <time>2020-09-10T09:30:31.705Z</time>
      </trkpt>
      <trkpt lat="48.503755" lon="10.252741">
        <ele>493.528506</ele>
        <time>2020-09-10T09:30:33.713Z</time>
      </trkpt>
      <trkpt lat="48.503614" lon="10.252772">
        <ele>493.500314</ele>
        <time>2020-09-10T09:30:35.707Z</time>
      </trkpt>
      <trkpt lat="48.503482" lon="10.252810">
        <ele>493.473726</ele>
        <time>2020-09-10T09:30:37.708Z</time>
      </trkpt>
      <trkpt lat="48.503349" lon="10.252840">
        <ele>493.447119</ele>
        <time>2020-09-10T09:30:39.712Z</time>
      </trkpt>
      <trkpt lat="48.503214" lon="10.252874">
        <ele>493.415737</ele>
        <time>2020-09-10T09:30:41.713Z</time>
      </trkpt>
      <trkpt lat="48.503079" lon="10.252902">
        <ele>493.382511</ele>
        <time>2020-09-10T09:30:43.717Z</time>
      </trkpt>
      <trkpt lat="48.502945" lon="10.252936">
        <ele>493.349380</ele>
        <time>2020-09-10T09:30:45.698Z</time>
      </trkpt>
      <trkpt lat="48.502815" lon="10.252971">
        <ele>493.317182</ele>
        <time>2020-09-10T09:30:47.701Z</time>
      </trkpt>
      <trkpt lat="48.502688" lon="10.253002">
        <ele>493.285813</ele>
        <time>2020-09-10T09:30:49.704Z</time>
      </trkpt>
      <trkpt lat="48.502560" lon="10.253032">
        <ele>493.254230</ele>
        <time>2020-09-10T09:30:51.697Z</time>
      </trkpt>
      <trkpt lat="48.502431" lon="10.253065">
        <ele>493.222327</ele>
        <time>2020-09-10T09:30:53.699Z</time>
      </trkpt>
      <trkpt lat="48.502294" lon="10.253103">
        <ele>493.188364</ele>
        <time>2020-09-10T09:30:55.703Z</time>
      </trkpt>
      <trkpt lat="48.502158" lon="10.253137">
        <ele>493.154751</ele>
        <time>2020-09-10T09:30:57.702Z</time>
      </trkpt>
      <trkpt lat="48.502023" lon="10.253167">
        <ele>493.121480</ele>
        <time>2020-09-10T09:30:59.708Z</time>
      </trkpt>
      <trkpt lat="48.501891" lon="10.253203">
        <ele>493.088774</ele>
        <time>2020-09-10T09:31:01.704Z</time>
      </trkpt>
      <trkpt lat="48.501758" lon="10.253232">
        <ele>493.056008</ele>
        <time>2020-09-10T09:31:03.700Z</time>
      </trkpt>
      <trkpt lat="48.501623" lon="10.253265">
        <ele>493.022662</ele>
        <time>2020-09-10T09:31:05.702Z</time>
      </trkpt>
      <trkpt lat="48.501478" lon="10.253300">
        <ele>492.989887</ele>
        <time>2020-09-10T09:31:07.693Z</time>
      </trkpt>
      <trkpt lat="48.501333" lon="10.253340">
        <ele>492.962230</ele>
        <time>2020-09-10T09:31:09.705Z</time>
      </trkpt>
      <trkpt lat="48.501188" lon="10.253371">
        <ele>492.934752</ele>
        <time>2020-09-10T09:31:11.707Z</time>
      </trkpt>
      <trkpt lat="48.501047" lon="10.253404">
        <ele>492.907980</ele>
        <time>2020-09-10T09:31:13.701Z</time>
      </trkpt>
      <trkpt lat="48.500904" lon="10.253437">
        <ele>492.880837</ele>
        <time>2020-09-10T09:31:15.712Z</time>
      </trkpt>
      <trkpt lat="48.500761" lon="10.253469">
        <ele>492.853713</ele>
        <time>2020-09-10T09:31:17.706Z</time>
      </trkpt>
      <trkpt lat="48.500622" lon="10.253501">
        <ele>492.827331</ele>
        <time>2020-09-10T09:31:19.707Z</time>
      </trkpt>
      <trkpt lat="48.500483" lon="10.253530">
        <ele>492.801002</ele>
        <time>2020-09-10T09:31:21.706Z</time>
      </trkpt>
      <trkpt lat="48.500345" lon="10.253560">
        <ele>492.774842</ele>
        <time>2020-09-10T09:31:23.707Z</time>
      </trkpt>
      <trkpt lat="48.500200" lon="10.253589">
        <ele>492.747398</ele>
        <time>2020-09-10T09:31:25.696Z</time>
      </trkpt>
      <trkpt lat="48.500065" lon="10.253616">
        <ele>492.721846</ele>
        <time>2020-09-10T09:31:27.707Z</time>
      </trkpt>
      <trkpt lat="48.499937" lon="10.253648">
        <ele>492.697502</ele>
        <time>2020-09-10T09:31:29.698Z</time>
      </trkpt>
      <trkpt lat="48.499808" lon="10.253679">
        <ele>492.672993</ele>
        <time>2020-09-10T09:31:31.711Z</time>
      </trkpt>
      <trkpt lat="48.499668" lon="10.253702">
        <ele>492.634691</ele>
        <time>2020-09-10T09:31:33.699Z</time>
      </trkpt>
      <trkpt lat="48.499530" lon="10.253733">
        <ele>492.589017</ele>
        <time>2020-09-10T09:31:35.701Z</time>
      </trkpt>
      <trkpt lat="48.499396" lon="10.253764">
        <ele>492.544637</ele>
        <time>2020-09-10T09:31:37.716Z</time>
      </trkpt>
      <trkpt lat="48.499270" lon="10.253789">
        <ele>492.503035</ele>
        <time>2020-09-10T09:31:39.701Z</time>
      </trkpt>
      <trkpt lat="48.499143" lon="10.253812">
        <ele>492.461161</ele>
        <time>2020-09-10T09:31:41.704Z</time>
      </trkpt>
      <trkpt lat="48.499018" lon="10.253844">
        <ele>492.419656</ele>
        <time>2020-09-10T09:31:43.697Z</time>
      </trkpt>
      <trkpt lat="48.498890" lon="10.253879">
        <ele>492.377071</ele>
        <time>2020-09-10T09:31:45.704Z</time>
      </trkpt>
      <trkpt lat="48.498770" lon="10.253887">
        <ele>492.337750</ele>
        <time>2020-09-10T09:31:47.708Z</time>
      </trkpt>
      <trkpt lat="48.498659" lon="10.253893">
        <ele>492.301389</ele>
        <time>2020-09-10T09:31:49.703Z</time>
      </trkpt>
      <trkpt lat="48.498557" lon="10.253966">
        <ele>492.264433</ele>
        <time>2020-09-10T09:31:51.701Z</time>
      </trkpt>
      <trkpt lat="48.498439" lon="10.254003">
        <ele>492.224979</ele>
        <time>2020-09-10T09:31:53.711Z</time>
      </trkpt>
      <trkpt lat="48.498313" lon="10.254037">
        <ele>492.183077</ele>
        <time>2020-09-10T09:31:55.700Z</time>
      </trkpt>
      <trkpt lat="48.498187" lon="10.254069">
        <ele>492.141249</ele>
        <time>2020-09-10T09:31:57.709Z</time>
      </trkpt>
      <trkpt lat="48.498061" lon="10.254102">
        <ele>492.099385</ele>
        <time>2020-09-10T09:31:59.708Z</time>
      </trkpt>
      <trkpt lat="48.497937" lon="10.254119">
        <ele>492.071822</ele>
        <time>2020-09-10T09:32:01.706Z</time>
      </trkpt>
      <trkpt lat="48.497822" lon="10.254129">
        <ele>492.067102</ele>
        <time>2020-09-10T09:32:03.711Z</time>
      </trkpt>
      <trkpt lat="48.497707" lon="10.254188">
        <ele>492.062124</ele>
        <time>2020-09-10T09:32:05.705Z</time>
      </trkpt>
      <trkpt lat="48.497580" lon="10.254238">
        <ele>492.056745</ele>
        <time>2020-09-10T09:32:07.705Z</time>
      </trkpt>
      <trkpt lat="48.497448" lon="10.254272">
        <ele>492.051257</ele>
        <time>2020-09-10T09:32:09.698Z</time>
      </trkpt>
      <trkpt lat="48.497312" lon="10.254303">
        <ele>492.045621</ele>
        <time>2020-09-10T09:32:11.712Z</time>
      </trkpt>
      <trkpt lat="48.497179" lon="10.254333">
        <ele>492.040110</ele>
        <time>2020-09-10T09:32:13.697Z</time>
      </trkpt>
      <trkpt lat="48.497045" lon="10.254367">
        <ele>492.034541</ele>
        <time>2020-09-10T09:32:15.702Z</time>
      </trkpt>
      <trkpt lat="48.496911" lon="10.254400">
        <ele>492.028977</ele>
        <time>2020-09-10T09:32:17.700Z</time>
      </trkpt>
      <trkpt lat="48.496778" lon="10.254432">
        <ele>492.023457</ele>
        <time>2020-09-10T09:32:19.704Z</time>
      </trkpt>
      <trkpt lat="48.496645" lon="10.254472">
        <ele>492.017900</ele>
        <time>2020-09-10T09:32:21.703Z</time>
      </trkpt>
      <trkpt lat="48.496513" lon="10.254500">
        <ele>492.012437</ele>
        <time>2020-09-10T09:32:23.703Z</time>
      </trkpt>
      <trkpt lat="48.496381" lon="10.254538">
        <ele>492.006930</ele>
        <time>2020-09-10T09:32:25.701Z</time>
      </trkpt>
      <trkpt lat="48.496251" lon="10.254580">
        <ele>492.001482</ele>
        <time>2020-09-10T09:32:27.705Z</time>
      </trkpt>
      <trkpt lat="48.496118" lon="10.254612">
        <ele>492.045947</ele>
        <time>2020-09-10T09:32:29.704Z</time>
      </trkpt>
      <trkpt lat="48.495993" lon="10.254634">
        <ele>492.104634</ele>
        <time>2020-09-10T09:32:31.703Z</time>
      </trkpt>
      <trkpt lat="48.495860" lon="10.254673">
        <ele>492.167816</ele>
        <time>2020-09-10T09:32:33.702Z</time>
      </trkpt>
      <trkpt lat="48.495723" lon="10.254704">
        <ele>492.232418</ele>
        <time>2020-09-10T09:32:35.705Z</time>
      </trkpt>
      <trkpt lat="48.495592" lon="10.254736">
        <ele>492.294303</ele>
        <time>2020-09-10T09:32:37.703Z</time>
      </trkpt>
      <trkpt lat="48.495465" lon="10.254770">
        <ele>492.354453</ele>
        <time>2020-09-10T09:32:39.706Z</time>
      </trkpt>
      <trkpt lat="48.495339" lon="10.254797">
        <ele>492.413800</ele>
        <time>2020-09-10T09:32:41.709Z</time>
      </trkpt>
      <trkpt lat="48.495213" lon="10.254832">
        <ele>492.473545</ele>
        <time>2020-09-10T09:32:43.713Z</time>
      </trkpt>
      <trkpt lat="48.495097" lon="10.254862">
        <ele>492.528429</ele>
        <time>2020-09-10T09:32:45.728Z</time>
      </trkpt>
      <trkpt lat="48.494986" lon="10.254888">
        <ele>492.580812</ele>
        <time>2020-09-10T09:32:47.712Z</time>
      </trkpt>
      <trkpt lat="48.494884" lon="10.254914">
        <ele>492.629052</ele>
        <time>2020-09-10T09:32:49.697Z</time>
      </trkpt>
      <trkpt lat="48.494782" lon="10.254938">
        <ele>492.677192</ele>
        <time>2020-09-10T09:32:51.701Z</time>
      </trkpt>
      <trkpt lat="48.494669" lon="10.254954">
        <ele>492.730120</ele>
        <time>2020-09-10T09:32:53.702Z</time>
      </trkpt>
      <trkpt lat="48.494554" lon="10.254978">
        <ele>492.784258</ele>
        <time>2020-09-10T09:32:55.710Z</time>
      </trkpt>
      <trkpt lat="48.494441" lon="10.255006">
        <ele>492.837660</ele>
        <time>2020-09-10T09:32:57.777Z</time>
      </trkpt>
      <trkpt lat="48.494329" lon="10.255039">
        <ele>492.843664</ele>
        <time>2020-09-10T09:32:59.701Z</time>
      </trkpt>
      <trkpt lat="48.494211" lon="10.255075">
        <ele>492.848939</ele>
        <time>2020-09-10T09:33:01.694Z</time>
      </trkpt>
      <trkpt lat="48.494088" lon="10.255105">
        <ele>492.854399</ele>
        <time>2020-09-10T09:33:03.709Z</time>
      </trkpt>
      <trkpt lat="48.493966" lon="10.255138">
        <ele>492.859830</ele>
        <time>2020-09-10T09:33:05.702Z</time>
      </trkpt>
      <trkpt lat="48.493835" lon="10.255167">
        <ele>492.865632</ele>
        <time>2020-09-10T09:33:07.699Z</time>
      </trkpt>
      <trkpt lat="48.493696" lon="10.255201">
        <ele>492.871802</ele>
        <time>2020-09-10T09:33:09.706Z</time>
      </trkpt>
      <trkpt lat="48.493560" lon="10.255236">
        <ele>492.877847</ele>
        <time>2020-09-10T09:33:11.703Z</time>
      </trkpt>
      <trkpt lat="48.493425" lon="10.255267">
        <ele>492.883831</ele>
        <time>2020-09-10T09:33:13.704Z</time>
      </trkpt>
      <trkpt lat="48.493297" lon="10.255301">
        <ele>492.889526</ele>
        <time>2020-09-10T09:33:15.707Z</time>
      </trkpt>
      <trkpt lat="48.493172" lon="10.255339">
        <ele>492.895113</ele>
        <time>2020-09-10T09:33:17.707Z</time>
      </trkpt>
      <trkpt lat="48.493056" lon="10.255365">
        <ele>492.900252</ele>
        <time>2020-09-10T09:33:19.706Z</time>
      </trkpt>
      <trkpt lat="48.492948" lon="10.255394">
        <ele>492.905059</ele>
        <time>2020-09-10T09:33:21.707Z</time>
      </trkpt>
      <trkpt lat="48.492833" lon="10.255419">
        <ele>492.910150</ele>
        <time>2020-09-10T09:33:23.705Z</time>
      </trkpt>
      <trkpt lat="48.492711" lon="10.255448">
        <ele>492.915562</ele>
        <time>2020-09-10T09:33:25.704Z</time>
      </trkpt>
      <trkpt lat="48.492590" lon="10.255475">
        <ele>492.867914</ele>
        <time>2020-09-10T09:33:27.706Z</time>
      </trkpt>
      <trkpt lat="48.492462" lon="10.255504">
        <ele>492.783563</ele>
        <time>2020-09-10T09:33:29.697Z</time>
      </trkpt>
      <trkpt lat="48.492343" lon="10.255540">
        <ele>492.704470</ele>
        <time>2020-09-10T09:33:31.708Z</time>
      </trkpt>
      <trkpt lat="48.492221" lon="10.255564">
        <ele>492.624292</ele>
        <time>2020-09-10T09:33:33.695Z</time>
      </trkpt>
      <trkpt lat="48.492098" lon="10.255579">
        <ele>492.543874</ele>
        <time>2020-09-10T09:33:35.695Z</time>
      </trkpt>
      <trkpt lat="48.491970" lon="10.255592">
        <ele>492.460269</ele>
        <time>2020-09-10T09:33:37.700Z</time>
      </trkpt>
      <trkpt lat="48.491833" lon="10.255620">
        <ele>492.370174</ele>
        <time>2020-09-10T09:33:39.699Z</time>
      </trkpt>
      <trkpt lat="48.491700" lon="10.255649">
        <ele>492.282599</ele>
        <time>2020-09-10T09:33:41.713Z</time>
      </trkpt>
      <trkpt lat="48.491571" lon="10.255676">
        <ele>492.197727</ele>
        <time>2020-09-10T09:33:43.702Z</time>
      </trkpt>
      <trkpt lat="48.491437" lon="10.255702">
        <ele>492.109683</ele>
        <time>2020-09-10T09:33:45.701Z</time>
      </trkpt>
      <trkpt lat="48.491315" lon="10.255733">
        <ele>492.029058</ele>
        <time>2020-09-10T09:33:47.702Z</time>
      </trkpt>
      <trkpt lat="48.491198" lon="10.255760">
        <ele>491.951925</ele>
        <time>2020-09-10T09:33:49.705Z</time>
      </trkpt>
      <trkpt lat="48.491086" lon="10.255782">
        <ele>491.878320</ele>
        <time>2020-09-10T09:33:51.704Z</time>
      </trkpt>
      <trkpt lat="48.490974" lon="10.255771">
        <ele>491.805178</ele>
        <time>2020-09-10T09:33:53.706Z</time>
      </trkpt>
      <trkpt lat="48.490891" lon="10.255683">
        <ele>491.747265</ele>
        <time>2020-09-10T09:33:55.723Z</time>
      </trkpt>
      <trkpt lat="48.490799" lon="10.255687">
        <ele>491.764482</ele>
        <time>2020-09-10T09:33:57.707Z</time>
      </trkpt>
      <trkpt lat="48.490701" lon="10.255750">
        <ele>491.784410</ele>
        <time>2020-09-10T09:33:59.704Z</time>
      </trkpt>
      <trkpt lat="48.490596" lon="10.255832">
        <ele>491.806527</ele>
        <time>2020-09-10T09:34:01.702Z</time>
      </trkpt>
      <trkpt lat="48.490474" lon="10.255899">
        <ele>491.830815</ele>
        <time>2020-09-10T09:34:03.701Z</time>
      </trkpt>
      <trkpt lat="48.490339" lon="10.255931">
        <ele>491.856379</ele>
        <time>2020-09-10T09:34:05.698Z</time>
      </trkpt>
      <trkpt lat="48.490203" lon="10.255963">
        <ele>491.882128</ele>
        <time>2020-09-10T09:34:07.716Z</time>
      </trkpt>
      <trkpt lat="48.490059" lon="10.256003">
        <ele>491.909519</ele>
        <time>2020-09-10T09:34:09.699Z</time>
      </trkpt>
      <trkpt lat="48.489920" lon="10.256041">
        <ele>491.935946</ele>
        <time>2020-09-10T09:34:11.711Z</time>
      </trkpt>
      <trkpt lat="48.489786" lon="10.256075">
        <ele>491.961365</ele>
        <time>2020-09-10T09:34:13.698Z</time>
      </trkpt>
      <trkpt lat="48.489650" lon="10.256109">
        <ele>491.987154</ele>
        <time>2020-09-10T09:34:15.710Z</time>
      </trkpt>
      <trkpt lat="48.489517" lon="10.256153">
        <ele>492.012625</ele>
        <time>2020-09-10T09:34:17.698Z</time>
      </trkpt>
      <trkpt lat="48.489389" lon="10.256188">
        <ele>492.036961</ele>
        <time>2020-09-10T09:34:19.699Z</time>
      </trkpt>
      <trkpt lat="48.489255" lon="10.256221">
        <ele>492.062360</ele>
        <time>2020-09-10T09:34:21.702Z</time>
      </trkpt>
      <trkpt lat="48.489118" lon="10.256261">
        <ele>492.084067</ele>
        <time>2020-09-10T09:34:23.703Z</time>
      </trkpt>
      <trkpt lat="48.488990" lon="10.256294">
        <ele>492.092055</ele>
        <time>2020-09-10T09:34:25.701Z</time>
      </trkpt>
      <trkpt lat="48.488855" lon="10.256328">
        <ele>492.100474</ele>
        <time>2020-09-10T09:34:27.704Z</time>
      </trkpt>
      <trkpt lat="48.488727" lon="10.256371">
        <ele>492.108541</ele>
        <time>2020-09-10T09:34:29.715Z</time>
      </trkpt>
      <trkpt lat="48.488605" lon="10.256420">
        <ele>492.116307</ele>
        <time>2020-09-10T09:34:31.703Z</time>
      </trkpt>
      <trkpt lat="48.488501" lon="10.256483">
        <ele>492.123201</ele>
        <time>2020-09-10T09:34:33.722Z</time>
      </trkpt>
      <trkpt lat="48.488405" lon="10.256526">
        <ele>492.129362</ele>
        <time>2020-09-10T09:34:35.711Z</time>
      </trkpt>
      <trkpt lat="48.488301" lon="10.256553">
        <ele>492.135853</ele>
        <time>2020-09-10T09:34:37.703Z</time>
      </trkpt>
      <trkpt lat="48.488197" lon="10.256588">
        <ele>492.142408</ele>
        <time>2020-09-10T09:34:39.707Z</time>
      </trkpt>
      <trkpt lat="48.488094" lon="10.256621">
        <ele>492.148886</ele>
        <time>2020-09-10T09:34:41.707Z</time>
      </trkpt>
      <trkpt lat="48.487981" lon="10.256645">
        <ele>492.155905</ele>
        <time>2020-09-10T09:34:43.717Z</time>
      </trkpt>
      <trkpt lat="48.487868" lon="10.256679">
        <ele>492.162994</ele>
        <time>2020-09-10T09:34:45.698Z</time>
      </trkpt>
      <trkpt lat="48.487752" lon="10.256707">
        <ele>492.170220</ele>
        <time>2020-09-10T09:34:47.709Z</time>
      </trkpt>
      <trkpt lat="48.487647" lon="10.256738">
        <ele>492.176802</ele>
        <time>2020-09-10T09:34:49.696Z</time>
      </trkpt>
      <trkpt lat="48.487547" lon="10.256764">
        <ele>492.183044</ele>
        <time>2020-09-10T09:34:51.709Z</time>
      </trkpt>
      <trkpt lat="48.487446" lon="10.256782">
        <ele>492.189300</ele>
        <time>2020-09-10T09:34:53.700Z</time>
      </trkpt>
      <trkpt lat="48.487349" lon="10.256799">
        <ele>492.191783</ele>
        <time>2020-09-10T09:34:55.702Z</time>
      </trkpt>
      <trkpt lat="48.487260" lon="10.256836">
        <ele>492.190186</ele>
        <time>2020-09-10T09:34:57.705Z</time>
      </trkpt>
      <trkpt lat="48.487160" lon="10.256864">
        <ele>492.188426</ele>
        <time>2020-09-10T09:34:59.704Z</time>
      </trkpt>
      <trkpt lat="48.487053" lon="10.256891">
        <ele>492.186549</ele>
        <time>2020-09-10T09:35:01.708Z</time>
      </trkpt>
      <trkpt lat="48.486936" lon="10.256924">
        <ele>492.184490</ele>
        <time>2020-09-10T09:35:03.703Z</time>
      </trkpt>
      <trkpt lat="48.486818" lon="10.256958">
        <ele>492.182411</ele>
        <time>2020-09-10T09:35:05.702Z</time>
      </trkpt>
      <trkpt lat="48.486701" lon="10.256989">
        <ele>492.180356</ele>
        <time>2020-09-10T09:35:07.701Z</time>
      </trkpt>
      <trkpt lat="48.486577" lon="10.257023">
        <ele>492.178175</ele>
        <time>2020-09-10T09:35:09.709Z</time>
      </trkpt>
      <trkpt lat="48.486451" lon="10.257060">
        <ele>492.175954</ele>
        <time>2020-09-10T09:35:11.711Z</time>
      </trkpt>
      <trkpt lat="48.486323" lon="10.257095">
        <ele>492.173703</ele>
        <time>2020-09-10T09:35:13.706Z</time>
      </trkpt>
      <trkpt lat="48.486186" lon="10.257146">
        <ele>492.171262</ele>
        <time>2020-09-10T09:35:15.706Z</time>
      </trkpt>
      <trkpt lat="48.486046" lon="10.257184">
        <ele>492.168801</ele>
        <time>2020-09-10T09:35:17.699Z</time>
      </trkpt>
      <trkpt lat="48.485901" lon="10.257215">
        <ele>492.166267</ele>
        <time>2020-09-10T09:35:19.732Z</time>
      </trkpt>
      <trkpt lat="48.485763" lon="10.257259">
        <ele>492.163826</ele>
        <time>2020-09-10T09:35:21.697Z</time>
      </trkpt>
      <trkpt lat="48.485625" lon="10.257304">
        <ele>492.163517</ele>
        <time>2020-09-10T09:35:23.700Z</time>
      </trkpt>
      <trkpt lat="48.485487" lon="10.257354">
        <ele>492.260400</ele>
        <time>2020-09-10T09:35:25.700Z</time>
      </trkpt>
      <trkpt lat="48.485352" lon="10.257401">
        <ele>492.354979</ele>
        <time>2020-09-10T09:35:27.704Z</time>
      </trkpt>
      <trkpt lat="48.485218" lon="10.257450">
        <ele>492.449101</ele>
        <time>2020-09-10T09:35:29.706Z</time>
      </trkpt>
      <trkpt lat="48.485089" lon="10.257489">
        <ele>492.538913</ele>
        <time>2020-09-10T09:35:31.700Z</time>
      </trkpt>
      <trkpt lat="48.484961" lon="10.257530">
        <ele>492.628239</ele>
        <time>2020-09-10T09:35:33.703Z</time>
      </trkpt>
      <trkpt lat="48.484837" lon="10.257582">
        <ele>492.716095</ele>
        <time>2020-09-10T09:35:35.701Z</time>
      </trkpt>
      <trkpt lat="48.484718" lon="10.257632">
        <ele>492.800421</ele>
        <time>2020-09-10T09:35:37.700Z</time>
      </trkpt>
      <trkpt lat="48.484596" lon="10.257687">
        <ele>492.887342</ele>
        <time>2020-09-10T09:35:39.699Z</time>
      </trkpt>
      <trkpt lat="48.484473" lon="10.257746">
        <ele>492.975449</ele>
        <time>2020-09-10T09:35:41.701Z</time>
      </trkpt>
      <trkpt lat="48.484356" lon="10.257813">
        <ele>493.060878</ele>
        <time>2020-09-10T09:35:43.704Z</time>
      </trkpt>
      <trkpt lat="48.484238" lon="10.257877">
        <ele>493.146477</ele>
        <time>2020-09-10T09:35:45.706Z</time>
      </trkpt>
      <trkpt lat="48.484126" lon="10.257933">
        <ele>493.227023</ele>
        <time>2020-09-10T09:35:47.706Z</time>
      </trkpt>
      <trkpt lat="48.484009" lon="10.257988">
        <ele>493.310679</ele>
        <time>2020-09-10T09:35:49.699Z</time>
      </trkpt>
      <trkpt lat="48.483894" lon="10.258052">
        <ele>493.393177</ele>
        <time>2020-09-10T09:35:51.705Z</time>
      </trkpt>
      <trkpt lat="48.483776" lon="10.258121">
        <ele>493.459574</ele>
        <time>2020-09-10T09:35:53.696Z</time>
      </trkpt>
      <trkpt lat="48.483653" lon="10.258186">
        <ele>493.527950</ele>
        <time>2020-09-10T09:35:55.699Z</time>
      </trkpt>
      <trkpt lat="48.483528" lon="10.258245">
        <ele>493.596667</ele>
        <time>2020-09-10T09:35:57.703Z</time>
      </trkpt>
      <trkpt lat="48.483407" lon="10.258295">
        <ele>493.662488</ele>
        <time>2020-09-10T09:35:59.703Z</time>
      </trkpt>
      <trkpt lat="48.483286" lon="10.258340">
        <ele>493.727872</ele>
        <time>2020-09-10T09:36:01.702Z</time>
      </trkpt>
      <trkpt lat="48.483175" lon="10.258385">
        <ele>493.788175</ele>
        <time>2020-09-10T09:36:03.704Z</time>
      </trkpt>
      <trkpt lat="48.483059" lon="10.258428">
        <ele>493.850845</ele>
        <time>2020-09-10T09:36:05.704Z</time>
      </trkpt>
      <trkpt lat="48.482941" lon="10.258487">
        <ele>493.916065</ele>
        <time>2020-09-10T09:36:07.701Z</time>
      </trkpt>
      <trkpt lat="48.482824" lon="10.258528">
        <ele>493.979084</ele>
        <time>2020-09-10T09:36:09.705Z</time>
      </trkpt>
      <trkpt lat="48.482706" lon="10.258575">
        <ele>494.043115</ele>
        <time>2020-09-10T09:36:11.701Z</time>
      </trkpt>
      <trkpt lat="48.482594" lon="10.258619">
        <ele>494.103836</ele>
        <time>2020-09-10T09:36:13.703Z</time>
      </trkpt>
      <trkpt lat="48.482475" lon="10.258666">
        <ele>494.168374</ele>
        <time>2020-09-10T09:36:15.699Z</time>
      </trkpt>
      <trkpt lat="48.482370" lon="10.258713">
        <ele>494.225836</ele>
        <time>2020-09-10T09:36:17.702Z</time>
      </trkpt>
      <trkpt lat="48.482265" lon="10.258761">
        <ele>494.283398</ele>
        <time>2020-09-10T09:36:19.709Z</time>
      </trkpt>
      <trkpt lat="48.482160" lon="10.258811">
        <ele>494.329059</ele>
        <time>2020-09-10T09:36:21.705Z</time>
      </trkpt>
      <trkpt lat="48.482047" lon="10.258859">
        <ele>494.300070</ele>
        <time>2020-09-10T09:36:23.706Z</time>
      </trkpt>
      <trkpt lat="48.481929" lon="10.258914">
        <ele>494.269573</ele>
        <time>2020-09-10T09:36:25.707Z</time>
      </trkpt>
      <trkpt lat="48.481804" lon="10.258967">
        <ele>494.237510</ele>
        <time>2020-09-10T09:36:27.706Z</time>
      </trkpt>
      <trkpt lat="48.481682" lon="10.259016">
        <ele>494.206335</ele>
        <time>2020-09-10T09:36:29.696Z</time>
      </trkpt>
      <trkpt lat="48.481557" lon="10.259071">
        <ele>494.174182</ele>
        <time>2020-09-10T09:36:31.700Z</time>
      </trkpt>
      <trkpt lat="48.481430" lon="10.259124">
        <ele>494.141643</ele>
        <time>2020-09-10T09:36:33.696Z</time>
      </trkpt>
      <trkpt lat="48.481299" lon="10.259174">
        <ele>494.108275</ele>
        <time>2020-09-10T09:36:35.700Z</time>
      </trkpt>
      <trkpt lat="48.481175" lon="10.259227">
        <ele>494.076450</ele>
        <time>2020-09-10T09:36:37.698Z</time>
      </trkpt>
      <trkpt lat="48.481061" lon="10.259274">
        <ele>494.047267</ele>
        <time>2020-09-10T09:36:39.701Z</time>
      </trkpt>
      <trkpt lat="48.480952" lon="10.259318">
        <ele>494.019404</ele>
        <time>2020-09-10T09:36:41.701Z</time>
      </trkpt>
      <trkpt lat="48.480844" lon="10.259363">
        <ele>493.991737</ele>
        <time>2020-09-10T09:36:43.704Z</time>
      </trkpt>
      <trkpt lat="48.480746" lon="10.259403">
        <ele>493.966667</ele>
        <time>2020-09-10T09:36:45.704Z</time>
      </trkpt>
      <trkpt lat="48.480645" lon="10.259437">
        <ele>493.941113</ele>
        <time>2020-09-10T09:36:47.698Z</time>
      </trkpt>
      <trkpt lat="48.480545" lon="10.259480">
        <ele>493.915436</ele>
        <time>2020-09-10T09:36:49.701Z</time>
      </trkpt>
      <trkpt lat="48.480447" lon="10.259522">
        <ele>493.890279</ele>
        <time>2020-09-10T09:36:51.703Z</time>
      </trkpt>
      <trkpt lat="48.480347" lon="10.259552">
        <ele>493.862513</ele>
        <time>2020-09-10T09:36:53.725Z</time>
      </trkpt>
      <trkpt lat="48.480243" lon="10.259567">
        <ele>493.833895</ele>
        <time>2020-09-10T09:36:55.698Z</time>
      </trkpt>
      <trkpt lat="48.480146" lon="10.259611">
        <ele>493.806149</ele>
        <time>2020-09-10T09:36:57.701Z</time>
      </trkpt>
      <trkpt lat="48.480071" lon="10.259694">
        <ele>493.780670</ele>
        <time>2020-09-10T09:36:59.704Z</time>
      </trkpt>
      <trkpt lat="48.479989" lon="10.259774">
        <ele>493.753920</ele>
        <time>2020-09-10T09:37:01.707Z</time>
      </trkpt>
      <trkpt lat="48.479889" lon="10.259804">
        <ele>493.725991</ele>
        <time>2020-09-10T09:37:03.708Z</time>
      </trkpt>
      <trkpt lat="48.479783" lon="10.259851">
        <ele>493.695727</ele>
        <time>2020-09-10T09:37:05.704Z</time>
      </trkpt>
      <trkpt lat="48.479671" lon="10.259899">
        <ele>493.663833</ele>
        <time>2020-09-10T09:37:07.710Z</time>
      </trkpt>
      <trkpt lat="48.479554" lon="10.259946">
        <ele>493.630667</ele>
        <time>2020-09-10T09:37:09.707Z</time>
      </trkpt>
      <trkpt lat="48.479436" lon="10.259995">
        <ele>493.597142</ele>
        <time>2020-09-10T09:37:11.707Z</time>
      </trkpt>
      <trkpt lat="48.479319" lon="10.260048">
        <ele>493.563679</ele>
        <time>2020-09-10T09:37:13.699Z</time>
      </trkpt>
      <trkpt lat="48.479197" lon="10.260094">
        <ele>493.529232</ele>
        <time>2020-09-10T09:37:15.698Z</time>
      </trkpt>
      <trkpt lat="48.479071" lon="10.260146">
        <ele>493.493449</ele>
        <time>2020-09-10T09:37:17.709Z</time>
      </trkpt>
      <trkpt lat="48.478948" lon="10.260196">
        <ele>493.458554</ele>
        <time>2020-09-10T09:37:19.702Z</time>
      </trkpt>
      <trkpt lat="48.478831" lon="10.260249">
        <ele>493.425091</ele>
        <time>2020-09-10T09:37:21.702Z</time>
      </trkpt>
      <trkpt lat="48.478710" lon="10.260295">
        <ele>493.393640</ele>
        <time>2020-09-10T09:37:23.707Z</time>
      </trkpt>
      <trkpt lat="48.478587" lon="10.260351">
        <ele>493.376990</ele>
        <time>2020-09-10T09:37:25.702Z</time>
      </trkpt>
      <trkpt lat="48.478473" lon="10.260399">
        <ele>493.361652</ele>
        <time>2020-09-10T09:37:27.699Z</time>
      </trkpt>
      <trkpt lat="48.478353" lon="10.260440">
        <ele>493.345707</ele>
        <time>2020-09-10T09:37:29.704Z</time>
      </trkpt>
      <trkpt lat="48.478238" lon="10.260481">
        <ele>493.330393</ele>
        <time>2020-09-10T09:37:31.702Z</time>
      </trkpt>
      <trkpt lat="48.478133" lon="10.260521">
        <ele>493.316359</ele>
        <time>2020-09-10T09:37:33.702Z</time>
      </trkpt>
      <trkpt lat="48.478029" lon="10.260551">
        <ele>493.302637</ele>
        <time>2020-09-10T09:37:35.704Z</time>
      </trkpt>
      <trkpt lat="48.477928" lon="10.260591">
        <ele>493.289104</ele>
        <time>2020-09-10T09:37:37.708Z</time>
      </trkpt>
      <trkpt lat="48.477826" lon="10.260637">
        <ele>493.275308</ele>
        <time>2020-09-10T09:37:39.708Z</time>
      </trkpt>
      <trkpt lat="48.477723" lon="10.260678">
        <ele>493.261503</ele>
        <time>2020-09-10T09:37:41.708Z</time>
      </trkpt>
      <trkpt lat="48.477622" lon="10.260721">
        <ele>493.247903</ele>
        <time>2020-09-10T09:37:43.702Z</time>
      </trkpt>
      <trkpt lat="48.477521" lon="10.260758">
        <ele>493.234433</ele>
        <time>2020-09-10T09:37:45.702Z</time>
      </trkpt>
      <trkpt lat="48.477417" lon="10.260795">
        <ele>493.220586</ele>
        <time>2020-09-10T09:37:47.711Z</time>
      </trkpt>
      <trkpt lat="48.477310" lon="10.260845">
        <ele>493.206070</ele>
        <time>2020-09-10T09:37:49.695Z</time>
      </trkpt>
      <trkpt lat="48.477199" lon="10.260886">
        <ele>493.191260</ele>
        <time>2020-09-10T09:37:51.707Z</time>
      </trkpt>
      <trkpt lat="48.477083" lon="10.260937">
        <ele>493.175602</ele>
        <time>2020-09-10T09:37:53.696Z</time>
      </trkpt>
      <trkpt lat="48.476969" lon="10.260980">
        <ele>493.160293</ele>
        <time>2020-09-10T09:37:55.700Z</time>
      </trkpt>
      <trkpt lat="48.476858" lon="10.261012">
        <ele>493.145199</ele>
        <time>2020-09-10T09:37:57.703Z</time>
      </trkpt>
      <trkpt lat="48.476762" lon="10.261061">
        <ele>493.131663</ele>
        <time>2020-09-10T09:37:59.708Z</time>
      </trkpt>
      <trkpt lat="48.476669" lon="10.261120">
        <ele>493.118188</ele>
        <time>2020-09-10T09:38:01.702Z</time>
      </trkpt>
      <trkpt lat="48.476574" lon="10.261166">
        <ele>493.104862</ele>
        <time>2020-09-10T09:38:03.703Z</time>
      </trkpt>
      <trkpt lat="48.476473" lon="10.261247">
        <ele>493.089584</ele>
        <time>2020-09-10T09:38:05.700Z</time>
      </trkpt>
      <trkpt lat="48.476368" lon="10.261309">
        <ele>493.074524</ele>
        <time>2020-09-10T09:38:07.712Z</time>
      </trkpt>
      <trkpt lat="48.476266" lon="10.261384">
        <ele>493.059368</ele>
        <time>2020-09-10T09:38:09.705Z</time>
      </trkpt>
      <trkpt lat="48.476166" lon="10.261481">
        <ele>493.043489</ele>
        <time>2020-09-10T09:38:11.705Z</time>
      </trkpt>
      <trkpt lat="48.476051" lon="10.261555">
        <ele>493.026790</ele>
        <time>2020-09-10T09:38:13.704Z</time>
      </trkpt>
      <trkpt lat="48.475932" lon="10.261605">
        <ele>493.010291</ele>
        <time>2020-09-10T09:38:15.705Z</time>
      </trkpt>
      <trkpt lat="48.475813" lon="10.261657">
        <ele>492.993744</ele>
        <time>2020-09-10T09:38:17.707Z</time>
      </trkpt>
      <trkpt lat="48.475693" lon="10.261710">
        <ele>492.977043</ele>
        <time>2020-09-10T09:38:19.706Z</time>
      </trkpt>
      <trkpt lat="48.475566" lon="10.261776">
        <ele>492.959103</ele>
        <time>2020-09-10T09:38:21.709Z</time>
      </trkpt>
      <trkpt lat="48.475441" lon="10.261843">
        <ele>492.941385</ele>
        <time>2020-09-10T09:38:23.717Z</time>
      </trkpt>
      <trkpt lat="48.475316" lon="10.261903">
        <ele>492.923864</ele>
        <time>2020-09-10T09:38:25.697Z</time>
      </trkpt>
      <trkpt lat="48.475192" lon="10.261976">
        <ele>492.876008</ele>
        <time>2020-09-10T09:38:27.712Z</time>
      </trkpt>
      <trkpt lat="48.475066" lon="10.262037">
        <ele>492.826470</ele>
        <time>2020-09-10T09:38:29.698Z</time>
      </trkpt>
      <trkpt lat="48.474941" lon="10.262108">
        <ele>492.776468</ele>
        <time>2020-09-10T09:38:31.703Z</time>
      </trkpt>
      <trkpt lat="48.474819" lon="10.262170">
        <ele>492.728275</ele>
        <time>2020-09-10T09:38:33.714Z</time>
      </trkpt>
      <trkpt lat="48.474702" lon="10.262231">
        <ele>492.681934</ele>
        <time>2020-09-10T09:38:35.723Z</time>
      </trkpt>
      <trkpt lat="48.474583" lon="10.262293">
        <ele>492.634803</ele>
        <time>2020-09-10T09:38:37.705Z</time>
      </trkpt>
      <trkpt lat="48.474459" lon="10.262352">
        <ele>492.586129</ele>
        <time>2020-09-10T09:38:39.709Z</time>
      </trkpt>
      <trkpt lat="48.474342" lon="10.262422">
        <ele>492.539010</ele>
        <time>2020-09-10T09:38:41.716Z</time>
      </trkpt>
      <trkpt lat="48.474220" lon="10.262481">
        <ele>492.491050</ele>
        <time>2020-09-10T09:38:43.707Z</time>
      </trkpt>
      <trkpt lat="48.474103" lon="10.262547">
        <ele>492.444288</ele>
        <time>2020-09-10T09:38:45.705Z</time>
      </trkpt>
      <trkpt lat="48.473979" lon="10.262609">
        <ele>492.395385</ele>
        <time>2020-09-10T09:38:47.701Z</time>
      </trkpt>
      <trkpt lat="48.473858" lon="10.262666">
        <ele>492.347930</ele>
        <time>2020-09-10T09:38:49.704Z</time>
      </trkpt>
      <trkpt lat="48.473748" lon="10.262728">
        <ele>492.303971</ele>
        <time>2020-09-10T09:38:51.706Z</time>
      </trkpt>
      <trkpt lat="48.473631" lon="10.262793">
        <ele>492.257295</ele>
        <time>2020-09-10T09:38:53.710Z</time>
      </trkpt>
      <trkpt lat="48.473504" lon="10.262857">
        <ele>492.296570</ele>
        <time>2020-09-10T09:38:55.712Z</time>
      </trkpt>
      <trkpt lat="48.473376" lon="10.262924">
        <ele>492.353108</ele>
        <time>2020-09-10T09:38:57.693Z</time>
      </trkpt>
      <trkpt lat="48.473247" lon="10.262980">
        <ele>492.409123</ele>
        <time>2020-09-10T09:38:59.706Z</time>
      </trkpt>
      <trkpt lat="48.473118" lon="10.263045">
        <ele>492.465878</ele>
        <time>2020-09-10T09:39:01.700Z</time>
      </trkpt>
      <trkpt lat="48.472989" lon="10.263110">
        <ele>492.522632</ele>
        <time>2020-09-10T09:39:03.704Z</time>
      </trkpt>
      <trkpt lat="48.472871" lon="10.263179">
        <ele>492.575443</ele>
        <time>2020-09-10T09:39:05.701Z</time>
      </trkpt>
      <trkpt lat="48.472749" lon="10.263233">
        <ele>492.628499</ele>
        <time>2020-09-10T09:39:07.700Z</time>
      </trkpt>
      <trkpt lat="48.472622" lon="10.263300">
        <ele>492.684643</ele>
        <time>2020-09-10T09:39:09.698Z</time>
      </trkpt>
      <trkpt lat="48.472500" lon="10.263362">
        <ele>492.738364</ele>
        <time>2020-09-10T09:39:11.708Z</time>
      </trkpt>
      <trkpt lat="48.472375" lon="10.263430">
        <ele>492.793814</ele>
        <time>2020-09-10T09:39:13.705Z</time>
      </trkpt>
      <trkpt lat="48.472254" lon="10.263497">
        <ele>492.847601</ele>
        <time>2020-09-10T09:39:15.710Z</time>
      </trkpt>
      <trkpt lat="48.472134" lon="10.263557">
        <ele>492.900355</ele>
        <time>2020-09-10T09:39:17.707Z</time>
      </trkpt>
      <trkpt lat="48.472019" lon="10.263615">
        <ele>492.950955</ele>
        <time>2020-09-10T09:39:19.707Z</time>
      </trkpt>
      <trkpt lat="48.471903" lon="10.263678">
        <ele>492.998600</ele>
        <time>2020-09-10T09:39:21.707Z</time>
      </trkpt>
      <trkpt lat="48.471788" lon="10.263739">
        <ele>492.968956</ele>
        <time>2020-09-10T09:39:23.716Z</time>
      </trkpt>
      <trkpt lat="48.471677" lon="10.263789">
        <ele>492.940787</ele>
        <time>2020-09-10T09:39:25.713Z</time>
      </trkpt>
      <trkpt lat="48.471565" lon="10.263851">
        <ele>492.911775</ele>
        <time>2020-09-10T09:39:27.702Z</time>
      </trkpt>
      <trkpt lat="48.471449" lon="10.263918">
        <ele>492.881570</ele>
        <time>2020-09-10T09:39:29.711Z</time>
      </trkpt>
      <trkpt lat="48.471336" lon="10.263976">
        <ele>492.852544</ele>
        <time>2020-09-10T09:39:31.694Z</time>
      </trkpt>
      <trkpt lat="48.471229" lon="10.264037">
        <ele>492.824728</ele>
        <time>2020-09-10T09:39:33.707Z</time>
      </trkpt>
      <trkpt lat="48.471121" lon="10.264092">
        <ele>492.797009</ele>
        <time>2020-09-10T09:39:35.693Z</time>
      </trkpt>
      <trkpt lat="48.471013" lon="10.264154">
        <ele>492.768909</ele>
        <time>2020-09-10T09:39:37.708Z</time>
      </trkpt>
      <trkpt lat="48.470906" lon="10.264213">
        <ele>492.741206</ele>
        <time>2020-09-10T09:39:39.708Z</time>
      </trkpt>
      <trkpt lat="48.470795" lon="10.264279">
        <ele>492.712192</ele>
        <time>2020-09-10T09:39:41.705Z</time>
      </trkpt>
      <trkpt lat="48.470690" lon="10.264337">
        <ele>492.685001</ele>
        <time>2020-09-10T09:39:43.717Z</time>
      </trkpt>
      <trkpt lat="48.470584" lon="10.264389">
        <ele>492.657895</ele>
        <time>2020-09-10T09:39:45.704Z</time>
      </trkpt>
      <trkpt lat="48.470485" lon="10.264451">
        <ele>492.631829</ele>
        <time>2020-09-10T09:39:47.728Z</time>
      </trkpt>
      <trkpt lat="48.470386" lon="10.264508">
        <ele>492.606061</ele>
        <time>2020-09-10T09:39:49.709Z</time>
      </trkpt>
      <trkpt lat="48.470287" lon="10.264573">
        <ele>492.579805</ele>
        <time>2020-09-10T09:39:51.716Z</time>
      </trkpt>
      <trkpt lat="48.470189" lon="10.264626">
        <ele>492.560321</ele>
        <time>2020-09-10T09:39:53.696Z</time>
      </trkpt>
      <trkpt lat="48.470088" lon="10.264682">
        <ele>492.552914</ele>
        <time>2020-09-10T09:39:55.698Z</time>
      </trkpt>
      <trkpt lat="48.469989" lon="10.264736">
        <ele>492.545669</ele>
        <time>2020-09-10T09:39:57.706Z</time>
      </trkpt>
      <trkpt lat="48.469894" lon="10.264783">
        <ele>492.538788</ele>
        <time>2020-09-10T09:39:59.700Z</time>
      </trkpt>
      <trkpt lat="48.469804" lon="10.264830">
        <ele>492.532232</ele>
        <time>2020-09-10T09:40:01.701Z</time>
      </trkpt>
      <trkpt lat="48.469710" lon="10.264884">
        <ele>492.525309</ele>
        <time>2020-09-10T09:40:03.705Z</time>
      </trkpt>
      <trkpt lat="48.469615" lon="10.264938">
        <ele>492.518322</ele>
        <time>2020-09-10T09:40:05.707Z</time>
      </trkpt>
      <trkpt lat="48.469521" lon="10.264988">
        <ele>492.511462</ele>
        <time>2020-09-10T09:40:07.710Z</time>
      </trkpt>
      <trkpt lat="48.469426" lon="10.265042">
        <ele>492.504475</ele>
        <time>2020-09-10T09:40:09.702Z</time>
      </trkpt>
      <trkpt lat="48.469327" lon="10.265095">
        <ele>492.497244</ele>
        <time>2020-09-10T09:40:11.708Z</time>
      </trkpt>
      <trkpt lat="48.469225" lon="10.265158">
        <ele>492.489658</ele>
        <time>2020-09-10T09:40:13.711Z</time>
      </trkpt>
      <trkpt lat="48.469117" lon="10.265216">
        <ele>492.481768</ele>
        <time>2020-09-10T09:40:15.719Z</time>
      </trkpt>
      <trkpt lat="48.469012" lon="10.265273">
        <ele>492.474087</ele>
        <time>2020-09-10T09:40:17.719Z</time>
      </trkpt>
      <trkpt lat="48.468926" lon="10.265327">
        <ele>492.467676</ele>
        <time>2020-09-10T09:40:19.722Z</time>
      </trkpt>
      <trkpt lat="48.468840" lon="10.265376">
        <ele>492.461349</ele>
        <time>2020-09-10T09:40:21.698Z</time>
      </trkpt>
      <trkpt lat="48.468743" lon="10.265427">
        <ele>492.454279</ele>
        <time>2020-09-10T09:40:23.700Z</time>
      </trkpt>
      <trkpt lat="48.468633" lon="10.265483">
        <ele>492.446288</ele>
        <time>2020-09-10T09:40:25.701Z</time>
      </trkpt>
      <trkpt lat="48.468522" lon="10.265541">
        <ele>492.446763</ele>
        <time>2020-09-10T09:40:27.710Z</time>
      </trkpt>
      <trkpt lat="48.468419" lon="10.265598">
        <ele>492.542257</ele>
        <time>2020-09-10T09:40:29.700Z</time>
      </trkpt>
      <trkpt lat="48.468314" lon="10.265666">
        <ele>492.641716</ele>
        <time>2020-09-10T09:40:31.701Z</time>
      </trkpt>
      <trkpt lat="48.468204" lon="10.265728">
        <ele>492.743926</ele>
        <time>2020-09-10T09:40:33.701Z</time>
      </trkpt>
      <trkpt lat="48.468090" lon="10.265788">
        <ele>492.849019</ele>
        <time>2020-09-10T09:40:35.698Z</time>
      </trkpt>
      <trkpt lat="48.467988" lon="10.265846">
        <ele>492.943898</ele>
        <time>2020-09-10T09:40:37.704Z</time>
      </trkpt>
      <trkpt lat="48.467892" lon="10.265893">
        <ele>493.031748</ele>
        <time>2020-09-10T09:40:39.703Z</time>
      </trkpt>
      <trkpt lat="48.467791" lon="10.265948">
        <ele>493.125211</ele>
        <time>2020-09-10T09:40:41.701Z</time>
      </trkpt>
      <trkpt lat="48.467689" lon="10.266023">
        <ele>493.223980</ele>
        <time>2020-09-10T09:40:43.704Z</time>
      </trkpt>
      <trkpt lat="48.467572" lon="10.266101">
        <ele>493.335320</ele>
        <time>2020-09-10T09:40:45.731Z</time>
      </trkpt>
      <trkpt lat="48.467462" lon="10.266173">
        <ele>493.439691</ele>
        <time>2020-09-10T09:40:47.706Z</time>
      </trkpt>
      <trkpt lat="48.467352" lon="10.266229">
        <ele>493.540741</ele>
        <time>2020-09-10T09:40:49.696Z</time>
      </trkpt>
      <trkpt lat="48.467244" lon="10.266279">
        <ele>493.639072</ele>
        <time>2020-09-10T09:40:51.697Z</time>
      </trkpt>
      <trkpt lat="48.467137" lon="10.266324">
        <ele>493.735756</ele>
        <time>2020-09-10T09:40:53.702Z</time>
      </trkpt>
      <trkpt lat="48.467040" lon="10.266366">
        <ele>493.823594</ele>
        <time>2020-09-10T09:40:55.707Z</time>
      </trkpt>
      <trkpt lat="48.466941" lon="10.266420">
        <ele>493.915225</ele>
        <time>2020-09-10T09:40:57.704Z</time>
      </trkpt>
      <trkpt lat="48.466834" lon="10.266483">
        <ele>494.001988</ele>
        <time>2020-09-10T09:40:59.703Z</time>
      </trkpt>
      <trkpt lat="48.466737" lon="10.266539">
        <ele>493.982344</ele>
        <time>2020-09-10T09:41:01.704Z</time>
      </trkpt>
      <trkpt lat="48.466642" lon="10.266587">
        <ele>493.963394</ele>
        <time>2020-09-10T09:41:03.701Z</time>
      </trkpt>
      <trkpt lat="48.466539" lon="10.266644">
        <ele>493.942644</ele>
        <time>2020-09-10T09:41:05.709Z</time>
      </trkpt>
      <trkpt lat="48.466433" lon="10.266705">
        <ele>493.921186</ele>
        <time>2020-09-10T09:41:07.704Z</time>
      </trkpt>
      <trkpt lat="48.466337" lon="10.266765">
        <ele>493.901532</ele>
        <time>2020-09-10T09:41:09.710Z</time>
      </trkpt>
      <trkpt lat="48.466238" lon="10.266817">
        <ele>493.881704</ele>
        <time>2020-09-10T09:41:11.707Z</time>
      </trkpt>
      <trkpt lat="48.466131" lon="10.266854">
        <ele>493.860942</ele>
        <time>2020-09-10T09:41:13.694Z</time>
      </trkpt>
      <trkpt lat="48.466027" lon="10.266893">
        <ele>493.840673</ele>
        <time>2020-09-10T09:41:15.706Z</time>
      </trkpt>
      <trkpt lat="48.465924" lon="10.266948">
        <ele>493.820007</ele>
        <time>2020-09-10T09:41:17.694Z</time>
      </trkpt>
      <trkpt lat="48.465818" lon="10.267004">
        <ele>493.798765</ele>
        <time>2020-09-10T09:41:19.703Z</time>
      </trkpt>
      <trkpt lat="48.465711" lon="10.267061">
        <ele>493.777302</ele>
        <time>2020-09-10T09:41:21.699Z</time>
      </trkpt>
      <trkpt lat="48.465604" lon="10.267113">
        <ele>493.756040</ele>
        <time>2020-09-10T09:41:23.694Z</time>
      </trkpt>
      <trkpt lat="48.465505" lon="10.267151">
        <ele>493.736719</ele>
        <time>2020-09-10T09:41:25.696Z</time>
      </trkpt>
      <trkpt lat="48.465414" lon="10.267194">
        <ele>493.718683</ele>
        <time>2020-09-10T09:41:27.701Z</time>
      </trkpt>
      <trkpt lat="48.465319" lon="10.267243">
        <ele>493.699694</ele>
        <time>2020-09-10T09:41:29.702Z</time>
      </trkpt>
      <trkpt lat="48.465211" lon="10.267298">
        <ele>493.678134</ele>
        <time>2020-09-10T09:41:31.701Z</time>
      </trkpt>
      <trkpt lat="48.465106" lon="10.267332">
        <ele>493.665524</ele>
        <time>2020-09-10T09:41:33.698Z</time>
      </trkpt>
      <trkpt lat="48.464992" lon="10.267354">
        <ele>493.670188</ele>
        <time>2020-09-10T09:41:35.705Z</time>
      </trkpt>
      <trkpt lat="48.464869" lon="10.267352">
        <ele>493.675179</ele>
        <time>2020-09-10T09:41:37.701Z</time>
      </trkpt>
      <trkpt lat="48.464750" lon="10.267340">
        <ele>493.680018</ele>
        <time>2020-09-10T09:41:39.697Z</time>
      </trkpt>
      <trkpt lat="48.464639" lon="10.267333">
        <ele>493.684526</ele>
        <time>2020-09-10T09:41:41.702Z</time>
      </trkpt>
      <trkpt lat="48.464533" lon="10.267331">
        <ele>493.688828</ele>
        <time>2020-09-10T09:41:43.709Z</time>
      </trkpt>
      <trkpt lat="48.464420" lon="10.267345">
        <ele>493.693428</ele>
        <time>2020-09-10T09:41:45.702Z</time>
      </trkpt>
      <trkpt lat="48.464298" lon="10.267356">
        <ele>493.698388</ele>
        <time>2020-09-10T09:41:47.705Z</time>
      </trkpt>
      <trkpt lat="48.464185" lon="10.267396">
        <ele>493.703097</ele>
        <time>2020-09-10T09:41:49.698Z</time>
      </trkpt>
      <trkpt lat="48.464077" lon="10.267441">
        <ele>493.707644</ele>
        <time>2020-09-10T09:41:51.710Z</time>
      </trkpt>
      <trkpt lat="48.463972" lon="10.267474">
        <ele>493.711996</ele>
        <time>2020-09-10T09:41:53.704Z</time>
      </trkpt>
      <trkpt lat="48.463869" lon="10.267504">
        <ele>493.716253</ele>
        <time>2020-09-10T09:41:55.701Z</time>
      </trkpt>
      <trkpt lat="48.463769" lon="10.267524">
        <ele>493.720346</ele>
        <time>2020-09-10T09:41:57.695Z</time>
      </trkpt>
      <trkpt lat="48.463676" lon="10.267562">
        <ele>493.724256</ele>
        <time>2020-09-10T09:41:59.695Z</time>
      </trkpt>
      <trkpt lat="48.463585" lon="10.267591">
        <ele>493.728030</ele>
        <time>2020-09-10T09:42:01.702Z</time>
      </trkpt>
      <trkpt lat="48.463485" lon="10.267627">
        <ele>493.732201</ele>
        <time>2020-09-10T09:42:03.699Z</time>
      </trkpt>
      <trkpt lat="48.463371" lon="10.267661">
        <ele>493.736917</ele>
        <time>2020-09-10T09:42:05.701Z</time>
      </trkpt>
      <trkpt lat="48.463260" lon="10.267718">
        <ele>493.714808</ele>
        <time>2020-09-10T09:42:07.704Z</time>
      </trkpt>
      <trkpt lat="48.463149" lon="10.267764">
        <ele>493.691762</ele>
        <time>2020-09-10T09:42:09.698Z</time>
      </trkpt>
      <trkpt lat="48.463044" lon="10.267807">
        <ele>493.669980</ele>
        <time>2020-09-10T09:42:11.701Z</time>
      </trkpt>
      <trkpt lat="48.462942" lon="10.267845">
        <ele>493.648945</ele>
        <time>2020-09-10T09:42:13.702Z</time>
      </trkpt>
      <trkpt lat="48.462832" lon="10.267891">
        <ele>493.626092</ele>
        <time>2020-09-10T09:42:15.708Z</time>
      </trkpt>
      <trkpt lat="48.462723" lon="10.267951">
        <ele>493.602862</ele>
        <time>2020-09-10T09:42:17.707Z</time>
      </trkpt>
      <trkpt lat="48.462615" lon="10.268019">
        <ele>493.579431</ele>
        <time>2020-09-10T09:42:19.705Z</time>
      </trkpt>
      <trkpt lat="48.462521" lon="10.268076">
        <ele>493.559148</ele>
        <time>2020-09-10T09:42:21.728Z</time>
      </trkpt>
      <trkpt lat="48.462419" lon="10.268121">
        <ele>493.537871</ele>
        <time>2020-09-10T09:42:23.702Z</time>
      </trkpt>
      <trkpt lat="48.462337" lon="10.268185">
        <ele>493.519386</ele>
        <time>2020-09-10T09:42:25.703Z</time>
      </trkpt>
      <trkpt lat="48.462248" lon="10.268279">
        <ele>493.497633</ele>
        <time>2020-09-10T09:42:27.706Z</time>
      </trkpt>
      <trkpt lat="48.462152" lon="10.268351">
        <ele>493.476168</ele>
        <time>2020-09-10T09:42:29.693Z</time>
      </trkpt>
      <trkpt lat="48.462053" lon="10.268414">
        <ele>493.454655</ele>
        <time>2020-09-10T09:42:31.699Z</time>
      </trkpt>
      <trkpt lat="48.461957" lon="10.268487">
        <ele>493.433131</ele>
        <time>2020-09-10T09:42:33.695Z</time>
      </trkpt>
      <trkpt lat="48.461868" lon="10.268535">
        <ele>493.414208</ele>
        <time>2020-09-10T09:42:35.703Z</time>
      </trkpt>
      <trkpt lat="48.461770" lon="10.268573">
        <ele>493.393950</ele>
        <time>2020-09-10T09:42:37.698Z</time>
      </trkpt>
      <trkpt lat="48.461672" lon="10.268611">
        <ele>493.392295</ele>
        <time>2020-09-10T09:42:39.701Z</time>
      </trkpt>
      <trkpt lat="48.461575" lon="10.268639">
        <ele>493.481878</ele>
        <time>2020-09-10T09:42:41.699Z</time>
      </trkpt>
      <trkpt lat="48.461449" lon="10.268634">
        <ele>493.596208</ele>
        <time>2020-09-10T09:42:44.706Z</time>
      </trkpt>
      <trkpt lat="48.461333" lon="10.268678">
        <ele>493.704705</ele>
        <time>2020-09-10T09:42:47.713Z</time>
      </trkpt>
      <trkpt lat="48.461221" lon="10.268753">
        <ele>493.815862</ele>
        <time>2020-09-10T09:42:50.712Z</time>
      </trkpt>
      <trkpt lat="48.461141" lon="10.268835">
        <ele>493.903603</ele>
        <time>2020-09-10T09:42:52.700Z</time>
      </trkpt>
      <trkpt lat="48.461040" lon="10.268867">
        <ele>493.997217</ele>
        <time>2020-09-10T09:42:54.685Z</time>
      </trkpt>
      <trkpt lat="48.460935" lon="10.268898">
        <ele>494.094268</ele>
        <time>2020-09-10T09:42:56.707Z</time>
      </trkpt>
      <trkpt lat="48.460831" lon="10.268929">
        <ele>494.190428</ele>
        <time>2020-09-10T09:42:58.693Z</time>
      </trkpt>
      <trkpt lat="48.460736" lon="10.268936">
        <ele>494.276702</ele>
        <time>2020-09-10T09:43:00.705Z</time>
      </trkpt>
      <trkpt lat="48.460642" lon="10.268947">
        <ele>494.362223</ele>
        <time>2020-09-10T09:43:02.694Z</time>
      </trkpt>
      <trkpt lat="48.460508" lon="10.268997">
        <ele>494.487435</ele>
        <time>2020-09-10T09:43:05.722Z</time>
      </trkpt>
      <trkpt lat="48.460413" lon="10.269041">
        <ele>494.577579</ele>
        <time>2020-09-10T09:43:07.699Z</time>
      </trkpt>
      <trkpt lat="48.460319" lon="10.269088">
        <ele>494.667408</ele>
        <time>2020-09-10T09:43:09.698Z</time>
      </trkpt>
      <trkpt lat="48.460228" lon="10.269128">
        <ele>494.753387</ele>
        <time>2020-09-10T09:43:11.699Z</time>
      </trkpt>
      <trkpt lat="48.460139" lon="10.269173">
        <ele>494.838533</ele>
        <time>2020-09-10T09:43:13.700Z</time>
      </trkpt>
      <trkpt lat="48.460014" lon="10.269231">
        <ele>494.957162</ele>
        <time>2020-09-10T09:43:16.707Z</time>
      </trkpt>
      <trkpt lat="48.459903" lon="10.269288">
        <ele>495.167375</ele>
        <time>2020-09-10T09:43:19.693Z</time>
      </trkpt>
      <trkpt lat="48.459787" lon="10.269341">
        <ele>495.484992</ele>
        <time>2020-09-10T09:43:22.701Z</time>
      </trkpt>
      <trkpt lat="48.459668" lon="10.269393">
        <ele>495.809652</ele>
        <time>2020-09-10T09:43:25.698Z</time>
      </trkpt>
      <trkpt lat="48.459549" lon="10.269450">
        <ele>496.136837</ele>
        <time>2020-09-10T09:43:28.701Z</time>
      </trkpt>
      <trkpt lat="48.459451" lon="10.269498">
        <ele>496.406846</ele>
        <time>2020-09-10T09:43:31.701Z</time>
      </trkpt>
      <trkpt lat="48.459349" lon="10.269551">
        <ele>496.689554</ele>
        <time>2020-09-10T09:43:34.695Z</time>
      </trkpt>
      <trkpt lat="48.459238" lon="10.269601">
        <ele>496.993122</ele>
        <time>2020-09-10T09:43:37.700Z</time>
      </trkpt>
      <trkpt lat="48.459125" lon="10.269656">
        <ele>497.304274</ele>
        <time>2020-09-10T09:43:40.697Z</time>
      </trkpt>
      <trkpt lat="48.459014" lon="10.269709">
        <ele>497.609375</ele>
        <time>2020-09-10T09:43:43.696Z</time>
      </trkpt>
      <trkpt lat="48.458910" lon="10.269758">
        <ele>497.894893</ele>
        <time>2020-09-10T09:43:46.718Z</time>
      </trkpt>
      <trkpt lat="48.458799" lon="10.269802">
        <ele>498.195643</ele>
        <time>2020-09-10T09:43:49.699Z</time>
      </trkpt>
      <trkpt lat="48.458700" lon="10.269854">
        <ele>498.470354</ele>
        <time>2020-09-10T09:43:52.701Z</time>
      </trkpt>
      <trkpt lat="48.458589" lon="10.269902">
        <ele>498.772946</ele>
        <time>2020-09-10T09:43:55.705Z</time>
      </trkpt>
      <trkpt lat="48.458463" lon="10.269967">
        <ele>499.121907</ele>
        <time>2020-09-10T09:43:58.697Z</time>
      </trkpt>
      <trkpt lat="48.458378" lon="10.270015">
        <ele>499.359751</ele>
        <time>2020-09-10T09:44:00.703Z</time>
      </trkpt>
      <trkpt lat="48.458252" lon="10.270071">
        <ele>499.703968</ele>
        <time>2020-09-10T09:44:03.716Z</time>
      </trkpt>
      <trkpt lat="48.458165" lon="10.270115">
        <ele>499.546580</ele>
        <time>2020-09-10T09:44:05.696Z</time>
      </trkpt>
      <trkpt lat="48.458081" lon="10.270163">
        <ele>499.361369</ele>
        <time>2020-09-10T09:44:07.702Z</time>
      </trkpt>
      <trkpt lat="48.457986" lon="10.270200">
        <ele>499.159069</ele>
        <time>2020-09-10T09:44:09.691Z</time>
      </trkpt>
      <trkpt lat="48.457888" lon="10.270241">
        <ele>498.949379</ele>
        <time>2020-09-10T09:44:11.687Z</time>
      </trkpt>
      <trkpt lat="48.457794" lon="10.270285">
        <ele>498.746445</ele>
        <time>2020-09-10T09:44:13.689Z</time>
      </trkpt>
      <trkpt lat="48.457703" lon="10.270321">
        <ele>498.552471</ele>
        <time>2020-09-10T09:44:15.699Z</time>
      </trkpt>
      <trkpt lat="48.457614" lon="10.270362">
        <ele>498.360597</ele>
        <time>2020-09-10T09:44:17.693Z</time>
      </trkpt>
      <trkpt lat="48.457526" lon="10.270405">
        <ele>498.169869</ele>
        <time>2020-09-10T09:44:19.698Z</time>
      </trkpt>
      <trkpt lat="48.457429" lon="10.270449">
        <ele>497.961020</ele>
        <time>2020-09-10T09:44:21.696Z</time>
      </trkpt>
      <trkpt lat="48.457330" lon="10.270499">
        <ele>497.745755</ele>
        <time>2020-09-10T09:44:23.697Z</time>
      </trkpt>
      <trkpt lat="48.457210" lon="10.270560">
        <ele>497.484657</ele>
        <time>2020-09-10T09:44:25.701Z</time>
      </trkpt>
      <trkpt lat="48.457096" lon="10.270619">
        <ele>497.236151</ele>
        <time>2020-09-10T09:44:27.703Z</time>
      </trkpt>
      <trkpt lat="48.456984" lon="10.270668">
        <ele>496.995705</ele>
        <time>2020-09-10T09:44:29.702Z</time>
      </trkpt>
      <trkpt lat="48.456868" lon="10.270709">
        <ele>496.750052</ele>
        <time>2020-09-10T09:44:31.700Z</time>
      </trkpt>
      <trkpt lat="48.456742" lon="10.270763">
        <ele>496.479974</ele>
        <time>2020-09-10T09:44:33.701Z</time>
      </trkpt>
      <trkpt lat="48.456616" lon="10.270846">
        <ele>496.196478</ele>
        <time>2020-09-10T09:44:35.713Z</time>
      </trkpt>
      <trkpt lat="48.456482" lon="10.270936">
        <ele>495.896688</ele>
        <time>2020-09-10T09:44:37.703Z</time>
      </trkpt>
      <trkpt lat="48.456333" lon="10.270960">
        <ele>495.594626</ele>
        <time>2020-09-10T09:44:39.700Z</time>
      </trkpt>
      <trkpt lat="48.456191" lon="10.270949">
        <ele>495.308005</ele>
        <time>2020-09-10T09:44:41.705Z</time>
      </trkpt>
      <trkpt lat="48.456088" lon="10.270965">
        <ele>495.099278</ele>
        <time>2020-09-10T09:44:43.702Z</time>
      </trkpt>
      <trkpt lat="48.455984" lon="10.270994">
        <ele>494.886081</ele>
        <time>2020-09-10T09:44:46.708Z</time>
      </trkpt>
      <trkpt lat="48.455867" lon="10.271010">
        <ele>494.649264</ele>
        <time>2020-09-10T09:44:49.712Z</time>
      </trkpt>
      <trkpt lat="48.455743" lon="10.271012">
        <ele>494.399291</ele>
        <time>2020-09-10T09:44:52.697Z</time>
      </trkpt>
      <trkpt lat="48.455611" lon="10.271058">
        <ele>494.126191</ele>
        <time>2020-09-10T09:44:55.698Z</time>
      </trkpt>
      <trkpt lat="48.455535" lon="10.271134">
        <ele>493.942361</ele>
        <time>2020-09-10T09:44:57.710Z</time>
      </trkpt>
      <trkpt lat="48.455455" lon="10.271246">
        <ele>493.722304</ele>
        <time>2020-09-10T09:45:00.701Z</time>
      </trkpt>
      <trkpt lat="48.455330" lon="10.271283">
        <ele>493.465519</ele>
        <time>2020-09-10T09:45:21.722Z</time>
      </trkpt>
      <trkpt lat="48.455195" lon="10.271300">
        <ele>493.192439</ele>
        <time>2020-09-10T09:45:48.703Z</time>
      </trkpt>
      <trkpt lat="48.455135" lon="10.271460">
        <ele>492.946711</ele>
        <time>2020-09-10T09:45:52.706Z</time>
      </trkpt>
      <trkpt lat="48.455100" lon="10.271606">
        <ele>492.739165</ele>
        <time>2020-09-10T09:45:55.708Z</time>
      </trkpt>
      <trkpt lat="48.454987" lon="10.271648">
        <ele>492.504561</ele>
        <time>2020-09-10T09:45:58.693Z</time>
      </trkpt>
      <trkpt lat="48.454891" lon="10.271646">
        <ele>492.371131</ele>
        <time>2020-09-10T09:46:00.708Z</time>
      </trkpt>
      <trkpt lat="48.454796" lon="10.271687">
        <ele>492.328285</ele>
        <time>2020-09-10T09:46:02.698Z</time>
      </trkpt>
      <trkpt lat="48.454709" lon="10.271829">
        <ele>492.272692</ele>
        <time>2020-09-10T09:46:05.701Z</time>
      </trkpt>
      <trkpt lat="48.454606" lon="10.271859">
        <ele>492.227205</ele>
        <time>2020-09-10T09:46:08.702Z</time>
      </trkpt>
      <trkpt lat="48.454513" lon="10.271850">
        <ele>492.186797</ele>
        <time>2020-09-10T09:46:11.713Z</time>
      </trkpt>
      <trkpt lat="48.454419" lon="10.271835">
        <ele>492.145811</ele>
        <time>2020-09-10T09:46:13.695Z</time>
      </trkpt>
      <trkpt lat="48.454289" lon="10.271834">
        <ele>492.089442</ele>
        <time>2020-09-10T09:46:16.705Z</time>
      </trkpt>
      <trkpt lat="48.454168" lon="10.271847">
        <ele>492.036843</ele>
        <time>2020-09-10T09:46:19.706Z</time>
      </trkpt>
      <trkpt lat="48.454057" lon="10.271817">
        <ele>491.987946</ele>
        <time>2020-09-10T09:46:22.702Z</time>
      </trkpt>
      <trkpt lat="48.453935" lon="10.271775">
        <ele>491.933685</ele>
        <time>2020-09-10T09:46:25.706Z</time>
      </trkpt>
      <trkpt lat="48.453828" lon="10.271740">
        <ele>491.886210</ele>
        <time>2020-09-10T09:46:28.700Z</time>
      </trkpt>
      <trkpt lat="48.453729" lon="10.271694">
        <ele>491.841292</ele>
        <time>2020-09-10T09:46:31.706Z</time>
      </trkpt>
      <trkpt lat="48.453636" lon="10.271621">
        <ele>491.795829</ele>
        <time>2020-09-10T09:46:35.697Z</time>
      </trkpt>
      <trkpt lat="48.453545" lon="10.271560">
        <ele>491.752648</ele>
        <time>2020-09-10T09:46:38.715Z</time>
      </trkpt>
      <trkpt lat="48.453454" lon="10.271526">
        <ele>491.711997</ele>
        <time>2020-09-10T09:46:40.724Z</time>
      </trkpt>
      <trkpt lat="48.453364" lon="10.271470">
        <ele>491.669780</ele>
        <time>2020-09-10T09:46:42.701Z</time>
      </trkpt>
      <trkpt lat="48.453257" lon="10.271359">
        <ele>491.613464</ele>
        <time>2020-09-10T09:46:45.695Z</time>
      </trkpt>
      <trkpt lat="48.453162" lon="10.271215">
        <ele>491.674425</ele>
        <time>2020-09-10T09:46:48.702Z</time>
      </trkpt>
      <trkpt lat="48.453087" lon="10.271119">
        <ele>491.728479</ele>
        <time>2020-09-10T09:46:50.710Z</time>
      </trkpt>
      <trkpt lat="48.453015" lon="10.271024">
        <ele>491.781047</ele>
        <time>2020-09-10T09:46:52.711Z</time>
      </trkpt>
      <trkpt lat="48.452946" lon="10.270925">
        <ele>491.833381</ele>
        <time>2020-09-10T09:46:54.701Z</time>
      </trkpt>
      <trkpt lat="48.452879" lon="10.270822">
        <ele>491.885954</ele>
        <time>2020-09-10T09:46:56.693Z</time>
      </trkpt>
      <trkpt lat="48.452812" lon="10.270713">
        <ele>491.940110</ele>
        <time>2020-09-10T09:46:58.704Z</time>
      </trkpt>
      <trkpt lat="48.452739" lon="10.270602">
        <ele>491.997073</ele>
        <time>2020-09-10T09:47:00.698Z</time>
      </trkpt>
      <trkpt lat="48.452661" lon="10.270505">
        <ele>492.052626</ele>
        <time>2020-09-10T09:47:02.699Z</time>
      </trkpt>
      <trkpt lat="48.452578" lon="10.270431">
        <ele>492.105606</ele>
        <time>2020-09-10T09:47:04.708Z</time>
      </trkpt>
      <trkpt lat="48.452497" lon="10.270357">
        <ele>492.157642</ele>
        <time>2020-09-10T09:47:06.702Z</time>
      </trkpt>
      <trkpt lat="48.452389" lon="10.270248">
        <ele>492.229049</ele>
        <time>2020-09-10T09:47:09.702Z</time>
      </trkpt>
      <trkpt lat="48.452288" lon="10.270168">
        <ele>492.291734</ele>
        <time>2020-09-10T09:47:12.694Z</time>
      </trkpt>
      <trkpt lat="48.452194" lon="10.270073">
        <ele>492.353910</ele>
        <time>2020-09-10T09:47:15.708Z</time>
      </trkpt>
      <trkpt lat="48.452097" lon="10.270007">
        <ele>492.412381</ele>
        <time>2020-09-10T09:47:18.705Z</time>
      </trkpt>
      <trkpt lat="48.451979" lon="10.269940">
        <ele>492.481660</ele>
        <time>2020-09-10T09:47:21.701Z</time>
      </trkpt>
      <trkpt lat="48.451858" lon="10.269875">
        <ele>492.552236</ele>
        <time>2020-09-10T09:47:24.702Z</time>
      </trkpt>
      <trkpt lat="48.451771" lon="10.269839">
        <ele>492.600311</ele>
        <time>2020-09-10T09:47:26.715Z</time>
      </trkpt>
      <trkpt lat="48.451638" lon="10.269811">
        <ele>492.655276</ele>
        <time>2020-09-10T09:47:29.700Z</time>
      </trkpt>
      <trkpt lat="48.451546" lon="10.269812">
        <ele>492.692932</ele>
        <time>2020-09-10T09:47:31.702Z</time>
      </trkpt>
      <trkpt lat="48.451416" lon="10.269810">
        <ele>492.746144</ele>
        <time>2020-09-10T09:47:34.698Z</time>
      </trkpt>
      <trkpt lat="48.451323" lon="10.269807">
        <ele>492.784217</ele>
        <time>2020-09-10T09:47:36.703Z</time>
      </trkpt>
      <trkpt lat="48.451226" lon="10.269811">
        <ele>492.823934</ele>
        <time>2020-09-10T09:47:38.699Z</time>
      </trkpt>
      <trkpt lat="48.451125" lon="10.269818">
        <ele>492.865317</ele>
        <time>2020-09-10T09:47:40.699Z</time>
      </trkpt>
      <trkpt lat="48.451017" lon="10.269805">
        <ele>492.909662</ele>
        <time>2020-09-10T09:47:42.706Z</time>
      </trkpt>
      <trkpt lat="48.450913" lon="10.269784">
        <ele>492.952609</ele>
        <time>2020-09-10T09:47:44.702Z</time>
      </trkpt>
      <trkpt lat="48.450817" lon="10.269736">
        <ele>492.994006</ele>
        <time>2020-09-10T09:47:46.705Z</time>
      </trkpt>
      <trkpt lat="48.450723" lon="10.269692">
        <ele>493.034291</ele>
        <time>2020-09-10T09:47:48.703Z</time>
      </trkpt>
      <trkpt lat="48.450624" lon="10.269650">
        <ele>493.076386</ele>
        <time>2020-09-10T09:47:50.705Z</time>
      </trkpt>
      <trkpt lat="48.450524" lon="10.269611">
        <ele>493.118663</ele>
        <time>2020-09-10T09:47:52.709Z</time>
      </trkpt>
      <trkpt lat="48.450424" lon="10.269583">
        <ele>493.160292</ele>
        <time>2020-09-10T09:47:54.708Z</time>
      </trkpt>
      <trkpt lat="48.450322" lon="10.269571">
        <ele>493.202168</ele>
        <time>2020-09-10T09:47:56.696Z</time>
      </trkpt>
      <trkpt lat="48.450189" lon="10.269614">
        <ele>493.257842</ele>
        <time>2020-09-10T09:47:59.701Z</time>
      </trkpt>
      <trkpt lat="48.450101" lon="10.269663">
        <ele>493.296238</ele>
        <time>2020-09-10T09:48:01.694Z</time>
      </trkpt>
      <trkpt lat="48.449999" lon="10.269762">
        <ele>493.355173</ele>
        <time>2020-09-10T09:48:04.698Z</time>
      </trkpt>
      <trkpt lat="48.449914" lon="10.269914">
        <ele>493.445564</ele>
        <time>2020-09-10T09:48:07.719Z</time>
      </trkpt>
      <trkpt lat="48.449843" lon="10.270071">
        <ele>493.531958</ele>
        <time>2020-09-10T09:48:10.733Z</time>
      </trkpt>
      <trkpt lat="48.449771" lon="10.270215">
        <ele>493.613946</ele>
        <time>2020-09-10T09:48:13.700Z</time>
      </trkpt>
      <trkpt lat="48.449690" lon="10.270363">
        <ele>493.701185</ele>
        <time>2020-09-10T09:48:16.702Z</time>
      </trkpt>
      <trkpt lat="48.449641" lon="10.270493">
        <ele>493.769167</ele>
        <time>2020-09-10T09:48:18.703Z</time>
      </trkpt>
      <trkpt lat="48.449610" lon="10.270639">
        <ele>493.838866</ele>
        <time>2020-09-10T09:48:20.713Z</time>
      </trkpt>
      <trkpt lat="48.449578" lon="10.270789">
        <ele>493.910505</ele>
        <time>2020-09-10T09:48:22.704Z</time>
      </trkpt>
      <trkpt lat="48.449547" lon="10.270930">
        <ele>493.978041</ele>
        <time>2020-09-10T09:48:24.707Z</time>
      </trkpt>
      <trkpt lat="48.449505" lon="10.271056">
        <ele>494.042156</ele>
        <time>2020-09-10T09:48:26.702Z</time>
      </trkpt>
      <trkpt lat="48.449428" lon="10.271226">
        <ele>494.135750</ele>
        <time>2020-09-10T09:48:29.705Z</time>
      </trkpt>
      <trkpt lat="48.449364" lon="10.271343">
        <ele>494.204701</ele>
        <time>2020-09-10T09:48:31.699Z</time>
      </trkpt>
      <trkpt lat="48.449294" lon="10.271470">
        <ele>494.279778</ele>
        <time>2020-09-10T09:48:33.696Z</time>
      </trkpt>
      <trkpt lat="48.449225" lon="10.271606">
        <ele>494.357626</ele>
        <time>2020-09-10T09:48:35.709Z</time>
      </trkpt>
      <trkpt lat="48.449175" lon="10.271751">
        <ele>494.431929</ele>
        <time>2020-09-10T09:48:37.695Z</time>
      </trkpt>
      <trkpt lat="48.449134" lon="10.271912">
        <ele>494.510339</ele>
        <time>2020-09-10T09:48:39.700Z</time>
      </trkpt>
      <trkpt lat="48.449097" lon="10.272048">
        <ele>494.567003</ele>
        <time>2020-09-10T09:48:41.702Z</time>
      </trkpt>
      <trkpt lat="48.449043" lon="10.272220">
        <ele>494.580975</ele>
        <time>2020-09-10T09:48:44.703Z</time>
      </trkpt>
      <trkpt lat="48.448955" lon="10.272271">
        <ele>494.591411</ele>
        <time>2020-09-10T09:48:48.723Z</time>
      </trkpt>
      <trkpt lat="48.448861" lon="10.272204">
        <ele>494.602920</ele>
        <time>2020-09-10T09:48:51.720Z</time>
      </trkpt>
      <trkpt lat="48.448734" lon="10.272120">
        <ele>494.618271</ele>
        <time>2020-09-10T09:48:54.709Z</time>
      </trkpt>
      <trkpt lat="48.448633" lon="10.272070">
        <ele>494.630038</ele>
        <time>2020-09-10T09:48:56.685Z</time>
      </trkpt>
      <trkpt lat="48.448540" lon="10.272027">
        <ele>494.640806</ele>
        <time>2020-09-10T09:48:58.690Z</time>
      </trkpt>
      <trkpt lat="48.448440" lon="10.272009">
        <ele>494.651954</ele>
        <time>2020-09-10T09:49:00.697Z</time>
      </trkpt>
      <trkpt lat="48.448338" lon="10.271970">
        <ele>494.663602</ele>
        <time>2020-09-10T09:49:02.689Z</time>
      </trkpt>
      <trkpt lat="48.448215" lon="10.271942">
        <ele>494.677372</ele>
        <time>2020-09-10T09:49:04.707Z</time>
      </trkpt>
      <trkpt lat="48.448101" lon="10.271906">
        <ele>494.690264</ele>
        <time>2020-09-10T09:49:06.705Z</time>
      </trkpt>
      <trkpt lat="48.448014" lon="10.271868">
        <ele>494.700291</ele>
        <time>2020-09-10T09:49:08.704Z</time>
      </trkpt>
      <trkpt lat="48.447936" lon="10.271776">
        <ele>494.711253</ele>
        <time>2020-09-10T09:49:10.691Z</time>
      </trkpt>
      <trkpt lat="48.447861" lon="10.271677">
        <ele>494.722287</ele>
        <time>2020-09-10T09:49:12.691Z</time>
      </trkpt>
      <trkpt lat="48.447784" lon="10.271568">
        <ele>494.733979</ele>
        <time>2020-09-10T09:49:14.691Z</time>
      </trkpt>
      <trkpt lat="48.447703" lon="10.271469">
        <ele>494.745522</ele>
        <time>2020-09-10T09:49:16.688Z</time>
      </trkpt>
      <trkpt lat="48.447629" lon="10.271364">
        <ele>494.756770</ele>
        <time>2020-09-10T09:49:18.691Z</time>
      </trkpt>
      <trkpt lat="48.447555" lon="10.271252">
        <ele>494.786956</ele>
        <time>2020-09-10T09:49:21.701Z</time>
      </trkpt>
      <trkpt lat="48.447492" lon="10.271096">
        <ele>494.859181</ele>
        <time>2020-09-10T09:49:25.682Z</time>
      </trkpt>
      <trkpt lat="48.447442" lon="10.270918">
        <ele>494.935623</ele>
        <time>2020-09-10T09:49:28.694Z</time>
      </trkpt>
      <trkpt lat="48.447417" lon="10.270781">
        <ele>494.991813</ele>
        <time>2020-09-10T09:49:30.702Z</time>
      </trkpt>
      <trkpt lat="48.447371" lon="10.270608">
        <ele>495.065518</ele>
        <time>2020-09-10T09:49:33.696Z</time>
      </trkpt>
      <trkpt lat="48.447324" lon="10.270472">
        <ele>495.126161</ele>
        <time>2020-09-10T09:49:36.687Z</time>
      </trkpt>
      <trkpt lat="48.447274" lon="10.270331">
        <ele>495.189388</ele>
        <time>2020-09-10T09:49:40.687Z</time>
      </trkpt>
      <trkpt lat="48.447152" lon="10.270306">
        <ele>495.262791</ele>
        <time>2020-09-10T09:49:43.687Z</time>
      </trkpt>
      <trkpt lat="48.447057" lon="10.270298">
        <ele>495.319517</ele>
        <time>2020-09-10T09:49:45.690Z</time>
      </trkpt>
      <trkpt lat="48.446962" lon="10.270291">
        <ele>495.376222</ele>
        <time>2020-09-10T09:49:47.710Z</time>
      </trkpt>
      <trkpt lat="48.446870" lon="10.270284">
        <ele>495.431141</ele>
        <time>2020-09-10T09:49:49.698Z</time>
      </trkpt>
      <trkpt lat="48.446779" lon="10.270273">
        <ele>495.485568</ele>
        <time>2020-09-10T09:49:51.727Z</time>
      </trkpt>
      <trkpt lat="48.446650" lon="10.270248">
        <ele>495.563108</ele>
        <time>2020-09-10T09:49:54.681Z</time>
      </trkpt>
      <trkpt lat="48.446541" lon="10.270236">
        <ele>495.628265</ele>
        <time>2020-09-10T09:49:56.701Z</time>
      </trkpt>
      <trkpt lat="48.446410" lon="10.270209">
        <ele>495.707092</ele>
        <time>2020-09-10T09:49:59.701Z</time>
      </trkpt>
      <trkpt lat="48.446289" lon="10.270193">
        <ele>495.779507</ele>
        <time>2020-09-10T09:50:02.703Z</time>
      </trkpt>
      <trkpt lat="48.446160" lon="10.270186">
        <ele>495.845816</ele>
        <time>2020-09-10T09:50:05.699Z</time>
      </trkpt>
      <trkpt lat="48.446028" lon="10.270160">
        <ele>495.882931</ele>
        <time>2020-09-10T09:50:08.696Z</time>
      </trkpt>
      <trkpt lat="48.445929" lon="10.270151">
        <ele>495.910582</ele>
        <time>2020-09-10T09:50:11.700Z</time>
      </trkpt>
      <trkpt lat="48.445817" lon="10.270154">
        <ele>495.941813</ele>
        <time>2020-09-10T09:50:18.687Z</time>
      </trkpt>
      <trkpt lat="48.445716" lon="10.270126">
        <ele>495.970444</ele>
        <time>2020-09-10T09:50:21.716Z</time>
      </trkpt>
      <trkpt lat="48.445586" lon="10.270070">
        <ele>496.008139</ele>
        <time>2020-09-10T09:50:24.695Z</time>
      </trkpt>
      <trkpt lat="48.445488" lon="10.270053">
        <ele>496.035642</ele>
        <time>2020-09-10T09:50:26.706Z</time>
      </trkpt>
      <trkpt lat="48.445385" lon="10.270033">
        <ele>496.064595</ele>
        <time>2020-09-10T09:50:28.699Z</time>
      </trkpt>
      <trkpt lat="48.445286" lon="10.270014">
        <ele>496.092419</ele>
        <time>2020-09-10T09:50:30.705Z</time>
      </trkpt>
      <trkpt lat="48.445185" lon="10.270011">
        <ele>496.120584</ele>
        <time>2020-09-10T09:50:32.693Z</time>
      </trkpt>
      <trkpt lat="48.445085" lon="10.269995">
        <ele>496.148621</ele>
        <time>2020-09-10T09:50:34.692Z</time>
      </trkpt>
      <trkpt lat="48.444981" lon="10.269985">
        <ele>496.177675</ele>
        <time>2020-09-10T09:50:36.681Z</time>
      </trkpt>
      <trkpt lat="48.444884" lon="10.269984">
        <ele>496.204719</ele>
        <time>2020-09-10T09:50:38.692Z</time>
      </trkpt>
      <trkpt lat="48.444781" lon="10.269987">
        <ele>496.233441</ele>
        <time>2020-09-10T09:50:40.691Z</time>
      </trkpt>
      <trkpt lat="48.444673" lon="10.269985">
        <ele>496.263554</ele>
        <time>2020-09-10T09:50:42.698Z</time>
      </trkpt>
      <trkpt lat="48.444567" lon="10.269989">
        <ele>496.293116</ele>
        <time>2020-09-10T09:50:44.697Z</time>
      </trkpt>
      <trkpt lat="48.444468" lon="10.270000">
        <ele>496.320792</ele>
        <time>2020-09-10T09:50:46.700Z</time>
      </trkpt>
      <trkpt lat="48.444374" lon="10.270012">
        <ele>496.348783</ele>
        <time>2020-09-10T09:50:48.693Z</time>
      </trkpt>
      <trkpt lat="48.444277" lon="10.270022">
        <ele>496.380887</ele>
        <time>2020-09-10T09:50:50.696Z</time>
      </trkpt>
      <trkpt lat="48.444178" lon="10.270027">
        <ele>496.413595</ele>
        <time>2020-09-10T09:50:52.704Z</time>
      </trkpt>
      <trkpt lat="48.444086" lon="10.270006">
        <ele>496.444320</ele>
        <time>2020-09-10T09:50:54.706Z</time>
      </trkpt>
      <trkpt lat="48.443990" lon="10.269961">
        <ele>496.477516</ele>
        <time>2020-09-10T09:50:56.697Z</time>
      </trkpt>
      <trkpt lat="48.443893" lon="10.269908">
        <ele>496.511584</ele>
        <time>2020-09-10T09:50:58.691Z</time>
      </trkpt>
      <trkpt lat="48.443800" lon="10.269852">
        <ele>496.544652</ele>
        <time>2020-09-10T09:51:00.710Z</time>
      </trkpt>
      <trkpt lat="48.443704" lon="10.269786">
        <ele>496.579492</ele>
        <time>2020-09-10T09:51:02.698Z</time>
      </trkpt>
      <trkpt lat="48.443598" lon="10.269717">
        <ele>496.617616</ele>
        <time>2020-09-10T09:51:04.697Z</time>
      </trkpt>
      <trkpt lat="48.443487" lon="10.269652">
        <ele>496.656936</ele>
        <time>2020-09-10T09:51:06.694Z</time>
      </trkpt>
      <trkpt lat="48.443376" lon="10.269593">
        <ele>496.695800</ele>
        <time>2020-09-10T09:51:08.698Z</time>
      </trkpt>
      <trkpt lat="48.443273" lon="10.269556">
        <ele>496.730763</ele>
        <time>2020-09-10T09:51:10.713Z</time>
      </trkpt>
      <trkpt lat="48.443177" lon="10.269514">
        <ele>496.763770</ele>
        <time>2020-09-10T09:51:12.694Z</time>
      </trkpt>
      <trkpt lat="48.443085" lon="10.269478">
        <ele>496.795155</ele>
        <time>2020-09-10T09:51:14.699Z</time>
      </trkpt>
      <trkpt lat="48.442975" lon="10.269446">
        <ele>496.832147</ele>
        <time>2020-09-10T09:51:16.698Z</time>
      </trkpt>
      <trkpt lat="48.442867" lon="10.269438">
        <ele>496.867851</ele>
        <time>2020-09-10T09:51:18.700Z</time>
      </trkpt>
      <trkpt lat="48.442777" lon="10.269447">
        <ele>496.897634</ele>
        <time>2020-09-10T09:51:20.703Z</time>
      </trkpt>
      <trkpt lat="48.442686" lon="10.269446">
        <ele>496.927683</ele>
        <time>2020-09-10T09:51:22.698Z</time>
      </trkpt>
      <trkpt lat="48.442546" lon="10.269468">
        <ele>497.033649</ele>
        <time>2020-09-10T09:51:25.702Z</time>
      </trkpt>
      <trkpt lat="48.442449" lon="10.269505">
        <ele>497.113122</ele>
        <time>2020-09-10T09:51:27.701Z</time>
      </trkpt>
      <trkpt lat="48.442359" lon="10.269548">
        <ele>497.188112</ele>
        <time>2020-09-10T09:51:29.682Z</time>
      </trkpt>
      <trkpt lat="48.442269" lon="10.269589">
        <ele>497.262790</ele>
        <time>2020-09-10T09:51:31.698Z</time>
      </trkpt>
      <trkpt lat="48.442165" lon="10.269626">
        <ele>497.347664</ele>
        <time>2020-09-10T09:51:33.708Z</time>
      </trkpt>
      <trkpt lat="48.442067" lon="10.269666">
        <ele>497.428306</ele>
        <time>2020-09-10T09:51:35.697Z</time>
      </trkpt>
      <trkpt lat="48.441968" lon="10.269716">
        <ele>497.511236</ele>
        <time>2020-09-10T09:51:37.680Z</time>
      </trkpt>
      <trkpt lat="48.441838" lon="10.269790">
        <ele>497.621609</ele>
        <time>2020-09-10T09:51:40.684Z</time>
      </trkpt>
      <trkpt lat="48.441749" lon="10.269838">
        <ele>497.696688</ele>
        <time>2020-09-10T09:51:42.693Z</time>
      </trkpt>
      <trkpt lat="48.441658" lon="10.269892">
        <ele>497.774366</ele>
        <time>2020-09-10T09:51:44.695Z</time>
      </trkpt>
      <trkpt lat="48.441566" lon="10.269963">
        <ele>497.856459</ele>
        <time>2020-09-10T09:51:46.697Z</time>
      </trkpt>
      <trkpt lat="48.441444" lon="10.270016">
        <ele>497.957305</ele>
        <time>2020-09-10T09:51:49.721Z</time>
      </trkpt>
      <trkpt lat="48.441348" lon="10.270046">
        <ele>498.035177</ele>
        <time>2020-09-10T09:51:51.704Z</time>
      </trkpt>
      <trkpt lat="48.441250" lon="10.270084">
        <ele>498.115550</ele>
        <time>2020-09-10T09:51:53.700Z</time>
      </trkpt>
      <trkpt lat="48.441150" lon="10.270102">
        <ele>498.195542</ele>
        <time>2020-09-10T09:51:55.696Z</time>
      </trkpt>
      <trkpt lat="48.441053" lon="10.270127">
        <ele>498.273705</ele>
        <time>2020-09-10T09:51:57.701Z</time>
      </trkpt>
      <trkpt lat="48.440961" lon="10.270152">
        <ele>498.347956</ele>
        <time>2020-09-10T09:51:59.696Z</time>
      </trkpt>
      <trkpt lat="48.440864" lon="10.270185">
        <ele>498.416481</ele>
        <time>2020-09-10T09:52:01.699Z</time>
      </trkpt>
      <trkpt lat="48.440767" lon="10.270221">
        <ele>498.483346</ele>
        <time>2020-09-10T09:52:03.701Z</time>
      </trkpt>
      <trkpt lat="48.440669" lon="10.270267">
        <ele>498.552047</ele>
        <time>2020-09-10T09:52:05.698Z</time>
      </trkpt>
      <trkpt lat="48.440581" lon="10.270330">
        <ele>498.617254</ele>
        <time>2020-09-10T09:52:07.699Z</time>
      </trkpt>
      <trkpt lat="48.440484" lon="10.270398">
        <ele>498.688857</ele>
        <time>2020-09-10T09:52:09.698Z</time>
      </trkpt>
      <trkpt lat="48.440387" lon="10.270472">
        <ele>498.761624</ele>
        <time>2020-09-10T09:52:11.702Z</time>
      </trkpt>
      <trkpt lat="48.440291" lon="10.270549">
        <ele>498.834410</ele>
        <time>2020-09-10T09:52:13.690Z</time>
      </trkpt>
      <trkpt lat="48.440188" lon="10.270610">
        <ele>498.908481</ele>
        <time>2020-09-10T09:52:15.691Z</time>
      </trkpt>
      <trkpt lat="48.440084" lon="10.270651">
        <ele>498.980433</ele>
        <time>2020-09-10T09:52:17.675Z</time>
      </trkpt>
      <trkpt lat="48.439988" lon="10.270657">
        <ele>499.044745</ele>
        <time>2020-09-10T09:52:19.696Z</time>
      </trkpt>
      <trkpt lat="48.439882" lon="10.270639">
        <ele>499.116143</ele>
        <time>2020-09-10T09:52:21.691Z</time>
      </trkpt>
      <trkpt lat="48.439772" lon="10.270623">
        <ele>499.190112</ele>
        <time>2020-09-10T09:52:23.691Z</time>
      </trkpt>
      <trkpt lat="48.439670" lon="10.270577">
        <ele>499.261374</ele>
        <time>2020-09-10T09:52:25.687Z</time>
      </trkpt>
      <trkpt lat="48.439571" lon="10.270536">
        <ele>499.330093</ele>
        <time>2020-09-10T09:52:27.681Z</time>
      </trkpt>
      <trkpt lat="48.439462" lon="10.270529">
        <ele>499.403117</ele>
        <time>2020-09-10T09:52:29.707Z</time>
      </trkpt>
      <trkpt lat="48.439368" lon="10.270527">
        <ele>499.466041</ele>
        <time>2020-09-10T09:52:31.687Z</time>
      </trkpt>
      <trkpt lat="48.439277" lon="10.270527">
        <ele>499.526950</ele>
        <time>2020-09-10T09:52:33.697Z</time>
      </trkpt>
      <trkpt lat="48.439187" lon="10.270536">
        <ele>499.558004</ele>
        <time>2020-09-10T09:52:35.692Z</time>
      </trkpt>
      <trkpt lat="48.439090" lon="10.270547">
        <ele>499.540013</ele>
        <time>2020-09-10T09:52:37.707Z</time>
      </trkpt>
      <trkpt lat="48.438983" lon="10.270544">
        <ele>499.520219</ele>
        <time>2020-09-10T09:52:39.700Z</time>
      </trkpt>
      <trkpt lat="48.438886" lon="10.270553">
        <ele>499.502245</ele>
        <time>2020-09-10T09:52:41.694Z</time>
      </trkpt>
      <trkpt lat="48.438768" lon="10.270556">
        <ele>499.480417</ele>
        <time>2020-09-10T09:52:44.705Z</time>
      </trkpt>
      <trkpt lat="48.438678" lon="10.270566">
        <ele>499.463726</ele>
        <time>2020-09-10T09:52:48.695Z</time>
      </trkpt>
      <trkpt lat="48.438567" lon="10.270583">
        <ele>499.443091</ele>
        <time>2020-09-10T09:53:22.696Z</time>
      </trkpt>
      <trkpt lat="48.438458" lon="10.270587">
        <ele>499.422925</ele>
        <time>2020-09-10T09:53:27.698Z</time>
      </trkpt>
      <trkpt lat="48.438348" lon="10.270614">
        <ele>499.402312</ele>
        <time>2020-09-10T09:53:31.693Z</time>
      </trkpt>
      <trkpt lat="48.438256" lon="10.270655">
        <ele>499.384568</ele>
        <time>2020-09-10T09:53:34.704Z</time>
      </trkpt>
      <trkpt lat="48.438144" lon="10.270712">
        <ele>499.362705</ele>
        <time>2020-09-10T09:53:37.697Z</time>
      </trkpt>
      <trkpt lat="48.438051" lon="10.270748">
        <ele>499.344946</ele>
        <time>2020-09-10T09:53:39.688Z</time>
      </trkpt>
      <trkpt lat="48.437942" lon="10.270798">
        <ele>499.323873</ele>
        <time>2020-09-10T09:53:42.701Z</time>
      </trkpt>
      <trkpt lat="48.437819" lon="10.270825">
        <ele>499.300884</ele>
        <time>2020-09-10T09:53:45.691Z</time>
      </trkpt>
      <trkpt lat="48.437700" lon="10.270872">
        <ele>499.278131</ele>
        <time>2020-09-10T09:53:48.695Z</time>
      </trkpt>
      <trkpt lat="48.437582" lon="10.270894">
        <ele>499.256141</ele>
        <time>2020-09-10T09:53:51.697Z</time>
      </trkpt>
      <trkpt lat="48.437477" lon="10.270951">
        <ele>499.235500</ele>
        <time>2020-09-10T09:53:54.706Z</time>
      </trkpt>
      <trkpt lat="48.437377" lon="10.271019">
        <ele>499.286827</ele>
        <time>2020-09-10T09:53:57.703Z</time>
      </trkpt>
      <trkpt lat="48.437271" lon="10.271118">
        <ele>499.364007</ele>
        <time>2020-09-10T09:54:00.701Z</time>
      </trkpt>
      <trkpt lat="48.437185" lon="10.271187">
        <ele>499.424306</ele>
        <time>2020-09-10T09:54:02.694Z</time>
      </trkpt>
      <trkpt lat="48.437095" lon="10.271250">
        <ele>499.485724</ele>
        <time>2020-09-10T09:54:04.699Z</time>
      </trkpt>
      <trkpt lat="48.436999" lon="10.271318">
        <ele>499.551375</ele>
        <time>2020-09-10T09:54:06.706Z</time>
      </trkpt>
      <trkpt lat="48.436908" lon="10.271387">
        <ele>499.614422</ele>
        <time>2020-09-10T09:54:08.701Z</time>
      </trkpt>
      <trkpt lat="48.436816" lon="10.271462">
        <ele>499.679159</ele>
        <time>2020-09-10T09:54:10.704Z</time>
      </trkpt>
      <trkpt lat="48.436723" lon="10.271531">
        <ele>499.743315</ele>
        <time>2020-09-10T09:54:12.709Z</time>
      </trkpt>
      <trkpt lat="48.436626" lon="10.271596">
        <ele>499.809017</ele>
        <time>2020-09-10T09:54:14.691Z</time>
      </trkpt>
      <trkpt lat="48.436535" lon="10.271650">
        <ele>499.869547</ele>
        <time>2020-09-10T09:54:16.700Z</time>
      </trkpt>
      <trkpt lat="48.436438" lon="10.271694">
        <ele>499.932243</ele>
        <time>2020-09-10T09:54:18.707Z</time>
      </trkpt>
      <trkpt lat="48.436339" lon="10.271729">
        <ele>499.995180</ele>
        <time>2020-09-10T09:54:20.689Z</time>
      </trkpt>
      <trkpt lat="48.436239" lon="10.271758">
        <ele>500.058208</ele>
        <time>2020-09-10T09:54:22.689Z</time>
      </trkpt>
      <trkpt lat="48.436129" lon="10.271787">
        <ele>500.127324</ele>
        <time>2020-09-10T09:54:24.695Z</time>
      </trkpt>
      <trkpt lat="48.436021" lon="10.271830">
        <ele>500.196461</ele>
        <time>2020-09-10T09:54:26.699Z</time>
      </trkpt>
      <trkpt lat="48.435917" lon="10.271857">
        <ele>500.261777</ele>
        <time>2020-09-10T09:54:28.694Z</time>
      </trkpt>
      <trkpt lat="48.435817" lon="10.271887">
        <ele>500.324884</ele>
        <time>2020-09-10T09:54:30.707Z</time>
      </trkpt>
      <trkpt lat="48.435715" lon="10.271909">
        <ele>500.354943</ele>
        <time>2020-09-10T09:54:32.694Z</time>
      </trkpt>
      <trkpt lat="48.435612" lon="10.271931">
        <ele>500.369698</ele>
        <time>2020-09-10T09:54:34.695Z</time>
      </trkpt>
      <trkpt lat="48.435508" lon="10.271961">
        <ele>500.384717</ele>
        <time>2020-09-10T09:54:36.691Z</time>
      </trkpt>
      <trkpt lat="48.435411" lon="10.271997">
        <ele>500.398886</ele>
        <time>2020-09-10T09:54:38.697Z</time>
      </trkpt>
      <trkpt lat="48.435290" lon="10.272048">
        <ele>500.416707</ele>
        <time>2020-09-10T09:54:41.701Z</time>
      </trkpt>
      <trkpt lat="48.435175" lon="10.272126">
        <ele>500.434594</ele>
        <time>2020-09-10T09:54:44.707Z</time>
      </trkpt>
      <trkpt lat="48.435073" lon="10.272234">
        <ele>500.452274</ele>
        <time>2020-09-10T09:54:47.709Z</time>
      </trkpt>
      <trkpt lat="48.434992" lon="10.272341">
        <ele>500.467551</ele>
        <time>2020-09-10T09:54:50.688Z</time>
      </trkpt>
      <trkpt lat="48.434900" lon="10.272364">
        <ele>500.480778</ele>
        <time>2020-09-10T09:54:55.763Z</time>
      </trkpt>
      <trkpt lat="48.434839" lon="10.272491">
        <ele>500.495533</ele>
        <time>2020-09-10T09:55:00.684Z</time>
      </trkpt>
      <trkpt lat="48.434786" lon="10.272604">
        <ele>500.508555</ele>
        <time>2020-09-10T09:55:05.695Z</time>
      </trkpt>
      <trkpt lat="48.434884" lon="10.272538">
        <ele>500.523780</ele>
        <time>2020-09-10T09:55:10.696Z</time>
      </trkpt>
      <trkpt lat="48.434952" lon="10.272417">
        <ele>500.538702</ele>
        <time>2020-09-10T09:55:13.702Z</time>
      </trkpt>
      <trkpt lat="48.435044" lon="10.272302">
        <ele>500.555655</ele>
        <time>2020-09-10T09:55:16.693Z</time>
      </trkpt>
      <trkpt lat="48.435119" lon="10.272202">
        <ele>500.569858</ele>
        <time>2020-09-10T09:55:19.700Z</time>
      </trkpt>
      <trkpt lat="48.435178" lon="10.272089">
        <ele>500.583389</ele>
        <time>2020-09-10T09:55:23.710Z</time>
      </trkpt>
      <trkpt lat="48.435119" lon="10.271947">
        <ele>500.599156</ele>
        <time>2020-09-10T09:55:26.687Z</time>
      </trkpt>
      <trkpt lat="48.434999" lon="10.271965">
        <ele>500.597473</ele>
        <time>2020-09-10T09:55:29.688Z</time>
      </trkpt>
      <trkpt lat="48.434913" lon="10.272005">
        <ele>500.595458</ele>
        <time>2020-09-10T09:55:31.685Z</time>
      </trkpt>
      <trkpt lat="48.434823" lon="10.272038">
        <ele>500.593385</ele>
        <time>2020-09-10T09:55:33.692Z</time>
      </trkpt>
      <trkpt lat="48.434730" lon="10.272064">
        <ele>500.591267</ele>
        <time>2020-09-10T09:55:35.701Z</time>
      </trkpt>
      <trkpt lat="48.434639" lon="10.272084">
        <ele>500.589209</ele>
        <time>2020-09-10T09:55:37.701Z</time>
      </trkpt>
      <trkpt lat="48.434539" lon="10.272113">
        <ele>500.586929</ele>
        <time>2020-09-10T09:55:39.699Z</time>
      </trkpt>
      <trkpt lat="48.434439" lon="10.272149">
        <ele>500.584628</ele>
        <time>2020-09-10T09:55:41.703Z</time>
      </trkpt>
      <trkpt lat="48.434332" lon="10.272177">
        <ele>500.582197</ele>
        <time>2020-09-10T09:55:43.702Z</time>
      </trkpt>
      <trkpt lat="48.434222" lon="10.272200">
        <ele>500.579711</ele>
        <time>2020-09-10T09:55:45.699Z</time>
      </trkpt>
      <trkpt lat="48.434104" lon="10.272214">
        <ele>500.577061</ele>
        <time>2020-09-10T09:55:47.692Z</time>
      </trkpt>
      <trkpt lat="48.433988" lon="10.272230">
        <ele>500.574453</ele>
        <time>2020-09-10T09:55:49.702Z</time>
      </trkpt>
      <trkpt lat="48.433879" lon="10.272245">
        <ele>500.572003</ele>
        <time>2020-09-10T09:55:51.697Z</time>
      </trkpt>
      <trkpt lat="48.433765" lon="10.272258">
        <ele>500.569444</ele>
        <time>2020-09-10T09:55:53.697Z</time>
      </trkpt>
      <trkpt lat="48.433650" lon="10.272263">
        <ele>500.566868</ele>
        <time>2020-09-10T09:55:55.693Z</time>
      </trkpt>
      <trkpt lat="48.433536" lon="10.272262">
        <ele>500.564316</ele>
        <time>2020-09-10T09:55:57.687Z</time>
      </trkpt>
      <trkpt lat="48.433432" lon="10.272269">
        <ele>500.561986</ele>
        <time>2020-09-10T09:55:59.688Z</time>
      </trkpt>
      <trkpt lat="48.433322" lon="10.272280">
        <ele>500.562526</ele>
        <time>2020-09-10T09:56:01.693Z</time>
      </trkpt>
      <trkpt lat="48.433209" lon="10.272283">
        <ele>500.590188</ele>
        <time>2020-09-10T09:56:03.694Z</time>
      </trkpt>
      <trkpt lat="48.433093" lon="10.272295">
        <ele>500.618647</ele>
        <time>2020-09-10T09:56:05.705Z</time>
      </trkpt>
      <trkpt lat="48.432981" lon="10.272289">
        <ele>500.646077</ele>
        <time>2020-09-10T09:56:07.686Z</time>
      </trkpt>
      <trkpt lat="48.432859" lon="10.272299">
        <ele>500.675981</ele>
        <time>2020-09-10T09:56:09.701Z</time>
      </trkpt>
      <trkpt lat="48.432734" lon="10.272309">
        <ele>500.706619</ele>
        <time>2020-09-10T09:56:11.713Z</time>
      </trkpt>
      <trkpt lat="48.432615" lon="10.272318">
        <ele>500.735782</ele>
        <time>2020-09-10T09:56:13.693Z</time>
      </trkpt>
      <trkpt lat="48.432497" lon="10.272325">
        <ele>500.764685</ele>
        <time>2020-09-10T09:56:15.695Z</time>
      </trkpt>
      <trkpt lat="48.432377" lon="10.272331">
        <ele>500.794072</ele>
        <time>2020-09-10T09:56:17.702Z</time>
      </trkpt>
      <trkpt lat="48.432261" lon="10.272341">
        <ele>500.822510</ele>
        <time>2020-09-10T09:56:19.685Z</time>
      </trkpt>
      <trkpt lat="48.432144" lon="10.272354">
        <ele>500.851225</ele>
        <time>2020-09-10T09:56:21.692Z</time>
      </trkpt>
      <trkpt lat="48.432023" lon="10.272361">
        <ele>500.880862</ele>
        <time>2020-09-10T09:56:23.702Z</time>
      </trkpt>
      <trkpt lat="48.431901" lon="10.272366">
        <ele>500.910733</ele>
        <time>2020-09-10T09:56:25.702Z</time>
      </trkpt>
      <trkpt lat="48.431776" lon="10.272374">
        <ele>500.941355</ele>
        <time>2020-09-10T09:56:27.706Z</time>
      </trkpt>
      <trkpt lat="48.431647" lon="10.272385">
        <ele>500.972980</ele>
        <time>2020-09-10T09:56:29.702Z</time>
      </trkpt>
      <trkpt lat="48.431516" lon="10.272391">
        <ele>501.009657</ele>
        <time>2020-09-10T09:56:31.698Z</time>
      </trkpt>
      <trkpt lat="48.431389" lon="10.272399">
        <ele>501.069061</ele>
        <time>2020-09-10T09:56:33.703Z</time>
      </trkpt>
      <trkpt lat="48.431261" lon="10.272403">
        <ele>501.128893</ele>
        <time>2020-09-10T09:56:35.690Z</time>
      </trkpt>
      <trkpt lat="48.431142" lon="10.272412">
        <ele>501.184576</ele>
        <time>2020-09-10T09:56:37.694Z</time>
      </trkpt>
      <trkpt lat="48.431021" lon="10.272423">
        <ele>501.241226</ele>
        <time>2020-09-10T09:56:39.709Z</time>
      </trkpt>
      <trkpt lat="48.430898" lon="10.272425">
        <ele>501.298712</ele>
        <time>2020-09-10T09:56:41.694Z</time>
      </trkpt>
      <trkpt lat="48.430775" lon="10.272437">
        <ele>501.356315</ele>
        <time>2020-09-10T09:56:43.712Z</time>
      </trkpt>
      <trkpt lat="48.430648" lon="10.272450">
        <ele>501.415804</ele>
        <time>2020-09-10T09:56:45.698Z</time>
      </trkpt>
      <trkpt lat="48.430527" lon="10.272461">
        <ele>501.472455</ele>
        <time>2020-09-10T09:56:47.693Z</time>
      </trkpt>
      <trkpt lat="48.430404" lon="10.272480">
        <ele>501.530238</ele>
        <time>2020-09-10T09:56:49.707Z</time>
      </trkpt>
      <trkpt lat="48.430282" lon="10.272508">
        <ele>501.587911</ele>
        <time>2020-09-10T09:56:51.710Z</time>
      </trkpt>
      <trkpt lat="48.430162" lon="10.272540">
        <ele>501.644863</ele>
        <time>2020-09-10T09:56:53.700Z</time>
      </trkpt>
      <trkpt lat="48.430043" lon="10.272576">
        <ele>501.701585</ele>
        <time>2020-09-10T09:56:55.714Z</time>
      </trkpt>
      <trkpt lat="48.429939" lon="10.272614">
        <ele>501.751596</ele>
        <time>2020-09-10T09:56:57.682Z</time>
      </trkpt>
      <trkpt lat="48.429837" lon="10.272671">
        <ele>501.802436</ele>
        <time>2020-09-10T09:56:59.698Z</time>
      </trkpt>
      <trkpt lat="48.429706" lon="10.272690">
        <ele>501.866381</ele>
        <time>2020-09-10T09:57:01.690Z</time>
      </trkpt>
      <trkpt lat="48.429573" lon="10.272716">
        <ele>501.935606</ele>
        <time>2020-09-10T09:57:03.694Z</time>
      </trkpt>
      <trkpt lat="48.429460" lon="10.272745">
        <ele>501.994771</ele>
        <time>2020-09-10T09:57:05.688Z</time>
      </trkpt>
      <trkpt lat="48.429354" lon="10.272787">
        <ele>502.051344</ele>
        <time>2020-09-10T09:57:07.697Z</time>
      </trkpt>
      <trkpt lat="48.429241" lon="10.272832">
        <ele>502.111672</ele>
        <time>2020-09-10T09:57:09.685Z</time>
      </trkpt>
      <trkpt lat="48.429130" lon="10.272881">
        <ele>502.171373</ele>
        <time>2020-09-10T09:57:11.705Z</time>
      </trkpt>
      <trkpt lat="48.429013" lon="10.272919">
        <ele>502.233150</ele>
        <time>2020-09-10T09:57:13.694Z</time>
      </trkpt>
      <trkpt lat="48.428895" lon="10.272966">
        <ele>502.296148</ele>
        <time>2020-09-10T09:57:15.690Z</time>
      </trkpt>
      <trkpt lat="48.428774" lon="10.273020">
        <ele>502.361284</ele>
        <time>2020-09-10T09:57:17.696Z</time>
      </trkpt>
      <trkpt lat="48.428654" lon="10.273066">
        <ele>502.425195</ele>
        <time>2020-09-10T09:57:19.699Z</time>
      </trkpt>
      <trkpt lat="48.428532" lon="10.273106">
        <ele>502.489640</ele>
        <time>2020-09-10T09:57:21.698Z</time>
      </trkpt>
      <trkpt lat="48.428421" lon="10.273150">
        <ele>502.548882</ele>
        <time>2020-09-10T09:57:23.705Z</time>
      </trkpt>
      <trkpt lat="48.428298" lon="10.273179">
        <ele>502.613142</ele>
        <time>2020-09-10T09:57:25.708Z</time>
      </trkpt>
      <trkpt lat="48.428174" lon="10.273205">
        <ele>502.677763</ele>
        <time>2020-09-10T09:57:27.696Z</time>
      </trkpt>
      <trkpt lat="48.428050" lon="10.273212">
        <ele>502.741811</ele>
        <time>2020-09-10T09:57:29.696Z</time>
      </trkpt>
      <trkpt lat="48.427929" lon="10.273207">
        <ele>502.818832</ele>
        <time>2020-09-10T09:57:31.700Z</time>
      </trkpt>
      <trkpt lat="48.427806" lon="10.273204">
        <ele>502.908463</ele>
        <time>2020-09-10T09:57:33.685Z</time>
      </trkpt>
      <trkpt lat="48.427687" lon="10.273207">
        <ele>502.995181</ele>
        <time>2020-09-10T09:57:35.686Z</time>
      </trkpt>
      <trkpt lat="48.427569" lon="10.273222">
        <ele>503.081463</ele>
        <time>2020-09-10T09:57:37.691Z</time>
      </trkpt>
      <trkpt lat="48.427449" lon="10.273245">
        <ele>503.169601</ele>
        <time>2020-09-10T09:57:39.693Z</time>
      </trkpt>
      <trkpt lat="48.427335" lon="10.273292">
        <ele>503.255716</ele>
        <time>2020-09-10T09:57:41.692Z</time>
      </trkpt>
      <trkpt lat="48.427224" lon="10.273348">
        <ele>503.341004</ele>
        <time>2020-09-10T09:57:43.694Z</time>
      </trkpt>
      <trkpt lat="48.427115" lon="10.273411">
        <ele>503.426064</ele>
        <time>2020-09-10T09:57:45.696Z</time>
      </trkpt>
      <trkpt lat="48.427006" lon="10.273482">
        <ele>503.512584</ele>
        <time>2020-09-10T09:57:47.701Z</time>
      </trkpt>
      <trkpt lat="48.426899" lon="10.273551">
        <ele>503.597384</ele>
        <time>2020-09-10T09:57:49.693Z</time>
      </trkpt>
      <trkpt lat="48.426788" lon="10.273610">
        <ele>503.683143</ele>
        <time>2020-09-10T09:57:51.711Z</time>
      </trkpt>
      <trkpt lat="48.426677" lon="10.273659">
        <ele>503.767418</ele>
        <time>2020-09-10T09:57:53.695Z</time>
      </trkpt>
      <trkpt lat="48.426559" lon="10.273710">
        <ele>503.856861</ele>
        <time>2020-09-10T09:57:55.692Z</time>
      </trkpt>
      <trkpt lat="48.426441" lon="10.273752">
        <ele>503.945203</ele>
        <time>2020-09-10T09:57:57.690Z</time>
      </trkpt>
      <trkpt lat="48.426316" lon="10.273794">
        <ele>504.038517</ele>
        <time>2020-09-10T09:57:59.701Z</time>
      </trkpt>
      <trkpt lat="48.426197" lon="10.273836">
        <ele>504.063370</ele>
        <time>2020-09-10T09:58:01.688Z</time>
      </trkpt>
      <trkpt lat="48.426085" lon="10.273875">
        <ele>504.035309</ele>
        <time>2020-09-10T09:58:03.695Z</time>
      </trkpt>
      <trkpt lat="48.425981" lon="10.273915">
        <ele>504.009108</ele>
        <time>2020-09-10T09:58:05.695Z</time>
      </trkpt>
      <trkpt lat="48.425878" lon="10.273955">
        <ele>503.983144</ele>
        <time>2020-09-10T09:58:07.701Z</time>
      </trkpt>
      <trkpt lat="48.425771" lon="10.273991">
        <ele>503.956381</ele>
        <time>2020-09-10T09:58:09.691Z</time>
      </trkpt>
      <trkpt lat="48.425665" lon="10.274035">
        <ele>503.929542</ele>
        <time>2020-09-10T09:58:11.686Z</time>
      </trkpt>
      <trkpt lat="48.425557" lon="10.274077">
        <ele>503.902315</ele>
        <time>2020-09-10T09:58:13.689Z</time>
      </trkpt>
      <trkpt lat="48.425449" lon="10.274111">
        <ele>503.875382</ele>
        <time>2020-09-10T09:58:15.684Z</time>
      </trkpt>
      <trkpt lat="48.425333" lon="10.274154">
        <ele>503.846222</ele>
        <time>2020-09-10T09:58:17.689Z</time>
      </trkpt>
      <trkpt lat="48.425214" lon="10.274213">
        <ele>503.815641</ele>
        <time>2020-09-10T09:58:19.696Z</time>
      </trkpt>
      <trkpt lat="48.425098" lon="10.274270">
        <ele>503.785857</ele>
        <time>2020-09-10T09:58:21.690Z</time>
      </trkpt>
      <trkpt lat="48.424987" lon="10.274314">
        <ele>503.757840</ele>
        <time>2020-09-10T09:58:23.700Z</time>
      </trkpt>
      <trkpt lat="48.424877" lon="10.274352">
        <ele>503.730292</ele>
        <time>2020-09-10T09:58:25.679Z</time>
      </trkpt>
      <trkpt lat="48.424765" lon="10.274402">
        <ele>503.701777</ele>
        <time>2020-09-10T09:58:27.677Z</time>
      </trkpt>
      <trkpt lat="48.424650" lon="10.274454">
        <ele>503.672468</ele>
        <time>2020-09-10T09:58:29.686Z</time>
      </trkpt>
      <trkpt lat="48.424526" lon="10.274508">
        <ele>503.640960</ele>
        <time>2020-09-10T09:58:31.687Z</time>
      </trkpt>
      <trkpt lat="48.424416" lon="10.274562">
        <ele>503.652684</ele>
        <time>2020-09-10T09:58:33.683Z</time>
      </trkpt>
      <trkpt lat="48.424311" lon="10.274609">
        <ele>503.664523</ele>
        <time>2020-09-10T09:58:35.699Z</time>
      </trkpt>
      <trkpt lat="48.424196" lon="10.274650">
        <ele>503.677296</ele>
        <time>2020-09-10T09:58:37.681Z</time>
      </trkpt>
      <trkpt lat="48.424086" lon="10.274690">
        <ele>503.689527</ele>
        <time>2020-09-10T09:58:39.702Z</time>
      </trkpt>
      <trkpt lat="48.423984" lon="10.274758">
        <ele>503.701582</ele>
        <time>2020-09-10T09:58:41.696Z</time>
      </trkpt>
      <trkpt lat="48.423871" lon="10.274836">
        <ele>503.715017</ele>
        <time>2020-09-10T09:58:43.700Z</time>
      </trkpt>
      <trkpt lat="48.423760" lon="10.274906">
        <ele>503.728022</ele>
        <time>2020-09-10T09:58:45.715Z</time>
      </trkpt>
      <trkpt lat="48.423645" lon="10.274973">
        <ele>503.741349</ele>
        <time>2020-09-10T09:58:47.701Z</time>
      </trkpt>
      <trkpt lat="48.423532" lon="10.275025">
        <ele>503.754120</ele>
        <time>2020-09-10T09:58:49.711Z</time>
      </trkpt>
      <trkpt lat="48.423416" lon="10.275044">
        <ele>503.766731</ele>
        <time>2020-09-10T09:58:51.725Z</time>
      </trkpt>
      <trkpt lat="48.423300" lon="10.275057">
        <ele>503.779304</ele>
        <time>2020-09-10T09:58:53.686Z</time>
      </trkpt>
      <trkpt lat="48.423182" lon="10.275066">
        <ele>503.792075</ele>
        <time>2020-09-10T09:58:55.696Z</time>
      </trkpt>
      <trkpt lat="48.423068" lon="10.275073">
        <ele>503.804407</ele>
        <time>2020-09-10T09:58:57.711Z</time>
      </trkpt>
      <trkpt lat="48.422960" lon="10.275072">
        <ele>503.816080</ele>
        <time>2020-09-10T09:58:59.705Z</time>
      </trkpt>
      <trkpt lat="48.422854" lon="10.275089">
        <ele>503.827602</ele>
        <time>2020-09-10T09:59:01.697Z</time>
      </trkpt>
      <trkpt lat="48.422754" lon="10.275107">
        <ele>503.829884</ele>
        <time>2020-09-10T09:59:03.691Z</time>
      </trkpt>
      <trkpt lat="48.422674" lon="10.275173">
        <ele>503.816567</ele>
        <time>2020-09-10T09:59:05.717Z</time>
      </trkpt>
      <trkpt lat="48.422633" lon="10.275311">
        <ele>503.801917</ele>
        <time>2020-09-10T09:59:07.718Z</time>
      </trkpt>
      <trkpt lat="48.422633" lon="10.275481">
        <ele>503.785444</ele>
        <time>2020-09-10T09:59:09.703Z</time>
      </trkpt>
      <trkpt lat="48.422655" lon="10.275655">
        <ele>503.768281</ele>
        <time>2020-09-10T09:59:11.711Z</time>
      </trkpt>
      <trkpt lat="48.422685" lon="10.275830">
        <ele>503.750768</ele>
        <time>2020-09-10T09:59:13.703Z</time>
      </trkpt>
      <trkpt lat="48.422720" lon="10.276005">
        <ele>503.733058</ele>
        <time>2020-09-10T09:59:15.714Z</time>
      </trkpt>
      <trkpt lat="48.422746" lon="10.276168">
        <ele>503.716814</ele>
        <time>2020-09-10T09:59:17.708Z</time>
      </trkpt>
      <trkpt lat="48.422772" lon="10.276330">
        <ele>503.700664</ele>
        <time>2020-09-10T09:59:19.701Z</time>
      </trkpt>
      <trkpt lat="48.422807" lon="10.276499">
        <ele>503.683510</ele>
        <time>2020-09-10T09:59:21.692Z</time>
      </trkpt>
      <trkpt lat="48.422845" lon="10.276675">
        <ele>503.665577</ele>
        <time>2020-09-10T09:59:23.689Z</time>
      </trkpt>
      <trkpt lat="48.422870" lon="10.276886">
        <ele>503.644809</ele>
        <time>2020-09-10T09:59:25.698Z</time>
      </trkpt>
      <trkpt lat="48.422916" lon="10.277101">
        <ele>503.622920</ele>
        <time>2020-09-10T09:59:27.692Z</time>
      </trkpt>
      <trkpt lat="48.422957" lon="10.277292">
        <ele>503.603469</ele>
        <time>2020-09-10T09:59:29.692Z</time>
      </trkpt>
      <trkpt lat="48.422996" lon="10.277467">
        <ele>503.585582</ele>
        <time>2020-09-10T09:59:31.691Z</time>
      </trkpt>
      <trkpt lat="48.423033" lon="10.277627">
        <ele>503.559311</ele>
        <time>2020-09-10T09:59:33.699Z</time>
      </trkpt>
      <trkpt lat="48.423060" lon="10.277783">
        <ele>503.493162</ele>
        <time>2020-09-10T09:59:35.699Z</time>
      </trkpt>
      <trkpt lat="48.423070" lon="10.277946">
        <ele>503.425995</ele>
        <time>2020-09-10T09:59:37.695Z</time>
      </trkpt>
      <trkpt lat="48.423007" lon="10.278076">
        <ele>503.359946</ele>
        <time>2020-09-10T09:59:39.707Z</time>
      </trkpt>
      <trkpt lat="48.422893" lon="10.278158">
        <ele>503.281843</ele>
        <time>2020-09-10T09:59:41.691Z</time>
      </trkpt>
      <trkpt lat="48.422765" lon="10.278195">
        <ele>503.201259</ele>
        <time>2020-09-10T09:59:43.701Z</time>
      </trkpt>
      <trkpt lat="48.422642" lon="10.278237">
        <ele>503.123281</ele>
        <time>2020-09-10T09:59:45.686Z</time>
      </trkpt>
      <trkpt lat="48.422519" lon="10.278272">
        <ele>503.045888</ele>
        <time>2020-09-10T09:59:47.689Z</time>
      </trkpt>
      <trkpt lat="48.422398" lon="10.278315">
        <ele>502.969022</ele>
        <time>2020-09-10T09:59:49.714Z</time>
      </trkpt>
      <trkpt lat="48.422288" lon="10.278360">
        <ele>502.898549</ele>
        <time>2020-09-10T09:59:51.693Z</time>
      </trkpt>
      <trkpt lat="48.422180" lon="10.278415">
        <ele>502.828063</ele>
        <time>2020-09-10T09:59:53.696Z</time>
      </trkpt>
      <trkpt lat="48.422077" lon="10.278456">
        <ele>502.762195</ele>
        <time>2020-09-10T09:59:55.701Z</time>
      </trkpt>
      <trkpt lat="48.421966" lon="10.278475">
        <ele>502.693123</ele>
        <time>2020-09-10T09:59:57.689Z</time>
      </trkpt>
      <trkpt lat="48.421838" lon="10.278476">
        <ele>502.613981</ele>
        <time>2020-09-10T09:59:59.687Z</time>
      </trkpt>
      <trkpt lat="48.421705" lon="10.278472">
        <ele>502.531732</ele>
        <time>2020-09-10T10:00:01.689Z</time>
      </trkpt>
      <trkpt lat="48.421574" lon="10.278477">
        <ele>502.467593</ele>
        <time>2020-09-10T10:00:03.698Z</time>
      </trkpt>
      <trkpt lat="48.421443" lon="10.278485">
        <ele>502.531825</ele>
        <time>2020-09-10T10:00:05.695Z</time>
      </trkpt>
      <trkpt lat="48.421318" lon="10.278495">
        <ele>502.593151</ele>
        <time>2020-09-10T10:00:07.691Z</time>
      </trkpt>
      <trkpt lat="48.421196" lon="10.278504">
        <ele>502.652993</ele>
        <time>2020-09-10T10:00:09.697Z</time>
      </trkpt>
      <trkpt lat="48.421081" lon="10.278511">
        <ele>502.709379</ele>
        <time>2020-09-10T10:00:11.692Z</time>
      </trkpt>
      <trkpt lat="48.420974" lon="10.278515">
        <ele>502.761817</ele>
        <time>2020-09-10T10:00:13.698Z</time>
      </trkpt>
      <trkpt lat="48.420859" lon="10.278521">
        <ele>502.818191</ele>
        <time>2020-09-10T10:00:15.696Z</time>
      </trkpt>
      <trkpt lat="48.420743" lon="10.278519">
        <ele>502.875025</ele>
        <time>2020-09-10T10:00:17.699Z</time>
      </trkpt>
      <trkpt lat="48.420623" lon="10.278531">
        <ele>502.933945</ele>
        <time>2020-09-10T10:00:19.702Z</time>
      </trkpt>
      <trkpt lat="48.420512" lon="10.278536">
        <ele>502.988350</ele>
        <time>2020-09-10T10:00:21.697Z</time>
      </trkpt>
      <trkpt lat="48.420410" lon="10.278543">
        <ele>503.038374</ele>
        <time>2020-09-10T10:00:23.699Z</time>
      </trkpt>
      <trkpt lat="48.420293" lon="10.278552">
        <ele>503.095769</ele>
        <time>2020-09-10T10:00:25.699Z</time>
      </trkpt>
      <trkpt lat="48.420175" lon="10.278548">
        <ele>503.153594</ele>
        <time>2020-09-10T10:00:27.693Z</time>
      </trkpt>
      <trkpt lat="48.420069" lon="10.278544">
        <ele>503.205542</ele>
        <time>2020-09-10T10:00:29.698Z</time>
      </trkpt>
      <trkpt lat="48.419958" lon="10.278554">
        <ele>503.260020</ele>
        <time>2020-09-10T10:00:31.698Z</time>
      </trkpt>
      <trkpt lat="48.419840" lon="10.278577">
        <ele>503.318312</ele>
        <time>2020-09-10T10:00:33.697Z</time>
      </trkpt>
      <trkpt lat="48.419724" lon="10.278602">
        <ele>503.415160</ele>
        <time>2020-09-10T10:00:35.703Z</time>
      </trkpt>
      <trkpt lat="48.419603" lon="10.278632">
        <ele>503.544111</ele>
        <time>2020-09-10T10:00:37.695Z</time>
      </trkpt>
      <trkpt lat="48.419492" lon="10.278675">
        <ele>503.664631</ele>
        <time>2020-09-10T10:00:39.683Z</time>
      </trkpt>
      <trkpt lat="48.419390" lon="10.278700">
        <ele>503.773301</ele>
        <time>2020-09-10T10:00:41.691Z</time>
      </trkpt>
      <trkpt lat="48.419287" lon="10.278704">
        <ele>503.881649</ele>
        <time>2020-09-10T10:00:43.694Z</time>
      </trkpt>
      <trkpt lat="48.419187" lon="10.278720">
        <ele>503.987397</ele>
        <time>2020-09-10T10:00:45.690Z</time>
      </trkpt>
      <trkpt lat="48.419085" lon="10.278715">
        <ele>504.094714</ele>
        <time>2020-09-10T10:00:47.693Z</time>
      </trkpt>
      <trkpt lat="48.418991" lon="10.278684">
        <ele>504.195901</ele>
        <time>2020-09-10T10:00:49.691Z</time>
      </trkpt>
      <trkpt lat="48.418900" lon="10.278636">
        <ele>504.297288</ele>
        <time>2020-09-10T10:00:51.726Z</time>
      </trkpt>
      <trkpt lat="48.418819" lon="10.278557">
        <ele>504.398752</ele>
        <time>2020-09-10T10:00:53.704Z</time>
      </trkpt>
      <trkpt lat="48.418732" lon="10.278456">
        <ele>504.514244</ele>
        <time>2020-09-10T10:00:55.704Z</time>
      </trkpt>
      <trkpt lat="48.418649" lon="10.278343">
        <ele>504.631876</ele>
        <time>2020-09-10T10:00:57.702Z</time>
      </trkpt>
      <trkpt lat="48.418563" lon="10.278244">
        <ele>504.745685</ele>
        <time>2020-09-10T10:00:59.704Z</time>
      </trkpt>
      <trkpt lat="48.418479" lon="10.278169">
        <ele>504.848361</ele>
        <time>2020-09-10T10:01:01.705Z</time>
      </trkpt>
      <trkpt lat="48.418370" lon="10.278112">
        <ele>504.969689</ele>
        <time>2020-09-10T10:01:03.694Z</time>
      </trkpt>
      <trkpt lat="48.418253" lon="10.278101">
        <ele>505.092962</ele>
        <time>2020-09-10T10:01:05.690Z</time>
      </trkpt>
      <trkpt lat="48.418135" lon="10.278133">
        <ele>505.219041</ele>
        <time>2020-09-10T10:01:07.690Z</time>
      </trkpt>
      <trkpt lat="48.418034" lon="10.278195">
        <ele>505.366160</ele>
        <time>2020-09-10T10:01:09.693Z</time>
      </trkpt>
      <trkpt lat="48.417938" lon="10.278265">
        <ele>505.514323</ele>
        <time>2020-09-10T10:01:11.695Z</time>
      </trkpt>
      <trkpt lat="48.417850" lon="10.278336">
        <ele>505.653000</ele>
        <time>2020-09-10T10:01:13.699Z</time>
      </trkpt>
      <trkpt lat="48.417771" lon="10.278414">
        <ele>505.784215</ele>
        <time>2020-09-10T10:01:15.701Z</time>
      </trkpt>
      <trkpt lat="48.417686" lon="10.278498">
        <ele>505.925433</ele>
        <time>2020-09-10T10:01:17.695Z</time>
      </trkpt>
      <trkpt lat="48.417601" lon="10.278604">
        <ele>506.078718</ele>
        <time>2020-09-10T10:01:19.698Z</time>
      </trkpt>
      <trkpt lat="48.417509" lon="10.278706">
        <ele>506.237401</ele>
        <time>2020-09-10T10:01:21.699Z</time>
      </trkpt>
      <trkpt lat="48.417405" lon="10.278832">
        <ele>506.422797</ele>
        <time>2020-09-10T10:01:24.696Z</time>
      </trkpt>
      <trkpt lat="48.417340" lon="10.278937">
        <ele>506.555187</ele>
        <time>2020-09-10T10:01:26.697Z</time>
      </trkpt>
      <trkpt lat="48.417273" lon="10.279058">
        <ele>506.700482</ele>
        <time>2020-09-10T10:01:28.695Z</time>
      </trkpt>
      <trkpt lat="48.417200" lon="10.279194">
        <ele>506.861756</ele>
        <time>2020-09-10T10:01:30.697Z</time>
      </trkpt>
      <trkpt lat="48.417125" lon="10.279314">
        <ele>507.013738</ele>
        <time>2020-09-10T10:01:32.698Z</time>
      </trkpt>
      <trkpt lat="48.417037" lon="10.279421">
        <ele>507.170834</ele>
        <time>2020-09-10T10:01:34.684Z</time>
      </trkpt>
      <trkpt lat="48.416925" lon="10.279550">
        <ele>507.366684</ele>
        <time>2020-09-10T10:01:36.701Z</time>
      </trkpt>
      <trkpt lat="48.416813" lon="10.279652">
        <ele>507.548494</ele>
        <time>2020-09-10T10:01:38.688Z</time>
      </trkpt>
      <trkpt lat="48.416706" lon="10.279711">
        <ele>507.706784</ele>
        <time>2020-09-10T10:01:40.690Z</time>
      </trkpt>
      <trkpt lat="48.416588" lon="10.279747">
        <ele>507.570538</ele>
        <time>2020-09-10T10:01:42.689Z</time>
      </trkpt>
      <trkpt lat="48.416466" lon="10.279768">
        <ele>507.378008</ele>
        <time>2020-09-10T10:01:44.692Z</time>
      </trkpt>
      <trkpt lat="48.416339" lon="10.279798">
        <ele>507.176450</ele>
        <time>2020-09-10T10:01:46.691Z</time>
      </trkpt>
      <trkpt lat="48.416209" lon="10.279831">
        <ele>506.969748</ele>
        <time>2020-09-10T10:01:48.691Z</time>
      </trkpt>
      <trkpt lat="48.416091" lon="10.279848">
        <ele>506.783890</ele>
        <time>2020-09-10T10:01:50.689Z</time>
      </trkpt>
      <trkpt lat="48.415962" lon="10.279905">
        <ele>506.573110</ele>
        <time>2020-09-10T10:01:52.699Z</time>
      </trkpt>
      <trkpt lat="48.415830" lon="10.279968">
        <ele>506.356009</ele>
        <time>2020-09-10T10:01:54.696Z</time>
      </trkpt>
      <trkpt lat="48.415696" lon="10.280029">
        <ele>506.136527</ele>
        <time>2020-09-10T10:01:56.697Z</time>
      </trkpt>
      <trkpt lat="48.415569" lon="10.280099">
        <ele>505.924495</ele>
        <time>2020-09-10T10:01:58.694Z</time>
      </trkpt>
      <trkpt lat="48.415440" lon="10.280163">
        <ele>505.711550</ele>
        <time>2020-09-10T10:02:00.690Z</time>
      </trkpt>
      <trkpt lat="48.415318" lon="10.280231">
        <ele>505.507594</ele>
        <time>2020-09-10T10:02:02.683Z</time>
      </trkpt>
      <trkpt lat="48.415187" lon="10.280308">
        <ele>505.287120</ele>
        <time>2020-09-10T10:02:04.695Z</time>
      </trkpt>
      <trkpt lat="48.415045" lon="10.280372">
        <ele>505.054727</ele>
        <time>2020-09-10T10:02:06.692Z</time>
      </trkpt>
      <trkpt lat="48.414919" lon="10.280441">
        <ele>504.896500</ele>
        <time>2020-09-10T10:02:08.688Z</time>
      </trkpt>
      <trkpt lat="48.414796" lon="10.280506">
        <ele>504.851122</ele>
        <time>2020-09-10T10:02:10.685Z</time>
      </trkpt>
      <trkpt lat="48.414677" lon="10.280575">
        <ele>504.806731</ele>
        <time>2020-09-10T10:02:12.691Z</time>
      </trkpt>
      <trkpt lat="48.414552" lon="10.280634">
        <ele>504.761129</ele>
        <time>2020-09-10T10:02:14.691Z</time>
      </trkpt>
      <trkpt lat="48.414437" lon="10.280701">
        <ele>504.718204</ele>
        <time>2020-09-10T10:02:16.701Z</time>
      </trkpt>
      <trkpt lat="48.414330" lon="10.280757">
        <ele>504.678770</ele>
        <time>2020-09-10T10:02:18.692Z</time>
      </trkpt>
      <trkpt lat="48.414224" lon="10.280812">
        <ele>504.639740</ele>
        <time>2020-09-10T10:02:20.693Z</time>
      </trkpt>
      <trkpt lat="48.414127" lon="10.280870">
        <ele>504.603408</ele>
        <time>2020-09-10T10:02:22.704Z</time>
      </trkpt>
      <trkpt lat="48.414030" lon="10.280928">
        <ele>504.567077</ele>
        <time>2020-09-10T10:02:24.693Z</time>
      </trkpt>
      <trkpt lat="48.413926" lon="10.280987">
        <ele>504.528389</ele>
        <time>2020-09-10T10:02:26.697Z</time>
      </trkpt>
      <trkpt lat="48.413821" lon="10.281044">
        <ele>504.489534</ele>
        <time>2020-09-10T10:02:28.696Z</time>
      </trkpt>
      <trkpt lat="48.413706" lon="10.281110">
        <ele>504.446692</ele>
        <time>2020-09-10T10:02:30.694Z</time>
      </trkpt>
      <trkpt lat="48.413588" lon="10.281175">
        <ele>504.402952</ele>
        <time>2020-09-10T10:02:32.698Z</time>
      </trkpt>
      <trkpt lat="48.413466" lon="10.281242">
        <ele>504.357746</ele>
        <time>2020-09-10T10:02:34.685Z</time>
      </trkpt>
      <trkpt lat="48.413341" lon="10.281315">
        <ele>504.311073</ele>
        <time>2020-09-10T10:02:36.698Z</time>
      </trkpt>
      <trkpt lat="48.413217" lon="10.281377">
        <ele>504.273971</ele>
        <time>2020-09-10T10:02:38.683Z</time>
      </trkpt>
      <trkpt lat="48.413100" lon="10.281444">
        <ele>504.249059</ele>
        <time>2020-09-10T10:02:40.690Z</time>
      </trkpt>
      <trkpt lat="48.412982" lon="10.281508">
        <ele>504.224097</ele>
        <time>2020-09-10T10:02:42.689Z</time>
      </trkpt>
      <trkpt lat="48.412868" lon="10.281571">
        <ele>504.199929</ele>
        <time>2020-09-10T10:02:44.695Z</time>
      </trkpt>
      <trkpt lat="48.412754" lon="10.281637">
        <ele>504.175621</ele>
        <time>2020-09-10T10:02:46.691Z</time>
      </trkpt>
      <trkpt lat="48.412632" lon="10.281695">
        <ele>504.150159</ele>
        <time>2020-09-10T10:02:48.690Z</time>
      </trkpt>
      <trkpt lat="48.412510" lon="10.281756">
        <ele>504.124574</ele>
        <time>2020-09-10T10:02:50.689Z</time>
      </trkpt>
      <trkpt lat="48.412391" lon="10.281825">
        <ele>504.099196</ele>
        <time>2020-09-10T10:02:52.691Z</time>
      </trkpt>
      <trkpt lat="48.412272" lon="10.281887">
        <ele>504.074134</ele>
        <time>2020-09-10T10:02:54.698Z</time>
      </trkpt>
      <trkpt lat="48.412153" lon="10.281942">
        <ele>504.049360</ele>
        <time>2020-09-10T10:02:56.693Z</time>
      </trkpt>
      <trkpt lat="48.412028" lon="10.281999">
        <ele>504.023366</ele>
        <time>2020-09-10T10:02:58.692Z</time>
      </trkpt>
      <trkpt lat="48.411903" lon="10.282060">
        <ele>503.997214</ele>
        <time>2020-09-10T10:03:00.694Z</time>
      </trkpt>
      <trkpt lat="48.411771" lon="10.282101">
        <ele>503.970388</ele>
        <time>2020-09-10T10:03:02.693Z</time>
      </trkpt>
      <trkpt lat="48.411644" lon="10.282137">
        <ele>503.944668</ele>
        <time>2020-09-10T10:03:04.698Z</time>
      </trkpt>
      <trkpt lat="48.411520" lon="10.282164">
        <ele>503.939894</ele>
        <time>2020-09-10T10:03:06.686Z</time>
      </trkpt>
      <trkpt lat="48.411398" lon="10.282185">
        <ele>503.981706</ele>
        <time>2020-09-10T10:03:08.699Z</time>
      </trkpt>
      <trkpt lat="48.411272" lon="10.282199">
        <ele>504.024726</ele>
        <time>2020-09-10T10:03:10.690Z</time>
      </trkpt>
      <trkpt lat="48.411148" lon="10.282215">
        <ele>504.067103</ele>
        <time>2020-09-10T10:03:12.686Z</time>
      </trkpt>
      <trkpt lat="48.411036" lon="10.282233">
        <ele>504.105457</ele>
        <time>2020-09-10T10:03:14.691Z</time>
      </trkpt>
      <trkpt lat="48.410931" lon="10.282250">
        <ele>504.141416</ele>
        <time>2020-09-10T10:03:16.685Z</time>
      </trkpt>
      <trkpt lat="48.410823" lon="10.282264">
        <ele>504.178326</ele>
        <time>2020-09-10T10:03:18.693Z</time>
      </trkpt>
      <trkpt lat="48.410716" lon="10.282271">
        <ele>504.214795</ele>
        <time>2020-09-10T10:03:20.691Z</time>
      </trkpt>
      <trkpt lat="48.410613" lon="10.282285">
        <ele>504.250009</ele>
        <time>2020-09-10T10:03:22.696Z</time>
      </trkpt>
      <trkpt lat="48.410513" lon="10.282296">
        <ele>504.284151</ele>
        <time>2020-09-10T10:03:24.693Z</time>
      </trkpt>
      <trkpt lat="48.410415" lon="10.282307">
        <ele>504.317613</ele>
        <time>2020-09-10T10:03:26.692Z</time>
      </trkpt>
      <trkpt lat="48.410319" lon="10.282316">
        <ele>504.350365</ele>
        <time>2020-09-10T10:03:28.696Z</time>
      </trkpt>
      <trkpt lat="48.410212" lon="10.282354">
        <ele>504.387797</ele>
        <time>2020-09-10T10:03:31.693Z</time>
      </trkpt>
      <trkpt lat="48.410126" lon="10.282438">
        <ele>504.422697</ele>
        <time>2020-09-10T10:03:39.688Z</time>
      </trkpt>
      <trkpt lat="48.410123" lon="10.282637">
        <ele>504.467688</ele>
        <time>2020-09-10T10:03:43.688Z</time>
      </trkpt>
      <trkpt lat="48.410163" lon="10.282760">
        <ele>504.498646</ele>
        <time>2020-09-10T10:03:45.688Z</time>
      </trkpt>
      <trkpt lat="48.410203" lon="10.282895">
        <ele>504.532062</ele>
        <time>2020-09-10T10:03:47.688Z</time>
      </trkpt>
      <trkpt lat="48.410237" lon="10.283051">
        <ele>504.596493</ele>
        <time>2020-09-10T10:03:49.689Z</time>
      </trkpt>
      <trkpt lat="48.410273" lon="10.283205">
        <ele>504.667506</ele>
        <time>2020-09-10T10:03:51.686Z</time>
      </trkpt>
      <trkpt lat="48.410299" lon="10.283363">
        <ele>504.738308</ele>
        <time>2020-09-10T10:03:53.691Z</time>
      </trkpt>
      <trkpt lat="48.410321" lon="10.283521">
        <ele>504.808525</ele>
        <time>2020-09-10T10:03:55.698Z</time>
      </trkpt>
      <trkpt lat="48.410340" lon="10.283692">
        <ele>504.883936</ele>
        <time>2020-09-10T10:03:57.692Z</time>
      </trkpt>
      <trkpt lat="48.410358" lon="10.283861">
        <ele>504.958382</ele>
        <time>2020-09-10T10:03:59.692Z</time>
      </trkpt>
      <trkpt lat="48.410366" lon="10.284040">
        <ele>505.036413</ele>
        <time>2020-09-10T10:04:01.697Z</time>
      </trkpt>
      <trkpt lat="48.410363" lon="10.284221">
        <ele>505.115163</ele>
        <time>2020-09-10T10:04:03.696Z</time>
      </trkpt>
      <trkpt lat="48.410355" lon="10.284394">
        <ele>505.190591</ele>
        <time>2020-09-10T10:04:05.699Z</time>
      </trkpt>
      <trkpt lat="48.410337" lon="10.284574">
        <ele>505.269764</ele>
        <time>2020-09-10T10:04:07.699Z</time>
      </trkpt>
      <trkpt lat="48.410315" lon="10.284744">
        <ele>505.345097</ele>
        <time>2020-09-10T10:04:09.700Z</time>
      </trkpt>
      <trkpt lat="48.410295" lon="10.284915">
        <ele>505.420619</ele>
        <time>2020-09-10T10:04:11.692Z</time>
      </trkpt>
      <trkpt lat="48.410283" lon="10.285089">
        <ele>505.496707</ele>
        <time>2020-09-10T10:04:13.684Z</time>
      </trkpt>
      <trkpt lat="48.410291" lon="10.285263">
        <ele>505.572568</ele>
        <time>2020-09-10T10:04:15.699Z</time>
      </trkpt>
      <trkpt lat="48.410321" lon="10.285465">
        <ele>505.662600</ele>
        <time>2020-09-10T10:04:17.691Z</time>
      </trkpt>
      <trkpt lat="48.410335" lon="10.285651">
        <ele>505.718578</ele>
        <time>2020-09-10T10:04:19.690Z</time>
      </trkpt>
      <trkpt lat="48.410364" lon="10.285814">
        <ele>505.719741</ele>
        <time>2020-09-10T10:04:21.691Z</time>
      </trkpt>
      <trkpt lat="48.410385" lon="10.285973">
        <ele>505.720857</ele>
        <time>2020-09-10T10:04:23.694Z</time>
      </trkpt>
      <trkpt lat="48.410409" lon="10.286136">
        <ele>505.722007</ele>
        <time>2020-09-10T10:04:25.690Z</time>
      </trkpt>
      <trkpt lat="48.410441" lon="10.286304">
        <ele>505.723210</ele>
        <time>2020-09-10T10:04:27.690Z</time>
      </trkpt>
      <trkpt lat="48.410473" lon="10.286471">
        <ele>505.724408</ele>
        <time>2020-09-10T10:04:29.691Z</time>
      </trkpt>
      <trkpt lat="48.410510" lon="10.286616">
        <ele>505.725477</ele>
        <time>2020-09-10T10:04:31.700Z</time>
      </trkpt>
      <trkpt lat="48.410548" lon="10.286758">
        <ele>505.726532</ele>
        <time>2020-09-10T10:04:33.688Z</time>
      </trkpt>
      <trkpt lat="48.410580" lon="10.286924">
        <ele>505.727722</ele>
        <time>2020-09-10T10:04:35.691Z</time>
      </trkpt>
      <trkpt lat="48.410622" lon="10.287080">
        <ele>505.728881</ele>
        <time>2020-09-10T10:04:37.696Z</time>
      </trkpt>
      <trkpt lat="48.410665" lon="10.287218">
        <ele>505.729931</ele>
        <time>2020-09-10T10:04:39.692Z</time>
      </trkpt>
      <trkpt lat="48.410718" lon="10.287379">
        <ele>505.731169</ele>
        <time>2020-09-10T10:04:42.692Z</time>
      </trkpt>
      <trkpt lat="48.410782" lon="10.287556">
        <ele>505.732557</ele>
        <time>2020-09-10T10:04:45.697Z</time>
      </trkpt>
      <trkpt lat="48.410836" lon="10.287680">
        <ele>505.733578</ele>
        <time>2020-09-10T10:04:47.694Z</time>
      </trkpt>
      <trkpt lat="48.410890" lon="10.287802">
        <ele>505.734588</ele>
        <time>2020-09-10T10:04:49.701Z</time>
      </trkpt>
      <trkpt lat="48.410964" lon="10.287962">
        <ele>505.735931</ele>
        <time>2020-09-10T10:04:52.689Z</time>
      </trkpt>
      <trkpt lat="48.411044" lon="10.288103">
        <ele>505.737592</ele>
        <time>2020-09-10T10:04:55.696Z</time>
      </trkpt>
      <trkpt lat="48.411125" lon="10.288260">
        <ele>505.740348</ele>
        <time>2020-09-10T10:04:58.692Z</time>
      </trkpt>
      <trkpt lat="48.411175" lon="10.288403">
        <ele>505.742588</ele>
        <time>2020-09-10T10:05:01.693Z</time>
      </trkpt>
      <trkpt lat="48.411097" lon="10.288555">
        <ele>505.745251</ele>
        <time>2020-09-10T10:05:04.691Z</time>
      </trkpt>
      <trkpt lat="48.411010" lon="10.288622">
        <ele>505.747291</ele>
        <time>2020-09-10T10:05:06.690Z</time>
      </trkpt>
      <trkpt lat="48.410921" lon="10.288689">
        <ele>505.749368</ele>
        <time>2020-09-10T10:05:08.722Z</time>
      </trkpt>
      <trkpt lat="48.410815" lon="10.288736">
        <ele>505.751676</ele>
        <time>2020-09-10T10:05:10.691Z</time>
      </trkpt>
      <trkpt lat="48.410717" lon="10.288773">
        <ele>505.753785</ele>
        <time>2020-09-10T10:05:12.689Z</time>
      </trkpt>
      <trkpt lat="48.410624" lon="10.288820">
        <ele>505.755833</ele>
        <time>2020-09-10T10:05:14.709Z</time>
      </trkpt>
      <trkpt lat="48.410523" lon="10.288873">
        <ele>505.758067</ele>
        <time>2020-09-10T10:05:16.686Z</time>
      </trkpt>
      <trkpt lat="48.410415" lon="10.288932">
        <ele>505.760465</ele>
        <time>2020-09-10T10:05:18.690Z</time>
      </trkpt>
      <trkpt lat="48.410313" lon="10.288996">
        <ele>505.762772</ele>
        <time>2020-09-10T10:05:20.701Z</time>
      </trkpt>
      <trkpt lat="48.410209" lon="10.289061">
        <ele>505.765123</ele>
        <time>2020-09-10T10:05:22.688Z</time>
      </trkpt>
      <trkpt lat="48.410110" lon="10.289134">
        <ele>505.767425</ele>
        <time>2020-09-10T10:05:24.691Z</time>
      </trkpt>
      <trkpt lat="48.410011" lon="10.289215">
        <ele>505.769777</ele>
        <time>2020-09-10T10:05:26.697Z</time>
      </trkpt>
      <trkpt lat="48.409917" lon="10.289303">
        <ele>505.772088</ele>
        <time>2020-09-10T10:05:28.688Z</time>
      </trkpt>
      <trkpt lat="48.409826" lon="10.289398">
        <ele>505.775185</ele>
        <time>2020-09-10T10:05:30.697Z</time>
      </trkpt>
      <trkpt lat="48.409732" lon="10.289499">
        <ele>505.910998</ele>
        <time>2020-09-10T10:05:32.693Z</time>
      </trkpt>
      <trkpt lat="48.409638" lon="10.289605">
        <ele>506.049115</ele>
        <time>2020-09-10T10:05:34.698Z</time>
      </trkpt>
      <trkpt lat="48.409544" lon="10.289706">
        <ele>506.184928</ele>
        <time>2020-09-10T10:05:36.696Z</time>
      </trkpt>
      <trkpt lat="48.409458" lon="10.289832">
        <ele>506.326041</ele>
        <time>2020-09-10T10:05:38.694Z</time>
      </trkpt>
      <trkpt lat="48.409371" lon="10.289953">
        <ele>506.465321</ele>
        <time>2020-09-10T10:05:40.689Z</time>
      </trkpt>
      <trkpt lat="48.409286" lon="10.290076">
        <ele>506.603960</ele>
        <time>2020-09-10T10:05:42.695Z</time>
      </trkpt>
      <trkpt lat="48.409194" lon="10.290200">
        <ele>506.749170</ele>
        <time>2020-09-10T10:05:44.689Z</time>
      </trkpt>
      <trkpt lat="48.409100" lon="10.290328">
        <ele>506.898217</ele>
        <time>2020-09-10T10:05:46.692Z</time>
      </trkpt>
      <trkpt lat="48.409018" lon="10.290459">
        <ele>507.038810</ele>
        <time>2020-09-10T10:05:48.683Z</time>
      </trkpt>
      <trkpt lat="48.408931" lon="10.290587">
        <ele>507.181856</ele>
        <time>2020-09-10T10:05:50.686Z</time>
      </trkpt>
      <trkpt lat="48.408850" lon="10.290711">
        <ele>507.317697</ele>
        <time>2020-09-10T10:05:52.696Z</time>
      </trkpt>
      <trkpt lat="48.408772" lon="10.290820">
        <ele>507.442845</ele>
        <time>2020-09-10T10:05:54.691Z</time>
      </trkpt>
      <trkpt lat="48.408701" lon="10.290923">
        <ele>507.558790</ele>
        <time>2020-09-10T10:05:56.693Z</time>
      </trkpt>
      <trkpt lat="48.408632" lon="10.291022">
        <ele>507.670875</ele>
        <time>2020-09-10T10:05:58.690Z</time>
      </trkpt>
      <trkpt lat="48.408540" lon="10.291151">
        <ele>507.818717</ele>
        <time>2020-09-10T10:06:01.690Z</time>
      </trkpt>
      <trkpt lat="48.408479" lon="10.291251">
        <ele>507.905658</ele>
        <time>2020-09-10T10:06:04.687Z</time>
      </trkpt>
      <trkpt lat="48.408427" lon="10.291364">
        <ele>507.953843</ele>
        <time>2020-09-10T10:06:08.686Z</time>
      </trkpt>
      <trkpt lat="48.408334" lon="10.291484">
        <ele>508.018488</ele>
        <time>2020-09-10T10:06:12.691Z</time>
      </trkpt>
      <trkpt lat="48.408252" lon="10.291590">
        <ele>508.075530</ele>
        <time>2020-09-10T10:06:15.695Z</time>
      </trkpt>
      <trkpt lat="48.408152" lon="10.291698">
        <ele>508.140488</ele>
        <time>2020-09-10T10:06:18.699Z</time>
      </trkpt>
      <trkpt lat="48.408069" lon="10.291778">
        <ele>508.192507</ele>
        <time>2020-09-10T10:06:20.689Z</time>
      </trkpt>
      <trkpt lat="48.407984" lon="10.291860">
        <ele>508.245793</ele>
        <time>2020-09-10T10:06:22.700Z</time>
      </trkpt>
      <trkpt lat="48.407897" lon="10.291932">
        <ele>508.298197</ele>
        <time>2020-09-10T10:06:24.689Z</time>
      </trkpt>
      <trkpt lat="48.407805" lon="10.292005">
        <ele>508.353091</ele>
        <time>2020-09-10T10:06:26.693Z</time>
      </trkpt>
      <trkpt lat="48.407713" lon="10.292077">
        <ele>508.407823</ele>
        <time>2020-09-10T10:06:28.687Z</time>
      </trkpt>
      <trkpt lat="48.407618" lon="10.292146">
        <ele>508.463501</ele>
        <time>2020-09-10T10:06:30.687Z</time>
      </trkpt>
      <trkpt lat="48.407517" lon="10.292202">
        <ele>508.520318</ele>
        <time>2020-09-10T10:06:32.698Z</time>
      </trkpt>
      <trkpt lat="48.407413" lon="10.292255">
        <ele>508.578278</ele>
        <time>2020-09-10T10:06:34.690Z</time>
      </trkpt>
      <trkpt lat="48.407312" lon="10.292301">
        <ele>508.633982</ele>
        <time>2020-09-10T10:06:36.689Z</time>
      </trkpt>
      <trkpt lat="48.407212" lon="10.292340">
        <ele>508.688514</ele>
        <time>2020-09-10T10:06:38.690Z</time>
      </trkpt>
      <trkpt lat="48.407113" lon="10.292374">
        <ele>508.742120</ele>
        <time>2020-09-10T10:06:40.696Z</time>
      </trkpt>
      <trkpt lat="48.407018" lon="10.292403">
        <ele>508.793292</ele>
        <time>2020-09-10T10:06:42.690Z</time>
      </trkpt>
      <trkpt lat="48.406886" lon="10.292444">
        <ele>508.824023</ele>
        <time>2020-09-10T10:06:45.689Z</time>
      </trkpt>
      <trkpt lat="48.406795" lon="10.292484">
        <ele>508.792497</ele>
        <time>2020-09-10T10:06:47.695Z</time>
      </trkpt>
      <trkpt lat="48.406698" lon="10.292524">
        <ele>508.759052</ele>
        <time>2020-09-10T10:06:49.697Z</time>
      </trkpt>
      <trkpt lat="48.406599" lon="10.292573">
        <ele>508.724397</ele>
        <time>2020-09-10T10:06:51.692Z</time>
      </trkpt>
      <trkpt lat="48.406499" lon="10.292626">
        <ele>508.689142</ele>
        <time>2020-09-10T10:06:53.695Z</time>
      </trkpt>
      <trkpt lat="48.406403" lon="10.292673">
        <ele>508.655572</ele>
        <time>2020-09-10T10:06:55.710Z</time>
      </trkpt>
      <trkpt lat="48.406291" lon="10.292711">
        <ele>508.617392</ele>
        <time>2020-09-10T10:06:57.692Z</time>
      </trkpt>
      <trkpt lat="48.406192" lon="10.292749">
        <ele>508.583416</ele>
        <time>2020-09-10T10:06:59.694Z</time>
      </trkpt>
      <trkpt lat="48.406088" lon="10.292776">
        <ele>508.548320</ele>
        <time>2020-09-10T10:07:01.691Z</time>
      </trkpt>
      <trkpt lat="48.405990" lon="10.292814">
        <ele>508.514666</ele>
        <time>2020-09-10T10:07:03.687Z</time>
      </trkpt>
      <trkpt lat="48.405887" lon="10.292846">
        <ele>508.479691</ele>
        <time>2020-09-10T10:07:05.692Z</time>
      </trkpt>
      <trkpt lat="48.405788" lon="10.292884">
        <ele>508.445715</ele>
        <time>2020-09-10T10:07:07.690Z</time>
      </trkpt>
      <trkpt lat="48.405668" lon="10.292896">
        <ele>508.405720</ele>
        <time>2020-09-10T10:07:09.691Z</time>
      </trkpt>
      <trkpt lat="48.405537" lon="10.292926">
        <ele>508.361654</ele>
        <time>2020-09-10T10:07:11.689Z</time>
      </trkpt>
      <trkpt lat="48.405415" lon="10.292958">
        <ele>508.320470</ele>
        <time>2020-09-10T10:07:13.692Z</time>
      </trkpt>
      <trkpt lat="48.405285" lon="10.292996">
        <ele>508.276431</ele>
        <time>2020-09-10T10:07:15.688Z</time>
      </trkpt>
      <trkpt lat="48.405159" lon="10.293033">
        <ele>508.235518</ele>
        <time>2020-09-10T10:07:17.690Z</time>
      </trkpt>
      <trkpt lat="48.405029" lon="10.293068">
        <ele>508.201692</ele>
        <time>2020-09-10T10:07:19.687Z</time>
      </trkpt>
      <trkpt lat="48.404904" lon="10.293115">
        <ele>508.168691</ele>
        <time>2020-09-10T10:07:21.693Z</time>
      </trkpt>
      <trkpt lat="48.404778" lon="10.293170">
        <ele>508.135090</ele>
        <time>2020-09-10T10:07:23.695Z</time>
      </trkpt>
      <trkpt lat="48.404650" lon="10.293214">
        <ele>508.101460</ele>
        <time>2020-09-10T10:07:25.693Z</time>
      </trkpt>
      <trkpt lat="48.404527" lon="10.293266">
        <ele>508.068737</ele>
        <time>2020-09-10T10:07:27.697Z</time>
      </trkpt>
      <trkpt lat="48.404405" lon="10.293314">
        <ele>508.036439</ele>
        <time>2020-09-10T10:07:29.695Z</time>
      </trkpt>
      <trkpt lat="48.404282" lon="10.293357">
        <ele>508.004096</ele>
        <time>2020-09-10T10:07:31.684Z</time>
      </trkpt>
      <trkpt lat="48.404151" lon="10.293400">
        <ele>507.969754</ele>
        <time>2020-09-10T10:07:33.680Z</time>
      </trkpt>
      <trkpt lat="48.404020" lon="10.293453">
        <ele>507.935009</ele>
        <time>2020-09-10T10:07:35.689Z</time>
      </trkpt>
      <trkpt lat="48.403896" lon="10.293516">
        <ele>507.901489</ele>
        <time>2020-09-10T10:07:37.684Z</time>
      </trkpt>
      <trkpt lat="48.403770" lon="10.293578">
        <ele>507.867537</ele>
        <time>2020-09-10T10:07:39.688Z</time>
      </trkpt>
      <trkpt lat="48.403645" lon="10.293656">
        <ele>507.832880</ele>
        <time>2020-09-10T10:07:41.691Z</time>
      </trkpt>
      <trkpt lat="48.403518" lon="10.293737">
        <ele>507.797554</ele>
        <time>2020-09-10T10:07:43.686Z</time>
      </trkpt>
      <trkpt lat="48.403388" lon="10.293815">
        <ele>507.778066</ele>
        <time>2020-09-10T10:07:45.690Z</time>
      </trkpt>
      <trkpt lat="48.403265" lon="10.293891">
        <ele>507.773234</ele>
        <time>2020-09-10T10:07:47.696Z</time>
      </trkpt>
      <trkpt lat="48.403145" lon="10.293968">
        <ele>507.768494</ele>
        <time>2020-09-10T10:07:49.689Z</time>
      </trkpt>
      <trkpt lat="48.403028" lon="10.294046">
        <ele>507.763844</ele>
        <time>2020-09-10T10:07:51.689Z</time>
      </trkpt>
      <trkpt lat="48.402908" lon="10.294116">
        <ele>507.759168</ele>
        <time>2020-09-10T10:07:53.693Z</time>
      </trkpt>
      <trkpt lat="48.402786" lon="10.294181">
        <ele>507.754465</ele>
        <time>2020-09-10T10:07:55.700Z</time>
      </trkpt>
      <trkpt lat="48.402665" lon="10.294238">
        <ele>507.749858</ele>
        <time>2020-09-10T10:07:57.698Z</time>
      </trkpt>
      <trkpt lat="48.402541" lon="10.294288">
        <ele>507.745193</ele>
        <time>2020-09-10T10:07:59.694Z</time>
      </trkpt>
      <trkpt lat="48.402411" lon="10.294337">
        <ele>507.740323</ele>
        <time>2020-09-10T10:08:01.692Z</time>
      </trkpt>
      <trkpt lat="48.402277" lon="10.294377">
        <ele>507.735358</ele>
        <time>2020-09-10T10:08:03.688Z</time>
      </trkpt>
      <trkpt lat="48.402151" lon="10.294406">
        <ele>507.730726</ele>
        <time>2020-09-10T10:08:05.688Z</time>
      </trkpt>
      <trkpt lat="48.402027" lon="10.294425">
        <ele>507.726196</ele>
        <time>2020-09-10T10:08:07.682Z</time>
      </trkpt>
      <trkpt lat="48.401904" lon="10.294439">
        <ele>507.721714</ele>
        <time>2020-09-10T10:08:09.686Z</time>
      </trkpt>
      <trkpt lat="48.401783" lon="10.294466">
        <ele>507.717268</ele>
        <time>2020-09-10T10:08:11.687Z</time>
      </trkpt>
      <trkpt lat="48.401667" lon="10.294515">
        <ele>507.749164</ele>
        <time>2020-09-10T10:08:13.693Z</time>
      </trkpt>
      <trkpt lat="48.401543" lon="10.294555">
        <ele>507.811035</ele>
        <time>2020-09-10T10:08:15.685Z</time>
      </trkpt>
      <trkpt lat="48.401418" lon="10.294589">
        <ele>507.873009</ele>
        <time>2020-09-10T10:08:17.686Z</time>
      </trkpt>
      <trkpt lat="48.401297" lon="10.294618">
        <ele>507.932787</ele>
        <time>2020-09-10T10:08:19.686Z</time>
      </trkpt>
      <trkpt lat="48.401182" lon="10.294640">
        <ele>507.989346</ele>
        <time>2020-09-10T10:08:21.691Z</time>
      </trkpt>
      <trkpt lat="48.401067" lon="10.294660">
        <ele>508.045827</ele>
        <time>2020-09-10T10:08:23.728Z</time>
      </trkpt>
      <trkpt lat="48.400956" lon="10.294677">
        <ele>508.100263</ele>
        <time>2020-09-10T10:08:25.685Z</time>
      </trkpt>
      <trkpt lat="48.400841" lon="10.294698">
        <ele>508.156782</ele>
        <time>2020-09-10T10:08:27.689Z</time>
      </trkpt>
      <trkpt lat="48.400723" lon="10.294729">
        <ele>508.215223</ele>
        <time>2020-09-10T10:08:29.695Z</time>
      </trkpt>
      <trkpt lat="48.400596" lon="10.294762">
        <ele>508.278102</ele>
        <time>2020-09-10T10:08:31.685Z</time>
      </trkpt>
      <trkpt lat="48.400461" lon="10.294791">
        <ele>508.344634</ele>
        <time>2020-09-10T10:08:33.689Z</time>
      </trkpt>
      <trkpt lat="48.400329" lon="10.294822">
        <ele>508.409815</ele>
        <time>2020-09-10T10:08:35.695Z</time>
      </trkpt>
      <trkpt lat="48.400207" lon="10.294850">
        <ele>508.470026</ele>
        <time>2020-09-10T10:08:37.694Z</time>
      </trkpt>
      <trkpt lat="48.400088" lon="10.294878">
        <ele>508.528790</ele>
        <time>2020-09-10T10:08:39.691Z</time>
      </trkpt>
      <trkpt lat="48.399967" lon="10.294904">
        <ele>508.588423</ele>
        <time>2020-09-10T10:08:41.687Z</time>
      </trkpt>
      <trkpt lat="48.399850" lon="10.294928">
        <ele>508.585179</ele>
        <time>2020-09-10T10:08:43.691Z</time>
      </trkpt>
      <trkpt lat="48.399734" lon="10.294949">
        <ele>508.576823</ele>
        <time>2020-09-10T10:08:45.691Z</time>
      </trkpt>
      <trkpt lat="48.399617" lon="10.294940">
        <ele>508.568444</ele>
        <time>2020-09-10T10:08:47.694Z</time>
      </trkpt>
      <trkpt lat="48.399528" lon="10.294843">
        <ele>508.560587</ele>
        <time>2020-09-10T10:08:49.691Z</time>
      </trkpt>
      <trkpt lat="48.399494" lon="10.294673">
        <ele>508.552156</ele>
        <time>2020-09-10T10:08:51.681Z</time>
      </trkpt>
      <trkpt lat="48.399427" lon="10.294535">
        <ele>508.544038</ele>
        <time>2020-09-10T10:08:53.691Z</time>
      </trkpt>
      <trkpt lat="48.399325" lon="10.294456">
        <ele>508.535835</ele>
        <time>2020-09-10T10:08:55.701Z</time>
      </trkpt>
      <trkpt lat="48.399216" lon="10.294422">
        <ele>508.527874</ele>
        <time>2020-09-10T10:08:57.685Z</time>
      </trkpt>
      <trkpt lat="48.399109" lon="10.294392">
        <ele>508.520089</ele>
        <time>2020-09-10T10:08:59.693Z</time>
      </trkpt>
      <trkpt lat="48.398994" lon="10.294382">
        <ele>508.511851</ele>
        <time>2020-09-10T10:09:01.696Z</time>
      </trkpt>
      <trkpt lat="48.398867" lon="10.294401">
        <ele>508.502723</ele>
        <time>2020-09-10T10:09:03.695Z</time>
      </trkpt>
      <trkpt lat="48.398743" lon="10.294421">
        <ele>508.493804</ele>
        <time>2020-09-10T10:09:05.694Z</time>
      </trkpt>
      <trkpt lat="48.398619" lon="10.294450">
        <ele>508.484829</ele>
        <time>2020-09-10T10:09:07.683Z</time>
      </trkpt>
      <trkpt lat="48.398493" lon="10.294479">
        <ele>508.475712</ele>
        <time>2020-09-10T10:09:09.700Z</time>
      </trkpt>
      <trkpt lat="48.398377" lon="10.294491">
        <ele>508.467396</ele>
        <time>2020-09-10T10:09:11.689Z</time>
      </trkpt>
      <trkpt lat="48.398272" lon="10.294509">
        <ele>508.565875</ele>
        <time>2020-09-10T10:09:13.694Z</time>
      </trkpt>
      <trkpt lat="48.398156" lon="10.294525">
        <ele>508.754727</ele>
        <time>2020-09-10T10:09:15.708Z</time>
      </trkpt>
      <trkpt lat="48.398039" lon="10.294546">
        <ele>508.945755</ele>
        <time>2020-09-10T10:09:17.700Z</time>
      </trkpt>
      <trkpt lat="48.397915" lon="10.294561">
        <ele>509.147437</ele>
        <time>2020-09-10T10:09:19.690Z</time>
      </trkpt>
      <trkpt lat="48.397789" lon="10.294582">
        <ele>509.352962</ele>
        <time>2020-09-10T10:09:21.680Z</time>
      </trkpt>
      <trkpt lat="48.397671" lon="10.294602">
        <ele>509.545477</ele>
        <time>2020-09-10T10:09:23.692Z</time>
      </trkpt>
      <trkpt lat="48.397553" lon="10.294613">
        <ele>509.737150</ele>
        <time>2020-09-10T10:09:25.686Z</time>
      </trkpt>
      <trkpt lat="48.397445" lon="10.294625">
        <ele>509.912721</ele>
        <time>2020-09-10T10:09:27.698Z</time>
      </trkpt>
      <trkpt lat="48.397343" lon="10.294660">
        <ele>510.082326</ele>
        <time>2020-09-10T10:09:29.697Z</time>
      </trkpt>
      <trkpt lat="48.397282" lon="10.294767">
        <ele>510.234137</ele>
        <time>2020-09-10T10:09:31.689Z</time>
      </trkpt>
      <trkpt lat="48.397308" lon="10.294965">
        <ele>510.451402</ele>
        <time>2020-09-10T10:09:34.696Z</time>
      </trkpt>
      <trkpt lat="48.397341" lon="10.295106">
        <ele>510.612335</ele>
        <time>2020-09-10T10:09:37.694Z</time>
      </trkpt>
      <trkpt lat="48.397379" lon="10.295273">
        <ele>510.802365</ele>
        <time>2020-09-10T10:09:41.690Z</time>
      </trkpt>
      <trkpt lat="48.397321" lon="10.295410">
        <ele>510.977266</ele>
        <time>2020-09-10T10:09:44.689Z</time>
      </trkpt>
      <trkpt lat="48.397196" lon="10.295483">
        <ele>511.194624</ele>
        <time>2020-09-10T10:09:47.685Z</time>
      </trkpt>
      <trkpt lat="48.397104" lon="10.295515">
        <ele>511.347705</ele>
        <time>2020-09-10T10:09:49.688Z</time>
      </trkpt>
      <trkpt lat="48.397004" lon="10.295543">
        <ele>511.500314</ele>
        <time>2020-09-10T10:09:51.685Z</time>
      </trkpt>
      <trkpt lat="48.396901" lon="10.295575">
        <ele>511.654968</ele>
        <time>2020-09-10T10:09:53.687Z</time>
      </trkpt>
      <trkpt lat="48.396791" lon="10.295608">
        <ele>511.819905</ele>
        <time>2020-09-10T10:09:55.683Z</time>
      </trkpt>
      <trkpt lat="48.396684" lon="10.295643">
        <ele>511.980921</ele>
        <time>2020-09-10T10:09:57.685Z</time>
      </trkpt>
      <trkpt lat="48.396587" lon="10.295682">
        <ele>512.128558</ele>
        <time>2020-09-10T10:09:59.685Z</time>
      </trkpt>
      <trkpt lat="48.396493" lon="10.295733">
        <ele>512.275484</ele>
        <time>2020-09-10T10:10:01.691Z</time>
      </trkpt>
      <trkpt lat="48.396404" lon="10.295786">
        <ele>512.416221</ele>
        <time>2020-09-10T10:10:03.684Z</time>
      </trkpt>
      <trkpt lat="48.396318" lon="10.295829">
        <ele>512.549474</ele>
        <time>2020-09-10T10:10:05.691Z</time>
      </trkpt>
      <trkpt lat="48.396194" lon="10.295897">
        <ele>512.743533</ele>
        <time>2020-09-10T10:10:08.691Z</time>
      </trkpt>
      <trkpt lat="48.396102" lon="10.295944">
        <ele>512.886393</ele>
        <time>2020-09-10T10:10:10.692Z</time>
      </trkpt>
      <trkpt lat="48.396001" lon="10.295982">
        <ele>513.039482</ele>
        <time>2020-09-10T10:10:12.685Z</time>
      </trkpt>
      <trkpt lat="48.395888" lon="10.296024">
        <ele>513.210638</ele>
        <time>2020-09-10T10:10:14.692Z</time>
      </trkpt>
      <trkpt lat="48.395779" lon="10.296074">
        <ele>513.378196</ele>
        <time>2020-09-10T10:10:16.688Z</time>
      </trkpt>
      <trkpt lat="48.395672" lon="10.296115">
        <ele>513.540556</ele>
        <time>2020-09-10T10:10:18.690Z</time>
      </trkpt>
      <trkpt lat="48.395562" lon="10.296164">
        <ele>513.709242</ele>
        <time>2020-09-10T10:10:20.686Z</time>
      </trkpt>
      <trkpt lat="48.395453" lon="10.296220">
        <ele>513.878600</ele>
        <time>2020-09-10T10:10:22.692Z</time>
      </trkpt>
      <trkpt lat="48.395346" lon="10.296287">
        <ele>514.045480</ele>
        <time>2020-09-10T10:10:24.686Z</time>
      </trkpt>
      <trkpt lat="48.395242" lon="10.296350">
        <ele>514.185769</ele>
        <time>2020-09-10T10:10:26.681Z</time>
      </trkpt>
      <trkpt lat="48.395133" lon="10.296415">
        <ele>514.332486</ele>
        <time>2020-09-10T10:10:28.691Z</time>
      </trkpt>
      <trkpt lat="48.395019" lon="10.296473">
        <ele>514.483077</ele>
        <time>2020-09-10T10:10:30.680Z</time>
      </trkpt>
      <trkpt lat="48.394900" lon="10.296529">
        <ele>514.639105</ele>
        <time>2020-09-10T10:10:32.695Z</time>
      </trkpt>
      <trkpt lat="48.394781" lon="10.296587">
        <ele>514.795638</ele>
        <time>2020-09-10T10:10:34.693Z</time>
      </trkpt>
      <trkpt lat="48.394677" lon="10.296645">
        <ele>514.934430</ele>
        <time>2020-09-10T10:10:36.683Z</time>
      </trkpt>
      <trkpt lat="48.394582" lon="10.296693">
        <ele>515.059834</ele>
        <time>2020-09-10T10:10:38.684Z</time>
      </trkpt>
      <trkpt lat="48.394457" lon="10.296749">
        <ele>515.223045</ele>
        <time>2020-09-10T10:10:41.689Z</time>
      </trkpt>
      <trkpt lat="48.394336" lon="10.296805">
        <ele>515.381465</ele>
        <time>2020-09-10T10:10:44.687Z</time>
      </trkpt>
      <trkpt lat="48.394211" lon="10.296856">
        <ele>515.543540</ele>
        <time>2020-09-10T10:10:47.687Z</time>
      </trkpt>
      <trkpt lat="48.394123" lon="10.296888">
        <ele>515.656836</ele>
        <time>2020-09-10T10:10:49.685Z</time>
      </trkpt>
      <trkpt lat="48.394030" lon="10.296909">
        <ele>515.774526</ele>
        <time>2020-09-10T10:10:51.692Z</time>
      </trkpt>
      <trkpt lat="48.393902" lon="10.296940">
        <ele>515.936775</ele>
        <time>2020-09-10T10:10:54.685Z</time>
      </trkpt>
      <trkpt lat="48.393773" lon="10.296969">
        <ele>516.100006</ele>
        <time>2020-09-10T10:10:57.692Z</time>
      </trkpt>
      <trkpt lat="48.393654" lon="10.296992">
        <ele>516.250155</ele>
        <time>2020-09-10T10:11:00.685Z</time>
      </trkpt>
      <trkpt lat="48.393543" lon="10.297028">
        <ele>516.390073</ele>
        <time>2020-09-10T10:11:03.688Z</time>
      </trkpt>
      <trkpt lat="48.393448" lon="10.297052">
        <ele>516.508356</ele>
        <time>2020-09-10T10:11:06.691Z</time>
      </trkpt>
      <trkpt lat="48.393347" lon="10.297075">
        <ele>516.633787</ele>
        <time>2020-09-10T10:11:11.697Z</time>
      </trkpt>
      <trkpt lat="48.393241" lon="10.297093">
        <ele>516.764773</ele>
        <time>2020-09-10T10:16:38.679Z</time>
      </trkpt>
      <trkpt lat="48.393127" lon="10.297093">
        <ele>516.904757</ele>
        <time>2020-09-10T10:16:43.681Z</time>
      </trkpt>
      <trkpt lat="48.393012" lon="10.297126">
        <ele>517.048510</ele>
        <time>2020-09-10T10:16:47.677Z</time>
      </trkpt>
      <trkpt lat="48.392919" lon="10.297221">
        <ele>517.186500</ele>
        <time>2020-09-10T10:16:51.689Z</time>
      </trkpt>
      <trkpt lat="48.392828" lon="10.297345">
        <ele>517.337194</ele>
        <time>2020-09-10T10:16:55.709Z</time>
      </trkpt>
      <trkpt lat="48.392748" lon="10.297422">
        <ele>517.453778</ele>
        <time>2020-09-10T10:16:58.687Z</time>
      </trkpt>
      <trkpt lat="48.392657" lon="10.297472">
        <ele>517.572724</ele>
        <time>2020-09-10T10:17:01.691Z</time>
      </trkpt>
      <trkpt lat="48.392539" lon="10.297521">
        <ele>517.723028</ele>
        <time>2020-09-10T10:17:05.689Z</time>
      </trkpt>
      <trkpt lat="48.392437" lon="10.297541">
        <ele>517.849334</ele>
        <time>2020-09-10T10:17:08.683Z</time>
      </trkpt>
      <trkpt lat="48.392322" lon="10.297573">
        <ele>517.992937</ele>
        <time>2020-09-10T10:17:11.691Z</time>
      </trkpt>
      <trkpt lat="48.392192" lon="10.297602">
        <ele>518.154310</ele>
        <time>2020-09-10T10:17:14.677Z</time>
      </trkpt>
      <trkpt lat="48.392096" lon="10.297626">
        <ele>518.273804</ele>
        <time>2020-09-10T10:17:16.681Z</time>
      </trkpt>
      <trkpt lat="48.391991" lon="10.297652">
        <ele>518.404469</ele>
        <time>2020-09-10T10:17:18.683Z</time>
      </trkpt>
      <trkpt lat="48.391891" lon="10.297684">
        <ele>518.397921</ele>
        <time>2020-09-10T10:17:20.686Z</time>
      </trkpt>
      <trkpt lat="48.391788" lon="10.297705">
        <ele>518.151509</ele>
        <time>2020-09-10T10:17:22.685Z</time>
      </trkpt>
      <trkpt lat="48.391674" lon="10.297730">
        <ele>517.878396</ele>
        <time>2020-09-10T10:17:24.688Z</time>
      </trkpt>
      <trkpt lat="48.391564" lon="10.297763">
        <ele>517.612492</ele>
        <time>2020-09-10T10:17:26.684Z</time>
      </trkpt>
      <trkpt lat="48.391454" lon="10.297796">
        <ele>517.346588</ele>
        <time>2020-09-10T10:17:28.685Z</time>
      </trkpt>
      <trkpt lat="48.391349" lon="10.297826">
        <ele>517.093221</ele>
        <time>2020-09-10T10:17:30.685Z</time>
      </trkpt>
      <trkpt lat="48.391245" lon="10.297848">
        <ele>516.844246</ele>
        <time>2020-09-10T10:17:32.684Z</time>
      </trkpt>
      <trkpt lat="48.391144" lon="10.297875">
        <ele>516.601059</ele>
        <time>2020-09-10T10:17:34.690Z</time>
      </trkpt>
      <trkpt lat="48.391045" lon="10.297904">
        <ele>516.361958</ele>
        <time>2020-09-10T10:17:36.690Z</time>
      </trkpt>
      <trkpt lat="48.390939" lon="10.297928">
        <ele>516.107837</ele>
        <time>2020-09-10T10:17:38.692Z</time>
      </trkpt>
      <trkpt lat="48.390838" lon="10.297956">
        <ele>515.864370</ele>
        <time>2020-09-10T10:17:40.693Z</time>
      </trkpt>
      <trkpt lat="48.390731" lon="10.297980">
        <ele>515.607905</ele>
        <time>2020-09-10T10:17:42.691Z</time>
      </trkpt>
      <trkpt lat="48.390608" lon="10.298012">
        <ele>515.311986</ele>
        <time>2020-09-10T10:17:44.691Z</time>
      </trkpt>
      <trkpt lat="48.390471" lon="10.298052">
        <ele>514.981149</ele>
        <time>2020-09-10T10:17:46.679Z</time>
      </trkpt>
      <trkpt lat="48.390319" lon="10.298126">
        <ele>514.602435</ele>
        <time>2020-09-10T10:17:48.676Z</time>
      </trkpt>
      <trkpt lat="48.390163" lon="10.298234">
        <ele>514.217393</ele>
        <time>2020-09-10T10:17:50.687Z</time>
      </trkpt>
      <trkpt lat="48.390081" lon="10.298293">
        <ele>514.188153</ele>
        <time>2020-09-10T10:17:51.684Z</time>
      </trkpt>
      <trkpt lat="48.389997" lon="10.298355">
        <ele>514.158056</ele>
        <time>2020-09-10T10:17:52.688Z</time>
      </trkpt>
      <trkpt lat="48.389841" lon="10.298474">
        <ele>514.101793</ele>
        <time>2020-09-10T10:17:54.686Z</time>
      </trkpt>
      <trkpt lat="48.389701" lon="10.298577">
        <ele>514.051661</ele>
        <time>2020-09-10T10:17:56.686Z</time>
      </trkpt>
      <trkpt lat="48.389602" lon="10.298646">
        <ele>514.016563</ele>
        <time>2020-09-10T10:17:58.688Z</time>
      </trkpt>
      <trkpt lat="48.389512" lon="10.298705">
        <ele>513.984982</ele>
        <time>2020-09-10T10:18:02.688Z</time>
      </trkpt>
      <trkpt lat="48.389437" lon="10.298594">
        <ele>513.951148</ele>
        <time>2020-09-10T10:18:06.679Z</time>
      </trkpt>
      <trkpt lat="48.389421" lon="10.298441">
        <ele>513.918056</ele>
        <time>2020-09-10T10:18:08.695Z</time>
      </trkpt>
      <trkpt lat="48.389397" lon="10.298283">
        <ele>513.883427</ele>
        <time>2020-09-10T10:18:10.678Z</time>
      </trkpt>
      <trkpt lat="48.389360" lon="10.298127">
        <ele>513.848035</ele>
        <time>2020-09-10T10:18:12.677Z</time>
      </trkpt>
      <trkpt lat="48.389335" lon="10.297985">
        <ele>513.816648</ele>
        <time>2020-09-10T10:18:14.683Z</time>
      </trkpt>
      <trkpt lat="48.389326" lon="10.297818">
        <ele>513.780850</ele>
        <time>2020-09-10T10:18:17.682Z</time>
      </trkpt>
      <trkpt lat="48.389373" lon="10.297681">
        <ele>513.747904</ele>
        <time>2020-09-10T10:18:20.687Z</time>
      </trkpt>
      <trkpt lat="48.389490" lon="10.297558">
        <ele>513.701995</ele>
        <time>2020-09-10T10:18:23.685Z</time>
      </trkpt>
      <trkpt lat="48.389572" lon="10.297474">
        <ele>513.670087</ele>
        <time>2020-09-10T10:18:25.685Z</time>
      </trkpt>
      <trkpt lat="48.389651" lon="10.297373">
        <ele>513.629248</ele>
        <time>2020-09-10T10:18:27.687Z</time>
      </trkpt>
      <trkpt lat="48.389695" lon="10.297209">
        <ele>513.539097</ele>
        <time>2020-09-10T10:18:29.689Z</time>
      </trkpt>
      <trkpt lat="48.389697" lon="10.297046">
        <ele>513.456007</ele>
        <time>2020-09-10T10:18:31.689Z</time>
      </trkpt>
      <trkpt lat="48.389686" lon="10.296908">
        <ele>513.385167</ele>
        <time>2020-09-10T10:18:33.687Z</time>
      </trkpt>
      <trkpt lat="48.389680" lon="10.296740">
        <ele>513.299419</ele>
        <time>2020-09-10T10:18:36.693Z</time>
      </trkpt>
      <trkpt lat="48.389647" lon="10.296562">
        <ele>513.205228</ele>
        <time>2020-09-10T10:18:39.702Z</time>
      </trkpt>
      <trkpt lat="48.389566" lon="10.296446">
        <ele>513.119436</ele>
        <time>2020-09-10T10:18:42.687Z</time>
      </trkpt>
      <trkpt lat="48.389456" lon="10.296465">
        <ele>513.034457</ele>
        <time>2020-09-10T10:18:45.689Z</time>
      </trkpt>
      <trkpt lat="48.389362" lon="10.296515">
        <ele>512.957943</ele>
        <time>2020-09-10T10:18:47.690Z</time>
      </trkpt>
      <trkpt lat="48.389253" lon="10.296566">
        <ele>512.870339</ele>
        <time>2020-09-10T10:18:49.695Z</time>
      </trkpt>
      <trkpt lat="48.389157" lon="10.296613">
        <ele>512.792863</ele>
        <time>2020-09-10T10:18:51.699Z</time>
      </trkpt>
      <trkpt lat="48.389046" lon="10.296646">
        <ele>512.706025</ele>
        <time>2020-09-10T10:18:53.683Z</time>
      </trkpt>
      <trkpt lat="48.388952" lon="10.296589">
        <ele>512.628250</ele>
        <time>2020-09-10T10:18:55.743Z</time>
      </trkpt>
      <trkpt lat="48.388884" lon="10.296465">
        <ele>512.546286</ele>
        <time>2020-09-10T10:18:57.694Z</time>
      </trkpt>
      <trkpt lat="48.388803" lon="10.296317">
        <ele>512.448536</ele>
        <time>2020-09-10T10:18:59.681Z</time>
      </trkpt>
      <trkpt lat="48.388725" lon="10.296129">
        <ele>512.335552</ele>
        <time>2020-09-10T10:19:01.687Z</time>
      </trkpt>
      <trkpt lat="48.388653" lon="10.295960">
        <ele>512.202114</ele>
        <time>2020-09-10T10:19:03.682Z</time>
      </trkpt>
      <trkpt lat="48.388576" lon="10.295811">
        <ele>512.000773</ele>
        <time>2020-09-10T10:19:05.692Z</time>
      </trkpt>
      <trkpt lat="48.388500" lon="10.295678">
        <ele>511.813657</ele>
        <time>2020-09-10T10:19:07.681Z</time>
      </trkpt>
      <trkpt lat="48.388418" lon="10.295558">
        <ele>511.630036</ele>
        <time>2020-09-10T10:19:09.685Z</time>
      </trkpt>
      <trkpt lat="48.388328" lon="10.295447">
        <ele>511.443219</ele>
        <time>2020-09-10T10:19:11.683Z</time>
      </trkpt>
      <trkpt lat="48.388236" lon="10.295345">
        <ele>511.259754</ele>
        <time>2020-09-10T10:19:13.691Z</time>
      </trkpt>
      <trkpt lat="48.388133" lon="10.295258">
        <ele>511.070105</ele>
        <time>2020-09-10T10:19:15.686Z</time>
      </trkpt>
      <trkpt lat="48.388028" lon="10.295178">
        <ele>510.881133</ele>
        <time>2020-09-10T10:19:17.687Z</time>
      </trkpt>
      <trkpt lat="48.387922" lon="10.295097">
        <ele>510.690247</ele>
        <time>2020-09-10T10:19:19.687Z</time>
      </trkpt>
      <trkpt lat="48.387820" lon="10.295011">
        <ele>510.502520</ele>
        <time>2020-09-10T10:19:21.689Z</time>
      </trkpt>
      <trkpt lat="48.387715" lon="10.294924">
        <ele>510.310063</ele>
        <time>2020-09-10T10:19:23.688Z</time>
      </trkpt>
      <trkpt lat="48.387609" lon="10.294822">
        <ele>510.108052</ele>
        <time>2020-09-10T10:19:25.695Z</time>
      </trkpt>
      <trkpt lat="48.387513" lon="10.294726">
        <ele>509.922990</ele>
        <time>2020-09-10T10:19:27.689Z</time>
      </trkpt>
      <trkpt lat="48.387405" lon="10.294618">
        <ele>509.714796</ele>
        <time>2020-09-10T10:19:29.689Z</time>
      </trkpt>
      <trkpt lat="48.387298" lon="10.294508">
        <ele>509.506742</ele>
        <time>2020-09-10T10:19:31.690Z</time>
      </trkpt>
      <trkpt lat="48.387193" lon="10.294406">
        <ele>509.398423</ele>
        <time>2020-09-10T10:19:33.691Z</time>
      </trkpt>
      <trkpt lat="48.387097" lon="10.294307">
        <ele>509.468297</ele>
        <time>2020-09-10T10:19:35.690Z</time>
      </trkpt>
      <trkpt lat="48.387007" lon="10.294208">
        <ele>509.535229</ele>
        <time>2020-09-10T10:19:37.684Z</time>
      </trkpt>
      <trkpt lat="48.386921" lon="10.294102">
        <ele>509.601969</ele>
        <time>2020-09-10T10:19:39.688Z</time>
      </trkpt>
      <trkpt lat="48.386837" lon="10.293987">
        <ele>509.670144</ele>
        <time>2020-09-10T10:19:41.683Z</time>
      </trkpt>
      <trkpt lat="48.386754" lon="10.293862">
        <ele>509.740639</ele>
        <time>2020-09-10T10:19:43.688Z</time>
      </trkpt>
      <trkpt lat="48.386669" lon="10.293735">
        <ele>509.812547</ele>
        <time>2020-09-10T10:19:45.690Z</time>
      </trkpt>
      <trkpt lat="48.386585" lon="10.293606">
        <ele>509.884597</ele>
        <time>2020-09-10T10:19:47.690Z</time>
      </trkpt>
      <trkpt lat="48.386502" lon="10.293478">
        <ele>509.955943</ele>
        <time>2020-09-10T10:19:49.678Z</time>
      </trkpt>
      <trkpt lat="48.386425" lon="10.293342">
        <ele>510.027216</ele>
        <time>2020-09-10T10:19:51.685Z</time>
      </trkpt>
      <trkpt lat="48.386350" lon="10.293207">
        <ele>510.097410</ele>
        <time>2020-09-10T10:19:53.685Z</time>
      </trkpt>
      <trkpt lat="48.386272" lon="10.293080">
        <ele>510.166398</ele>
        <time>2020-09-10T10:19:55.688Z</time>
      </trkpt>
      <trkpt lat="48.386180" lon="10.292968">
        <ele>510.237444</ele>
        <time>2020-09-10T10:19:57.686Z</time>
      </trkpt>
      <trkpt lat="48.386083" lon="10.292871">
        <ele>510.307370</ele>
        <time>2020-09-10T10:19:59.688Z</time>
      </trkpt>
      <trkpt lat="48.385976" lon="10.292797">
        <ele>510.378079</ele>
        <time>2020-09-10T10:20:01.689Z</time>
      </trkpt>
      <trkpt lat="48.385868" lon="10.292748">
        <ele>510.445815</ele>
        <time>2020-09-10T10:20:03.690Z</time>
      </trkpt>
      <trkpt lat="48.385747" lon="10.292735">
        <ele>510.493855</ele>
        <time>2020-09-10T10:20:05.691Z</time>
      </trkpt>
      <trkpt lat="48.385625" lon="10.292763">
        <ele>510.539787</ele>
        <time>2020-09-10T10:20:07.688Z</time>
      </trkpt>
      <trkpt lat="48.385512" lon="10.292800">
        <ele>510.582828</ele>
        <time>2020-09-10T10:20:09.689Z</time>
      </trkpt>
      <trkpt lat="48.385395" lon="10.292844">
        <ele>510.627712</ele>
        <time>2020-09-10T10:20:11.690Z</time>
      </trkpt>
      <trkpt lat="48.385277" lon="10.292889">
        <ele>510.673018</ele>
        <time>2020-09-10T10:20:13.695Z</time>
      </trkpt>
      <trkpt lat="48.385159" lon="10.292944">
        <ele>510.718993</ele>
        <time>2020-09-10T10:20:15.681Z</time>
      </trkpt>
      <trkpt lat="48.385038" lon="10.292993">
        <ele>510.765629</ele>
        <time>2020-09-10T10:20:17.680Z</time>
      </trkpt>
      <trkpt lat="48.384918" lon="10.293046">
        <ele>510.812174</ele>
        <time>2020-09-10T10:20:19.681Z</time>
      </trkpt>
      <trkpt lat="48.384807" lon="10.293089">
        <ele>510.854833</ele>
        <time>2020-09-10T10:20:21.696Z</time>
      </trkpt>
      <trkpt lat="48.384696" lon="10.293134">
        <ele>510.897618</ele>
        <time>2020-09-10T10:20:23.683Z</time>
      </trkpt>
      <trkpt lat="48.384601" lon="10.293183">
        <ele>510.934994</ele>
        <time>2020-09-10T10:20:25.682Z</time>
      </trkpt>
      <trkpt lat="48.384494" lon="10.293299">
        <ele>510.984067</ele>
        <time>2020-09-10T10:20:28.685Z</time>
      </trkpt>
      <trkpt lat="48.384442" lon="10.293447">
        <ele>511.025455</ele>
        <time>2020-09-10T10:20:31.682Z</time>
      </trkpt>
      <trkpt lat="48.384377" lon="10.293563">
        <ele>511.062971</ele>
        <time>2020-09-10T10:20:33.691Z</time>
      </trkpt>
      <trkpt lat="48.384286" lon="10.293669">
        <ele>511.105793</ele>
        <time>2020-09-10T10:20:35.683Z</time>
      </trkpt>
      <trkpt lat="48.384191" lon="10.293759">
        <ele>511.155233</ele>
        <time>2020-09-10T10:20:37.687Z</time>
      </trkpt>
      <trkpt lat="48.384095" lon="10.293831">
        <ele>511.207535</ele>
        <time>2020-09-10T10:20:39.693Z</time>
      </trkpt>
      <trkpt lat="48.383992" lon="10.293921">
        <ele>511.265610</ele>
        <time>2020-09-10T10:20:41.684Z</time>
      </trkpt>
      <trkpt lat="48.383884" lon="10.293994">
        <ele>511.323341</ele>
        <time>2020-09-10T10:20:43.684Z</time>
      </trkpt>
      <trkpt lat="48.383774" lon="10.294074">
        <ele>511.382914</ele>
        <time>2020-09-10T10:20:45.689Z</time>
      </trkpt>
      <trkpt lat="48.383665" lon="10.294153">
        <ele>511.441907</ele>
        <time>2020-09-10T10:20:47.690Z</time>
      </trkpt>
      <trkpt lat="48.383558" lon="10.294233">
        <ele>511.500166</ele>
        <time>2020-09-10T10:20:49.688Z</time>
      </trkpt>
      <trkpt lat="48.383457" lon="10.294320">
        <ele>511.556911</ele>
        <time>2020-09-10T10:20:51.688Z</time>
      </trkpt>
      <trkpt lat="48.383359" lon="10.294417">
        <ele>511.614104</ele>
        <time>2020-09-10T10:20:53.693Z</time>
      </trkpt>
      <trkpt lat="48.383267" lon="10.294520">
        <ele>511.670012</ele>
        <time>2020-09-10T10:20:55.676Z</time>
      </trkpt>
      <trkpt lat="48.383198" lon="10.294645">
        <ele>511.722655</ele>
        <time>2020-09-10T10:20:57.682Z</time>
      </trkpt>
      <trkpt lat="48.383147" lon="10.294774">
        <ele>511.771279</ele>
        <time>2020-09-10T10:20:59.692Z</time>
      </trkpt>
      <trkpt lat="48.383107" lon="10.294917">
        <ele>511.821534</ele>
        <time>2020-09-10T10:21:01.689Z</time>
      </trkpt>
      <trkpt lat="48.383070" lon="10.295070">
        <ele>511.874271</ele>
        <time>2020-09-10T10:21:03.685Z</time>
      </trkpt>
      <trkpt lat="48.383045" lon="10.295220">
        <ele>511.924359</ele>
        <time>2020-09-10T10:21:05.684Z</time>
      </trkpt>
      <trkpt lat="48.383025" lon="10.295385">
        <ele>511.978683</ele>
        <time>2020-09-10T10:21:07.690Z</time>
      </trkpt>
      <trkpt lat="48.383005" lon="10.295557">
        <ele>512.057126</ele>
        <time>2020-09-10T10:21:09.684Z</time>
      </trkpt>
      <trkpt lat="48.382990" lon="10.295722">
        <ele>512.144570</ele>
        <time>2020-09-10T10:21:11.686Z</time>
      </trkpt>
      <trkpt lat="48.382974" lon="10.295876">
        <ele>512.226413</ele>
        <time>2020-09-10T10:21:13.687Z</time>
      </trkpt>
      <trkpt lat="48.382950" lon="10.296016">
        <ele>512.302332</ele>
        <time>2020-09-10T10:21:15.692Z</time>
      </trkpt>
      <trkpt lat="48.382902" lon="10.296138">
        <ele>512.376786</ele>
        <time>2020-09-10T10:21:17.693Z</time>
      </trkpt>
      <trkpt lat="48.382843" lon="10.296263">
        <ele>512.457306</ele>
        <time>2020-09-10T10:21:19.690Z</time>
      </trkpt>
      <trkpt lat="48.382765" lon="10.296379">
        <ele>512.543980</ele>
        <time>2020-09-10T10:21:21.694Z</time>
      </trkpt>
      <trkpt lat="48.382684" lon="10.296501">
        <ele>512.634557</ele>
        <time>2020-09-10T10:21:23.695Z</time>
      </trkpt>
      <trkpt lat="48.382595" lon="10.296612">
        <ele>512.725923</ele>
        <time>2020-09-10T10:21:25.682Z</time>
      </trkpt>
      <trkpt lat="48.382497" lon="10.296734">
        <ele>512.826452</ele>
        <time>2020-09-10T10:21:27.678Z</time>
      </trkpt>
      <trkpt lat="48.382410" lon="10.296859">
        <ele>512.921524</ele>
        <time>2020-09-10T10:21:29.682Z</time>
      </trkpt>
      <trkpt lat="48.382331" lon="10.296962">
        <ele>513.004141</ele>
        <time>2020-09-10T10:21:31.683Z</time>
      </trkpt>
      <trkpt lat="48.382252" lon="10.297068">
        <ele>513.087798</ele>
        <time>2020-09-10T10:21:33.687Z</time>
      </trkpt>
      <trkpt lat="48.382174" lon="10.297170">
        <ele>513.169475</ele>
        <time>2020-09-10T10:21:35.689Z</time>
      </trkpt>
      <trkpt lat="48.382100" lon="10.297278">
        <ele>513.250951</ele>
        <time>2020-09-10T10:21:37.685Z</time>
      </trkpt>
      <trkpt lat="48.382026" lon="10.297389">
        <ele>513.333532</ele>
        <time>2020-09-10T10:21:39.684Z</time>
      </trkpt>
      <trkpt lat="48.381962" lon="10.297506">
        <ele>513.413119</ele>
        <time>2020-09-10T10:21:41.687Z</time>
      </trkpt>
      <trkpt lat="48.381867" lon="10.297657">
        <ele>513.334309</ele>
        <time>2020-09-10T10:21:44.692Z</time>
      </trkpt>
      <trkpt lat="48.381795" lon="10.297776">
        <ele>513.260468</ele>
        <time>2020-09-10T10:21:46.691Z</time>
      </trkpt>
      <trkpt lat="48.381726" lon="10.297896">
        <ele>513.187661</ele>
        <time>2020-09-10T10:21:48.690Z</time>
      </trkpt>
      <trkpt lat="48.381654" lon="10.298020">
        <ele>513.112109</ele>
        <time>2020-09-10T10:21:50.682Z</time>
      </trkpt>
      <trkpt lat="48.381576" lon="10.298132">
        <ele>513.037668</ele>
        <time>2020-09-10T10:21:52.694Z</time>
      </trkpt>
      <trkpt lat="48.381480" lon="10.298229">
        <ele>512.957819</ele>
        <time>2020-09-10T10:21:54.677Z</time>
      </trkpt>
      <trkpt lat="48.381384" lon="10.298302">
        <ele>512.883540</ele>
        <time>2020-09-10T10:21:56.695Z</time>
      </trkpt>
      <trkpt lat="48.381287" lon="10.298368">
        <ele>512.810024</ele>
        <time>2020-09-10T10:21:58.679Z</time>
      </trkpt>
      <trkpt lat="48.381189" lon="10.298426">
        <ele>512.737298</ele>
        <time>2020-09-10T10:22:00.682Z</time>
      </trkpt>
      <trkpt lat="48.381081" lon="10.298444">
        <ele>512.662252</ele>
        <time>2020-09-10T10:22:02.687Z</time>
      </trkpt>
      <trkpt lat="48.380971" lon="10.298444">
        <ele>512.586280</ele>
        <time>2020-09-10T10:22:04.694Z</time>
      </trkpt>
      <trkpt lat="48.380855" lon="10.298442">
        <ele>512.506159</ele>
        <time>2020-09-10T10:22:06.691Z</time>
      </trkpt>
      <trkpt lat="48.380744" lon="10.298435">
        <ele>512.429430</ele>
        <time>2020-09-10T10:22:08.684Z</time>
      </trkpt>
      <trkpt lat="48.380633" lon="10.298422">
        <ele>512.352536</ele>
        <time>2020-09-10T10:22:10.685Z</time>
      </trkpt>
      <trkpt lat="48.380518" lon="10.298401">
        <ele>512.272529</ele>
        <time>2020-09-10T10:22:12.684Z</time>
      </trkpt>
      <trkpt lat="48.380406" lon="10.298392">
        <ele>512.195065</ele>
        <time>2020-09-10T10:22:14.687Z</time>
      </trkpt>
      <trkpt lat="48.380295" lon="10.298394">
        <ele>512.096420</ele>
        <time>2020-09-10T10:22:16.691Z</time>
      </trkpt>
      <trkpt lat="48.380185" lon="10.298382">
        <ele>511.992958</ele>
        <time>2020-09-10T10:22:18.685Z</time>
      </trkpt>
      <trkpt lat="48.380075" lon="10.298367">
        <ele>511.889345</ele>
        <time>2020-09-10T10:22:20.690Z</time>
      </trkpt>
      <trkpt lat="48.379967" lon="10.298364">
        <ele>511.788013</ele>
        <time>2020-09-10T10:22:22.689Z</time>
      </trkpt>
      <trkpt lat="48.379855" lon="10.298356">
        <ele>511.682828</ele>
        <time>2020-09-10T10:22:24.689Z</time>
      </trkpt>
      <trkpt lat="48.379743" lon="10.298350">
        <ele>511.577694</ele>
        <time>2020-09-10T10:22:26.682Z</time>
      </trkpt>
      <trkpt lat="48.379635" lon="10.298343">
        <ele>511.476286</ele>
        <time>2020-09-10T10:22:28.690Z</time>
      </trkpt>
      <trkpt lat="48.379527" lon="10.298339">
        <ele>511.374940</ele>
        <time>2020-09-10T10:22:30.675Z</time>
      </trkpt>
      <trkpt lat="48.379417" lon="10.298332">
        <ele>511.271657</ele>
        <time>2020-09-10T10:22:32.686Z</time>
      </trkpt>
      <trkpt lat="48.379309" lon="10.298323">
        <ele>511.170188</ele>
        <time>2020-09-10T10:22:34.683Z</time>
      </trkpt>
      <trkpt lat="48.379208" lon="10.298316">
        <ele>511.075339</ele>
        <time>2020-09-10T10:22:36.683Z</time>
      </trkpt>
      <trkpt lat="48.379097" lon="10.298308">
        <ele>510.971091</ele>
        <time>2020-09-10T10:22:38.684Z</time>
      </trkpt>
      <trkpt lat="48.378990" lon="10.298307">
        <ele>510.870712</ele>
        <time>2020-09-10T10:22:40.689Z</time>
      </trkpt>
      <trkpt lat="48.378879" lon="10.298301">
        <ele>510.766516</ele>
        <time>2020-09-10T10:22:42.683Z</time>
      </trkpt>
      <trkpt lat="48.378766" lon="10.298298">
        <ele>510.660495</ele>
        <time>2020-09-10T10:22:44.685Z</time>
      </trkpt>
      <trkpt lat="48.378647" lon="10.298294">
        <ele>510.548833</ele>
        <time>2020-09-10T10:22:46.682Z</time>
      </trkpt>
      <trkpt lat="48.378538" lon="10.298296">
        <ele>510.482877</ele>
        <time>2020-09-10T10:22:48.687Z</time>
      </trkpt>
      <trkpt lat="48.378437" lon="10.298292">
        <ele>510.463127</ele>
        <time>2020-09-10T10:22:50.685Z</time>
      </trkpt>
      <trkpt lat="48.378326" lon="10.298289">
        <ele>510.441425</ele>
        <time>2020-09-10T10:22:52.683Z</time>
      </trkpt>
      <trkpt lat="48.378214" lon="10.298287">
        <ele>510.419529</ele>
        <time>2020-09-10T10:22:54.688Z</time>
      </trkpt>
      <trkpt lat="48.378101" lon="10.298282">
        <ele>510.397430</ele>
        <time>2020-09-10T10:22:56.690Z</time>
      </trkpt>
      <trkpt lat="48.377982" lon="10.298270">
        <ele>510.374116</ele>
        <time>2020-09-10T10:22:58.692Z</time>
      </trkpt>
      <trkpt lat="48.377861" lon="10.298268">
        <ele>510.350461</ele>
        <time>2020-09-10T10:23:00.685Z</time>
      </trkpt>
      <trkpt lat="48.377748" lon="10.298260">
        <ele>510.328347</ele>
        <time>2020-09-10T10:23:02.690Z</time>
      </trkpt>
      <trkpt lat="48.377629" lon="10.298255">
        <ele>510.305076</ele>
        <time>2020-09-10T10:23:04.690Z</time>
      </trkpt>
      <trkpt lat="48.377514" lon="10.298241">
        <ele>510.282522</ele>
        <time>2020-09-10T10:23:06.675Z</time>
      </trkpt>
      <trkpt lat="48.377402" lon="10.298226">
        <ele>510.260542</ele>
        <time>2020-09-10T10:23:08.694Z</time>
      </trkpt>
      <trkpt lat="48.377284" lon="10.298220">
        <ele>510.237462</ele>
        <time>2020-09-10T10:23:10.682Z</time>
      </trkpt>
      <trkpt lat="48.377171" lon="10.298208">
        <ele>510.215317</ele>
        <time>2020-09-10T10:23:12.688Z</time>
      </trkpt>
      <trkpt lat="48.377058" lon="10.298188">
        <ele>510.193076</ele>
        <time>2020-09-10T10:23:14.684Z</time>
      </trkpt>
      <trkpt lat="48.376949" lon="10.298172">
        <ele>510.171667</ele>
        <time>2020-09-10T10:23:16.683Z</time>
      </trkpt>
      <trkpt lat="48.376839" lon="10.298147">
        <ele>510.149921</ele>
        <time>2020-09-10T10:23:18.683Z</time>
      </trkpt>
      <trkpt lat="48.376724" lon="10.298112">
        <ele>510.239881</ele>
        <time>2020-09-10T10:23:20.686Z</time>
      </trkpt>
      <trkpt lat="48.376606" lon="10.298085">
        <ele>510.406783</ele>
        <time>2020-09-10T10:23:22.681Z</time>
      </trkpt>
      <trkpt lat="48.376489" lon="10.298070">
        <ele>510.570984</ele>
        <time>2020-09-10T10:23:24.682Z</time>
      </trkpt>
      <trkpt lat="48.376378" lon="10.298074">
        <ele>510.726247</ele>
        <time>2020-09-10T10:23:26.685Z</time>
      </trkpt>
      <trkpt lat="48.376264" lon="10.298099">
        <ele>510.887344</ele>
        <time>2020-09-10T10:23:28.686Z</time>
      </trkpt>
      <trkpt lat="48.376145" lon="10.298143">
        <ele>511.058694</ele>
        <time>2020-09-10T10:23:30.688Z</time>
      </trkpt>
      <trkpt lat="48.376026" lon="10.298202">
        <ele>511.233892</ele>
        <time>2020-09-10T10:23:32.687Z</time>
      </trkpt>
      <trkpt lat="48.375917" lon="10.298264">
        <ele>511.396830</ele>
        <time>2020-09-10T10:23:34.686Z</time>
      </trkpt>
      <trkpt lat="48.375808" lon="10.298316">
        <ele>511.556722</ele>
        <time>2020-09-10T10:23:36.690Z</time>
      </trkpt>
      <trkpt lat="48.375707" lon="10.298373">
        <ele>511.707554</ele>
        <time>2020-09-10T10:23:38.687Z</time>
      </trkpt>
      <trkpt lat="48.375605" lon="10.298433">
        <ele>511.860689</ele>
        <time>2020-09-10T10:23:40.689Z</time>
      </trkpt>
      <trkpt lat="48.375495" lon="10.298484">
        <ele>512.021639</ele>
        <time>2020-09-10T10:23:42.674Z</time>
      </trkpt>
      <trkpt lat="48.375376" lon="10.298549">
        <ele>512.198659</ele>
        <time>2020-09-10T10:23:44.693Z</time>
      </trkpt>
      <trkpt lat="48.375262" lon="10.298604">
        <ele>512.366059</ele>
        <time>2020-09-10T10:23:46.681Z</time>
      </trkpt>
      <trkpt lat="48.375150" lon="10.298652">
        <ele>512.528898</ele>
        <time>2020-09-10T10:23:48.688Z</time>
      </trkpt>
      <trkpt lat="48.375042" lon="10.298690">
        <ele>512.657103</ele>
        <time>2020-09-10T10:23:50.688Z</time>
      </trkpt>
      <trkpt lat="48.374938" lon="10.298738">
        <ele>512.663126</ele>
        <time>2020-09-10T10:23:52.686Z</time>
      </trkpt>
      <trkpt lat="48.374835" lon="10.298789">
        <ele>512.669130</ele>
        <time>2020-09-10T10:23:54.684Z</time>
      </trkpt>
      <trkpt lat="48.374723" lon="10.298838">
        <ele>512.675588</ele>
        <time>2020-09-10T10:23:56.682Z</time>
      </trkpt>
      <trkpt lat="48.374610" lon="10.298895">
        <ele>512.682187</ele>
        <time>2020-09-10T10:23:58.684Z</time>
      </trkpt>
      <trkpt lat="48.374493" lon="10.298946">
        <ele>512.688932</ele>
        <time>2020-09-10T10:24:00.684Z</time>
      </trkpt>
      <trkpt lat="48.374379" lon="10.298995">
        <ele>512.695496</ele>
        <time>2020-09-10T10:24:02.685Z</time>
      </trkpt>
      <trkpt lat="48.374272" lon="10.299041">
        <ele>512.701658</ele>
        <time>2020-09-10T10:24:04.684Z</time>
      </trkpt>
      <trkpt lat="48.374160" lon="10.299082">
        <ele>512.708040</ele>
        <time>2020-09-10T10:24:06.685Z</time>
      </trkpt>
      <trkpt lat="48.374054" lon="10.299119">
        <ele>512.714065</ele>
        <time>2020-09-10T10:24:08.692Z</time>
      </trkpt>
      <trkpt lat="48.373949" lon="10.299158">
        <ele>512.720053</ele>
        <time>2020-09-10T10:24:10.686Z</time>
      </trkpt>
      <trkpt lat="48.373846" lon="10.299206">
        <ele>512.726024</ele>
        <time>2020-09-10T10:24:12.692Z</time>
      </trkpt>
      <trkpt lat="48.373739" lon="10.299257">
        <ele>512.732238</ele>
        <time>2020-09-10T10:24:14.671Z</time>
      </trkpt>
      <trkpt lat="48.373633" lon="10.299311">
        <ele>512.738435</ele>
        <time>2020-09-10T10:24:16.690Z</time>
      </trkpt>
      <trkpt lat="48.373523" lon="10.299374">
        <ele>512.744951</ele>
        <time>2020-09-10T10:24:18.682Z</time>
      </trkpt>
      <trkpt lat="48.373420" lon="10.299446">
        <ele>512.751240</ele>
        <time>2020-09-10T10:24:20.684Z</time>
      </trkpt>
      <trkpt lat="48.373318" lon="10.299482">
        <ele>512.752405</ele>
        <time>2020-09-10T10:24:22.685Z</time>
      </trkpt>
      <trkpt lat="48.373214" lon="10.299486">
        <ele>512.739787</ele>
        <time>2020-09-10T10:24:24.688Z</time>
      </trkpt>
      <trkpt lat="48.373110" lon="10.299457">
        <ele>512.726957</ele>
        <time>2020-09-10T10:24:26.690Z</time>
      </trkpt>
      <trkpt lat="48.373009" lon="10.299417">
        <ele>512.714290</ele>
        <time>2020-09-10T10:24:28.688Z</time>
      </trkpt>
      <trkpt lat="48.372908" lon="10.299361">
        <ele>512.701235</ele>
        <time>2020-09-10T10:24:30.684Z</time>
      </trkpt>
      <trkpt lat="48.372810" lon="10.299293">
        <ele>512.688146</ele>
        <time>2020-09-10T10:24:32.687Z</time>
      </trkpt>
      <trkpt lat="48.372703" lon="10.299211">
        <ele>512.673583</ele>
        <time>2020-09-10T10:24:34.688Z</time>
      </trkpt>
      <trkpt lat="48.372597" lon="10.299126">
        <ele>512.659015</ele>
        <time>2020-09-10T10:24:36.686Z</time>
      </trkpt>
      <trkpt lat="48.372496" lon="10.299034">
        <ele>512.644696</ele>
        <time>2020-09-10T10:24:38.686Z</time>
      </trkpt>
      <trkpt lat="48.372398" lon="10.298947">
        <ele>512.630897</ele>
        <time>2020-09-10T10:24:40.690Z</time>
      </trkpt>
      <trkpt lat="48.372295" lon="10.298870">
        <ele>512.616948</ele>
        <time>2020-09-10T10:24:42.689Z</time>
      </trkpt>
      <trkpt lat="48.372182" lon="10.298803">
        <ele>512.602217</ele>
        <time>2020-09-10T10:24:44.690Z</time>
      </trkpt>
      <trkpt lat="48.372070" lon="10.298740">
        <ele>512.587714</ele>
        <time>2020-09-10T10:24:46.678Z</time>
      </trkpt>
      <trkpt lat="48.371966" lon="10.298674">
        <ele>512.574025</ele>
        <time>2020-09-10T10:24:48.694Z</time>
      </trkpt>
      <trkpt lat="48.371870" lon="10.298604">
        <ele>512.561087</ele>
        <time>2020-09-10T10:24:50.684Z</time>
      </trkpt>
      <trkpt lat="48.371779" lon="10.298532">
        <ele>512.548617</ele>
        <time>2020-09-10T10:24:52.689Z</time>
      </trkpt>
      <trkpt lat="48.371690" lon="10.298450">
        <ele>512.542767</ele>
        <time>2020-09-10T10:24:54.680Z</time>
      </trkpt>
      <trkpt lat="48.371603" lon="10.298356">
        <ele>512.590197</ele>
        <time>2020-09-10T10:24:56.688Z</time>
      </trkpt>
      <trkpt lat="48.371512" lon="10.298262">
        <ele>512.639077</ele>
        <time>2020-09-10T10:24:58.697Z</time>
      </trkpt>
      <trkpt lat="48.371415" lon="10.298164">
        <ele>512.690817</ele>
        <time>2020-09-10T10:25:00.686Z</time>
      </trkpt>
      <trkpt lat="48.371328" lon="10.298076">
        <ele>512.737240</ele>
        <time>2020-09-10T10:25:02.690Z</time>
      </trkpt>
      <trkpt lat="48.371259" lon="10.297973">
        <ele>512.780278</ele>
        <time>2020-09-10T10:25:04.684Z</time>
      </trkpt>
      <trkpt lat="48.371170" lon="10.297822">
        <ele>512.839671</ele>
        <time>2020-09-10T10:25:07.682Z</time>
      </trkpt>
      <trkpt lat="48.371098" lon="10.297671">
        <ele>512.894358</ele>
        <time>2020-09-10T10:25:10.683Z</time>
      </trkpt>
      <trkpt lat="48.371027" lon="10.297566">
        <ele>512.938439</ele>
        <time>2020-09-10T10:25:13.681Z</time>
      </trkpt>
      <trkpt lat="48.370939" lon="10.297523">
        <ele>512.979416</ele>
        <time>2020-09-10T10:25:19.688Z</time>
      </trkpt>
      <trkpt lat="48.370814" lon="10.297411">
        <ele>513.043844</ele>
        <time>2020-09-10T10:25:51.679Z</time>
      </trkpt>
      <trkpt lat="48.370762" lon="10.297255">
        <ele>513.095196</ele>
        <time>2020-09-10T10:25:54.680Z</time>
      </trkpt>
      <trkpt lat="48.370735" lon="10.297094">
        <ele>513.144052</ele>
        <time>2020-09-10T10:25:57.688Z</time>
      </trkpt>
      <trkpt lat="48.370703" lon="10.296933">
        <ele>513.193496</ele>
        <time>2020-09-10T10:26:00.691Z</time>
      </trkpt>
      <trkpt lat="48.370662" lon="10.296742">
        <ele>513.252553</ele>
        <time>2020-09-10T10:26:03.689Z</time>
      </trkpt>
      <trkpt lat="48.370636" lon="10.296593">
        <ele>513.297879</ele>
        <time>2020-09-10T10:26:05.682Z</time>
      </trkpt>
      <trkpt lat="48.370601" lon="10.296434">
        <ele>513.322592</ele>
        <time>2020-09-10T10:26:07.683Z</time>
      </trkpt>
      <trkpt lat="48.370570" lon="10.296266">
        <ele>513.277839</ele>
        <time>2020-09-10T10:26:09.684Z</time>
      </trkpt>
      <trkpt lat="48.370535" lon="10.296098">
        <ele>513.232648</ele>
        <time>2020-09-10T10:26:11.685Z</time>
      </trkpt>
      <trkpt lat="48.370501" lon="10.295924">
        <ele>513.186096</ele>
        <time>2020-09-10T10:26:13.689Z</time>
      </trkpt>
      <trkpt lat="48.370473" lon="10.295748">
        <ele>513.139645</ele>
        <time>2020-09-10T10:26:15.683Z</time>
      </trkpt>
      <trkpt lat="48.370435" lon="10.295583">
        <ele>513.094822</ele>
        <time>2020-09-10T10:26:17.683Z</time>
      </trkpt>
      <trkpt lat="48.370407" lon="10.295419">
        <ele>513.051360</ele>
        <time>2020-09-10T10:26:19.686Z</time>
      </trkpt>
      <trkpt lat="48.370339" lon="10.295324">
        <ele>513.015516</ele>
        <time>2020-09-10T10:26:21.687Z</time>
      </trkpt>
      <trkpt lat="48.370243" lon="10.295373">
        <ele>512.976350</ele>
        <time>2020-09-10T10:26:23.689Z</time>
      </trkpt>
      <trkpt lat="48.370137" lon="10.295423">
        <ele>512.933432</ele>
        <time>2020-09-10T10:26:25.690Z</time>
      </trkpt>
      <trkpt lat="48.370028" lon="10.295467">
        <ele>512.889830</ele>
        <time>2020-09-10T10:26:27.689Z</time>
      </trkpt>
      <trkpt lat="48.369923" lon="10.295502">
        <ele>512.848278</ele>
        <time>2020-09-10T10:26:29.680Z</time>
      </trkpt>
      <trkpt lat="48.369820" lon="10.295540">
        <ele>512.807305</ele>
        <time>2020-09-10T10:26:31.683Z</time>
      </trkpt>
      <trkpt lat="48.369720" lon="10.295556">
        <ele>512.768450</ele>
        <time>2020-09-10T10:26:33.689Z</time>
      </trkpt>
      <trkpt lat="48.369617" lon="10.295502">
        <ele>512.726310</ele>
        <time>2020-09-10T10:26:35.699Z</time>
      </trkpt>
      <trkpt lat="48.369535" lon="10.295401">
        <ele>512.685373</ele>
        <time>2020-09-10T10:26:37.692Z</time>
      </trkpt>
      <trkpt lat="48.369459" lon="10.295270">
        <ele>512.640732</ele>
        <time>2020-09-10T10:26:39.685Z</time>
      </trkpt>
      <trkpt lat="48.369387" lon="10.295140">
        <ele>512.698449</ele>
        <time>2020-09-10T10:26:41.688Z</time>
      </trkpt>
      <trkpt lat="48.369317" lon="10.295020">
        <ele>512.756628</ele>
        <time>2020-09-10T10:26:43.685Z</time>
      </trkpt>
      <trkpt lat="48.369250" lon="10.294895">
        <ele>512.815141</ele>
        <time>2020-09-10T10:26:45.681Z</time>
      </trkpt>
      <trkpt lat="48.369178" lon="10.294774">
        <ele>512.874321</ele>
        <time>2020-09-10T10:26:47.693Z</time>
      </trkpt>
      <trkpt lat="48.369116" lon="10.294661">
        <ele>512.927713</ele>
        <time>2020-09-10T10:26:49.683Z</time>
      </trkpt>
      <trkpt lat="48.369055" lon="10.294545">
        <ele>512.981611</ele>
        <time>2020-09-10T10:26:51.701Z</time>
      </trkpt>
      <trkpt lat="48.368991" lon="10.294430">
        <ele>513.036266</ele>
        <time>2020-09-10T10:26:53.693Z</time>
      </trkpt>
      <trkpt lat="48.368914" lon="10.294304">
        <ele>513.098637</ele>
        <time>2020-09-10T10:26:55.701Z</time>
      </trkpt>
      <trkpt lat="48.368834" lon="10.294171">
        <ele>513.164001</ele>
        <time>2020-09-10T10:26:57.682Z</time>
      </trkpt>
      <trkpt lat="48.368754" lon="10.294040">
        <ele>513.228827</ele>
        <time>2020-09-10T10:26:59.679Z</time>
      </trkpt>
      <trkpt lat="48.368672" lon="10.293894">
        <ele>513.298479</ele>
        <time>2020-09-10T10:27:02.703Z</time>
      </trkpt>
      <trkpt lat="48.368571" lon="10.293857">
        <ele>513.355483</ele>
        <time>2020-09-10T10:27:05.684Z</time>
      </trkpt>
      <trkpt lat="48.368475" lon="10.293904">
        <ele>513.410844</ele>
        <time>2020-09-10T10:27:07.687Z</time>
      </trkpt>
      <trkpt lat="48.368371" lon="10.293944">
        <ele>513.469709</ele>
        <time>2020-09-10T10:27:09.687Z</time>
      </trkpt>
      <trkpt lat="48.368271" lon="10.293991">
        <ele>513.527159</ele>
        <time>2020-09-10T10:27:11.690Z</time>
      </trkpt>
      <trkpt lat="48.368160" lon="10.294027">
        <ele>513.589428</ele>
        <time>2020-09-10T10:27:13.692Z</time>
      </trkpt>
      <trkpt lat="48.368041" lon="10.294070">
        <ele>513.619936</ele>
        <time>2020-09-10T10:27:15.685Z</time>
      </trkpt>
      <trkpt lat="48.367926" lon="10.294118">
        <ele>513.608293</ele>
        <time>2020-09-10T10:27:17.691Z</time>
      </trkpt>
      <trkpt lat="48.367804" lon="10.294167">
        <ele>513.595973</ele>
        <time>2020-09-10T10:27:19.692Z</time>
      </trkpt>
      <trkpt lat="48.367692" lon="10.294214">
        <ele>513.584629</ele>
        <time>2020-09-10T10:27:21.685Z</time>
      </trkpt>
      <trkpt lat="48.367580" lon="10.294259">
        <ele>513.573319</ele>
        <time>2020-09-10T10:27:23.689Z</time>
      </trkpt>
      <trkpt lat="48.367474" lon="10.294300">
        <ele>513.562641</ele>
        <time>2020-09-10T10:27:25.686Z</time>
      </trkpt>
      <trkpt lat="48.367365" lon="10.294348">
        <ele>513.551561</ele>
        <time>2020-09-10T10:27:27.685Z</time>
      </trkpt>
      <trkpt lat="48.367256" lon="10.294386">
        <ele>513.540644</ele>
        <time>2020-09-10T10:27:29.694Z</time>
      </trkpt>
      <trkpt lat="48.367149" lon="10.294432">
        <ele>513.529787</ele>
        <time>2020-09-10T10:27:31.687Z</time>
      </trkpt>
      <trkpt lat="48.367054" lon="10.294494">
        <ele>513.519685</ele>
        <time>2020-09-10T10:27:33.685Z</time>
      </trkpt>
      <trkpt lat="48.366954" lon="10.294562">
        <ele>513.508979</ele>
        <time>2020-09-10T10:27:35.689Z</time>
      </trkpt>
      <trkpt lat="48.366846" lon="10.294633">
        <ele>513.497481</ele>
        <time>2020-09-10T10:27:37.682Z</time>
      </trkpt>
      <trkpt lat="48.366738" lon="10.294705">
        <ele>513.485956</ele>
        <time>2020-09-10T10:27:39.688Z</time>
      </trkpt>
      <trkpt lat="48.366634" lon="10.294771">
        <ele>513.474944</ele>
        <time>2020-09-10T10:27:41.698Z</time>
      </trkpt>
      <trkpt lat="48.366532" lon="10.294833">
        <ele>513.464212</ele>
        <time>2020-09-10T10:27:43.681Z</time>
      </trkpt>
      <trkpt lat="48.366430" lon="10.294902">
        <ele>513.453301</ele>
        <time>2020-09-10T10:27:45.683Z</time>
      </trkpt>
      <trkpt lat="48.366330" lon="10.294972">
        <ele>513.436729</ele>
        <time>2020-09-10T10:27:47.703Z</time>
      </trkpt>
      <trkpt lat="48.366230" lon="10.295051">
        <ele>513.417100</ele>
        <time>2020-09-10T10:27:49.688Z</time>
      </trkpt>
      <trkpt lat="48.366129" lon="10.295124">
        <ele>513.397626</ele>
        <time>2020-09-10T10:27:51.683Z</time>
      </trkpt>
      <trkpt lat="48.366026" lon="10.295192">
        <ele>513.378077</ele>
        <time>2020-09-10T10:27:53.687Z</time>
      </trkpt>
      <trkpt lat="48.365922" lon="10.295264">
        <ele>513.358180</ele>
        <time>2020-09-10T10:27:55.675Z</time>
      </trkpt>
      <trkpt lat="48.365813" lon="10.295337">
        <ele>513.337444</ele>
        <time>2020-09-10T10:27:57.683Z</time>
      </trkpt>
      <trkpt lat="48.365703" lon="10.295411">
        <ele>513.316503</ele>
        <time>2020-09-10T10:27:59.689Z</time>
      </trkpt>
      <trkpt lat="48.365595" lon="10.295483">
        <ele>513.295972</ele>
        <time>2020-09-10T10:28:01.685Z</time>
      </trkpt>
      <trkpt lat="48.365492" lon="10.295555">
        <ele>513.276233</ele>
        <time>2020-09-10T10:28:03.682Z</time>
      </trkpt>
      <trkpt lat="48.365384" lon="10.295630">
        <ele>513.255560</ele>
        <time>2020-09-10T10:28:05.690Z</time>
      </trkpt>
      <trkpt lat="48.365270" lon="10.295710">
        <ele>513.233698</ele>
        <time>2020-09-10T10:28:07.684Z</time>
      </trkpt>
      <trkpt lat="48.365163" lon="10.295782">
        <ele>513.213327</ele>
        <time>2020-09-10T10:28:09.678Z</time>
      </trkpt>
      <trkpt lat="48.365048" lon="10.295852">
        <ele>513.191766</ele>
        <time>2020-09-10T10:28:11.680Z</time>
      </trkpt>
      <trkpt lat="48.364930" lon="10.295919">
        <ele>513.169846</ele>
        <time>2020-09-10T10:28:13.684Z</time>
      </trkpt>
      <trkpt lat="48.364809" lon="10.295942">
        <ele>513.148647</ele>
        <time>2020-09-10T10:28:15.692Z</time>
      </trkpt>
      <trkpt lat="48.364691" lon="10.295931">
        <ele>513.152791</ele>
        <time>2020-09-10T10:28:17.692Z</time>
      </trkpt>
      <trkpt lat="48.364571" lon="10.295906">
        <ele>513.187900</ele>
        <time>2020-09-10T10:28:19.688Z</time>
      </trkpt>
      <trkpt lat="48.364460" lon="10.295880">
        <ele>513.220455</ele>
        <time>2020-09-10T10:28:21.680Z</time>
      </trkpt>
      <trkpt lat="48.364333" lon="10.295863">
        <ele>513.257406</ele>
        <time>2020-09-10T10:28:23.681Z</time>
      </trkpt>
      <trkpt lat="48.364207" lon="10.295842">
        <ele>513.294144</ele>
        <time>2020-09-10T10:28:25.683Z</time>
      </trkpt>
      <trkpt lat="48.364081" lon="10.295819">
        <ele>513.330927</ele>
        <time>2020-09-10T10:28:27.683Z</time>
      </trkpt>
      <trkpt lat="48.363954" lon="10.295809">
        <ele>513.367783</ele>
        <time>2020-09-10T10:28:29.684Z</time>
      </trkpt>
      <trkpt lat="48.363830" lon="10.295794">
        <ele>513.403835</ele>
        <time>2020-09-10T10:28:31.691Z</time>
      </trkpt>
      <trkpt lat="48.363695" lon="10.295773">
        <ele>513.443167</ele>
        <time>2020-09-10T10:28:33.680Z</time>
      </trkpt>
      <trkpt lat="48.363565" lon="10.295761">
        <ele>513.480912</ele>
        <time>2020-09-10T10:28:35.692Z</time>
      </trkpt>
      <trkpt lat="48.363434" lon="10.295749">
        <ele>513.518947</ele>
        <time>2020-09-10T10:28:37.683Z</time>
      </trkpt>
      <trkpt lat="48.363304" lon="10.295728">
        <ele>513.556838</ele>
        <time>2020-09-10T10:28:39.686Z</time>
      </trkpt>
      <trkpt lat="48.363172" lon="10.295720">
        <ele>513.595123</ele>
        <time>2020-09-10T10:28:41.681Z</time>
      </trkpt>
      <trkpt lat="48.363043" lon="10.295726">
        <ele>513.632526</ele>
        <time>2020-09-10T10:28:43.678Z</time>
      </trkpt>
      <trkpt lat="48.362911" lon="10.295754">
        <ele>513.690804</ele>
        <time>2020-09-10T10:28:45.683Z</time>
      </trkpt>
      <trkpt lat="48.362781" lon="10.295778">
        <ele>513.788198</ele>
        <time>2020-09-10T10:28:47.687Z</time>
      </trkpt>
      <trkpt lat="48.362653" lon="10.295813">
        <ele>513.884939</ele>
        <time>2020-09-10T10:28:49.680Z</time>
      </trkpt>
      <trkpt lat="48.362520" lon="10.295845">
        <ele>513.985095</ele>
        <time>2020-09-10T10:28:51.684Z</time>
      </trkpt>
      <trkpt lat="48.362389" lon="10.295881">
        <ele>514.084118</ele>
        <time>2020-09-10T10:28:53.687Z</time>
      </trkpt>
      <trkpt lat="48.362254" lon="10.295913">
        <ele>514.185743</ele>
        <time>2020-09-10T10:28:55.688Z</time>
      </trkpt>
      <trkpt lat="48.362126" lon="10.295946">
        <ele>514.282311</ele>
        <time>2020-09-10T10:28:57.684Z</time>
      </trkpt>
      <trkpt lat="48.362002" lon="10.295991">
        <ele>514.377162</ele>
        <time>2020-09-10T10:28:59.681Z</time>
      </trkpt>
      <trkpt lat="48.361876" lon="10.296060">
        <ele>514.476866</ele>
        <time>2020-09-10T10:29:01.691Z</time>
      </trkpt>
      <trkpt lat="48.361750" lon="10.296127">
        <ele>514.576237</ele>
        <time>2020-09-10T10:29:03.688Z</time>
      </trkpt>
      <trkpt lat="48.361622" lon="10.296192">
        <ele>514.676691</ele>
        <time>2020-09-10T10:29:05.690Z</time>
      </trkpt>
      <trkpt lat="48.361498" lon="10.296261">
        <ele>514.774999</ele>
        <time>2020-09-10T10:29:07.691Z</time>
      </trkpt>
      <trkpt lat="48.361367" lon="10.296335">
        <ele>514.879047</ele>
        <time>2020-09-10T10:29:09.686Z</time>
      </trkpt>
      <trkpt lat="48.361239" lon="10.296401">
        <ele>514.979660</ele>
        <time>2020-09-10T10:29:11.679Z</time>
      </trkpt>
      <trkpt lat="48.361118" lon="10.296476">
        <ele>514.999043</ele>
        <time>2020-09-10T10:29:13.681Z</time>
      </trkpt>
      <trkpt lat="48.360999" lon="10.296549">
        <ele>515.002518</ele>
        <time>2020-09-10T10:29:15.678Z</time>
      </trkpt>
      <trkpt lat="48.360871" lon="10.296620">
        <ele>515.006207</ele>
        <time>2020-09-10T10:29:17.683Z</time>
      </trkpt>
      <trkpt lat="48.360748" lon="10.296694">
        <ele>515.009788</ele>
        <time>2020-09-10T10:29:19.685Z</time>
      </trkpt>
      <trkpt lat="48.360628" lon="10.296768">
        <ele>515.013295</ele>
        <time>2020-09-10T10:29:21.697Z</time>
      </trkpt>
      <trkpt lat="48.360508" lon="10.296840">
        <ele>515.016788</ele>
        <time>2020-09-10T10:29:23.686Z</time>
      </trkpt>
      <trkpt lat="48.360390" lon="10.296916">
        <ele>515.020258</ele>
        <time>2020-09-10T10:29:25.682Z</time>
      </trkpt>
      <trkpt lat="48.360278" lon="10.296989">
        <ele>515.023559</ele>
        <time>2020-09-10T10:29:27.682Z</time>
      </trkpt>
      <trkpt lat="48.360164" lon="10.297062">
        <ele>515.026909</ele>
        <time>2020-09-10T10:29:29.680Z</time>
      </trkpt>
      <trkpt lat="48.360053" lon="10.297138">
        <ele>515.030206</ele>
        <time>2020-09-10T10:29:31.682Z</time>
      </trkpt>
      <trkpt lat="48.359944" lon="10.297221">
        <ele>515.033509</ele>
        <time>2020-09-10T10:29:33.683Z</time>
      </trkpt>
      <trkpt lat="48.359832" lon="10.297295">
        <ele>515.036817</ele>
        <time>2020-09-10T10:29:35.684Z</time>
      </trkpt>
      <trkpt lat="48.359719" lon="10.297380">
        <ele>515.040232</ele>
        <time>2020-09-10T10:29:37.682Z</time>
      </trkpt>
      <trkpt lat="48.359601" lon="10.297460">
        <ele>515.043732</ele>
        <time>2020-09-10T10:29:39.683Z</time>
      </trkpt>
      <trkpt lat="48.359485" lon="10.297542">
        <ele>515.085593</ele>
        <time>2020-09-10T10:29:41.686Z</time>
      </trkpt>
      <trkpt lat="48.359364" lon="10.297616">
        <ele>515.144245</ele>
        <time>2020-09-10T10:29:43.681Z</time>
      </trkpt>
      <trkpt lat="48.359238" lon="10.297699">
        <ele>515.206010</ele>
        <time>2020-09-10T10:29:45.687Z</time>
      </trkpt>
      <trkpt lat="48.359113" lon="10.297789">
        <ele>515.268237</ele>
        <time>2020-09-10T10:29:47.679Z</time>
      </trkpt>
      <trkpt lat="48.358992" lon="10.297873">
        <ele>515.328077</ele>
        <time>2020-09-10T10:29:49.681Z</time>
      </trkpt>
      <trkpt lat="48.358874" lon="10.297953">
        <ele>515.386195</ele>
        <time>2020-09-10T10:29:51.686Z</time>
      </trkpt>
      <trkpt lat="48.358756" lon="10.298036">
        <ele>515.444687</ele>
        <time>2020-09-10T10:29:53.681Z</time>
      </trkpt>
      <trkpt lat="48.358632" lon="10.298122">
        <ele>515.506000</ele>
        <time>2020-09-10T10:29:55.685Z</time>
      </trkpt>
      <trkpt lat="48.358511" lon="10.298204">
        <ele>515.565592</ele>
        <time>2020-09-10T10:29:57.687Z</time>
      </trkpt>
      <trkpt lat="48.358390" lon="10.298273">
        <ele>515.623699</ele>
        <time>2020-09-10T10:29:59.690Z</time>
      </trkpt>
      <trkpt lat="48.358270" lon="10.298341">
        <ele>515.681281</ele>
        <time>2020-09-10T10:30:01.678Z</time>
      </trkpt>
      <trkpt lat="48.358142" lon="10.298392">
        <ele>515.740742</ele>
        <time>2020-09-10T10:30:03.681Z</time>
      </trkpt>
      <trkpt lat="48.358015" lon="10.298450">
        <ele>515.800342</ele>
        <time>2020-09-10T10:30:05.680Z</time>
      </trkpt>
      <trkpt lat="48.357887" lon="10.298502">
        <ele>515.854448</ele>
        <time>2020-09-10T10:30:07.682Z</time>
      </trkpt>
      <trkpt lat="48.357765" lon="10.298562">
        <ele>515.869940</ele>
        <time>2020-09-10T10:30:09.678Z</time>
      </trkpt>
      <trkpt lat="48.357642" lon="10.298622">
        <ele>515.885547</ele>
        <time>2020-09-10T10:30:11.678Z</time>
      </trkpt>
      <trkpt lat="48.357520" lon="10.298694">
        <ele>515.901365</ele>
        <time>2020-09-10T10:30:13.695Z</time>
      </trkpt>
      <trkpt lat="48.357407" lon="10.298781">
        <ele>515.916686</ele>
        <time>2020-09-10T10:30:15.682Z</time>
      </trkpt>
      <trkpt lat="48.357300" lon="10.298882">
        <ele>515.931932</ele>
        <time>2020-09-10T10:30:17.680Z</time>
      </trkpt>
      <trkpt lat="48.357193" lon="10.298993">
        <ele>515.947619</ele>
        <time>2020-09-10T10:30:19.683Z</time>
      </trkpt>
      <trkpt lat="48.357090" lon="10.299115">
        <ele>515.963441</ele>
        <time>2020-09-10T10:30:21.681Z</time>
      </trkpt>
      <trkpt lat="48.356981" lon="10.299223">
        <ele>515.979193</ele>
        <time>2020-09-10T10:30:23.676Z</time>
      </trkpt>
      <trkpt lat="48.356875" lon="10.299328">
        <ele>515.994511</ele>
        <time>2020-09-10T10:30:25.689Z</time>
      </trkpt>
      <trkpt lat="48.356761" lon="10.299411">
        <ele>516.009797</ele>
        <time>2020-09-10T10:30:27.680Z</time>
      </trkpt>
      <trkpt lat="48.356642" lon="10.299468">
        <ele>516.024872</ele>
        <time>2020-09-10T10:30:29.681Z</time>
      </trkpt>
      <trkpt lat="48.356517" lon="10.299524">
        <ele>516.040614</ele>
        <time>2020-09-10T10:30:31.688Z</time>
      </trkpt>
      <trkpt lat="48.356392" lon="10.299583">
        <ele>516.056427</ele>
        <time>2020-09-10T10:30:33.681Z</time>
      </trkpt>
      <trkpt lat="48.356263" lon="10.299648">
        <ele>516.068504</ele>
        <time>2020-09-10T10:30:35.686Z</time>
      </trkpt>
      <trkpt lat="48.356146" lon="10.299734">
        <ele>516.063468</ele>
        <time>2020-09-10T10:30:37.677Z</time>
      </trkpt>
      <trkpt lat="48.356029" lon="10.299824">
        <ele>516.058387</ele>
        <time>2020-09-10T10:30:39.679Z</time>
      </trkpt>
      <trkpt lat="48.355907" lon="10.299912">
        <ele>516.053155</ele>
        <time>2020-09-10T10:30:41.689Z</time>
      </trkpt>
      <trkpt lat="48.355793" lon="10.299991">
        <ele>516.048301</ele>
        <time>2020-09-10T10:30:43.687Z</time>
      </trkpt>
      <trkpt lat="48.355670" lon="10.300022">
        <ele>516.043478</ele>
        <time>2020-09-10T10:30:45.682Z</time>
      </trkpt>
      <trkpt lat="48.355553" lon="10.299960">
        <ele>516.038681</ele>
        <time>2020-09-10T10:30:47.691Z</time>
      </trkpt>
      <trkpt lat="48.355444" lon="10.299850">
        <ele>516.033606</ele>
        <time>2020-09-10T10:30:49.690Z</time>
      </trkpt>
      <trkpt lat="48.355336" lon="10.299736">
        <ele>516.028504</ele>
        <time>2020-09-10T10:30:51.680Z</time>
      </trkpt>
      <trkpt lat="48.355225" lon="10.299625">
        <ele>516.023350</ele>
        <time>2020-09-10T10:30:53.682Z</time>
      </trkpt>
      <trkpt lat="48.355121" lon="10.299527">
        <ele>516.018605</ele>
        <time>2020-09-10T10:30:55.689Z</time>
      </trkpt>
      <trkpt lat="48.355015" lon="10.299425">
        <ele>516.013739</ele>
        <time>2020-09-10T10:30:57.682Z</time>
      </trkpt>
      <trkpt lat="48.354916" lon="10.299321">
        <ele>516.009070</ele>
        <time>2020-09-10T10:30:59.680Z</time>
      </trkpt>
      <trkpt lat="48.354817" lon="10.299232">
        <ele>516.004610</ele>
        <time>2020-09-10T10:31:01.680Z</time>
      </trkpt>
      <trkpt lat="48.354700" lon="10.299232">
        <ele>516.000086</ele>
        <time>2020-09-10T10:31:03.683Z</time>
      </trkpt>
      <trkpt lat="48.354592" lon="10.299290">
        <ele>516.009109</ele>
        <time>2020-09-10T10:31:05.677Z</time>
      </trkpt>
      <trkpt lat="48.354480" lon="10.299344">
        <ele>516.018636</ele>
        <time>2020-09-10T10:31:07.681Z</time>
      </trkpt>
      <trkpt lat="48.354364" lon="10.299398">
        <ele>516.028471</ele>
        <time>2020-09-10T10:31:09.686Z</time>
      </trkpt>
      <trkpt lat="48.354240" lon="10.299453">
        <ele>516.038943</ele>
        <time>2020-09-10T10:31:11.690Z</time>
      </trkpt>
      <trkpt lat="48.354117" lon="10.299495">
        <ele>516.049159</ele>
        <time>2020-09-10T10:31:13.669Z</time>
      </trkpt>
      <trkpt lat="48.353992" lon="10.299539">
        <ele>516.059558</ele>
        <time>2020-09-10T10:31:15.680Z</time>
      </trkpt>
      <trkpt lat="48.353861" lon="10.299578">
        <ele>516.070375</ele>
        <time>2020-09-10T10:31:17.682Z</time>
      </trkpt>
      <trkpt lat="48.353735" lon="10.299620">
        <ele>516.080828</ele>
        <time>2020-09-10T10:31:19.681Z</time>
      </trkpt>
      <trkpt lat="48.353608" lon="10.299661">
        <ele>516.091349</ele>
        <time>2020-09-10T10:31:21.677Z</time>
      </trkpt>
      <trkpt lat="48.353478" lon="10.299706">
        <ele>516.102155</ele>
        <time>2020-09-10T10:31:23.681Z</time>
      </trkpt>
      <trkpt lat="48.353353" lon="10.299759">
        <ele>516.112674</ele>
        <time>2020-09-10T10:31:25.679Z</time>
      </trkpt>
      <trkpt lat="48.353225" lon="10.299804">
        <ele>516.123321</ele>
        <time>2020-09-10T10:31:27.689Z</time>
      </trkpt>
      <trkpt lat="48.353102" lon="10.299835">
        <ele>516.133423</ele>
        <time>2020-09-10T10:31:29.684Z</time>
      </trkpt>
      <trkpt lat="48.352987" lon="10.299863">
        <ele>516.142860</ele>
        <time>2020-09-10T10:31:31.687Z</time>
      </trkpt>
      <trkpt lat="48.352872" lon="10.299888">
        <ele>516.212004</ele>
        <time>2020-09-10T10:31:33.694Z</time>
      </trkpt>
      <trkpt lat="48.352756" lon="10.299910">
        <ele>516.307465</ele>
        <time>2020-09-10T10:31:35.687Z</time>
      </trkpt>
      <trkpt lat="48.352648" lon="10.299928">
        <ele>516.396184</ele>
        <time>2020-09-10T10:31:37.685Z</time>
      </trkpt>
      <trkpt lat="48.352544" lon="10.299939">
        <ele>516.481307</ele>
        <time>2020-09-10T10:31:39.688Z</time>
      </trkpt>
      <trkpt lat="48.352434" lon="10.299955">
        <ele>516.571539</ele>
        <time>2020-09-10T10:31:41.690Z</time>
      </trkpt>
      <trkpt lat="48.352324" lon="10.299961">
        <ele>516.661410</ele>
        <time>2020-09-10T10:31:43.682Z</time>
      </trkpt>
      <trkpt lat="48.352215" lon="10.299965">
        <ele>516.750433</ele>
        <time>2020-09-10T10:31:45.680Z</time>
      </trkpt>
      <trkpt lat="48.352101" lon="10.299952">
        <ele>516.843778</ele>
        <time>2020-09-10T10:31:48.681Z</time>
      </trkpt>
      <trkpt lat="48.352012" lon="10.299981">
        <ele>516.918129</ele>
        <time>2020-09-10T10:31:52.695Z</time>
      </trkpt>
      <trkpt lat="48.351921" lon="10.300093">
        <ele>517.014116</ele>
        <time>2020-09-10T10:31:55.679Z</time>
      </trkpt>
      <trkpt lat="48.351841" lon="10.300172">
        <ele>517.092243</ele>
        <time>2020-09-10T10:31:57.677Z</time>
      </trkpt>
      <trkpt lat="48.351752" lon="10.300244">
        <ele>517.174746</ele>
        <time>2020-09-10T10:31:59.682Z</time>
      </trkpt>
      <trkpt lat="48.351652" lon="10.300313">
        <ele>517.264568</ele>
        <time>2020-09-10T10:32:01.681Z</time>
      </trkpt>
      <trkpt lat="48.351551" lon="10.300378">
        <ele>517.354258</ele>
        <time>2020-09-10T10:32:03.685Z</time>
      </trkpt>
      <trkpt lat="48.351456" lon="10.300450">
        <ele>517.441106</ele>
        <time>2020-09-10T10:32:05.682Z</time>
      </trkpt>
      <trkpt lat="48.351350" lon="10.300529">
        <ele>517.537687</ele>
        <time>2020-09-10T10:32:07.685Z</time>
      </trkpt>
      <trkpt lat="48.351246" lon="10.300609">
        <ele>517.612931</ele>
        <time>2020-09-10T10:32:09.686Z</time>
      </trkpt>
      <trkpt lat="48.351144" lon="10.300685">
        <ele>517.606425</ele>
        <time>2020-09-10T10:32:11.689Z</time>
      </trkpt>
      <trkpt lat="48.351048" lon="10.300766">
        <ele>517.600134</ele>
        <time>2020-09-10T10:32:13.683Z</time>
      </trkpt>
      <trkpt lat="48.350945" lon="10.300845">
        <ele>517.593526</ele>
        <time>2020-09-10T10:32:15.688Z</time>
      </trkpt>
      <trkpt lat="48.350838" lon="10.300891">
        <ele>517.587166</ele>
        <time>2020-09-10T10:32:17.681Z</time>
      </trkpt>
      <trkpt lat="48.350737" lon="10.300919">
        <ele>517.581296</ele>
        <time>2020-09-10T10:32:19.685Z</time>
      </trkpt>
      <trkpt lat="48.350629" lon="10.300935">
        <ele>517.575093</ele>
        <time>2020-09-10T10:32:21.686Z</time>
      </trkpt>
      <trkpt lat="48.350519" lon="10.300946">
        <ele>517.568792</ele>
        <time>2020-09-10T10:32:23.679Z</time>
      </trkpt>
      <trkpt lat="48.350409" lon="10.300961">
        <ele>517.562478</ele>
        <time>2020-09-10T10:32:25.683Z</time>
      </trkpt>
      <trkpt lat="48.350308" lon="10.300980">
        <ele>517.556661</ele>
        <time>2020-09-10T10:32:27.676Z</time>
      </trkpt>
      <trkpt lat="48.350203" lon="10.301001">
        <ele>517.550606</ele>
        <time>2020-09-10T10:32:29.677Z</time>
      </trkpt>
      <trkpt lat="48.350098" lon="10.301014">
        <ele>517.544584</ele>
        <time>2020-09-10T10:32:31.698Z</time>
      </trkpt>
      <trkpt lat="48.349984" lon="10.301026">
        <ele>517.538052</ele>
        <time>2020-09-10T10:32:33.683Z</time>
      </trkpt>
      <trkpt lat="48.349870" lon="10.301049">
        <ele>517.531478</ele>
        <time>2020-09-10T10:32:35.679Z</time>
      </trkpt>
      <trkpt lat="48.349750" lon="10.301070">
        <ele>517.524573</ele>
        <time>2020-09-10T10:32:37.674Z</time>
      </trkpt>
      <trkpt lat="48.349623" lon="10.301085">
        <ele>517.517292</ele>
        <time>2020-09-10T10:32:39.682Z</time>
      </trkpt>
      <trkpt lat="48.349500" lon="10.301098">
        <ele>517.513750</ele>
        <time>2020-09-10T10:32:41.680Z</time>
      </trkpt>
      <trkpt lat="48.349381" lon="10.301113">
        <ele>517.526919</ele>
        <time>2020-09-10T10:32:43.684Z</time>
      </trkpt>
      <trkpt lat="48.349267" lon="10.301121">
        <ele>517.539504</ele>
        <time>2020-09-10T10:32:45.681Z</time>
      </trkpt>
      <trkpt lat="48.349157" lon="10.301135">
        <ele>517.551678</ele>
        <time>2020-09-10T10:32:47.686Z</time>
      </trkpt>
      <trkpt lat="48.349040" lon="10.301153">
        <ele>517.564648</ele>
        <time>2020-09-10T10:32:49.682Z</time>
      </trkpt>
      <trkpt lat="48.348917" lon="10.301170">
        <ele>517.578269</ele>
        <time>2020-09-10T10:32:51.684Z</time>
      </trkpt>
      <trkpt lat="48.348793" lon="10.301186">
        <ele>517.591993</ele>
        <time>2020-09-10T10:32:53.686Z</time>
      </trkpt>
      <trkpt lat="48.348669" lon="10.301200">
        <ele>517.605706</ele>
        <time>2020-09-10T10:32:55.682Z</time>
      </trkpt>
      <trkpt lat="48.348550" lon="10.301215">
        <ele>517.618875</ele>
        <time>2020-09-10T10:32:57.686Z</time>
      </trkpt>
      <trkpt lat="48.348433" lon="10.301233">
        <ele>517.631845</ele>
        <time>2020-09-10T10:32:59.683Z</time>
      </trkpt>
      <trkpt lat="48.348315" lon="10.301251">
        <ele>517.644924</ele>
        <time>2020-09-10T10:33:01.685Z</time>
      </trkpt>
      <trkpt lat="48.348190" lon="10.301262">
        <ele>517.658732</ele>
        <time>2020-09-10T10:33:03.687Z</time>
      </trkpt>
      <trkpt lat="48.348065" lon="10.301280">
        <ele>517.672580</ele>
        <time>2020-09-10T10:33:05.684Z</time>
      </trkpt>
      <trkpt lat="48.347939" lon="10.301293">
        <ele>517.686507</ele>
        <time>2020-09-10T10:33:07.677Z</time>
      </trkpt>
      <trkpt lat="48.347817" lon="10.301309">
        <ele>517.700012</ele>
        <time>2020-09-10T10:33:09.686Z</time>
      </trkpt>
      <trkpt lat="48.347692" lon="10.301328">
        <ele>517.708034</ele>
        <time>2020-09-10T10:33:11.677Z</time>
      </trkpt>
      <trkpt lat="48.347561" lon="10.301346">
        <ele>517.701789</ele>
        <time>2020-09-10T10:33:13.677Z</time>
      </trkpt>
      <trkpt lat="48.347441" lon="10.301358">
        <ele>517.696079</ele>
        <time>2020-09-10T10:33:15.678Z</time>
      </trkpt>
      <trkpt lat="48.347332" lon="10.301372">
        <ele>517.690885</ele>
        <time>2020-09-10T10:33:17.690Z</time>
      </trkpt>
      <trkpt lat="48.347226" lon="10.301383">
        <ele>517.685841</ele>
        <time>2020-09-10T10:33:19.689Z</time>
      </trkpt>
      <trkpt lat="48.347126" lon="10.301399">
        <ele>517.681066</ele>
        <time>2020-09-10T10:33:21.670Z</time>
      </trkpt>
      <trkpt lat="48.347036" lon="10.301405">
        <ele>517.676789</ele>
        <time>2020-09-10T10:33:23.678Z</time>
      </trkpt>
      <trkpt lat="48.346928" lon="10.301446">
        <ele>517.671501</ele>
        <time>2020-09-10T10:33:26.683Z</time>
      </trkpt>
      <trkpt lat="48.346938" lon="10.301637">
        <ele>517.665456</ele>
        <time>2020-09-10T10:33:29.676Z</time>
      </trkpt>
      <trkpt lat="48.346962" lon="10.301785">
        <ele>517.660649</ele>
        <time>2020-09-10T10:33:31.680Z</time>
      </trkpt>
      <trkpt lat="48.346988" lon="10.301939">
        <ele>517.655635</ele>
        <time>2020-09-10T10:33:33.683Z</time>
      </trkpt>
      <trkpt lat="48.347020" lon="10.302109">
        <ele>517.650060</ele>
        <time>2020-09-10T10:33:35.681Z</time>
      </trkpt>
      <trkpt lat="48.347050" lon="10.302279">
        <ele>517.644510</ele>
        <time>2020-09-10T10:33:37.682Z</time>
      </trkpt>
      <trkpt lat="48.347076" lon="10.302448">
        <ele>517.639037</ele>
        <time>2020-09-10T10:33:39.683Z</time>
      </trkpt>
      <trkpt lat="48.347098" lon="10.302608">
        <ele>517.633881</ele>
        <time>2020-09-10T10:33:41.688Z</time>
      </trkpt>
      <trkpt lat="48.347125" lon="10.302767">
        <ele>517.628703</ele>
        <time>2020-09-10T10:33:43.683Z</time>
      </trkpt>
      <trkpt lat="48.347153" lon="10.302926">
        <ele>517.631224</ele>
        <time>2020-09-10T10:33:45.685Z</time>
      </trkpt>
      <trkpt lat="48.347174" lon="10.303099">
        <ele>517.674098</ele>
        <time>2020-09-10T10:33:47.680Z</time>
      </trkpt>
      <trkpt lat="48.347200" lon="10.303280">
        <ele>517.719244</ele>
        <time>2020-09-10T10:33:49.680Z</time>
      </trkpt>
      <trkpt lat="48.347231" lon="10.303472">
        <ele>517.767415</ele>
        <time>2020-09-10T10:33:51.677Z</time>
      </trkpt>
      <trkpt lat="48.347262" lon="10.303649">
        <ele>517.812040</ele>
        <time>2020-09-10T10:33:53.677Z</time>
      </trkpt>
      <trkpt lat="48.347291" lon="10.303826">
        <ele>517.856484</ele>
        <time>2020-09-10T10:33:55.682Z</time>
      </trkpt>
      <trkpt lat="48.347316" lon="10.303998">
        <ele>517.899408</ele>
        <time>2020-09-10T10:33:57.681Z</time>
      </trkpt>
      <trkpt lat="48.347347" lon="10.304164">
        <ele>517.941445</ele>
        <time>2020-09-10T10:33:59.681Z</time>
      </trkpt>
      <trkpt lat="48.347370" lon="10.304322">
        <ele>517.980878</ele>
        <time>2020-09-10T10:34:01.689Z</time>
      </trkpt>
      <trkpt lat="48.347388" lon="10.304472">
        <ele>518.018039</ele>
        <time>2020-09-10T10:34:03.681Z</time>
      </trkpt>
      <trkpt lat="48.347411" lon="10.304617">
        <ele>518.054382</ele>
        <time>2020-09-10T10:34:05.677Z</time>
      </trkpt>
      <trkpt lat="48.347441" lon="10.304773">
        <ele>518.093974</ele>
        <time>2020-09-10T10:34:07.681Z</time>
      </trkpt>
      <trkpt lat="48.347461" lon="10.304928">
        <ele>518.132468</ele>
        <time>2020-09-10T10:34:09.681Z</time>
      </trkpt>
      <trkpt lat="48.347489" lon="10.305089">
        <ele>518.173041</ele>
        <time>2020-09-10T10:34:11.681Z</time>
      </trkpt>
      <trkpt lat="48.347509" lon="10.305230">
        <ele>518.208190</ele>
        <time>2020-09-10T10:34:13.679Z</time>
      </trkpt>
      <trkpt lat="48.347486" lon="10.305409">
        <ele>518.252638</ele>
        <time>2020-09-10T10:34:16.685Z</time>
      </trkpt>
      <trkpt lat="48.347396" lon="10.305461">
        <ele>518.286932</ele>
        <time>2020-09-10T10:34:18.682Z</time>
      </trkpt>
      <trkpt lat="48.347295" lon="10.305481">
        <ele>518.313839</ele>
        <time>2020-09-10T10:34:20.694Z</time>
      </trkpt>
      <trkpt lat="48.347191" lon="10.305506">
        <ele>518.341656</ele>
        <time>2020-09-10T10:34:22.683Z</time>
      </trkpt>
      <trkpt lat="48.347080" lon="10.305546">
        <ele>518.371803</ele>
        <time>2020-09-10T10:34:24.676Z</time>
      </trkpt>
      <trkpt lat="48.346973" lon="10.305628">
        <ele>518.403519</ele>
        <time>2020-09-10T10:34:26.687Z</time>
      </trkpt>
      <trkpt lat="48.346870" lon="10.305728">
        <ele>518.435895</ele>
        <time>2020-09-10T10:34:28.679Z</time>
      </trkpt>
      <trkpt lat="48.346775" lon="10.305847">
        <ele>518.468544</ele>
        <time>2020-09-10T10:34:30.682Z</time>
      </trkpt>
      <trkpt lat="48.346704" lon="10.305994">
        <ele>518.500443</ele>
        <time>2020-09-10T10:34:32.685Z</time>
      </trkpt>
      <trkpt lat="48.346671" lon="10.306156">
        <ele>518.530187</ele>
        <time>2020-09-10T10:34:34.683Z</time>
      </trkpt>
      <trkpt lat="48.346670" lon="10.306317">
        <ele>518.558451</ele>
        <time>2020-09-10T10:34:36.679Z</time>
      </trkpt>
      <trkpt lat="48.346691" lon="10.306455">
        <ele>518.583302</ele>
        <time>2020-09-10T10:34:38.681Z</time>
      </trkpt>
      <trkpt lat="48.346715" lon="10.306646">
        <ele>518.617425</ele>
        <time>2020-09-10T10:34:41.679Z</time>
      </trkpt>
      <trkpt lat="48.346726" lon="10.306798">
        <ele>518.644265</ele>
        <time>2020-09-10T10:34:44.678Z</time>
      </trkpt>
      <trkpt lat="48.346652" lon="10.306933">
        <ele>518.674983</ele>
        <time>2020-09-10T10:34:47.671Z</time>
      </trkpt>
      <trkpt lat="48.346560" lon="10.306993">
        <ele>518.701467</ele>
        <time>2020-09-10T10:34:49.679Z</time>
      </trkpt>
      <trkpt lat="48.346455" lon="10.307044">
        <ele>518.730609</ele>
        <time>2020-09-10T10:34:51.680Z</time>
      </trkpt>
      <trkpt lat="48.346358" lon="10.307094">
        <ele>518.757691</ele>
        <time>2020-09-10T10:34:53.676Z</time>
      </trkpt>
      <trkpt lat="48.346267" lon="10.307152">
        <ele>518.764789</ele>
        <time>2020-09-10T10:34:55.681Z</time>
      </trkpt>
      <trkpt lat="48.346181" lon="10.307212">
        <ele>518.770444</ele>
        <time>2020-09-10T10:34:57.673Z</time>
      </trkpt>
      <trkpt lat="48.346088" lon="10.307291">
        <ele>518.776814</ele>
        <time>2020-09-10T10:34:59.682Z</time>
      </trkpt>
      <trkpt lat="48.346006" lon="10.307391">
        <ele>518.783110</ele>
        <time>2020-09-10T10:35:01.682Z</time>
      </trkpt>
      <trkpt lat="48.345934" lon="10.307510">
        <ele>518.789490</ele>
        <time>2020-09-10T10:35:03.682Z</time>
      </trkpt>
      <trkpt lat="48.345858" lon="10.307634">
        <ele>518.796177</ele>
        <time>2020-09-10T10:35:05.680Z</time>
      </trkpt>
      <trkpt lat="48.345790" lon="10.307759">
        <ele>518.802580</ele>
        <time>2020-09-10T10:35:07.674Z</time>
      </trkpt>
      <trkpt lat="48.345728" lon="10.307886">
        <ele>518.808828</ele>
        <time>2020-09-10T10:35:09.677Z</time>
      </trkpt>
      <trkpt lat="48.345676" lon="10.307999">
        <ele>518.814276</ele>
        <time>2020-09-10T10:35:11.682Z</time>
      </trkpt>
      <trkpt lat="48.345618" lon="10.308106">
        <ele>518.819750</ele>
        <time>2020-09-10T10:35:13.681Z</time>
      </trkpt>
      <trkpt lat="48.345548" lon="10.308228">
        <ele>518.826140</ele>
        <time>2020-09-10T10:35:15.688Z</time>
      </trkpt>
      <trkpt lat="48.345484" lon="10.308365">
        <ele>518.832778</ele>
        <time>2020-09-10T10:35:17.682Z</time>
      </trkpt>
      <trkpt lat="48.345413" lon="10.308504">
        <ele>518.839728</ele>
        <time>2020-09-10T10:35:19.675Z</time>
      </trkpt>
      <trkpt lat="48.345335" lon="10.308642">
        <ele>518.846910</ele>
        <time>2020-09-10T10:35:21.686Z</time>
      </trkpt>
      <trkpt lat="48.345270" lon="10.308783">
        <ele>518.853713</ele>
        <time>2020-09-10T10:35:23.682Z</time>
      </trkpt>
      <trkpt lat="48.345200" lon="10.308915">
        <ele>518.860408</ele>
        <time>2020-09-10T10:35:25.686Z</time>
      </trkpt>
      <trkpt lat="48.345136" lon="10.309054">
        <ele>518.881653</ele>
        <time>2020-09-10T10:35:27.684Z</time>
      </trkpt>
      <trkpt lat="48.345062" lon="10.309185">
        <ele>519.059283</ele>
        <time>2020-09-10T10:35:29.677Z</time>
      </trkpt>
      <trkpt lat="48.344994" lon="10.309319">
        <ele>519.233473</ele>
        <time>2020-09-10T10:35:31.679Z</time>
      </trkpt>
      <trkpt lat="48.344932" lon="10.309443">
        <ele>519.393795</ele>
        <time>2020-09-10T10:35:33.682Z</time>
      </trkpt>
      <trkpt lat="48.344874" lon="10.309554">
        <ele>519.539679</ele>
        <time>2020-09-10T10:35:35.677Z</time>
      </trkpt>
      <trkpt lat="48.344799" lon="10.309683">
        <ele>519.716760</ele>
        <time>2020-09-10T10:35:38.679Z</time>
      </trkpt>
      <trkpt lat="48.344790" lon="10.309844">
        <ele>519.883694</ele>
        <time>2020-09-10T10:35:42.686Z</time>
      </trkpt>
      <trkpt lat="48.344794" lon="10.310001">
        <ele>520.046027</ele>
        <time>2020-09-10T10:35:45.682Z</time>
      </trkpt>
      <trkpt lat="48.344763" lon="10.310147">
        <ele>520.204385</ele>
        <time>2020-09-10T10:35:49.682Z</time>
      </trkpt>
      <trkpt lat="48.344699" lon="10.310274">
        <ele>520.369055</ele>
        <time>2020-09-10T10:35:53.687Z</time>
      </trkpt>
      <trkpt lat="48.344627" lon="10.310413">
        <ele>520.551135</ele>
        <time>2020-09-10T10:35:57.681Z</time>
      </trkpt>
      <trkpt lat="48.344556" lon="10.310551">
        <ele>520.731445</ele>
        <time>2020-09-10T10:36:00.682Z</time>
      </trkpt>
      <trkpt lat="48.344475" lon="10.310701">
        <ele>520.931131</ele>
        <time>2020-09-10T10:36:03.687Z</time>
      </trkpt>
      <trkpt lat="48.344397" lon="10.310838">
        <ele>521.117514</ele>
        <time>2020-09-10T10:36:06.677Z</time>
      </trkpt>
      <trkpt lat="48.344320" lon="10.310978">
        <ele>521.305268</ele>
        <time>2020-09-10T10:36:09.681Z</time>
      </trkpt>
      <trkpt lat="48.344231" lon="10.311121">
        <ele>521.507682</ele>
        <time>2020-09-10T10:36:12.678Z</time>
      </trkpt>
      <trkpt lat="48.344140" lon="10.311267">
        <ele>521.651950</ele>
        <time>2020-09-10T10:36:15.680Z</time>
      </trkpt>
      <trkpt lat="48.344075" lon="10.311367">
        <ele>521.622408</ele>
        <time>2020-09-10T10:36:17.676Z</time>
      </trkpt>
      <trkpt lat="48.344004" lon="10.311459">
        <ele>521.592633</ele>
        <time>2020-09-10T10:36:19.675Z</time>
      </trkpt>
      <trkpt lat="48.343927" lon="10.311552">
        <ele>521.561256</ele>
        <time>2020-09-10T10:36:21.683Z</time>
      </trkpt>
      <trkpt lat="48.343845" lon="10.311650">
        <ele>521.527978</ele>
        <time>2020-09-10T10:36:23.677Z</time>
      </trkpt>
      <trkpt lat="48.343759" lon="10.311745">
        <ele>521.494075</ele>
        <time>2020-09-10T10:36:25.687Z</time>
      </trkpt>
      <trkpt lat="48.343669" lon="10.311833">
        <ele>521.459967</ele>
        <time>2020-09-10T10:36:27.681Z</time>
      </trkpt>
      <trkpt lat="48.343580" lon="10.311912">
        <ele>521.427131</ele>
        <time>2020-09-10T10:36:29.693Z</time>
      </trkpt>
      <trkpt lat="48.343487" lon="10.311982">
        <ele>521.394086</ele>
        <time>2020-09-10T10:36:31.688Z</time>
      </trkpt>
      <trkpt lat="48.343402" lon="10.312051">
        <ele>521.363395</ele>
        <time>2020-09-10T10:36:33.683Z</time>
      </trkpt>
      <trkpt lat="48.343310" lon="10.312112">
        <ele>521.331448</ele>
        <time>2020-09-10T10:36:35.683Z</time>
      </trkpt>
      <trkpt lat="48.343214" lon="10.312173">
        <ele>521.298333</ele>
        <time>2020-09-10T10:36:37.683Z</time>
      </trkpt>
      <trkpt lat="48.343109" lon="10.312226">
        <ele>521.263139</ele>
        <time>2020-09-10T10:36:39.675Z</time>
      </trkpt>
      <trkpt lat="48.342998" lon="10.312276">
        <ele>521.226320</ele>
        <time>2020-09-10T10:36:41.674Z</time>
      </trkpt>
      <trkpt lat="48.342882" lon="10.312320">
        <ele>521.188306</ele>
        <time>2020-09-10T10:36:43.682Z</time>
      </trkpt>
      <trkpt lat="48.342778" lon="10.312361">
        <ele>521.154142</ele>
        <time>2020-09-10T10:36:45.687Z</time>
      </trkpt>
      <trkpt lat="48.342675" lon="10.312398">
        <ele>521.120492</ele>
        <time>2020-09-10T10:36:47.691Z</time>
      </trkpt>
      <trkpt lat="48.342565" lon="10.312435">
        <ele>521.087562</ele>
        <time>2020-09-10T10:36:49.696Z</time>
      </trkpt>
      <trkpt lat="48.342460" lon="10.312466">
        <ele>521.069052</ele>
        <time>2020-09-10T10:36:51.680Z</time>
      </trkpt>
      <trkpt lat="48.342352" lon="10.312507">
        <ele>521.049784</ele>
        <time>2020-09-10T10:36:53.682Z</time>
      </trkpt>
      <trkpt lat="48.342236" lon="10.312539">
        <ele>521.029383</ele>
        <time>2020-09-10T10:36:55.691Z</time>
      </trkpt>
      <trkpt lat="48.342118" lon="10.312559">
        <ele>521.008841</ele>
        <time>2020-09-10T10:36:57.679Z</time>
      </trkpt>
      <trkpt lat="48.342008" lon="10.312573">
        <ele>520.989745</ele>
        <time>2020-09-10T10:36:59.678Z</time>
      </trkpt>
      <trkpt lat="48.341899" lon="10.312577">
        <ele>520.970884</ele>
        <time>2020-09-10T10:37:01.683Z</time>
      </trkpt>
      <trkpt lat="48.341791" lon="10.312582">
        <ele>520.952193</ele>
        <time>2020-09-10T10:37:03.683Z</time>
      </trkpt>
      <trkpt lat="48.341679" lon="10.312583">
        <ele>520.932818</ele>
        <time>2020-09-10T10:37:05.678Z</time>
      </trkpt>
      <trkpt lat="48.341564" lon="10.312581">
        <ele>520.912923</ele>
        <time>2020-09-10T10:37:07.679Z</time>
      </trkpt>
      <trkpt lat="48.341441" lon="10.312583">
        <ele>520.891645</ele>
        <time>2020-09-10T10:37:09.680Z</time>
      </trkpt>
      <trkpt lat="48.341318" lon="10.312573">
        <ele>520.870336</ele>
        <time>2020-09-10T10:37:11.689Z</time>
      </trkpt>
      <trkpt lat="48.341201" lon="10.312585">
        <ele>520.850050</ele>
        <time>2020-09-10T10:37:13.682Z</time>
      </trkpt>
      <trkpt lat="48.341090" lon="10.312605">
        <ele>520.830711</ele>
        <time>2020-09-10T10:37:15.682Z</time>
      </trkpt>
      <trkpt lat="48.340988" lon="10.312638">
        <ele>520.812663</ele>
        <time>2020-09-10T10:37:17.680Z</time>
      </trkpt>
      <trkpt lat="48.340894" lon="10.312679">
        <ele>520.795733</ele>
        <time>2020-09-10T10:37:19.676Z</time>
      </trkpt>
      <trkpt lat="48.340804" lon="10.312730">
        <ele>520.785360</ele>
        <time>2020-09-10T10:37:21.680Z</time>
      </trkpt>
      <trkpt lat="48.340716" lon="10.312788">
        <ele>520.903014</ele>
        <time>2020-09-10T10:37:23.730Z</time>
      </trkpt>
      <trkpt lat="48.340626" lon="10.312849">
        <ele>521.023897</ele>
        <time>2020-09-10T10:37:25.683Z</time>
      </trkpt>
      <trkpt lat="48.340543" lon="10.312916">
        <ele>521.139246</ele>
        <time>2020-09-10T10:37:27.677Z</time>
      </trkpt>
      <trkpt lat="48.340455" lon="10.312993">
        <ele>521.263913</ele>
        <time>2020-09-10T10:37:29.686Z</time>
      </trkpt>
      <trkpt lat="48.340369" lon="10.313080">
        <ele>521.390825</ele>
        <time>2020-09-10T10:37:31.682Z</time>
      </trkpt>
      <trkpt lat="48.340290" lon="10.313167">
        <ele>521.510719</ele>
        <time>2020-09-10T10:37:33.683Z</time>
      </trkpt>
      <trkpt lat="48.340212" lon="10.313259">
        <ele>521.632095</ele>
        <time>2020-09-10T10:37:35.674Z</time>
      </trkpt>
      <trkpt lat="48.340146" lon="10.313364">
        <ele>521.749729</ele>
        <time>2020-09-10T10:37:37.678Z</time>
      </trkpt>
      <trkpt lat="48.340095" lon="10.313482">
        <ele>521.864301</ele>
        <time>2020-09-10T10:37:39.674Z</time>
      </trkpt>
      <trkpt lat="48.340048" lon="10.313615">
        <ele>521.986912</ele>
        <time>2020-09-10T10:37:41.669Z</time>
      </trkpt>
      <trkpt lat="48.340007" lon="10.313760">
        <ele>522.115178</ele>
        <time>2020-09-10T10:37:43.683Z</time>
      </trkpt>
      <trkpt lat="48.339963" lon="10.313911">
        <ele>522.249385</ele>
        <time>2020-09-10T10:37:45.685Z</time>
      </trkpt>
      <trkpt lat="48.339925" lon="10.314064">
        <ele>522.382338</ele>
        <time>2020-09-10T10:37:47.680Z</time>
      </trkpt>
      <trkpt lat="48.339883" lon="10.314210">
        <ele>522.511835</ele>
        <time>2020-09-10T10:37:49.680Z</time>
      </trkpt>
      <trkpt lat="48.339839" lon="10.314355">
        <ele>522.641584</ele>
        <time>2020-09-10T10:37:51.673Z</time>
      </trkpt>
      <trkpt lat="48.339795" lon="10.314492">
        <ele>522.765438</ele>
        <time>2020-09-10T10:37:53.679Z</time>
      </trkpt>
      <trkpt lat="48.339736" lon="10.314621">
        <ele>522.892901</ele>
        <time>2020-09-10T10:37:55.677Z</time>
      </trkpt>
      <trkpt lat="48.339670" lon="10.314747">
        <ele>522.987857</ele>
        <time>2020-09-10T10:37:57.681Z</time>
      </trkpt>
      <trkpt lat="48.339598" lon="10.314871">
        <ele>523.005378</ele>
        <time>2020-09-10T10:37:59.676Z</time>
      </trkpt>
      <trkpt lat="48.339518" lon="10.314988">
        <ele>523.023240</ele>
        <time>2020-09-10T10:38:01.676Z</time>
      </trkpt>
      <trkpt lat="48.339435" lon="10.315096">
        <ele>523.040808</ele>
        <time>2020-09-10T10:38:03.683Z</time>
      </trkpt>
      <trkpt lat="48.339365" lon="10.315203">
        <ele>523.056785</ele>
        <time>2020-09-10T10:38:05.676Z</time>
      </trkpt>
      <trkpt lat="48.339285" lon="10.315317">
        <ele>523.074425</ele>
        <time>2020-09-10T10:38:07.677Z</time>
      </trkpt>
      <trkpt lat="48.339204" lon="10.315425">
        <ele>523.091753</ele>
        <time>2020-09-10T10:38:09.682Z</time>
      </trkpt>
      <trkpt lat="48.339124" lon="10.315542">
        <ele>523.109615</ele>
        <time>2020-09-10T10:38:11.687Z</time>
      </trkpt>
      <trkpt lat="48.339052" lon="10.315655">
        <ele>523.126272</ele>
        <time>2020-09-10T10:38:13.683Z</time>
      </trkpt>
      <trkpt lat="48.338986" lon="10.315756">
        <ele>523.141344</ele>
        <time>2020-09-10T10:38:15.679Z</time>
      </trkpt>
      <trkpt lat="48.338887" lon="10.315897">
        <ele>523.163169</ele>
        <time>2020-09-10T10:38:18.683Z</time>
      </trkpt>
      <trkpt lat="48.338810" lon="10.315983">
        <ele>523.178522</ele>
        <time>2020-09-10T10:38:20.678Z</time>
      </trkpt>
      <trkpt lat="48.338730" lon="10.316071">
        <ele>523.194387</ele>
        <time>2020-09-10T10:38:22.683Z</time>
      </trkpt>
      <trkpt lat="48.338641" lon="10.316149">
        <ele>523.210877</ele>
        <time>2020-09-10T10:38:24.684Z</time>
      </trkpt>
      <trkpt lat="48.338557" lon="10.316217">
        <ele>523.226148</ele>
        <time>2020-09-10T10:38:26.681Z</time>
      </trkpt>
      <trkpt lat="48.338439" lon="10.316292">
        <ele>523.246656</ele>
        <time>2020-09-10T10:38:29.680Z</time>
      </trkpt>
      <trkpt lat="48.338335" lon="10.316370">
        <ele>523.265260</ele>
        <time>2020-09-10T10:38:32.682Z</time>
      </trkpt>
      <trkpt lat="48.338265" lon="10.316461">
        <ele>523.248493</ele>
        <time>2020-09-10T10:38:34.685Z</time>
      </trkpt>
      <trkpt lat="48.338196" lon="10.316560">
        <ele>523.213671</ele>
        <time>2020-09-10T10:38:36.686Z</time>
      </trkpt>
      <trkpt lat="48.338114" lon="10.316652">
        <ele>523.176314</ele>
        <time>2020-09-10T10:38:38.681Z</time>
      </trkpt>
      <trkpt lat="48.338025" lon="10.316742">
        <ele>523.137151</ele>
        <time>2020-09-10T10:38:40.677Z</time>
      </trkpt>
      <trkpt lat="48.337939" lon="10.316830">
        <ele>523.099167</ele>
        <time>2020-09-10T10:38:42.685Z</time>
      </trkpt>
      <trkpt lat="48.337858" lon="10.316911">
        <ele>523.063647</ele>
        <time>2020-09-10T10:38:44.675Z</time>
      </trkpt>
      <trkpt lat="48.337746" lon="10.317026">
        <ele>523.014125</ele>
        <time>2020-09-10T10:38:47.675Z</time>
      </trkpt>
      <trkpt lat="48.337670" lon="10.317102">
        <ele>522.980798</ele>
        <time>2020-09-10T10:38:49.672Z</time>
      </trkpt>
      <trkpt lat="48.337589" lon="10.317175">
        <ele>522.946315</ele>
        <time>2020-09-10T10:38:51.679Z</time>
      </trkpt>
      <trkpt lat="48.337511" lon="10.317259">
        <ele>522.911283</ele>
        <time>2020-09-10T10:38:53.677Z</time>
      </trkpt>
      <trkpt lat="48.337431" lon="10.317323">
        <ele>522.878192</ele>
        <time>2020-09-10T10:38:55.677Z</time>
      </trkpt>
      <trkpt lat="48.337347" lon="10.317381">
        <ele>522.844439</ele>
        <time>2020-09-10T10:38:58.677Z</time>
      </trkpt>
      <trkpt lat="48.337258" lon="10.317425">
        <ele>522.810226</ele>
        <time>2020-09-10T10:39:03.678Z</time>
      </trkpt>
      <trkpt lat="48.337247" lon="10.317580">
        <ele>522.772384</ele>
        <time>2020-09-10T10:39:53.677Z</time>
      </trkpt>
      <trkpt lat="48.337304" lon="10.317726">
        <ele>522.731280</ele>
        <time>2020-09-10T10:39:57.683Z</time>
      </trkpt>
      <trkpt lat="48.337360" lon="10.317880">
        <ele>522.688667</ele>
        <time>2020-09-10T10:40:01.681Z</time>
      </trkpt>
      <trkpt lat="48.337410" lon="10.317994">
        <ele>522.655511</ele>
        <time>2020-09-10T10:40:04.681Z</time>
      </trkpt>
      <trkpt lat="48.337462" lon="10.318121">
        <ele>522.619301</ele>
        <time>2020-09-10T10:40:07.673Z</time>
      </trkpt>
      <trkpt lat="48.337518" lon="10.318260">
        <ele>522.746207</ele>
        <time>2020-09-10T10:40:10.679Z</time>
      </trkpt>
      <trkpt lat="48.337564" lon="10.318391">
        <ele>522.887555</ele>
        <time>2020-09-10T10:40:13.683Z</time>
      </trkpt>
      <trkpt lat="48.337613" lon="10.318510">
        <ele>523.021105</ele>
        <time>2020-09-10T10:40:16.677Z</time>
      </trkpt>
      <trkpt lat="48.337640" lon="10.318654">
        <ele>523.163851</ele>
        <time>2020-09-10T10:40:20.676Z</time>
      </trkpt>
      <trkpt lat="48.337558" lon="10.318714">
        <ele>523.294724</ele>
        <time>2020-09-10T10:40:23.687Z</time>
      </trkpt>
      <trkpt lat="48.337438" lon="10.318783">
        <ele>523.479105</ele>
        <time>2020-09-10T10:40:26.680Z</time>
      </trkpt>
      <trkpt lat="48.337343" lon="10.318822">
        <ele>523.620438</ele>
        <time>2020-09-10T10:40:28.680Z</time>
      </trkpt>
      <trkpt lat="48.337247" lon="10.318860">
        <ele>523.762911</ele>
        <time>2020-09-10T10:40:30.674Z</time>
      </trkpt>
      <trkpt lat="48.337146" lon="10.318899">
        <ele>523.912569</ele>
        <time>2020-09-10T10:40:32.676Z</time>
      </trkpt>
      <trkpt lat="48.337039" lon="10.318950">
        <ele>524.073664</ele>
        <time>2020-09-10T10:40:34.677Z</time>
      </trkpt>
      <trkpt lat="48.336936" lon="10.319010">
        <ele>524.232190</ele>
        <time>2020-09-10T10:40:36.679Z</time>
      </trkpt>
      <trkpt lat="48.336840" lon="10.319065">
        <ele>524.379627</ele>
        <time>2020-09-10T10:40:38.677Z</time>
      </trkpt>
      <trkpt lat="48.336753" lon="10.319123">
        <ele>524.516205</ele>
        <time>2020-09-10T10:40:40.680Z</time>
      </trkpt>
      <trkpt lat="48.336675" lon="10.319203">
        <ele>524.651698</ele>
        <time>2020-09-10T10:40:42.683Z</time>
      </trkpt>
      <trkpt lat="48.336562" lon="10.319315">
        <ele>524.845918</ele>
        <time>2020-09-10T10:40:45.680Z</time>
      </trkpt>
      <trkpt lat="48.336491" lon="10.319406">
        <ele>524.979791</ele>
        <time>2020-09-10T10:40:47.679Z</time>
      </trkpt>
      <trkpt lat="48.336421" lon="10.319492">
        <ele>525.109506</ele>
        <time>2020-09-10T10:40:49.674Z</time>
      </trkpt>
      <trkpt lat="48.336309" lon="10.319618">
        <ele>525.283285</ele>
        <time>2020-09-10T10:40:52.671Z</time>
      </trkpt>
      <trkpt lat="48.336234" lon="10.319716">
        <ele>525.392502</ele>
        <time>2020-09-10T10:40:54.679Z</time>
      </trkpt>
      <trkpt lat="48.336155" lon="10.319806">
        <ele>525.501450</ele>
        <time>2020-09-10T10:40:56.675Z</time>
      </trkpt>
      <trkpt lat="48.336072" lon="10.319896">
        <ele>525.613935</ele>
        <time>2020-09-10T10:40:58.679Z</time>
      </trkpt>
      <trkpt lat="48.335984" lon="10.319967">
        <ele>525.723718</ele>
        <time>2020-09-10T10:41:00.674Z</time>
      </trkpt>
      <trkpt lat="48.335892" lon="10.320047">
        <ele>525.840545</ele>
        <time>2020-09-10T10:41:02.678Z</time>
      </trkpt>
      <trkpt lat="48.335798" lon="10.320121">
        <ele>525.957184</ele>
        <time>2020-09-10T10:41:04.675Z</time>
      </trkpt>
      <trkpt lat="48.335705" lon="10.320194">
        <ele>526.072511</ele>
        <time>2020-09-10T10:41:06.680Z</time>
      </trkpt>
      <trkpt lat="48.335604" lon="10.320260">
        <ele>526.193574</ele>
        <time>2020-09-10T10:41:08.675Z</time>
      </trkpt>
      <trkpt lat="48.335512" lon="10.320328">
        <ele>526.306268</ele>
        <time>2020-09-10T10:41:10.683Z</time>
      </trkpt>
      <trkpt lat="48.335412" lon="10.320408">
        <ele>526.430788</ele>
        <time>2020-09-10T10:41:12.673Z</time>
      </trkpt>
      <trkpt lat="48.335303" lon="10.320479">
        <ele>526.561374</ele>
        <time>2020-09-10T10:41:14.673Z</time>
      </trkpt>
      <trkpt lat="48.335201" lon="10.320552">
        <ele>526.685557</ele>
        <time>2020-09-10T10:41:16.679Z</time>
      </trkpt>
      <trkpt lat="48.335090" lon="10.320616">
        <ele>526.816247</ele>
        <time>2020-09-10T10:41:18.685Z</time>
      </trkpt>
      <trkpt lat="48.334970" lon="10.320677">
        <ele>526.955503</ele>
        <time>2020-09-10T10:41:20.675Z</time>
      </trkpt>
      <trkpt lat="48.334856" lon="10.320726">
        <ele>527.085850</ele>
        <time>2020-09-10T10:41:22.679Z</time>
      </trkpt>
      <trkpt lat="48.334739" lon="10.320777">
        <ele>527.156640</ele>
        <time>2020-09-10T10:41:24.681Z</time>
      </trkpt>
      <trkpt lat="48.334626" lon="10.320818">
        <ele>527.113796</ele>
        <time>2020-09-10T10:41:26.672Z</time>
      </trkpt>
      <trkpt lat="48.334511" lon="10.320854">
        <ele>527.070501</ele>
        <time>2020-09-10T10:41:28.676Z</time>
      </trkpt>
      <trkpt lat="48.334392" lon="10.320886">
        <ele>527.025945</ele>
        <time>2020-09-10T10:41:30.670Z</time>
      </trkpt>
      <trkpt lat="48.334280" lon="10.320936">
        <ele>526.982884</ele>
        <time>2020-09-10T10:41:32.672Z</time>
      </trkpt>
      <trkpt lat="48.334160" lon="10.320991">
        <ele>526.936647</ele>
        <time>2020-09-10T10:41:34.675Z</time>
      </trkpt>
      <trkpt lat="48.334036" lon="10.321061">
        <ele>526.887830</ele>
        <time>2020-09-10T10:41:36.674Z</time>
      </trkpt>
      <trkpt lat="48.333915" lon="10.321134">
        <ele>526.839778</ele>
        <time>2020-09-10T10:41:38.675Z</time>
      </trkpt>
      <trkpt lat="48.333791" lon="10.321207">
        <ele>526.790699</ele>
        <time>2020-09-10T10:41:40.684Z</time>
      </trkpt>
      <trkpt lat="48.333669" lon="10.321293">
        <ele>526.741039</ele>
        <time>2020-09-10T10:41:42.678Z</time>
      </trkpt>
      <trkpt lat="48.333546" lon="10.321378">
        <ele>526.691149</ele>
        <time>2020-09-10T10:41:44.672Z</time>
      </trkpt>
      <trkpt lat="48.333429" lon="10.321465">
        <ele>526.643043</ele>
        <time>2020-09-10T10:41:46.677Z</time>
      </trkpt>
      <trkpt lat="48.333327" lon="10.321552">
        <ele>526.599825</ele>
        <time>2020-09-10T10:41:48.675Z</time>
      </trkpt>
      <trkpt lat="48.333233" lon="10.321622">
        <ele>526.561165</ele>
        <time>2020-09-10T10:41:50.686Z</time>
      </trkpt>
      <trkpt lat="48.333151" lon="10.321684">
        <ele>526.527338</ele>
        <time>2020-09-10T10:41:52.692Z</time>
      </trkpt>
      <trkpt lat="48.333048" lon="10.321763">
        <ele>526.564330</ele>
        <time>2020-09-10T10:41:55.673Z</time>
      </trkpt>
      <trkpt lat="48.332944" lon="10.321846">
        <ele>526.660105</ele>
        <time>2020-09-10T10:41:58.675Z</time>
      </trkpt>
      <trkpt lat="48.332853" lon="10.321901">
        <ele>526.739887</ele>
        <time>2020-09-10T10:42:02.686Z</time>
      </trkpt>
      <trkpt lat="48.332744" lon="10.321981">
        <ele>526.838551</ele>
        <time>2020-09-10T10:43:39.674Z</time>
      </trkpt>
      <trkpt lat="48.332667" lon="10.322062">
        <ele>526.914989</ele>
        <time>2020-09-10T10:43:45.674Z</time>
      </trkpt>
      <trkpt lat="48.332576" lon="10.322133">
        <ele>526.998384</ele>
        <time>2020-09-10T10:43:50.676Z</time>
      </trkpt>
      <trkpt lat="48.332482" lon="10.322215">
        <ele>527.086783</ele>
        <time>2020-09-10T10:43:55.674Z</time>
      </trkpt>
      <trkpt lat="48.332402" lon="10.322276">
        <ele>527.159747</ele>
        <time>2020-09-10T10:43:58.681Z</time>
      </trkpt>
      <trkpt lat="48.332312" lon="10.322323">
        <ele>527.237250</ele>
        <time>2020-09-10T10:44:01.671Z</time>
      </trkpt>
      <trkpt lat="48.332209" lon="10.322389">
        <ele>527.328327</ele>
        <time>2020-09-10T10:44:05.674Z</time>
      </trkpt>
      <trkpt lat="48.332104" lon="10.322466">
        <ele>527.423356</ele>
        <time>2020-09-10T10:44:09.679Z</time>
      </trkpt>
      <trkpt lat="48.332019" lon="10.322524">
        <ele>527.499286</ele>
        <time>2020-09-10T10:44:12.675Z</time>
      </trkpt>
      <trkpt lat="48.331931" lon="10.322595">
        <ele>527.580523</ele>
        <time>2020-09-10T10:44:15.673Z</time>
      </trkpt>
      <trkpt lat="48.331823" lon="10.322667">
        <ele>527.676624</ele>
        <time>2020-09-10T10:44:18.672Z</time>
      </trkpt>
      <trkpt lat="48.331738" lon="10.322715">
        <ele>527.750485</ele>
        <time>2020-09-10T10:44:20.673Z</time>
      </trkpt>
      <trkpt lat="48.331654" lon="10.322764">
        <ele>527.823778</ele>
        <time>2020-09-10T10:44:22.673Z</time>
      </trkpt>
      <trkpt lat="48.331567" lon="10.322811">
        <ele>527.898979</ele>
        <time>2020-09-10T10:44:24.670Z</time>
      </trkpt>
      <trkpt lat="48.331443" lon="10.322878">
        <ele>527.988648</ele>
        <time>2020-09-10T10:44:27.675Z</time>
      </trkpt>
      <trkpt lat="48.331352" lon="10.322928">
        <ele>528.026143</ele>
        <time>2020-09-10T10:44:29.676Z</time>
      </trkpt>
      <trkpt lat="48.331246" lon="10.322983">
        <ele>528.069538</ele>
        <time>2020-09-10T10:44:31.671Z</time>
      </trkpt>
      <trkpt lat="48.331139" lon="10.323053">
        <ele>528.114696</ele>
        <time>2020-09-10T10:44:33.671Z</time>
      </trkpt>
      <trkpt lat="48.331028" lon="10.323122">
        <ele>528.161178</ele>
        <time>2020-09-10T10:44:35.672Z</time>
      </trkpt>
      <trkpt lat="48.330915" lon="10.323191">
        <ele>528.208377</ele>
        <time>2020-09-10T10:44:37.673Z</time>
      </trkpt>
      <trkpt lat="48.330794" lon="10.323258">
        <ele>528.258278</ele>
        <time>2020-09-10T10:44:39.672Z</time>
      </trkpt>
      <trkpt lat="48.330671" lon="10.323330">
        <ele>528.309358</ele>
        <time>2020-09-10T10:44:41.679Z</time>
      </trkpt>
      <trkpt lat="48.330547" lon="10.323402">
        <ele>528.360799</ele>
        <time>2020-09-10T10:44:43.672Z</time>
      </trkpt>
      <trkpt lat="48.330422" lon="10.323459">
        <ele>528.411350</ele>
        <time>2020-09-10T10:44:45.670Z</time>
      </trkpt>
      <trkpt lat="48.330296" lon="10.323515">
        <ele>528.462198</ele>
        <time>2020-09-10T10:44:47.671Z</time>
      </trkpt>
      <trkpt lat="48.330172" lon="10.323557">
        <ele>528.511389</ele>
        <time>2020-09-10T10:44:49.683Z</time>
      </trkpt>
      <trkpt lat="48.330044" lon="10.323594">
        <ele>528.561833</ele>
        <time>2020-09-10T10:44:51.673Z</time>
      </trkpt>
      <trkpt lat="48.329907" lon="10.323605">
        <ele>528.614930</ele>
        <time>2020-09-10T10:44:53.672Z</time>
      </trkpt>
      <trkpt lat="48.329762" lon="10.323603">
        <ele>528.662217</ele>
        <time>2020-09-10T10:44:55.674Z</time>
      </trkpt>
      <trkpt lat="48.329611" lon="10.323572">
        <ele>528.484161</ele>
        <time>2020-09-10T10:44:57.673Z</time>
      </trkpt>
      <trkpt lat="48.329465" lon="10.323540">
        <ele>528.311780</ele>
        <time>2020-09-10T10:44:59.676Z</time>
      </trkpt>
      <trkpt lat="48.329323" lon="10.323507">
        <ele>528.143906</ele>
        <time>2020-09-10T10:45:01.674Z</time>
      </trkpt>
      <trkpt lat="48.329184" lon="10.323452">
        <ele>527.975980</ele>
        <time>2020-09-10T10:45:03.674Z</time>
      </trkpt>
      <trkpt lat="48.329046" lon="10.323446">
        <ele>527.814681</ele>
        <time>2020-09-10T10:45:05.677Z</time>
      </trkpt>
      <trkpt lat="48.328952" lon="10.323593">
        <ele>527.656251</ele>
        <time>2020-09-10T10:45:07.674Z</time>
      </trkpt>
      <trkpt lat="48.328906" lon="10.323774">
        <ele>527.505731</ele>
        <time>2020-09-10T10:45:09.680Z</time>
      </trkpt>
      <trkpt lat="48.328850" lon="10.323939">
        <ele>527.361828</ele>
        <time>2020-09-10T10:45:11.674Z</time>
      </trkpt>
      <trkpt lat="48.328780" lon="10.324096">
        <ele>527.214990</ele>
        <time>2020-09-10T10:45:13.673Z</time>
      </trkpt>
      <trkpt lat="48.328707" lon="10.324246">
        <ele>527.070592</ele>
        <time>2020-09-10T10:45:15.677Z</time>
      </trkpt>
      <trkpt lat="48.328634" lon="10.324401">
        <ele>526.923043</ele>
        <time>2020-09-10T10:45:17.672Z</time>
      </trkpt>
      <trkpt lat="48.328559" lon="10.324568">
        <ele>526.766497</ele>
        <time>2020-09-10T10:45:19.673Z</time>
      </trkpt>
      <trkpt lat="48.328481" lon="10.324716">
        <ele>526.619794</ele>
        <time>2020-09-10T10:45:21.677Z</time>
      </trkpt>
      <trkpt lat="48.328383" lon="10.324848">
        <ele>526.595206</ele>
        <time>2020-09-10T10:45:23.672Z</time>
      </trkpt>
      <trkpt lat="48.328268" lon="10.324962">
        <ele>526.639359</ele>
        <time>2020-09-10T10:45:25.671Z</time>
      </trkpt>
      <trkpt lat="48.328157" lon="10.325058">
        <ele>526.680406</ele>
        <time>2020-09-10T10:45:27.672Z</time>
      </trkpt>
      <trkpt lat="48.328038" lon="10.325136">
        <ele>526.722019</ele>
        <time>2020-09-10T10:45:29.679Z</time>
      </trkpt>
      <trkpt lat="48.327915" lon="10.325219">
        <ele>526.765236</ele>
        <time>2020-09-10T10:45:31.679Z</time>
      </trkpt>
      <trkpt lat="48.327793" lon="10.325302">
        <ele>526.808160</ele>
        <time>2020-09-10T10:45:33.684Z</time>
      </trkpt>
      <trkpt lat="48.327672" lon="10.325387">
        <ele>526.850972</ele>
        <time>2020-09-10T10:45:35.671Z</time>
      </trkpt>
      <trkpt lat="48.327549" lon="10.325456">
        <ele>526.893055</ele>
        <time>2020-09-10T10:45:37.671Z</time>
      </trkpt>
      <trkpt lat="48.327427" lon="10.325530">
        <ele>526.935225</ele>
        <time>2020-09-10T10:45:39.674Z</time>
      </trkpt>
      <trkpt lat="48.327305" lon="10.325609">
        <ele>526.977806</ele>
        <time>2020-09-10T10:45:41.672Z</time>
      </trkpt>
      <trkpt lat="48.327184" lon="10.325687">
        <ele>527.020007</ele>
        <time>2020-09-10T10:45:43.676Z</time>
      </trkpt>
      <trkpt lat="48.327060" lon="10.325765">
        <ele>527.063095</ele>
        <time>2020-09-10T10:45:45.673Z</time>
      </trkpt>
      <trkpt lat="48.326942" lon="10.325841">
        <ele>527.104245</ele>
        <time>2020-09-10T10:45:47.670Z</time>
      </trkpt>
      <trkpt lat="48.326820" lon="10.325907">
        <ele>527.143551</ele>
        <time>2020-09-10T10:45:49.670Z</time>
      </trkpt>
      <trkpt lat="48.326701" lon="10.325987">
        <ele>527.133115</ele>
        <time>2020-09-10T10:45:51.701Z</time>
      </trkpt>
      <trkpt lat="48.326578" lon="10.326062">
        <ele>527.122489</ele>
        <time>2020-09-10T10:45:53.676Z</time>
      </trkpt>
      <trkpt lat="48.326457" lon="10.326139">
        <ele>527.111970</ele>
        <time>2020-09-10T10:45:55.677Z</time>
      </trkpt>
      <trkpt lat="48.326333" lon="10.326204">
        <ele>527.101457</ele>
        <time>2020-09-10T10:45:57.684Z</time>
      </trkpt>
      <trkpt lat="48.326212" lon="10.326267">
        <ele>527.091205</ele>
        <time>2020-09-10T10:45:59.677Z</time>
      </trkpt>
      <trkpt lat="48.326089" lon="10.326337">
        <ele>527.080676</ele>
        <time>2020-09-10T10:46:01.677Z</time>
      </trkpt>
      <trkpt lat="48.325962" lon="10.326397">
        <ele>527.070019</ele>
        <time>2020-09-10T10:46:03.674Z</time>
      </trkpt>
      <trkpt lat="48.325839" lon="10.326467">
        <ele>527.059490</ele>
        <time>2020-09-10T10:46:05.674Z</time>
      </trkpt>
      <trkpt lat="48.325708" lon="10.326535">
        <ele>527.048395</ele>
        <time>2020-09-10T10:46:07.677Z</time>
      </trkpt>
      <trkpt lat="48.325582" lon="10.326600">
        <ele>527.037730</ele>
        <time>2020-09-10T10:46:09.679Z</time>
      </trkpt>
      <trkpt lat="48.325450" lon="10.326659">
        <ele>527.026705</ele>
        <time>2020-09-10T10:46:11.673Z</time>
      </trkpt>
      <trkpt lat="48.325321" lon="10.326715">
        <ele>527.015956</ele>
        <time>2020-09-10T10:46:13.682Z</time>
      </trkpt>
      <trkpt lat="48.325196" lon="10.326776">
        <ele>527.005434</ele>
        <time>2020-09-10T10:46:15.670Z</time>
      </trkpt>
      <trkpt lat="48.325068" lon="10.326820">
        <ele>526.989233</ele>
        <time>2020-09-10T10:46:17.681Z</time>
      </trkpt>
      <trkpt lat="48.324940" lon="10.326876">
        <ele>526.966602</ele>
        <time>2020-09-10T10:46:19.674Z</time>
      </trkpt>
      <trkpt lat="48.324808" lon="10.326936">
        <ele>526.943191</ele>
        <time>2020-09-10T10:46:21.679Z</time>
      </trkpt>
      <trkpt lat="48.324676" lon="10.326996">
        <ele>526.919780</ele>
        <time>2020-09-10T10:46:23.700Z</time>
      </trkpt>
      <trkpt lat="48.324541" lon="10.327045">
        <ele>526.896204</ele>
        <time>2020-09-10T10:46:25.669Z</time>
      </trkpt>
      <trkpt lat="48.324409" lon="10.327102">
        <ele>526.872889</ele>
        <time>2020-09-10T10:46:27.672Z</time>
      </trkpt>
      <trkpt lat="48.324276" lon="10.327162">
        <ele>526.849316</ele>
        <time>2020-09-10T10:46:29.674Z</time>
      </trkpt>
      <trkpt lat="48.324138" lon="10.327212">
        <ele>526.825218</ele>
        <time>2020-09-10T10:46:31.684Z</time>
      </trkpt>
      <trkpt lat="48.324003" lon="10.327275">
        <ele>526.801221</ele>
        <time>2020-09-10T10:46:33.667Z</time>
      </trkpt>
      <trkpt lat="48.323869" lon="10.327325">
        <ele>526.777782</ele>
        <time>2020-09-10T10:46:35.674Z</time>
      </trkpt>
      <trkpt lat="48.323736" lon="10.327374">
        <ele>526.754535</ele>
        <time>2020-09-10T10:46:37.672Z</time>
      </trkpt>
      <trkpt lat="48.323601" lon="10.327424">
        <ele>526.730932</ele>
        <time>2020-09-10T10:46:39.686Z</time>
      </trkpt>
      <trkpt lat="48.323470" lon="10.327474">
        <ele>526.707987</ele>
        <time>2020-09-10T10:46:41.672Z</time>
      </trkpt>
      <trkpt lat="48.323337" lon="10.327521">
        <ele>526.728657</ele>
        <time>2020-09-10T10:46:43.670Z</time>
      </trkpt>
      <trkpt lat="48.323206" lon="10.327570">
        <ele>526.807749</ele>
        <time>2020-09-10T10:46:45.672Z</time>
      </trkpt>
      <trkpt lat="48.323072" lon="10.327619">
        <ele>526.888548</ele>
        <time>2020-09-10T10:46:47.670Z</time>
      </trkpt>
      <trkpt lat="48.322940" lon="10.327679">
        <ele>526.969343</ele>
        <time>2020-09-10T10:46:49.674Z</time>
      </trkpt>
      <trkpt lat="48.322806" lon="10.327734">
        <ele>527.050726</ele>
        <time>2020-09-10T10:46:51.674Z</time>
      </trkpt>
      <trkpt lat="48.322673" lon="10.327794">
        <ele>527.132082</ele>
        <time>2020-09-10T10:46:53.680Z</time>
      </trkpt>
      <trkpt lat="48.322542" lon="10.327847">
        <ele>527.211564</ele>
        <time>2020-09-10T10:46:55.672Z</time>
      </trkpt>
      <trkpt lat="48.322411" lon="10.327902">
        <ele>527.291253</ele>
        <time>2020-09-10T10:46:57.688Z</time>
      </trkpt>
      <trkpt lat="48.322280" lon="10.327958">
        <ele>527.371047</ele>
        <time>2020-09-10T10:46:59.671Z</time>
      </trkpt>
      <trkpt lat="48.322153" lon="10.328017">
        <ele>527.448927</ele>
        <time>2020-09-10T10:47:01.677Z</time>
      </trkpt>
      <trkpt lat="48.322030" lon="10.328076">
        <ele>527.524570</ele>
        <time>2020-09-10T10:47:03.676Z</time>
      </trkpt>
      <trkpt lat="48.321893" lon="10.328133">
        <ele>527.607854</ele>
        <time>2020-09-10T10:47:05.680Z</time>
      </trkpt>
      <trkpt lat="48.321766" lon="10.328181">
        <ele>527.684578</ele>
        <time>2020-09-10T10:47:07.673Z</time>
      </trkpt>
      <trkpt lat="48.321641" lon="10.328230">
        <ele>527.755336</ele>
        <time>2020-09-10T10:47:09.671Z</time>
      </trkpt>
      <trkpt lat="48.321513" lon="10.328287">
        <ele>527.800832</ele>
        <time>2020-09-10T10:47:11.675Z</time>
      </trkpt>
      <trkpt lat="48.321385" lon="10.328344">
        <ele>527.846328</ele>
        <time>2020-09-10T10:47:13.673Z</time>
      </trkpt>
      <trkpt lat="48.321256" lon="10.328392">
        <ele>527.891618</ele>
        <time>2020-09-10T10:47:15.673Z</time>
      </trkpt>
      <trkpt lat="48.321133" lon="10.328449">
        <ele>527.935483</ele>
        <time>2020-09-10T10:47:17.669Z</time>
      </trkpt>
      <trkpt lat="48.321003" lon="10.328501">
        <ele>527.981329</ele>
        <time>2020-09-10T10:47:19.677Z</time>
      </trkpt>
      <trkpt lat="48.320874" lon="10.328559">
        <ele>528.027216</ele>
        <time>2020-09-10T10:47:21.674Z</time>
      </trkpt>
      <trkpt lat="48.320745" lon="10.328616">
        <ele>528.073039</ele>
        <time>2020-09-10T10:47:23.686Z</time>
      </trkpt>
      <trkpt lat="48.320608" lon="10.328674">
        <ele>528.121545</ele>
        <time>2020-09-10T10:47:25.676Z</time>
      </trkpt>
      <trkpt lat="48.320470" lon="10.328725">
        <ele>528.169976</ele>
        <time>2020-09-10T10:47:27.673Z</time>
      </trkpt>
      <trkpt lat="48.320339" lon="10.328796">
        <ele>528.217433</ele>
        <time>2020-09-10T10:47:29.676Z</time>
      </trkpt>
      <trkpt lat="48.320213" lon="10.328884">
        <ele>528.264781</ele>
        <time>2020-09-10T10:47:31.674Z</time>
      </trkpt>
      <trkpt lat="48.320089" lon="10.328973">
        <ele>528.311608</ele>
        <time>2020-09-10T10:47:33.674Z</time>
      </trkpt>
      <trkpt lat="48.319967" lon="10.329064">
        <ele>528.358020</ele>
        <time>2020-09-10T10:47:35.668Z</time>
      </trkpt>
      <trkpt lat="48.319849" lon="10.329155">
        <ele>528.447431</ele>
        <time>2020-09-10T10:47:37.672Z</time>
      </trkpt>
      <trkpt lat="48.319728" lon="10.329229">
        <ele>528.539111</ele>
        <time>2020-09-10T10:47:39.676Z</time>
      </trkpt>
      <trkpt lat="48.319607" lon="10.329318">
        <ele>528.633652</ele>
        <time>2020-09-10T10:47:41.680Z</time>
      </trkpt>
      <trkpt lat="48.319489" lon="10.329399">
        <ele>528.724693</ele>
        <time>2020-09-10T10:47:43.677Z</time>
      </trkpt>
      <trkpt lat="48.319377" lon="10.329497">
        <ele>528.815641</ele>
        <time>2020-09-10T10:47:45.674Z</time>
      </trkpt>
      <trkpt lat="48.319267" lon="10.329591">
        <ele>528.904442</ele>
        <time>2020-09-10T10:47:47.675Z</time>
      </trkpt>
      <trkpt lat="48.319161" lon="10.329680">
        <ele>528.989651</ele>
        <time>2020-09-10T10:47:49.674Z</time>
      </trkpt>
      <trkpt lat="48.319060" lon="10.329755">
        <ele>529.068712</ele>
        <time>2020-09-10T10:47:51.674Z</time>
      </trkpt>
      <trkpt lat="48.318958" lon="10.329832">
        <ele>529.148817</ele>
        <time>2020-09-10T10:47:53.675Z</time>
      </trkpt>
      <trkpt lat="48.318854" lon="10.329907">
        <ele>529.229771</ele>
        <time>2020-09-10T10:47:55.672Z</time>
      </trkpt>
      <trkpt lat="48.318752" lon="10.329970">
        <ele>529.307165</ele>
        <time>2020-09-10T10:47:57.675Z</time>
      </trkpt>
      <trkpt lat="48.318657" lon="10.330037">
        <ele>529.380811</ele>
        <time>2020-09-10T10:47:59.679Z</time>
      </trkpt>
      <trkpt lat="48.318560" lon="10.330098">
        <ele>529.454606</ele>
        <time>2020-09-10T10:48:01.671Z</time>
      </trkpt>
      <trkpt lat="48.318461" lon="10.330173">
        <ele>529.532411</ele>
        <time>2020-09-10T10:48:03.684Z</time>
      </trkpt>
      <trkpt lat="48.318359" lon="10.330248">
        <ele>529.612102</ele>
        <time>2020-09-10T10:48:05.669Z</time>
      </trkpt>
      <trkpt lat="48.318259" lon="10.330328">
        <ele>529.624815</ele>
        <time>2020-09-10T10:48:07.684Z</time>
      </trkpt>
      <trkpt lat="48.318161" lon="10.330408">
        <ele>529.625879</ele>
        <time>2020-09-10T10:48:09.673Z</time>
      </trkpt>
      <trkpt lat="48.318068" lon="10.330478">
        <ele>529.626872</ele>
        <time>2020-09-10T10:48:11.671Z</time>
      </trkpt>
      <trkpt lat="48.317974" lon="10.330554">
        <ele>529.627890</ele>
        <time>2020-09-10T10:48:13.665Z</time>
      </trkpt>
      <trkpt lat="48.317883" lon="10.330646">
        <ele>529.628936</ele>
        <time>2020-09-10T10:48:15.677Z</time>
      </trkpt>
      <trkpt lat="48.317796" lon="10.330756">
        <ele>529.630021</ele>
        <time>2020-09-10T10:48:17.673Z</time>
      </trkpt>
      <trkpt lat="48.317717" lon="10.330870">
        <ele>529.631065</ele>
        <time>2020-09-10T10:48:19.674Z</time>
      </trkpt>
      <trkpt lat="48.317640" lon="10.330975">
        <ele>529.632057</ele>
        <time>2020-09-10T10:48:21.674Z</time>
      </trkpt>
      <trkpt lat="48.317561" lon="10.331077">
        <ele>529.633051</ele>
        <time>2020-09-10T10:48:23.670Z</time>
      </trkpt>
      <trkpt lat="48.317456" lon="10.331157">
        <ele>529.634174</ele>
        <time>2020-09-10T10:48:25.680Z</time>
      </trkpt>
      <trkpt lat="48.317334" lon="10.331163">
        <ele>529.635338</ele>
        <time>2020-09-10T10:48:27.682Z</time>
      </trkpt>
      <trkpt lat="48.317212" lon="10.331188">
        <ele>529.636513</ele>
        <time>2020-09-10T10:48:29.673Z</time>
      </trkpt>
      <trkpt lat="48.317100" lon="10.331247">
        <ele>529.637646</ele>
        <time>2020-09-10T10:48:31.669Z</time>
      </trkpt>
      <trkpt lat="48.316992" lon="10.331313">
        <ele>529.638758</ele>
        <time>2020-09-10T10:48:33.691Z</time>
      </trkpt>
      <trkpt lat="48.316891" lon="10.331377">
        <ele>529.639804</ele>
        <time>2020-09-10T10:48:35.668Z</time>
      </trkpt>
      <trkpt lat="48.316797" lon="10.331462">
        <ele>529.640850</ele>
        <time>2020-09-10T10:48:37.673Z</time>
      </trkpt>
      <trkpt lat="48.316713" lon="10.331542">
        <ele>529.691787</ele>
        <time>2020-09-10T10:48:39.682Z</time>
      </trkpt>
      <trkpt lat="48.316636" lon="10.331622">
        <ele>529.752809</ele>
        <time>2020-09-10T10:48:41.670Z</time>
      </trkpt>
      <trkpt lat="48.316575" lon="10.331732">
        <ele>529.814911</ele>
        <time>2020-09-10T10:48:44.671Z</time>
      </trkpt>
      <trkpt lat="48.316652" lon="10.331656">
        <ele>529.874964</ele>
        <time>2020-09-10T10:48:56.674Z</time>
      </trkpt>
      <trkpt lat="48.316571" lon="10.331746">
        <ele>529.940629</ele>
        <time>2020-09-10T10:49:15.671Z</time>
      </trkpt>
      <trkpt lat="48.316520" lon="10.331909">
        <ele>530.018736</ele>
        <time>2020-09-10T10:49:18.668Z</time>
      </trkpt>
      <trkpt lat="48.316481" lon="10.332036">
        <ele>530.079390</ele>
        <time>2020-09-10T10:49:20.676Z</time>
      </trkpt>
      <trkpt lat="48.316464" lon="10.332170">
        <ele>530.138539</ele>
        <time>2020-09-10T10:49:22.671Z</time>
      </trkpt>
      <trkpt lat="48.316482" lon="10.332319">
        <ele>530.204202</ele>
        <time>2020-09-10T10:49:24.677Z</time>
      </trkpt>
      <trkpt lat="48.316515" lon="10.332462">
        <ele>530.269832</ele>
        <time>2020-09-10T10:49:26.677Z</time>
      </trkpt>
      <trkpt lat="48.316552" lon="10.332602">
        <ele>530.335153</ele>
        <time>2020-09-10T10:49:28.685Z</time>
      </trkpt>
      <trkpt lat="48.316586" lon="10.332740">
        <ele>530.398963</ele>
        <time>2020-09-10T10:49:30.670Z</time>
      </trkpt>
      <trkpt lat="48.316616" lon="10.332886">
        <ele>530.465221</ele>
        <time>2020-09-10T10:49:32.669Z</time>
      </trkpt>
      <trkpt lat="48.316640" lon="10.333024">
        <ele>530.527068</ele>
        <time>2020-09-10T10:49:34.672Z</time>
      </trkpt>
      <trkpt lat="48.316657" lon="10.333212">
        <ele>530.609334</ele>
        <time>2020-09-10T10:49:37.681Z</time>
      </trkpt>
      <trkpt lat="48.316592" lon="10.333322">
        <ele>530.673137</ele>
        <time>2020-09-10T10:49:42.680Z</time>
      </trkpt>
      <trkpt lat="48.316498" lon="10.333314">
        <ele>530.734523</ele>
        <time>2020-09-10T10:49:44.670Z</time>
      </trkpt>
      <trkpt lat="48.316385" lon="10.333331">
        <ele>530.808568</ele>
        <time>2020-09-10T10:49:46.679Z</time>
      </trkpt>
      <trkpt lat="48.316267" lon="10.333384">
        <ele>530.878282</ele>
        <time>2020-09-10T10:49:48.669Z</time>
      </trkpt>
      <trkpt lat="48.316153" lon="10.333429">
        <ele>530.944300</ele>
        <time>2020-09-10T10:49:50.681Z</time>
      </trkpt>
      <trkpt lat="48.316037" lon="10.333500">
        <ele>531.014451</ele>
        <time>2020-09-10T10:49:52.670Z</time>
      </trkpt>
      <trkpt lat="48.315910" lon="10.333578">
        <ele>531.091292</ele>
        <time>2020-09-10T10:49:54.677Z</time>
      </trkpt>
      <trkpt lat="48.315790" lon="10.333662">
        <ele>531.165433</ele>
        <time>2020-09-10T10:49:56.676Z</time>
      </trkpt>
      <trkpt lat="48.315666" lon="10.333739">
        <ele>531.240578</ele>
        <time>2020-09-10T10:49:58.668Z</time>
      </trkpt>
      <trkpt lat="48.315548" lon="10.333821">
        <ele>531.313390</ele>
        <time>2020-09-10T10:50:00.670Z</time>
      </trkpt>
      <trkpt lat="48.315428" lon="10.333901">
        <ele>531.386915</ele>
        <time>2020-09-10T10:50:02.669Z</time>
      </trkpt>
      <trkpt lat="48.315314" lon="10.333978">
        <ele>531.456916</ele>
        <time>2020-09-10T10:50:04.674Z</time>
      </trkpt>
      <trkpt lat="48.315205" lon="10.334050">
        <ele>531.523601</ele>
        <time>2020-09-10T10:50:06.670Z</time>
      </trkpt>
      <trkpt lat="48.315085" lon="10.334122">
        <ele>531.595969</ele>
        <time>2020-09-10T10:50:08.700Z</time>
      </trkpt>
      <trkpt lat="48.314970" lon="10.334199">
        <ele>531.666481</ele>
        <time>2020-09-10T10:50:10.671Z</time>
      </trkpt>
      <trkpt lat="48.314860" lon="10.334290">
        <ele>531.736804</ele>
        <time>2020-09-10T10:50:12.669Z</time>
      </trkpt>
      <trkpt lat="48.314767" lon="10.334404">
        <ele>531.804012</ele>
        <time>2020-09-10T10:50:14.672Z</time>
      </trkpt>
      <trkpt lat="48.314675" lon="10.334536">
        <ele>531.824379</ele>
        <time>2020-09-10T10:50:16.668Z</time>
      </trkpt>
      <trkpt lat="48.314585" lon="10.334662">
        <ele>531.828376</ele>
        <time>2020-09-10T10:50:18.676Z</time>
      </trkpt>
      <trkpt lat="48.314486" lon="10.334783">
        <ele>531.832522</ele>
        <time>2020-09-10T10:50:20.673Z</time>
      </trkpt>
      <trkpt lat="48.314381" lon="10.334889">
        <ele>531.836633</ele>
        <time>2020-09-10T10:50:22.675Z</time>
      </trkpt>
      <trkpt lat="48.314283" lon="10.334974">
        <ele>531.840310</ele>
        <time>2020-09-10T10:50:24.674Z</time>
      </trkpt>
      <trkpt lat="48.314185" lon="10.335064">
        <ele>531.844042</ele>
        <time>2020-09-10T10:50:26.672Z</time>
      </trkpt>
      <trkpt lat="48.314078" lon="10.335149">
        <ele>531.847976</ele>
        <time>2020-09-10T10:50:28.672Z</time>
      </trkpt>
      <trkpt lat="48.313972" lon="10.335212">
        <ele>531.851680</ele>
        <time>2020-09-10T10:50:30.678Z</time>
      </trkpt>
      <trkpt lat="48.313846" lon="10.335210">
        <ele>531.855776</ele>
        <time>2020-09-10T10:50:32.679Z</time>
      </trkpt>
      <trkpt lat="48.313738" lon="10.335140">
        <ele>531.859598</ele>
        <time>2020-09-10T10:50:34.683Z</time>
      </trkpt>
      <trkpt lat="48.313645" lon="10.335019">
        <ele>531.863596</ele>
        <time>2020-09-10T10:50:36.675Z</time>
      </trkpt>
      <trkpt lat="48.313566" lon="10.334896">
        <ele>531.867292</ele>
        <time>2020-09-10T10:50:38.668Z</time>
      </trkpt>
      <trkpt lat="48.313454" lon="10.334827">
        <ele>531.871226</ele>
        <time>2020-09-10T10:50:40.674Z</time>
      </trkpt>
      <trkpt lat="48.313350" lon="10.334761">
        <ele>531.874895</ele>
        <time>2020-09-10T10:50:42.677Z</time>
      </trkpt>
      <trkpt lat="48.313239" lon="10.334729">
        <ele>531.878568</ele>
        <time>2020-09-10T10:50:44.688Z</time>
      </trkpt>
      <trkpt lat="48.313112" lon="10.334697">
        <ele>531.822820</ele>
        <time>2020-09-10T10:50:46.682Z</time>
      </trkpt>
      <trkpt lat="48.312976" lon="10.334684">
        <ele>531.740139</ele>
        <time>2020-09-10T10:50:48.672Z</time>
      </trkpt>
      <trkpt lat="48.312845" lon="10.334660">
        <ele>531.660070</ele>
        <time>2020-09-10T10:50:50.672Z</time>
      </trkpt>
      <trkpt lat="48.312712" lon="10.334642">
        <ele>531.579050</ele>
        <time>2020-09-10T10:50:52.669Z</time>
      </trkpt>
      <trkpt lat="48.312589" lon="10.334627">
        <ele>531.504178</ele>
        <time>2020-09-10T10:50:54.672Z</time>
      </trkpt>
      <trkpt lat="48.312466" lon="10.334614">
        <ele>531.429367</ele>
        <time>2020-09-10T10:50:56.673Z</time>
      </trkpt>
      <trkpt lat="48.312344" lon="10.334586">
        <ele>531.354490</ele>
        <time>2020-09-10T10:50:58.675Z</time>
      </trkpt>
      <trkpt lat="48.312221" lon="10.334562">
        <ele>531.279237</ele>
        <time>2020-09-10T10:51:00.669Z</time>
      </trkpt>
      <trkpt lat="48.312100" lon="10.334539">
        <ele>531.205240</ele>
        <time>2020-09-10T10:51:02.673Z</time>
      </trkpt>
      <trkpt lat="48.311963" lon="10.334519">
        <ele>531.121728</ele>
        <time>2020-09-10T10:51:04.670Z</time>
      </trkpt>
      <trkpt lat="48.311827" lon="10.334502">
        <ele>531.038929</ele>
        <time>2020-09-10T10:51:06.677Z</time>
      </trkpt>
      <trkpt lat="48.311693" lon="10.334504">
        <ele>530.957625</ele>
        <time>2020-09-10T10:51:08.669Z</time>
      </trkpt>
      <trkpt lat="48.311560" lon="10.334519">
        <ele>530.876704</ele>
        <time>2020-09-10T10:51:10.677Z</time>
      </trkpt>
      <trkpt lat="48.311429" lon="10.334550">
        <ele>530.796245</ele>
        <time>2020-09-10T10:51:12.676Z</time>
      </trkpt>
      <trkpt lat="48.311301" lon="10.334587">
        <ele>530.905143</ele>
        <time>2020-09-10T10:51:14.671Z</time>
      </trkpt>
      <trkpt lat="48.311178" lon="10.334637">
        <ele>531.031744</ele>
        <time>2020-09-10T10:51:16.671Z</time>
      </trkpt>
      <trkpt lat="48.311060" lon="10.334691">
        <ele>531.154300</ele>
        <time>2020-09-10T10:51:18.668Z</time>
      </trkpt>
      <trkpt lat="48.310936" lon="10.334745">
        <ele>531.282571</ele>
        <time>2020-09-10T10:51:20.671Z</time>
      </trkpt>
      <trkpt lat="48.310814" lon="10.334807">
        <ele>531.410528</ele>
        <time>2020-09-10T10:51:22.672Z</time>
      </trkpt>
      <trkpt lat="48.310691" lon="10.334855">
        <ele>531.536791</ele>
        <time>2020-09-10T10:51:24.680Z</time>
      </trkpt>
      <trkpt lat="48.310568" lon="10.334910">
        <ele>531.664295</ele>
        <time>2020-09-10T10:51:26.675Z</time>
      </trkpt>
      <trkpt lat="48.310443" lon="10.334976">
        <ele>531.795932</ele>
        <time>2020-09-10T10:51:28.670Z</time>
      </trkpt>
      <trkpt lat="48.310325" lon="10.335054">
        <ele>531.924008</ele>
        <time>2020-09-10T10:51:30.666Z</time>
      </trkpt>
      <trkpt lat="48.310219" lon="10.335127">
        <ele>532.039853</ele>
        <time>2020-09-10T10:51:32.670Z</time>
      </trkpt>
      <trkpt lat="48.310117" lon="10.335193">
        <ele>532.150188</ele>
        <time>2020-09-10T10:51:34.677Z</time>
      </trkpt>
      <trkpt lat="48.310023" lon="10.335255">
        <ele>532.252179</ele>
        <time>2020-09-10T10:51:36.671Z</time>
      </trkpt>
      <trkpt lat="48.309938" lon="10.335312">
        <ele>532.344655</ele>
        <time>2020-09-10T10:51:38.675Z</time>
      </trkpt>
      <trkpt lat="48.309843" lon="10.335363">
        <ele>532.444884</ele>
        <time>2020-09-10T10:51:40.671Z</time>
      </trkpt>
      <trkpt lat="48.309745" lon="10.335432">
        <ele>532.552406</ele>
        <time>2020-09-10T10:51:42.672Z</time>
      </trkpt>
      <trkpt lat="48.309639" lon="10.335496">
        <ele>532.646546</ele>
        <time>2020-09-10T10:51:44.673Z</time>
      </trkpt>
      <trkpt lat="48.309533" lon="10.335561">
        <ele>532.735917</ele>
        <time>2020-09-10T10:51:46.680Z</time>
      </trkpt>
      <trkpt lat="48.309424" lon="10.335631">
        <ele>532.828449</ele>
        <time>2020-09-10T10:51:48.670Z</time>
      </trkpt>
      <trkpt lat="48.309320" lon="10.335719">
        <ele>532.921615</ele>
        <time>2020-09-10T10:51:50.682Z</time>
      </trkpt>
      <trkpt lat="48.309225" lon="10.335807">
        <ele>533.008725</ele>
        <time>2020-09-10T10:51:52.670Z</time>
      </trkpt>
      <trkpt lat="48.309125" lon="10.335879">
        <ele>533.095284</ele>
        <time>2020-09-10T10:51:54.669Z</time>
      </trkpt>
      <trkpt lat="48.309025" lon="10.335965">
        <ele>533.185221</ele>
        <time>2020-09-10T10:51:56.680Z</time>
      </trkpt>
      <trkpt lat="48.308922" lon="10.336036">
        <ele>533.273680</ele>
        <time>2020-09-10T10:51:58.671Z</time>
      </trkpt>
      <trkpt lat="48.308820" lon="10.336099">
        <ele>533.359767</ele>
        <time>2020-09-10T10:52:00.679Z</time>
      </trkpt>
      <trkpt lat="48.308724" lon="10.336147">
        <ele>533.438748</ele>
        <time>2020-09-10T10:52:02.681Z</time>
      </trkpt>
      <trkpt lat="48.308619" lon="10.336200">
        <ele>533.525216</ele>
        <time>2020-09-10T10:52:05.671Z</time>
      </trkpt>
      <trkpt lat="48.308544" lon="10.336304">
        <ele>533.604868</ele>
        <time>2020-09-10T10:52:10.673Z</time>
      </trkpt>
      <trkpt lat="48.308461" lon="10.336356">
        <ele>533.675066</ele>
        <time>2020-09-10T10:52:13.731Z</time>
      </trkpt>
      <trkpt lat="48.308339" lon="10.336408">
        <ele>533.774063</ele>
        <time>2020-09-10T10:52:16.671Z</time>
      </trkpt>
      <trkpt lat="48.308243" lon="10.336445">
        <ele>533.851432</ele>
        <time>2020-09-10T10:52:18.676Z</time>
      </trkpt>
      <trkpt lat="48.308138" lon="10.336476">
        <ele>533.934969</ele>
        <time>2020-09-10T10:52:20.677Z</time>
      </trkpt>
      <trkpt lat="48.308036" lon="10.336514">
        <ele>533.983583</ele>
        <time>2020-09-10T10:52:22.674Z</time>
      </trkpt>
      <trkpt lat="48.307938" lon="10.336542">
        <ele>533.991600</ele>
        <time>2020-09-10T10:52:24.670Z</time>
      </trkpt>
      <trkpt lat="48.307826" lon="10.336526">
        <ele>534.000641</ele>
        <time>2020-09-10T10:52:26.670Z</time>
      </trkpt>
      <trkpt lat="48.307711" lon="10.336506">
        <ele>534.009945</ele>
        <time>2020-09-10T10:52:28.668Z</time>
      </trkpt>
      <trkpt lat="48.307600" lon="10.336478">
        <ele>534.018990</ele>
        <time>2020-09-10T10:52:30.677Z</time>
      </trkpt>
      <trkpt lat="48.307487" lon="10.336435">
        <ele>534.028357</ele>
        <time>2020-09-10T10:52:32.667Z</time>
      </trkpt>
      <trkpt lat="48.307385" lon="10.336391">
        <ele>534.036885</ele>
        <time>2020-09-10T10:52:34.668Z</time>
      </trkpt>
      <trkpt lat="48.307286" lon="10.336337">
        <ele>534.045349</ele>
        <time>2020-09-10T10:52:36.673Z</time>
      </trkpt>
      <trkpt lat="48.307181" lon="10.336267">
        <ele>534.054579</ele>
        <time>2020-09-10T10:52:38.677Z</time>
      </trkpt>
      <trkpt lat="48.307069" lon="10.336186">
        <ele>534.064567</ele>
        <time>2020-09-10T10:52:40.670Z</time>
      </trkpt>
      <trkpt lat="48.306953" lon="10.336092">
        <ele>534.075158</ele>
        <time>2020-09-10T10:52:42.671Z</time>
      </trkpt>
      <trkpt lat="48.306844" lon="10.335992">
        <ele>534.085419</ele>
        <time>2020-09-10T10:52:44.672Z</time>
      </trkpt>
      <trkpt lat="48.306740" lon="10.335866">
        <ele>534.096153</ele>
        <time>2020-09-10T10:52:46.667Z</time>
      </trkpt>
      <trkpt lat="48.306647" lon="10.335740">
        <ele>534.106214</ele>
        <time>2020-09-10T10:52:48.670Z</time>
      </trkpt>
      <trkpt lat="48.306553" lon="10.335602">
        <ele>534.116773</ele>
        <time>2020-09-10T10:52:50.667Z</time>
      </trkpt>
      <trkpt lat="48.306463" lon="10.335451">
        <ele>534.116819</ele>
        <time>2020-09-10T10:52:52.671Z</time>
      </trkpt>
      <trkpt lat="48.306375" lon="10.335290">
        <ele>534.091710</ele>
        <time>2020-09-10T10:52:54.668Z</time>
      </trkpt>
      <trkpt lat="48.306280" lon="10.335136">
        <ele>534.066403</ele>
        <time>2020-09-10T10:52:56.673Z</time>
      </trkpt>
      <trkpt lat="48.306182" lon="10.334983">
        <ele>534.040810</ele>
        <time>2020-09-10T10:52:58.660Z</time>
      </trkpt>
      <trkpt lat="48.306074" lon="10.334831">
        <ele>534.014011</ele>
        <time>2020-09-10T10:53:00.683Z</time>
      </trkpt>
      <trkpt lat="48.305965" lon="10.334701">
        <ele>533.988807</ele>
        <time>2020-09-10T10:53:02.672Z</time>
      </trkpt>
      <trkpt lat="48.305840" lon="10.334574">
        <ele>533.961478</ele>
        <time>2020-09-10T10:53:04.682Z</time>
      </trkpt>
      <trkpt lat="48.305717" lon="10.334454">
        <ele>533.934916</ele>
        <time>2020-09-10T10:53:06.671Z</time>
      </trkpt>
      <trkpt lat="48.305589" lon="10.334348">
        <ele>533.908444</ele>
        <time>2020-09-10T10:53:08.691Z</time>
      </trkpt>
      <trkpt lat="48.305461" lon="10.334261">
        <ele>533.882997</ele>
        <time>2020-09-10T10:53:10.675Z</time>
      </trkpt>
      <trkpt lat="48.305325" lon="10.334177">
        <ele>533.856363</ele>
        <time>2020-09-10T10:53:12.674Z</time>
      </trkpt>
      <trkpt lat="48.305192" lon="10.334116">
        <ele>533.831174</ele>
        <time>2020-09-10T10:53:14.666Z</time>
      </trkpt>
      <trkpt lat="48.305051" lon="10.334078">
        <ele>533.805225</ele>
        <time>2020-09-10T10:53:16.670Z</time>
      </trkpt>
      <trkpt lat="48.304910" lon="10.334049">
        <ele>533.863983</ele>
        <time>2020-09-10T10:53:18.678Z</time>
      </trkpt>
      <trkpt lat="48.304770" lon="10.334029">
        <ele>533.951696</ele>
        <time>2020-09-10T10:53:20.675Z</time>
      </trkpt>
      <trkpt lat="48.304628" lon="10.334009">
        <ele>534.040650</ele>
        <time>2020-09-10T10:53:22.680Z</time>
      </trkpt>
      <trkpt lat="48.304481" lon="10.333992">
        <ele>534.132606</ele>
        <time>2020-09-10T10:53:24.672Z</time>
      </trkpt>
      <trkpt lat="48.304342" lon="10.333979">
        <ele>534.219469</ele>
        <time>2020-09-10T10:53:26.677Z</time>
      </trkpt>
      <trkpt lat="48.304200" lon="10.333959">
        <ele>534.308423</ele>
        <time>2020-09-10T10:53:28.675Z</time>
      </trkpt>
      <trkpt lat="48.304058" lon="10.333949">
        <ele>534.397087</ele>
        <time>2020-09-10T10:53:30.666Z</time>
      </trkpt>
      <trkpt lat="48.303918" lon="10.333934">
        <ele>534.484628</ele>
        <time>2020-09-10T10:53:32.667Z</time>
      </trkpt>
      <trkpt lat="48.303793" lon="10.333912">
        <ele>534.563124</ele>
        <time>2020-09-10T10:53:34.666Z</time>
      </trkpt>
      <trkpt lat="48.303672" lon="10.333904">
        <ele>534.638665</ele>
        <time>2020-09-10T10:53:36.674Z</time>
      </trkpt>
      <trkpt lat="48.303544" lon="10.333895">
        <ele>534.718587</ele>
        <time>2020-09-10T10:53:38.671Z</time>
      </trkpt>
      <trkpt lat="48.303420" lon="10.333887">
        <ele>534.795998</ele>
        <time>2020-09-10T10:53:40.669Z</time>
      </trkpt>
      <trkpt lat="48.303299" lon="10.333908">
        <ele>534.871968</ele>
        <time>2020-09-10T10:53:42.677Z</time>
      </trkpt>
      <trkpt lat="48.303170" lon="10.333948">
        <ele>534.965699</ele>
        <time>2020-09-10T10:53:44.670Z</time>
      </trkpt>
      <trkpt lat="48.303039" lon="10.333987">
        <ele>535.077507</ele>
        <time>2020-09-10T10:53:46.667Z</time>
      </trkpt>
      <trkpt lat="48.302908" lon="10.334033">
        <ele>535.190138</ele>
        <time>2020-09-10T10:53:48.671Z</time>
      </trkpt>
      <trkpt lat="48.302775" lon="10.334089">
        <ele>535.305776</ele>
        <time>2020-09-10T10:53:50.678Z</time>
      </trkpt>
      <trkpt lat="48.302639" lon="10.334151">
        <ele>535.424761</ele>
        <time>2020-09-10T10:53:52.669Z</time>
      </trkpt>
      <trkpt lat="48.302515" lon="10.334208">
        <ele>535.533324</ele>
        <time>2020-09-10T10:53:54.670Z</time>
      </trkpt>
      <trkpt lat="48.302392" lon="10.334274">
        <ele>535.642668</ele>
        <time>2020-09-10T10:53:56.675Z</time>
      </trkpt>
      <trkpt lat="48.302268" lon="10.334332">
        <ele>535.751395</ele>
        <time>2020-09-10T10:53:58.671Z</time>
      </trkpt>
      <trkpt lat="48.302145" lon="10.334387">
        <ele>535.858835</ele>
        <time>2020-09-10T10:54:00.670Z</time>
      </trkpt>
      <trkpt lat="48.302027" lon="10.334432">
        <ele>535.960758</ele>
        <time>2020-09-10T10:54:02.667Z</time>
      </trkpt>
      <trkpt lat="48.301905" lon="10.334459">
        <ele>536.064003</ele>
        <time>2020-09-10T10:54:04.693Z</time>
      </trkpt>
      <trkpt lat="48.301786" lon="10.334489">
        <ele>536.165026</ele>
        <time>2020-09-10T10:54:06.676Z</time>
      </trkpt>
      <trkpt lat="48.301659" lon="10.334516">
        <ele>536.272413</ele>
        <time>2020-09-10T10:54:08.670Z</time>
      </trkpt>
      <trkpt lat="48.301528" lon="10.334525">
        <ele>536.382206</ele>
        <time>2020-09-10T10:54:10.666Z</time>
      </trkpt>
      <trkpt lat="48.301401" lon="10.334503">
        <ele>536.510393</ele>
        <time>2020-09-10T10:54:12.668Z</time>
      </trkpt>
      <trkpt lat="48.301278" lon="10.334475">
        <ele>536.649496</ele>
        <time>2020-09-10T10:54:14.666Z</time>
      </trkpt>
      <trkpt lat="48.301152" lon="10.334468">
        <ele>536.790482</ele>
        <time>2020-09-10T10:54:16.668Z</time>
      </trkpt>
      <trkpt lat="48.301029" lon="10.334453">
        <ele>536.928469</ele>
        <time>2020-09-10T10:54:18.672Z</time>
      </trkpt>
      <trkpt lat="48.300914" lon="10.334430">
        <ele>537.058191</ele>
        <time>2020-09-10T10:54:20.676Z</time>
      </trkpt>
      <trkpt lat="48.300800" lon="10.334403">
        <ele>537.187235</ele>
        <time>2020-09-10T10:54:22.672Z</time>
      </trkpt>
      <trkpt lat="48.300685" lon="10.334372">
        <ele>537.317876</ele>
        <time>2020-09-10T10:54:24.670Z</time>
      </trkpt>
      <trkpt lat="48.300567" lon="10.334346">
        <ele>537.451230</ele>
        <time>2020-09-10T10:54:26.670Z</time>
      </trkpt>
      <trkpt lat="48.300461" lon="10.334361">
        <ele>537.570280</ele>
        <time>2020-09-10T10:54:28.668Z</time>
      </trkpt>
      <trkpt lat="48.300377" lon="10.334422">
        <ele>537.674592</ele>
        <time>2020-09-10T10:54:30.670Z</time>
      </trkpt>
      <trkpt lat="48.300297" lon="10.334513">
        <ele>537.786770</ele>
        <time>2020-09-10T10:54:32.684Z</time>
      </trkpt>
      <trkpt lat="48.300223" lon="10.334608">
        <ele>537.895582</ele>
        <time>2020-09-10T10:54:34.669Z</time>
      </trkpt>
      <trkpt lat="48.300150" lon="10.334707">
        <ele>538.005517</ele>
        <time>2020-09-10T10:54:36.682Z</time>
      </trkpt>
      <trkpt lat="48.300076" lon="10.334802">
        <ele>538.114330</ele>
        <time>2020-09-10T10:54:38.669Z</time>
      </trkpt>
      <trkpt lat="48.299983" lon="10.334856">
        <ele>538.225808</ele>
        <time>2020-09-10T10:54:40.667Z</time>
      </trkpt>
      <trkpt lat="48.299889" lon="10.334877">
        <ele>538.332070</ele>
        <time>2020-09-10T10:54:42.674Z</time>
      </trkpt>
      <trkpt lat="48.299804" lon="10.334819">
        <ele>538.436449</ele>
        <time>2020-09-10T10:54:44.665Z</time>
      </trkpt>
      <trkpt lat="48.299702" lon="10.334768">
        <ele>538.344941</ele>
        <time>2020-09-10T10:54:46.679Z</time>
      </trkpt>
      <trkpt lat="48.299596" lon="10.334747">
        <ele>538.252265</ele>
        <time>2020-09-10T10:54:48.668Z</time>
      </trkpt>
      <trkpt lat="48.299491" lon="10.334717">
        <ele>538.159621</ele>
        <time>2020-09-10T10:54:50.679Z</time>
      </trkpt>
      <trkpt lat="48.299394" lon="10.334665">
        <ele>538.070355</ele>
        <time>2020-09-10T10:54:52.675Z</time>
      </trkpt>
      <trkpt lat="48.299301" lon="10.334597">
        <ele>537.980711</ele>
        <time>2020-09-10T10:54:54.673Z</time>
      </trkpt>
      <trkpt lat="48.299207" lon="10.334524">
        <ele>537.889000</ele>
        <time>2020-09-10T10:54:56.672Z</time>
      </trkpt>
      <trkpt lat="48.299109" lon="10.334452">
        <ele>537.794450</ele>
        <time>2020-09-10T10:54:58.678Z</time>
      </trkpt>
      <trkpt lat="48.298999" lon="10.334391">
        <ele>537.692821</ele>
        <time>2020-09-10T10:55:00.675Z</time>
      </trkpt>
      <trkpt lat="48.298885" lon="10.334322">
        <ele>537.586295</ele>
        <time>2020-09-10T10:55:02.666Z</time>
      </trkpt>
      <trkpt lat="48.298769" lon="10.334244">
        <ele>537.476145</ele>
        <time>2020-09-10T10:55:04.667Z</time>
      </trkpt>
      <trkpt lat="48.298642" lon="10.334161">
        <ele>537.356106</ele>
        <time>2020-09-10T10:55:06.681Z</time>
      </trkpt>
      <trkpt lat="48.298506" lon="10.334074">
        <ele>537.227990</ele>
        <time>2020-09-10T10:55:08.676Z</time>
      </trkpt>
      <trkpt lat="48.298361" lon="10.333974">
        <ele>537.089707</ele>
        <time>2020-09-10T10:55:10.669Z</time>
      </trkpt>
      <trkpt lat="48.298217" lon="10.333889">
        <ele>536.955608</ele>
        <time>2020-09-10T10:55:12.679Z</time>
      </trkpt>
      <trkpt lat="48.298078" lon="10.333809">
        <ele>536.864949</ele>
        <time>2020-09-10T10:55:14.680Z</time>
      </trkpt>
      <trkpt lat="48.297943" lon="10.333732">
        <ele>536.832605</ele>
        <time>2020-09-10T10:55:16.678Z</time>
      </trkpt>
      <trkpt lat="48.297816" lon="10.333665">
        <ele>536.802456</ele>
        <time>2020-09-10T10:55:18.680Z</time>
      </trkpt>
      <trkpt lat="48.297697" lon="10.333591">
        <ele>536.773608</ele>
        <time>2020-09-10T10:55:20.682Z</time>
      </trkpt>
      <trkpt lat="48.297583" lon="10.333513">
        <ele>536.745551</ele>
        <time>2020-09-10T10:55:22.669Z</time>
      </trkpt>
      <trkpt lat="48.297464" lon="10.333431">
        <ele>536.716227</ele>
        <time>2020-09-10T10:55:24.681Z</time>
      </trkpt>
      <trkpt lat="48.297340" lon="10.333357">
        <ele>536.686342</ele>
        <time>2020-09-10T10:55:26.682Z</time>
      </trkpt>
      <trkpt lat="48.297221" lon="10.333264">
        <ele>536.656298</ele>
        <time>2020-09-10T10:55:28.670Z</time>
      </trkpt>
      <trkpt lat="48.297104" lon="10.333162">
        <ele>536.626001</ele>
        <time>2020-09-10T10:55:30.673Z</time>
      </trkpt>
      <trkpt lat="48.296982" lon="10.333060">
        <ele>536.594730</ele>
        <time>2020-09-10T10:55:32.666Z</time>
      </trkpt>
      <trkpt lat="48.296859" lon="10.332957">
        <ele>536.563190</ele>
        <time>2020-09-10T10:55:34.674Z</time>
      </trkpt>
      <trkpt lat="48.296745" lon="10.332861">
        <ele>536.533919</ele>
        <time>2020-09-10T10:55:36.669Z</time>
      </trkpt>
      <trkpt lat="48.296626" lon="10.332768">
        <ele>536.503876</ele>
        <time>2020-09-10T10:55:38.674Z</time>
      </trkpt>
      <trkpt lat="48.296510" lon="10.332665">
        <ele>536.481423</ele>
        <time>2020-09-10T10:55:40.672Z</time>
      </trkpt>
      <trkpt lat="48.296396" lon="10.332560">
        <ele>536.586151</ele>
        <time>2020-09-10T10:55:42.681Z</time>
      </trkpt>
      <trkpt lat="48.296278" lon="10.332452">
        <ele>536.694368</ele>
        <time>2020-09-10T10:55:44.691Z</time>
      </trkpt>
      <trkpt lat="48.296166" lon="10.332356">
        <ele>536.795360</ele>
        <time>2020-09-10T10:55:46.681Z</time>
      </trkpt>
      <trkpt lat="48.296051" lon="10.332264">
        <ele>536.897404</ele>
        <time>2020-09-10T10:55:48.672Z</time>
      </trkpt>
      <trkpt lat="48.295944" lon="10.332177">
        <ele>536.992694</ele>
        <time>2020-09-10T10:55:50.668Z</time>
      </trkpt>
      <trkpt lat="48.295849" lon="10.332103">
        <ele>537.076507</ele>
        <time>2020-09-10T10:55:52.670Z</time>
      </trkpt>
      <trkpt lat="48.295765" lon="10.332033">
        <ele>537.151740</ele>
        <time>2020-09-10T10:55:54.683Z</time>
      </trkpt>
      <trkpt lat="48.295661" lon="10.331966">
        <ele>537.240371</ele>
        <time>2020-09-10T10:55:56.676Z</time>
      </trkpt>
      <trkpt lat="48.295542" lon="10.331889">
        <ele>537.341855</ele>
        <time>2020-09-10T10:55:58.666Z</time>
      </trkpt>
      <trkpt lat="48.295416" lon="10.331823">
        <ele>537.446373</ele>
        <time>2020-09-10T10:56:00.675Z</time>
      </trkpt>
      <trkpt lat="48.295291" lon="10.331766">
        <ele>537.548693</ele>
        <time>2020-09-10T10:56:02.669Z</time>
      </trkpt>
      <trkpt lat="48.295163" lon="10.331728">
        <ele>537.650893</ele>
        <time>2020-09-10T10:56:04.670Z</time>
      </trkpt>
      <trkpt lat="48.295040" lon="10.331696">
        <ele>537.748672</ele>
        <time>2020-09-10T10:56:06.683Z</time>
      </trkpt>
      <trkpt lat="48.294916" lon="10.331666">
        <ele>537.847053</ele>
        <time>2020-09-10T10:56:08.681Z</time>
      </trkpt>
      <trkpt lat="48.294788" lon="10.331658">
        <ele>537.835870</ele>
        <time>2020-09-10T10:56:10.668Z</time>
      </trkpt>
      <trkpt lat="48.294660" lon="10.331656">
        <ele>537.758901</ele>
        <time>2020-09-10T10:56:12.684Z</time>
      </trkpt>
      <trkpt lat="48.294521" lon="10.331652">
        <ele>537.675306</ele>
        <time>2020-09-10T10:56:14.667Z</time>
      </trkpt>
      <trkpt lat="48.294382" lon="10.331642">
        <ele>537.591632</ele>
        <time>2020-09-10T10:56:16.679Z</time>
      </trkpt>
      <trkpt lat="48.294247" lon="10.331632">
        <ele>537.510359</ele>
        <time>2020-09-10T10:56:18.681Z</time>
      </trkpt>
      <trkpt lat="48.294109" lon="10.331612">
        <ele>537.426996</ele>
        <time>2020-09-10T10:56:20.667Z</time>
      </trkpt>
      <trkpt lat="48.293958" lon="10.331596">
        <ele>537.335976</ele>
        <time>2020-09-10T10:56:22.669Z</time>
      </trkpt>
      <trkpt lat="48.293802" lon="10.331587">
        <ele>537.242106</ele>
        <time>2020-09-10T10:56:24.673Z</time>
      </trkpt>
      <trkpt lat="48.293649" lon="10.331571">
        <ele>537.149887</ele>
        <time>2020-09-10T10:56:26.677Z</time>
      </trkpt>
      <trkpt lat="48.293494" lon="10.331557">
        <ele>537.056519</ele>
        <time>2020-09-10T10:56:28.675Z</time>
      </trkpt>
      <trkpt lat="48.293339" lon="10.331548">
        <ele>536.963250</ele>
        <time>2020-09-10T10:56:30.679Z</time>
      </trkpt>
      <trkpt lat="48.293192" lon="10.331536">
        <ele>536.874730</ele>
        <time>2020-09-10T10:56:32.672Z</time>
      </trkpt>
      <trkpt lat="48.293051" lon="10.331520">
        <ele>536.818729</ele>
        <time>2020-09-10T10:56:34.668Z</time>
      </trkpt>
      <trkpt lat="48.292912" lon="10.331508">
        <ele>536.920554</ele>
        <time>2020-09-10T10:56:36.671Z</time>
      </trkpt>
      <trkpt lat="48.292778" lon="10.331505">
        <ele>537.018567</ele>
        <time>2020-09-10T10:56:38.682Z</time>
      </trkpt>
      <trkpt lat="48.292647" lon="10.331502">
        <ele>537.114385</ele>
        <time>2020-09-10T10:56:40.666Z</time>
      </trkpt>
      <trkpt lat="48.292511" lon="10.331485">
        <ele>537.214192</ele>
        <time>2020-09-10T10:56:42.669Z</time>
      </trkpt>
      <trkpt lat="48.292376" lon="10.331471">
        <ele>537.313160</ele>
        <time>2020-09-10T10:56:44.681Z</time>
      </trkpt>
      <trkpt lat="48.292246" lon="10.331455">
        <ele>537.408554</ele>
        <time>2020-09-10T10:56:46.670Z</time>
      </trkpt>
      <trkpt lat="48.292117" lon="10.331448">
        <ele>537.502960</ele>
        <time>2020-09-10T10:56:48.668Z</time>
      </trkpt>
      <trkpt lat="48.291996" lon="10.331437">
        <ele>537.591616</ele>
        <time>2020-09-10T10:56:50.676Z</time>
      </trkpt>
      <trkpt lat="48.291868" lon="10.331431">
        <ele>537.685274</ele>
        <time>2020-09-10T10:56:52.669Z</time>
      </trkpt>
      <trkpt lat="48.291733" lon="10.331414">
        <ele>537.784353</ele>
        <time>2020-09-10T10:56:54.672Z</time>
      </trkpt>
      <trkpt lat="48.291597" lon="10.331399">
        <ele>537.884085</ele>
        <time>2020-09-10T10:56:56.670Z</time>
      </trkpt>
      <trkpt lat="48.291458" lon="10.331377">
        <ele>537.986305</ele>
        <time>2020-09-10T10:56:58.669Z</time>
      </trkpt>
      <trkpt lat="48.291323" lon="10.331367">
        <ele>538.085157</ele>
        <time>2020-09-10T10:57:00.686Z</time>
      </trkpt>
      <trkpt lat="48.291186" lon="10.331362">
        <ele>538.183846</ele>
        <time>2020-09-10T10:57:02.667Z</time>
      </trkpt>
      <trkpt lat="48.291053" lon="10.331356">
        <ele>538.278934</ele>
        <time>2020-09-10T10:57:04.664Z</time>
      </trkpt>
      <trkpt lat="48.290924" lon="10.331345">
        <ele>538.371268</ele>
        <time>2020-09-10T10:57:06.668Z</time>
      </trkpt>
      <trkpt lat="48.290796" lon="10.331345">
        <ele>538.462739</ele>
        <time>2020-09-10T10:57:08.675Z</time>
      </trkpt>
      <trkpt lat="48.290663" lon="10.331348">
        <ele>538.557794</ele>
        <time>2020-09-10T10:57:10.672Z</time>
      </trkpt>
      <trkpt lat="48.290527" lon="10.331361">
        <ele>538.655179</ele>
        <time>2020-09-10T10:57:12.670Z</time>
      </trkpt>
      <trkpt lat="48.290394" lon="10.331376">
        <ele>538.750491</ele>
        <time>2020-09-10T10:57:14.684Z</time>
      </trkpt>
      <trkpt lat="48.290259" lon="10.331391">
        <ele>538.847228</ele>
        <time>2020-09-10T10:57:16.671Z</time>
      </trkpt>
      <trkpt lat="48.290126" lon="10.331406">
        <ele>538.942540</ele>
        <time>2020-09-10T10:57:18.667Z</time>
      </trkpt>
      <trkpt lat="48.289988" lon="10.331440">
        <ele>539.042474</ele>
        <time>2020-09-10T10:57:20.672Z</time>
      </trkpt>
      <trkpt lat="48.289848" lon="10.331471">
        <ele>539.143600</ele>
        <time>2020-09-10T10:57:22.674Z</time>
      </trkpt>
      <trkpt lat="48.289713" lon="10.331512">
        <ele>539.242024</ele>
        <time>2020-09-10T10:57:24.672Z</time>
      </trkpt>
      <trkpt lat="48.289584" lon="10.331561">
        <ele>539.337109</ele>
        <time>2020-09-10T10:57:26.660Z</time>
      </trkpt>
      <trkpt lat="48.289455" lon="10.331614">
        <ele>539.472495</ele>
        <time>2020-09-10T10:57:28.683Z</time>
      </trkpt>
      <trkpt lat="48.289324" lon="10.331674">
        <ele>539.704343</ele>
        <time>2020-09-10T10:57:30.663Z</time>
      </trkpt>
      <trkpt lat="48.289200" lon="10.331730">
        <ele>539.923543</ele>
        <time>2020-09-10T10:57:32.664Z</time>
      </trkpt>
      <trkpt lat="48.289093" lon="10.331788">
        <ele>540.116112</ele>
        <time>2020-09-10T10:57:34.665Z</time>
      </trkpt>
      <trkpt lat="48.288993" lon="10.331840">
        <ele>540.295255</ele>
        <time>2020-09-10T10:57:36.667Z</time>
      </trkpt>
      <trkpt lat="48.288885" lon="10.331886">
        <ele>540.485295</ele>
        <time>2020-09-10T10:57:38.666Z</time>
      </trkpt>
      <trkpt lat="48.288779" lon="10.331932">
        <ele>540.672080</ele>
        <time>2020-09-10T10:57:40.665Z</time>
      </trkpt>
      <trkpt lat="48.288670" lon="10.331978">
        <ele>540.863750</ele>
        <time>2020-09-10T10:57:42.665Z</time>
      </trkpt>
      <trkpt lat="48.288568" lon="10.332032">
        <ele>541.046833</ele>
        <time>2020-09-10T10:57:44.668Z</time>
      </trkpt>
      <trkpt lat="48.288464" lon="10.332085">
        <ele>541.232747</ele>
        <time>2020-09-10T10:57:46.667Z</time>
      </trkpt>
      <trkpt lat="48.288359" lon="10.332138">
        <ele>541.420266</ele>
        <time>2020-09-10T10:57:48.672Z</time>
      </trkpt>
      <trkpt lat="48.288259" lon="10.332186">
        <ele>541.597987</ele>
        <time>2020-09-10T10:57:50.670Z</time>
      </trkpt>
      <trkpt lat="48.288162" lon="10.332228">
        <ele>541.768884</ele>
        <time>2020-09-10T10:57:52.670Z</time>
      </trkpt>
      <trkpt lat="48.288072" lon="10.332274">
        <ele>541.929821</ele>
        <time>2020-09-10T10:57:54.674Z</time>
      </trkpt>
      <trkpt lat="48.287986" lon="10.332316">
        <ele>542.082910</ele>
        <time>2020-09-10T10:57:56.671Z</time>
      </trkpt>
      <trkpt lat="48.287899" lon="10.332357">
        <ele>542.237269</ele>
        <time>2020-09-10T10:57:58.672Z</time>
      </trkpt>
      <trkpt lat="48.287785" lon="10.332421">
        <ele>542.443292</ele>
        <time>2020-09-10T10:58:01.674Z</time>
      </trkpt>
      <trkpt lat="48.287688" lon="10.332472">
        <ele>542.992765</ele>
        <time>2020-09-10T10:58:04.678Z</time>
      </trkpt>
      <trkpt lat="48.287571" lon="10.332530">
        <ele>543.665743</ele>
        <time>2020-09-10T10:58:07.670Z</time>
      </trkpt>
      <trkpt lat="48.287446" lon="10.332582">
        <ele>544.374226</ele>
        <time>2020-09-10T10:58:10.666Z</time>
      </trkpt>
      <trkpt lat="48.287332" lon="10.332627">
        <ele>545.018068</ele>
        <time>2020-09-10T10:58:13.664Z</time>
      </trkpt>
      <trkpt lat="48.287234" lon="10.332657">
        <ele>545.564381</ele>
        <time>2020-09-10T10:58:16.663Z</time>
      </trkpt>
      <trkpt lat="48.287119" lon="10.332704">
        <ele>546.215378</ele>
        <time>2020-09-10T10:58:19.664Z</time>
      </trkpt>
      <trkpt lat="48.287004" lon="10.332744">
        <ele>546.860165</ele>
        <time>2020-09-10T10:58:22.673Z</time>
      </trkpt>
      <trkpt lat="48.286893" lon="10.332791">
        <ele>547.490104</ele>
        <time>2020-09-10T10:58:25.671Z</time>
      </trkpt>
      <trkpt lat="48.286783" lon="10.332834">
        <ele>548.110968</ele>
        <time>2020-09-10T10:58:28.671Z</time>
      </trkpt>
      <trkpt lat="48.286680" lon="10.332878">
        <ele>548.695889</ele>
        <time>2020-09-10T10:58:31.676Z</time>
      </trkpt>
      <trkpt lat="48.286577" lon="10.332913">
        <ele>549.272725</ele>
        <time>2020-09-10T10:58:34.653Z</time>
      </trkpt>
      <trkpt lat="48.286478" lon="10.332938">
        <ele>549.821090</ele>
        <time>2020-09-10T10:58:37.665Z</time>
      </trkpt>
      <trkpt lat="48.286384" lon="10.332967">
        <ele>550.345268</ele>
        <time>2020-09-10T10:58:40.664Z</time>
      </trkpt>
      <trkpt lat="48.286285" lon="10.332993">
        <ele>550.894247</ele>
        <time>2020-09-10T10:58:43.666Z</time>
      </trkpt>
      <trkpt lat="48.286178" lon="10.333030">
        <ele>551.494002</ele>
        <time>2020-09-10T10:58:47.673Z</time>
      </trkpt>
      <trkpt lat="48.286080" lon="10.333064">
        <ele>552.043403</ele>
        <time>2020-09-10T10:58:51.671Z</time>
      </trkpt>
      <trkpt lat="48.285971" lon="10.333105">
        <ele>552.568370</ele>
        <time>2020-09-10T10:58:55.672Z</time>
      </trkpt>
      <trkpt lat="48.285860" lon="10.333136">
        <ele>553.042287</ele>
        <time>2020-09-10T10:58:59.671Z</time>
      </trkpt>
      <trkpt lat="48.285753" lon="10.333184">
        <ele>553.511020</ele>
        <time>2020-09-10T10:59:03.672Z</time>
      </trkpt>
      <trkpt lat="48.285662" lon="10.333208">
        <ele>553.898845</ele>
        <time>2020-09-10T10:59:06.662Z</time>
      </trkpt>
      <trkpt lat="48.285572" lon="10.333216">
        <ele>554.277294</ele>
        <time>2020-09-10T10:59:09.665Z</time>
      </trkpt>
      <trkpt lat="48.285480" lon="10.333247">
        <ele>554.673067</ele>
        <time>2020-09-10T10:59:12.667Z</time>
      </trkpt>
      <trkpt lat="48.285378" lon="10.333269">
        <ele>555.105615</ele>
        <time>2020-09-10T10:59:15.666Z</time>
      </trkpt>
      <trkpt lat="48.285275" lon="10.333283">
        <ele>555.539739</ele>
        <time>2020-09-10T10:59:18.666Z</time>
      </trkpt>
      <trkpt lat="48.285174" lon="10.333304">
        <ele>555.967741</ele>
        <time>2020-09-10T10:59:21.666Z</time>
      </trkpt>
      <trkpt lat="48.285057" lon="10.333341">
        <ele>556.469623</ele>
        <time>2020-09-10T10:59:25.670Z</time>
      </trkpt>
      <trkpt lat="48.284949" lon="10.333368">
        <ele>556.929200</ele>
        <time>2020-09-10T10:59:28.673Z</time>
      </trkpt>
      <trkpt lat="48.284834" lon="10.333407">
        <ele>557.424070</ele>
        <time>2020-09-10T10:59:31.673Z</time>
      </trkpt>
      <trkpt lat="48.284738" lon="10.333438">
        <ele>557.836243</ele>
        <time>2020-09-10T10:59:34.674Z</time>
      </trkpt>
      <trkpt lat="48.284649" lon="10.333472">
        <ele>558.221717</ele>
        <time>2020-09-10T10:59:37.674Z</time>
      </trkpt>
      <trkpt lat="48.284550" lon="10.333497">
        <ele>558.643111</ele>
        <time>2020-09-10T10:59:40.665Z</time>
      </trkpt>
      <trkpt lat="48.284427" lon="10.333521">
        <ele>559.163757</ele>
        <time>2020-09-10T10:59:43.667Z</time>
      </trkpt>
      <trkpt lat="48.284321" lon="10.333542">
        <ele>559.612559</ele>
        <time>2020-09-10T10:59:46.673Z</time>
      </trkpt>
      <trkpt lat="48.284227" lon="10.333561">
        <ele>559.925554</ele>
        <time>2020-09-10T10:59:49.670Z</time>
      </trkpt>
      <trkpt lat="48.284106" lon="10.333603">
        <ele>560.209472</ele>
        <time>2020-09-10T10:59:52.670Z</time>
      </trkpt>
      <trkpt lat="48.283995" lon="10.333646">
        <ele>560.471541</ele>
        <time>2020-09-10T10:59:55.672Z</time>
      </trkpt>
      <trkpt lat="48.283878" lon="10.333665">
        <ele>560.740588</ele>
        <time>2020-09-10T10:59:58.671Z</time>
      </trkpt>
      <trkpt lat="48.283765" lon="10.333692">
        <ele>561.002178</ele>
        <time>2020-09-10T11:00:01.669Z</time>
      </trkpt>
      <trkpt lat="48.283641" lon="10.333737">
        <ele>561.293820</ele>
        <time>2020-09-10T11:00:04.672Z</time>
      </trkpt>
      <trkpt lat="48.283526" lon="10.333770">
        <ele>561.561488</ele>
        <time>2020-09-10T11:00:07.678Z</time>
      </trkpt>
      <trkpt lat="48.283420" lon="10.333782">
        <ele>561.804516</ele>
        <time>2020-09-10T11:00:10.659Z</time>
      </trkpt>
      <trkpt lat="48.283331" lon="10.333743">
        <ele>562.016465</ele>
        <time>2020-09-10T11:00:12.676Z</time>
      </trkpt>
      <trkpt lat="48.283225" lon="10.333831">
        <ele>562.293329</ele>
        <time>2020-09-10T11:00:15.675Z</time>
      </trkpt>
      <trkpt lat="48.283118" lon="10.333920">
        <ele>562.572929</ele>
        <time>2020-09-10T11:00:18.666Z</time>
      </trkpt>
      <trkpt lat="48.282994" lon="10.334012">
        <ele>562.889092</ele>
        <time>2020-09-10T11:00:21.678Z</time>
      </trkpt>
      <trkpt lat="48.282906" lon="10.334082">
        <ele>563.116729</ele>
        <time>2020-09-10T11:00:23.674Z</time>
      </trkpt>
      <trkpt lat="48.282792" lon="10.334185">
        <ele>563.420841</ele>
        <time>2020-09-10T11:00:26.667Z</time>
      </trkpt>
      <trkpt lat="48.282709" lon="10.334261">
        <ele>563.643051</ele>
        <time>2020-09-10T11:00:28.674Z</time>
      </trkpt>
      <trkpt lat="48.282628" lon="10.334338">
        <ele>563.862179</ele>
        <time>2020-09-10T11:00:30.665Z</time>
      </trkpt>
      <trkpt lat="48.282545" lon="10.334421">
        <ele>563.979237</ele>
        <time>2020-09-10T11:00:32.667Z</time>
      </trkpt>
      <trkpt lat="48.282459" lon="10.334497">
        <ele>564.043394</ele>
        <time>2020-09-10T11:00:34.668Z</time>
      </trkpt>
      <trkpt lat="48.282355" lon="10.334592">
        <ele>564.121658</ele>
        <time>2020-09-10T11:00:36.685Z</time>
      </trkpt>
      <trkpt lat="48.282257" lon="10.334696">
        <ele>564.198807</ele>
        <time>2020-09-10T11:00:38.669Z</time>
      </trkpt>
      <trkpt lat="48.282156" lon="10.334798">
        <ele>564.277060</ele>
        <time>2020-09-10T11:00:40.685Z</time>
      </trkpt>
      <trkpt lat="48.282049" lon="10.334904">
        <ele>564.359473</ele>
        <time>2020-09-10T11:00:42.673Z</time>
      </trkpt>
      <trkpt lat="48.281955" lon="10.335012">
        <ele>564.435564</ele>
        <time>2020-09-10T11:00:44.680Z</time>
      </trkpt>
      <trkpt lat="48.281867" lon="10.335104">
        <ele>564.504501</ele>
        <time>2020-09-10T11:00:46.670Z</time>
      </trkpt>
      <trkpt lat="48.281785" lon="10.335196">
        <ele>564.570307</ele>
        <time>2020-09-10T11:00:48.671Z</time>
      </trkpt>
      <trkpt lat="48.281700" lon="10.335290">
        <ele>564.638173</ele>
        <time>2020-09-10T11:00:50.670Z</time>
      </trkpt>
      <trkpt lat="48.281616" lon="10.335378">
        <ele>564.704020</ele>
        <time>2020-09-10T11:00:52.671Z</time>
      </trkpt>
      <trkpt lat="48.281527" lon="10.335468">
        <ele>564.773004</ele>
        <time>2020-09-10T11:00:54.677Z</time>
      </trkpt>
      <trkpt lat="48.281437" lon="10.335561">
        <ele>564.843242</ele>
        <time>2020-09-10T11:00:56.676Z</time>
      </trkpt>
      <trkpt lat="48.281345" lon="10.335658">
        <ele>564.915513</ele>
        <time>2020-09-10T11:00:58.667Z</time>
      </trkpt>
      <trkpt lat="48.281247" lon="10.335748">
        <ele>564.989369</ele>
        <time>2020-09-10T11:01:00.667Z</time>
      </trkpt>
      <trkpt lat="48.281151" lon="10.335834">
        <ele>565.061240</ele>
        <time>2020-09-10T11:01:02.665Z</time>
      </trkpt>
      <trkpt lat="48.281044" lon="10.335912">
        <ele>565.210772</ele>
        <time>2020-09-10T11:01:04.664Z</time>
      </trkpt>
      <trkpt lat="48.280935" lon="10.336002">
        <ele>565.419885</ele>
        <time>2020-09-10T11:01:06.664Z</time>
      </trkpt>
      <trkpt lat="48.280815" lon="10.336088">
        <ele>565.643420</ele>
        <time>2020-09-10T11:01:08.668Z</time>
      </trkpt>
      <trkpt lat="48.280711" lon="10.336165">
        <ele>565.838355</ele>
        <time>2020-09-10T11:01:10.672Z</time>
      </trkpt>
      <trkpt lat="48.280610" lon="10.336222">
        <ele>566.019754</ele>
        <time>2020-09-10T11:01:12.665Z</time>
      </trkpt>
      <trkpt lat="48.280513" lon="10.336283">
        <ele>566.196553</ele>
        <time>2020-09-10T11:01:14.667Z</time>
      </trkpt>
      <trkpt lat="48.280411" lon="10.336341">
        <ele>566.379920</ele>
        <time>2020-09-10T11:01:16.666Z</time>
      </trkpt>
      <trkpt lat="48.280304" lon="10.336397">
        <ele>566.570426</ele>
        <time>2020-09-10T11:01:18.675Z</time>
      </trkpt>
      <trkpt lat="48.280197" lon="10.336451">
        <ele>566.760207</ele>
        <time>2020-09-10T11:01:20.671Z</time>
      </trkpt>
      <trkpt lat="48.280091" lon="10.336495">
        <ele>566.945107</ele>
        <time>2020-09-10T11:01:22.672Z</time>
      </trkpt>
      <trkpt lat="48.279984" lon="10.336536">
        <ele>567.130770</ele>
        <time>2020-09-10T11:01:24.675Z</time>
      </trkpt>
      <trkpt lat="48.279877" lon="10.336582">
        <ele>567.317894</ele>
        <time>2020-09-10T11:01:26.669Z</time>
      </trkpt>
      <trkpt lat="48.279767" lon="10.336633">
        <ele>567.511447</ele>
        <time>2020-09-10T11:01:28.672Z</time>
      </trkpt>
      <trkpt lat="48.279653" lon="10.336682">
        <ele>567.710810</ele>
        <time>2020-09-10T11:01:30.668Z</time>
      </trkpt>
      <trkpt lat="48.279534" lon="10.336733">
        <ele>567.918871</ele>
        <time>2020-09-10T11:01:32.672Z</time>
      </trkpt>
      <trkpt lat="48.279427" lon="10.336791">
        <ele>568.110125</ele>
        <time>2020-09-10T11:01:34.661Z</time>
      </trkpt>
      <trkpt lat="48.279320" lon="10.336851">
        <ele>568.109777</ele>
        <time>2020-09-10T11:01:36.665Z</time>
      </trkpt>
      <trkpt lat="48.279211" lon="10.336887">
        <ele>568.102834</ele>
        <time>2020-09-10T11:01:38.667Z</time>
      </trkpt>
      <trkpt lat="48.279095" lon="10.336925">
        <ele>568.095447</ele>
        <time>2020-09-10T11:01:40.666Z</time>
      </trkpt>
      <trkpt lat="48.278991" lon="10.336958">
        <ele>568.088833</ele>
        <time>2020-09-10T11:01:42.665Z</time>
      </trkpt>
      <trkpt lat="48.278894" lon="10.336990">
        <ele>568.082654</ele>
        <time>2020-09-10T11:01:44.677Z</time>
      </trkpt>
      <trkpt lat="48.278800" lon="10.337028">
        <ele>568.076597</ele>
        <time>2020-09-10T11:01:46.668Z</time>
      </trkpt>
      <trkpt lat="48.278705" lon="10.337066">
        <ele>568.070481</ele>
        <time>2020-09-10T11:01:48.669Z</time>
      </trkpt>
      <trkpt lat="48.278612" lon="10.337095">
        <ele>568.064571</ele>
        <time>2020-09-10T11:01:50.676Z</time>
      </trkpt>
      <trkpt lat="48.278524" lon="10.337129">
        <ele>568.058918</ele>
        <time>2020-09-10T11:01:52.672Z</time>
      </trkpt>
      <trkpt lat="48.278429" lon="10.337161">
        <ele>568.052860</ele>
        <time>2020-09-10T11:01:54.673Z</time>
      </trkpt>
      <trkpt lat="48.278330" lon="10.337194">
        <ele>568.046551</ele>
        <time>2020-09-10T11:01:56.671Z</time>
      </trkpt>
      <trkpt lat="48.278218" lon="10.337236">
        <ele>568.039368</ele>
        <time>2020-09-10T11:01:58.667Z</time>
      </trkpt>
      <trkpt lat="48.278092" lon="10.337283">
        <ele>568.031291</ele>
        <time>2020-09-10T11:02:00.672Z</time>
      </trkpt>
      <trkpt lat="48.277962" lon="10.337321">
        <ele>568.023051</ele>
        <time>2020-09-10T11:02:02.670Z</time>
      </trkpt>
      <trkpt lat="48.277846" lon="10.337363">
        <ele>568.015626</ele>
        <time>2020-09-10T11:02:04.667Z</time>
      </trkpt>
      <trkpt lat="48.277735" lon="10.337404">
        <ele>568.008515</ele>
        <time>2020-09-10T11:02:06.671Z</time>
      </trkpt>
      <trkpt lat="48.277615" lon="10.337445">
        <ele>568.157563</ele>
        <time>2020-09-10T11:02:08.672Z</time>
      </trkpt>
      <trkpt lat="48.277484" lon="10.337498">
        <ele>568.490573</ele>
        <time>2020-09-10T11:02:10.671Z</time>
      </trkpt>
      <trkpt lat="48.277351" lon="10.337559">
        <ele>568.831909</ele>
        <time>2020-09-10T11:02:12.676Z</time>
      </trkpt>
      <trkpt lat="48.277220" lon="10.337627">
        <ele>569.172114</ele>
        <time>2020-09-10T11:02:14.672Z</time>
      </trkpt>
      <trkpt lat="48.277109" lon="10.337688">
        <ele>569.462230</ele>
        <time>2020-09-10T11:02:16.676Z</time>
      </trkpt>
      <trkpt lat="48.277018" lon="10.337730">
        <ele>569.695902</ele>
        <time>2020-09-10T11:02:18.663Z</time>
      </trkpt>
      <trkpt lat="48.276923" lon="10.337762">
        <ele>569.934881</ele>
        <time>2020-09-10T11:02:20.669Z</time>
      </trkpt>
      <trkpt lat="48.276833" lon="10.337818">
        <ele>570.173991</ele>
        <time>2020-09-10T11:02:22.669Z</time>
      </trkpt>
      <trkpt lat="48.276744" lon="10.337886">
        <ele>570.419075</ele>
        <time>2020-09-10T11:02:24.671Z</time>
      </trkpt>
      <trkpt lat="48.276656" lon="10.337944">
        <ele>570.654951</ele>
        <time>2020-09-10T11:02:26.668Z</time>
      </trkpt>
      <trkpt lat="48.276549" lon="10.338013">
        <ele>570.940764</ele>
        <time>2020-09-10T11:02:29.667Z</time>
      </trkpt>
      <trkpt lat="48.276456" lon="10.338066">
        <ele>571.184913</ele>
        <time>2020-09-10T11:02:32.673Z</time>
      </trkpt>
      <trkpt lat="48.276358" lon="10.338124">
        <ele>571.443456</ele>
        <time>2020-09-10T11:02:35.660Z</time>
      </trkpt>
      <trkpt lat="48.276259" lon="10.338183">
        <ele>571.704882</ele>
        <time>2020-09-10T11:02:39.662Z</time>
      </trkpt>
      <trkpt lat="48.276157" lon="10.338241">
        <ele>571.972584</ele>
        <time>2020-09-10T11:02:43.667Z</time>
      </trkpt>
      <trkpt lat="48.276064" lon="10.338292">
        <ele>572.215594</ele>
        <time>2020-09-10T11:02:46.670Z</time>
      </trkpt>
      <trkpt lat="48.275973" lon="10.338347">
        <ele>572.469776</ele>
        <time>2020-09-10T11:02:49.669Z</time>
      </trkpt>
      <trkpt lat="48.275882" lon="10.338401">
        <ele>572.797930</ele>
        <time>2020-09-10T11:02:52.664Z</time>
      </trkpt>
      <trkpt lat="48.275798" lon="10.338449">
        <ele>573.099352</ele>
        <time>2020-09-10T11:02:55.664Z</time>
      </trkpt>
      <trkpt lat="48.275706" lon="10.338506">
        <ele>573.433123</ele>
        <time>2020-09-10T11:02:59.667Z</time>
      </trkpt>
      <trkpt lat="48.275619" lon="10.338561">
        <ele>573.749696</ele>
        <time>2020-09-10T11:03:04.665Z</time>
      </trkpt>
      <trkpt lat="48.275536" lon="10.338618">
        <ele>574.055777</ele>
        <time>2020-09-10T11:03:11.670Z</time>
      </trkpt>
      <trkpt lat="48.275409" lon="10.338676">
        <ele>574.500976</ele>
        <time>2020-09-10T11:05:53.669Z</time>
      </trkpt>
      <trkpt lat="48.275326" lon="10.338735">
        <ele>574.808940</ele>
        <time>2020-09-10T11:05:56.669Z</time>
      </trkpt>
      <trkpt lat="48.275238" lon="10.338798">
        <ele>575.135883</ele>
        <time>2020-09-10T11:05:59.666Z</time>
      </trkpt>
      <trkpt lat="48.275150" lon="10.338855">
        <ele>575.457292</ele>
        <time>2020-09-10T11:06:02.681Z</time>
      </trkpt>
      <trkpt lat="48.275035" lon="10.338943">
        <ele>575.890143</ele>
        <time>2020-09-10T11:06:05.663Z</time>
      </trkpt>
      <trkpt lat="48.274950" lon="10.339004">
        <ele>576.206082</ele>
        <time>2020-09-10T11:06:07.662Z</time>
      </trkpt>
      <trkpt lat="48.274863" lon="10.339075">
        <ele>576.538144</ele>
        <time>2020-09-10T11:06:09.663Z</time>
      </trkpt>
      <trkpt lat="48.274781" lon="10.339135">
        <ele>576.844051</ele>
        <time>2020-09-10T11:06:11.665Z</time>
      </trkpt>
      <trkpt lat="48.274670" lon="10.339222">
        <ele>577.263954</ele>
        <time>2020-09-10T11:06:14.666Z</time>
      </trkpt>
      <trkpt lat="48.274566" lon="10.339312">
        <ele>577.666490</ele>
        <time>2020-09-10T11:06:17.667Z</time>
      </trkpt>
      <trkpt lat="48.274456" lon="10.339405">
        <ele>578.089828</ele>
        <time>2020-09-10T11:06:20.671Z</time>
      </trkpt>
      <trkpt lat="48.274381" lon="10.339503">
        <ele>578.423197</ele>
        <time>2020-09-10T11:06:22.666Z</time>
      </trkpt>
      <trkpt lat="48.274305" lon="10.339595">
        <ele>578.835990</ele>
        <time>2020-09-10T11:06:24.670Z</time>
      </trkpt>
      <trkpt lat="48.274189" lon="10.339692">
        <ele>579.408857</ele>
        <time>2020-09-10T11:06:27.669Z</time>
      </trkpt>
      <trkpt lat="48.274109" lon="10.339763">
        <ele>579.809801</ele>
        <time>2020-09-10T11:06:29.659Z</time>
      </trkpt>
      <trkpt lat="48.274022" lon="10.339823">
        <ele>580.222885</ele>
        <time>2020-09-10T11:06:31.672Z</time>
      </trkpt>
      <trkpt lat="48.273903" lon="10.339911">
        <ele>580.795223</ele>
        <time>2020-09-10T11:06:34.659Z</time>
      </trkpt>
      <trkpt lat="48.273789" lon="10.339996">
        <ele>581.344401</ele>
        <time>2020-09-10T11:06:37.670Z</time>
      </trkpt>
      <trkpt lat="48.273683" lon="10.340081">
        <ele>581.862884</ele>
        <time>2020-09-10T11:06:40.660Z</time>
      </trkpt>
      <trkpt lat="48.273575" lon="10.340169">
        <ele>582.393049</ele>
        <time>2020-09-10T11:06:43.662Z</time>
      </trkpt>
      <trkpt lat="48.273468" lon="10.340251">
        <ele>582.911371</ele>
        <time>2020-09-10T11:06:46.664Z</time>
      </trkpt>
      <trkpt lat="48.273362" lon="10.340337">
        <ele>583.431213</ele>
        <time>2020-09-10T11:06:49.669Z</time>
      </trkpt>
      <trkpt lat="48.273260" lon="10.340421">
        <ele>583.933147</ele>
        <time>2020-09-10T11:06:52.669Z</time>
      </trkpt>
      <trkpt lat="48.273168" lon="10.340486">
        <ele>584.371851</ele>
        <time>2020-09-10T11:06:55.671Z</time>
      </trkpt>
      <trkpt lat="48.273069" lon="10.340568">
        <ele>584.859674</ele>
        <time>2020-09-10T11:06:58.667Z</time>
      </trkpt>
      <trkpt lat="48.272962" lon="10.340644">
        <ele>585.370398</ele>
        <time>2020-09-10T11:07:01.690Z</time>
      </trkpt>
      <trkpt lat="48.272861" lon="10.340724">
        <ele>585.863092</ele>
        <time>2020-09-10T11:07:04.667Z</time>
      </trkpt>
      <trkpt lat="48.272763" lon="10.340803">
        <ele>586.372733</ele>
        <time>2020-09-10T11:07:07.672Z</time>
      </trkpt>
      <trkpt lat="48.272669" lon="10.340890">
        <ele>586.958838</ele>
        <time>2020-09-10T11:07:10.671Z</time>
      </trkpt>
      <trkpt lat="48.272566" lon="10.340961">
        <ele>587.560440</ele>
        <time>2020-09-10T11:07:13.659Z</time>
      </trkpt>
      <trkpt lat="48.272462" lon="10.341045">
        <ele>588.187271</ele>
        <time>2020-09-10T11:07:16.664Z</time>
      </trkpt>
      <trkpt lat="48.272370" lon="10.341124">
        <ele>588.749815</ele>
        <time>2020-09-10T11:07:19.664Z</time>
      </trkpt>
      <trkpt lat="48.272264" lon="10.341206">
        <ele>589.382752</ele>
        <time>2020-09-10T11:07:22.667Z</time>
      </trkpt>
      <trkpt lat="48.272156" lon="10.341292">
        <ele>590.031644</ele>
        <time>2020-09-10T11:07:25.665Z</time>
      </trkpt>
      <trkpt lat="48.272049" lon="10.341375">
        <ele>590.670919</ele>
        <time>2020-09-10T11:07:28.661Z</time>
      </trkpt>
      <trkpt lat="48.271946" lon="10.341456">
        <ele>591.288093</ele>
        <time>2020-09-10T11:07:31.664Z</time>
      </trkpt>
      <trkpt lat="48.271849" lon="10.341533">
        <ele>591.870498</ele>
        <time>2020-09-10T11:07:34.668Z</time>
      </trkpt>
      <trkpt lat="48.271748" lon="10.341607">
        <ele>592.467038</ele>
        <time>2020-09-10T11:07:37.667Z</time>
      </trkpt>
      <trkpt lat="48.271646" lon="10.341693">
        <ele>593.087967</ele>
        <time>2020-09-10T11:07:40.664Z</time>
      </trkpt>
      <trkpt lat="48.271552" lon="10.341777">
        <ele>593.668586</ele>
        <time>2020-09-10T11:07:43.669Z</time>
      </trkpt>
      <trkpt lat="48.271458" lon="10.341856">
        <ele>594.240375</ele>
        <time>2020-09-10T11:07:46.669Z</time>
      </trkpt>
      <trkpt lat="48.271362" lon="10.341926">
        <ele>594.806863</ele>
        <time>2020-09-10T11:07:49.660Z</time>
      </trkpt>
      <trkpt lat="48.271267" lon="10.342004">
        <ele>595.381589</ele>
        <time>2020-09-10T11:07:52.657Z</time>
      </trkpt>
      <trkpt lat="48.271168" lon="10.342076">
        <ele>595.874628</ele>
        <time>2020-09-10T11:07:55.664Z</time>
      </trkpt>
      <trkpt lat="48.271068" lon="10.342171">
        <ele>596.221730</ele>
        <time>2020-09-10T11:07:58.659Z</time>
      </trkpt>
      <trkpt lat="48.270960" lon="10.342261">
        <ele>596.584047</ele>
        <time>2020-09-10T11:08:01.664Z</time>
      </trkpt>
      <trkpt lat="48.270850" lon="10.342343">
        <ele>596.944297</ele>
        <time>2020-09-10T11:08:04.655Z</time>
      </trkpt>
      <trkpt lat="48.270734" lon="10.342436">
        <ele>597.330031</ele>
        <time>2020-09-10T11:08:07.664Z</time>
      </trkpt>
      <trkpt lat="48.270648" lon="10.342505">
        <ele>597.616054</ele>
        <time>2020-09-10T11:08:09.662Z</time>
      </trkpt>
      <trkpt lat="48.270567" lon="10.342565">
        <ele>597.880999</ele>
        <time>2020-09-10T11:08:11.666Z</time>
      </trkpt>
      <trkpt lat="48.270484" lon="10.342640">
        <ele>598.165147</ele>
        <time>2020-09-10T11:08:13.671Z</time>
      </trkpt>
      <trkpt lat="48.270397" lon="10.342707">
        <ele>598.451959</ele>
        <time>2020-09-10T11:08:15.666Z</time>
      </trkpt>
      <trkpt lat="48.270307" lon="10.342772">
        <ele>598.744918</ele>
        <time>2020-09-10T11:08:17.665Z</time>
      </trkpt>
      <trkpt lat="48.270218" lon="10.342847">
        <ele>599.044288</ele>
        <time>2020-09-10T11:08:19.667Z</time>
      </trkpt>
      <trkpt lat="48.270118" lon="10.342893">
        <ele>599.351103</ele>
        <time>2020-09-10T11:08:21.665Z</time>
      </trkpt>
      <trkpt lat="48.270020" lon="10.342962">
        <ele>599.668614</ele>
        <time>2020-09-10T11:08:23.664Z</time>
      </trkpt>
      <trkpt lat="48.269924" lon="10.343024">
        <ele>599.975171</ele>
        <time>2020-09-10T11:08:25.669Z</time>
      </trkpt>
      <trkpt lat="48.269839" lon="10.343080">
        <ele>600.247460</ele>
        <time>2020-09-10T11:08:27.667Z</time>
      </trkpt>
      <trkpt lat="48.269751" lon="10.343134">
        <ele>600.526332</ele>
        <time>2020-09-10T11:08:29.656Z</time>
      </trkpt>
      <trkpt lat="48.269667" lon="10.343183">
        <ele>600.790688</ele>
        <time>2020-09-10T11:08:31.667Z</time>
      </trkpt>
      <trkpt lat="48.269581" lon="10.343240">
        <ele>601.048296</ele>
        <time>2020-09-10T11:08:33.661Z</time>
      </trkpt>
      <trkpt lat="48.269457" lon="10.343323">
        <ele>601.182256</ele>
        <time>2020-09-10T11:08:36.665Z</time>
      </trkpt>
      <trkpt lat="48.269361" lon="10.343386">
        <ele>601.285633</ele>
        <time>2020-09-10T11:08:38.659Z</time>
      </trkpt>
      <trkpt lat="48.269266" lon="10.343443">
        <ele>601.386580</ele>
        <time>2020-09-10T11:08:40.662Z</time>
      </trkpt>
      <trkpt lat="48.269166" lon="10.343498">
        <ele>601.491666</ele>
        <time>2020-09-10T11:08:42.662Z</time>
      </trkpt>
      <trkpt lat="48.269075" lon="10.343560">
        <ele>601.590268</ele>
        <time>2020-09-10T11:08:44.663Z</time>
      </trkpt>
      <trkpt lat="48.268986" lon="10.343616">
        <ele>601.685486</ele>
        <time>2020-09-10T11:08:46.667Z</time>
      </trkpt>
      <trkpt lat="48.268896" lon="10.343663">
        <ele>601.779512</ele>
        <time>2020-09-10T11:08:48.665Z</time>
      </trkpt>
      <trkpt lat="48.268804" lon="10.343703">
        <ele>601.874023</ele>
        <time>2020-09-10T11:08:50.664Z</time>
      </trkpt>
      <trkpt lat="48.268712" lon="10.343748">
        <ele>601.969500</ele>
        <time>2020-09-10T11:08:52.666Z</time>
      </trkpt>
      <trkpt lat="48.268626" lon="10.343792">
        <ele>602.059152</ele>
        <time>2020-09-10T11:08:54.673Z</time>
      </trkpt>
      <trkpt lat="48.268530" lon="10.343839">
        <ele>602.158789</ele>
        <time>2020-09-10T11:08:56.646Z</time>
      </trkpt>
      <trkpt lat="48.268426" lon="10.343887">
        <ele>602.266151</ele>
        <time>2020-09-10T11:08:58.671Z</time>
      </trkpt>
      <trkpt lat="48.268317" lon="10.343927">
        <ele>602.376876</ele>
        <time>2020-09-10T11:09:00.654Z</time>
      </trkpt>
      <trkpt lat="48.268213" lon="10.343955">
        <ele>602.481139</ele>
        <time>2020-09-10T11:09:02.658Z</time>
      </trkpt>
      <trkpt lat="48.268108" lon="10.343985">
        <ele>602.586611</ele>
        <time>2020-09-10T11:09:04.655Z</time>
      </trkpt>
      <trkpt lat="48.267998" lon="10.344016">
        <ele>602.697053</ele>
        <time>2020-09-10T11:09:06.659Z</time>
      </trkpt>
      <trkpt lat="48.267884" lon="10.344047">
        <ele>602.811378</ele>
        <time>2020-09-10T11:09:08.661Z</time>
      </trkpt>
      <trkpt lat="48.267769" lon="10.344063">
        <ele>602.906966</ele>
        <time>2020-09-10T11:09:10.659Z</time>
      </trkpt>
      <trkpt lat="48.267652" lon="10.344088">
        <ele>603.004332</ele>
        <time>2020-09-10T11:09:12.663Z</time>
      </trkpt>
      <trkpt lat="48.267528" lon="10.344116">
        <ele>603.107643</ele>
        <time>2020-09-10T11:09:14.659Z</time>
      </trkpt>
      <trkpt lat="48.267405" lon="10.344142">
        <ele>603.209981</ele>
        <time>2020-09-10T11:09:16.664Z</time>
      </trkpt>
      <trkpt lat="48.267286" lon="10.344165">
        <ele>603.308833</ele>
        <time>2020-09-10T11:09:18.659Z</time>
      </trkpt>
      <trkpt lat="48.267168" lon="10.344192">
        <ele>603.407175</ele>
        <time>2020-09-10T11:09:20.667Z</time>
      </trkpt>
      <trkpt lat="48.267049" lon="10.344215">
        <ele>603.506027</ele>
        <time>2020-09-10T11:09:22.660Z</time>
      </trkpt>
      <trkpt lat="48.266933" lon="10.344241">
        <ele>603.602657</ele>
        <time>2020-09-10T11:09:24.668Z</time>
      </trkpt>
      <trkpt lat="48.266818" lon="10.344265">
        <ele>603.698315</ele>
        <time>2020-09-10T11:09:26.662Z</time>
      </trkpt>
      <trkpt lat="48.266696" lon="10.344302">
        <ele>603.800858</ele>
        <time>2020-09-10T11:09:28.665Z</time>
      </trkpt>
      <trkpt lat="48.266576" lon="10.344330">
        <ele>603.900912</ele>
        <time>2020-09-10T11:09:30.670Z</time>
      </trkpt>
      <trkpt lat="48.266463" lon="10.344359">
        <ele>603.995361</ele>
        <time>2020-09-10T11:09:32.666Z</time>
      </trkpt>
      <trkpt lat="48.266354" lon="10.344376">
        <ele>604.085649</ele>
        <time>2020-09-10T11:09:34.668Z</time>
      </trkpt>
      <trkpt lat="48.266243" lon="10.344404">
        <ele>604.178382</ele>
        <time>2020-09-10T11:09:36.656Z</time>
      </trkpt>
      <trkpt lat="48.266132" lon="10.344432">
        <ele>604.271115</ele>
        <time>2020-09-10T11:09:38.655Z</time>
      </trkpt>
      <trkpt lat="48.266019" lon="10.344460">
        <ele>604.187560</ele>
        <time>2020-09-10T11:09:40.659Z</time>
      </trkpt>
      <trkpt lat="48.265892" lon="10.344506">
        <ele>604.019915</ele>
        <time>2020-09-10T11:09:42.655Z</time>
      </trkpt>
      <trkpt lat="48.265772" lon="10.344561">
        <ele>603.858915</ele>
        <time>2020-09-10T11:09:44.665Z</time>
      </trkpt>
      <trkpt lat="48.265655" lon="10.344616">
        <ele>603.701593</ele>
        <time>2020-09-10T11:09:46.664Z</time>
      </trkpt>
      <trkpt lat="48.265530" lon="10.344666">
        <ele>603.535596</ele>
        <time>2020-09-10T11:09:48.663Z</time>
      </trkpt>
      <trkpt lat="48.265406" lon="10.344717">
        <ele>603.370614</ele>
        <time>2020-09-10T11:09:50.660Z</time>
      </trkpt>
      <trkpt lat="48.265280" lon="10.344783">
        <ele>603.199375</ele>
        <time>2020-09-10T11:09:52.661Z</time>
      </trkpt>
      <trkpt lat="48.265157" lon="10.344857">
        <ele>603.029345</ele>
        <time>2020-09-10T11:09:54.663Z</time>
      </trkpt>
      <trkpt lat="48.265022" lon="10.344938">
        <ele>602.842797</ele>
        <time>2020-09-10T11:09:56.664Z</time>
      </trkpt>
      <trkpt lat="48.264889" lon="10.345037">
        <ele>602.652318</ele>
        <time>2020-09-10T11:09:58.663Z</time>
      </trkpt>
      <trkpt lat="48.264763" lon="10.345151">
        <ele>602.463564</ele>
        <time>2020-09-10T11:10:00.666Z</time>
      </trkpt>
      <trkpt lat="48.264631" lon="10.345260">
        <ele>602.270267</ele>
        <time>2020-09-10T11:10:02.668Z</time>
      </trkpt>
      <trkpt lat="48.264516" lon="10.345362">
        <ele>602.098888</ele>
        <time>2020-09-10T11:10:04.653Z</time>
      </trkpt>
      <trkpt lat="48.264381" lon="10.345438">
        <ele>601.758510</ele>
        <time>2020-09-10T11:10:06.653Z</time>
      </trkpt>
      <trkpt lat="48.264228" lon="10.345455">
        <ele>601.147650</ele>
        <time>2020-09-10T11:10:08.658Z</time>
      </trkpt>
      <trkpt lat="48.264095" lon="10.345494">
        <ele>600.608094</ele>
        <time>2020-09-10T11:10:10.658Z</time>
      </trkpt>
      <trkpt lat="48.263966" lon="10.345574">
        <ele>600.052409</ele>
        <time>2020-09-10T11:10:12.656Z</time>
      </trkpt>
      <trkpt lat="48.263862" lon="10.345715">
        <ele>599.494601</ele>
        <time>2020-09-10T11:10:14.659Z</time>
      </trkpt>
      <trkpt lat="48.263781" lon="10.345893">
        <ele>598.923096</ele>
        <time>2020-09-10T11:10:16.664Z</time>
      </trkpt>
      <trkpt lat="48.263729" lon="10.346098">
        <ele>598.341612</ele>
        <time>2020-09-10T11:10:18.664Z</time>
      </trkpt>
      <trkpt lat="48.263695" lon="10.346319">
        <ele>597.740388</ele>
        <time>2020-09-10T11:10:20.664Z</time>
      </trkpt>
      <trkpt lat="48.263629" lon="10.346539">
        <ele>597.100775</ele>
        <time>2020-09-10T11:10:22.665Z</time>
      </trkpt>
      <trkpt lat="48.263515" lon="10.346713">
        <ele>596.453669</ele>
        <time>2020-09-10T11:10:24.657Z</time>
      </trkpt>
      <trkpt lat="48.263414" lon="10.346902">
        <ele>595.811259</ele>
        <time>2020-09-10T11:10:26.661Z</time>
      </trkpt>
      <trkpt lat="48.263302" lon="10.347080">
        <ele>595.162048</ele>
        <time>2020-09-10T11:10:28.662Z</time>
      </trkpt>
      <trkpt lat="48.263195" lon="10.347277">
        <ele>594.271103</ele>
        <time>2020-09-10T11:10:30.663Z</time>
      </trkpt>
      <trkpt lat="48.263096" lon="10.347466">
        <ele>593.224411</ele>
        <time>2020-09-10T11:10:32.666Z</time>
      </trkpt>
      <trkpt lat="48.262995" lon="10.347666">
        <ele>592.131837</ele>
        <time>2020-09-10T11:10:34.666Z</time>
      </trkpt>
      <trkpt lat="48.262879" lon="10.347857">
        <ele>591.006585</ele>
        <time>2020-09-10T11:10:36.659Z</time>
      </trkpt>
      <trkpt lat="48.262752" lon="10.348050">
        <ele>589.825486</ele>
        <time>2020-09-10T11:10:38.652Z</time>
      </trkpt>
      <trkpt lat="48.262685" lon="10.348149">
        <ele>589.211051</ele>
        <time>2020-09-10T11:10:39.676Z</time>
      </trkpt>
      <trkpt lat="48.262622" lon="10.348248">
        <ele>588.614977</ele>
        <time>2020-09-10T11:10:40.655Z</time>
      </trkpt>
      <trkpt lat="48.262547" lon="10.348347">
        <ele>587.962223</ele>
        <time>2020-09-10T11:10:41.660Z</time>
      </trkpt>
      <trkpt lat="48.262459" lon="10.348439">
        <ele>587.261271</ele>
        <time>2020-09-10T11:10:42.668Z</time>
      </trkpt>
      <trkpt lat="48.262370" lon="10.348529">
        <ele>586.559841</ele>
        <time>2020-09-10T11:10:43.666Z</time>
      </trkpt>
      <trkpt lat="48.262285" lon="10.348623">
        <ele>585.869770</ele>
        <time>2020-09-10T11:10:44.655Z</time>
      </trkpt>
      <trkpt lat="48.262194" lon="10.348709">
        <ele>585.166878</ele>
        <time>2020-09-10T11:10:45.660Z</time>
      </trkpt>
      <trkpt lat="48.262106" lon="10.348793">
        <ele>584.485216</ele>
        <time>2020-09-10T11:10:46.668Z</time>
      </trkpt>
      <trkpt lat="48.262025" lon="10.348891">
        <ele>583.805240</ele>
        <time>2020-09-10T11:10:47.655Z</time>
      </trkpt>
      <trkpt lat="48.261943" lon="10.348980">
        <ele>583.143838</ele>
        <time>2020-09-10T11:10:48.652Z</time>
      </trkpt>
      <trkpt lat="48.261852" lon="10.349061">
        <ele>582.458290</ele>
        <time>2020-09-10T11:10:49.659Z</time>
      </trkpt>
      <trkpt lat="48.261766" lon="10.349147">
        <ele>581.789435</ele>
        <time>2020-09-10T11:10:50.661Z</time>
      </trkpt>
      <trkpt lat="48.261675" lon="10.349229">
        <ele>581.102430</ele>
        <time>2020-09-10T11:10:51.660Z</time>
      </trkpt>
      <trkpt lat="48.261577" lon="10.349315">
        <ele>580.367644</ele>
        <time>2020-09-10T11:10:52.659Z</time>
      </trkpt>
      <trkpt lat="48.261483" lon="10.349404">
        <ele>579.648287</ele>
        <time>2020-09-10T11:10:53.658Z</time>
      </trkpt>
      <trkpt lat="48.261386" lon="10.349484">
        <ele>578.931882</ele>
        <time>2020-09-10T11:10:54.659Z</time>
      </trkpt>
      <trkpt lat="48.261293" lon="10.349561">
        <ele>578.244398</ele>
        <time>2020-09-10T11:10:55.654Z</time>
      </trkpt>
      <trkpt lat="48.261198" lon="10.349638">
        <ele>577.545546</ele>
        <time>2020-09-10T11:10:56.659Z</time>
      </trkpt>
      <trkpt lat="48.261103" lon="10.349714">
        <ele>576.848730</ele>
        <time>2020-09-10T11:10:57.661Z</time>
      </trkpt>
      <trkpt lat="48.261008" lon="10.349791">
        <ele>576.149877</ele>
        <time>2020-09-10T11:10:58.659Z</time>
      </trkpt>
      <trkpt lat="48.260921" lon="10.349868">
        <ele>575.496141</ele>
        <time>2020-09-10T11:10:59.659Z</time>
      </trkpt>
      <trkpt lat="48.260832" lon="10.349936">
        <ele>574.849702</ele>
        <time>2020-09-10T11:11:00.663Z</time>
      </trkpt>
      <trkpt lat="48.260742" lon="10.349999">
        <ele>574.206882</ele>
        <time>2020-09-10T11:11:01.659Z</time>
      </trkpt>
      <trkpt lat="48.260650" lon="10.350063">
        <ele>573.550502</ele>
        <time>2020-09-10T11:11:02.661Z</time>
      </trkpt>
      <trkpt lat="48.260554" lon="10.350130">
        <ele>572.865190</ele>
        <time>2020-09-10T11:11:03.663Z</time>
      </trkpt>
      <trkpt lat="48.260461" lon="10.350195">
        <ele>572.201124</ele>
        <time>2020-09-10T11:11:04.662Z</time>
      </trkpt>
      <trkpt lat="48.260372" lon="10.350266">
        <ele>571.548720</ele>
        <time>2020-09-10T11:11:05.660Z</time>
      </trkpt>
      <trkpt lat="48.260278" lon="10.350334">
        <ele>571.057937</ele>
        <time>2020-09-10T11:11:06.664Z</time>
      </trkpt>
      <trkpt lat="48.260181" lon="10.350403">
        <ele>570.596676</ele>
        <time>2020-09-10T11:11:07.662Z</time>
      </trkpt>
      <trkpt lat="48.260086" lon="10.350471">
        <ele>570.144405</ele>
        <time>2020-09-10T11:11:08.665Z</time>
      </trkpt>
      <trkpt lat="48.259991" lon="10.350538">
        <ele>569.693359</ele>
        <time>2020-09-10T11:11:09.661Z</time>
      </trkpt>
      <trkpt lat="48.259890" lon="10.350609">
        <ele>569.214105</ele>
        <time>2020-09-10T11:11:10.664Z</time>
      </trkpt>
      <trkpt lat="48.259790" lon="10.350679">
        <ele>568.739957</ele>
        <time>2020-09-10T11:11:11.660Z</time>
      </trkpt>
      <trkpt lat="48.259692" lon="10.350752">
        <ele>568.269835</ele>
        <time>2020-09-10T11:11:12.664Z</time>
      </trkpt>
      <trkpt lat="48.259594" lon="10.350833">
        <ele>567.789105</ele>
        <time>2020-09-10T11:11:13.664Z</time>
      </trkpt>
      <trkpt lat="48.259500" lon="10.350903">
        <ele>567.338198</ele>
        <time>2020-09-10T11:11:14.665Z</time>
      </trkpt>
      <trkpt lat="48.259404" lon="10.350973">
        <ele>566.879573</ele>
        <time>2020-09-10T11:11:15.660Z</time>
      </trkpt>
      <trkpt lat="48.259313" lon="10.351040">
        <ele>566.444024</ele>
        <time>2020-09-10T11:11:16.664Z</time>
      </trkpt>
      <trkpt lat="48.259219" lon="10.351109">
        <ele>565.994380</ele>
        <time>2020-09-10T11:11:17.667Z</time>
      </trkpt>
      <trkpt lat="48.259124" lon="10.351178">
        <ele>565.540870</ele>
        <time>2020-09-10T11:11:18.665Z</time>
      </trkpt>
      <trkpt lat="48.259030" lon="10.351246">
        <ele>565.092474</ele>
        <time>2020-09-10T11:11:19.664Z</time>
      </trkpt>
      <trkpt lat="48.258935" lon="10.351316">
        <ele>564.637710</ele>
        <time>2020-09-10T11:11:20.655Z</time>
      </trkpt>
      <trkpt lat="48.258841" lon="10.351383">
        <ele>564.190548</ele>
        <time>2020-09-10T11:11:21.666Z</time>
      </trkpt>
      <trkpt lat="48.258750" lon="10.351450">
        <ele>563.754999</ele>
        <time>2020-09-10T11:11:22.652Z</time>
      </trkpt>
      <trkpt lat="48.258660" lon="10.351519">
        <ele>563.469502</ele>
        <time>2020-09-10T11:11:23.658Z</time>
      </trkpt>
      <trkpt lat="48.258570" lon="10.351583">
        <ele>563.212764</ele>
        <time>2020-09-10T11:11:24.653Z</time>
      </trkpt>
      <trkpt lat="48.258480" lon="10.351652">
        <ele>562.952238</ele>
        <time>2020-09-10T11:11:25.653Z</time>
      </trkpt>
      <trkpt lat="48.258391" lon="10.351723">
        <ele>562.692414</ele>
        <time>2020-09-10T11:11:26.656Z</time>
      </trkpt>
      <trkpt lat="48.258303" lon="10.351792">
        <ele>562.436470</ele>
        <time>2020-09-10T11:11:27.654Z</time>
      </trkpt>
      <trkpt lat="48.258216" lon="10.351858">
        <ele>562.185172</ele>
        <time>2020-09-10T11:11:28.655Z</time>
      </trkpt>
      <trkpt lat="48.258135" lon="10.351926">
        <ele>561.945924</ele>
        <time>2020-09-10T11:11:29.660Z</time>
      </trkpt>
      <trkpt lat="48.258053" lon="10.351992">
        <ele>561.706063</ele>
        <time>2020-09-10T11:11:30.660Z</time>
      </trkpt>
      <trkpt lat="48.257970" lon="10.352053">
        <ele>561.467821</ele>
        <time>2020-09-10T11:11:31.659Z</time>
      </trkpt>
      <trkpt lat="48.257884" lon="10.352115">
        <ele>561.221869</ele>
        <time>2020-09-10T11:11:32.663Z</time>
      </trkpt>
      <trkpt lat="48.257803" lon="10.352177">
        <ele>560.987473</ele>
        <time>2020-09-10T11:11:33.658Z</time>
      </trkpt>
      <trkpt lat="48.257719" lon="10.352237">
        <ele>560.747655</ele>
        <time>2020-09-10T11:11:34.660Z</time>
      </trkpt>
      <trkpt lat="48.257636" lon="10.352295">
        <ele>560.511630</ele>
        <time>2020-09-10T11:11:35.664Z</time>
      </trkpt>
      <trkpt lat="48.257554" lon="10.352360">
        <ele>560.272574</ele>
        <time>2020-09-10T11:11:36.660Z</time>
      </trkpt>
      <trkpt lat="48.257474" lon="10.352422">
        <ele>560.040472</ele>
        <time>2020-09-10T11:11:37.660Z</time>
      </trkpt>
      <trkpt lat="48.257393" lon="10.352488">
        <ele>559.802880</ele>
        <time>2020-09-10T11:11:38.661Z</time>
      </trkpt>
      <trkpt lat="48.257312" lon="10.352547">
        <ele>559.570776</ele>
        <time>2020-09-10T11:11:39.663Z</time>
      </trkpt>
      <trkpt lat="48.257232" lon="10.352608">
        <ele>559.339456</ele>
        <time>2020-09-10T11:11:40.661Z</time>
      </trkpt>
      <trkpt lat="48.257150" lon="10.352668">
        <ele>559.104284</ele>
        <time>2020-09-10T11:11:41.662Z</time>
      </trkpt>
      <trkpt lat="48.257066" lon="10.352726">
        <ele>558.921645</ele>
        <time>2020-09-10T11:11:42.659Z</time>
      </trkpt>
      <trkpt lat="48.256983" lon="10.352787">
        <ele>558.753556</ele>
        <time>2020-09-10T11:11:43.663Z</time>
      </trkpt>
      <trkpt lat="48.256900" lon="10.352846">
        <ele>558.586517</ele>
        <time>2020-09-10T11:11:44.662Z</time>
      </trkpt>
      <trkpt lat="48.256748" lon="10.352957">
        <ele>558.279068</ele>
        <time>2020-09-10T11:11:46.661Z</time>
      </trkpt>
      <trkpt lat="48.256607" lon="10.353080">
        <ele>557.982455</ele>
        <time>2020-09-10T11:11:48.661Z</time>
      </trkpt>
      <trkpt lat="48.256475" lon="10.353199">
        <ele>557.702404</ele>
        <time>2020-09-10T11:11:50.664Z</time>
      </trkpt>
      <trkpt lat="48.256343" lon="10.353323">
        <ele>557.419189</ele>
        <time>2020-09-10T11:11:52.664Z</time>
      </trkpt>
      <trkpt lat="48.256217" lon="10.353440">
        <ele>557.149718</ele>
        <time>2020-09-10T11:11:54.677Z</time>
      </trkpt>
      <trkpt lat="48.256099" lon="10.353569">
        <ele>556.884228</ele>
        <time>2020-09-10T11:11:56.668Z</time>
      </trkpt>
      <trkpt lat="48.255980" lon="10.353694">
        <ele>556.620070</ele>
        <time>2020-09-10T11:11:58.664Z</time>
      </trkpt>
      <trkpt lat="48.255869" lon="10.353825">
        <ele>556.363275</ele>
        <time>2020-09-10T11:12:00.660Z</time>
      </trkpt>
      <trkpt lat="48.255761" lon="10.353956">
        <ele>556.110748</ele>
        <time>2020-09-10T11:12:02.653Z</time>
      </trkpt>
      <trkpt lat="48.255661" lon="10.354084">
        <ele>555.871741</ele>
        <time>2020-09-10T11:12:04.653Z</time>
      </trkpt>
      <trkpt lat="48.255556" lon="10.354216">
        <ele>555.751327</ele>
        <time>2020-09-10T11:12:06.658Z</time>
      </trkpt>
      <trkpt lat="48.255455" lon="10.354343">
        <ele>555.703640</ele>
        <time>2020-09-10T11:12:08.651Z</time>
      </trkpt>
      <trkpt lat="48.255365" lon="10.354457">
        <ele>555.661017</ele>
        <time>2020-09-10T11:12:10.652Z</time>
      </trkpt>
      <trkpt lat="48.255272" lon="10.354573">
        <ele>555.617252</ele>
        <time>2020-09-10T11:12:12.658Z</time>
      </trkpt>
      <trkpt lat="48.255172" lon="10.354669">
        <ele>555.574286</ele>
        <time>2020-09-10T11:12:14.658Z</time>
      </trkpt>
      <trkpt lat="48.255065" lon="10.354759">
        <ele>555.529888</ele>
        <time>2020-09-10T11:12:16.659Z</time>
      </trkpt>
      <trkpt lat="48.254979" lon="10.354870">
        <ele>555.488837</ele>
        <time>2020-09-10T11:12:18.664Z</time>
      </trkpt>
      <trkpt lat="48.254890" lon="10.354987">
        <ele>555.446018</ele>
        <time>2020-09-10T11:12:20.665Z</time>
      </trkpt>
      <trkpt lat="48.254802" lon="10.355097">
        <ele>555.404569</ele>
        <time>2020-09-10T11:12:22.666Z</time>
      </trkpt>
      <trkpt lat="48.254710" lon="10.355192">
        <ele>555.364150</ele>
        <time>2020-09-10T11:12:24.662Z</time>
      </trkpt>
      <trkpt lat="48.254623" lon="10.355249">
        <ele>555.329787</ele>
        <time>2020-09-10T11:12:26.661Z</time>
      </trkpt>
      <trkpt lat="48.254536" lon="10.355322">
        <ele>555.293709</ele>
        <time>2020-09-10T11:12:28.663Z</time>
      </trkpt>
      <trkpt lat="48.254434" lon="10.355403">
        <ele>555.251938</ele>
        <time>2020-09-10T11:12:30.663Z</time>
      </trkpt>
      <trkpt lat="48.254334" lon="10.355481">
        <ele>555.211145</ele>
        <time>2020-09-10T11:12:32.651Z</time>
      </trkpt>
      <trkpt lat="48.254246" lon="10.355535">
        <ele>555.176730</ele>
        <time>2020-09-10T11:12:34.664Z</time>
      </trkpt>
      <trkpt lat="48.254123" lon="10.355605">
        <ele>555.141420</ele>
        <time>2020-09-10T11:12:37.663Z</time>
      </trkpt>
      <trkpt lat="48.254032" lon="10.355644">
        <ele>555.246360</ele>
        <time>2020-09-10T11:12:39.657Z</time>
      </trkpt>
      <trkpt lat="48.253936" lon="10.355684">
        <ele>555.356838</ele>
        <time>2020-09-10T11:12:41.654Z</time>
      </trkpt>
      <trkpt lat="48.253844" lon="10.355712">
        <ele>555.460932</ele>
        <time>2020-09-10T11:12:43.654Z</time>
      </trkpt>
      <trkpt lat="48.253722" lon="10.355750">
        <ele>555.599099</ele>
        <time>2020-09-10T11:12:46.653Z</time>
      </trkpt>
      <trkpt lat="48.253621" lon="10.355778">
        <ele>555.712992</ele>
        <time>2020-09-10T11:12:49.662Z</time>
      </trkpt>
      <trkpt lat="48.253515" lon="10.355792">
        <ele>555.830992</ele>
        <time>2020-09-10T11:12:53.656Z</time>
      </trkpt>
      <trkpt lat="48.253419" lon="10.355818">
        <ele>555.939165</ele>
        <time>2020-09-10T11:12:58.660Z</time>
      </trkpt>
      <trkpt lat="48.253318" lon="10.355780">
        <ele>556.054627</ele>
        <time>2020-09-10T11:13:18.670Z</time>
      </trkpt>
      <trkpt lat="48.253228" lon="10.355767">
        <ele>556.154890</ele>
        <time>2020-09-10T11:13:22.664Z</time>
      </trkpt>
      <trkpt lat="48.253131" lon="10.355853">
        <ele>556.279800</ele>
        <time>2020-09-10T11:13:25.666Z</time>
      </trkpt>
      <trkpt lat="48.253020" lon="10.355908">
        <ele>556.409417</ele>
        <time>2020-09-10T11:13:28.658Z</time>
      </trkpt>
      <trkpt lat="48.252930" lon="10.355895">
        <ele>556.509680</ele>
        <time>2020-09-10T11:13:30.653Z</time>
      </trkpt>
      <trkpt lat="48.252835" lon="10.355927">
        <ele>556.617645</ele>
        <time>2020-09-10T11:13:32.651Z</time>
      </trkpt>
      <trkpt lat="48.252735" lon="10.355951">
        <ele>556.729944</ele>
        <time>2020-09-10T11:13:34.655Z</time>
      </trkpt>
      <trkpt lat="48.252635" lon="10.355976">
        <ele>556.842362</ele>
        <time>2020-09-10T11:13:36.668Z</time>
      </trkpt>
      <trkpt lat="48.252527" lon="10.356013">
        <ele>556.965202</ele>
        <time>2020-09-10T11:13:38.650Z</time>
      </trkpt>
      <trkpt lat="48.252416" lon="10.356047">
        <ele>557.090826</ele>
        <time>2020-09-10T11:13:40.661Z</time>
      </trkpt>
      <trkpt lat="48.252298" lon="10.356104">
        <ele>557.229050</ele>
        <time>2020-09-10T11:13:42.663Z</time>
      </trkpt>
      <trkpt lat="48.252177" lon="10.356165">
        <ele>557.371659</ele>
        <time>2020-09-10T11:13:44.664Z</time>
      </trkpt>
      <trkpt lat="48.252055" lon="10.356228">
        <ele>557.515804</ele>
        <time>2020-09-10T11:13:46.658Z</time>
      </trkpt>
      <trkpt lat="48.251940" lon="10.356303">
        <ele>557.655888</ele>
        <time>2020-09-10T11:13:48.666Z</time>
      </trkpt>
      <trkpt lat="48.251830" lon="10.356377">
        <ele>557.790560</ele>
        <time>2020-09-10T11:13:50.662Z</time>
      </trkpt>
      <trkpt lat="48.251724" lon="10.356454">
        <ele>557.922122</ele>
        <time>2020-09-10T11:13:52.661Z</time>
      </trkpt>
      <trkpt lat="48.251627" lon="10.356529">
        <ele>558.044022</ele>
        <time>2020-09-10T11:13:54.664Z</time>
      </trkpt>
      <trkpt lat="48.251528" lon="10.356607">
        <ele>558.168935</ele>
        <time>2020-09-10T11:13:56.664Z</time>
      </trkpt>
      <trkpt lat="48.251430" lon="10.356687">
        <ele>558.293562</ele>
        <time>2020-09-10T11:13:58.663Z</time>
      </trkpt>
      <trkpt lat="48.251324" lon="10.356769">
        <ele>558.426787</ele>
        <time>2020-09-10T11:14:00.664Z</time>
      </trkpt>
      <trkpt lat="48.251214" lon="10.356851">
        <ele>558.564000</ele>
        <time>2020-09-10T11:14:02.666Z</time>
      </trkpt>
      <trkpt lat="48.251105" lon="10.356941">
        <ele>558.702981</ele>
        <time>2020-09-10T11:14:04.653Z</time>
      </trkpt>
      <trkpt lat="48.250999" lon="10.357046">
        <ele>558.844859</ele>
        <time>2020-09-10T11:14:06.649Z</time>
      </trkpt>
      <trkpt lat="48.250885" lon="10.357137">
        <ele>558.989108</ele>
        <time>2020-09-10T11:14:08.650Z</time>
      </trkpt>
      <trkpt lat="48.250770" lon="10.357225">
        <ele>559.133318</ele>
        <time>2020-09-10T11:14:10.653Z</time>
      </trkpt>
      <trkpt lat="48.250647" lon="10.357317">
        <ele>559.151988</ele>
        <time>2020-09-10T11:14:12.649Z</time>
      </trkpt>
      <trkpt lat="48.250531" lon="10.357412">
        <ele>559.167329</ele>
        <time>2020-09-10T11:14:14.654Z</time>
      </trkpt>
      <trkpt lat="48.250415" lon="10.357498">
        <ele>559.182349</ele>
        <time>2020-09-10T11:14:16.657Z</time>
      </trkpt>
      <trkpt lat="48.250304" lon="10.357593">
        <ele>559.197183</ele>
        <time>2020-09-10T11:14:18.661Z</time>
      </trkpt>
      <trkpt lat="48.250188" lon="10.357684">
        <ele>559.212378</ele>
        <time>2020-09-10T11:14:20.657Z</time>
      </trkpt>
      <trkpt lat="48.250073" lon="10.357781">
        <ele>559.227692</ele>
        <time>2020-09-10T11:14:22.659Z</time>
      </trkpt>
      <trkpt lat="48.249963" lon="10.357871">
        <ele>559.242236</ele>
        <time>2020-09-10T11:14:24.658Z</time>
      </trkpt>
      <trkpt lat="48.249859" lon="10.357955">
        <ele>559.255947</ele>
        <time>2020-09-10T11:14:26.661Z</time>
      </trkpt>
      <trkpt lat="48.249762" lon="10.358039">
        <ele>559.268948</ele>
        <time>2020-09-10T11:14:28.657Z</time>
      </trkpt>
      <trkpt lat="48.249671" lon="10.358111">
        <ele>559.280890</ele>
        <time>2020-09-10T11:14:30.660Z</time>
      </trkpt>
      <trkpt lat="48.249569" lon="10.358177">
        <ele>559.293786</ele>
        <time>2020-09-10T11:14:32.660Z</time>
      </trkpt>
      <trkpt lat="48.249473" lon="10.358252">
        <ele>559.306350</ele>
        <time>2020-09-10T11:14:34.661Z</time>
      </trkpt>
      <trkpt lat="48.249378" lon="10.358317">
        <ele>559.318471</ele>
        <time>2020-09-10T11:14:36.663Z</time>
      </trkpt>
      <trkpt lat="48.249285" lon="10.358382">
        <ele>559.330381</ele>
        <time>2020-09-10T11:14:38.661Z</time>
      </trkpt>
      <trkpt lat="48.249195" lon="10.358438">
        <ele>559.341692</ele>
        <time>2020-09-10T11:14:40.662Z</time>
      </trkpt>
      <trkpt lat="48.249095" lon="10.358503">
        <ele>559.465423</ele>
        <time>2020-09-10T11:14:42.661Z</time>
      </trkpt>
      <trkpt lat="48.249004" lon="10.358570">
        <ele>559.619876</ele>
        <time>2020-09-10T11:14:44.664Z</time>
      </trkpt>
      <trkpt lat="48.248907" lon="10.358620">
        <ele>559.776169</ele>
        <time>2020-09-10T11:14:46.666Z</time>
      </trkpt>
      <trkpt lat="48.248816" lon="10.358676">
        <ele>559.926044</ele>
        <time>2020-09-10T11:14:48.663Z</time>
      </trkpt>
      <trkpt lat="48.248725" lon="10.358717">
        <ele>560.070834</ele>
        <time>2020-09-10T11:14:50.665Z</time>
      </trkpt>
      <trkpt lat="48.248630" lon="10.358753">
        <ele>560.220151</ele>
        <time>2020-09-10T11:14:52.641Z</time>
      </trkpt>
      <trkpt lat="48.248502" lon="10.358812">
        <ele>560.424203</ele>
        <time>2020-09-10T11:14:55.656Z</time>
      </trkpt>
      <trkpt lat="48.248413" lon="10.358854">
        <ele>560.566377</ele>
        <time>2020-09-10T11:14:57.654Z</time>
      </trkpt>
      <trkpt lat="48.248325" lon="10.358893">
        <ele>560.706206</ele>
        <time>2020-09-10T11:14:59.657Z</time>
      </trkpt>
      <trkpt lat="48.248205" lon="10.358943">
        <ele>560.895993</ele>
        <time>2020-09-10T11:15:02.651Z</time>
      </trkpt>
      <trkpt lat="48.248100" lon="10.358999">
        <ele>561.065804</ele>
        <time>2020-09-10T11:15:05.658Z</time>
      </trkpt>
      <trkpt lat="48.247987" lon="10.359059">
        <ele>561.248462</ele>
        <time>2020-09-10T11:15:08.660Z</time>
      </trkpt>
      <trkpt lat="48.247890" lon="10.359103">
        <ele>561.402885</ele>
        <time>2020-09-10T11:15:10.662Z</time>
      </trkpt>
      <trkpt lat="48.247795" lon="10.359177">
        <ele>561.565982</ele>
        <time>2020-09-10T11:15:12.661Z</time>
      </trkpt>
      <trkpt lat="48.247669" lon="10.359242">
        <ele>561.769019</ele>
        <time>2020-09-10T11:15:15.657Z</time>
      </trkpt>
      <trkpt lat="48.247546" lon="10.359296">
        <ele>561.964316</ele>
        <time>2020-09-10T11:15:18.660Z</time>
      </trkpt>
      <trkpt lat="48.247437" lon="10.359345">
        <ele>562.108435</ele>
        <time>2020-09-10T11:15:21.658Z</time>
      </trkpt>
      <trkpt lat="48.247344" lon="10.359390">
        <ele>562.172558</ele>
        <time>2020-09-10T11:15:24.661Z</time>
      </trkpt>
      <trkpt lat="48.247234" lon="10.359441">
        <ele>562.248110</ele>
        <time>2020-09-10T11:15:27.663Z</time>
      </trkpt>
      <trkpt lat="48.247150" lon="10.359491">
        <ele>562.307409</ele>
        <time>2020-09-10T11:15:29.662Z</time>
      </trkpt>
      <trkpt lat="48.247049" lon="10.359542">
        <ele>562.377340</ele>
        <time>2020-09-10T11:15:32.663Z</time>
      </trkpt>
      <trkpt lat="48.246952" lon="10.359597">
        <ele>562.445385</ele>
        <time>2020-09-10T11:15:35.659Z</time>
      </trkpt>
      <trkpt lat="48.246844" lon="10.359649">
        <ele>562.519816</ele>
        <time>2020-09-10T11:15:39.663Z</time>
      </trkpt>
      <trkpt lat="48.246730" lon="10.359708">
        <ele>562.598949</ele>
        <time>2020-09-10T11:15:43.653Z</time>
      </trkpt>
      <trkpt lat="48.246639" lon="10.359753">
        <ele>562.661824</ele>
        <time>2020-09-10T11:15:45.653Z</time>
      </trkpt>
      <trkpt lat="48.246534" lon="10.359798">
        <ele>562.733484</ele>
        <time>2020-09-10T11:15:47.653Z</time>
      </trkpt>
      <trkpt lat="48.246433" lon="10.359836">
        <ele>562.801816</ele>
        <time>2020-09-10T11:15:49.659Z</time>
      </trkpt>
      <trkpt lat="48.246344" lon="10.359875">
        <ele>562.862660</ele>
        <time>2020-09-10T11:15:51.655Z</time>
      </trkpt>
      <trkpt lat="48.246221" lon="10.359929">
        <ele>562.946761</ele>
        <time>2020-09-10T11:15:54.656Z</time>
      </trkpt>
      <trkpt lat="48.246125" lon="10.359969">
        <ele>563.012143</ele>
        <time>2020-09-10T11:15:58.650Z</time>
      </trkpt>
      <trkpt lat="48.245995" lon="10.360072">
        <ele>563.108605</ele>
        <time>2020-09-10T11:16:42.657Z</time>
      </trkpt>
      <trkpt lat="48.245881" lon="10.360162">
        <ele>563.193129</ele>
        <time>2020-09-10T11:16:45.658Z</time>
      </trkpt>
      <trkpt lat="48.245788" lon="10.360224">
        <ele>563.259907</ele>
        <time>2020-09-10T11:16:47.657Z</time>
      </trkpt>
      <trkpt lat="48.245684" lon="10.360289">
        <ele>563.077625</ele>
        <time>2020-09-10T11:16:49.656Z</time>
      </trkpt>
      <trkpt lat="48.245585" lon="10.360341">
        <ele>562.883826</ele>
        <time>2020-09-10T11:16:51.657Z</time>
      </trkpt>
      <trkpt lat="48.245474" lon="10.360401">
        <ele>562.665839</ele>
        <time>2020-09-10T11:16:53.661Z</time>
      </trkpt>
      <trkpt lat="48.245371" lon="10.360480">
        <ele>562.452128</ele>
        <time>2020-09-10T11:16:55.665Z</time>
      </trkpt>
      <trkpt lat="48.245264" lon="10.360562">
        <ele>562.230156</ele>
        <time>2020-09-10T11:16:57.658Z</time>
      </trkpt>
      <trkpt lat="48.245158" lon="10.360643">
        <ele>562.010389</ele>
        <time>2020-09-10T11:16:59.659Z</time>
      </trkpt>
      <trkpt lat="48.245058" lon="10.360737">
        <ele>561.792393</ele>
        <time>2020-09-10T11:17:01.662Z</time>
      </trkpt>
      <trkpt lat="48.244967" lon="10.360833">
        <ele>561.586897</ele>
        <time>2020-09-10T11:17:03.660Z</time>
      </trkpt>
      <trkpt lat="48.244872" lon="10.360945">
        <ele>561.363720</ele>
        <time>2020-09-10T11:17:05.663Z</time>
      </trkpt>
      <trkpt lat="48.244778" lon="10.361052">
        <ele>561.145764</ele>
        <time>2020-09-10T11:17:07.662Z</time>
      </trkpt>
      <trkpt lat="48.244699" lon="10.361180">
        <ele>560.931015</ele>
        <time>2020-09-10T11:17:09.660Z</time>
      </trkpt>
      <trkpt lat="48.244644" lon="10.361322">
        <ele>560.728874</ele>
        <time>2020-09-10T11:17:11.668Z</time>
      </trkpt>
      <trkpt lat="48.244613" lon="10.361486">
        <ele>560.519095</ele>
        <time>2020-09-10T11:17:13.667Z</time>
      </trkpt>
      <trkpt lat="48.244600" lon="10.361650">
        <ele>560.315863</ele>
        <time>2020-09-10T11:17:15.661Z</time>
      </trkpt>
      <trkpt lat="48.244567" lon="10.361780">
        <ele>560.144666</ele>
        <time>2020-09-10T11:17:17.663Z</time>
      </trkpt>
      <trkpt lat="48.244498" lon="10.361887">
        <ele>559.961385</ele>
        <time>2020-09-10T11:17:19.651Z</time>
      </trkpt>
      <trkpt lat="48.244429" lon="10.362036">
        <ele>560.103716</ele>
        <time>2020-09-10T11:17:22.671Z</time>
      </trkpt>
      <trkpt lat="48.244385" lon="10.362165">
        <ele>560.243293</ele>
        <time>2020-09-10T11:17:26.651Z</time>
      </trkpt>
      <trkpt lat="48.244329" lon="10.362291">
        <ele>560.389174</ele>
        <time>2020-09-10T11:17:30.652Z</time>
      </trkpt>
      <trkpt lat="48.244279" lon="10.362405">
        <ele>560.520630</ele>
        <time>2020-09-10T11:17:33.660Z</time>
      </trkpt>
      <trkpt lat="48.244223" lon="10.362552">
        <ele>560.683720</ele>
        <time>2020-09-10T11:17:37.663Z</time>
      </trkpt>
      <trkpt lat="48.244164" lon="10.362671">
        <ele>560.826593</ele>
        <time>2020-09-10T11:17:41.661Z</time>
      </trkpt>
      <trkpt lat="48.244094" lon="10.362759">
        <ele>560.958610</ele>
        <time>2020-09-10T11:17:46.659Z</time>
      </trkpt>
      <trkpt lat="48.243984" lon="10.362772">
        <ele>561.118171</ele>
        <time>2020-09-10T11:17:50.662Z</time>
      </trkpt>
      <trkpt lat="48.243867" lon="10.362800">
        <ele>561.289497</ele>
        <time>2020-09-10T11:17:54.650Z</time>
      </trkpt>
      <trkpt lat="48.243665" lon="10.362892">
        <ele>561.594746</ele>
        <time>2020-09-10T11:18:22.660Z</time>
      </trkpt>
      <trkpt lat="48.243545" lon="10.362881">
        <ele>561.768599</ele>
        <time>2020-09-10T11:18:25.662Z</time>
      </trkpt>
      <trkpt lat="48.243431" lon="10.362910">
        <ele>561.935801</ele>
        <time>2020-09-10T11:18:28.665Z</time>
      </trkpt>
      <trkpt lat="48.243329" lon="10.362932">
        <ele>562.084815</ele>
        <time>2020-09-10T11:18:31.663Z</time>
      </trkpt>
      <trkpt lat="48.243222" lon="10.362968">
        <ele>562.243382</ele>
        <time>2020-09-10T11:18:34.662Z</time>
      </trkpt>
      <trkpt lat="48.243143" lon="10.363041">
        <ele>562.377521</ele>
        <time>2020-09-10T11:18:38.659Z</time>
      </trkpt>
      <trkpt lat="48.243139" lon="10.363200">
        <ele>562.530755</ele>
        <time>2020-09-10T11:18:42.664Z</time>
      </trkpt>
      <trkpt lat="48.243164" lon="10.363346">
        <ele>562.568928</ele>
        <time>2020-09-10T11:18:46.659Z</time>
      </trkpt>
      <trkpt lat="48.243211" lon="10.363470">
        <ele>562.594747</ele>
        <time>2020-09-10T11:18:52.652Z</time>
      </trkpt>
      <trkpt lat="48.243308" lon="10.363458">
        <ele>562.621195</ele>
        <time>2020-09-10T11:18:56.652Z</time>
      </trkpt>
      <trkpt lat="48.243418" lon="10.363454">
        <ele>562.651094</ele>
        <time>2020-09-10T11:19:00.657Z</time>
      </trkpt>
      <trkpt lat="48.243509" lon="10.363427">
        <ele>562.676300</ele>
        <time>2020-09-10T11:19:11.659Z</time>
      </trkpt>
      <trkpt lat="48.243664" lon="10.363666">
        <ele>562.736670</ele>
        <time>2020-09-10T11:21:33.156Z</time>
      </trkpt>
      <trkpt lat="48.243712" lon="10.363543">
        <ele>562.762468</ele>
        <time>2020-09-10T12:50:17.635Z</time>
      </trkpt>
      <trkpt lat="48.243797" lon="10.363497">
        <ele>562.787020</ele>
        <time>2020-09-10T12:50:22.634Z</time>
      </trkpt>
      <trkpt lat="48.243910" lon="10.363484">
        <ele>562.817815</ele>
        <time>2020-09-10T12:50:27.641Z</time>
      </trkpt>
      <trkpt lat="48.244005" lon="10.363442">
        <ele>562.844725</ele>
        <time>2020-09-10T12:50:31.638Z</time>
      </trkpt>
      <trkpt lat="48.244100" lon="10.363384">
        <ele>562.872592</ele>
        <time>2020-09-10T12:50:35.644Z</time>
      </trkpt>
      <trkpt lat="48.244135" lon="10.363237">
        <ele>562.900843</ele>
        <time>2020-09-10T12:50:40.636Z</time>
      </trkpt>
      <trkpt lat="48.244133" lon="10.363069">
        <ele>562.931249</ele>
        <time>2020-09-10T12:50:45.631Z</time>
      </trkpt>
      <trkpt lat="48.244135" lon="10.362897">
        <ele>562.962379</ele>
        <time>2020-09-10T12:50:49.629Z</time>
      </trkpt>
      <trkpt lat="48.244145" lon="10.362755">
        <ele>562.988219</ele>
        <time>2020-09-10T12:50:52.629Z</time>
      </trkpt>
      <trkpt lat="48.244188" lon="10.362617">
        <ele>563.015790</ele>
        <time>2020-09-10T12:50:55.626Z</time>
      </trkpt>
      <trkpt lat="48.244254" lon="10.362458">
        <ele>562.857054</ele>
        <time>2020-09-10T12:50:59.639Z</time>
      </trkpt>
      <trkpt lat="48.244305" lon="10.362326">
        <ele>562.567599</ele>
        <time>2020-09-10T12:51:03.639Z</time>
      </trkpt>
      <trkpt lat="48.244356" lon="10.362198">
        <ele>562.284682</ele>
        <time>2020-09-10T12:51:08.639Z</time>
      </trkpt>
      <trkpt lat="48.244353" lon="10.362043">
        <ele>561.990563</ele>
        <time>2020-09-10T12:51:13.631Z</time>
      </trkpt>
      <trkpt lat="48.244270" lon="10.361950">
        <ele>561.695608</ele>
        <time>2020-09-10T12:51:17.641Z</time>
      </trkpt>
      <trkpt lat="48.244197" lon="10.361853">
        <ele>561.417978</ele>
        <time>2020-09-10T12:51:20.629Z</time>
      </trkpt>
      <trkpt lat="48.244085" lon="10.361791">
        <ele>561.077999</ele>
        <time>2020-09-10T12:51:24.628Z</time>
      </trkpt>
      <trkpt lat="48.243967" lon="10.361792">
        <ele>560.741913</ele>
        <time>2020-09-10T12:51:27.619Z</time>
      </trkpt>
      <trkpt lat="48.243849" lon="10.361770">
        <ele>560.403251</ele>
        <time>2020-09-10T12:51:30.637Z</time>
      </trkpt>
      <trkpt lat="48.243738" lon="10.361789">
        <ele>560.085060</ele>
        <time>2020-09-10T12:51:33.632Z</time>
      </trkpt>
      <trkpt lat="48.243615" lon="10.361800">
        <ele>559.734117</ele>
        <time>2020-09-10T12:51:36.635Z</time>
      </trkpt>
      <trkpt lat="48.243490" lon="10.361812">
        <ele>559.377372</ele>
        <time>2020-09-10T12:51:39.634Z</time>
      </trkpt>
      <trkpt lat="48.243390" lon="10.361844">
        <ele>559.086162</ele>
        <time>2020-09-10T12:51:42.638Z</time>
      </trkpt>
      <trkpt lat="48.243292" lon="10.361878">
        <ele>558.799691</ele>
        <time>2020-09-10T12:51:45.630Z</time>
      </trkpt>
      <trkpt lat="48.243184" lon="10.361897">
        <ele>558.489987</ele>
        <time>2020-09-10T12:51:48.611Z</time>
      </trkpt>
      <trkpt lat="48.243090" lon="10.361921">
        <ele>558.218419</ele>
        <time>2020-09-10T12:51:53.639Z</time>
      </trkpt>
      <trkpt lat="48.243015" lon="10.361832">
        <ele>557.946155</ele>
        <time>2020-09-10T12:52:05.628Z</time>
      </trkpt>
      <trkpt lat="48.242901" lon="10.361877">
        <ele>557.804340</ele>
        <time>2020-09-10T12:52:10.640Z</time>
      </trkpt>
      <trkpt lat="48.242790" lon="10.361872">
        <ele>557.692699</ele>
        <time>2020-09-10T12:52:13.630Z</time>
      </trkpt>
      <trkpt lat="48.242662" lon="10.361892">
        <ele>557.563323</ele>
        <time>2020-09-10T12:52:16.637Z</time>
      </trkpt>
      <trkpt lat="48.242569" lon="10.361905">
        <ele>557.469424</ele>
        <time>2020-09-10T12:52:18.619Z</time>
      </trkpt>
      <trkpt lat="48.242432" lon="10.361898">
        <ele>557.331616</ele>
        <time>2020-09-10T12:52:21.640Z</time>
      </trkpt>
      <trkpt lat="48.242361" lon="10.361811">
        <ele>557.239487</ele>
        <time>2020-09-10T12:52:23.636Z</time>
      </trkpt>
      <trkpt lat="48.242309" lon="10.361644">
        <ele>557.116059</ele>
        <time>2020-09-10T12:52:26.643Z</time>
      </trkpt>
      <trkpt lat="48.242275" lon="10.361464">
        <ele>556.990791</ele>
        <time>2020-09-10T12:52:29.635Z</time>
      </trkpt>
      <trkpt lat="48.242258" lon="10.361310">
        <ele>556.886277</ele>
        <time>2020-09-10T12:52:32.638Z</time>
      </trkpt>
      <trkpt lat="48.242240" lon="10.361139">
        <ele>556.770367</ele>
        <time>2020-09-10T12:52:36.638Z</time>
      </trkpt>
      <trkpt lat="48.242219" lon="10.360980">
        <ele>556.661840</ele>
        <time>2020-09-10T12:52:41.632Z</time>
      </trkpt>
      <trkpt lat="48.242216" lon="10.360831">
        <ele>556.562035</ele>
        <time>2020-09-10T12:52:47.611Z</time>
      </trkpt>
      <trkpt lat="48.242208" lon="10.360979">
        <ele>556.462619</ele>
        <time>2020-09-10T12:54:07.630Z</time>
      </trkpt>
      <trkpt lat="48.242210" lon="10.361116">
        <ele>556.370872</ele>
        <time>2020-09-10T12:54:10.640Z</time>
      </trkpt>
      <trkpt lat="48.242238" lon="10.361278">
        <ele>556.258816</ele>
        <time>2020-09-10T12:54:13.651Z</time>
      </trkpt>
      <trkpt lat="48.242272" lon="10.361417">
        <ele>556.159673</ele>
        <time>2020-09-10T12:54:15.640Z</time>
      </trkpt>
      <trkpt lat="48.242302" lon="10.361548">
        <ele>556.049734</ele>
        <time>2020-09-10T12:54:17.638Z</time>
      </trkpt>
      <trkpt lat="48.242343" lon="10.361727">
        <ele>555.860725</ele>
        <time>2020-09-10T12:54:20.644Z</time>
      </trkpt>
      <trkpt lat="48.242369" lon="10.361877">
        <ele>555.705959</ele>
        <time>2020-09-10T12:54:24.642Z</time>
      </trkpt>
      <trkpt lat="48.242292" lon="10.361951">
        <ele>555.568891</ele>
        <time>2020-09-10T12:54:28.611Z</time>
      </trkpt>
      <trkpt lat="48.242190" lon="10.361931">
        <ele>555.414664</ele>
        <time>2020-09-10T12:54:31.609Z</time>
      </trkpt>
      <trkpt lat="48.242076" lon="10.361839">
        <ele>555.220621</ele>
        <time>2020-09-10T12:54:34.619Z</time>
      </trkpt>
      <trkpt lat="48.241984" lon="10.361747">
        <ele>555.054894</ele>
        <time>2020-09-10T12:54:36.629Z</time>
      </trkpt>
      <trkpt lat="48.241898" lon="10.361685">
        <ele>554.911862</ele>
        <time>2020-09-10T12:54:38.635Z</time>
      </trkpt>
      <trkpt lat="48.241782" lon="10.361618">
        <ele>554.725519</ele>
        <time>2020-09-10T12:54:41.639Z</time>
      </trkpt>
      <trkpt lat="48.241663" lon="10.361599">
        <ele>554.546096</ele>
        <time>2020-09-10T12:54:44.620Z</time>
      </trkpt>
      <trkpt lat="48.241555" lon="10.361617">
        <ele>554.383176</ele>
        <time>2020-09-10T12:54:47.624Z</time>
      </trkpt>
      <trkpt lat="48.241448" lon="10.361648">
        <ele>554.219792</ele>
        <time>2020-09-10T12:54:50.633Z</time>
      </trkpt>
      <trkpt lat="48.241358" lon="10.361705">
        <ele>554.073342</ele>
        <time>2020-09-10T12:54:53.641Z</time>
      </trkpt>
      <trkpt lat="48.241276" lon="10.361793">
        <ele>553.922225</ele>
        <time>2020-09-10T12:54:57.651Z</time>
      </trkpt>
      <trkpt lat="48.241190" lon="10.361846">
        <ele>553.782847</ele>
        <time>2020-09-10T12:55:00.626Z</time>
      </trkpt>
      <trkpt lat="48.241102" lon="10.361809">
        <ele>553.645833</ele>
        <time>2020-09-10T12:55:03.631Z</time>
      </trkpt>
      <trkpt lat="48.240995" lon="10.361771">
        <ele>553.480981</ele>
        <time>2020-09-10T12:55:06.620Z</time>
      </trkpt>
      <trkpt lat="48.240888" lon="10.361750">
        <ele>553.417032</ele>
        <time>2020-09-10T12:55:09.638Z</time>
      </trkpt>
      <trkpt lat="48.240777" lon="10.361750">
        <ele>553.439940</ele>
        <time>2020-09-10T12:55:12.647Z</time>
      </trkpt>
      <trkpt lat="48.240661" lon="10.361800">
        <ele>553.464847</ele>
        <time>2020-09-10T12:55:16.620Z</time>
      </trkpt>
      <trkpt lat="48.240567" lon="10.361859">
        <ele>553.485873</ele>
        <time>2020-09-10T12:55:19.634Z</time>
      </trkpt>
      <trkpt lat="48.240470" lon="10.361922">
        <ele>553.507684</ele>
        <time>2020-09-10T12:55:22.629Z</time>
      </trkpt>
      <trkpt lat="48.240382" lon="10.361986">
        <ele>553.527864</ele>
        <time>2020-09-10T12:55:24.610Z</time>
      </trkpt>
      <trkpt lat="48.240270" lon="10.362015">
        <ele>553.551319</ele>
        <time>2020-09-10T12:55:26.637Z</time>
      </trkpt>
      <trkpt lat="48.240139" lon="10.361970">
        <ele>553.579053</ele>
        <time>2020-09-10T12:55:29.622Z</time>
      </trkpt>
      <trkpt lat="48.240051" lon="10.361920">
        <ele>553.598471</ele>
        <time>2020-09-10T12:55:31.622Z</time>
      </trkpt>
      <trkpt lat="48.239955" lon="10.361867">
        <ele>553.619580</ele>
        <time>2020-09-10T12:55:33.638Z</time>
      </trkpt>
      <trkpt lat="48.239860" lon="10.361750">
        <ele>553.644938</ele>
        <time>2020-09-10T12:55:35.622Z</time>
      </trkpt>
      <trkpt lat="48.239800" lon="10.361597">
        <ele>553.669342</ele>
        <time>2020-09-10T12:55:37.617Z</time>
      </trkpt>
      <trkpt lat="48.239727" lon="10.361457">
        <ele>553.693781</ele>
        <time>2020-09-10T12:55:40.648Z</time>
      </trkpt>
      <trkpt lat="48.239704" lon="10.361315">
        <ele>553.713868</ele>
        <time>2020-09-10T12:55:44.623Z</time>
      </trkpt>
      <trkpt lat="48.239724" lon="10.361179">
        <ele>553.733012</ele>
        <time>2020-09-10T12:55:49.647Z</time>
      </trkpt>
      <trkpt lat="48.239686" lon="10.361055">
        <ele>553.751773</ele>
        <time>2020-09-10T12:55:58.642Z</time>
      </trkpt>
      <trkpt lat="48.239575" lon="10.361070">
        <ele>553.774774</ele>
        <time>2020-09-10T12:56:01.644Z</time>
      </trkpt>
      <trkpt lat="48.239435" lon="10.361085">
        <ele>553.733382</ele>
        <time>2020-09-10T12:56:04.633Z</time>
      </trkpt>
      <trkpt lat="48.239337" lon="10.361151">
        <ele>553.698520</ele>
        <time>2020-09-10T12:56:06.623Z</time>
      </trkpt>
      <trkpt lat="48.239247" lon="10.361231">
        <ele>553.664572</ele>
        <time>2020-09-10T12:56:08.628Z</time>
      </trkpt>
      <trkpt lat="48.239143" lon="10.361286">
        <ele>553.628782</ele>
        <time>2020-09-10T12:56:10.640Z</time>
      </trkpt>
      <trkpt lat="48.239033" lon="10.361315">
        <ele>553.592531</ele>
        <time>2020-09-10T12:56:12.638Z</time>
      </trkpt>
      <trkpt lat="48.238930" lon="10.361325">
        <ele>553.559029</ele>
        <time>2020-09-10T12:56:14.640Z</time>
      </trkpt>
      <trkpt lat="48.238826" lon="10.361349">
        <ele>553.524876</ele>
        <time>2020-09-10T12:56:16.639Z</time>
      </trkpt>
      <trkpt lat="48.238704" lon="10.361373">
        <ele>553.484938</ele>
        <time>2020-09-10T12:56:18.649Z</time>
      </trkpt>
      <trkpt lat="48.238599" lon="10.361396">
        <ele>553.450496</ele>
        <time>2020-09-10T12:56:20.639Z</time>
      </trkpt>
      <trkpt lat="48.238495" lon="10.361487">
        <ele>553.411425</ele>
        <time>2020-09-10T12:56:22.619Z</time>
      </trkpt>
      <trkpt lat="48.238415" lon="10.361615">
        <ele>553.373478</ele>
        <time>2020-09-10T12:56:24.635Z</time>
      </trkpt>
      <trkpt lat="48.238342" lon="10.361740">
        <ele>553.337538</ele>
        <time>2020-09-10T12:56:26.640Z</time>
      </trkpt>
      <trkpt lat="48.238251" lon="10.361882">
        <ele>553.294937</ele>
        <time>2020-09-10T12:56:29.642Z</time>
      </trkpt>
      <trkpt lat="48.238170" lon="10.362019">
        <ele>553.255334</ele>
        <time>2020-09-10T12:56:32.642Z</time>
      </trkpt>
      <trkpt lat="48.238102" lon="10.362107">
        <ele>553.226195</ele>
        <time>2020-09-10T12:56:34.651Z</time>
      </trkpt>
      <trkpt lat="48.238012" lon="10.362175">
        <ele>553.193492</ele>
        <time>2020-09-10T12:56:36.639Z</time>
      </trkpt>
      <trkpt lat="48.237921" lon="10.362196">
        <ele>553.199256</ele>
        <time>2020-09-10T12:56:38.627Z</time>
      </trkpt>
      <trkpt lat="48.237815" lon="10.362255">
        <ele>553.207712</ele>
        <time>2020-09-10T12:56:40.634Z</time>
      </trkpt>
      <trkpt lat="48.237698" lon="10.362283">
        <ele>553.216573</ele>
        <time>2020-09-10T12:56:42.632Z</time>
      </trkpt>
      <trkpt lat="48.237586" lon="10.362305">
        <ele>553.225021</ele>
        <time>2020-09-10T12:56:44.640Z</time>
      </trkpt>
      <trkpt lat="48.237482" lon="10.362342">
        <ele>553.233015</ele>
        <time>2020-09-10T12:56:46.631Z</time>
      </trkpt>
      <trkpt lat="48.237382" lon="10.362385">
        <ele>553.240795</ele>
        <time>2020-09-10T12:56:48.630Z</time>
      </trkpt>
      <trkpt lat="48.237283" lon="10.362423">
        <ele>553.248437</ele>
        <time>2020-09-10T12:56:50.641Z</time>
      </trkpt>
      <trkpt lat="48.237150" lon="10.362466">
        <ele>553.258612</ele>
        <time>2020-09-10T12:56:53.641Z</time>
      </trkpt>
      <trkpt lat="48.237029" lon="10.362528">
        <ele>553.268175</ele>
        <time>2020-09-10T12:56:56.640Z</time>
      </trkpt>
      <trkpt lat="48.236914" lon="10.362589">
        <ele>553.277297</ele>
        <time>2020-09-10T12:56:59.637Z</time>
      </trkpt>
      <trkpt lat="48.236816" lon="10.362629">
        <ele>553.284892</ele>
        <time>2020-09-10T12:57:02.638Z</time>
      </trkpt>
      <trkpt lat="48.236723" lon="10.362685">
        <ele>553.292387</ele>
        <time>2020-09-10T12:57:05.634Z</time>
      </trkpt>
      <trkpt lat="48.236644" lon="10.362759">
        <ele>553.299351</ele>
        <time>2020-09-10T12:57:11.634Z</time>
      </trkpt>
      <trkpt lat="48.236650" lon="10.362895">
        <ele>553.306141</ele>
        <time>2020-09-10T12:57:15.610Z</time>
      </trkpt>
      <trkpt lat="48.236623" lon="10.363050">
        <ele>553.314122</ele>
        <time>2020-09-10T12:57:18.638Z</time>
      </trkpt>
      <trkpt lat="48.236566" lon="10.363162">
        <ele>553.321143</ele>
        <time>2020-09-10T12:57:20.630Z</time>
      </trkpt>
      <trkpt lat="48.236473" lon="10.363251">
        <ele>553.339632</ele>
        <time>2020-09-10T12:57:22.616Z</time>
      </trkpt>
      <trkpt lat="48.236360" lon="10.363309">
        <ele>553.388549</ele>
        <time>2020-09-10T12:57:24.623Z</time>
      </trkpt>
      <trkpt lat="48.236238" lon="10.363357">
        <ele>553.440209</ele>
        <time>2020-09-10T12:57:26.625Z</time>
      </trkpt>
      <trkpt lat="48.236106" lon="10.363385">
        <ele>553.494815</ele>
        <time>2020-09-10T12:57:28.638Z</time>
      </trkpt>
      <trkpt lat="48.235987" lon="10.363452">
        <ele>553.546874</ele>
        <time>2020-09-10T12:57:30.642Z</time>
      </trkpt>
      <trkpt lat="48.235877" lon="10.363537">
        <ele>553.597549</ele>
        <time>2020-09-10T12:57:32.639Z</time>
      </trkpt>
      <trkpt lat="48.235768" lon="10.363587">
        <ele>553.644234</ele>
        <time>2020-09-10T12:57:34.645Z</time>
      </trkpt>
      <trkpt lat="48.235667" lon="10.363644">
        <ele>553.688431</ele>
        <time>2020-09-10T12:57:36.635Z</time>
      </trkpt>
      <trkpt lat="48.235558" lon="10.363700">
        <ele>553.735621</ele>
        <time>2020-09-10T12:57:38.631Z</time>
      </trkpt>
      <trkpt lat="48.235460" lon="10.363797">
        <ele>553.783702</ele>
        <time>2020-09-10T12:57:40.611Z</time>
      </trkpt>
      <trkpt lat="48.235358" lon="10.363908">
        <ele>553.835304</ele>
        <time>2020-09-10T12:57:42.614Z</time>
      </trkpt>
      <trkpt lat="48.235247" lon="10.363992">
        <ele>553.886220</ele>
        <time>2020-09-10T12:57:44.619Z</time>
      </trkpt>
      <trkpt lat="48.235147" lon="10.364060">
        <ele>553.931187</ele>
        <time>2020-09-10T12:57:46.621Z</time>
      </trkpt>
      <trkpt lat="48.235051" lon="10.364083">
        <ele>553.971007</ele>
        <time>2020-09-10T12:57:48.629Z</time>
      </trkpt>
      <trkpt lat="48.234960" lon="10.364090">
        <ele>554.008331</ele>
        <time>2020-09-10T12:57:50.626Z</time>
      </trkpt>
      <trkpt lat="48.234869" lon="10.364116">
        <ele>554.046275</ele>
        <time>2020-09-10T12:57:52.642Z</time>
      </trkpt>
      <trkpt lat="48.234773" lon="10.364191">
        <ele>554.185934</ele>
        <time>2020-09-10T12:57:54.627Z</time>
      </trkpt>
      <trkpt lat="48.234672" lon="10.364263">
        <ele>554.394939</ele>
        <time>2020-09-10T12:57:56.612Z</time>
      </trkpt>
      <trkpt lat="48.234576" lon="10.364343">
        <ele>554.600185</ele>
        <time>2020-09-10T12:57:58.631Z</time>
      </trkpt>
      <trkpt lat="48.234487" lon="10.364429">
        <ele>554.798037</ele>
        <time>2020-09-10T12:58:00.627Z</time>
      </trkpt>
      <trkpt lat="48.234396" lon="10.364507">
        <ele>554.993917</ele>
        <time>2020-09-10T12:58:02.630Z</time>
      </trkpt>
      <trkpt lat="48.234272" lon="10.364516">
        <ele>555.225984</ele>
        <time>2020-09-10T12:58:05.624Z</time>
      </trkpt>
      <trkpt lat="48.234176" lon="10.364431">
        <ele>555.434323</ele>
        <time>2020-09-10T12:58:07.620Z</time>
      </trkpt>
      <trkpt lat="48.234081" lon="10.364466">
        <ele>555.617178</ele>
        <time>2020-09-10T12:58:09.622Z</time>
      </trkpt>
      <trkpt lat="48.234024" lon="10.364579">
        <ele>555.793671</ele>
        <time>2020-09-10T12:58:11.615Z</time>
      </trkpt>
      <trkpt lat="48.233953" lon="10.364737">
        <ele>556.030986</ele>
        <time>2020-09-10T12:58:14.619Z</time>
      </trkpt>
      <trkpt lat="48.233901" lon="10.364857">
        <ele>556.209239</ele>
        <time>2020-09-10T12:58:16.637Z</time>
      </trkpt>
      <trkpt lat="48.233845" lon="10.364971">
        <ele>556.385611</ele>
        <time>2020-09-10T12:58:18.656Z</time>
      </trkpt>
      <trkpt lat="48.233776" lon="10.365081">
        <ele>556.573750</ele>
        <time>2020-09-10T12:58:20.628Z</time>
      </trkpt>
      <trkpt lat="48.233689" lon="10.365176">
        <ele>556.774850</ele>
        <time>2020-09-10T12:58:22.624Z</time>
      </trkpt>
      <trkpt lat="48.233608" lon="10.365250">
        <ele>556.952097</ele>
        <time>2020-09-10T12:58:24.612Z</time>
      </trkpt>
      <trkpt lat="48.233518" lon="10.365310">
        <ele>557.136178</ele>
        <time>2020-09-10T12:58:26.613Z</time>
      </trkpt>
      <trkpt lat="48.233421" lon="10.365365">
        <ele>557.330003</ele>
        <time>2020-09-10T12:58:28.621Z</time>
      </trkpt>
      <trkpt lat="48.233326" lon="10.365422">
        <ele>557.539103</ele>
        <time>2020-09-10T12:58:30.647Z</time>
      </trkpt>
      <trkpt lat="48.233235" lon="10.365478">
        <ele>557.757449</ele>
        <time>2020-09-10T12:58:32.637Z</time>
      </trkpt>
      <trkpt lat="48.233141" lon="10.365530">
        <ele>557.979859</ele>
        <time>2020-09-10T12:58:34.624Z</time>
      </trkpt>
      <trkpt lat="48.233039" lon="10.365558">
        <ele>558.210067</ele>
        <time>2020-09-10T12:58:36.644Z</time>
      </trkpt>
      <trkpt lat="48.232935" lon="10.365567">
        <ele>558.441344</ele>
        <time>2020-09-10T12:58:38.630Z</time>
      </trkpt>
      <trkpt lat="48.232823" lon="10.365578">
        <ele>558.690530</ele>
        <time>2020-09-10T12:58:40.635Z</time>
      </trkpt>
      <trkpt lat="48.232720" lon="10.365587">
        <ele>558.919591</ele>
        <time>2020-09-10T12:58:42.633Z</time>
      </trkpt>
      <trkpt lat="48.232622" lon="10.365596">
        <ele>559.137570</ele>
        <time>2020-09-10T12:58:44.632Z</time>
      </trkpt>
      <trkpt lat="48.232524" lon="10.365608">
        <ele>559.355866</ele>
        <time>2020-09-10T12:58:46.629Z</time>
      </trkpt>
      <trkpt lat="48.232430" lon="10.365626">
        <ele>559.566249</ele>
        <time>2020-09-10T12:58:48.632Z</time>
      </trkpt>
      <trkpt lat="48.232323" lon="10.365632">
        <ele>559.803969</ele>
        <time>2020-09-10T12:58:50.631Z</time>
      </trkpt>
      <trkpt lat="48.232220" lon="10.365639">
        <ele>560.032877</ele>
        <time>2020-09-10T12:58:52.629Z</time>
      </trkpt>
      <trkpt lat="48.232122" lon="10.365648">
        <ele>560.250856</ele>
        <time>2020-09-10T12:58:54.635Z</time>
      </trkpt>
      <trkpt lat="48.232027" lon="10.365666">
        <ele>560.463442</ele>
        <time>2020-09-10T12:58:56.637Z</time>
      </trkpt>
      <trkpt lat="48.231929" lon="10.365677">
        <ele>560.681622</ele>
        <time>2020-09-10T12:58:58.639Z</time>
      </trkpt>
      <trkpt lat="48.231828" lon="10.365670">
        <ele>560.906094</ele>
        <time>2020-09-10T12:59:00.641Z</time>
      </trkpt>
      <trkpt lat="48.231719" lon="10.365660">
        <ele>561.148540</ele>
        <time>2020-09-10T12:59:02.630Z</time>
      </trkpt>
      <trkpt lat="48.231606" lon="10.365639">
        <ele>561.401330</ele>
        <time>2020-09-10T12:59:04.640Z</time>
      </trkpt>
      <trkpt lat="48.231499" lon="10.365623">
        <ele>561.625109</ele>
        <time>2020-09-10T12:59:06.638Z</time>
      </trkpt>
      <trkpt lat="48.231398" lon="10.365608">
        <ele>561.835175</ele>
        <time>2020-09-10T12:59:08.655Z</time>
      </trkpt>
      <trkpt lat="48.231298" lon="10.365586">
        <ele>562.044362</ele>
        <time>2020-09-10T12:59:10.636Z</time>
      </trkpt>
      <trkpt lat="48.231201" lon="10.365570">
        <ele>562.246338</ele>
        <time>2020-09-10T12:59:12.639Z</time>
      </trkpt>
      <trkpt lat="48.231104" lon="10.365565">
        <ele>562.447223</ele>
        <time>2020-09-10T12:59:14.638Z</time>
      </trkpt>
      <trkpt lat="48.231009" lon="10.365556">
        <ele>562.644241</ele>
        <time>2020-09-10T12:59:16.631Z</time>
      </trkpt>
      <trkpt lat="48.230883" lon="10.365536">
        <ele>562.906485</ele>
        <time>2020-09-10T12:59:19.632Z</time>
      </trkpt>
      <trkpt lat="48.230773" lon="10.365505">
        <ele>563.138136</ele>
        <time>2020-09-10T12:59:22.636Z</time>
      </trkpt>
      <trkpt lat="48.230684" lon="10.365589">
        <ele>563.355727</ele>
        <time>2020-09-10T12:59:26.634Z</time>
      </trkpt>
      <trkpt lat="48.230688" lon="10.365762">
        <ele>563.594392</ele>
        <time>2020-09-10T12:59:29.622Z</time>
      </trkpt>
      <trkpt lat="48.230706" lon="10.365929">
        <ele>563.827636</ele>
        <time>2020-09-10T12:59:32.642Z</time>
      </trkpt>
      <trkpt lat="48.230715" lon="10.366103">
        <ele>564.068258</ele>
        <time>2020-09-10T12:59:35.670Z</time>
      </trkpt>
      <trkpt lat="48.230716" lon="10.366265">
        <ele>564.291623</ele>
        <time>2020-09-10T12:59:38.638Z</time>
      </trkpt>
      <trkpt lat="48.230718" lon="10.366417">
        <ele>564.501232</ele>
        <time>2020-09-10T12:59:41.637Z</time>
      </trkpt>
      <trkpt lat="48.230705" lon="10.366572">
        <ele>564.716623</ele>
        <time>2020-09-10T12:59:44.611Z</time>
      </trkpt>
      <trkpt lat="48.230618" lon="10.366640">
        <ele>564.919637</ele>
        <time>2020-09-10T12:59:47.642Z</time>
      </trkpt>
      <trkpt lat="48.230514" lon="10.366664">
        <ele>565.137421</ele>
        <time>2020-09-10T12:59:50.630Z</time>
      </trkpt>
      <trkpt lat="48.230411" lon="10.366689">
        <ele>565.138459</ele>
        <time>2020-09-10T12:59:53.642Z</time>
      </trkpt>
      <trkpt lat="48.230284" lon="10.366716">
        <ele>565.133901</ele>
        <time>2020-09-10T12:59:56.630Z</time>
      </trkpt>
      <trkpt lat="48.230151" lon="10.366760">
        <ele>565.129063</ele>
        <time>2020-09-10T12:59:59.631Z</time>
      </trkpt>
      <trkpt lat="48.230058" lon="10.366784">
        <ele>565.125710</ele>
        <time>2020-09-10T13:00:01.633Z</time>
      </trkpt>
      <trkpt lat="48.229962" lon="10.366812">
        <ele>565.122235</ele>
        <time>2020-09-10T13:00:03.636Z</time>
      </trkpt>
      <trkpt lat="48.229865" lon="10.366840">
        <ele>565.118726</ele>
        <time>2020-09-10T13:00:05.634Z</time>
      </trkpt>
      <trkpt lat="48.229767" lon="10.366870">
        <ele>565.115173</ele>
        <time>2020-09-10T13:00:07.634Z</time>
      </trkpt>
      <trkpt lat="48.229667" lon="10.366897">
        <ele>565.111563</ele>
        <time>2020-09-10T13:00:09.634Z</time>
      </trkpt>
      <trkpt lat="48.229565" lon="10.366924">
        <ele>565.107883</ele>
        <time>2020-09-10T13:00:11.636Z</time>
      </trkpt>
      <trkpt lat="48.229466" lon="10.366953">
        <ele>565.104299</ele>
        <time>2020-09-10T13:00:13.633Z</time>
      </trkpt>
      <trkpt lat="48.229366" lon="10.366979">
        <ele>565.100693</ele>
        <time>2020-09-10T13:00:15.636Z</time>
      </trkpt>
      <trkpt lat="48.229271" lon="10.367018">
        <ele>565.097194</ele>
        <time>2020-09-10T13:00:17.640Z</time>
      </trkpt>
      <trkpt lat="48.229236" lon="10.367204">
        <ele>565.092619</ele>
        <time>2020-09-10T13:00:20.628Z</time>
      </trkpt>
      <trkpt lat="48.229244" lon="10.367345">
        <ele>565.089270</ele>
        <time>2020-09-10T13:00:22.641Z</time>
      </trkpt>
      <trkpt lat="48.229256" lon="10.367492">
        <ele>565.085765</ele>
        <time>2020-09-10T13:00:24.655Z</time>
      </trkpt>
      <trkpt lat="48.229266" lon="10.367646">
        <ele>565.082103</ele>
        <time>2020-09-10T13:00:26.623Z</time>
      </trkpt>
      <trkpt lat="48.229279" lon="10.367800">
        <ele>565.078429</ele>
        <time>2020-09-10T13:00:28.639Z</time>
      </trkpt>
      <trkpt lat="48.229287" lon="10.367955">
        <ele>565.070218</ele>
        <time>2020-09-10T13:00:30.632Z</time>
      </trkpt>
      <trkpt lat="48.229295" lon="10.368118">
        <ele>565.061243</ele>
        <time>2020-09-10T13:00:32.629Z</time>
      </trkpt>
      <trkpt lat="48.229303" lon="10.368285">
        <ele>565.052048</ele>
        <time>2020-09-10T13:00:34.629Z</time>
      </trkpt>
      <trkpt lat="48.229311" lon="10.368459">
        <ele>565.042470</ele>
        <time>2020-09-10T13:00:36.634Z</time>
      </trkpt>
      <trkpt lat="48.229316" lon="10.368630">
        <ele>565.033071</ele>
        <time>2020-09-10T13:00:38.633Z</time>
      </trkpt>
      <trkpt lat="48.229330" lon="10.368808">
        <ele>565.023228</ele>
        <time>2020-09-10T13:00:40.629Z</time>
      </trkpt>
      <trkpt lat="48.229342" lon="10.368991">
        <ele>565.013130</ele>
        <time>2020-09-10T13:00:42.630Z</time>
      </trkpt>
      <trkpt lat="48.229349" lon="10.369164">
        <ele>565.003612</ele>
        <time>2020-09-10T13:00:44.637Z</time>
      </trkpt>
      <trkpt lat="48.229362" lon="10.369348">
        <ele>564.993451</ele>
        <time>2020-09-10T13:00:46.633Z</time>
      </trkpt>
      <trkpt lat="48.229373" lon="10.369522">
        <ele>564.983853</ele>
        <time>2020-09-10T13:00:48.631Z</time>
      </trkpt>
      <trkpt lat="48.229371" lon="10.369685">
        <ele>564.974900</ele>
        <time>2020-09-10T13:00:50.635Z</time>
      </trkpt>
      <trkpt lat="48.229327" lon="10.369805">
        <ele>564.967378</ele>
        <time>2020-09-10T13:00:52.630Z</time>
      </trkpt>
      <trkpt lat="48.229239" lon="10.369898">
        <ele>564.958506</ele>
        <time>2020-09-10T13:00:54.627Z</time>
      </trkpt>
      <trkpt lat="48.229147" lon="10.369998">
        <ele>564.949143</ele>
        <time>2020-09-10T13:00:56.627Z</time>
      </trkpt>
      <trkpt lat="48.229050" lon="10.370087">
        <ele>564.939771</ele>
        <time>2020-09-10T13:00:58.631Z</time>
      </trkpt>
      <trkpt lat="48.228954" lon="10.370179">
        <ele>564.930382</ele>
        <time>2020-09-10T13:01:00.635Z</time>
      </trkpt>
      <trkpt lat="48.228863" lon="10.370269">
        <ele>564.898076</ele>
        <time>2020-09-10T13:01:02.642Z</time>
      </trkpt>
      <trkpt lat="48.228779" lon="10.370356">
        <ele>564.866605</ele>
        <time>2020-09-10T13:01:04.625Z</time>
      </trkpt>
      <trkpt lat="48.228684" lon="10.370434">
        <ele>564.833212</ele>
        <time>2020-09-10T13:01:06.642Z</time>
      </trkpt>
      <trkpt lat="48.228590" lon="10.370526">
        <ele>564.798607</ele>
        <time>2020-09-10T13:01:08.628Z</time>
      </trkpt>
      <trkpt lat="48.228499" lon="10.370614">
        <ele>564.765225</ele>
        <time>2020-09-10T13:01:10.629Z</time>
      </trkpt>
      <trkpt lat="48.228412" lon="10.370704">
        <ele>564.732642</ele>
        <time>2020-09-10T13:01:12.630Z</time>
      </trkpt>
      <trkpt lat="48.228325" lon="10.370787">
        <ele>564.700852</ele>
        <time>2020-09-10T13:01:14.631Z</time>
      </trkpt>
      <trkpt lat="48.228236" lon="10.370866">
        <ele>564.668967</ele>
        <time>2020-09-10T13:01:16.631Z</time>
      </trkpt>
      <trkpt lat="48.228142" lon="10.370947">
        <ele>564.635542</ele>
        <time>2020-09-10T13:01:18.650Z</time>
      </trkpt>
      <trkpt lat="48.228042" lon="10.371032">
        <ele>564.600103</ele>
        <time>2020-09-10T13:01:20.631Z</time>
      </trkpt>
      <trkpt lat="48.227944" lon="10.371119">
        <ele>564.564992</ele>
        <time>2020-09-10T13:01:22.637Z</time>
      </trkpt>
      <trkpt lat="48.227843" lon="10.371205">
        <ele>564.529183</ele>
        <time>2020-09-10T13:01:24.640Z</time>
      </trkpt>
      <trkpt lat="48.227735" lon="10.371278">
        <ele>564.492657</ele>
        <time>2020-09-10T13:01:26.635Z</time>
      </trkpt>
      <trkpt lat="48.227634" lon="10.371359">
        <ele>564.457343</ele>
        <time>2020-09-10T13:01:28.635Z</time>
      </trkpt>
      <trkpt lat="48.227531" lon="10.371435">
        <ele>564.421950</ele>
        <time>2020-09-10T13:01:30.636Z</time>
      </trkpt>
      <trkpt lat="48.227435" lon="10.371509">
        <ele>564.388670</ele>
        <time>2020-09-10T13:01:32.637Z</time>
      </trkpt>
      <trkpt lat="48.227340" lon="10.371585">
        <ele>564.395232</ele>
        <time>2020-09-10T13:01:34.630Z</time>
      </trkpt>
      <trkpt lat="48.227231" lon="10.371646">
        <ele>564.431540</ele>
        <time>2020-09-10T13:01:36.636Z</time>
      </trkpt>
      <trkpt lat="48.227108" lon="10.371711">
        <ele>564.472239</ele>
        <time>2020-09-10T13:01:38.640Z</time>
      </trkpt>
      <trkpt lat="48.226988" lon="10.371780">
        <ele>564.512346</ele>
        <time>2020-09-10T13:01:40.642Z</time>
      </trkpt>
      <trkpt lat="48.226865" lon="10.371847">
        <ele>564.553186</ele>
        <time>2020-09-10T13:01:42.625Z</time>
      </trkpt>
      <trkpt lat="48.226741" lon="10.371916">
        <ele>564.594461</ele>
        <time>2020-09-10T13:01:44.627Z</time>
      </trkpt>
      <trkpt lat="48.226616" lon="10.371986">
        <ele>564.636101</ele>
        <time>2020-09-10T13:01:46.624Z</time>
      </trkpt>
      <trkpt lat="48.226489" lon="10.372053">
        <ele>564.678116</ele>
        <time>2020-09-10T13:01:48.629Z</time>
      </trkpt>
      <trkpt lat="48.226357" lon="10.372110">
        <ele>564.720986</ele>
        <time>2020-09-10T13:01:50.634Z</time>
      </trkpt>
      <trkpt lat="48.226226" lon="10.372168">
        <ele>564.763614</ele>
        <time>2020-09-10T13:01:52.631Z</time>
      </trkpt>
      <trkpt lat="48.226095" lon="10.372222">
        <ele>564.806015</ele>
        <time>2020-09-10T13:01:54.634Z</time>
      </trkpt>
      <trkpt lat="48.225962" lon="10.372274">
        <ele>564.848910</ele>
        <time>2020-09-10T13:01:56.643Z</time>
      </trkpt>
      <trkpt lat="48.225830" lon="10.372320">
        <ele>564.891205</ele>
        <time>2020-09-10T13:01:58.635Z</time>
      </trkpt>
      <trkpt lat="48.225701" lon="10.372376">
        <ele>564.933117</ele>
        <time>2020-09-10T13:02:00.634Z</time>
      </trkpt>
      <trkpt lat="48.225570" lon="10.372424">
        <ele>564.963736</ele>
        <time>2020-09-10T13:02:02.641Z</time>
      </trkpt>
      <trkpt lat="48.225436" lon="10.372469">
        <ele>564.993858</ele>
        <time>2020-09-10T13:02:04.632Z</time>
      </trkpt>
      <trkpt lat="48.225297" lon="10.372521">
        <ele>565.025283</ele>
        <time>2020-09-10T13:02:06.636Z</time>
      </trkpt>
      <trkpt lat="48.225161" lon="10.372577">
        <ele>565.056220</ele>
        <time>2020-09-10T13:02:08.642Z</time>
      </trkpt>
      <trkpt lat="48.225023" lon="10.372623">
        <ele>565.087230</ele>
        <time>2020-09-10T13:02:10.638Z</time>
      </trkpt>
      <trkpt lat="48.224893" lon="10.372662">
        <ele>565.116312</ele>
        <time>2020-09-10T13:02:12.645Z</time>
      </trkpt>
      <trkpt lat="48.224766" lon="10.372705">
        <ele>565.144871</ele>
        <time>2020-09-10T13:02:14.634Z</time>
      </trkpt>
      <trkpt lat="48.224636" lon="10.372746">
        <ele>565.174012</ele>
        <time>2020-09-10T13:02:16.626Z</time>
      </trkpt>
      <trkpt lat="48.224516" lon="10.372787">
        <ele>565.201009</ele>
        <time>2020-09-10T13:02:18.652Z</time>
      </trkpt>
      <trkpt lat="48.224392" lon="10.372833">
        <ele>565.229030</ele>
        <time>2020-09-10T13:02:20.627Z</time>
      </trkpt>
      <trkpt lat="48.224269" lon="10.372883">
        <ele>565.256984</ele>
        <time>2020-09-10T13:02:22.632Z</time>
      </trkpt>
      <trkpt lat="48.224143" lon="10.372929">
        <ele>565.285430</ele>
        <time>2020-09-10T13:02:24.635Z</time>
      </trkpt>
      <trkpt lat="48.224021" lon="10.372964">
        <ele>565.312677</ele>
        <time>2020-09-10T13:02:26.633Z</time>
      </trkpt>
      <trkpt lat="48.223893" lon="10.372982">
        <ele>565.220042</ele>
        <time>2020-09-10T13:02:28.646Z</time>
      </trkpt>
      <trkpt lat="48.223771" lon="10.372971">
        <ele>564.912975</ele>
        <time>2020-09-10T13:02:30.616Z</time>
      </trkpt>
      <trkpt lat="48.223668" lon="10.372966">
        <ele>564.654061</ele>
        <time>2020-09-10T13:02:32.632Z</time>
      </trkpt>
      <trkpt lat="48.223563" lon="10.372970">
        <ele>564.390172</ele>
        <time>2020-09-10T13:02:35.633Z</time>
      </trkpt>
      <trkpt lat="48.223486" lon="10.373089">
        <ele>564.112502</ele>
        <time>2020-09-10T13:02:38.623Z</time>
      </trkpt>
      <trkpt lat="48.223506" lon="10.373283">
        <ele>563.783912</ele>
        <time>2020-09-10T13:02:41.620Z</time>
      </trkpt>
      <trkpt lat="48.223560" lon="10.373468">
        <ele>563.445835</ele>
        <time>2020-09-10T13:02:44.615Z</time>
      </trkpt>
      <trkpt lat="48.223588" lon="10.373603">
        <ele>563.209171</ele>
        <time>2020-09-10T13:02:46.639Z</time>
      </trkpt>
      <trkpt lat="48.223574" lon="10.373752">
        <ele>562.957301</ele>
        <time>2020-09-10T13:02:48.630Z</time>
      </trkpt>
      <trkpt lat="48.223474" lon="10.373824">
        <ele>562.678649</ele>
        <time>2020-09-10T13:02:50.615Z</time>
      </trkpt>
      <trkpt lat="48.223371" lon="10.373848">
        <ele>562.416771</ele>
        <time>2020-09-10T13:02:52.622Z</time>
      </trkpt>
      <trkpt lat="48.223261" lon="10.373914">
        <ele>562.119143</ele>
        <time>2020-09-10T13:02:54.640Z</time>
      </trkpt>
      <trkpt lat="48.223158" lon="10.374019">
        <ele>561.806323</ele>
        <time>2020-09-10T13:02:56.647Z</time>
      </trkpt>
      <trkpt lat="48.223055" lon="10.374105">
        <ele>561.510201</ele>
        <time>2020-09-10T13:02:58.633Z</time>
      </trkpt>
      <trkpt lat="48.222961" lon="10.374177">
        <ele>561.245060</ele>
        <time>2020-09-10T13:03:00.621Z</time>
      </trkpt>
      <trkpt lat="48.222862" lon="10.374235">
        <ele>560.978056</ele>
        <time>2020-09-10T13:03:02.606Z</time>
      </trkpt>
      <trkpt lat="48.222761" lon="10.374294">
        <ele>560.821048</ele>
        <time>2020-09-10T13:03:04.634Z</time>
      </trkpt>
      <trkpt lat="48.222659" lon="10.374346">
        <ele>560.843453</ele>
        <time>2020-09-10T13:03:06.631Z</time>
      </trkpt>
      <trkpt lat="48.222553" lon="10.374397">
        <ele>560.866604</ele>
        <time>2020-09-10T13:03:08.633Z</time>
      </trkpt>
      <trkpt lat="48.222447" lon="10.374459">
        <ele>560.890265</ele>
        <time>2020-09-10T13:03:10.629Z</time>
      </trkpt>
      <trkpt lat="48.222337" lon="10.374511">
        <ele>560.914251</ele>
        <time>2020-09-10T13:03:12.639Z</time>
      </trkpt>
      <trkpt lat="48.222231" lon="10.374572">
        <ele>560.937862</ele>
        <time>2020-09-10T13:03:14.636Z</time>
      </trkpt>
      <trkpt lat="48.222137" lon="10.374611">
        <ele>560.958145</ele>
        <time>2020-09-10T13:03:16.630Z</time>
      </trkpt>
      <trkpt lat="48.222040" lon="10.374653">
        <ele>560.979142</ele>
        <time>2020-09-10T13:03:18.657Z</time>
      </trkpt>
      <trkpt lat="48.221940" lon="10.374703">
        <ele>561.001064</ele>
        <time>2020-09-10T13:03:20.634Z</time>
      </trkpt>
      <trkpt lat="48.221839" lon="10.374753">
        <ele>561.023184</ele>
        <time>2020-09-10T13:03:22.634Z</time>
      </trkpt>
      <trkpt lat="48.221743" lon="10.374792">
        <ele>561.043868</ele>
        <time>2020-09-10T13:03:24.637Z</time>
      </trkpt>
      <trkpt lat="48.221649" lon="10.374846">
        <ele>561.064802</ele>
        <time>2020-09-10T13:03:26.636Z</time>
      </trkpt>
      <trkpt lat="48.221554" lon="10.374882">
        <ele>561.085180</ele>
        <time>2020-09-10T13:03:28.641Z</time>
      </trkpt>
      <trkpt lat="48.221457" lon="10.374906">
        <ele>561.105627</ele>
        <time>2020-09-10T13:03:30.637Z</time>
      </trkpt>
      <trkpt lat="48.221361" lon="10.374916">
        <ele>561.125641</ele>
        <time>2020-09-10T13:03:32.621Z</time>
      </trkpt>
      <trkpt lat="48.221268" lon="10.374925">
        <ele>561.145024</ele>
        <time>2020-09-10T13:03:34.628Z</time>
      </trkpt>
      <trkpt lat="48.221167" lon="10.374940">
        <ele>561.166133</ele>
        <time>2020-09-10T13:03:36.640Z</time>
      </trkpt>
      <trkpt lat="48.221061" lon="10.374957">
        <ele>561.204476</ele>
        <time>2020-09-10T13:03:38.623Z</time>
      </trkpt>
      <trkpt lat="48.220977" lon="10.375018">
        <ele>561.382142</ele>
        <time>2020-09-10T13:03:40.628Z</time>
      </trkpt>
      <trkpt lat="48.220882" lon="10.375094">
        <ele>561.587104</ele>
        <time>2020-09-10T13:03:42.662Z</time>
      </trkpt>
      <trkpt lat="48.220791" lon="10.375183">
        <ele>561.793898</ele>
        <time>2020-09-10T13:03:44.625Z</time>
      </trkpt>
      <trkpt lat="48.220698" lon="10.375287">
        <ele>562.014707</ele>
        <time>2020-09-10T13:03:46.626Z</time>
      </trkpt>
      <trkpt lat="48.220590" lon="10.375392">
        <ele>562.259700</ele>
        <time>2020-09-10T13:03:48.628Z</time>
      </trkpt>
      <trkpt lat="48.220492" lon="10.375506">
        <ele>562.495765</ele>
        <time>2020-09-10T13:03:50.624Z</time>
      </trkpt>
      <trkpt lat="48.220393" lon="10.375614">
        <ele>562.728782</ele>
        <time>2020-09-10T13:03:52.624Z</time>
      </trkpt>
      <trkpt lat="48.220303" lon="10.375724">
        <ele>562.949763</ele>
        <time>2020-09-10T13:03:54.632Z</time>
      </trkpt>
      <trkpt lat="48.220222" lon="10.375804">
        <ele>563.134376</ele>
        <time>2020-09-10T13:03:56.632Z</time>
      </trkpt>
      <trkpt lat="48.220116" lon="10.375885">
        <ele>563.360843</ele>
        <time>2020-09-10T13:03:59.642Z</time>
      </trkpt>
      <trkpt lat="48.220001" lon="10.375870">
        <ele>563.580620</ele>
        <time>2020-09-10T13:04:02.611Z</time>
      </trkpt>
      <trkpt lat="48.219923" lon="10.375770">
        <ele>563.775930</ele>
        <time>2020-09-10T13:04:05.628Z</time>
      </trkpt>
      <trkpt lat="48.219852" lon="10.375635">
        <ele>563.994106</ele>
        <time>2020-09-10T13:04:08.626Z</time>
      </trkpt>
      <trkpt lat="48.219781" lon="10.375483">
        <ele>564.229588</ele>
        <time>2020-09-10T13:04:11.626Z</time>
      </trkpt>
      <trkpt lat="48.219726" lon="10.375344">
        <ele>564.434665</ele>
        <time>2020-09-10T13:04:14.638Z</time>
      </trkpt>
      <trkpt lat="48.219644" lon="10.375238">
        <ele>564.599011</ele>
        <time>2020-09-10T13:04:18.655Z</time>
      </trkpt>
      <trkpt lat="48.219533" lon="10.375336">
        <ele>564.502316</ele>
        <time>2020-09-10T13:04:21.633Z</time>
      </trkpt>
      <trkpt lat="48.219452" lon="10.375404">
        <ele>564.432629</ele>
        <time>2020-09-10T13:04:23.642Z</time>
      </trkpt>
      <trkpt lat="48.219352" lon="10.375455">
        <ele>564.353327</ele>
        <time>2020-09-10T13:04:25.630Z</time>
      </trkpt>
      <trkpt lat="48.219244" lon="10.375516">
        <ele>564.266683</ele>
        <time>2020-09-10T13:04:27.630Z</time>
      </trkpt>
      <trkpt lat="48.219135" lon="10.375575">
        <ele>564.179680</ele>
        <time>2020-09-10T13:04:29.643Z</time>
      </trkpt>
      <trkpt lat="48.219024" lon="10.375637">
        <ele>564.090751</ele>
        <time>2020-09-10T13:04:31.640Z</time>
      </trkpt>
      <trkpt lat="48.218922" lon="10.375698">
        <ele>564.008308</ele>
        <time>2020-09-10T13:04:33.637Z</time>
      </trkpt>
      <trkpt lat="48.218828" lon="10.375756">
        <ele>563.931996</ele>
        <time>2020-09-10T13:04:35.622Z</time>
      </trkpt>
      <trkpt lat="48.218743" lon="10.375808">
        <ele>563.863075</ele>
        <time>2020-09-10T13:04:37.639Z</time>
      </trkpt>
      <trkpt lat="48.218655" lon="10.375852">
        <ele>563.793430</ele>
        <time>2020-09-10T13:04:39.623Z</time>
      </trkpt>
      <trkpt lat="48.218556" lon="10.375905">
        <ele>563.714508</ele>
        <time>2020-09-10T13:04:41.628Z</time>
      </trkpt>
      <trkpt lat="48.218450" lon="10.375982">
        <ele>563.626085</ele>
        <time>2020-09-10T13:04:43.621Z</time>
      </trkpt>
      <trkpt lat="48.218340" lon="10.376057">
        <ele>563.535368</ele>
        <time>2020-09-10T13:04:45.629Z</time>
      </trkpt>
      <trkpt lat="48.218229" lon="10.376124">
        <ele>563.445536</ele>
        <time>2020-09-10T13:04:47.620Z</time>
      </trkpt>
      <trkpt lat="48.218117" lon="10.376197">
        <ele>563.353852</ele>
        <time>2020-09-10T13:04:49.628Z</time>
      </trkpt>
      <trkpt lat="48.218011" lon="10.376256">
        <ele>563.268965</ele>
        <time>2020-09-10T13:04:51.627Z</time>
      </trkpt>
      <trkpt lat="48.217900" lon="10.376324">
        <ele>563.244810</ele>
        <time>2020-09-10T13:04:53.630Z</time>
      </trkpt>
      <trkpt lat="48.217783" lon="10.376386">
        <ele>563.227081</ele>
        <time>2020-09-10T13:04:55.636Z</time>
      </trkpt>
      <trkpt lat="48.217659" lon="10.376457">
        <ele>563.208118</ele>
        <time>2020-09-10T13:04:57.629Z</time>
      </trkpt>
      <trkpt lat="48.217537" lon="10.376540">
        <ele>563.188979</ele>
        <time>2020-09-10T13:04:59.605Z</time>
      </trkpt>
      <trkpt lat="48.217415" lon="10.376618">
        <ele>563.170031</ele>
        <time>2020-09-10T13:05:01.600Z</time>
      </trkpt>
      <trkpt lat="48.217296" lon="10.376690">
        <ele>563.151698</ele>
        <time>2020-09-10T13:05:03.638Z</time>
      </trkpt>
      <trkpt lat="48.217181" lon="10.376759">
        <ele>563.134002</ele>
        <time>2020-09-10T13:05:05.631Z</time>
      </trkpt>
      <trkpt lat="48.217076" lon="10.376835">
        <ele>563.117346</ele>
        <time>2020-09-10T13:05:07.629Z</time>
      </trkpt>
      <trkpt lat="48.216978" lon="10.376900">
        <ele>563.102037</ele>
        <time>2020-09-10T13:05:09.633Z</time>
      </trkpt>
      <trkpt lat="48.216878" lon="10.376962">
        <ele>563.086577</ele>
        <time>2020-09-10T13:05:11.628Z</time>
      </trkpt>
      <trkpt lat="48.216768" lon="10.377014">
        <ele>563.070099</ele>
        <time>2020-09-10T13:05:13.634Z</time>
      </trkpt>
      <trkpt lat="48.216656" lon="10.377076">
        <ele>563.053042</ele>
        <time>2020-09-10T13:05:15.635Z</time>
      </trkpt>
      <trkpt lat="48.216534" lon="10.377140">
        <ele>563.034576</ele>
        <time>2020-09-10T13:05:17.642Z</time>
      </trkpt>
      <trkpt lat="48.216415" lon="10.377209">
        <ele>563.016348</ele>
        <time>2020-09-10T13:05:19.620Z</time>
      </trkpt>
      <trkpt lat="48.216296" lon="10.377285">
        <ele>563.043887</ele>
        <time>2020-09-10T13:05:21.615Z</time>
      </trkpt>
      <trkpt lat="48.216177" lon="10.377358">
        <ele>563.181362</ele>
        <time>2020-09-10T13:05:23.631Z</time>
      </trkpt>
      <trkpt lat="48.216058" lon="10.377431">
        <ele>563.318837</ele>
        <time>2020-09-10T13:05:25.624Z</time>
      </trkpt>
      <trkpt lat="48.215934" lon="10.377509">
        <ele>563.462615</ele>
        <time>2020-09-10T13:05:27.619Z</time>
      </trkpt>
      <trkpt lat="48.215818" lon="10.377587">
        <ele>563.598543</ele>
        <time>2020-09-10T13:05:29.621Z</time>
      </trkpt>
      <trkpt lat="48.215705" lon="10.377658">
        <ele>563.729545</ele>
        <time>2020-09-10T13:05:31.631Z</time>
      </trkpt>
      <trkpt lat="48.215589" lon="10.377726">
        <ele>563.862719</ele>
        <time>2020-09-10T13:05:33.632Z</time>
      </trkpt>
      <trkpt lat="48.215472" lon="10.377794">
        <ele>563.996889</ele>
        <time>2020-09-10T13:05:35.630Z</time>
      </trkpt>
      <trkpt lat="48.215354" lon="10.377865">
        <ele>564.132838</ele>
        <time>2020-09-10T13:05:37.629Z</time>
      </trkpt>
      <trkpt lat="48.215230" lon="10.377933">
        <ele>564.274015</ele>
        <time>2020-09-10T13:05:39.633Z</time>
      </trkpt>
      <trkpt lat="48.215114" lon="10.378008">
        <ele>564.409084</ele>
        <time>2020-09-10T13:05:41.628Z</time>
      </trkpt>
      <trkpt lat="48.214993" lon="10.378078">
        <ele>564.547758</ele>
        <time>2020-09-10T13:05:43.629Z</time>
      </trkpt>
      <trkpt lat="48.214876" lon="10.378149">
        <ele>564.682716</ele>
        <time>2020-09-10T13:05:45.632Z</time>
      </trkpt>
      <trkpt lat="48.214760" lon="10.378222">
        <ele>564.817227</ele>
        <time>2020-09-10T13:05:47.636Z</time>
      </trkpt>
      <trkpt lat="48.214648" lon="10.378292">
        <ele>564.950937</ele>
        <time>2020-09-10T13:05:49.630Z</time>
      </trkpt>
      <trkpt lat="48.214534" lon="10.378363">
        <ele>565.108780</ele>
        <time>2020-09-10T13:05:51.635Z</time>
      </trkpt>
      <trkpt lat="48.214420" lon="10.378431">
        <ele>565.265661</ele>
        <time>2020-09-10T13:05:53.635Z</time>
      </trkpt>
      <trkpt lat="48.214311" lon="10.378505">
        <ele>565.418654</ele>
        <time>2020-09-10T13:05:55.633Z</time>
      </trkpt>
      <trkpt lat="48.214205" lon="10.378580">
        <ele>565.568522</ele>
        <time>2020-09-10T13:05:57.638Z</time>
      </trkpt>
      <trkpt lat="48.214098" lon="10.378645">
        <ele>565.716143</ele>
        <time>2020-09-10T13:05:59.623Z</time>
      </trkpt>
      <trkpt lat="48.213985" lon="10.378715">
        <ele>565.872479</ele>
        <time>2020-09-10T13:06:01.626Z</time>
      </trkpt>
      <trkpt lat="48.213872" lon="10.378787">
        <ele>566.029473</ele>
        <time>2020-09-10T13:06:03.623Z</time>
      </trkpt>
      <trkpt lat="48.213765" lon="10.378861">
        <ele>566.180139</ele>
        <time>2020-09-10T13:06:05.622Z</time>
      </trkpt>
      <trkpt lat="48.213657" lon="10.378925">
        <ele>566.328631</ele>
        <time>2020-09-10T13:06:07.624Z</time>
      </trkpt>
      <trkpt lat="48.213557" lon="10.378993">
        <ele>566.469031</ele>
        <time>2020-09-10T13:06:09.623Z</time>
      </trkpt>
      <trkpt lat="48.213448" lon="10.379068">
        <ele>566.622378</ele>
        <time>2020-09-10T13:06:11.628Z</time>
      </trkpt>
      <trkpt lat="48.213341" lon="10.379128">
        <ele>566.768454</ele>
        <time>2020-09-10T13:06:13.623Z</time>
      </trkpt>
      <trkpt lat="48.213236" lon="10.379185">
        <ele>566.911247</ele>
        <time>2020-09-10T13:06:15.630Z</time>
      </trkpt>
      <trkpt lat="48.213128" lon="10.379253">
        <ele>567.061025</ele>
        <time>2020-09-10T13:06:17.632Z</time>
      </trkpt>
      <trkpt lat="48.213020" lon="10.379311">
        <ele>567.207716</ele>
        <time>2020-09-10T13:06:19.634Z</time>
      </trkpt>
      <trkpt lat="48.212906" lon="10.379370">
        <ele>567.337522</ele>
        <time>2020-09-10T13:06:21.635Z</time>
      </trkpt>
      <trkpt lat="48.212789" lon="10.379440">
        <ele>567.469488</ele>
        <time>2020-09-10T13:06:23.634Z</time>
      </trkpt>
      <trkpt lat="48.212675" lon="10.379524">
        <ele>567.602549</ele>
        <time>2020-09-10T13:06:25.628Z</time>
      </trkpt>
      <trkpt lat="48.212566" lon="10.379593">
        <ele>567.726495</ele>
        <time>2020-09-10T13:06:27.630Z</time>
      </trkpt>
      <trkpt lat="48.212457" lon="10.379653">
        <ele>567.848137</ele>
        <time>2020-09-10T13:06:29.634Z</time>
      </trkpt>
      <trkpt lat="48.212352" lon="10.379715">
        <ele>567.966357</ele>
        <time>2020-09-10T13:06:31.631Z</time>
      </trkpt>
      <trkpt lat="48.212249" lon="10.379778">
        <ele>568.082892</ele>
        <time>2020-09-10T13:06:33.633Z</time>
      </trkpt>
      <trkpt lat="48.212154" lon="10.379835">
        <ele>568.190086</ele>
        <time>2020-09-10T13:06:35.623Z</time>
      </trkpt>
      <trkpt lat="48.212056" lon="10.379888">
        <ele>568.299227</ele>
        <time>2020-09-10T13:06:37.635Z</time>
      </trkpt>
      <trkpt lat="48.211955" lon="10.379955">
        <ele>568.414924</ele>
        <time>2020-09-10T13:06:39.623Z</time>
      </trkpt>
      <trkpt lat="48.211851" lon="10.380030">
        <ele>568.535816</ele>
        <time>2020-09-10T13:06:41.623Z</time>
      </trkpt>
      <trkpt lat="48.211746" lon="10.380088">
        <ele>568.653043</ele>
        <time>2020-09-10T13:06:43.624Z</time>
      </trkpt>
      <trkpt lat="48.211646" lon="10.380148">
        <ele>568.765879</ele>
        <time>2020-09-10T13:06:45.620Z</time>
      </trkpt>
      <trkpt lat="48.211545" lon="10.380209">
        <ele>568.879947</ele>
        <time>2020-09-10T13:06:47.626Z</time>
      </trkpt>
      <trkpt lat="48.211452" lon="10.380266">
        <ele>568.985199</ele>
        <time>2020-09-10T13:06:49.630Z</time>
      </trkpt>
      <trkpt lat="48.211358" lon="10.380317">
        <ele>569.089924</ele>
        <time>2020-09-10T13:06:51.629Z</time>
      </trkpt>
      <trkpt lat="48.211257" lon="10.380375">
        <ele>569.197302</ele>
        <time>2020-09-10T13:06:53.632Z</time>
      </trkpt>
      <trkpt lat="48.211155" lon="10.380430">
        <ele>569.303536</ele>
        <time>2020-09-10T13:06:55.633Z</time>
      </trkpt>
      <trkpt lat="48.211047" lon="10.380496">
        <ele>569.417835</ele>
        <time>2020-09-10T13:06:57.638Z</time>
      </trkpt>
      <trkpt lat="48.210945" lon="10.380567">
        <ele>569.528043</ele>
        <time>2020-09-10T13:06:59.635Z</time>
      </trkpt>
      <trkpt lat="48.210844" lon="10.380640">
        <ele>569.637924</ele>
        <time>2020-09-10T13:07:01.633Z</time>
      </trkpt>
      <trkpt lat="48.210744" lon="10.380704">
        <ele>569.744482</ele>
        <time>2020-09-10T13:07:03.633Z</time>
      </trkpt>
      <trkpt lat="48.210644" lon="10.380771">
        <ele>569.851824</ele>
        <time>2020-09-10T13:07:05.631Z</time>
      </trkpt>
      <trkpt lat="48.210538" lon="10.380839">
        <ele>569.964816</ele>
        <time>2020-09-10T13:07:07.632Z</time>
      </trkpt>
      <trkpt lat="48.210430" lon="10.380896">
        <ele>570.077030</ele>
        <time>2020-09-10T13:07:09.631Z</time>
      </trkpt>
      <trkpt lat="48.210314" lon="10.380966">
        <ele>570.199577</ele>
        <time>2020-09-10T13:07:11.634Z</time>
      </trkpt>
      <trkpt lat="48.210204" lon="10.381036">
        <ele>570.316689</ele>
        <time>2020-09-10T13:07:13.636Z</time>
      </trkpt>
      <trkpt lat="48.210102" lon="10.381104">
        <ele>570.426087</ele>
        <time>2020-09-10T13:07:15.635Z</time>
      </trkpt>
      <trkpt lat="48.209995" lon="10.381168">
        <ele>570.538989</ele>
        <time>2020-09-10T13:07:17.622Z</time>
      </trkpt>
      <trkpt lat="48.209890" lon="10.381233">
        <ele>570.650319</ele>
        <time>2020-09-10T13:07:19.627Z</time>
      </trkpt>
      <trkpt lat="48.209782" lon="10.381301">
        <ele>570.765117</ele>
        <time>2020-09-10T13:07:21.628Z</time>
      </trkpt>
      <trkpt lat="48.209683" lon="10.381367">
        <ele>570.871298</ele>
        <time>2020-09-10T13:07:23.633Z</time>
      </trkpt>
      <trkpt lat="48.209579" lon="10.381420">
        <ele>570.885569</ele>
        <time>2020-09-10T13:07:25.630Z</time>
      </trkpt>
      <trkpt lat="48.209472" lon="10.381489">
        <ele>570.897860</ele>
        <time>2020-09-10T13:07:27.626Z</time>
      </trkpt>
      <trkpt lat="48.209355" lon="10.381559">
        <ele>570.911153</ele>
        <time>2020-09-10T13:07:29.633Z</time>
      </trkpt>
      <trkpt lat="48.209249" lon="10.381633">
        <ele>570.923492</ele>
        <time>2020-09-10T13:07:31.634Z</time>
      </trkpt>
      <trkpt lat="48.209146" lon="10.381700">
        <ele>570.935339</ele>
        <time>2020-09-10T13:07:33.627Z</time>
      </trkpt>
      <trkpt lat="48.209040" lon="10.381758">
        <ele>570.947247</ele>
        <time>2020-09-10T13:07:35.626Z</time>
      </trkpt>
      <trkpt lat="48.208934" lon="10.381822">
        <ele>570.959305</ele>
        <time>2020-09-10T13:07:37.630Z</time>
      </trkpt>
      <trkpt lat="48.208833" lon="10.381883">
        <ele>570.970796</ele>
        <time>2020-09-10T13:07:39.615Z</time>
      </trkpt>
      <trkpt lat="48.208740" lon="10.381932">
        <ele>570.981198</ele>
        <time>2020-09-10T13:07:41.606Z</time>
      </trkpt>
      <trkpt lat="48.208640" lon="10.381989">
        <ele>570.992487</ele>
        <time>2020-09-10T13:07:43.629Z</time>
      </trkpt>
      <trkpt lat="48.208537" lon="10.382044">
        <ele>571.004026</ele>
        <time>2020-09-10T13:07:45.634Z</time>
      </trkpt>
      <trkpt lat="48.208423" lon="10.382106">
        <ele>571.016823</ele>
        <time>2020-09-10T13:07:47.636Z</time>
      </trkpt>
      <trkpt lat="48.208307" lon="10.382163">
        <ele>571.029705</ele>
        <time>2020-09-10T13:07:49.632Z</time>
      </trkpt>
      <trkpt lat="48.208194" lon="10.382213">
        <ele>571.042138</ele>
        <time>2020-09-10T13:07:51.634Z</time>
      </trkpt>
      <trkpt lat="48.208082" lon="10.382264">
        <ele>571.054490</ele>
        <time>2020-09-10T13:07:53.644Z</time>
      </trkpt>
      <trkpt lat="48.207988" lon="10.382320">
        <ele>571.072565</ele>
        <time>2020-09-10T13:07:55.623Z</time>
      </trkpt>
      <trkpt lat="48.207885" lon="10.382377">
        <ele>571.166629</ele>
        <time>2020-09-10T13:07:57.627Z</time>
      </trkpt>
      <trkpt lat="48.207779" lon="10.382434">
        <ele>571.263109</ele>
        <time>2020-09-10T13:07:59.624Z</time>
      </trkpt>
      <trkpt lat="48.207666" lon="10.382488">
        <ele>571.364723</ele>
        <time>2020-09-10T13:08:01.625Z</time>
      </trkpt>
      <trkpt lat="48.207546" lon="10.382547">
        <ele>571.472922</ele>
        <time>2020-09-10T13:08:03.632Z</time>
      </trkpt>
      <trkpt lat="48.207425" lon="10.382601">
        <ele>571.581087</ele>
        <time>2020-09-10T13:08:05.636Z</time>
      </trkpt>
      <trkpt lat="48.207306" lon="10.382643">
        <ele>571.685833</ele>
        <time>2020-09-10T13:08:07.625Z</time>
      </trkpt>
      <trkpt lat="48.207189" lon="10.382695">
        <ele>571.790387</ele>
        <time>2020-09-10T13:08:09.632Z</time>
      </trkpt>
      <trkpt lat="48.207071" lon="10.382747">
        <ele>571.895764</ele>
        <time>2020-09-10T13:08:11.632Z</time>
      </trkpt>
      <trkpt lat="48.206960" lon="10.382793">
        <ele>571.994433</ele>
        <time>2020-09-10T13:08:13.633Z</time>
      </trkpt>
      <trkpt lat="48.206847" lon="10.382838">
        <ele>572.094607</ele>
        <time>2020-09-10T13:08:15.630Z</time>
      </trkpt>
      <trkpt lat="48.206737" lon="10.382882">
        <ele>572.192150</ele>
        <time>2020-09-10T13:08:17.637Z</time>
      </trkpt>
      <trkpt lat="48.206632" lon="10.382917">
        <ele>572.284310</ele>
        <time>2020-09-10T13:08:19.633Z</time>
      </trkpt>
      <trkpt lat="48.206524" lon="10.382953">
        <ele>572.379104</ele>
        <time>2020-09-10T13:08:21.643Z</time>
      </trkpt>
      <trkpt lat="48.206422" lon="10.382985">
        <ele>572.468391</ele>
        <time>2020-09-10T13:08:23.593Z</time>
      </trkpt>
      <trkpt lat="48.206317" lon="10.383011">
        <ele>572.559575</ele>
        <time>2020-09-10T13:08:25.607Z</time>
      </trkpt>
      <trkpt lat="48.206208" lon="10.383039">
        <ele>572.606977</ele>
        <time>2020-09-10T13:08:27.633Z</time>
      </trkpt>
      <trkpt lat="48.206103" lon="10.383069">
        <ele>572.610178</ele>
        <time>2020-09-10T13:08:29.635Z</time>
      </trkpt>
      <trkpt lat="48.205994" lon="10.383100">
        <ele>572.613501</ele>
        <time>2020-09-10T13:08:31.619Z</time>
      </trkpt>
      <trkpt lat="48.205880" lon="10.383132">
        <ele>572.616974</ele>
        <time>2020-09-10T13:08:33.624Z</time>
      </trkpt>
      <trkpt lat="48.205768" lon="10.383164">
        <ele>572.620389</ele>
        <time>2020-09-10T13:08:35.630Z</time>
      </trkpt>
      <trkpt lat="48.205659" lon="10.383202">
        <ele>572.623740</ele>
        <time>2020-09-10T13:08:37.622Z</time>
      </trkpt>
      <trkpt lat="48.205546" lon="10.383253">
        <ele>572.627275</ele>
        <time>2020-09-10T13:08:39.622Z</time>
      </trkpt>
      <trkpt lat="48.205426" lon="10.383298">
        <ele>572.630979</ele>
        <time>2020-09-10T13:08:41.636Z</time>
      </trkpt>
      <trkpt lat="48.205293" lon="10.383343">
        <ele>572.635063</ele>
        <time>2020-09-10T13:08:43.669Z</time>
      </trkpt>
      <trkpt lat="48.205165" lon="10.383382">
        <ele>572.638974</ele>
        <time>2020-09-10T13:08:45.633Z</time>
      </trkpt>
      <trkpt lat="48.205049" lon="10.383428">
        <ele>572.642568</ele>
        <time>2020-09-10T13:08:47.625Z</time>
      </trkpt>
      <trkpt lat="48.204936" lon="10.383469">
        <ele>572.646050</ele>
        <time>2020-09-10T13:08:49.627Z</time>
      </trkpt>
      <trkpt lat="48.204813" lon="10.383509">
        <ele>572.649819</ele>
        <time>2020-09-10T13:08:51.636Z</time>
      </trkpt>
      <trkpt lat="48.204687" lon="10.383547">
        <ele>572.653669</ele>
        <time>2020-09-10T13:08:53.624Z</time>
      </trkpt>
      <trkpt lat="48.204557" lon="10.383584">
        <ele>572.657632</ele>
        <time>2020-09-10T13:08:55.627Z</time>
      </trkpt>
      <trkpt lat="48.204425" lon="10.383620">
        <ele>572.684070</ele>
        <time>2020-09-10T13:08:57.630Z</time>
      </trkpt>
      <trkpt lat="48.204292" lon="10.383646">
        <ele>572.723849</ele>
        <time>2020-09-10T13:08:59.652Z</time>
      </trkpt>
      <trkpt lat="48.204157" lon="10.383671">
        <ele>572.764192</ele>
        <time>2020-09-10T13:09:01.632Z</time>
      </trkpt>
      <trkpt lat="48.204025" lon="10.383693">
        <ele>572.803582</ele>
        <time>2020-09-10T13:09:03.632Z</time>
      </trkpt>
      <trkpt lat="48.203896" lon="10.383709">
        <ele>572.841972</ele>
        <time>2020-09-10T13:09:05.633Z</time>
      </trkpt>
      <trkpt lat="48.203767" lon="10.383723">
        <ele>572.880332</ele>
        <time>2020-09-10T13:09:07.633Z</time>
      </trkpt>
      <trkpt lat="48.203643" lon="10.383738">
        <ele>572.917228</ele>
        <time>2020-09-10T13:09:09.635Z</time>
      </trkpt>
      <trkpt lat="48.203531" lon="10.383744">
        <ele>572.950467</ele>
        <time>2020-09-10T13:09:11.634Z</time>
      </trkpt>
      <trkpt lat="48.203422" lon="10.383747">
        <ele>572.982800</ele>
        <time>2020-09-10T13:09:13.634Z</time>
      </trkpt>
      <trkpt lat="48.203310" lon="10.383759">
        <ele>573.016103</ele>
        <time>2020-09-10T13:09:15.625Z</time>
      </trkpt>
      <trkpt lat="48.203195" lon="10.383759">
        <ele>573.050210</ele>
        <time>2020-09-10T13:09:17.627Z</time>
      </trkpt>
      <trkpt lat="48.203072" lon="10.383762">
        <ele>573.086695</ele>
        <time>2020-09-10T13:09:19.626Z</time>
      </trkpt>
      <trkpt lat="48.202945" lon="10.383757">
        <ele>573.124375</ele>
        <time>2020-09-10T13:09:21.624Z</time>
      </trkpt>
      <trkpt lat="48.202821" lon="10.383742">
        <ele>573.161271</ele>
        <time>2020-09-10T13:09:23.631Z</time>
      </trkpt>
      <trkpt lat="48.202693" lon="10.383723">
        <ele>573.184276</ele>
        <time>2020-09-10T13:09:25.633Z</time>
      </trkpt>
      <trkpt lat="48.202571" lon="10.383688">
        <ele>573.139489</ele>
        <time>2020-09-10T13:09:27.626Z</time>
      </trkpt>
      <trkpt lat="48.202456" lon="10.383660">
        <ele>573.097480</ele>
        <time>2020-09-10T13:09:29.630Z</time>
      </trkpt>
      <trkpt lat="48.202345" lon="10.383638">
        <ele>573.057108</ele>
        <time>2020-09-10T13:09:31.633Z</time>
      </trkpt>
      <trkpt lat="48.202233" lon="10.383620">
        <ele>573.016492</ele>
        <time>2020-09-10T13:09:33.626Z</time>
      </trkpt>
      <trkpt lat="48.202140" lon="10.383690">
        <ele>572.978975</ele>
        <time>2020-09-10T13:09:35.614Z</time>
      </trkpt>
      <trkpt lat="48.202105" lon="10.383827">
        <ele>572.943715</ele>
        <time>2020-09-10T13:09:37.631Z</time>
      </trkpt>
      <trkpt lat="48.202065" lon="10.383960">
        <ele>572.908648</ele>
        <time>2020-09-10T13:09:39.626Z</time>
      </trkpt>
      <trkpt lat="48.202026" lon="10.384122">
        <ele>572.867253</ele>
        <time>2020-09-10T13:09:41.634Z</time>
      </trkpt>
      <trkpt lat="48.201954" lon="10.384268">
        <ele>572.823605</ele>
        <time>2020-09-10T13:09:43.636Z</time>
      </trkpt>
      <trkpt lat="48.201834" lon="10.384319">
        <ele>572.778633</ele>
        <time>2020-09-10T13:09:45.624Z</time>
      </trkpt>
      <trkpt lat="48.201704" lon="10.384369">
        <ele>572.730242</ele>
        <time>2020-09-10T13:09:47.636Z</time>
      </trkpt>
      <trkpt lat="48.201582" lon="10.384394">
        <ele>572.685843</ele>
        <time>2020-09-10T13:09:49.639Z</time>
      </trkpt>
      <trkpt lat="48.201455" lon="10.384411">
        <ele>572.639868</ele>
        <time>2020-09-10T13:09:51.627Z</time>
      </trkpt>
      <trkpt lat="48.201339" lon="10.384435">
        <ele>572.597645</ele>
        <time>2020-09-10T13:09:53.621Z</time>
      </trkpt>
      <trkpt lat="48.201245" lon="10.384434">
        <ele>572.563750</ele>
        <time>2020-09-10T13:09:55.639Z</time>
      </trkpt>
      <trkpt lat="48.201156" lon="10.384398">
        <ele>572.550168</ele>
        <time>2020-09-10T13:09:57.615Z</time>
      </trkpt>
      <trkpt lat="48.201061" lon="10.384360">
        <ele>572.566251</ele>
        <time>2020-09-10T13:09:59.624Z</time>
      </trkpt>
      <trkpt lat="48.200952" lon="10.384315">
        <ele>572.584744</ele>
        <time>2020-09-10T13:10:01.631Z</time>
      </trkpt>
      <trkpt lat="48.200833" lon="10.384273">
        <ele>572.604741</ele>
        <time>2020-09-10T13:10:03.634Z</time>
      </trkpt>
      <trkpt lat="48.200723" lon="10.384214">
        <ele>572.623850</ele>
        <time>2020-09-10T13:10:05.632Z</time>
      </trkpt>
      <trkpt lat="48.200592" lon="10.384158">
        <ele>572.646132</ele>
        <time>2020-09-10T13:10:07.635Z</time>
      </trkpt>
      <trkpt lat="48.200483" lon="10.384087">
        <ele>572.665570</ele>
        <time>2020-09-10T13:10:09.631Z</time>
      </trkpt>
      <trkpt lat="48.200374" lon="10.384031">
        <ele>572.684417</ele>
        <time>2020-09-10T13:10:11.647Z</time>
      </trkpt>
      <trkpt lat="48.200263" lon="10.384002">
        <ele>572.702848</ele>
        <time>2020-09-10T13:10:13.629Z</time>
      </trkpt>
      <trkpt lat="48.200155" lon="10.383966">
        <ele>572.720945</ele>
        <time>2020-09-10T13:10:15.637Z</time>
      </trkpt>
      <trkpt lat="48.200036" lon="10.383934">
        <ele>572.740721</ele>
        <time>2020-09-10T13:10:17.632Z</time>
      </trkpt>
      <trkpt lat="48.199917" lon="10.383920">
        <ele>572.760247</ele>
        <time>2020-09-10T13:10:19.629Z</time>
      </trkpt>
      <trkpt lat="48.199791" lon="10.383913">
        <ele>572.780872</ele>
        <time>2020-09-10T13:10:21.618Z</time>
      </trkpt>
      <trkpt lat="48.199662" lon="10.383920">
        <ele>572.801988</ele>
        <time>2020-09-10T13:10:23.649Z</time>
      </trkpt>
      <trkpt lat="48.199539" lon="10.383900">
        <ele>572.822226</ele>
        <time>2020-09-10T13:10:25.642Z</time>
      </trkpt>
      <trkpt lat="48.199411" lon="10.383881">
        <ele>572.839296</ele>
        <time>2020-09-10T13:10:27.620Z</time>
      </trkpt>
      <trkpt lat="48.199292" lon="10.383864">
        <ele>572.843356</ele>
        <time>2020-09-10T13:10:29.630Z</time>
      </trkpt>
      <trkpt lat="48.199177" lon="10.383842">
        <ele>572.847293</ele>
        <time>2020-09-10T13:10:31.612Z</time>
      </trkpt>
      <trkpt lat="48.199064" lon="10.383812">
        <ele>572.851190</ele>
        <time>2020-09-10T13:10:33.632Z</time>
      </trkpt>
      <trkpt lat="48.198943" lon="10.383775">
        <ele>572.855384</ele>
        <time>2020-09-10T13:10:35.619Z</time>
      </trkpt>
      <trkpt lat="48.198826" lon="10.383727">
        <ele>572.859503</ele>
        <time>2020-09-10T13:10:37.636Z</time>
      </trkpt>
      <trkpt lat="48.198709" lon="10.383668">
        <ele>572.863695</ele>
        <time>2020-09-10T13:10:39.628Z</time>
      </trkpt>
      <trkpt lat="48.198601" lon="10.383584">
        <ele>572.867826</ele>
        <time>2020-09-10T13:10:41.632Z</time>
      </trkpt>
      <trkpt lat="48.198489" lon="10.383486">
        <ele>572.872230</ele>
        <time>2020-09-10T13:10:43.630Z</time>
      </trkpt>
      <trkpt lat="48.198377" lon="10.383397">
        <ele>572.876534</ele>
        <time>2020-09-10T13:10:45.630Z</time>
      </trkpt>
      <trkpt lat="48.198261" lon="10.383314">
        <ele>572.880898</ele>
        <time>2020-09-10T13:10:47.626Z</time>
      </trkpt>
      <trkpt lat="48.198147" lon="10.383264">
        <ele>572.884932</ele>
        <time>2020-09-10T13:10:49.635Z</time>
      </trkpt>
      <trkpt lat="48.198047" lon="10.383258">
        <ele>572.888331</ele>
        <time>2020-09-10T13:10:51.631Z</time>
      </trkpt>
      <trkpt lat="48.197941" lon="10.383321">
        <ele>572.892203</ele>
        <time>2020-09-10T13:10:54.614Z</time>
      </trkpt>
      <trkpt lat="48.197866" lon="10.383431">
        <ele>572.895765</ele>
        <time>2020-09-10T13:10:58.631Z</time>
      </trkpt>
      <trkpt lat="48.197798" lon="10.383301">
        <ele>572.905486</ele>
        <time>2020-09-10T13:11:03.627Z</time>
      </trkpt>
      <trkpt lat="48.197774" lon="10.383153">
        <ele>573.032953</ele>
        <time>2020-09-10T13:11:06.635Z</time>
      </trkpt>
      <trkpt lat="48.197748" lon="10.383003">
        <ele>573.162656</ele>
        <time>2020-09-10T13:11:09.622Z</time>
      </trkpt>
      <trkpt lat="48.197644" lon="10.382934">
        <ele>573.305424</ele>
        <time>2020-09-10T13:11:12.633Z</time>
      </trkpt>
      <trkpt lat="48.197538" lon="10.382943">
        <ele>573.438718</ele>
        <time>2020-09-10T13:11:15.621Z</time>
      </trkpt>
      <trkpt lat="48.197429" lon="10.382950">
        <ele>573.575691</ele>
        <time>2020-09-10T13:11:18.651Z</time>
      </trkpt>
      <trkpt lat="48.197319" lon="10.382942">
        <ele>573.713956</ele>
        <time>2020-09-10T13:11:21.636Z</time>
      </trkpt>
      <trkpt lat="48.197196" lon="10.382940">
        <ele>573.868389</ele>
        <time>2020-09-10T13:11:24.630Z</time>
      </trkpt>
      <trkpt lat="48.197083" lon="10.382927">
        <ele>574.010675</ele>
        <time>2020-09-10T13:11:27.628Z</time>
      </trkpt>
      <trkpt lat="48.196971" lon="10.382906">
        <ele>574.152383</ele>
        <time>2020-09-10T13:11:30.631Z</time>
      </trkpt>
      <trkpt lat="48.196861" lon="10.382896">
        <ele>574.290739</ele>
        <time>2020-09-10T13:11:33.637Z</time>
      </trkpt>
      <trkpt lat="48.196755" lon="10.382892">
        <ele>574.423862</ele>
        <time>2020-09-10T13:11:36.633Z</time>
      </trkpt>
      <trkpt lat="48.196627" lon="10.382874">
        <ele>574.585268</ele>
        <time>2020-09-10T13:11:39.632Z</time>
      </trkpt>
      <trkpt lat="48.196503" lon="10.382870">
        <ele>574.740984</ele>
        <time>2020-09-10T13:11:42.633Z</time>
      </trkpt>
      <trkpt lat="48.196372" lon="10.382860">
        <ele>574.905665</ele>
        <time>2020-09-10T13:11:45.619Z</time>
      </trkpt>
      <trkpt lat="48.196241" lon="10.382824">
        <ele>575.072870</ele>
        <time>2020-09-10T13:11:48.629Z</time>
      </trkpt>
      <trkpt lat="48.196106" lon="10.382810">
        <ele>575.029198</ele>
        <time>2020-09-10T13:11:51.634Z</time>
      </trkpt>
      <trkpt lat="48.196014" lon="10.382798">
        <ele>574.854730</ele>
        <time>2020-09-10T13:11:53.635Z</time>
      </trkpt>
      <trkpt lat="48.195923" lon="10.382782">
        <ele>574.681630</ele>
        <time>2020-09-10T13:11:55.631Z</time>
      </trkpt>
      <trkpt lat="48.195832" lon="10.382776">
        <ele>574.509541</ele>
        <time>2020-09-10T13:11:57.630Z</time>
      </trkpt>
      <trkpt lat="48.195699" lon="10.382759">
        <ele>574.257358</ele>
        <time>2020-09-10T13:12:00.630Z</time>
      </trkpt>
      <trkpt lat="48.195566" lon="10.382744">
        <ele>574.005377</ele>
        <time>2020-09-10T13:12:03.629Z</time>
      </trkpt>
      <trkpt lat="48.195432" lon="10.382725">
        <ele>573.751087</ele>
        <time>2020-09-10T13:12:06.627Z</time>
      </trkpt>
      <trkpt lat="48.195312" lon="10.382718">
        <ele>573.524203</ele>
        <time>2020-09-10T13:12:09.634Z</time>
      </trkpt>
      <trkpt lat="48.195223" lon="10.382695">
        <ele>573.353582</ele>
        <time>2020-09-10T13:12:14.633Z</time>
      </trkpt>
      <trkpt lat="48.195207" lon="10.382828">
        <ele>573.183380</ele>
        <time>2020-09-10T13:12:48.618Z</time>
      </trkpt>
      <trkpt lat="48.195238" lon="10.382980">
        <ele>572.983196</ele>
        <time>2020-09-10T13:13:01.624Z</time>
      </trkpt>
      <trkpt lat="48.195261" lon="10.383129">
        <ele>572.790583</ele>
        <time>2020-09-10T13:13:05.609Z</time>
      </trkpt>
      <trkpt lat="48.195293" lon="10.383269">
        <ele>572.604194</ele>
        <time>2020-09-10T13:13:08.631Z</time>
      </trkpt>
      <trkpt lat="48.195356" lon="10.383371">
        <ele>572.429072</ele>
        <time>2020-09-10T13:13:10.620Z</time>
      </trkpt>
      <trkpt lat="48.195388" lon="10.383540">
        <ele>572.207819</ele>
        <time>2020-09-10T13:13:13.625Z</time>
      </trkpt>
      <trkpt lat="48.195421" lon="10.383668">
        <ele>572.034983</ele>
        <time>2020-09-10T13:13:16.625Z</time>
      </trkpt>
      <trkpt lat="48.195486" lon="10.383770">
        <ele>571.857272</ele>
        <time>2020-09-10T13:13:19.619Z</time>
      </trkpt>
      <trkpt lat="48.195520" lon="10.383939">
        <ele>571.840675</ele>
        <time>2020-09-10T13:13:23.609Z</time>
      </trkpt>
      <trkpt lat="48.195405" lon="10.383961">
        <ele>571.983760</ele>
        <time>2020-09-10T13:13:27.617Z</time>
      </trkpt>
      <trkpt lat="48.195323" lon="10.383866">
        <ele>572.111633</ele>
        <time>2020-09-10T13:13:29.620Z</time>
      </trkpt>
      <trkpt lat="48.195231" lon="10.383778">
        <ele>572.246299</ele>
        <time>2020-09-10T13:13:31.632Z</time>
      </trkpt>
      <trkpt lat="48.195135" lon="10.383708">
        <ele>572.378040</ele>
        <time>2020-09-10T13:13:33.634Z</time>
      </trkpt>
      <trkpt lat="48.195049" lon="10.383641">
        <ele>572.497643</ele>
        <time>2020-09-10T13:13:35.638Z</time>
      </trkpt>
      <trkpt lat="48.194961" lon="10.383581">
        <ele>572.616946</ele>
        <time>2020-09-10T13:13:37.627Z</time>
      </trkpt>
      <trkpt lat="48.194871" lon="10.383505">
        <ele>572.744416</ele>
        <time>2020-09-10T13:13:39.630Z</time>
      </trkpt>
      <trkpt lat="48.194782" lon="10.383433">
        <ele>572.869216</ele>
        <time>2020-09-10T13:13:41.633Z</time>
      </trkpt>
      <trkpt lat="48.194691" lon="10.383349">
        <ele>573.001090</ele>
        <time>2020-09-10T13:13:43.627Z</time>
      </trkpt>
      <trkpt lat="48.194603" lon="10.383270">
        <ele>573.127664</ele>
        <time>2020-09-10T13:13:45.634Z</time>
      </trkpt>
      <trkpt lat="48.194506" lon="10.383195">
        <ele>573.262350</ele>
        <time>2020-09-10T13:13:47.625Z</time>
      </trkpt>
      <trkpt lat="48.194402" lon="10.383131">
        <ele>573.401090</ele>
        <time>2020-09-10T13:13:49.622Z</time>
      </trkpt>
      <trkpt lat="48.194286" lon="10.383083">
        <ele>573.549607</ele>
        <time>2020-09-10T13:13:51.611Z</time>
      </trkpt>
      <trkpt lat="48.194169" lon="10.383042">
        <ele>573.697898</ele>
        <time>2020-09-10T13:13:53.610Z</time>
      </trkpt>
      <trkpt lat="48.194045" lon="10.383017">
        <ele>573.852318</ele>
        <time>2020-09-10T13:13:55.612Z</time>
      </trkpt>
      <trkpt lat="48.193921" lon="10.382995">
        <ele>573.990662</ele>
        <time>2020-09-10T13:13:57.633Z</time>
      </trkpt>
      <trkpt lat="48.193796" lon="10.382980">
        <ele>574.055433</ele>
        <time>2020-09-10T13:13:59.632Z</time>
      </trkpt>
      <trkpt lat="48.193686" lon="10.382963">
        <ele>574.112551</ele>
        <time>2020-09-10T13:14:01.612Z</time>
      </trkpt>
      <trkpt lat="48.193576" lon="10.382932">
        <ele>574.170362</ele>
        <time>2020-09-10T13:14:03.631Z</time>
      </trkpt>
      <trkpt lat="48.193470" lon="10.382903">
        <ele>574.226016</ele>
        <time>2020-09-10T13:14:05.630Z</time>
      </trkpt>
      <trkpt lat="48.193366" lon="10.382863">
        <ele>574.281471</ele>
        <time>2020-09-10T13:14:07.631Z</time>
      </trkpt>
      <trkpt lat="48.193258" lon="10.382822">
        <ele>574.339014</ele>
        <time>2020-09-10T13:14:09.629Z</time>
      </trkpt>
      <trkpt lat="48.193150" lon="10.382785">
        <ele>574.396234</ele>
        <time>2020-09-10T13:14:11.627Z</time>
      </trkpt>
      <trkpt lat="48.193039" lon="10.382745">
        <ele>574.455199</ele>
        <time>2020-09-10T13:14:13.631Z</time>
      </trkpt>
      <trkpt lat="48.192928" lon="10.382706">
        <ele>574.514084</ele>
        <time>2020-09-10T13:14:15.632Z</time>
      </trkpt>
      <trkpt lat="48.192824" lon="10.382664">
        <ele>574.569714</ele>
        <time>2020-09-10T13:14:17.643Z</time>
      </trkpt>
      <trkpt lat="48.192717" lon="10.382625">
        <ele>574.626590</ele>
        <time>2020-09-10T13:14:19.624Z</time>
      </trkpt>
      <trkpt lat="48.192613" lon="10.382583">
        <ele>574.682220</ele>
        <time>2020-09-10T13:14:21.625Z</time>
      </trkpt>
      <trkpt lat="48.192497" lon="10.382537">
        <ele>574.744195</ele>
        <time>2020-09-10T13:14:23.627Z</time>
      </trkpt>
      <trkpt lat="48.192378" lon="10.382507">
        <ele>574.806522</ele>
        <time>2020-09-10T13:14:25.618Z</time>
      </trkpt>
      <trkpt lat="48.192258" lon="10.382461">
        <ele>574.870496</ele>
        <time>2020-09-10T13:14:27.607Z</time>
      </trkpt>
      <trkpt lat="48.192138" lon="10.382416">
        <ele>574.986178</ele>
        <time>2020-09-10T13:14:29.628Z</time>
      </trkpt>
      <trkpt lat="48.192025" lon="10.382380">
        <ele>575.164530</ele>
        <time>2020-09-10T13:14:31.623Z</time>
      </trkpt>
      <trkpt lat="48.191922" lon="10.382324">
        <ele>575.333675</ele>
        <time>2020-09-10T13:14:33.633Z</time>
      </trkpt>
      <trkpt lat="48.191855" lon="10.382196">
        <ele>575.501174</ele>
        <time>2020-09-10T13:14:35.616Z</time>
      </trkpt>
      <trkpt lat="48.191826" lon="10.382039">
        <ele>575.668851</ele>
        <time>2020-09-10T13:14:37.606Z</time>
      </trkpt>
      <trkpt lat="48.191793" lon="10.381903">
        <ele>575.817810</ele>
        <time>2020-09-10T13:14:39.613Z</time>
      </trkpt>
      <trkpt lat="48.191692" lon="10.381799">
        <ele>576.006947</ele>
        <time>2020-09-10T13:14:42.619Z</time>
      </trkpt>
      <trkpt lat="48.191602" lon="10.381760">
        <ele>576.151580</ele>
        <time>2020-09-10T13:14:44.616Z</time>
      </trkpt>
      <trkpt lat="48.191486" lon="10.381697">
        <ele>576.342050</ele>
        <time>2020-09-10T13:14:47.631Z</time>
      </trkpt>
      <trkpt lat="48.191373" lon="10.381630">
        <ele>576.529645</ele>
        <time>2020-09-10T13:14:50.634Z</time>
      </trkpt>
      <trkpt lat="48.191251" lon="10.381576">
        <ele>576.726030</ele>
        <time>2020-09-10T13:14:53.630Z</time>
      </trkpt>
      <trkpt lat="48.191160" lon="10.381535">
        <ele>576.872726</ele>
        <time>2020-09-10T13:14:55.614Z</time>
      </trkpt>
      <trkpt lat="48.191065" lon="10.381494">
        <ele>577.025347</ele>
        <time>2020-09-10T13:14:57.628Z</time>
      </trkpt>
      <trkpt lat="48.190972" lon="10.381447">
        <ele>577.176860</ele>
        <time>2020-09-10T13:14:59.616Z</time>
      </trkpt>
      <trkpt lat="48.190879" lon="10.381403">
        <ele>577.327415</ele>
        <time>2020-09-10T13:15:01.626Z</time>
      </trkpt>
      <trkpt lat="48.190786" lon="10.381352">
        <ele>577.480293</ele>
        <time>2020-09-10T13:15:03.631Z</time>
      </trkpt>
      <trkpt lat="48.190695" lon="10.381301">
        <ele>577.630274</ele>
        <time>2020-09-10T13:15:05.623Z</time>
      </trkpt>
      <trkpt lat="48.190600" lon="10.381254">
        <ele>577.791731</ele>
        <time>2020-09-10T13:15:07.634Z</time>
      </trkpt>
      <trkpt lat="48.190502" lon="10.381203">
        <ele>577.963178</ele>
        <time>2020-09-10T13:15:09.627Z</time>
      </trkpt>
      <trkpt lat="48.190407" lon="10.381155">
        <ele>578.128864</ele>
        <time>2020-09-10T13:15:11.625Z</time>
      </trkpt>
      <trkpt lat="48.190309" lon="10.381104">
        <ele>578.300312</ele>
        <time>2020-09-10T13:15:13.630Z</time>
      </trkpt>
      <trkpt lat="48.190205" lon="10.381049">
        <ele>578.482575</ele>
        <time>2020-09-10T13:15:15.631Z</time>
      </trkpt>
      <trkpt lat="48.190100" lon="10.380996">
        <ele>578.665683</ele>
        <time>2020-09-10T13:15:17.633Z</time>
      </trkpt>
      <trkpt lat="48.189996" lon="10.380942">
        <ele>578.847584</ele>
        <time>2020-09-10T13:15:19.630Z</time>
      </trkpt>
      <trkpt lat="48.189899" lon="10.380889">
        <ele>579.018212</ele>
        <time>2020-09-10T13:15:21.629Z</time>
      </trkpt>
      <trkpt lat="48.189806" lon="10.380843">
        <ele>579.180066</ele>
        <time>2020-09-10T13:15:23.647Z</time>
      </trkpt>
      <trkpt lat="48.189681" lon="10.380790">
        <ele>579.394763</ele>
        <time>2020-09-10T13:15:26.622Z</time>
      </trkpt>
      <trkpt lat="48.189571" lon="10.380713">
        <ele>579.595396</ele>
        <time>2020-09-10T13:15:29.612Z</time>
      </trkpt>
      <trkpt lat="48.189476" lon="10.380689">
        <ele>579.754625</ele>
        <time>2020-09-10T13:15:31.619Z</time>
      </trkpt>
      <trkpt lat="48.189375" lon="10.380666">
        <ele>579.923473</ele>
        <time>2020-09-10T13:15:33.607Z</time>
      </trkpt>
      <trkpt lat="48.189279" lon="10.380644">
        <ele>580.083985</ele>
        <time>2020-09-10T13:15:35.621Z</time>
      </trkpt>
      <trkpt lat="48.189171" lon="10.380626">
        <ele>580.263588</ele>
        <time>2020-09-10T13:15:37.625Z</time>
      </trkpt>
      <trkpt lat="48.189054" lon="10.380598">
        <ele>580.459413</ele>
        <time>2020-09-10T13:15:39.629Z</time>
      </trkpt>
      <trkpt lat="48.188917" lon="10.380607">
        <ele>580.664866</ele>
        <time>2020-09-10T13:15:41.637Z</time>
      </trkpt>
      <trkpt lat="48.188775" lon="10.380599">
        <ele>580.721610</ele>
        <time>2020-09-10T13:15:43.625Z</time>
      </trkpt>
      <trkpt lat="48.188636" lon="10.380595">
        <ele>580.777125</ele>
        <time>2020-09-10T13:15:45.626Z</time>
      </trkpt>
      <trkpt lat="48.188498" lon="10.380601">
        <ele>580.832255</ele>
        <time>2020-09-10T13:15:47.631Z</time>
      </trkpt>
      <trkpt lat="48.188363" lon="10.380591">
        <ele>580.886228</ele>
        <time>2020-09-10T13:15:49.629Z</time>
      </trkpt>
      <trkpt lat="48.188222" lon="10.380583">
        <ele>580.942573</ele>
        <time>2020-09-10T13:15:51.626Z</time>
      </trkpt>
      <trkpt lat="48.188092" lon="10.380597">
        <ele>580.994618</ele>
        <time>2020-09-10T13:15:53.627Z</time>
      </trkpt>
      <trkpt lat="48.187964" lon="10.380618">
        <ele>581.046036</ele>
        <time>2020-09-10T13:15:55.627Z</time>
      </trkpt>
      <trkpt lat="48.187844" lon="10.380643">
        <ele>581.094414</ele>
        <time>2020-09-10T13:15:57.627Z</time>
      </trkpt>
      <trkpt lat="48.187727" lon="10.380660">
        <ele>581.141353</ele>
        <time>2020-09-10T13:15:59.617Z</time>
      </trkpt>
      <trkpt lat="48.187608" lon="10.380668">
        <ele>581.188920</ele>
        <time>2020-09-10T13:16:01.632Z</time>
      </trkpt>
      <trkpt lat="48.187493" lon="10.380691">
        <ele>581.235248</ele>
        <time>2020-09-10T13:16:03.601Z</time>
      </trkpt>
      <trkpt lat="48.187379" lon="10.380718">
        <ele>581.281335</ele>
        <time>2020-09-10T13:16:05.630Z</time>
      </trkpt>
      <trkpt lat="48.187266" lon="10.380741">
        <ele>581.326872</ele>
        <time>2020-09-10T13:16:07.617Z</time>
      </trkpt>
      <trkpt lat="48.187160" lon="10.380767">
        <ele>581.369762</ele>
        <time>2020-09-10T13:16:09.619Z</time>
      </trkpt>
      <trkpt lat="48.187064" lon="10.380795">
        <ele>581.306061</ele>
        <time>2020-09-10T13:16:11.617Z</time>
      </trkpt>
      <trkpt lat="48.186965" lon="10.380812">
        <ele>581.219924</ele>
        <time>2020-09-10T13:16:13.619Z</time>
      </trkpt>
      <trkpt lat="48.186861" lon="10.380826">
        <ele>581.129661</ele>
        <time>2020-09-10T13:16:15.625Z</time>
      </trkpt>
      <trkpt lat="48.186755" lon="10.380849">
        <ele>581.037078</ele>
        <time>2020-09-10T13:16:17.628Z</time>
      </trkpt>
      <trkpt lat="48.186644" lon="10.380875">
        <ele>580.939963</ele>
        <time>2020-09-10T13:16:19.625Z</time>
      </trkpt>
      <trkpt lat="48.186529" lon="10.380904">
        <ele>580.839158</ele>
        <time>2020-09-10T13:16:21.636Z</time>
      </trkpt>
      <trkpt lat="48.186410" lon="10.380931">
        <ele>580.735120</ele>
        <time>2020-09-10T13:16:23.629Z</time>
      </trkpt>
      <trkpt lat="48.186288" lon="10.380965">
        <ele>580.627855</ele>
        <time>2020-09-10T13:16:25.622Z</time>
      </trkpt>
      <trkpt lat="48.186168" lon="10.380997">
        <ele>580.522496</ele>
        <time>2020-09-10T13:16:27.630Z</time>
      </trkpt>
      <trkpt lat="48.186048" lon="10.381031">
        <ele>580.416930</ele>
        <time>2020-09-10T13:16:29.628Z</time>
      </trkpt>
      <trkpt lat="48.185931" lon="10.381057">
        <ele>580.314687</ele>
        <time>2020-09-10T13:16:31.630Z</time>
      </trkpt>
      <trkpt lat="48.185823" lon="10.381089">
        <ele>580.219524</ele>
        <time>2020-09-10T13:16:33.629Z</time>
      </trkpt>
      <trkpt lat="48.185708" lon="10.381119">
        <ele>580.118622</ele>
        <time>2020-09-10T13:16:35.629Z</time>
      </trkpt>
      <trkpt lat="48.185592" lon="10.381150">
        <ele>580.016769</ele>
        <time>2020-09-10T13:16:37.632Z</time>
      </trkpt>
      <trkpt lat="48.185475" lon="10.381183">
        <ele>579.913857</ele>
        <time>2020-09-10T13:16:39.629Z</time>
      </trkpt>
      <trkpt lat="48.185360" lon="10.381214">
        <ele>579.798396</ele>
        <time>2020-09-10T13:16:41.618Z</time>
      </trkpt>
      <trkpt lat="48.185248" lon="10.381249">
        <ele>579.534890</ele>
        <time>2020-09-10T13:16:43.633Z</time>
      </trkpt>
      <trkpt lat="48.185142" lon="10.381278">
        <ele>579.286714</ele>
        <time>2020-09-10T13:16:45.631Z</time>
      </trkpt>
      <trkpt lat="48.185053" lon="10.381303">
        <ele>579.078159</ele>
        <time>2020-09-10T13:16:47.635Z</time>
      </trkpt>
      <trkpt lat="48.184923" lon="10.381336">
        <ele>578.774475</ele>
        <time>2020-09-10T13:16:50.628Z</time>
      </trkpt>
      <trkpt lat="48.184828" lon="10.381377">
        <ele>578.546786</ele>
        <time>2020-09-10T13:16:52.627Z</time>
      </trkpt>
      <trkpt lat="48.184769" lon="10.381512">
        <ele>578.298902</ele>
        <time>2020-09-10T13:16:54.614Z</time>
      </trkpt>
      <trkpt lat="48.184789" lon="10.381680">
        <ele>578.036831</ele>
        <time>2020-09-10T13:16:56.605Z</time>
      </trkpt>
      <trkpt lat="48.184814" lon="10.381870">
        <ele>577.739427</ele>
        <time>2020-09-10T13:16:58.637Z</time>
      </trkpt>
      <trkpt lat="48.184828" lon="10.382063">
        <ele>577.441296</ele>
        <time>2020-09-10T13:17:00.611Z</time>
      </trkpt>
      <trkpt lat="48.184817" lon="10.382248">
        <ele>577.156071</ele>
        <time>2020-09-10T13:17:02.624Z</time>
      </trkpt>
      <trkpt lat="48.184711" lon="10.382358">
        <ele>576.859183</ele>
        <time>2020-09-10T13:17:04.612Z</time>
      </trkpt>
      <trkpt lat="48.184586" lon="10.382374">
        <ele>576.570227</ele>
        <time>2020-09-10T13:17:06.602Z</time>
      </trkpt>
      <trkpt lat="48.184464" lon="10.382418">
        <ele>576.281218</ele>
        <time>2020-09-10T13:17:08.612Z</time>
      </trkpt>
      <trkpt lat="48.184344" lon="10.382450">
        <ele>576.000490</ele>
        <time>2020-09-10T13:17:10.630Z</time>
      </trkpt>
      <trkpt lat="48.184223" lon="10.382488">
        <ele>575.715750</ele>
        <time>2020-09-10T13:17:12.630Z</time>
      </trkpt>
      <trkpt lat="48.184102" lon="10.382526">
        <ele>575.686197</ele>
        <time>2020-09-10T13:17:14.624Z</time>
      </trkpt>
      <trkpt lat="48.183974" lon="10.382554">
        <ele>575.695122</ele>
        <time>2020-09-10T13:17:16.628Z</time>
      </trkpt>
      <trkpt lat="48.183849" lon="10.382596">
        <ele>575.703960</ele>
        <time>2020-09-10T13:17:18.662Z</time>
      </trkpt>
      <trkpt lat="48.183726" lon="10.382638">
        <ele>575.712664</ele>
        <time>2020-09-10T13:17:20.632Z</time>
      </trkpt>
      <trkpt lat="48.183600" lon="10.382706">
        <ele>575.721903</ele>
        <time>2020-09-10T13:17:22.615Z</time>
      </trkpt>
      <trkpt lat="48.183480" lon="10.382762">
        <ele>575.730574</ele>
        <time>2020-09-10T13:17:24.633Z</time>
      </trkpt>
      <trkpt lat="48.183362" lon="10.382789">
        <ele>575.738810</ele>
        <time>2020-09-10T13:17:26.619Z</time>
      </trkpt>
      <trkpt lat="48.183248" lon="10.382819">
        <ele>575.746796</ele>
        <time>2020-09-10T13:17:28.619Z</time>
      </trkpt>
      <trkpt lat="48.183122" lon="10.382860">
        <ele>575.755692</ele>
        <time>2020-09-10T13:17:30.623Z</time>
      </trkpt>
      <trkpt lat="48.182996" lon="10.382897">
        <ele>575.764550</ele>
        <time>2020-09-10T13:17:32.625Z</time>
      </trkpt>
      <trkpt lat="48.182868" lon="10.382937">
        <ele>575.773571</ele>
        <time>2020-09-10T13:17:34.628Z</time>
      </trkpt>
      <trkpt lat="48.182739" lon="10.382975">
        <ele>575.782642</ele>
        <time>2020-09-10T13:17:36.623Z</time>
      </trkpt>
      <trkpt lat="48.182616" lon="10.383010">
        <ele>575.791280</ele>
        <time>2020-09-10T13:17:38.627Z</time>
      </trkpt>
      <trkpt lat="48.182496" lon="10.383038">
        <ele>575.799659</ele>
        <time>2020-09-10T13:17:40.624Z</time>
      </trkpt>
      <trkpt lat="48.182390" lon="10.383067">
        <ele>575.791090</ele>
        <time>2020-09-10T13:17:42.626Z</time>
      </trkpt>
      <trkpt lat="48.182287" lon="10.383086">
        <ele>575.771089</ele>
        <time>2020-09-10T13:17:44.629Z</time>
      </trkpt>
      <trkpt lat="48.182181" lon="10.383112">
        <ele>575.750387</ele>
        <time>2020-09-10T13:17:46.628Z</time>
      </trkpt>
      <trkpt lat="48.182075" lon="10.383129">
        <ele>575.729840</ele>
        <time>2020-09-10T13:17:48.628Z</time>
      </trkpt>
      <trkpt lat="48.181974" lon="10.383162">
        <ele>575.709917</ele>
        <time>2020-09-10T13:17:50.631Z</time>
      </trkpt>
      <trkpt lat="48.181881" lon="10.383176">
        <ele>575.691902</ele>
        <time>2020-09-10T13:17:52.626Z</time>
      </trkpt>
      <trkpt lat="48.181764" lon="10.383224">
        <ele>575.668523</ele>
        <time>2020-09-10T13:17:55.607Z</time>
      </trkpt>
      <trkpt lat="48.181630" lon="10.383290">
        <ele>575.641339</ele>
        <time>2020-09-10T13:17:58.631Z</time>
      </trkpt>
      <trkpt lat="48.181538" lon="10.383380">
        <ele>575.620168</ele>
        <time>2020-09-10T13:18:00.622Z</time>
      </trkpt>
      <trkpt lat="48.181441" lon="10.383466">
        <ele>575.598450</ele>
        <time>2020-09-10T13:18:02.615Z</time>
      </trkpt>
      <trkpt lat="48.181347" lon="10.383558">
        <ele>575.576816</ele>
        <time>2020-09-10T13:18:04.620Z</time>
      </trkpt>
      <trkpt lat="48.181252" lon="10.383643">
        <ele>575.555495</ele>
        <time>2020-09-10T13:18:06.623Z</time>
      </trkpt>
      <trkpt lat="48.181158" lon="10.383728">
        <ele>575.534339</ele>
        <time>2020-09-10T13:18:08.626Z</time>
      </trkpt>
      <trkpt lat="48.181053" lon="10.383828">
        <ele>575.510366</ele>
        <time>2020-09-10T13:18:11.627Z</time>
      </trkpt>
      <trkpt lat="48.180977" lon="10.383950">
        <ele>575.488909</ele>
        <time>2020-09-10T13:18:14.619Z</time>
      </trkpt>
      <trkpt lat="48.180850" lon="10.384031">
        <ele>575.462309</ele>
        <time>2020-09-10T13:18:17.611Z</time>
      </trkpt>
      <trkpt lat="48.180743" lon="10.384038">
        <ele>575.434749</ele>
        <time>2020-09-10T13:18:19.610Z</time>
      </trkpt>
      <trkpt lat="48.180643" lon="10.384047">
        <ele>575.406253</ele>
        <time>2020-09-10T13:18:21.633Z</time>
      </trkpt>
      <trkpt lat="48.180532" lon="10.384044">
        <ele>575.374674</ele>
        <time>2020-09-10T13:18:23.625Z</time>
      </trkpt>
      <trkpt lat="48.180427" lon="10.384039">
        <ele>575.344792</ele>
        <time>2020-09-10T13:18:25.624Z</time>
      </trkpt>
      <trkpt lat="48.180324" lon="10.384031">
        <ele>575.315455</ele>
        <time>2020-09-10T13:18:27.630Z</time>
      </trkpt>
      <trkpt lat="48.180214" lon="10.384023">
        <ele>575.284129</ele>
        <time>2020-09-10T13:18:29.621Z</time>
      </trkpt>
      <trkpt lat="48.180103" lon="10.384019">
        <ele>575.252546</ele>
        <time>2020-09-10T13:18:31.614Z</time>
      </trkpt>
      <trkpt lat="48.179992" lon="10.384018">
        <ele>575.220972</ele>
        <time>2020-09-10T13:18:33.612Z</time>
      </trkpt>
      <trkpt lat="48.179878" lon="10.384021">
        <ele>575.188540</ele>
        <time>2020-09-10T13:18:35.630Z</time>
      </trkpt>
      <trkpt lat="48.179766" lon="10.384023">
        <ele>575.156680</ele>
        <time>2020-09-10T13:18:37.625Z</time>
      </trkpt>
      <trkpt lat="48.179669" lon="10.384026">
        <ele>575.129083</ele>
        <time>2020-09-10T13:18:39.619Z</time>
      </trkpt>
      <trkpt lat="48.179573" lon="10.384031">
        <ele>575.101759</ele>
        <time>2020-09-10T13:18:41.622Z</time>
      </trkpt>
      <trkpt lat="48.179469" lon="10.384038">
        <ele>575.072147</ele>
        <time>2020-09-10T13:18:43.623Z</time>
      </trkpt>
      <trkpt lat="48.179370" lon="10.384036">
        <ele>575.043984</ele>
        <time>2020-09-10T13:18:45.618Z</time>
      </trkpt>
      <trkpt lat="48.179271" lon="10.384038">
        <ele>575.015821</ele>
        <time>2020-09-10T13:18:47.624Z</time>
      </trkpt>
      <trkpt lat="48.179172" lon="10.384048">
        <ele>574.987597</ele>
        <time>2020-09-10T13:18:49.628Z</time>
      </trkpt>
      <trkpt lat="48.179079" lon="10.384051">
        <ele>574.961138</ele>
        <time>2020-09-10T13:18:51.608Z</time>
      </trkpt>
      <trkpt lat="48.178979" lon="10.384071">
        <ele>574.993293</ele>
        <time>2020-09-10T13:18:53.622Z</time>
      </trkpt>
      <trkpt lat="48.178867" lon="10.384074">
        <ele>575.121063</ele>
        <time>2020-09-10T13:18:55.631Z</time>
      </trkpt>
      <trkpt lat="48.178752" lon="10.384080">
        <ele>575.252313</ele>
        <time>2020-09-10T13:18:57.630Z</time>
      </trkpt>
      <trkpt lat="48.178633" lon="10.384079">
        <ele>575.388049</ele>
        <time>2020-09-10T13:18:59.629Z</time>
      </trkpt>
      <trkpt lat="48.178523" lon="10.384086">
        <ele>575.513630</ele>
        <time>2020-09-10T13:19:01.625Z</time>
      </trkpt>
      <trkpt lat="48.178419" lon="10.384104">
        <ele>575.633041</ele>
        <time>2020-09-10T13:19:03.627Z</time>
      </trkpt>
      <trkpt lat="48.178311" lon="10.384116">
        <ele>575.756566</ele>
        <time>2020-09-10T13:19:05.629Z</time>
      </trkpt>
      <trkpt lat="48.178206" lon="10.384133">
        <ele>575.877026</ele>
        <time>2020-09-10T13:19:07.630Z</time>
      </trkpt>
      <trkpt lat="48.178095" lon="10.384164">
        <ele>576.005812</ele>
        <time>2020-09-10T13:19:09.626Z</time>
      </trkpt>
      <trkpt lat="48.177981" lon="10.384195">
        <ele>576.137963</ele>
        <time>2020-09-10T13:19:11.639Z</time>
      </trkpt>
      <trkpt lat="48.177870" lon="10.384223">
        <ele>576.266350</ele>
        <time>2020-09-10T13:19:13.632Z</time>
      </trkpt>
      <trkpt lat="48.177758" lon="10.384256">
        <ele>576.396541</ele>
        <time>2020-09-10T13:19:15.628Z</time>
      </trkpt>
      <trkpt lat="48.177655" lon="10.384301">
        <ele>576.518909</ele>
        <time>2020-09-10T13:19:17.632Z</time>
      </trkpt>
      <trkpt lat="48.177550" lon="10.384340">
        <ele>576.642293</ele>
        <time>2020-09-10T13:19:19.613Z</time>
      </trkpt>
      <trkpt lat="48.177446" lon="10.384372">
        <ele>576.763388</ele>
        <time>2020-09-10T13:19:21.635Z</time>
      </trkpt>
      <trkpt lat="48.177335" lon="10.384412">
        <ele>576.893601</ele>
        <time>2020-09-10T13:19:23.623Z</time>
      </trkpt>
      <trkpt lat="48.177224" lon="10.384444">
        <ele>577.042064</ele>
        <time>2020-09-10T13:19:25.620Z</time>
      </trkpt>
      <trkpt lat="48.177114" lon="10.384466">
        <ele>577.262400</ele>
        <time>2020-09-10T13:19:27.625Z</time>
      </trkpt>
      <trkpt lat="48.177008" lon="10.384498">
        <ele>577.477082</ele>
        <time>2020-09-10T13:19:29.621Z</time>
      </trkpt>
      <trkpt lat="48.176907" lon="10.384528">
        <ele>577.681511</ele>
        <time>2020-09-10T13:19:31.628Z</time>
      </trkpt>
      <trkpt lat="48.176799" lon="10.384546">
        <ele>577.897262</ele>
        <time>2020-09-10T13:19:33.623Z</time>
      </trkpt>
      <trkpt lat="48.176684" lon="10.384564">
        <ele>578.126832</ele>
        <time>2020-09-10T13:19:35.636Z</time>
      </trkpt>
      <trkpt lat="48.176575" lon="10.384576">
        <ele>578.343831</ele>
        <time>2020-09-10T13:19:37.633Z</time>
      </trkpt>
      <trkpt lat="48.176472" lon="10.384584">
        <ele>578.548609</ele>
        <time>2020-09-10T13:19:39.630Z</time>
      </trkpt>
      <trkpt lat="48.176370" lon="10.384594">
        <ele>578.751560</ele>
        <time>2020-09-10T13:19:41.629Z</time>
      </trkpt>
      <trkpt lat="48.176273" lon="10.384608">
        <ele>578.945041</ele>
        <time>2020-09-10T13:19:43.628Z</time>
      </trkpt>
      <trkpt lat="48.176146" lon="10.384634">
        <ele>579.199535</ele>
        <time>2020-09-10T13:19:46.627Z</time>
      </trkpt>
      <trkpt lat="48.176053" lon="10.384674">
        <ele>579.391629</ele>
        <time>2020-09-10T13:19:48.624Z</time>
      </trkpt>
      <trkpt lat="48.175958" lon="10.384712">
        <ele>579.586844</ele>
        <time>2020-09-10T13:19:50.629Z</time>
      </trkpt>
      <trkpt lat="48.175829" lon="10.384758">
        <ele>579.850112</ele>
        <time>2020-09-10T13:19:53.635Z</time>
      </trkpt>
      <trkpt lat="48.175696" lon="10.384808">
        <ele>580.122352</ele>
        <time>2020-09-10T13:19:56.635Z</time>
      </trkpt>
      <trkpt lat="48.175596" lon="10.384839">
        <ele>580.325097</ele>
        <time>2020-09-10T13:19:58.617Z</time>
      </trkpt>
      <trkpt lat="48.175504" lon="10.384872">
        <ele>580.512913</ele>
        <time>2020-09-10T13:20:00.614Z</time>
      </trkpt>
      <trkpt lat="48.175401" lon="10.384896">
        <ele>580.574706</ele>
        <time>2020-09-10T13:20:03.618Z</time>
      </trkpt>
      <trkpt lat="48.175281" lon="10.384916">
        <ele>580.586324</ele>
        <time>2020-09-10T13:20:06.624Z</time>
      </trkpt>
      <trkpt lat="48.175191" lon="10.384924">
        <ele>580.595000</ele>
        <time>2020-09-10T13:20:08.621Z</time>
      </trkpt>
      <trkpt lat="48.175097" lon="10.384962">
        <ele>580.604368</ele>
        <time>2020-09-10T13:20:10.630Z</time>
      </trkpt>
      <trkpt lat="48.175005" lon="10.384994">
        <ele>580.613456</ele>
        <time>2020-09-10T13:20:12.627Z</time>
      </trkpt>
      <trkpt lat="48.174911" lon="10.385030">
        <ele>580.622791</ele>
        <time>2020-09-10T13:20:14.634Z</time>
      </trkpt>
      <trkpt lat="48.174811" lon="10.385075">
        <ele>580.632838</ele>
        <time>2020-09-10T13:20:16.627Z</time>
      </trkpt>
      <trkpt lat="48.174717" lon="10.385118">
        <ele>580.642295</ele>
        <time>2020-09-10T13:20:18.664Z</time>
      </trkpt>
      <trkpt lat="48.174627" lon="10.385165">
        <ele>580.651465</ele>
        <time>2020-09-10T13:20:20.631Z</time>
      </trkpt>
      <trkpt lat="48.174536" lon="10.385215">
        <ele>580.660791</ele>
        <time>2020-09-10T13:20:22.627Z</time>
      </trkpt>
      <trkpt lat="48.174435" lon="10.385259">
        <ele>580.670912</ele>
        <time>2020-09-10T13:20:24.618Z</time>
      </trkpt>
      <trkpt lat="48.174334" lon="10.385317">
        <ele>580.681319</ele>
        <time>2020-09-10T13:20:26.629Z</time>
      </trkpt>
      <trkpt lat="48.174234" lon="10.385375">
        <ele>580.691636</ele>
        <time>2020-09-10T13:20:28.629Z</time>
      </trkpt>
      <trkpt lat="48.174128" lon="10.385432">
        <ele>580.702472</ele>
        <time>2020-09-10T13:20:30.632Z</time>
      </trkpt>
      <trkpt lat="48.174014" lon="10.385490">
        <ele>580.714056</ele>
        <time>2020-09-10T13:20:32.629Z</time>
      </trkpt>
      <trkpt lat="48.173903" lon="10.385546">
        <ele>580.725326</ele>
        <time>2020-09-10T13:20:34.630Z</time>
      </trkpt>
      <trkpt lat="48.173791" lon="10.385592">
        <ele>580.736500</ele>
        <time>2020-09-10T13:20:36.632Z</time>
      </trkpt>
      <trkpt lat="48.173680" lon="10.385637">
        <ele>580.914501</ele>
        <time>2020-09-10T13:20:38.632Z</time>
      </trkpt>
      <trkpt lat="48.173570" lon="10.385682">
        <ele>581.180722</ele>
        <time>2020-09-10T13:20:40.620Z</time>
      </trkpt>
      <trkpt lat="48.173466" lon="10.385720">
        <ele>581.430653</ele>
        <time>2020-09-10T13:20:42.609Z</time>
      </trkpt>
      <trkpt lat="48.173358" lon="10.385751">
        <ele>581.687397</ele>
        <time>2020-09-10T13:20:44.618Z</time>
      </trkpt>
      <trkpt lat="48.173253" lon="10.385785">
        <ele>581.938209</ele>
        <time>2020-09-10T13:20:46.618Z</time>
      </trkpt>
      <trkpt lat="48.173142" lon="10.385833">
        <ele>582.207941</ele>
        <time>2020-09-10T13:20:48.628Z</time>
      </trkpt>
      <trkpt lat="48.173028" lon="10.385866">
        <ele>582.479031</ele>
        <time>2020-09-10T13:20:50.625Z</time>
      </trkpt>
      <trkpt lat="48.172914" lon="10.385902">
        <ele>582.751044</ele>
        <time>2020-09-10T13:20:52.629Z</time>
      </trkpt>
      <trkpt lat="48.172798" lon="10.385939">
        <ele>583.027948</ele>
        <time>2020-09-10T13:20:54.626Z</time>
      </trkpt>
      <trkpt lat="48.172679" lon="10.385981">
        <ele>583.313390</ele>
        <time>2020-09-10T13:20:56.624Z</time>
      </trkpt>
      <trkpt lat="48.172556" lon="10.386021">
        <ele>583.607255</ele>
        <time>2020-09-10T13:20:58.630Z</time>
      </trkpt>
      <trkpt lat="48.172429" lon="10.386060">
        <ele>583.909938</ele>
        <time>2020-09-10T13:21:00.628Z</time>
      </trkpt>
      <trkpt lat="48.172308" lon="10.386098">
        <ele>584.198586</ele>
        <time>2020-09-10T13:21:02.630Z</time>
      </trkpt>
      <trkpt lat="48.172187" lon="10.386133">
        <ele>584.486314</ele>
        <time>2020-09-10T13:21:04.628Z</time>
      </trkpt>
      <trkpt lat="48.172070" lon="10.386177">
        <ele>584.767954</ele>
        <time>2020-09-10T13:21:06.628Z</time>
      </trkpt>
      <trkpt lat="48.171949" lon="10.386212">
        <ele>584.907128</ele>
        <time>2020-09-10T13:21:08.616Z</time>
      </trkpt>
      <trkpt lat="48.171826" lon="10.386248">
        <ele>584.824035</ele>
        <time>2020-09-10T13:21:10.627Z</time>
      </trkpt>
      <trkpt lat="48.171708" lon="10.386299">
        <ele>584.742612</ele>
        <time>2020-09-10T13:21:12.623Z</time>
      </trkpt>
      <trkpt lat="48.171594" lon="10.386330">
        <ele>584.665794</ele>
        <time>2020-09-10T13:21:14.622Z</time>
      </trkpt>
      <trkpt lat="48.171486" lon="10.386357">
        <ele>584.593198</ele>
        <time>2020-09-10T13:21:16.623Z</time>
      </trkpt>
      <trkpt lat="48.171374" lon="10.386388">
        <ele>584.517683</ele>
        <time>2020-09-10T13:21:18.635Z</time>
      </trkpt>
      <trkpt lat="48.171265" lon="10.386422">
        <ele>584.443866</ele>
        <time>2020-09-10T13:21:20.624Z</time>
      </trkpt>
      <trkpt lat="48.171149" lon="10.386462">
        <ele>584.364946</ele>
        <time>2020-09-10T13:21:22.627Z</time>
      </trkpt>
      <trkpt lat="48.171032" lon="10.386499">
        <ele>584.285665</ele>
        <time>2020-09-10T13:21:24.624Z</time>
      </trkpt>
      <trkpt lat="48.170915" lon="10.386531">
        <ele>584.206810</ele>
        <time>2020-09-10T13:21:26.631Z</time>
      </trkpt>
      <trkpt lat="48.170794" lon="10.386563">
        <ele>584.125345</ele>
        <time>2020-09-10T13:21:28.625Z</time>
      </trkpt>
      <trkpt lat="48.170672" lon="10.386598">
        <ele>584.042987</ele>
        <time>2020-09-10T13:21:30.624Z</time>
      </trkpt>
      <trkpt lat="48.170556" lon="10.386636">
        <ele>583.964262</ele>
        <time>2020-09-10T13:21:32.626Z</time>
      </trkpt>
      <trkpt lat="48.170435" lon="10.386676">
        <ele>583.882108</ele>
        <time>2020-09-10T13:21:34.628Z</time>
      </trkpt>
      <trkpt lat="48.170318" lon="10.386716">
        <ele>583.802542</ele>
        <time>2020-09-10T13:21:36.624Z</time>
      </trkpt>
      <trkpt lat="48.170202" lon="10.386751">
        <ele>583.787193</ele>
        <time>2020-09-10T13:21:38.617Z</time>
      </trkpt>
      <trkpt lat="48.170084" lon="10.386786">
        <ele>583.923128</ele>
        <time>2020-09-10T13:21:40.630Z</time>
      </trkpt>
      <trkpt lat="48.169968" lon="10.386826">
        <ele>584.057640</ele>
        <time>2020-09-10T13:21:42.628Z</time>
      </trkpt>
      <trkpt lat="48.169851" lon="10.386862">
        <ele>584.192616</ele>
        <time>2020-09-10T13:21:44.624Z</time>
      </trkpt>
      <trkpt lat="48.169737" lon="10.386898">
        <ele>584.324273</ele>
        <time>2020-09-10T13:21:46.624Z</time>
      </trkpt>
      <trkpt lat="48.169619" lon="10.386933">
        <ele>584.460207</ele>
        <time>2020-09-10T13:21:48.627Z</time>
      </trkpt>
      <trkpt lat="48.169490" lon="10.386965">
        <ele>584.607971</ele>
        <time>2020-09-10T13:21:50.621Z</time>
      </trkpt>
      <trkpt lat="48.169360" lon="10.387003">
        <ele>584.757648</ele>
        <time>2020-09-10T13:21:52.630Z</time>
      </trkpt>
      <trkpt lat="48.169228" lon="10.387053">
        <ele>584.911506</ele>
        <time>2020-09-10T13:21:54.625Z</time>
      </trkpt>
      <trkpt lat="48.169103" lon="10.387106">
        <ele>585.058307</ele>
        <time>2020-09-10T13:21:56.620Z</time>
      </trkpt>
      <trkpt lat="48.168976" lon="10.387154">
        <ele>585.206318</ele>
        <time>2020-09-10T13:21:58.619Z</time>
      </trkpt>
      <trkpt lat="48.168858" lon="10.387200">
        <ele>585.344102</ele>
        <time>2020-09-10T13:22:00.621Z</time>
      </trkpt>
      <trkpt lat="48.168742" lon="10.387248">
        <ele>585.480093</ele>
        <time>2020-09-10T13:22:02.624Z</time>
      </trkpt>
      <trkpt lat="48.168625" lon="10.387314">
        <ele>585.621361</ele>
        <time>2020-09-10T13:22:04.619Z</time>
      </trkpt>
      <trkpt lat="48.168501" lon="10.387376">
        <ele>585.769079</ele>
        <time>2020-09-10T13:22:06.619Z</time>
      </trkpt>
      <trkpt lat="48.168384" lon="10.387437">
        <ele>585.528261</ele>
        <time>2020-09-10T13:22:08.624Z</time>
      </trkpt>
      <trkpt lat="48.168277" lon="10.387499">
        <ele>585.275255</ele>
        <time>2020-09-10T13:22:10.628Z</time>
      </trkpt>
      <trkpt lat="48.168173" lon="10.387566">
        <ele>585.025599</ele>
        <time>2020-09-10T13:22:12.628Z</time>
      </trkpt>
      <trkpt lat="48.168067" lon="10.387631">
        <ele>584.773012</ele>
        <time>2020-09-10T13:22:14.631Z</time>
      </trkpt>
      <trkpt lat="48.167959" lon="10.387704">
        <ele>584.511725</ele>
        <time>2020-09-10T13:22:16.627Z</time>
      </trkpt>
      <trkpt lat="48.167847" lon="10.387784">
        <ele>584.238102</ele>
        <time>2020-09-10T13:22:18.643Z</time>
      </trkpt>
      <trkpt lat="48.167732" lon="10.387864">
        <ele>583.958491</ele>
        <time>2020-09-10T13:22:20.626Z</time>
      </trkpt>
      <trkpt lat="48.167611" lon="10.387950">
        <ele>583.663151</ele>
        <time>2020-09-10T13:22:22.614Z</time>
      </trkpt>
      <trkpt lat="48.167488" lon="10.388048">
        <ele>583.355941</ele>
        <time>2020-09-10T13:22:24.620Z</time>
      </trkpt>
      <trkpt lat="48.167366" lon="10.388138">
        <ele>583.056056</ele>
        <time>2020-09-10T13:22:26.618Z</time>
      </trkpt>
      <trkpt lat="48.167244" lon="10.388228">
        <ele>582.756170</ele>
        <time>2020-09-10T13:22:28.608Z</time>
      </trkpt>
      <trkpt lat="48.167116" lon="10.388320">
        <ele>582.443095</ele>
        <time>2020-09-10T13:22:30.621Z</time>
      </trkpt>
      <trkpt lat="48.166995" lon="10.388416">
        <ele>582.141160</ele>
        <time>2020-09-10T13:22:32.627Z</time>
      </trkpt>
      <trkpt lat="48.166868" lon="10.388515">
        <ele>581.825457</ele>
        <time>2020-09-10T13:22:34.629Z</time>
      </trkpt>
      <trkpt lat="48.166748" lon="10.388609">
        <ele>581.736183</ele>
        <time>2020-09-10T13:22:36.623Z</time>
      </trkpt>
      <trkpt lat="48.166632" lon="10.388708">
        <ele>581.657142</ele>
        <time>2020-09-10T13:22:38.622Z</time>
      </trkpt>
      <trkpt lat="48.166515" lon="10.388791">
        <ele>581.580494</ele>
        <time>2020-09-10T13:22:40.623Z</time>
      </trkpt>
      <trkpt lat="48.166405" lon="10.388872">
        <ele>581.507923</ele>
        <time>2020-09-10T13:22:42.626Z</time>
      </trkpt>
      <trkpt lat="48.166299" lon="10.388953">
        <ele>581.437470</ele>
        <time>2020-09-10T13:22:44.617Z</time>
      </trkpt>
      <trkpt lat="48.166196" lon="10.389040">
        <ele>581.367463</ele>
        <time>2020-09-10T13:22:46.629Z</time>
      </trkpt>
      <trkpt lat="48.166097" lon="10.389125">
        <ele>581.299906</ele>
        <time>2020-09-10T13:22:48.627Z</time>
      </trkpt>
      <trkpt lat="48.165982" lon="10.389208">
        <ele>581.224327</ele>
        <time>2020-09-10T13:22:50.629Z</time>
      </trkpt>
      <trkpt lat="48.165865" lon="10.389294">
        <ele>581.147164</ele>
        <time>2020-09-10T13:22:52.627Z</time>
      </trkpt>
      <trkpt lat="48.165740" lon="10.389386">
        <ele>581.064705</ele>
        <time>2020-09-10T13:22:54.627Z</time>
      </trkpt>
      <trkpt lat="48.165619" lon="10.389480">
        <ele>580.984005</ele>
        <time>2020-09-10T13:22:56.623Z</time>
      </trkpt>
      <trkpt lat="48.165499" lon="10.389574">
        <ele>580.903830</ele>
        <time>2020-09-10T13:22:58.617Z</time>
      </trkpt>
      <trkpt lat="48.165379" lon="10.389672">
        <ele>580.822911</ele>
        <time>2020-09-10T13:23:00.620Z</time>
      </trkpt>
      <trkpt lat="48.165256" lon="10.389765">
        <ele>580.750210</ele>
        <time>2020-09-10T13:23:02.627Z</time>
      </trkpt>
      <trkpt lat="48.165138" lon="10.389846">
        <ele>580.777075</ele>
        <time>2020-09-10T13:23:04.681Z</time>
      </trkpt>
      <trkpt lat="48.165026" lon="10.389930">
        <ele>580.802998</ele>
        <time>2020-09-10T13:23:06.660Z</time>
      </trkpt>
      <trkpt lat="48.164916" lon="10.390005">
        <ele>580.828012</ele>
        <time>2020-09-10T13:23:08.615Z</time>
      </trkpt>
      <trkpt lat="48.164813" lon="10.390091">
        <ele>580.852417</ele>
        <time>2020-09-10T13:23:10.627Z</time>
      </trkpt>
      <trkpt lat="48.164697" lon="10.390174">
        <ele>580.879024</ele>
        <time>2020-09-10T13:23:12.627Z</time>
      </trkpt>
      <trkpt lat="48.164584" lon="10.390252">
        <ele>580.904776</ele>
        <time>2020-09-10T13:23:14.626Z</time>
      </trkpt>
      <trkpt lat="48.164465" lon="10.390333">
        <ele>580.931829</ele>
        <time>2020-09-10T13:23:16.618Z</time>
      </trkpt>
      <trkpt lat="48.164350" lon="10.390399">
        <ele>580.957319</ele>
        <time>2020-09-10T13:23:18.633Z</time>
      </trkpt>
      <trkpt lat="48.164229" lon="10.390456">
        <ele>580.983573</ele>
        <time>2020-09-10T13:23:20.629Z</time>
      </trkpt>
      <trkpt lat="48.164105" lon="10.390514">
        <ele>581.010462</ele>
        <time>2020-09-10T13:23:22.622Z</time>
      </trkpt>
      <trkpt lat="48.163990" lon="10.390575">
        <ele>581.035714</ele>
        <time>2020-09-10T13:23:24.624Z</time>
      </trkpt>
      <trkpt lat="48.163873" lon="10.390625">
        <ele>581.060898</ele>
        <time>2020-09-10T13:23:26.629Z</time>
      </trkpt>
      <trkpt lat="48.163763" lon="10.390675">
        <ele>581.084692</ele>
        <time>2020-09-10T13:23:28.628Z</time>
      </trkpt>
      <trkpt lat="48.163664" lon="10.390717">
        <ele>581.105990</ele>
        <time>2020-09-10T13:23:30.632Z</time>
      </trkpt>
      <trkpt lat="48.163574" lon="10.390759">
        <ele>581.131796</ele>
        <time>2020-09-10T13:23:32.624Z</time>
      </trkpt>
      <trkpt lat="48.163486" lon="10.390836">
        <ele>581.178103</ele>
        <time>2020-09-10T13:23:34.632Z</time>
      </trkpt>
      <trkpt lat="48.163409" lon="10.390929">
        <ele>581.223041</ele>
        <time>2020-09-10T13:23:36.613Z</time>
      </trkpt>
      <trkpt lat="48.163320" lon="10.391105">
        <ele>581.289994</ele>
        <time>2020-09-10T13:24:06.623Z</time>
      </trkpt>
      <trkpt lat="48.163282" lon="10.391234">
        <ele>581.332743</ele>
        <time>2020-09-10T13:24:10.614Z</time>
      </trkpt>
      <trkpt lat="48.163167" lon="10.391268">
        <ele>581.386014</ele>
        <time>2020-09-10T13:24:13.619Z</time>
      </trkpt>
      <trkpt lat="48.163055" lon="10.391316">
        <ele>581.438955</ele>
        <time>2020-09-10T13:24:15.614Z</time>
      </trkpt>
      <trkpt lat="48.162944" lon="10.391345">
        <ele>581.490162</ele>
        <time>2020-09-10T13:24:17.624Z</time>
      </trkpt>
      <trkpt lat="48.162840" lon="10.391362">
        <ele>581.537708</ele>
        <time>2020-09-10T13:24:19.632Z</time>
      </trkpt>
      <trkpt lat="48.162728" lon="10.391381">
        <ele>581.588935</ele>
        <time>2020-09-10T13:24:21.629Z</time>
      </trkpt>
      <trkpt lat="48.162615" lon="10.391417">
        <ele>581.641438</ele>
        <time>2020-09-10T13:24:23.628Z</time>
      </trkpt>
      <trkpt lat="48.162497" lon="10.391470">
        <ele>581.697421</ele>
        <time>2020-09-10T13:24:25.627Z</time>
      </trkpt>
      <trkpt lat="48.162374" lon="10.391517">
        <ele>581.755109</ele>
        <time>2020-09-10T13:24:27.631Z</time>
      </trkpt>
      <trkpt lat="48.162254" lon="10.391557">
        <ele>581.810978</ele>
        <time>2020-09-10T13:24:29.632Z</time>
      </trkpt>
      <trkpt lat="48.162135" lon="10.391604">
        <ele>581.866907</ele>
        <time>2020-09-10T13:24:31.626Z</time>
      </trkpt>
      <trkpt lat="48.162015" lon="10.391662">
        <ele>581.924208</ele>
        <time>2020-09-10T13:24:33.595Z</time>
      </trkpt>
      <trkpt lat="48.161913" lon="10.391713">
        <ele>581.948805</ele>
        <time>2020-09-10T13:24:35.632Z</time>
      </trkpt>
      <trkpt lat="48.161797" lon="10.391724">
        <ele>581.965405</ele>
        <time>2020-09-10T13:24:37.606Z</time>
      </trkpt>
      <trkpt lat="48.161676" lon="10.391739">
        <ele>581.982745</ele>
        <time>2020-09-10T13:24:39.609Z</time>
      </trkpt>
      <trkpt lat="48.161557" lon="10.391752">
        <ele>581.999786</ele>
        <time>2020-09-10T13:24:41.605Z</time>
      </trkpt>
      <trkpt lat="48.161443" lon="10.391746">
        <ele>582.016078</ele>
        <time>2020-09-10T13:24:43.602Z</time>
      </trkpt>
      <trkpt lat="48.161332" lon="10.391750">
        <ele>582.031936</ele>
        <time>2020-09-10T13:24:45.628Z</time>
      </trkpt>
      <trkpt lat="48.161215" lon="10.391756">
        <ele>582.048656</ele>
        <time>2020-09-10T13:24:47.604Z</time>
      </trkpt>
      <trkpt lat="48.161097" lon="10.391752">
        <ele>582.065513</ele>
        <time>2020-09-10T13:24:49.624Z</time>
      </trkpt>
      <trkpt lat="48.160973" lon="10.391745">
        <ele>582.083235</ele>
        <time>2020-09-10T13:24:51.617Z</time>
      </trkpt>
      <trkpt lat="48.160848" lon="10.391737">
        <ele>582.101104</ele>
        <time>2020-09-10T13:24:53.626Z</time>
      </trkpt>
      <trkpt lat="48.160737" lon="10.391726">
        <ele>582.116992</ele>
        <time>2020-09-10T13:24:55.617Z</time>
      </trkpt>
      <trkpt lat="48.160612" lon="10.391729">
        <ele>582.134847</ele>
        <time>2020-09-10T13:24:57.619Z</time>
      </trkpt>
      <trkpt lat="48.160497" lon="10.391711">
        <ele>582.151361</ele>
        <time>2020-09-10T13:24:59.623Z</time>
      </trkpt>
      <trkpt lat="48.160376" lon="10.391664">
        <ele>582.169213</ele>
        <time>2020-09-10T13:25:01.612Z</time>
      </trkpt>
      <trkpt lat="48.160248" lon="10.391650">
        <ele>582.187543</ele>
        <time>2020-09-10T13:25:03.627Z</time>
      </trkpt>
      <trkpt lat="48.160120" lon="10.391645">
        <ele>582.260233</ele>
        <time>2020-09-10T13:25:05.628Z</time>
      </trkpt>
      <trkpt lat="48.159990" lon="10.391646">
        <ele>582.368484</ele>
        <time>2020-09-10T13:25:07.624Z</time>
      </trkpt>
      <trkpt lat="48.159863" lon="10.391657">
        <ele>582.474413</ele>
        <time>2020-09-10T13:25:09.630Z</time>
      </trkpt>
      <trkpt lat="48.159748" lon="10.391664">
        <ele>582.570251</ele>
        <time>2020-09-10T13:25:11.630Z</time>
      </trkpt>
      <trkpt lat="48.159633" lon="10.391666">
        <ele>582.666017</ele>
        <time>2020-09-10T13:25:13.628Z</time>
      </trkpt>
      <trkpt lat="48.159518" lon="10.391655">
        <ele>582.761971</ele>
        <time>2020-09-10T13:25:15.619Z</time>
      </trkpt>
      <trkpt lat="48.159402" lon="10.391656">
        <ele>582.858565</ele>
        <time>2020-09-10T13:25:17.624Z</time>
      </trkpt>
      <trkpt lat="48.159285" lon="10.391662">
        <ele>582.956047</ele>
        <time>2020-09-10T13:25:19.629Z</time>
      </trkpt>
      <trkpt lat="48.159173" lon="10.391670">
        <ele>583.049415</ele>
        <time>2020-09-10T13:25:21.623Z</time>
      </trkpt>
      <trkpt lat="48.159061" lon="10.391667">
        <ele>583.142691</ele>
        <time>2020-09-10T13:25:23.617Z</time>
      </trkpt>
      <trkpt lat="48.158954" lon="10.391665">
        <ele>583.231796</ele>
        <time>2020-09-10T13:25:25.619Z</time>
      </trkpt>
      <trkpt lat="48.158848" lon="10.391680">
        <ele>583.320454</ele>
        <time>2020-09-10T13:25:27.606Z</time>
      </trkpt>
      <trkpt lat="48.158740" lon="10.391681">
        <ele>583.410386</ele>
        <time>2020-09-10T13:25:29.607Z</time>
      </trkpt>
      <trkpt lat="48.158625" lon="10.391676">
        <ele>583.506186</ele>
        <time>2020-09-10T13:25:31.598Z</time>
      </trkpt>
      <trkpt lat="48.158513" lon="10.391680">
        <ele>583.599474</ele>
        <time>2020-09-10T13:25:33.618Z</time>
      </trkpt>
      <trkpt lat="48.158399" lon="10.391688">
        <ele>583.696289</ele>
        <time>2020-09-10T13:25:35.615Z</time>
      </trkpt>
      <trkpt lat="48.158284" lon="10.391693">
        <ele>583.869040</ele>
        <time>2020-09-10T13:25:37.621Z</time>
      </trkpt>
      <trkpt lat="48.158156" lon="10.391694">
        <ele>584.061241</ele>
        <time>2020-09-10T13:25:39.623Z</time>
      </trkpt>
      <trkpt lat="48.158035" lon="10.391697">
        <ele>584.242954</ele>
        <time>2020-09-10T13:25:41.617Z</time>
      </trkpt>
      <trkpt lat="48.157924" lon="10.391695">
        <ele>584.409638</ele>
        <time>2020-09-10T13:25:43.628Z</time>
      </trkpt>
      <trkpt lat="48.157809" lon="10.391692">
        <ele>584.582342</ele>
        <time>2020-09-10T13:25:45.618Z</time>
      </trkpt>
      <trkpt lat="48.157704" lon="10.391686">
        <ele>584.740119</ele>
        <time>2020-09-10T13:25:47.620Z</time>
      </trkpt>
      <trkpt lat="48.157603" lon="10.391697">
        <ele>584.892176</ele>
        <time>2020-09-10T13:25:49.621Z</time>
      </trkpt>
      <trkpt lat="48.157509" lon="10.391704">
        <ele>585.033495</ele>
        <time>2020-09-10T13:25:51.620Z</time>
      </trkpt>
      <trkpt lat="48.157369" lon="10.391705">
        <ele>585.243715</ele>
        <time>2020-09-10T13:25:54.616Z</time>
      </trkpt>
      <trkpt lat="48.157266" lon="10.391704">
        <ele>585.398378</ele>
        <time>2020-09-10T13:25:56.621Z</time>
      </trkpt>
      <trkpt lat="48.157161" lon="10.391703">
        <ele>585.556044</ele>
        <time>2020-09-10T13:25:58.601Z</time>
      </trkpt>
      <trkpt lat="48.157055" lon="10.391712">
        <ele>585.715463</ele>
        <time>2020-09-10T13:26:00.629Z</time>
      </trkpt>
      <trkpt lat="48.156949" lon="10.391711">
        <ele>585.874631</ele>
        <time>2020-09-10T13:26:02.627Z</time>
      </trkpt>
      <trkpt lat="48.156846" lon="10.391708">
        <ele>586.029319</ele>
        <time>2020-09-10T13:26:04.622Z</time>
      </trkpt>
      <trkpt lat="48.156753" lon="10.391709">
        <ele>586.168967</ele>
        <time>2020-09-10T13:26:06.635Z</time>
      </trkpt>
      <trkpt lat="48.156625" lon="10.391716">
        <ele>586.361293</ele>
        <time>2020-09-10T13:26:09.625Z</time>
      </trkpt>
      <trkpt lat="48.156535" lon="10.391723">
        <ele>586.510245</ele>
        <time>2020-09-10T13:26:11.626Z</time>
      </trkpt>
      <trkpt lat="48.156444" lon="10.391724">
        <ele>586.664871</ele>
        <time>2020-09-10T13:26:13.617Z</time>
      </trkpt>
      <trkpt lat="48.156341" lon="10.391741">
        <ele>586.840940</ele>
        <time>2020-09-10T13:26:17.611Z</time>
      </trkpt>
      <trkpt lat="48.156335" lon="10.391572">
        <ele>587.032773</ele>
        <time>2020-09-10T13:26:31.607Z</time>
      </trkpt>
      <trkpt lat="48.156258" lon="10.391498">
        <ele>587.188186</ele>
        <time>2020-09-10T13:26:34.613Z</time>
      </trkpt>
      <trkpt lat="48.156129" lon="10.391514">
        <ele>587.408124</ele>
        <time>2020-09-10T13:26:37.608Z</time>
      </trkpt>
      <trkpt lat="48.156032" lon="10.391521">
        <ele>587.573132</ele>
        <time>2020-09-10T13:26:39.622Z</time>
      </trkpt>
      <trkpt lat="48.155924" lon="10.391516">
        <ele>587.756727</ele>
        <time>2020-09-10T13:26:41.628Z</time>
      </trkpt>
      <trkpt lat="48.155819" lon="10.391513">
        <ele>587.935169</ele>
        <time>2020-09-10T13:26:43.625Z</time>
      </trkpt>
      <trkpt lat="48.155719" lon="10.391505">
        <ele>588.105325</ele>
        <time>2020-09-10T13:26:45.624Z</time>
      </trkpt>
      <trkpt lat="48.155606" lon="10.391500">
        <ele>588.297412</ele>
        <time>2020-09-10T13:26:47.622Z</time>
      </trkpt>
      <trkpt lat="48.155491" lon="10.391487">
        <ele>588.493368</ele>
        <time>2020-09-10T13:26:49.624Z</time>
      </trkpt>
      <trkpt lat="48.155375" lon="10.391484">
        <ele>588.690498</ele>
        <time>2020-09-10T13:26:51.621Z</time>
      </trkpt>
      <trkpt lat="48.155269" lon="10.391500">
        <ele>588.871518</ele>
        <time>2020-09-10T13:26:53.629Z</time>
      </trkpt>
      <trkpt lat="48.155167" lon="10.391499">
        <ele>589.044835</ele>
        <time>2020-09-10T13:26:55.630Z</time>
      </trkpt>
      <trkpt lat="48.155059" lon="10.391501">
        <ele>589.228356</ele>
        <time>2020-09-10T13:26:57.629Z</time>
      </trkpt>
      <trkpt lat="48.154951" lon="10.391496">
        <ele>589.411951</ele>
        <time>2020-09-10T13:26:59.627Z</time>
      </trkpt>
      <trkpt lat="48.154833" lon="10.391504">
        <ele>589.595610</ele>
        <time>2020-09-10T13:27:01.613Z</time>
      </trkpt>
      <trkpt lat="48.154724" lon="10.391511">
        <ele>589.761658</ele>
        <time>2020-09-10T13:27:03.625Z</time>
      </trkpt>
      <trkpt lat="48.154609" lon="10.391515">
        <ele>589.936732</ele>
        <time>2020-09-10T13:27:05.612Z</time>
      </trkpt>
      <trkpt lat="48.154493" lon="10.391524">
        <ele>590.113518</ele>
        <time>2020-09-10T13:27:07.616Z</time>
      </trkpt>
      <trkpt lat="48.154378" lon="10.391525">
        <ele>590.288548</ele>
        <time>2020-09-10T13:27:09.619Z</time>
      </trkpt>
      <trkpt lat="48.154260" lon="10.391518">
        <ele>590.468281</ele>
        <time>2020-09-10T13:27:11.617Z</time>
      </trkpt>
      <trkpt lat="48.154141" lon="10.391520">
        <ele>590.649408</ele>
        <time>2020-09-10T13:27:13.621Z</time>
      </trkpt>
      <trkpt lat="48.154022" lon="10.391521">
        <ele>590.830526</ele>
        <time>2020-09-10T13:27:15.617Z</time>
      </trkpt>
      <trkpt lat="48.153905" lon="10.391527">
        <ele>591.008701</ele>
        <time>2020-09-10T13:27:17.619Z</time>
      </trkpt>
      <trkpt lat="48.153790" lon="10.391524">
        <ele>591.183755</ele>
        <time>2020-09-10T13:27:19.625Z</time>
      </trkpt>
      <trkpt lat="48.153672" lon="10.391529">
        <ele>591.363420</ele>
        <time>2020-09-10T13:27:21.623Z</time>
      </trkpt>
      <trkpt lat="48.153550" lon="10.391529">
        <ele>591.549101</ele>
        <time>2020-09-10T13:27:23.619Z</time>
      </trkpt>
      <trkpt lat="48.153427" lon="10.391536">
        <ele>591.736439</ele>
        <time>2020-09-10T13:27:25.618Z</time>
      </trkpt>
      <trkpt lat="48.153312" lon="10.391535">
        <ele>591.911469</ele>
        <time>2020-09-10T13:27:27.622Z</time>
      </trkpt>
      <trkpt lat="48.153187" lon="10.391535">
        <ele>592.101716</ele>
        <time>2020-09-10T13:27:29.621Z</time>
      </trkpt>
      <trkpt lat="48.153062" lon="10.391538">
        <ele>592.203541</ele>
        <time>2020-09-10T13:27:31.628Z</time>
      </trkpt>
      <trkpt lat="48.152932" lon="10.391540">
        <ele>592.235223</ele>
        <time>2020-09-10T13:27:33.625Z</time>
      </trkpt>
      <trkpt lat="48.152804" lon="10.391540">
        <ele>592.266416</ele>
        <time>2020-09-10T13:27:35.628Z</time>
      </trkpt>
      <trkpt lat="48.152674" lon="10.391542">
        <ele>592.298099</ele>
        <time>2020-09-10T13:27:37.630Z</time>
      </trkpt>
      <trkpt lat="48.152543" lon="10.391535">
        <ele>592.330044</ele>
        <time>2020-09-10T13:27:39.631Z</time>
      </trkpt>
      <trkpt lat="48.152412" lon="10.391535">
        <ele>592.361968</ele>
        <time>2020-09-10T13:27:41.620Z</time>
      </trkpt>
      <trkpt lat="48.152281" lon="10.391534">
        <ele>592.393893</ele>
        <time>2020-09-10T13:27:43.620Z</time>
      </trkpt>
      <trkpt lat="48.152152" lon="10.391536">
        <ele>592.425331</ele>
        <time>2020-09-10T13:27:45.615Z</time>
      </trkpt>
      <trkpt lat="48.152026" lon="10.391538">
        <ele>592.456039</ele>
        <time>2020-09-10T13:27:47.611Z</time>
      </trkpt>
      <trkpt lat="48.151899" lon="10.391546">
        <ele>592.487016</ele>
        <time>2020-09-10T13:27:49.614Z</time>
      </trkpt>
      <trkpt lat="48.151766" lon="10.391565">
        <ele>592.519575</ele>
        <time>2020-09-10T13:27:51.615Z</time>
      </trkpt>
      <trkpt lat="48.151642" lon="10.391591">
        <ele>592.550087</ele>
        <time>2020-09-10T13:27:53.614Z</time>
      </trkpt>
      <trkpt lat="48.151520" lon="10.391629">
        <ele>592.580454</ele>
        <time>2020-09-10T13:27:55.607Z</time>
      </trkpt>
      <trkpt lat="48.151405" lon="10.391671">
        <ele>592.609299</ele>
        <time>2020-09-10T13:27:57.618Z</time>
      </trkpt>
      <trkpt lat="48.151287" lon="10.391714">
        <ele>592.581040</ele>
        <time>2020-09-10T13:27:59.621Z</time>
      </trkpt>
      <trkpt lat="48.151168" lon="10.391758">
        <ele>592.486488</ele>
        <time>2020-09-10T13:28:01.626Z</time>
      </trkpt>
      <trkpt lat="48.151046" lon="10.391810">
        <ele>592.388643</ele>
        <time>2020-09-10T13:28:03.621Z</time>
      </trkpt>
      <trkpt lat="48.150926" lon="10.391865">
        <ele>592.291841</ele>
        <time>2020-09-10T13:28:05.622Z</time>
      </trkpt>
      <trkpt lat="48.150807" lon="10.391931">
        <ele>592.193959</ele>
        <time>2020-09-10T13:28:07.622Z</time>
      </trkpt>
      <trkpt lat="48.150686" lon="10.391996">
        <ele>592.094803</ele>
        <time>2020-09-10T13:28:09.616Z</time>
      </trkpt>
      <trkpt lat="48.150564" lon="10.392068">
        <ele>591.993657</ele>
        <time>2020-09-10T13:28:11.624Z</time>
      </trkpt>
      <trkpt lat="48.150442" lon="10.392153">
        <ele>591.889872</ele>
        <time>2020-09-10T13:28:13.623Z</time>
      </trkpt>
      <trkpt lat="48.150313" lon="10.392233">
        <ele>591.782177</ele>
        <time>2020-09-10T13:28:15.624Z</time>
      </trkpt>
      <trkpt lat="48.150169" lon="10.392231">
        <ele>591.671087</ele>
        <time>2020-09-10T13:28:17.608Z</time>
      </trkpt>
      <trkpt lat="48.150068" lon="10.392062">
        <ele>591.554313</ele>
        <time>2020-09-10T13:28:19.603Z</time>
      </trkpt>
      <trkpt lat="48.149973" lon="10.391874">
        <ele>591.432932</ele>
        <time>2020-09-10T13:28:21.616Z</time>
      </trkpt>
      <trkpt lat="48.149877" lon="10.391725">
        <ele>591.326324</ele>
        <time>2020-09-10T13:28:23.634Z</time>
      </trkpt>
      <trkpt lat="48.149766" lon="10.391581">
        <ele>591.223221</ele>
        <time>2020-09-10T13:28:25.610Z</time>
      </trkpt>
      <trkpt lat="48.149655" lon="10.391438">
        <ele>591.157233</ele>
        <time>2020-09-10T13:28:27.625Z</time>
      </trkpt>
      <trkpt lat="48.149545" lon="10.391305">
        <ele>591.093517</ele>
        <time>2020-09-10T13:28:29.627Z</time>
      </trkpt>
      <trkpt lat="48.149434" lon="10.391177">
        <ele>591.030377</ele>
        <time>2020-09-10T13:28:31.630Z</time>
      </trkpt>
      <trkpt lat="48.149328" lon="10.391047">
        <ele>590.968629</ele>
        <time>2020-09-10T13:28:33.615Z</time>
      </trkpt>
      <trkpt lat="48.149221" lon="10.390925">
        <ele>590.908017</ele>
        <time>2020-09-10T13:28:35.627Z</time>
      </trkpt>
      <trkpt lat="48.149124" lon="10.390804">
        <ele>590.851122</ele>
        <time>2020-09-10T13:28:37.622Z</time>
      </trkpt>
      <trkpt lat="48.149026" lon="10.390696">
        <ele>590.796282</ele>
        <time>2020-09-10T13:28:39.618Z</time>
      </trkpt>
      <trkpt lat="48.148930" lon="10.390577">
        <ele>590.740118</ele>
        <time>2020-09-10T13:28:41.615Z</time>
      </trkpt>
      <trkpt lat="48.148828" lon="10.390456">
        <ele>590.681472</ele>
        <time>2020-09-10T13:28:43.624Z</time>
      </trkpt>
      <trkpt lat="48.148726" lon="10.390329">
        <ele>590.621689</ele>
        <time>2020-09-10T13:28:45.620Z</time>
      </trkpt>
      <trkpt lat="48.148637" lon="10.390189">
        <ele>590.563522</ele>
        <time>2020-09-10T13:28:47.627Z</time>
      </trkpt>
      <trkpt lat="48.148548" lon="10.390039">
        <ele>590.503142</ele>
        <time>2020-09-10T13:28:49.617Z</time>
      </trkpt>
      <trkpt lat="48.148463" lon="10.389889">
        <ele>590.443945</ele>
        <time>2020-09-10T13:28:51.618Z</time>
      </trkpt>
      <trkpt lat="48.148387" lon="10.389727">
        <ele>590.545545</ele>
        <time>2020-09-10T13:28:53.620Z</time>
      </trkpt>
      <trkpt lat="48.148333" lon="10.389558">
        <ele>590.704349</ele>
        <time>2020-09-10T13:28:55.603Z</time>
      </trkpt>
      <trkpt lat="48.148294" lon="10.389374">
        <ele>590.867968</ele>
        <time>2020-09-10T13:28:57.608Z</time>
      </trkpt>
      <trkpt lat="48.148244" lon="10.389209">
        <ele>591.021551</ele>
        <time>2020-09-10T13:28:59.619Z</time>
      </trkpt>
      <trkpt lat="48.148157" lon="10.389172">
        <ele>591.136423</ele>
        <time>2020-09-10T13:29:01.652Z</time>
      </trkpt>
      <trkpt lat="48.148091" lon="10.389277">
        <ele>591.258680</ele>
        <time>2020-09-10T13:29:03.596Z</time>
      </trkpt>
      <trkpt lat="48.148048" lon="10.389404">
        <ele>591.379378</ele>
        <time>2020-09-10T13:29:05.613Z</time>
      </trkpt>
      <trkpt lat="48.147999" lon="10.389521">
        <ele>591.496451</ele>
        <time>2020-09-10T13:29:07.642Z</time>
      </trkpt>
      <trkpt lat="48.147915" lon="10.389677">
        <ele>591.666345</ele>
        <time>2020-09-10T13:29:10.613Z</time>
      </trkpt>
      <trkpt lat="48.147819" lon="10.389813">
        <ele>591.834138</ele>
        <time>2020-09-10T13:29:13.625Z</time>
      </trkpt>
      <trkpt lat="48.147726" lon="10.389937">
        <ele>591.992248</ele>
        <time>2020-09-10T13:29:16.629Z</time>
      </trkpt>
      <trkpt lat="48.147624" lon="10.390048">
        <ele>592.152360</ele>
        <time>2020-09-10T13:29:19.628Z</time>
      </trkpt>
      <trkpt lat="48.147519" lon="10.390167">
        <ele>592.319572</ele>
        <time>2020-09-10T13:29:22.625Z</time>
      </trkpt>
      <trkpt lat="48.147422" lon="10.390295">
        <ele>592.483733</ele>
        <time>2020-09-10T13:29:25.633Z</time>
      </trkpt>
      <trkpt lat="48.147328" lon="10.390413">
        <ele>592.639482</ele>
        <time>2020-09-10T13:29:28.618Z</time>
      </trkpt>
      <trkpt lat="48.147229" lon="10.390536">
        <ele>592.885944</ele>
        <time>2020-09-10T13:29:31.632Z</time>
      </trkpt>
      <trkpt lat="48.147139" lon="10.390648">
        <ele>593.169424</ele>
        <time>2020-09-10T13:29:34.618Z</time>
      </trkpt>
      <trkpt lat="48.147051" lon="10.390761">
        <ele>593.450242</ele>
        <time>2020-09-10T13:29:37.621Z</time>
      </trkpt>
      <trkpt lat="48.146958" lon="10.390886">
        <ele>593.752963</ele>
        <time>2020-09-10T13:29:40.619Z</time>
      </trkpt>
      <trkpt lat="48.146860" lon="10.391011">
        <ele>594.064810</ele>
        <time>2020-09-10T13:29:43.623Z</time>
      </trkpt>
      <trkpt lat="48.146785" lon="10.391097">
        <ele>594.293651</ele>
        <time>2020-09-10T13:29:45.618Z</time>
      </trkpt>
      <trkpt lat="48.146711" lon="10.391194">
        <ele>594.531887</ele>
        <time>2020-09-10T13:29:47.620Z</time>
      </trkpt>
      <trkpt lat="48.146637" lon="10.391285">
        <ele>594.763850</ele>
        <time>2020-09-10T13:29:49.627Z</time>
      </trkpt>
      <trkpt lat="48.146559" lon="10.391372">
        <ele>594.999469</ele>
        <time>2020-09-10T13:29:51.622Z</time>
      </trkpt>
      <trkpt lat="48.146481" lon="10.391462">
        <ele>595.238016</ele>
        <time>2020-09-10T13:29:53.631Z</time>
      </trkpt>
      <trkpt lat="48.146411" lon="10.391548">
        <ele>595.457359</ele>
        <time>2020-09-10T13:29:55.622Z</time>
      </trkpt>
      <trkpt lat="48.146336" lon="10.391640">
        <ele>595.692222</ele>
        <time>2020-09-10T13:29:57.625Z</time>
      </trkpt>
      <trkpt lat="48.146258" lon="10.391740">
        <ele>595.940964</ele>
        <time>2020-09-10T13:29:59.617Z</time>
      </trkpt>
      <trkpt lat="48.146175" lon="10.391838">
        <ele>596.197019</ele>
        <time>2020-09-10T13:30:01.632Z</time>
      </trkpt>
      <trkpt lat="48.146095" lon="10.391927">
        <ele>596.438457</ele>
        <time>2020-09-10T13:30:03.623Z</time>
      </trkpt>
      <trkpt lat="48.146014" lon="10.392014">
        <ele>596.679948</ele>
        <time>2020-09-10T13:30:05.627Z</time>
      </trkpt>
      <trkpt lat="48.145940" lon="10.392103">
        <ele>596.909876</ele>
        <time>2020-09-10T13:30:07.625Z</time>
      </trkpt>
      <trkpt lat="48.145865" lon="10.392200">
        <ele>597.084866</ele>
        <time>2020-09-10T13:30:09.617Z</time>
      </trkpt>
      <trkpt lat="48.145788" lon="10.392289">
        <ele>597.128822</ele>
        <time>2020-09-10T13:30:11.622Z</time>
      </trkpt>
      <trkpt lat="48.145711" lon="10.392379">
        <ele>597.172962</ele>
        <time>2020-09-10T13:30:13.616Z</time>
      </trkpt>
      <trkpt lat="48.145627" lon="10.392481">
        <ele>597.221832</ele>
        <time>2020-09-10T13:30:15.638Z</time>
      </trkpt>
      <trkpt lat="48.145553" lon="10.392597">
        <ele>597.270237</ele>
        <time>2020-09-10T13:30:17.614Z</time>
      </trkpt>
      <trkpt lat="48.145482" lon="10.392710">
        <ele>597.317052</ele>
        <time>2020-09-10T13:30:19.631Z</time>
      </trkpt>
      <trkpt lat="48.145415" lon="10.392824">
        <ele>597.362873</ele>
        <time>2020-09-10T13:30:21.624Z</time>
      </trkpt>
      <trkpt lat="48.145348" lon="10.392951">
        <ele>597.411705</ele>
        <time>2020-09-10T13:30:23.629Z</time>
      </trkpt>
      <trkpt lat="48.145285" lon="10.393087">
        <ele>597.461641</ele>
        <time>2020-09-10T13:30:25.627Z</time>
      </trkpt>
      <trkpt lat="48.145231" lon="10.393232">
        <ele>597.511726</ele>
        <time>2020-09-10T13:30:27.617Z</time>
      </trkpt>
      <trkpt lat="48.145169" lon="10.393389">
        <ele>597.566752</ele>
        <time>2020-09-10T13:30:29.619Z</time>
      </trkpt>
      <trkpt lat="48.145095" lon="10.393546">
        <ele>597.624730</ele>
        <time>2020-09-10T13:30:31.616Z</time>
      </trkpt>
      <trkpt lat="48.145032" lon="10.393707">
        <ele>597.681025</ele>
        <time>2020-09-10T13:30:33.614Z</time>
      </trkpt>
      <trkpt lat="48.144973" lon="10.393862">
        <ele>597.734848</ele>
        <time>2020-09-10T13:30:35.621Z</time>
      </trkpt>
      <trkpt lat="48.144908" lon="10.394009">
        <ele>597.788038</ele>
        <time>2020-09-10T13:30:37.631Z</time>
      </trkpt>
      <trkpt lat="48.144845" lon="10.394165">
        <ele>597.843037</ele>
        <time>2020-09-10T13:30:39.628Z</time>
      </trkpt>
      <trkpt lat="48.144782" lon="10.394316">
        <ele>597.836946</ele>
        <time>2020-09-10T13:30:41.629Z</time>
      </trkpt>
      <trkpt lat="48.144714" lon="10.394450">
        <ele>597.667036</ele>
        <time>2020-09-10T13:30:43.625Z</time>
      </trkpt>
      <trkpt lat="48.144653" lon="10.394584">
        <ele>597.503318</ele>
        <time>2020-09-10T13:30:45.629Z</time>
      </trkpt>
      <trkpt lat="48.144582" lon="10.394711">
        <ele>597.336098</ele>
        <time>2020-09-10T13:30:47.622Z</time>
      </trkpt>
      <trkpt lat="48.144500" lon="10.394821">
        <ele>597.169637</ele>
        <time>2020-09-10T13:30:49.615Z</time>
      </trkpt>
      <trkpt lat="48.144406" lon="10.394936">
        <ele>596.986097</ele>
        <time>2020-09-10T13:30:51.612Z</time>
      </trkpt>
      <trkpt lat="48.144318" lon="10.395035">
        <ele>596.819661</ele>
        <time>2020-09-10T13:30:53.633Z</time>
      </trkpt>
      <trkpt lat="48.144221" lon="10.395132">
        <ele>596.643277</ele>
        <time>2020-09-10T13:30:55.628Z</time>
      </trkpt>
      <trkpt lat="48.144113" lon="10.395218">
        <ele>596.458292</ele>
        <time>2020-09-10T13:30:57.616Z</time>
      </trkpt>
      <trkpt lat="48.144004" lon="10.395306">
        <ele>596.271020</ele>
        <time>2020-09-10T13:30:59.612Z</time>
      </trkpt>
      <trkpt lat="48.143899" lon="10.395397">
        <ele>596.087555</ele>
        <time>2020-09-10T13:31:01.617Z</time>
      </trkpt>
      <trkpt lat="48.143796" lon="10.395487">
        <ele>595.907213</ele>
        <time>2020-09-10T13:31:03.629Z</time>
      </trkpt>
      <trkpt lat="48.143703" lon="10.395561">
        <ele>595.747946</ele>
        <time>2020-09-10T13:31:05.623Z</time>
      </trkpt>
      <trkpt lat="48.143611" lon="10.395636">
        <ele>595.589533</ele>
        <time>2020-09-10T13:31:07.623Z</time>
      </trkpt>
      <trkpt lat="48.143517" lon="10.395713">
        <ele>595.427498</ele>
        <time>2020-09-10T13:31:09.617Z</time>
      </trkpt>
      <trkpt lat="48.143416" lon="10.395793">
        <ele>595.254703</ele>
        <time>2020-09-10T13:31:11.625Z</time>
      </trkpt>
      <trkpt lat="48.143314" lon="10.395879">
        <ele>595.195150</ele>
        <time>2020-09-10T13:31:13.626Z</time>
      </trkpt>
      <trkpt lat="48.143209" lon="10.395962">
        <ele>595.264531</ele>
        <time>2020-09-10T13:31:15.627Z</time>
      </trkpt>
      <trkpt lat="48.143100" lon="10.396050">
        <ele>595.336892</ele>
        <time>2020-09-10T13:31:17.604Z</time>
      </trkpt>
      <trkpt lat="48.142994" lon="10.396128">
        <ele>595.405909</ele>
        <time>2020-09-10T13:31:19.625Z</time>
      </trkpt>
      <trkpt lat="48.142897" lon="10.396217">
        <ele>595.472382</ele>
        <time>2020-09-10T13:31:21.624Z</time>
      </trkpt>
      <trkpt lat="48.142789" lon="10.396311">
        <ele>595.545376</ele>
        <time>2020-09-10T13:31:23.624Z</time>
      </trkpt>
      <trkpt lat="48.142677" lon="10.396410">
        <ele>595.621372</ele>
        <time>2020-09-10T13:31:25.624Z</time>
      </trkpt>
      <trkpt lat="48.142573" lon="10.396493">
        <ele>595.690237</ele>
        <time>2020-09-10T13:31:27.631Z</time>
      </trkpt>
      <trkpt lat="48.142470" lon="10.396581">
        <ele>595.759531</ele>
        <time>2020-09-10T13:31:29.622Z</time>
      </trkpt>
      <trkpt lat="48.142367" lon="10.396674">
        <ele>595.829811</ele>
        <time>2020-09-10T13:31:31.623Z</time>
      </trkpt>
      <trkpt lat="48.142264" lon="10.396755">
        <ele>595.897794</ele>
        <time>2020-09-10T13:31:33.627Z</time>
      </trkpt>
      <trkpt lat="48.142172" lon="10.396847">
        <ele>595.962436</ele>
        <time>2020-09-10T13:31:35.624Z</time>
      </trkpt>
      <trkpt lat="48.142080" lon="10.396935">
        <ele>596.026224</ele>
        <time>2020-09-10T13:31:37.629Z</time>
      </trkpt>
      <trkpt lat="48.141990" lon="10.397022">
        <ele>596.088818</ele>
        <time>2020-09-10T13:31:39.601Z</time>
      </trkpt>
      <trkpt lat="48.141903" lon="10.397125">
        <ele>596.153618</ele>
        <time>2020-09-10T13:31:41.606Z</time>
      </trkpt>
      <trkpt lat="48.141819" lon="10.397236">
        <ele>596.229440</ele>
        <time>2020-09-10T13:31:43.602Z</time>
      </trkpt>
      <trkpt lat="48.141736" lon="10.397341">
        <ele>596.413826</ele>
        <time>2020-09-10T13:31:45.609Z</time>
      </trkpt>
      <trkpt lat="48.141631" lon="10.397477">
        <ele>596.649417</ele>
        <time>2020-09-10T13:31:48.621Z</time>
      </trkpt>
      <trkpt lat="48.141563" lon="10.397579">
        <ele>596.812740</ele>
        <time>2020-09-10T13:31:50.613Z</time>
      </trkpt>
      <trkpt lat="48.141487" lon="10.397688">
        <ele>596.991316</ele>
        <time>2020-09-10T13:31:52.618Z</time>
      </trkpt>
      <trkpt lat="48.141413" lon="10.397797">
        <ele>597.167454</ele>
        <time>2020-09-10T13:31:54.618Z</time>
      </trkpt>
      <trkpt lat="48.141343" lon="10.397901">
        <ele>597.334782</ele>
        <time>2020-09-10T13:31:56.621Z</time>
      </trkpt>
      <trkpt lat="48.141256" lon="10.398029">
        <ele>597.541746</ele>
        <time>2020-09-10T13:31:59.617Z</time>
      </trkpt>
      <trkpt lat="48.141185" lon="10.398157">
        <ele>597.730292</ele>
        <time>2020-09-10T13:32:02.623Z</time>
      </trkpt>
      <trkpt lat="48.141107" lon="10.398272">
        <ele>597.916039</ele>
        <time>2020-09-10T13:32:05.598Z</time>
      </trkpt>
      <trkpt lat="48.141018" lon="10.398374">
        <ele>598.106237</ele>
        <time>2020-09-10T13:32:08.616Z</time>
      </trkpt>
      <trkpt lat="48.140903" lon="10.398417">
        <ele>598.307439</ele>
        <time>2020-09-10T13:32:11.609Z</time>
      </trkpt>
      <trkpt lat="48.140768" lon="10.398430">
        <ele>598.537080</ele>
        <time>2020-09-10T13:32:14.626Z</time>
      </trkpt>
      <trkpt lat="48.140667" lon="10.398446">
        <ele>598.709487</ele>
        <time>2020-09-10T13:32:16.623Z</time>
      </trkpt>
      <trkpt lat="48.140567" lon="10.398467">
        <ele>598.880900</ele>
        <time>2020-09-10T13:32:18.637Z</time>
      </trkpt>
      <trkpt lat="48.140471" lon="10.398489">
        <ele>599.045758</ele>
        <time>2020-09-10T13:32:20.618Z</time>
      </trkpt>
      <trkpt lat="48.140373" lon="10.398500">
        <ele>599.212583</ele>
        <time>2020-09-10T13:32:22.620Z</time>
      </trkpt>
      <trkpt lat="48.140275" lon="10.398509">
        <ele>599.252693</ele>
        <time>2020-09-10T13:32:24.618Z</time>
      </trkpt>
      <trkpt lat="48.140143" lon="10.398527">
        <ele>599.224247</ele>
        <time>2020-09-10T13:32:27.625Z</time>
      </trkpt>
      <trkpt lat="48.140041" lon="10.398543">
        <ele>599.202237</ele>
        <time>2020-09-10T13:32:29.620Z</time>
      </trkpt>
      <trkpt lat="48.139939" lon="10.398561">
        <ele>599.180195</ele>
        <time>2020-09-10T13:32:31.624Z</time>
      </trkpt>
      <trkpt lat="48.139831" lon="10.398574">
        <ele>599.156942</ele>
        <time>2020-09-10T13:32:33.628Z</time>
      </trkpt>
      <trkpt lat="48.139731" lon="10.398584">
        <ele>599.135432</ele>
        <time>2020-09-10T13:32:35.600Z</time>
      </trkpt>
      <trkpt lat="48.139626" lon="10.398602">
        <ele>599.112751</ele>
        <time>2020-09-10T13:32:37.612Z</time>
      </trkpt>
      <trkpt lat="48.139512" lon="10.398615">
        <ele>599.088214</ele>
        <time>2020-09-10T13:32:39.614Z</time>
      </trkpt>
      <trkpt lat="48.139403" lon="10.398626">
        <ele>599.064768</ele>
        <time>2020-09-10T13:32:41.604Z</time>
      </trkpt>
      <trkpt lat="48.139294" lon="10.398644">
        <ele>599.041233</ele>
        <time>2020-09-10T13:32:43.612Z</time>
      </trkpt>
      <trkpt lat="48.139183" lon="10.398673">
        <ele>599.017052</ele>
        <time>2020-09-10T13:32:45.613Z</time>
      </trkpt>
      <trkpt lat="48.139065" lon="10.398690">
        <ele>598.991610</ele>
        <time>2020-09-10T13:32:47.620Z</time>
      </trkpt>
      <trkpt lat="48.138948" lon="10.398714">
        <ele>598.966266</ele>
        <time>2020-09-10T13:32:49.619Z</time>
      </trkpt>
      <trkpt lat="48.138839" lon="10.398740">
        <ele>598.942579</ele>
        <time>2020-09-10T13:32:51.616Z</time>
      </trkpt>
      <trkpt lat="48.138730" lon="10.398752">
        <ele>598.919123</ele>
        <time>2020-09-10T13:32:53.622Z</time>
      </trkpt>
      <trkpt lat="48.138612" lon="10.398763">
        <ele>598.893749</ele>
        <time>2020-09-10T13:32:55.622Z</time>
      </trkpt>
      <trkpt lat="48.138489" lon="10.398775">
        <ele>598.859695</ele>
        <time>2020-09-10T13:32:57.616Z</time>
      </trkpt>
      <trkpt lat="48.138359" lon="10.398786">
        <ele>598.816117</ele>
        <time>2020-09-10T13:32:59.625Z</time>
      </trkpt>
      <trkpt lat="48.138230" lon="10.398796">
        <ele>598.772886</ele>
        <time>2020-09-10T13:33:01.624Z</time>
      </trkpt>
      <trkpt lat="48.138101" lon="10.398816">
        <ele>598.729481</ele>
        <time>2020-09-10T13:33:03.611Z</time>
      </trkpt>
      <trkpt lat="48.137979" lon="10.398822">
        <ele>598.688629</ele>
        <time>2020-09-10T13:33:05.626Z</time>
      </trkpt>
      <trkpt lat="48.137854" lon="10.398826">
        <ele>598.646784</ele>
        <time>2020-09-10T13:33:07.621Z</time>
      </trkpt>
      <trkpt lat="48.137721" lon="10.398836">
        <ele>598.602216</ele>
        <time>2020-09-10T13:33:09.624Z</time>
      </trkpt>
      <trkpt lat="48.137599" lon="10.398847">
        <ele>598.561311</ele>
        <time>2020-09-10T13:33:11.622Z</time>
      </trkpt>
      <trkpt lat="48.137477" lon="10.398858">
        <ele>598.520406</ele>
        <time>2020-09-10T13:33:13.625Z</time>
      </trkpt>
      <trkpt lat="48.137359" lon="10.398870">
        <ele>598.480823</ele>
        <time>2020-09-10T13:33:15.637Z</time>
      </trkpt>
      <trkpt lat="48.137254" lon="10.398886">
        <ele>598.445500</ele>
        <time>2020-09-10T13:33:17.611Z</time>
      </trkpt>
      <trkpt lat="48.137160" lon="10.398895">
        <ele>598.413976</ele>
        <time>2020-09-10T13:33:19.611Z</time>
      </trkpt>
      <trkpt lat="48.137071" lon="10.398915">
        <ele>598.383857</ele>
        <time>2020-09-10T13:33:21.614Z</time>
      </trkpt>
      <trkpt lat="48.136949" lon="10.399000">
        <ele>598.338828</ele>
        <time>2020-09-10T13:33:24.601Z</time>
      </trkpt>
      <trkpt lat="48.136878" lon="10.399093">
        <ele>598.307267</ele>
        <time>2020-09-10T13:33:26.592Z</time>
      </trkpt>
      <trkpt lat="48.136797" lon="10.399189">
        <ele>598.251800</ele>
        <time>2020-09-10T13:33:28.623Z</time>
      </trkpt>
      <trkpt lat="48.136726" lon="10.399317">
        <ele>598.089483</ele>
        <time>2020-09-10T13:33:30.594Z</time>
      </trkpt>
      <trkpt lat="48.136685" lon="10.399473">
        <ele>597.925976</ele>
        <time>2020-09-10T13:33:32.592Z</time>
      </trkpt>
      <trkpt lat="48.136668" lon="10.399640">
        <ele>597.761230</ele>
        <time>2020-09-10T13:33:34.608Z</time>
      </trkpt>
      <trkpt lat="48.136676" lon="10.399836">
        <ele>597.569730</ele>
        <time>2020-09-10T13:33:36.597Z</time>
      </trkpt>
      <trkpt lat="48.136691" lon="10.400024">
        <ele>597.385082</ele>
        <time>2020-09-10T13:33:38.598Z</time>
      </trkpt>
      <trkpt lat="48.136717" lon="10.400211">
        <ele>597.198800</ele>
        <time>2020-09-10T13:33:40.617Z</time>
      </trkpt>
      <trkpt lat="48.136748" lon="10.400373">
        <ele>597.034448</ele>
        <time>2020-09-10T13:33:42.621Z</time>
      </trkpt>
      <trkpt lat="48.136779" lon="10.400522">
        <ele>596.882243</ele>
        <time>2020-09-10T13:33:44.628Z</time>
      </trkpt>
      <trkpt lat="48.136708" lon="10.400649">
        <ele>596.720674</ele>
        <time>2020-09-10T13:33:46.599Z</time>
      </trkpt>
      <trkpt lat="48.136599" lon="10.400728">
        <ele>596.543737</ele>
        <time>2020-09-10T13:33:48.616Z</time>
      </trkpt>
      <trkpt lat="48.136500" lon="10.400822">
        <ele>596.372467</ele>
        <time>2020-09-10T13:33:50.619Z</time>
      </trkpt>
      <trkpt lat="48.136393" lon="10.400920">
        <ele>596.189211</ele>
        <time>2020-09-10T13:33:52.623Z</time>
      </trkpt>
      <trkpt lat="48.136275" lon="10.401028">
        <ele>595.987153</ele>
        <time>2020-09-10T13:33:54.623Z</time>
      </trkpt>
      <trkpt lat="48.136165" lon="10.401151">
        <ele>595.786584</ele>
        <time>2020-09-10T13:33:56.632Z</time>
      </trkpt>
      <trkpt lat="48.136044" lon="10.401261">
        <ele>595.677651</ele>
        <time>2020-09-10T13:33:58.624Z</time>
      </trkpt>
      <trkpt lat="48.135919" lon="10.401361">
        <ele>595.757058</ele>
        <time>2020-09-10T13:34:00.622Z</time>
      </trkpt>
      <trkpt lat="48.135801" lon="10.401442">
        <ele>595.829793</ele>
        <time>2020-09-10T13:34:02.622Z</time>
      </trkpt>
      <trkpt lat="48.135695" lon="10.401507">
        <ele>595.893977</ele>
        <time>2020-09-10T13:34:04.618Z</time>
      </trkpt>
      <trkpt lat="48.135600" lon="10.401559">
        <ele>595.950655</ele>
        <time>2020-09-10T13:34:06.621Z</time>
      </trkpt>
      <trkpt lat="48.135497" lon="10.401610">
        <ele>596.011446</ele>
        <time>2020-09-10T13:34:08.599Z</time>
      </trkpt>
      <trkpt lat="48.135411" lon="10.401667">
        <ele>596.064144</ele>
        <time>2020-09-10T13:34:10.618Z</time>
      </trkpt>
      <trkpt lat="48.135327" lon="10.401732">
        <ele>596.117124</ele>
        <time>2020-09-10T13:34:12.622Z</time>
      </trkpt>
      <trkpt lat="48.135249" lon="10.401840">
        <ele>596.176639</ele>
        <time>2020-09-10T13:34:14.621Z</time>
      </trkpt>
      <trkpt lat="48.135181" lon="10.401965">
        <ele>596.236952</ele>
        <time>2020-09-10T13:34:16.626Z</time>
      </trkpt>
      <trkpt lat="48.135149" lon="10.402123">
        <ele>596.298704</ele>
        <time>2020-09-10T13:34:18.609Z</time>
      </trkpt>
      <trkpt lat="48.135123" lon="10.402296">
        <ele>596.365025</ele>
        <time>2020-09-10T13:34:20.616Z</time>
      </trkpt>
      <trkpt lat="48.135102" lon="10.402484">
        <ele>596.436314</ele>
        <time>2020-09-10T13:34:22.628Z</time>
      </trkpt>
      <trkpt lat="48.135086" lon="10.402651">
        <ele>596.499412</ele>
        <time>2020-09-10T13:34:24.628Z</time>
      </trkpt>
      <trkpt lat="48.135079" lon="10.402800">
        <ele>596.555275</ele>
        <time>2020-09-10T13:34:26.628Z</time>
      </trkpt>
      <trkpt lat="48.135062" lon="10.403000">
        <ele>596.630678</ele>
        <time>2020-09-10T13:34:29.609Z</time>
      </trkpt>
      <trkpt lat="48.135041" lon="10.403138">
        <ele>596.759431</ele>
        <time>2020-09-10T13:34:31.613Z</time>
      </trkpt>
      <trkpt lat="48.135011" lon="10.403281">
        <ele>596.984532</ele>
        <time>2020-09-10T13:34:33.591Z</time>
      </trkpt>
      <trkpt lat="48.134982" lon="10.403423">
        <ele>597.207531</ele>
        <time>2020-09-10T13:34:35.610Z</time>
      </trkpt>
      <trkpt lat="48.134937" lon="10.403561">
        <ele>597.438178</ele>
        <time>2020-09-10T13:34:37.619Z</time>
      </trkpt>
      <trkpt lat="48.134877" lon="10.403690">
        <ele>597.674300</ele>
        <time>2020-09-10T13:34:39.621Z</time>
      </trkpt>
      <trkpt lat="48.134805" lon="10.403804">
        <ele>597.909998</ele>
        <time>2020-09-10T13:34:41.616Z</time>
      </trkpt>
      <trkpt lat="48.134723" lon="10.403929">
        <ele>598.173208</ele>
        <time>2020-09-10T13:34:43.614Z</time>
      </trkpt>
      <trkpt lat="48.134638" lon="10.404057">
        <ele>598.444368</ele>
        <time>2020-09-10T13:34:45.614Z</time>
      </trkpt>
      <trkpt lat="48.134553" lon="10.404158">
        <ele>598.688468</ele>
        <time>2020-09-10T13:34:47.625Z</time>
      </trkpt>
      <trkpt lat="48.134466" lon="10.404258">
        <ele>598.935193</ele>
        <time>2020-09-10T13:34:49.598Z</time>
      </trkpt>
      <trkpt lat="48.134369" lon="10.404364">
        <ele>599.205335</ele>
        <time>2020-09-10T13:34:51.619Z</time>
      </trkpt>
      <trkpt lat="48.134285" lon="10.404463">
        <ele>599.445808</ele>
        <time>2020-09-10T13:34:53.616Z</time>
      </trkpt>
      <trkpt lat="48.134196" lon="10.404549">
        <ele>599.684101</ele>
        <time>2020-09-10T13:34:55.621Z</time>
      </trkpt>
      <trkpt lat="48.134098" lon="10.404626">
        <ele>599.933091</ele>
        <time>2020-09-10T13:34:57.620Z</time>
      </trkpt>
      <trkpt lat="48.134026" lon="10.404714">
        <ele>600.142162</ele>
        <time>2020-09-10T13:34:59.616Z</time>
      </trkpt>
      <trkpt lat="48.133960" lon="10.404807">
        <ele>600.346023</ele>
        <time>2020-09-10T13:35:01.613Z</time>
      </trkpt>
      <trkpt lat="48.133885" lon="10.404908">
        <ele>600.572925</ele>
        <time>2020-09-10T13:35:03.620Z</time>
      </trkpt>
      <trkpt lat="48.133812" lon="10.405010">
        <ele>600.770745</ele>
        <time>2020-09-10T13:35:05.623Z</time>
      </trkpt>
      <trkpt lat="48.133732" lon="10.405112">
        <ele>600.938222</ele>
        <time>2020-09-10T13:35:07.624Z</time>
      </trkpt>
      <trkpt lat="48.133665" lon="10.405218">
        <ele>601.093570</ele>
        <time>2020-09-10T13:35:09.621Z</time>
      </trkpt>
      <trkpt lat="48.133575" lon="10.405358">
        <ele>601.300409</ele>
        <time>2020-09-10T13:35:12.618Z</time>
      </trkpt>
      <trkpt lat="48.133516" lon="10.405463">
        <ele>601.446463</ele>
        <time>2020-09-10T13:35:14.614Z</time>
      </trkpt>
      <trkpt lat="48.133417" lon="10.405597">
        <ele>601.659172</ele>
        <time>2020-09-10T13:35:17.607Z</time>
      </trkpt>
      <trkpt lat="48.133355" lon="10.405700">
        <ele>601.806765</ele>
        <time>2020-09-10T13:35:19.611Z</time>
      </trkpt>
      <trkpt lat="48.133250" lon="10.405826">
        <ele>602.021245</ele>
        <time>2020-09-10T13:35:22.619Z</time>
      </trkpt>
      <trkpt lat="48.133176" lon="10.405904">
        <ele>602.165497</ele>
        <time>2020-09-10T13:35:24.614Z</time>
      </trkpt>
      <trkpt lat="48.133065" lon="10.406019">
        <ele>602.380658</ele>
        <time>2020-09-10T13:35:27.613Z</time>
      </trkpt>
      <trkpt lat="48.132979" lon="10.406093">
        <ele>602.538775</ele>
        <time>2020-09-10T13:35:29.619Z</time>
      </trkpt>
      <trkpt lat="48.132896" lon="10.406178">
        <ele>602.699065</ele>
        <time>2020-09-10T13:35:31.612Z</time>
      </trkpt>
      <trkpt lat="48.132813" lon="10.406281">
        <ele>602.870891</ele>
        <time>2020-09-10T13:35:33.606Z</time>
      </trkpt>
      <trkpt lat="48.132740" lon="10.406390">
        <ele>603.035205</ele>
        <time>2020-09-10T13:35:35.596Z</time>
      </trkpt>
      <trkpt lat="48.132662" lon="10.406509">
        <ele>603.212687</ele>
        <time>2020-09-10T13:35:37.623Z</time>
      </trkpt>
      <trkpt lat="48.132596" lon="10.406625">
        <ele>603.374888</ele>
        <time>2020-09-10T13:35:39.619Z</time>
      </trkpt>
      <trkpt lat="48.132534" lon="10.406736">
        <ele>603.528909</ele>
        <time>2020-09-10T13:35:41.621Z</time>
      </trkpt>
      <trkpt lat="48.132468" lon="10.406852">
        <ele>603.681859</ele>
        <time>2020-09-10T13:35:43.621Z</time>
      </trkpt>
      <trkpt lat="48.132398" lon="10.406968">
        <ele>603.835197</ele>
        <time>2020-09-10T13:35:45.619Z</time>
      </trkpt>
      <trkpt lat="48.132336" lon="10.407086">
        <ele>603.982450</ele>
        <time>2020-09-10T13:35:47.622Z</time>
      </trkpt>
      <trkpt lat="48.132273" lon="10.407190">
        <ele>604.120164</ele>
        <time>2020-09-10T13:35:49.624Z</time>
      </trkpt>
      <trkpt lat="48.132186" lon="10.407337">
        <ele>604.312808</ele>
        <time>2020-09-10T13:35:52.622Z</time>
      </trkpt>
      <trkpt lat="48.132125" lon="10.407444">
        <ele>604.450788</ele>
        <time>2020-09-10T13:35:54.631Z</time>
      </trkpt>
      <trkpt lat="48.132063" lon="10.407559">
        <ele>604.595741</ele>
        <time>2020-09-10T13:35:56.629Z</time>
      </trkpt>
      <trkpt lat="48.132008" lon="10.407669">
        <ele>604.730508</ele>
        <time>2020-09-10T13:35:58.617Z</time>
      </trkpt>
      <trkpt lat="48.131954" lon="10.407781">
        <ele>604.865984</ele>
        <time>2020-09-10T13:36:00.625Z</time>
      </trkpt>
      <trkpt lat="48.131888" lon="10.407883">
        <ele>605.005284</ele>
        <time>2020-09-10T13:36:02.625Z</time>
      </trkpt>
      <trkpt lat="48.131829" lon="10.407984">
        <ele>605.136892</ele>
        <time>2020-09-10T13:36:04.626Z</time>
      </trkpt>
      <trkpt lat="48.131738" lon="10.408136">
        <ele>605.337107</ele>
        <time>2020-09-10T13:36:07.623Z</time>
      </trkpt>
      <trkpt lat="48.131668" lon="10.408249">
        <ele>605.488277</ele>
        <time>2020-09-10T13:36:09.611Z</time>
      </trkpt>
      <trkpt lat="48.131594" lon="10.408359">
        <ele>605.641419</ele>
        <time>2020-09-10T13:36:11.626Z</time>
      </trkpt>
      <trkpt lat="48.131528" lon="10.408471">
        <ele>605.787919</ele>
        <time>2020-09-10T13:36:13.616Z</time>
      </trkpt>
      <trkpt lat="48.131461" lon="10.408571">
        <ele>605.926855</ele>
        <time>2020-09-10T13:36:15.614Z</time>
      </trkpt>
      <trkpt lat="48.131394" lon="10.408679">
        <ele>606.071433</ele>
        <time>2020-09-10T13:36:17.610Z</time>
      </trkpt>
      <trkpt lat="48.131323" lon="10.408794">
        <ele>606.212890</ele>
        <time>2020-09-10T13:36:19.618Z</time>
      </trkpt>
      <trkpt lat="48.131248" lon="10.408909">
        <ele>606.163774</ele>
        <time>2020-09-10T13:36:21.608Z</time>
      </trkpt>
      <trkpt lat="48.131182" lon="10.409029">
        <ele>606.116275</ele>
        <time>2020-09-10T13:36:23.633Z</time>
      </trkpt>
      <trkpt lat="48.131118" lon="10.409154">
        <ele>606.068150</ele>
        <time>2020-09-10T13:36:25.616Z</time>
      </trkpt>
      <trkpt lat="48.131052" lon="10.409259">
        <ele>606.024090</ele>
        <time>2020-09-10T13:36:27.616Z</time>
      </trkpt>
      <trkpt lat="48.130971" lon="10.409360">
        <ele>605.975859</ele>
        <time>2020-09-10T13:36:29.599Z</time>
      </trkpt>
      <trkpt lat="48.130880" lon="10.409440">
        <ele>605.927570</ele>
        <time>2020-09-10T13:36:31.598Z</time>
      </trkpt>
      <trkpt lat="48.130789" lon="10.409512">
        <ele>605.880470</ele>
        <time>2020-09-10T13:36:33.615Z</time>
      </trkpt>
      <trkpt lat="48.130693" lon="10.409576">
        <ele>605.832379</ele>
        <time>2020-09-10T13:36:35.622Z</time>
      </trkpt>
      <trkpt lat="48.130593" lon="10.409645">
        <ele>605.781990</ele>
        <time>2020-09-10T13:36:37.620Z</time>
      </trkpt>
      <trkpt lat="48.130493" lon="10.409715">
        <ele>605.731473</ele>
        <time>2020-09-10T13:36:39.628Z</time>
      </trkpt>
      <trkpt lat="48.130387" lon="10.409790">
        <ele>605.677820</ele>
        <time>2020-09-10T13:36:41.619Z</time>
      </trkpt>
      <trkpt lat="48.130289" lon="10.409864">
        <ele>605.627593</ele>
        <time>2020-09-10T13:36:43.624Z</time>
      </trkpt>
      <trkpt lat="48.130191" lon="10.409938">
        <ele>605.577365</ele>
        <time>2020-09-10T13:36:45.624Z</time>
      </trkpt>
      <trkpt lat="48.130098" lon="10.410008">
        <ele>605.529731</ele>
        <time>2020-09-10T13:36:47.622Z</time>
      </trkpt>
      <trkpt lat="48.130000" lon="10.410078">
        <ele>605.480042</ele>
        <time>2020-09-10T13:36:49.623Z</time>
      </trkpt>
      <trkpt lat="48.129909" lon="10.410150">
        <ele>605.432942</ele>
        <time>2020-09-10T13:36:51.629Z</time>
      </trkpt>
      <trkpt lat="48.129822" lon="10.410214">
        <ele>605.391115</ele>
        <time>2020-09-10T13:36:53.628Z</time>
      </trkpt>
      <trkpt lat="48.129736" lon="10.410281">
        <ele>605.374966</ele>
        <time>2020-09-10T13:36:55.635Z</time>
      </trkpt>
      <trkpt lat="48.129638" lon="10.410359">
        <ele>605.356477</ele>
        <time>2020-09-10T13:36:57.627Z</time>
      </trkpt>
      <trkpt lat="48.129537" lon="10.410430">
        <ele>605.337890</ele>
        <time>2020-09-10T13:36:59.621Z</time>
      </trkpt>
      <trkpt lat="48.129440" lon="10.410505">
        <ele>605.319704</ele>
        <time>2020-09-10T13:37:01.621Z</time>
      </trkpt>
      <trkpt lat="48.129341" lon="10.410582">
        <ele>605.301120</ele>
        <time>2020-09-10T13:37:03.614Z</time>
      </trkpt>
      <trkpt lat="48.129239" lon="10.410661">
        <ele>605.281990</ele>
        <time>2020-09-10T13:37:05.616Z</time>
      </trkpt>
      <trkpt lat="48.129139" lon="10.410734">
        <ele>605.263457</ele>
        <time>2020-09-10T13:37:07.616Z</time>
      </trkpt>
      <trkpt lat="48.129037" lon="10.410813">
        <ele>605.244326</ele>
        <time>2020-09-10T13:37:09.622Z</time>
      </trkpt>
      <trkpt lat="48.128936" lon="10.410885">
        <ele>605.225691</ele>
        <time>2020-09-10T13:37:11.619Z</time>
      </trkpt>
      <trkpt lat="48.128843" lon="10.410962">
        <ele>605.207988</ele>
        <time>2020-09-10T13:37:13.622Z</time>
      </trkpt>
      <trkpt lat="48.128751" lon="10.411025">
        <ele>605.191136</ele>
        <time>2020-09-10T13:37:15.621Z</time>
      </trkpt>
      <trkpt lat="48.128656" lon="10.411100">
        <ele>605.173245</ele>
        <time>2020-09-10T13:37:17.617Z</time>
      </trkpt>
      <trkpt lat="48.128557" lon="10.411174">
        <ele>605.154812</ele>
        <time>2020-09-10T13:37:19.621Z</time>
      </trkpt>
      <trkpt lat="48.128457" lon="10.411244">
        <ele>605.136423</ele>
        <time>2020-09-10T13:37:21.614Z</time>
      </trkpt>
      <trkpt lat="48.128353" lon="10.411324">
        <ele>605.116945</ele>
        <time>2020-09-10T13:37:23.619Z</time>
      </trkpt>
      <trkpt lat="48.128250" lon="10.411406">
        <ele>605.097513</ele>
        <time>2020-09-10T13:37:25.627Z</time>
      </trkpt>
      <trkpt lat="48.128148" lon="10.411484">
        <ele>605.163969</ele>
        <time>2020-09-10T13:37:27.613Z</time>
      </trkpt>
      <trkpt lat="48.128049" lon="10.411548">
        <ele>605.252221</ele>
        <time>2020-09-10T13:37:29.622Z</time>
      </trkpt>
      <trkpt lat="48.127953" lon="10.411618">
        <ele>605.339608</ele>
        <time>2020-09-10T13:37:31.619Z</time>
      </trkpt>
      <trkpt lat="48.127857" lon="10.411683">
        <ele>605.425834</ele>
        <time>2020-09-10T13:37:33.626Z</time>
      </trkpt>
      <trkpt lat="48.127759" lon="10.411755">
        <ele>605.515171</ele>
        <time>2020-09-10T13:37:35.619Z</time>
      </trkpt>
      <trkpt lat="48.127659" lon="10.411831">
        <ele>605.606949</ele>
        <time>2020-09-10T13:37:37.624Z</time>
      </trkpt>
      <trkpt lat="48.127562" lon="10.411906">
        <ele>605.696292</ele>
        <time>2020-09-10T13:37:39.624Z</time>
      </trkpt>
      <trkpt lat="48.127458" lon="10.411981">
        <ele>605.790763</ele>
        <time>2020-09-10T13:37:41.627Z</time>
      </trkpt>
      <trkpt lat="48.127351" lon="10.412063">
        <ele>605.889133</ele>
        <time>2020-09-10T13:37:43.621Z</time>
      </trkpt>
      <trkpt lat="48.127249" lon="10.412139">
        <ele>605.982374</ele>
        <time>2020-09-10T13:37:45.623Z</time>
      </trkpt>
      <trkpt lat="48.127146" lon="10.412205">
        <ele>606.074066</ele>
        <time>2020-09-10T13:37:47.629Z</time>
      </trkpt>
      <trkpt lat="48.127047" lon="10.412277">
        <ele>606.164139</ele>
        <time>2020-09-10T13:37:49.633Z</time>
      </trkpt>
      <trkpt lat="48.126951" lon="10.412352">
        <ele>606.252755</ele>
        <time>2020-09-10T13:37:51.624Z</time>
      </trkpt>
      <trkpt lat="48.126861" lon="10.412421">
        <ele>606.335504</ele>
        <time>2020-09-10T13:37:53.618Z</time>
      </trkpt>
      <trkpt lat="48.126762" lon="10.412485">
        <ele>606.423756</ele>
        <time>2020-09-10T13:37:55.619Z</time>
      </trkpt>
      <trkpt lat="48.126663" lon="10.412546">
        <ele>606.511372</ele>
        <time>2020-09-10T13:37:57.615Z</time>
      </trkpt>
      <trkpt lat="48.126561" lon="10.412616">
        <ele>606.543915</ele>
        <time>2020-09-10T13:37:59.629Z</time>
      </trkpt>
      <trkpt lat="48.126461" lon="10.412691">
        <ele>606.493146</ele>
        <time>2020-09-10T13:38:01.599Z</time>
      </trkpt>
      <trkpt lat="48.126352" lon="10.412766">
        <ele>606.438692</ele>
        <time>2020-09-10T13:38:03.624Z</time>
      </trkpt>
      <trkpt lat="48.126245" lon="10.412840">
        <ele>606.385190</ele>
        <time>2020-09-10T13:38:05.623Z</time>
      </trkpt>
      <trkpt lat="48.126139" lon="10.412918">
        <ele>606.331577</ele>
        <time>2020-09-10T13:38:07.622Z</time>
      </trkpt>
      <trkpt lat="48.126036" lon="10.412996">
        <ele>606.279182</ele>
        <time>2020-09-10T13:38:09.620Z</time>
      </trkpt>
      <trkpt lat="48.125934" lon="10.413066">
        <ele>606.228249</ele>
        <time>2020-09-10T13:38:11.625Z</time>
      </trkpt>
      <trkpt lat="48.125833" lon="10.413139">
        <ele>606.177340</ele>
        <time>2020-09-10T13:38:13.622Z</time>
      </trkpt>
      <trkpt lat="48.125730" lon="10.413201">
        <ele>606.126946</ele>
        <time>2020-09-10T13:38:15.611Z</time>
      </trkpt>
      <trkpt lat="48.125632" lon="10.413272">
        <ele>606.077527</ele>
        <time>2020-09-10T13:38:17.626Z</time>
      </trkpt>
      <trkpt lat="48.125527" lon="10.413341">
        <ele>606.025475</ele>
        <time>2020-09-10T13:38:19.619Z</time>
      </trkpt>
      <trkpt lat="48.125425" lon="10.413413">
        <ele>605.974286</ele>
        <time>2020-09-10T13:38:21.622Z</time>
      </trkpt>
      <trkpt lat="48.125321" lon="10.413485">
        <ele>605.922275</ele>
        <time>2020-09-10T13:38:23.630Z</time>
      </trkpt>
      <trkpt lat="48.125209" lon="10.413555">
        <ele>605.867181</ele>
        <time>2020-09-10T13:38:25.620Z</time>
      </trkpt>
      <trkpt lat="48.125094" lon="10.413628">
        <ele>605.810480</ele>
        <time>2020-09-10T13:38:27.620Z</time>
      </trkpt>
      <trkpt lat="48.124974" lon="10.413699">
        <ele>605.751908</ele>
        <time>2020-09-10T13:38:29.629Z</time>
      </trkpt>
      <trkpt lat="48.124851" lon="10.413766">
        <ele>605.705146</ele>
        <time>2020-09-10T13:38:31.626Z</time>
      </trkpt>
      <trkpt lat="48.124731" lon="10.413815">
        <ele>605.661434</ele>
        <time>2020-09-10T13:38:33.633Z</time>
      </trkpt>
      <trkpt lat="48.124615" lon="10.413860">
        <ele>605.619323</ele>
        <time>2020-09-10T13:38:35.622Z</time>
      </trkpt>
      <trkpt lat="48.124499" lon="10.413905">
        <ele>605.577211</ele>
        <time>2020-09-10T13:38:37.624Z</time>
      </trkpt>
      <trkpt lat="48.124378" lon="10.413942">
        <ele>605.533810</ele>
        <time>2020-09-10T13:38:39.624Z</time>
      </trkpt>
      <trkpt lat="48.124257" lon="10.413982">
        <ele>605.490262</ele>
        <time>2020-09-10T13:38:41.613Z</time>
      </trkpt>
      <trkpt lat="48.124141" lon="10.414026">
        <ele>605.448208</ele>
        <time>2020-09-10T13:38:43.615Z</time>
      </trkpt>
      <trkpt lat="48.124022" lon="10.414069">
        <ele>605.405188</ele>
        <time>2020-09-10T13:38:45.619Z</time>
      </trkpt>
      <trkpt lat="48.123908" lon="10.414101">
        <ele>605.364426</ele>
        <time>2020-09-10T13:38:47.620Z</time>
      </trkpt>
      <trkpt lat="48.123789" lon="10.414122">
        <ele>605.322315</ele>
        <time>2020-09-10T13:38:49.624Z</time>
      </trkpt>
      <trkpt lat="48.123666" lon="10.414152">
        <ele>605.278519</ele>
        <time>2020-09-10T13:38:51.611Z</time>
      </trkpt>
      <trkpt lat="48.123539" lon="10.414178">
        <ele>605.233471</ele>
        <time>2020-09-10T13:38:53.623Z</time>
      </trkpt>
      <trkpt lat="48.123418" lon="10.414197">
        <ele>605.190714</ele>
        <time>2020-09-10T13:38:55.621Z</time>
      </trkpt>
      <trkpt lat="48.123299" lon="10.414206">
        <ele>605.148839</ele>
        <time>2020-09-10T13:38:57.630Z</time>
      </trkpt>
      <trkpt lat="48.123176" lon="10.414213">
        <ele>605.139297</ele>
        <time>2020-09-10T13:38:59.621Z</time>
      </trkpt>
      <trkpt lat="48.123053" lon="10.414220">
        <ele>605.230849</ele>
        <time>2020-09-10T13:39:01.626Z</time>
      </trkpt>
      <trkpt lat="48.122940" lon="10.414267">
        <ele>605.318077</ele>
        <time>2020-09-10T13:39:03.603Z</time>
      </trkpt>
      <trkpt lat="48.122847" lon="10.414359">
        <ele>605.400970</ele>
        <time>2020-09-10T13:39:05.610Z</time>
      </trkpt>
      <trkpt lat="48.122767" lon="10.414489">
        <ele>605.488759</ele>
        <time>2020-09-10T13:39:07.619Z</time>
      </trkpt>
      <trkpt lat="48.122720" lon="10.414646">
        <ele>605.574190</ele>
        <time>2020-09-10T13:39:09.622Z</time>
      </trkpt>
      <trkpt lat="48.122696" lon="10.414829">
        <ele>605.666788</ele>
        <time>2020-09-10T13:39:11.607Z</time>
      </trkpt>
      <trkpt lat="48.122706" lon="10.415019">
        <ele>605.761417</ele>
        <time>2020-09-10T13:39:13.613Z</time>
      </trkpt>
      <trkpt lat="48.122759" lon="10.415204">
        <ele>605.861373</ele>
        <time>2020-09-10T13:39:15.601Z</time>
      </trkpt>
      <trkpt lat="48.122838" lon="10.415366">
        <ele>605.960984</ele>
        <time>2020-09-10T13:39:17.612Z</time>
      </trkpt>
      <trkpt lat="48.122909" lon="10.415524">
        <ele>606.055550</ele>
        <time>2020-09-10T13:39:19.633Z</time>
      </trkpt>
      <trkpt lat="48.122968" lon="10.415680">
        <ele>606.144573</ele>
        <time>2020-09-10T13:39:21.623Z</time>
      </trkpt>
      <trkpt lat="48.123027" lon="10.415831">
        <ele>606.231444</ele>
        <time>2020-09-10T13:39:23.624Z</time>
      </trkpt>
      <trkpt lat="48.123080" lon="10.415978">
        <ele>606.314396</ele>
        <time>2020-09-10T13:39:25.613Z</time>
      </trkpt>
      <trkpt lat="48.123131" lon="10.416128">
        <ele>606.397976</ele>
        <time>2020-09-10T13:39:27.608Z</time>
      </trkpt>
      <trkpt lat="48.123182" lon="10.416282">
        <ele>606.452260</ele>
        <time>2020-09-10T13:39:29.616Z</time>
      </trkpt>
      <trkpt lat="48.123228" lon="10.416433">
        <ele>606.446734</ele>
        <time>2020-09-10T13:39:31.618Z</time>
      </trkpt>
      <trkpt lat="48.123273" lon="10.416584">
        <ele>606.441228</ele>
        <time>2020-09-10T13:39:33.622Z</time>
      </trkpt>
      <trkpt lat="48.123322" lon="10.416730">
        <ele>606.435788</ele>
        <time>2020-09-10T13:39:35.627Z</time>
      </trkpt>
      <trkpt lat="48.123368" lon="10.416893">
        <ele>606.429896</ele>
        <time>2020-09-10T13:39:37.618Z</time>
      </trkpt>
      <trkpt lat="48.123417" lon="10.417048">
        <ele>606.424186</ele>
        <time>2020-09-10T13:39:39.614Z</time>
      </trkpt>
      <trkpt lat="48.123464" lon="10.417191">
        <ele>606.418879</ele>
        <time>2020-09-10T13:39:41.626Z</time>
      </trkpt>
      <trkpt lat="48.123507" lon="10.417327">
        <ele>606.413869</ele>
        <time>2020-09-10T13:39:43.617Z</time>
      </trkpt>
      <trkpt lat="48.123553" lon="10.417470">
        <ele>606.408584</ele>
        <time>2020-09-10T13:39:45.633Z</time>
      </trkpt>
      <trkpt lat="48.123603" lon="10.417609">
        <ele>606.403327</ele>
        <time>2020-09-10T13:39:47.628Z</time>
      </trkpt>
      <trkpt lat="48.123651" lon="10.417759">
        <ele>606.397789</ele>
        <time>2020-09-10T13:39:49.629Z</time>
      </trkpt>
      <trkpt lat="48.123692" lon="10.417906">
        <ele>606.392485</ele>
        <time>2020-09-10T13:39:51.625Z</time>
      </trkpt>
      <trkpt lat="48.123736" lon="10.418047">
        <ele>606.387303</ele>
        <time>2020-09-10T13:39:53.600Z</time>
      </trkpt>
      <trkpt lat="48.123777" lon="10.418195">
        <ele>606.381969</ele>
        <time>2020-09-10T13:39:55.614Z</time>
      </trkpt>
      <trkpt lat="48.123811" lon="10.418344">
        <ele>606.376726</ele>
        <time>2020-09-10T13:39:57.623Z</time>
      </trkpt>
      <trkpt lat="48.123850" lon="10.418493">
        <ele>606.371398</ele>
        <time>2020-09-10T13:39:59.623Z</time>
      </trkpt>
      <trkpt lat="48.123887" lon="10.418632">
        <ele>606.366416</ele>
        <time>2020-09-10T13:40:01.621Z</time>
      </trkpt>
      <trkpt lat="48.123923" lon="10.418782">
        <ele>606.336815</ele>
        <time>2020-09-10T13:40:03.624Z</time>
      </trkpt>
      <trkpt lat="48.123959" lon="10.418931">
        <ele>606.293798</ele>
        <time>2020-09-10T13:40:05.627Z</time>
      </trkpt>
      <trkpt lat="48.124003" lon="10.419088">
        <ele>606.247574</ele>
        <time>2020-09-10T13:40:07.622Z</time>
      </trkpt>
      <trkpt lat="48.124044" lon="10.419251">
        <ele>606.200288</ele>
        <time>2020-09-10T13:40:09.618Z</time>
      </trkpt>
      <trkpt lat="48.124080" lon="10.419407">
        <ele>606.155480</ele>
        <time>2020-09-10T13:40:11.615Z</time>
      </trkpt>
      <trkpt lat="48.124117" lon="10.419557">
        <ele>606.112069</ele>
        <time>2020-09-10T13:40:13.613Z</time>
      </trkpt>
      <trkpt lat="48.124158" lon="10.419704">
        <ele>606.068820</ele>
        <time>2020-09-10T13:40:15.622Z</time>
      </trkpt>
      <trkpt lat="48.124198" lon="10.419847">
        <ele>606.026730</ele>
        <time>2020-09-10T13:40:17.616Z</time>
      </trkpt>
      <trkpt lat="48.124232" lon="10.419994">
        <ele>605.984498</ele>
        <time>2020-09-10T13:40:19.625Z</time>
      </trkpt>
      <trkpt lat="48.124274" lon="10.420135">
        <ele>605.942583</ele>
        <time>2020-09-10T13:40:21.622Z</time>
      </trkpt>
      <trkpt lat="48.124314" lon="10.420294">
        <ele>605.896457</ele>
        <time>2020-09-10T13:40:23.637Z</time>
      </trkpt>
      <trkpt lat="48.124351" lon="10.420459">
        <ele>605.849205</ele>
        <time>2020-09-10T13:40:25.622Z</time>
      </trkpt>
      <trkpt lat="48.124394" lon="10.420630">
        <ele>605.799600</ele>
        <time>2020-09-10T13:40:27.622Z</time>
      </trkpt>
      <trkpt lat="48.124435" lon="10.420796">
        <ele>605.751551</ele>
        <time>2020-09-10T13:40:29.622Z</time>
      </trkpt>
      <trkpt lat="48.124477" lon="10.420946">
        <ele>605.707395</ele>
        <time>2020-09-10T13:40:31.626Z</time>
      </trkpt>
      <trkpt lat="48.124516" lon="10.421097">
        <ele>605.663442</ele>
        <time>2020-09-10T13:40:33.619Z</time>
      </trkpt>
      <trkpt lat="48.124550" lon="10.421246">
        <ele>605.608162</ele>
        <time>2020-09-10T13:40:35.627Z</time>
      </trkpt>
      <trkpt lat="48.124594" lon="10.421403">
        <ele>605.514988</ele>
        <time>2020-09-10T13:40:37.625Z</time>
      </trkpt>
      <trkpt lat="48.124633" lon="10.421563">
        <ele>605.421783</ele>
        <time>2020-09-10T13:40:39.613Z</time>
      </trkpt>
      <trkpt lat="48.124671" lon="10.421727">
        <ele>605.326791</ele>
        <time>2020-09-10T13:40:41.624Z</time>
      </trkpt>
      <trkpt lat="48.124711" lon="10.421904">
        <ele>605.224538</ele>
        <time>2020-09-10T13:40:43.631Z</time>
      </trkpt>
      <trkpt lat="48.124748" lon="10.422082">
        <ele>605.122525</ele>
        <time>2020-09-10T13:40:45.630Z</time>
      </trkpt>
      <trkpt lat="48.124781" lon="10.422252">
        <ele>605.025649</ele>
        <time>2020-09-10T13:40:47.626Z</time>
      </trkpt>
      <trkpt lat="48.124815" lon="10.422430">
        <ele>604.924339</ele>
        <time>2020-09-10T13:40:49.623Z</time>
      </trkpt>
      <trkpt lat="48.124842" lon="10.422592">
        <ele>604.832973</ele>
        <time>2020-09-10T13:40:51.626Z</time>
      </trkpt>
      <trkpt lat="48.124866" lon="10.422762">
        <ele>604.737893</ele>
        <time>2020-09-10T13:40:53.625Z</time>
      </trkpt>
      <trkpt lat="48.124877" lon="10.422929">
        <ele>604.646069</ele>
        <time>2020-09-10T13:40:55.628Z</time>
      </trkpt>
      <trkpt lat="48.124884" lon="10.423106">
        <ele>604.549047</ele>
        <time>2020-09-10T13:40:57.613Z</time>
      </trkpt>
      <trkpt lat="48.124892" lon="10.423287">
        <ele>604.449789</ele>
        <time>2020-09-10T13:40:59.621Z</time>
      </trkpt>
      <trkpt lat="48.124898" lon="10.423462">
        <ele>604.353904</ele>
        <time>2020-09-10T13:41:01.618Z</time>
      </trkpt>
      <trkpt lat="48.124908" lon="10.423646">
        <ele>604.252889</ele>
        <time>2020-09-10T13:41:03.613Z</time>
      </trkpt>
      <trkpt lat="48.124921" lon="10.423828">
        <ele>604.162427</ele>
        <time>2020-09-10T13:41:05.612Z</time>
      </trkpt>
      <trkpt lat="48.124932" lon="10.423999">
        <ele>604.223634</ele>
        <time>2020-09-10T13:41:07.624Z</time>
      </trkpt>
      <trkpt lat="48.124951" lon="10.424163">
        <ele>604.282939</ele>
        <time>2020-09-10T13:41:09.622Z</time>
      </trkpt>
      <trkpt lat="48.124967" lon="10.424319">
        <ele>604.339171</ele>
        <time>2020-09-10T13:41:11.623Z</time>
      </trkpt>
      <trkpt lat="48.124992" lon="10.424475">
        <ele>604.396331</ele>
        <time>2020-09-10T13:41:13.629Z</time>
      </trkpt>
      <trkpt lat="48.125019" lon="10.424630">
        <ele>604.453404</ele>
        <time>2020-09-10T13:41:15.620Z</time>
      </trkpt>
      <trkpt lat="48.125023" lon="10.424786">
        <ele>604.509026</ele>
        <time>2020-09-10T13:41:17.619Z</time>
      </trkpt>
      <trkpt lat="48.125014" lon="10.424941">
        <ele>604.564458</ele>
        <time>2020-09-10T13:41:19.619Z</time>
      </trkpt>
      <trkpt lat="48.124970" lon="10.425064">
        <ele>604.614178</ele>
        <time>2020-09-10T13:41:21.606Z</time>
      </trkpt>
      <trkpt lat="48.124889" lon="10.425192">
        <ele>604.677018</ele>
        <time>2020-09-10T13:41:24.597Z</time>
      </trkpt>
      <trkpt lat="48.124805" lon="10.425292">
        <ele>604.734286</ele>
        <time>2020-09-10T13:41:27.627Z</time>
      </trkpt>
      <trkpt lat="48.124733" lon="10.425393">
        <ele>604.786934</ele>
        <time>2020-09-10T13:41:30.629Z</time>
      </trkpt>
      <trkpt lat="48.124663" lon="10.425496">
        <ele>604.839304</ele>
        <time>2020-09-10T13:41:33.615Z</time>
      </trkpt>
      <trkpt lat="48.124584" lon="10.425610">
        <ele>604.897851</ele>
        <time>2020-09-10T13:41:36.615Z</time>
      </trkpt>
      <trkpt lat="48.124551" lon="10.425739">
        <ele>604.947072</ele>
        <time>2020-09-10T13:41:39.597Z</time>
      </trkpt>
      <trkpt lat="48.124537" lon="10.425885">
        <ele>604.999624</ele>
        <time>2020-09-10T13:41:42.615Z</time>
      </trkpt>
      <trkpt lat="48.124530" lon="10.426037">
        <ele>605.053908</ele>
        <time>2020-09-10T13:41:45.613Z</time>
      </trkpt>
      <trkpt lat="48.124552" lon="10.426204">
        <ele>605.114556</ele>
        <time>2020-09-10T13:41:48.605Z</time>
      </trkpt>
      <trkpt lat="48.124527" lon="10.426380">
        <ele>605.205136</ele>
        <time>2020-09-10T13:41:51.603Z</time>
      </trkpt>
      <trkpt lat="48.124453" lon="10.426534">
        <ele>605.302551</ele>
        <time>2020-09-10T13:41:54.611Z</time>
      </trkpt>
      <trkpt lat="48.124354" lon="10.426666">
        <ele>605.404481</ele>
        <time>2020-09-10T13:41:57.622Z</time>
      </trkpt>
      <trkpt lat="48.124286" lon="10.426753">
        <ele>605.473257</ele>
        <time>2020-09-10T13:41:59.625Z</time>
      </trkpt>
      <trkpt lat="48.124222" lon="10.426850">
        <ele>605.543277</ele>
        <time>2020-09-10T13:42:01.626Z</time>
      </trkpt>
      <trkpt lat="48.124130" lon="10.426994">
        <ele>605.645609</ele>
        <time>2020-09-10T13:42:04.626Z</time>
      </trkpt>
      <trkpt lat="48.124058" lon="10.427078">
        <ele>605.715795</ele>
        <time>2020-09-10T13:42:06.624Z</time>
      </trkpt>
      <trkpt lat="48.123984" lon="10.427175">
        <ele>605.791419</ele>
        <time>2020-09-10T13:42:08.617Z</time>
      </trkpt>
      <trkpt lat="48.123906" lon="10.427279">
        <ele>605.871728</ele>
        <time>2020-09-10T13:42:10.621Z</time>
      </trkpt>
      <trkpt lat="48.123828" lon="10.427379">
        <ele>605.950687</ele>
        <time>2020-09-10T13:42:12.620Z</time>
      </trkpt>
      <trkpt lat="48.123755" lon="10.427477">
        <ele>606.026076</ele>
        <time>2020-09-10T13:42:14.608Z</time>
      </trkpt>
      <trkpt lat="48.123687" lon="10.427588">
        <ele>606.103423</ele>
        <time>2020-09-10T13:42:16.612Z</time>
      </trkpt>
      <trkpt lat="48.123619" lon="10.427720">
        <ele>606.189025</ele>
        <time>2020-09-10T13:42:18.630Z</time>
      </trkpt>
      <trkpt lat="48.123558" lon="10.427851">
        <ele>606.271026</ele>
        <time>2020-09-10T13:42:20.614Z</time>
      </trkpt>
      <trkpt lat="48.123493" lon="10.427989">
        <ele>606.357736</ele>
        <time>2020-09-10T13:42:22.619Z</time>
      </trkpt>
      <trkpt lat="48.123432" lon="10.428132">
        <ele>606.444862</ele>
        <time>2020-09-10T13:42:24.609Z</time>
      </trkpt>
      <trkpt lat="48.123376" lon="10.428282">
        <ele>606.491611</ele>
        <time>2020-09-10T13:42:26.614Z</time>
      </trkpt>
      <trkpt lat="48.123327" lon="10.428431">
        <ele>606.463236</ele>
        <time>2020-09-10T13:42:28.610Z</time>
      </trkpt>
      <trkpt lat="48.123282" lon="10.428580">
        <ele>606.435299</ele>
        <time>2020-09-10T13:42:30.623Z</time>
      </trkpt>
      <trkpt lat="48.123235" lon="10.428731">
        <ele>606.406837</ele>
        <time>2020-09-10T13:42:32.630Z</time>
      </trkpt>
      <trkpt lat="48.123179" lon="10.428875">
        <ele>606.378367</ele>
        <time>2020-09-10T13:42:34.620Z</time>
      </trkpt>
      <trkpt lat="48.123124" lon="10.429031">
        <ele>606.348228</ele>
        <time>2020-09-10T13:42:36.617Z</time>
      </trkpt>
      <trkpt lat="48.123071" lon="10.429176">
        <ele>606.319988</ele>
        <time>2020-09-10T13:42:38.616Z</time>
      </trkpt>
      <trkpt lat="48.123011" lon="10.429309">
        <ele>606.292565</ele>
        <time>2020-09-10T13:42:40.622Z</time>
      </trkpt>
      <trkpt lat="48.122951" lon="10.429435">
        <ele>606.266125</ele>
        <time>2020-09-10T13:42:42.627Z</time>
      </trkpt>
      <trkpt lat="48.122886" lon="10.429562">
        <ele>606.238786</ele>
        <time>2020-09-10T13:42:44.620Z</time>
      </trkpt>
      <trkpt lat="48.122813" lon="10.429695">
        <ele>606.209371</ele>
        <time>2020-09-10T13:42:46.621Z</time>
      </trkpt>
      <trkpt lat="48.122743" lon="10.429827">
        <ele>606.180571</ele>
        <time>2020-09-10T13:42:48.628Z</time>
      </trkpt>
      <trkpt lat="48.122691" lon="10.429959">
        <ele>606.154387</ele>
        <time>2020-09-10T13:42:50.617Z</time>
      </trkpt>
      <trkpt lat="48.122632" lon="10.430092">
        <ele>606.127107</ele>
        <time>2020-09-10T13:42:52.621Z</time>
      </trkpt>
      <trkpt lat="48.122563" lon="10.430222">
        <ele>606.098734</ele>
        <time>2020-09-10T13:42:54.616Z</time>
      </trkpt>
      <trkpt lat="48.122505" lon="10.430360">
        <ele>606.070876</ele>
        <time>2020-09-10T13:42:56.627Z</time>
      </trkpt>
      <trkpt lat="48.122451" lon="10.430495">
        <ele>606.043990</ele>
        <time>2020-09-10T13:42:58.615Z</time>
      </trkpt>
      <trkpt lat="48.122397" lon="10.430631">
        <ele>605.939812</ele>
        <time>2020-09-10T13:43:00.619Z</time>
      </trkpt>
      <trkpt lat="48.122343" lon="10.430771">
        <ele>605.825959</ele>
        <time>2020-09-10T13:43:02.625Z</time>
      </trkpt>
      <trkpt lat="48.122286" lon="10.430908">
        <ele>605.712289</ele>
        <time>2020-09-10T13:43:04.609Z</time>
      </trkpt>
      <trkpt lat="48.122222" lon="10.431041">
        <ele>605.596843</ele>
        <time>2020-09-10T13:43:06.616Z</time>
      </trkpt>
      <trkpt lat="48.122159" lon="10.431176">
        <ele>605.480859</ele>
        <time>2020-09-10T13:43:08.591Z</time>
      </trkpt>
      <trkpt lat="48.122081" lon="10.431290">
        <ele>605.365911</ele>
        <time>2020-09-10T13:43:10.626Z</time>
      </trkpt>
      <trkpt lat="48.121994" lon="10.431394">
        <ele>605.248504</ele>
        <time>2020-09-10T13:43:12.610Z</time>
      </trkpt>
      <trkpt lat="48.121892" lon="10.431470">
        <ele>605.128338</ele>
        <time>2020-09-10T13:43:14.611Z</time>
      </trkpt>
      <trkpt lat="48.121782" lon="10.431526">
        <ele>605.005790</ele>
        <time>2020-09-10T13:43:16.617Z</time>
      </trkpt>
      <trkpt lat="48.121668" lon="10.431580">
        <ele>604.879672</ele>
        <time>2020-09-10T13:43:18.614Z</time>
      </trkpt>
      <trkpt lat="48.121561" lon="10.431634">
        <ele>604.760573</ele>
        <time>2020-09-10T13:43:20.623Z</time>
      </trkpt>
      <trkpt lat="48.121455" lon="10.431688">
        <ele>604.642473</ele>
        <time>2020-09-10T13:43:22.595Z</time>
      </trkpt>
      <trkpt lat="48.121364" lon="10.431749">
        <ele>604.537312</ele>
        <time>2020-09-10T13:43:24.620Z</time>
      </trkpt>
      <trkpt lat="48.121273" lon="10.431824">
        <ele>604.427754</ele>
        <time>2020-09-10T13:43:26.621Z</time>
      </trkpt>
      <trkpt lat="48.121199" lon="10.431912">
        <ele>604.328092</ele>
        <time>2020-09-10T13:43:28.618Z</time>
      </trkpt>
      <trkpt lat="48.121124" lon="10.432008">
        <ele>604.224033</ele>
        <time>2020-09-10T13:43:30.615Z</time>
      </trkpt>
      <trkpt lat="48.121057" lon="10.432120">
        <ele>604.131025</ele>
        <time>2020-09-10T13:43:32.608Z</time>
      </trkpt>
      <trkpt lat="48.120988" lon="10.432255">
        <ele>604.070013</ele>
        <time>2020-09-10T13:43:34.609Z</time>
      </trkpt>
      <trkpt lat="48.120931" lon="10.432413">
        <ele>604.005568</ele>
        <time>2020-09-10T13:43:36.613Z</time>
      </trkpt>
      <trkpt lat="48.120890" lon="10.432588">
        <ele>603.939016</ele>
        <time>2020-09-10T13:43:38.613Z</time>
      </trkpt>
      <trkpt lat="48.120865" lon="10.432793">
        <ele>603.864238</ele>
        <time>2020-09-10T13:43:40.618Z</time>
      </trkpt>
      <trkpt lat="48.120851" lon="10.432993">
        <ele>603.792077</ele>
        <time>2020-09-10T13:43:42.601Z</time>
      </trkpt>
      <trkpt lat="48.120836" lon="10.433172">
        <ele>603.727341</ele>
        <time>2020-09-10T13:43:44.623Z</time>
      </trkpt>
      <trkpt lat="48.120826" lon="10.433338">
        <ele>603.667532</ele>
        <time>2020-09-10T13:43:46.630Z</time>
      </trkpt>
      <trkpt lat="48.120810" lon="10.433504">
        <ele>603.607347</ele>
        <time>2020-09-10T13:43:48.618Z</time>
      </trkpt>
      <trkpt lat="48.120789" lon="10.433656">
        <ele>603.551648</ele>
        <time>2020-09-10T13:43:50.622Z</time>
      </trkpt>
      <trkpt lat="48.120764" lon="10.433805">
        <ele>603.496519</ele>
        <time>2020-09-10T13:43:52.618Z</time>
      </trkpt>
      <trkpt lat="48.120721" lon="10.433958">
        <ele>603.436949</ele>
        <time>2020-09-10T13:43:54.620Z</time>
      </trkpt>
      <trkpt lat="48.120677" lon="10.434113">
        <ele>603.376510</ele>
        <time>2020-09-10T13:43:56.612Z</time>
      </trkpt>
      <trkpt lat="48.120632" lon="10.434278">
        <ele>603.312551</ele>
        <time>2020-09-10T13:43:58.611Z</time>
      </trkpt>
      <trkpt lat="48.120576" lon="10.434435">
        <ele>603.248675</ele>
        <time>2020-09-10T13:44:00.611Z</time>
      </trkpt>
      <trkpt lat="48.120501" lon="10.434580">
        <ele>603.182853</ele>
        <time>2020-09-10T13:44:02.611Z</time>
      </trkpt>
      <trkpt lat="48.120424" lon="10.434694">
        <ele>603.417330</ele>
        <time>2020-09-10T13:44:04.596Z</time>
      </trkpt>
      <trkpt lat="48.120344" lon="10.434804">
        <ele>603.681724</ele>
        <time>2020-09-10T13:44:06.623Z</time>
      </trkpt>
      <trkpt lat="48.120268" lon="10.434914">
        <ele>603.939028</ele>
        <time>2020-09-10T13:44:08.619Z</time>
      </trkpt>
      <trkpt lat="48.120190" lon="10.435032">
        <ele>604.208934</ele>
        <time>2020-09-10T13:44:10.623Z</time>
      </trkpt>
      <trkpt lat="48.120114" lon="10.435145">
        <ele>604.469650</ele>
        <time>2020-09-10T13:44:12.626Z</time>
      </trkpt>
      <trkpt lat="48.120039" lon="10.435272">
        <ele>604.745248</ele>
        <time>2020-09-10T13:44:14.624Z</time>
      </trkpt>
      <trkpt lat="48.119975" lon="10.435402">
        <ele>605.007788</ele>
        <time>2020-09-10T13:44:16.620Z</time>
      </trkpt>
      <trkpt lat="48.119924" lon="10.435530">
        <ele>605.250072</ele>
        <time>2020-09-10T13:44:18.646Z</time>
      </trkpt>
      <trkpt lat="48.119876" lon="10.435646">
        <ele>605.471897</ele>
        <time>2020-09-10T13:44:20.619Z</time>
      </trkpt>
      <trkpt lat="48.119819" lon="10.435810">
        <ele>605.772420</ele>
        <time>2020-09-10T13:44:23.624Z</time>
      </trkpt>
      <trkpt lat="48.119776" lon="10.435977">
        <ele>606.063347</ele>
        <time>2020-09-10T13:44:26.620Z</time>
      </trkpt>
      <trkpt lat="48.119747" lon="10.436132">
        <ele>606.324986</ele>
        <time>2020-09-10T13:44:29.609Z</time>
      </trkpt>
      <trkpt lat="48.119719" lon="10.436286">
        <ele>606.584411</ele>
        <time>2020-09-10T13:44:32.621Z</time>
      </trkpt>
      <trkpt lat="48.119695" lon="10.436453">
        <ele>606.862066</ele>
        <time>2020-09-10T13:44:35.621Z</time>
      </trkpt>
      <trkpt lat="48.119677" lon="10.436603">
        <ele>607.109780</ele>
        <time>2020-09-10T13:44:38.611Z</time>
      </trkpt>
      <trkpt lat="48.119670" lon="10.436749">
        <ele>607.347695</ele>
        <time>2020-09-10T13:44:41.623Z</time>
      </trkpt>
      <trkpt lat="48.119672" lon="10.436898">
        <ele>607.593213</ele>
        <time>2020-09-10T13:44:44.610Z</time>
      </trkpt>
      <trkpt lat="48.119687" lon="10.437032">
        <ele>607.835978</ele>
        <time>2020-09-10T13:44:47.622Z</time>
      </trkpt>
      <trkpt lat="48.119696" lon="10.437174">
        <ele>608.090835</ele>
        <time>2020-09-10T13:44:50.629Z</time>
      </trkpt>
      <trkpt lat="48.119716" lon="10.437326">
        <ele>608.367643</ele>
        <time>2020-09-10T13:44:53.611Z</time>
      </trkpt>
      <trkpt lat="48.119744" lon="10.437467">
        <ele>608.630483</ele>
        <time>2020-09-10T13:44:56.597Z</time>
      </trkpt>
      <trkpt lat="48.119783" lon="10.437621">
        <ele>608.924773</ele>
        <time>2020-09-10T13:44:59.615Z</time>
      </trkpt>
      <trkpt lat="48.119825" lon="10.437797">
        <ele>609.258725</ele>
        <time>2020-09-10T13:45:02.622Z</time>
      </trkpt>
      <trkpt lat="48.119871" lon="10.437966">
        <ele>609.584817</ele>
        <time>2020-09-10T13:45:05.619Z</time>
      </trkpt>
      <trkpt lat="48.119912" lon="10.438128">
        <ele>609.894370</ele>
        <time>2020-09-10T13:45:08.618Z</time>
      </trkpt>
      <trkpt lat="48.119961" lon="10.438308">
        <ele>610.241692</ele>
        <time>2020-09-10T13:45:11.616Z</time>
      </trkpt>
      <trkpt lat="48.120015" lon="10.438480">
        <ele>610.581297</ele>
        <time>2020-09-10T13:45:14.622Z</time>
      </trkpt>
      <trkpt lat="48.120063" lon="10.438671">
        <ele>610.945942</ele>
        <time>2020-09-10T13:45:17.623Z</time>
      </trkpt>
      <trkpt lat="48.120100" lon="10.438799">
        <ele>611.195162</ele>
        <time>2020-09-10T13:45:19.626Z</time>
      </trkpt>
      <trkpt lat="48.120137" lon="10.438934">
        <ele>611.455906</ele>
        <time>2020-09-10T13:45:21.624Z</time>
      </trkpt>
      <trkpt lat="48.120175" lon="10.439076">
        <ele>611.729246</ele>
        <time>2020-09-10T13:45:23.602Z</time>
      </trkpt>
      <trkpt lat="48.120214" lon="10.439224">
        <ele>612.013536</ele>
        <time>2020-09-10T13:45:25.614Z</time>
      </trkpt>
      <trkpt lat="48.120258" lon="10.439383">
        <ele>612.321065</ele>
        <time>2020-09-10T13:45:27.627Z</time>
      </trkpt>
      <trkpt lat="48.120305" lon="10.439546">
        <ele>612.201467</ele>
        <time>2020-09-10T13:45:29.624Z</time>
      </trkpt>
      <trkpt lat="48.120350" lon="10.439713">
        <ele>611.997821</ele>
        <time>2020-09-10T13:45:31.621Z</time>
      </trkpt>
      <trkpt lat="48.120397" lon="10.439885">
        <ele>611.787662</ele>
        <time>2020-09-10T13:45:33.623Z</time>
      </trkpt>
      <trkpt lat="48.120448" lon="10.440072">
        <ele>611.559238</ele>
        <time>2020-09-10T13:45:35.621Z</time>
      </trkpt>
      <trkpt lat="48.120494" lon="10.440270">
        <ele>611.322170</ele>
        <time>2020-09-10T13:45:37.626Z</time>
      </trkpt>
      <trkpt lat="48.120547" lon="10.440459">
        <ele>611.090361</ele>
        <time>2020-09-10T13:45:39.621Z</time>
      </trkpt>
      <trkpt lat="48.120600" lon="10.440655">
        <ele>610.851234</ele>
        <time>2020-09-10T13:45:41.626Z</time>
      </trkpt>
      <trkpt lat="48.120648" lon="10.440845">
        <ele>610.621514</ele>
        <time>2020-09-10T13:45:43.611Z</time>
      </trkpt>
      <trkpt lat="48.120700" lon="10.441032">
        <ele>610.392446</ele>
        <time>2020-09-10T13:45:45.630Z</time>
      </trkpt>
      <trkpt lat="48.120745" lon="10.441218">
        <ele>610.168733</ele>
        <time>2020-09-10T13:45:47.610Z</time>
      </trkpt>
      <trkpt lat="48.120794" lon="10.441402">
        <ele>609.944725</ele>
        <time>2020-09-10T13:45:49.628Z</time>
      </trkpt>
      <trkpt lat="48.120843" lon="10.441582">
        <ele>609.724911</ele>
        <time>2020-09-10T13:45:51.621Z</time>
      </trkpt>
      <trkpt lat="48.120889" lon="10.441751">
        <ele>609.518534</ele>
        <time>2020-09-10T13:45:53.593Z</time>
      </trkpt>
      <trkpt lat="48.120938" lon="10.441919">
        <ele>609.314650</ele>
        <time>2020-09-10T13:45:55.618Z</time>
      </trkpt>
      <trkpt lat="48.120983" lon="10.442087">
        <ele>609.164593</ele>
        <time>2020-09-10T13:45:57.615Z</time>
      </trkpt>
      <trkpt lat="48.121031" lon="10.442253">
        <ele>609.014632</ele>
        <time>2020-09-10T13:45:59.622Z</time>
      </trkpt>
      <trkpt lat="48.121083" lon="10.442425">
        <ele>608.858111</ele>
        <time>2020-09-10T13:46:01.618Z</time>
      </trkpt>
      <trkpt lat="48.121132" lon="10.442598">
        <ele>608.702328</ele>
        <time>2020-09-10T13:46:03.619Z</time>
      </trkpt>
      <trkpt lat="48.121180" lon="10.442776">
        <ele>608.543190</ele>
        <time>2020-09-10T13:46:05.614Z</time>
      </trkpt>
      <trkpt lat="48.121221" lon="10.442941">
        <ele>608.397245</ele>
        <time>2020-09-10T13:46:07.617Z</time>
      </trkpt>
      <trkpt lat="48.121265" lon="10.443089">
        <ele>608.262943</ele>
        <time>2020-09-10T13:46:09.625Z</time>
      </trkpt>
      <trkpt lat="48.121301" lon="10.443234">
        <ele>608.134701</ele>
        <time>2020-09-10T13:46:11.620Z</time>
      </trkpt>
      <trkpt lat="48.121338" lon="10.443368">
        <ele>608.014495</ele>
        <time>2020-09-10T13:46:13.619Z</time>
      </trkpt>
      <trkpt lat="48.121383" lon="10.443494">
        <ele>607.896039</ele>
        <time>2020-09-10T13:46:15.622Z</time>
      </trkpt>
      <trkpt lat="48.121447" lon="10.443602">
        <ele>607.776327</ele>
        <time>2020-09-10T13:46:17.606Z</time>
      </trkpt>
      <trkpt lat="48.121514" lon="10.443695">
        <ele>607.662902</ele>
        <time>2020-09-10T13:46:19.614Z</time>
      </trkpt>
      <trkpt lat="48.121578" lon="10.443828">
        <ele>607.526994</ele>
        <time>2020-09-10T13:46:21.623Z</time>
      </trkpt>
      <trkpt lat="48.121627" lon="10.444004">
        <ele>607.368919</ele>
        <time>2020-09-10T13:46:23.610Z</time>
      </trkpt>
      <trkpt lat="48.121646" lon="10.444213">
        <ele>607.194071</ele>
        <time>2020-09-10T13:46:25.612Z</time>
      </trkpt>
      <trkpt lat="48.121667" lon="10.444423">
        <ele>607.065134</ele>
        <time>2020-09-10T13:46:27.625Z</time>
      </trkpt>
      <trkpt lat="48.121695" lon="10.444627">
        <ele>607.004593</ele>
        <time>2020-09-10T13:46:29.627Z</time>
      </trkpt>
      <trkpt lat="48.121716" lon="10.444832">
        <ele>606.944305</ele>
        <time>2020-09-10T13:46:31.612Z</time>
      </trkpt>
      <trkpt lat="48.121732" lon="10.445034">
        <ele>606.885174</ele>
        <time>2020-09-10T13:46:33.630Z</time>
      </trkpt>
      <trkpt lat="48.121751" lon="10.445232">
        <ele>606.827026</ele>
        <time>2020-09-10T13:46:35.610Z</time>
      </trkpt>
      <trkpt lat="48.121770" lon="10.445429">
        <ele>606.769166</ele>
        <time>2020-09-10T13:46:37.631Z</time>
      </trkpt>
      <trkpt lat="48.121792" lon="10.445619">
        <ele>606.713110</ele>
        <time>2020-09-10T13:46:39.621Z</time>
      </trkpt>
      <trkpt lat="48.121805" lon="10.445816">
        <ele>606.655566</ele>
        <time>2020-09-10T13:46:41.617Z</time>
      </trkpt>
      <trkpt lat="48.121804" lon="10.446014">
        <ele>606.598008</ele>
        <time>2020-09-10T13:46:43.623Z</time>
      </trkpt>
      <trkpt lat="48.121788" lon="10.446208">
        <ele>606.541186</ele>
        <time>2020-09-10T13:46:45.601Z</time>
      </trkpt>
      <trkpt lat="48.121767" lon="10.446401">
        <ele>606.484342</ele>
        <time>2020-09-10T13:46:47.606Z</time>
      </trkpt>
      <trkpt lat="48.121757" lon="10.446583">
        <ele>606.431258</ele>
        <time>2020-09-10T13:46:49.623Z</time>
      </trkpt>
      <trkpt lat="48.121758" lon="10.446735">
        <ele>606.387072</ele>
        <time>2020-09-10T13:46:51.646Z</time>
      </trkpt>
      <trkpt lat="48.121708" lon="10.446926">
        <ele>606.327434</ele>
        <time>2020-09-10T13:46:54.607Z</time>
      </trkpt>
      <trkpt lat="48.121703" lon="10.447105">
        <ele>606.376104</ele>
        <time>2020-09-10T13:46:56.641Z</time>
      </trkpt>
      <trkpt lat="48.121751" lon="10.447279">
        <ele>606.493797</ele>
        <time>2020-09-10T13:46:58.606Z</time>
      </trkpt>
      <trkpt lat="48.121793" lon="10.447452">
        <ele>606.608873</ele>
        <time>2020-09-10T13:47:00.594Z</time>
      </trkpt>
      <trkpt lat="48.121809" lon="10.447626">
        <ele>606.718671</ele>
        <time>2020-09-10T13:47:02.602Z</time>
      </trkpt>
      <trkpt lat="48.121720" lon="10.447715">
        <ele>606.818878</ele>
        <time>2020-09-10T13:47:05.609Z</time>
      </trkpt>
      <trkpt lat="48.121625" lon="10.447730">
        <ele>606.908333</ele>
        <time>2020-09-10T13:47:07.619Z</time>
      </trkpt>
      <trkpt lat="48.121509" lon="10.447759">
        <ele>607.018462</ele>
        <time>2020-09-10T13:47:10.624Z</time>
      </trkpt>
      <trkpt lat="48.121441" lon="10.447860">
        <ele>607.108135</ele>
        <time>2020-09-10T13:47:12.614Z</time>
      </trkpt>
      <trkpt lat="48.121470" lon="10.448027">
        <ele>607.216006</ele>
        <time>2020-09-10T13:47:14.599Z</time>
      </trkpt>
      <trkpt lat="48.121513" lon="10.448187">
        <ele>607.323827</ele>
        <time>2020-09-10T13:47:16.584Z</time>
      </trkpt>
      <trkpt lat="48.121524" lon="10.448350">
        <ele>607.426241</ele>
        <time>2020-09-10T13:47:18.639Z</time>
      </trkpt>
      <trkpt lat="48.121526" lon="10.448507">
        <ele>607.524404</ele>
        <time>2020-09-10T13:47:20.611Z</time>
      </trkpt>
      <trkpt lat="48.121510" lon="10.448643">
        <ele>607.610731</ele>
        <time>2020-09-10T13:47:22.623Z</time>
      </trkpt>
      <trkpt lat="48.121479" lon="10.448791">
        <ele>607.707697</ele>
        <time>2020-09-10T13:47:24.614Z</time>
      </trkpt>
      <trkpt lat="48.121461" lon="10.448954">
        <ele>607.810977</ele>
        <time>2020-09-10T13:47:26.623Z</time>
      </trkpt>
      <trkpt lat="48.121451" lon="10.449104">
        <ele>607.905212</ele>
        <time>2020-09-10T13:47:28.619Z</time>
      </trkpt>
      <trkpt lat="48.121432" lon="10.449253">
        <ele>607.998570</ele>
        <time>2020-09-10T13:47:30.617Z</time>
      </trkpt>
      <trkpt lat="48.121408" lon="10.449407">
        <ele>608.080096</ele>
        <time>2020-09-10T13:47:32.608Z</time>
      </trkpt>
      <trkpt lat="48.121385" lon="10.449565">
        <ele>608.163464</ele>
        <time>2020-09-10T13:47:34.619Z</time>
      </trkpt>
      <trkpt lat="48.121371" lon="10.449699">
        <ele>608.233385</ele>
        <time>2020-09-10T13:47:36.613Z</time>
      </trkpt>
      <trkpt lat="48.121355" lon="10.449840">
        <ele>608.307118</ele>
        <time>2020-09-10T13:47:38.624Z</time>
      </trkpt>
      <trkpt lat="48.121319" lon="10.449980">
        <ele>608.384461</ele>
        <time>2020-09-10T13:47:40.599Z</time>
      </trkpt>
      <trkpt lat="48.121278" lon="10.450124">
        <ele>608.465168</ele>
        <time>2020-09-10T13:47:42.605Z</time>
      </trkpt>
      <trkpt lat="48.121228" lon="10.450272">
        <ele>608.550680</ele>
        <time>2020-09-10T13:47:44.618Z</time>
      </trkpt>
      <trkpt lat="48.121180" lon="10.450412">
        <ele>608.631817</ele>
        <time>2020-09-10T13:47:46.620Z</time>
      </trkpt>
      <trkpt lat="48.121128" lon="10.450532">
        <ele>608.705572</ele>
        <time>2020-09-10T13:47:48.622Z</time>
      </trkpt>
      <trkpt lat="48.121075" lon="10.450646">
        <ele>608.777190</ele>
        <time>2020-09-10T13:47:50.623Z</time>
      </trkpt>
      <trkpt lat="48.121027" lon="10.450782">
        <ele>608.856499</ele>
        <time>2020-09-10T13:47:52.617Z</time>
      </trkpt>
      <trkpt lat="48.120976" lon="10.450911">
        <ele>608.933790</ele>
        <time>2020-09-10T13:47:54.625Z</time>
      </trkpt>
      <trkpt lat="48.120929" lon="10.451063">
        <ele>609.020149</ele>
        <time>2020-09-10T13:47:56.618Z</time>
      </trkpt>
      <trkpt lat="48.120888" lon="10.451217">
        <ele>609.105622</ele>
        <time>2020-09-10T13:47:58.614Z</time>
      </trkpt>
      <trkpt lat="48.120849" lon="10.451355">
        <ele>609.182878</ele>
        <time>2020-09-10T13:48:00.625Z</time>
      </trkpt>
      <trkpt lat="48.120817" lon="10.451491">
        <ele>609.257218</ele>
        <time>2020-09-10T13:48:02.621Z</time>
      </trkpt>
      <trkpt lat="48.120786" lon="10.451630">
        <ele>609.332771</ele>
        <time>2020-09-10T13:48:04.627Z</time>
      </trkpt>
      <trkpt lat="48.120758" lon="10.451781">
        <ele>609.368147</ele>
        <time>2020-09-10T13:48:06.624Z</time>
      </trkpt>
      <trkpt lat="48.120738" lon="10.451928">
        <ele>609.338658</ele>
        <time>2020-09-10T13:48:08.628Z</time>
      </trkpt>
      <trkpt lat="48.120719" lon="10.452068">
        <ele>609.310576</ele>
        <time>2020-09-10T13:48:10.614Z</time>
      </trkpt>
      <trkpt lat="48.120695" lon="10.452215">
        <ele>609.280830</ele>
        <time>2020-09-10T13:48:12.625Z</time>
      </trkpt>
      <trkpt lat="48.120669" lon="10.452361">
        <ele>609.251128</ele>
        <time>2020-09-10T13:48:14.616Z</time>
      </trkpt>
      <trkpt lat="48.120646" lon="10.452499">
        <ele>609.223169</ele>
        <time>2020-09-10T13:48:16.632Z</time>
      </trkpt>
      <trkpt lat="48.120604" lon="10.452619">
        <ele>609.196536</ele>
        <time>2020-09-10T13:48:18.622Z</time>
      </trkpt>
      <trkpt lat="48.120556" lon="10.452749">
        <ele>609.167334</ele>
        <time>2020-09-10T13:48:20.606Z</time>
      </trkpt>
      <trkpt lat="48.120515" lon="10.452888">
        <ele>609.137464</ele>
        <time>2020-09-10T13:48:22.617Z</time>
      </trkpt>
      <trkpt lat="48.120477" lon="10.453023">
        <ele>609.108665</ele>
        <time>2020-09-10T13:48:24.618Z</time>
      </trkpt>
      <trkpt lat="48.120431" lon="10.453161">
        <ele>609.078345</ele>
        <time>2020-09-10T13:48:27.606Z</time>
      </trkpt>
      <trkpt lat="48.120439" lon="10.453311">
        <ele>609.048767</ele>
        <time>2020-09-10T13:48:31.609Z</time>
      </trkpt>
      <trkpt lat="48.120496" lon="10.453444">
        <ele>609.017700</ele>
        <time>2020-09-10T13:48:34.621Z</time>
      </trkpt>
      <trkpt lat="48.120533" lon="10.453569">
        <ele>608.990822</ele>
        <time>2020-09-10T13:48:36.609Z</time>
      </trkpt>
      <trkpt lat="48.120580" lon="10.453705">
        <ele>608.960719</ele>
        <time>2020-09-10T13:48:38.621Z</time>
      </trkpt>
      <trkpt lat="48.120628" lon="10.453845">
        <ele>608.929783</ele>
        <time>2020-09-10T13:48:40.621Z</time>
      </trkpt>
      <trkpt lat="48.120666" lon="10.453983">
        <ele>608.900440</ele>
        <time>2020-09-10T13:48:42.612Z</time>
      </trkpt>
      <trkpt lat="48.120707" lon="10.454116">
        <ele>608.871644</ele>
        <time>2020-09-10T13:48:44.618Z</time>
      </trkpt>
      <trkpt lat="48.120740" lon="10.454245">
        <ele>608.818883</ele>
        <time>2020-09-10T13:48:46.612Z</time>
      </trkpt>
      <trkpt lat="48.120751" lon="10.454424">
        <ele>608.646122</ele>
        <time>2020-09-10T13:48:49.606Z</time>
      </trkpt>
      <trkpt lat="48.120770" lon="10.454599">
        <ele>608.475723</ele>
        <time>2020-09-10T13:48:52.615Z</time>
      </trkpt>
      <trkpt lat="48.120809" lon="10.454739">
        <ele>608.329927</ele>
        <time>2020-09-10T13:48:54.617Z</time>
      </trkpt>
      <trkpt lat="48.120855" lon="10.454871">
        <ele>608.186819</ele>
        <time>2020-09-10T13:48:56.619Z</time>
      </trkpt>
      <trkpt lat="48.120918" lon="10.454993">
        <ele>608.038581</ele>
        <time>2020-09-10T13:48:58.635Z</time>
      </trkpt>
      <trkpt lat="48.120982" lon="10.455129">
        <ele>607.878662</ele>
        <time>2020-09-10T13:49:00.616Z</time>
      </trkpt>
      <trkpt lat="48.121040" lon="10.455278">
        <ele>607.712895</ele>
        <time>2020-09-10T13:49:02.600Z</time>
      </trkpt>
      <trkpt lat="48.121087" lon="10.455448">
        <ele>607.536054</ele>
        <time>2020-09-10T13:49:04.612Z</time>
      </trkpt>
      <trkpt lat="48.121131" lon="10.455609">
        <ele>607.368857</ele>
        <time>2020-09-10T13:49:06.616Z</time>
      </trkpt>
      <trkpt lat="48.121185" lon="10.455772">
        <ele>607.193972</ele>
        <time>2020-09-10T13:49:08.610Z</time>
      </trkpt>
      <trkpt lat="48.121239" lon="10.455923">
        <ele>607.029337</ele>
        <time>2020-09-10T13:49:10.621Z</time>
      </trkpt>
      <trkpt lat="48.121292" lon="10.456068">
        <ele>606.870460</ele>
        <time>2020-09-10T13:49:12.643Z</time>
      </trkpt>
      <trkpt lat="48.121300" lon="10.456228">
        <ele>606.716258</ele>
        <time>2020-09-10T13:49:15.611Z</time>
      </trkpt>
      <trkpt lat="48.121212" lon="10.456296">
        <ele>606.573703</ele>
        <time>2020-09-10T13:49:17.614Z</time>
      </trkpt>
      <trkpt lat="48.121122" lon="10.456371">
        <ele>606.425431</ele>
        <time>2020-09-10T13:49:19.618Z</time>
      </trkpt>
      <trkpt lat="48.121020" lon="10.456456">
        <ele>606.266344</ele>
        <time>2020-09-10T13:49:21.618Z</time>
      </trkpt>
      <trkpt lat="48.120931" lon="10.456552">
        <ele>606.445031</ele>
        <time>2020-09-10T13:49:23.593Z</time>
      </trkpt>
      <trkpt lat="48.120833" lon="10.456667">
        <ele>606.647858</ele>
        <time>2020-09-10T13:49:25.608Z</time>
      </trkpt>
      <trkpt lat="48.120746" lon="10.456765">
        <ele>606.825210</ele>
        <time>2020-09-10T13:49:27.619Z</time>
      </trkpt>
      <trkpt lat="48.120667" lon="10.456843">
        <ele>606.979366</ele>
        <time>2020-09-10T13:49:29.609Z</time>
      </trkpt>
      <trkpt lat="48.120588" lon="10.456933">
        <ele>607.141073</ele>
        <time>2020-09-10T13:49:31.608Z</time>
      </trkpt>
      <trkpt lat="48.120520" lon="10.457031">
        <ele>607.294813</ele>
        <time>2020-09-10T13:49:34.614Z</time>
      </trkpt>
      <trkpt lat="48.120460" lon="10.457185">
        <ele>607.488751</ele>
        <time>2020-09-10T13:49:55.610Z</time>
      </trkpt>
      <trkpt lat="48.120384" lon="10.457288">
        <ele>607.655733</ele>
        <time>2020-09-10T13:49:58.606Z</time>
      </trkpt>
      <trkpt lat="48.120302" lon="10.457382">
        <ele>607.823965</ele>
        <time>2020-09-10T13:50:01.617Z</time>
      </trkpt>
      <trkpt lat="48.120240" lon="10.457523">
        <ele>608.007604</ele>
        <time>2020-09-10T13:50:05.609Z</time>
      </trkpt>
      <trkpt lat="48.120184" lon="10.457648">
        <ele>608.171338</ele>
        <time>2020-09-10T13:50:09.627Z</time>
      </trkpt>
      <trkpt lat="48.120123" lon="10.457763">
        <ele>608.331097</ele>
        <time>2020-09-10T13:50:13.612Z</time>
      </trkpt>
      <trkpt lat="48.120050" lon="10.457864">
        <ele>608.493004</ele>
        <time>2020-09-10T13:50:17.608Z</time>
      </trkpt>
      <trkpt lat="48.119965" lon="10.457981">
        <ele>608.681082</ele>
        <time>2020-09-10T13:50:21.614Z</time>
      </trkpt>
      <trkpt lat="48.119887" lon="10.458055">
        <ele>608.831509</ele>
        <time>2020-09-10T13:50:24.614Z</time>
      </trkpt>
      <trkpt lat="48.119792" lon="10.458121">
        <ele>609.002127</ele>
        <time>2020-09-10T13:50:27.618Z</time>
      </trkpt>
      <trkpt lat="48.119617" lon="10.458200">
        <ele>609.183170</ele>
        <time>2020-09-10T13:52:18.640Z</time>
      </trkpt>
      <trkpt lat="48.119523" lon="10.458238">
        <ele>609.170065</ele>
        <time>2020-09-10T13:52:21.621Z</time>
      </trkpt>
      <trkpt lat="48.119430" lon="10.458280">
        <ele>609.156990</ele>
        <time>2020-09-10T13:52:23.596Z</time>
      </trkpt>
      <trkpt lat="48.119352" lon="10.458352">
        <ele>609.144657</ele>
        <time>2020-09-10T13:52:25.618Z</time>
      </trkpt>
      <trkpt lat="48.119254" lon="10.458463">
        <ele>609.128119</ele>
        <time>2020-09-10T13:52:28.598Z</time>
      </trkpt>
      <trkpt lat="48.119157" lon="10.458589">
        <ele>609.110836</ele>
        <time>2020-09-10T13:52:31.621Z</time>
      </trkpt>
      <trkpt lat="48.119065" lon="10.458725">
        <ele>609.093438</ele>
        <time>2020-09-10T13:52:34.613Z</time>
      </trkpt>
      <trkpt lat="48.118968" lon="10.458859">
        <ele>609.075676</ele>
        <time>2020-09-10T13:52:37.617Z</time>
      </trkpt>
      <trkpt lat="48.118876" lon="10.459002">
        <ele>609.057830</ele>
        <time>2020-09-10T13:52:40.616Z</time>
      </trkpt>
      <trkpt lat="48.118812" lon="10.459102">
        <ele>609.045381</ele>
        <time>2020-09-10T13:52:42.619Z</time>
      </trkpt>
      <trkpt lat="48.118745" lon="10.459198">
        <ele>609.032901</ele>
        <time>2020-09-10T13:52:44.618Z</time>
      </trkpt>
      <trkpt lat="48.118677" lon="10.459294">
        <ele>609.020323</ele>
        <time>2020-09-10T13:52:46.617Z</time>
      </trkpt>
      <trkpt lat="48.118609" lon="10.459395">
        <ele>609.007433</ele>
        <time>2020-09-10T13:52:48.620Z</time>
      </trkpt>
      <trkpt lat="48.118523" lon="10.459528">
        <ele>608.990794</ele>
        <time>2020-09-10T13:52:51.617Z</time>
      </trkpt>
      <trkpt lat="48.118452" lon="10.459626">
        <ele>608.977798</ele>
        <time>2020-09-10T13:52:54.616Z</time>
      </trkpt>
      <trkpt lat="48.118379" lon="10.459727">
        <ele>608.964422</ele>
        <time>2020-09-10T13:52:59.615Z</time>
      </trkpt>
      <trkpt lat="48.118436" lon="10.459849">
        <ele>608.951040</ele>
        <time>2020-09-10T13:53:08.611Z</time>
      </trkpt>
      <trkpt lat="48.118427" lon="10.460023">
        <ele>609.008553</ele>
        <time>2020-09-10T13:53:11.612Z</time>
      </trkpt>
      <trkpt lat="48.118372" lon="10.460197">
        <ele>609.077909</ele>
        <time>2020-09-10T13:53:14.603Z</time>
      </trkpt>
      <trkpt lat="48.118299" lon="10.460349">
        <ele>609.145367</ele>
        <time>2020-09-10T13:53:17.619Z</time>
      </trkpt>
      <trkpt lat="48.118229" lon="10.460508">
        <ele>609.213982</ele>
        <time>2020-09-10T13:53:20.597Z</time>
      </trkpt>
      <trkpt lat="48.118173" lon="10.460636">
        <ele>609.269116</ele>
        <time>2020-09-10T13:53:22.620Z</time>
      </trkpt>
      <trkpt lat="48.118124" lon="10.460758">
        <ele>609.320409</ele>
        <time>2020-09-10T13:53:24.616Z</time>
      </trkpt>
      <trkpt lat="48.118079" lon="10.460895">
        <ele>609.375415</ele>
        <time>2020-09-10T13:53:26.613Z</time>
      </trkpt>
      <trkpt lat="48.118060" lon="10.461043">
        <ele>609.429711</ele>
        <time>2020-09-10T13:53:28.603Z</time>
      </trkpt>
      <trkpt lat="48.118062" lon="10.461198">
        <ele>609.485562</ele>
        <time>2020-09-10T13:53:30.619Z</time>
      </trkpt>
      <trkpt lat="48.118083" lon="10.461342">
        <ele>609.538663</ele>
        <time>2020-09-10T13:53:32.600Z</time>
      </trkpt>
      <trkpt lat="48.118106" lon="10.461500">
        <ele>609.596922</ele>
        <time>2020-09-10T13:53:34.606Z</time>
      </trkpt>
      <trkpt lat="48.118126" lon="10.461656">
        <ele>609.654150</ele>
        <time>2020-09-10T13:53:36.628Z</time>
      </trkpt>
      <trkpt lat="48.118150" lon="10.461817">
        <ele>609.713581</ele>
        <time>2020-09-10T13:53:38.601Z</time>
      </trkpt>
      <trkpt lat="48.118177" lon="10.461980">
        <ele>609.774084</ele>
        <time>2020-09-10T13:53:40.627Z</time>
      </trkpt>
      <trkpt lat="48.118208" lon="10.462137">
        <ele>609.833067</ele>
        <time>2020-09-10T13:53:42.620Z</time>
      </trkpt>
      <trkpt lat="48.118226" lon="10.462298">
        <ele>609.891877</ele>
        <time>2020-09-10T13:53:44.625Z</time>
      </trkpt>
      <trkpt lat="48.118238" lon="10.462450">
        <ele>609.916380</ele>
        <time>2020-09-10T13:53:46.614Z</time>
      </trkpt>
      <trkpt lat="48.118251" lon="10.462608">
        <ele>609.907242</ele>
        <time>2020-09-10T13:53:48.618Z</time>
      </trkpt>
      <trkpt lat="48.118273" lon="10.462768">
        <ele>609.897865</ele>
        <time>2020-09-10T13:53:50.626Z</time>
      </trkpt>
      <trkpt lat="48.118293" lon="10.462936">
        <ele>609.888069</ele>
        <time>2020-09-10T13:53:52.623Z</time>
      </trkpt>
      <trkpt lat="48.118303" lon="10.463118">
        <ele>609.877587</ele>
        <time>2020-09-10T13:53:54.629Z</time>
      </trkpt>
      <trkpt lat="48.118324" lon="10.463310">
        <ele>609.866419</ele>
        <time>2020-09-10T13:53:56.628Z</time>
      </trkpt>
      <trkpt lat="48.118344" lon="10.463496">
        <ele>609.855605</ele>
        <time>2020-09-10T13:53:58.622Z</time>
      </trkpt>
      <trkpt lat="48.118374" lon="10.463661">
        <ele>609.845789</ele>
        <time>2020-09-10T13:54:00.619Z</time>
      </trkpt>
      <trkpt lat="48.118391" lon="10.463813">
        <ele>609.836942</ele>
        <time>2020-09-10T13:54:02.628Z</time>
      </trkpt>
      <trkpt lat="48.118407" lon="10.463956">
        <ele>609.828620</ele>
        <time>2020-09-10T13:54:04.616Z</time>
      </trkpt>
      <trkpt lat="48.118427" lon="10.464095">
        <ele>609.820458</ele>
        <time>2020-09-10T13:54:06.614Z</time>
      </trkpt>
      <trkpt lat="48.118435" lon="10.464239">
        <ele>609.812163</ele>
        <time>2020-09-10T13:54:08.623Z</time>
      </trkpt>
      <trkpt lat="48.118451" lon="10.464396">
        <ele>609.803047</ele>
        <time>2020-09-10T13:54:10.621Z</time>
      </trkpt>
      <trkpt lat="48.118476" lon="10.464563">
        <ele>609.793223</ele>
        <time>2020-09-10T13:54:12.618Z</time>
      </trkpt>
      <trkpt lat="48.118496" lon="10.464720">
        <ele>609.784048</ele>
        <time>2020-09-10T13:54:14.616Z</time>
      </trkpt>
      <trkpt lat="48.118510" lon="10.464885">
        <ele>609.774501</ele>
        <time>2020-09-10T13:54:16.617Z</time>
      </trkpt>
      <trkpt lat="48.118529" lon="10.465051">
        <ele>609.776800</ele>
        <time>2020-09-10T13:54:18.660Z</time>
      </trkpt>
      <trkpt lat="48.118545" lon="10.465204">
        <ele>609.864052</ele>
        <time>2020-09-10T13:54:20.625Z</time>
      </trkpt>
      <trkpt lat="48.118558" lon="10.465352">
        <ele>609.948155</ele>
        <time>2020-09-10T13:54:22.613Z</time>
      </trkpt>
      <trkpt lat="48.118579" lon="10.465498">
        <ele>610.032300</ele>
        <time>2020-09-10T13:54:24.621Z</time>
      </trkpt>
      <trkpt lat="48.118593" lon="10.465649">
        <ele>610.118190</ele>
        <time>2020-09-10T13:54:26.615Z</time>
      </trkpt>
      <trkpt lat="48.118613" lon="10.465799">
        <ele>610.204370</ele>
        <time>2020-09-10T13:54:28.614Z</time>
      </trkpt>
      <trkpt lat="48.118631" lon="10.465945">
        <ele>610.288018</ele>
        <time>2020-09-10T13:54:30.621Z</time>
      </trkpt>
      <trkpt lat="48.118644" lon="10.466083">
        <ele>610.366538</ele>
        <time>2020-09-10T13:54:32.622Z</time>
      </trkpt>
      <trkpt lat="48.118654" lon="10.466277">
        <ele>610.476164</ele>
        <time>2020-09-10T13:54:35.624Z</time>
      </trkpt>
      <trkpt lat="48.118554" lon="10.466375">
        <ele>610.577014</ele>
        <time>2020-09-10T13:54:38.613Z</time>
      </trkpt>
      <trkpt lat="48.118473" lon="10.466448">
        <ele>610.656792</ele>
        <time>2020-09-10T13:54:40.621Z</time>
      </trkpt>
      <trkpt lat="48.118372" lon="10.466512">
        <ele>610.749343</ele>
        <time>2020-09-10T13:54:42.624Z</time>
      </trkpt>
      <trkpt lat="48.118265" lon="10.466560">
        <ele>610.843607</ele>
        <time>2020-09-10T13:54:44.601Z</time>
      </trkpt>
      <trkpt lat="48.118154" lon="10.466596">
        <ele>610.939454</ele>
        <time>2020-09-10T13:54:46.610Z</time>
      </trkpt>
      <trkpt lat="48.118042" lon="10.466616">
        <ele>611.034644</ele>
        <time>2020-09-10T13:54:48.595Z</time>
      </trkpt>
      <trkpt lat="48.117919" lon="10.466618">
        <ele>611.138455</ele>
        <time>2020-09-10T13:54:50.593Z</time>
      </trkpt>
      <trkpt lat="48.117795" lon="10.466626">
        <ele>611.243200</ele>
        <time>2020-09-10T13:54:52.612Z</time>
      </trkpt>
      <trkpt lat="48.117685" lon="10.466642">
        <ele>611.257021</ele>
        <time>2020-09-10T13:54:54.619Z</time>
      </trkpt>
      <trkpt lat="48.117576" lon="10.466671">
        <ele>611.209301</ele>
        <time>2020-09-10T13:54:56.615Z</time>
      </trkpt>
      <trkpt lat="48.117474" lon="10.466719">
        <ele>611.163215</ele>
        <time>2020-09-10T13:54:58.610Z</time>
      </trkpt>
      <trkpt lat="48.117364" lon="10.466789">
        <ele>611.111698</ele>
        <time>2020-09-10T13:55:00.623Z</time>
      </trkpt>
      <trkpt lat="48.117253" lon="10.466893">
        <ele>611.055263</ele>
        <time>2020-09-10T13:55:02.626Z</time>
      </trkpt>
      <trkpt lat="48.117155" lon="10.466990">
        <ele>611.004630</ele>
        <time>2020-09-10T13:55:04.622Z</time>
      </trkpt>
      <trkpt lat="48.117070" lon="10.467086">
        <ele>610.958743</ele>
        <time>2020-09-10T13:55:06.619Z</time>
      </trkpt>
      <trkpt lat="48.116990" lon="10.467188">
        <ele>610.913458</ele>
        <time>2020-09-10T13:55:08.624Z</time>
      </trkpt>
      <trkpt lat="48.116918" lon="10.467288">
        <ele>610.871133</ele>
        <time>2020-09-10T13:55:10.619Z</time>
      </trkpt>
      <trkpt lat="48.116860" lon="10.467407">
        <ele>610.828733</ele>
        <time>2020-09-10T13:55:12.620Z</time>
      </trkpt>
      <trkpt lat="48.116815" lon="10.467525">
        <ele>610.789626</ele>
        <time>2020-09-10T13:55:14.622Z</time>
      </trkpt>
      <trkpt lat="48.116787" lon="10.467703">
        <ele>610.737000</ele>
        <time>2020-09-10T13:55:17.604Z</time>
      </trkpt>
      <trkpt lat="48.116832" lon="10.467828">
        <ele>610.696131</ele>
        <time>2020-09-10T13:55:19.602Z</time>
      </trkpt>
      <trkpt lat="48.116890" lon="10.467955">
        <ele>610.651851</ele>
        <time>2020-09-10T13:55:21.609Z</time>
      </trkpt>
      <trkpt lat="48.116918" lon="10.468086">
        <ele>610.612267</ele>
        <time>2020-09-10T13:55:23.618Z</time>
      </trkpt>
      <trkpt lat="48.116829" lon="10.468235">
        <ele>610.554732</ele>
        <time>2020-09-10T13:55:26.601Z</time>
      </trkpt>
      <trkpt lat="48.116742" lon="10.468324">
        <ele>610.509319</ele>
        <time>2020-09-10T13:55:28.614Z</time>
      </trkpt>
      <trkpt lat="48.116639" lon="10.468434">
        <ele>610.457131</ele>
        <time>2020-09-10T13:55:30.621Z</time>
      </trkpt>
      <trkpt lat="48.116533" lon="10.468549">
        <ele>610.403167</ele>
        <time>2020-09-10T13:55:32.625Z</time>
      </trkpt>
      <trkpt lat="48.116420" lon="10.468663">
        <ele>610.346994</ele>
        <time>2020-09-10T13:55:34.613Z</time>
      </trkpt>
      <trkpt lat="48.116320" lon="10.468771">
        <ele>610.296163</ele>
        <time>2020-09-10T13:55:36.619Z</time>
      </trkpt>
      <trkpt lat="48.116233" lon="10.468875">
        <ele>610.250270</ele>
        <time>2020-09-10T13:55:38.624Z</time>
      </trkpt>
      <trkpt lat="48.116145" lon="10.468980">
        <ele>610.203882</ele>
        <time>2020-09-10T13:55:40.609Z</time>
      </trkpt>
      <trkpt lat="48.116051" lon="10.469092">
        <ele>610.154359</ele>
        <time>2020-09-10T13:55:42.620Z</time>
      </trkpt>
      <trkpt lat="48.115971" lon="10.469185">
        <ele>610.112606</ele>
        <time>2020-09-10T13:55:44.621Z</time>
      </trkpt>
      <trkpt lat="48.115892" lon="10.469267">
        <ele>610.072977</ele>
        <time>2020-09-10T13:55:46.619Z</time>
      </trkpt>
      <trkpt lat="48.115797" lon="10.469377">
        <ele>610.023469</ele>
        <time>2020-09-10T13:55:48.615Z</time>
      </trkpt>
      <trkpt lat="48.115694" lon="10.469494">
        <ele>609.970171</ele>
        <time>2020-09-10T13:55:50.614Z</time>
      </trkpt>
      <trkpt lat="48.115599" lon="10.469597">
        <ele>609.921817</ele>
        <time>2020-09-10T13:55:52.620Z</time>
      </trkpt>
      <trkpt lat="48.115503" lon="10.469689">
        <ele>609.874828</ele>
        <time>2020-09-10T13:55:54.621Z</time>
      </trkpt>
      <trkpt lat="48.115406" lon="10.469785">
        <ele>609.826892</ele>
        <time>2020-09-10T13:55:56.622Z</time>
      </trkpt>
      <trkpt lat="48.115302" lon="10.469876">
        <ele>609.777232</ele>
        <time>2020-09-10T13:55:58.619Z</time>
      </trkpt>
      <trkpt lat="48.115206" lon="10.469947">
        <ele>609.737804</ele>
        <time>2020-09-10T13:56:00.599Z</time>
      </trkpt>
      <trkpt lat="48.115113" lon="10.470025">
        <ele>609.699970</ele>
        <time>2020-09-10T13:56:02.627Z</time>
      </trkpt>
      <trkpt lat="48.115025" lon="10.470090">
        <ele>609.665143</ele>
        <time>2020-09-10T13:56:04.621Z</time>
      </trkpt>
      <trkpt lat="48.114937" lon="10.470127">
        <ele>609.632700</ele>
        <time>2020-09-10T13:56:06.621Z</time>
      </trkpt>
      <trkpt lat="48.114849" lon="10.470216">
        <ele>609.595010</ele>
        <time>2020-09-10T13:56:09.598Z</time>
      </trkpt>
      <trkpt lat="48.114876" lon="10.470367">
        <ele>609.557965</ele>
        <time>2020-09-10T13:56:12.607Z</time>
      </trkpt>
      <trkpt lat="48.114913" lon="10.470526">
        <ele>609.518062</ele>
        <time>2020-09-10T13:56:15.600Z</time>
      </trkpt>
      <trkpt lat="48.114927" lon="10.470725">
        <ele>609.470643</ele>
        <time>2020-09-10T13:56:18.646Z</time>
      </trkpt>
      <trkpt lat="48.114901" lon="10.470894">
        <ele>609.429543</ele>
        <time>2020-09-10T13:56:20.609Z</time>
      </trkpt>
      <trkpt lat="48.114862" lon="10.471084">
        <ele>609.382437</ele>
        <time>2020-09-10T13:56:22.604Z</time>
      </trkpt>
      <trkpt lat="48.114816" lon="10.471264">
        <ele>609.336763</ele>
        <time>2020-09-10T13:56:24.623Z</time>
      </trkpt>
      <trkpt lat="48.114768" lon="10.471425">
        <ele>609.294978</ele>
        <time>2020-09-10T13:56:26.615Z</time>
      </trkpt>
      <trkpt lat="48.114712" lon="10.471600">
        <ele>609.248989</ele>
        <time>2020-09-10T13:56:28.618Z</time>
      </trkpt>
      <trkpt lat="48.114647" lon="10.471755">
        <ele>609.205612</ele>
        <time>2020-09-10T13:56:30.621Z</time>
      </trkpt>
      <trkpt lat="48.114585" lon="10.471901">
        <ele>609.164607</ele>
        <time>2020-09-10T13:56:32.624Z</time>
      </trkpt>
      <trkpt lat="48.114518" lon="10.472033">
        <ele>609.134009</ele>
        <time>2020-09-10T13:56:34.619Z</time>
      </trkpt>
      <trkpt lat="48.114454" lon="10.472165">
        <ele>609.199012</ele>
        <time>2020-09-10T13:56:36.621Z</time>
      </trkpt>
      <trkpt lat="48.114390" lon="10.472289">
        <ele>609.261462</ele>
        <time>2020-09-10T13:56:38.619Z</time>
      </trkpt>
      <trkpt lat="48.114322" lon="10.472421">
        <ele>609.327895</ele>
        <time>2020-09-10T13:56:40.628Z</time>
      </trkpt>
      <trkpt lat="48.114248" lon="10.472540">
        <ele>609.392693</ele>
        <time>2020-09-10T13:56:42.615Z</time>
      </trkpt>
      <trkpt lat="48.114173" lon="10.472663">
        <ele>609.459067</ele>
        <time>2020-09-10T13:56:44.621Z</time>
      </trkpt>
      <trkpt lat="48.114103" lon="10.472792">
        <ele>609.525305</ele>
        <time>2020-09-10T13:56:46.627Z</time>
      </trkpt>
      <trkpt lat="48.114025" lon="10.472921">
        <ele>609.594652</ele>
        <time>2020-09-10T13:56:48.624Z</time>
      </trkpt>
      <trkpt lat="48.113949" lon="10.473053">
        <ele>609.664105</ele>
        <time>2020-09-10T13:56:50.628Z</time>
      </trkpt>
      <trkpt lat="48.113878" lon="10.473174">
        <ele>609.728293</ele>
        <time>2020-09-10T13:56:52.614Z</time>
      </trkpt>
      <trkpt lat="48.113805" lon="10.473298">
        <ele>609.794166</ele>
        <time>2020-09-10T13:56:54.622Z</time>
      </trkpt>
      <trkpt lat="48.113726" lon="10.473431">
        <ele>609.865099</ele>
        <time>2020-09-10T13:56:56.619Z</time>
      </trkpt>
      <trkpt lat="48.113650" lon="10.473545">
        <ele>609.929291</ele>
        <time>2020-09-10T13:56:58.622Z</time>
      </trkpt>
      <trkpt lat="48.113576" lon="10.473659">
        <ele>609.992646</ele>
        <time>2020-09-10T13:57:00.618Z</time>
      </trkpt>
      <trkpt lat="48.113499" lon="10.473776">
        <ele>610.058108</ele>
        <time>2020-09-10T13:57:02.614Z</time>
      </trkpt>
      <trkpt lat="48.113411" lon="10.473891">
        <ele>610.127808</ele>
        <time>2020-09-10T13:57:04.617Z</time>
      </trkpt>
      <trkpt lat="48.113337" lon="10.474003">
        <ele>610.190594</ele>
        <time>2020-09-10T13:57:06.620Z</time>
      </trkpt>
      <trkpt lat="48.113266" lon="10.474116">
        <ele>610.207535</ele>
        <time>2020-09-10T13:57:08.625Z</time>
      </trkpt>
      <trkpt lat="48.113191" lon="10.474224">
        <ele>610.214350</ele>
        <time>2020-09-10T13:57:10.617Z</time>
      </trkpt>
      <trkpt lat="48.113109" lon="10.474334">
        <ele>610.221561</ele>
        <time>2020-09-10T13:57:12.617Z</time>
      </trkpt>
      <trkpt lat="48.113028" lon="10.474456">
        <ele>610.229086</ele>
        <time>2020-09-10T13:57:14.622Z</time>
      </trkpt>
      <trkpt lat="48.112951" lon="10.474568">
        <ele>610.236116</ele>
        <time>2020-09-10T13:57:16.617Z</time>
      </trkpt>
      <trkpt lat="48.112879" lon="10.474667">
        <ele>610.242519</ele>
        <time>2020-09-10T13:57:18.630Z</time>
      </trkpt>
      <trkpt lat="48.112800" lon="10.474774">
        <ele>610.249496</ele>
        <time>2020-09-10T13:57:20.616Z</time>
      </trkpt>
      <trkpt lat="48.112712" lon="10.474885">
        <ele>610.257032</ele>
        <time>2020-09-10T13:57:22.621Z</time>
      </trkpt>
      <trkpt lat="48.112615" lon="10.474992">
        <ele>610.264923</ele>
        <time>2020-09-10T13:57:24.611Z</time>
      </trkpt>
      <trkpt lat="48.112520" lon="10.475107">
        <ele>610.272925</ele>
        <time>2020-09-10T13:57:26.616Z</time>
      </trkpt>
      <trkpt lat="48.112419" lon="10.475229">
        <ele>610.281424</ele>
        <time>2020-09-10T13:57:28.635Z</time>
      </trkpt>
      <trkpt lat="48.112317" lon="10.475339">
        <ele>610.289657</ele>
        <time>2020-09-10T13:57:30.617Z</time>
      </trkpt>
      <trkpt lat="48.112212" lon="10.475439">
        <ele>610.297808</ele>
        <time>2020-09-10T13:57:32.617Z</time>
      </trkpt>
      <trkpt lat="48.112095" lon="10.475531">
        <ele>610.306464</ele>
        <time>2020-09-10T13:57:34.624Z</time>
      </trkpt>
      <trkpt lat="48.111976" lon="10.475623">
        <ele>610.315236</ele>
        <time>2020-09-10T13:57:36.617Z</time>
      </trkpt>
      <trkpt lat="48.111859" lon="10.475718">
        <ele>610.406371</ele>
        <time>2020-09-10T13:57:38.614Z</time>
      </trkpt>
      <trkpt lat="48.111752" lon="10.475802">
        <ele>610.572030</ele>
        <time>2020-09-10T13:57:40.615Z</time>
      </trkpt>
      <trkpt lat="48.111650" lon="10.475887">
        <ele>610.732092</ele>
        <time>2020-09-10T13:57:42.618Z</time>
      </trkpt>
      <trkpt lat="48.111550" lon="10.475973">
        <ele>610.890216</ele>
        <time>2020-09-10T13:57:44.619Z</time>
      </trkpt>
      <trkpt lat="48.111447" lon="10.476056">
        <ele>611.050602</ele>
        <time>2020-09-10T13:57:46.611Z</time>
      </trkpt>
      <trkpt lat="48.111333" lon="10.476143">
        <ele>611.226050</ele>
        <time>2020-09-10T13:57:48.623Z</time>
      </trkpt>
      <trkpt lat="48.111218" lon="10.476220">
        <ele>611.398786</ele>
        <time>2020-09-10T13:57:50.624Z</time>
      </trkpt>
      <trkpt lat="48.111114" lon="10.476274">
        <ele>611.549725</ele>
        <time>2020-09-10T13:57:52.617Z</time>
      </trkpt>
      <trkpt lat="48.111013" lon="10.476346">
        <ele>611.703110</ele>
        <time>2020-09-10T13:57:54.621Z</time>
      </trkpt>
      <trkpt lat="48.110913" lon="10.476436">
        <ele>611.863091</ele>
        <time>2020-09-10T13:57:56.622Z</time>
      </trkpt>
      <trkpt lat="48.110813" lon="10.476523">
        <ele>612.021674</ele>
        <time>2020-09-10T13:57:58.627Z</time>
      </trkpt>
      <trkpt lat="48.110723" lon="10.476610">
        <ele>612.168561</ele>
        <time>2020-09-10T13:58:00.616Z</time>
      </trkpt>
      <trkpt lat="48.110631" lon="10.476706">
        <ele>612.322318</ele>
        <time>2020-09-10T13:58:02.619Z</time>
      </trkpt>
      <trkpt lat="48.110545" lon="10.476813">
        <ele>612.475630</ele>
        <time>2020-09-10T13:58:04.614Z</time>
      </trkpt>
      <trkpt lat="48.110471" lon="10.476934">
        <ele>612.625865</ele>
        <time>2020-09-10T13:58:06.624Z</time>
      </trkpt>
      <trkpt lat="48.110407" lon="10.477058">
        <ele>612.769363</ele>
        <time>2020-09-10T13:58:08.616Z</time>
      </trkpt>
      <trkpt lat="48.110355" lon="10.477204">
        <ele>612.860860</ele>
        <time>2020-09-10T13:58:10.614Z</time>
      </trkpt>
      <trkpt lat="48.110302" lon="10.477357">
        <ele>612.948338</ele>
        <time>2020-09-10T13:58:12.617Z</time>
      </trkpt>
      <trkpt lat="48.110258" lon="10.477510">
        <ele>613.032884</ele>
        <time>2020-09-10T13:58:14.616Z</time>
      </trkpt>
      <trkpt lat="48.110225" lon="10.477668">
        <ele>613.116903</ele>
        <time>2020-09-10T13:58:16.623Z</time>
      </trkpt>
      <trkpt lat="48.110198" lon="10.477839">
        <ele>613.206081</ele>
        <time>2020-09-10T13:58:18.637Z</time>
      </trkpt>
      <trkpt lat="48.110166" lon="10.478009">
        <ele>613.295722</ele>
        <time>2020-09-10T13:58:20.623Z</time>
      </trkpt>
      <trkpt lat="48.110110" lon="10.478188">
        <ele>613.396045</ele>
        <time>2020-09-10T13:58:22.610Z</time>
      </trkpt>
      <trkpt lat="48.110025" lon="10.478338">
        <ele>613.495893</ele>
        <time>2020-09-10T13:58:24.610Z</time>
      </trkpt>
      <trkpt lat="48.109907" lon="10.478447">
        <ele>613.601272</ele>
        <time>2020-09-10T13:58:26.614Z</time>
      </trkpt>
      <trkpt lat="48.109785" lon="10.478519">
        <ele>613.700944</ele>
        <time>2020-09-10T13:58:28.609Z</time>
      </trkpt>
      <trkpt lat="48.109660" lon="10.478582">
        <ele>613.801191</ele>
        <time>2020-09-10T13:58:30.625Z</time>
      </trkpt>
      <trkpt lat="48.109531" lon="10.478647">
        <ele>613.904644</ele>
        <time>2020-09-10T13:58:32.625Z</time>
      </trkpt>
      <trkpt lat="48.109403" lon="10.478699">
        <ele>614.005452</ele>
        <time>2020-09-10T13:58:34.607Z</time>
      </trkpt>
      <trkpt lat="48.109281" lon="10.478752">
        <ele>614.102006</ele>
        <time>2020-09-10T13:58:36.624Z</time>
      </trkpt>
      <trkpt lat="48.109155" lon="10.478802">
        <ele>614.205631</ele>
        <time>2020-09-10T13:58:38.611Z</time>
      </trkpt>
      <trkpt lat="48.109030" lon="10.478859">
        <ele>614.314416</ele>
        <time>2020-09-10T13:58:40.610Z</time>
      </trkpt>
      <trkpt lat="48.108908" lon="10.478910">
        <ele>614.419869</ele>
        <time>2020-09-10T13:58:42.615Z</time>
      </trkpt>
      <trkpt lat="48.108786" lon="10.478959">
        <ele>614.525028</ele>
        <time>2020-09-10T13:58:44.593Z</time>
      </trkpt>
      <trkpt lat="48.108665" lon="10.479013">
        <ele>614.630143</ele>
        <time>2020-09-10T13:58:46.618Z</time>
      </trkpt>
      <trkpt lat="48.108539" lon="10.479069">
        <ele>614.739566</ele>
        <time>2020-09-10T13:58:48.613Z</time>
      </trkpt>
      <trkpt lat="48.108416" lon="10.479118">
        <ele>614.845529</ele>
        <time>2020-09-10T13:58:50.617Z</time>
      </trkpt>
      <trkpt lat="48.108291" lon="10.479168">
        <ele>614.953245</ele>
        <time>2020-09-10T13:58:52.616Z</time>
      </trkpt>
      <trkpt lat="48.108177" lon="10.479205">
        <ele>615.050358</ele>
        <time>2020-09-10T13:58:54.616Z</time>
      </trkpt>
      <trkpt lat="48.108072" lon="10.479240">
        <ele>615.139915</ele>
        <time>2020-09-10T13:58:56.622Z</time>
      </trkpt>
      <trkpt lat="48.107975" lon="10.479266">
        <ele>615.221955</ele>
        <time>2020-09-10T13:58:58.607Z</time>
      </trkpt>
      <trkpt lat="48.107879" lon="10.479291">
        <ele>615.303078</ele>
        <time>2020-09-10T13:59:00.600Z</time>
      </trkpt>
      <trkpt lat="48.107787" lon="10.479327">
        <ele>615.382243</ele>
        <time>2020-09-10T13:59:02.611Z</time>
      </trkpt>
      <trkpt lat="48.107685" lon="10.479366">
        <ele>615.469887</ele>
        <time>2020-09-10T13:59:04.611Z</time>
      </trkpt>
      <trkpt lat="48.107575" lon="10.479400">
        <ele>615.563397</ele>
        <time>2020-09-10T13:59:06.620Z</time>
      </trkpt>
      <trkpt lat="48.107463" lon="10.479445">
        <ele>615.650409</ele>
        <time>2020-09-10T13:59:08.610Z</time>
      </trkpt>
      <trkpt lat="48.107369" lon="10.479472">
        <ele>615.646831</ele>
        <time>2020-09-10T13:59:10.610Z</time>
      </trkpt>
      <trkpt lat="48.107264" lon="10.479510">
        <ele>615.642794</ele>
        <time>2020-09-10T13:59:12.614Z</time>
      </trkpt>
      <trkpt lat="48.107150" lon="10.479557">
        <ele>615.638374</ele>
        <time>2020-09-10T13:59:14.612Z</time>
      </trkpt>
      <trkpt lat="48.107032" lon="10.479602">
        <ele>615.633822</ele>
        <time>2020-09-10T13:59:16.613Z</time>
      </trkpt>
      <trkpt lat="48.106921" lon="10.479627">
        <ele>615.629627</ele>
        <time>2020-09-10T13:59:18.644Z</time>
      </trkpt>
      <trkpt lat="48.106814" lon="10.479645">
        <ele>615.625602</ele>
        <time>2020-09-10T13:59:20.615Z</time>
      </trkpt>
      <trkpt lat="48.106695" lon="10.479665">
        <ele>615.621126</ele>
        <time>2020-09-10T13:59:22.618Z</time>
      </trkpt>
      <trkpt lat="48.106584" lon="10.479683">
        <ele>615.616952</ele>
        <time>2020-09-10T13:59:24.622Z</time>
      </trkpt>
      <trkpt lat="48.106477" lon="10.479685">
        <ele>615.612953</ele>
        <time>2020-09-10T13:59:26.623Z</time>
      </trkpt>
      <trkpt lat="48.106371" lon="10.479689">
        <ele>615.608989</ele>
        <time>2020-09-10T13:59:28.617Z</time>
      </trkpt>
      <trkpt lat="48.106272" lon="10.479674">
        <ele>615.605270</ele>
        <time>2020-09-10T13:59:30.618Z</time>
      </trkpt>
      <trkpt lat="48.106179" lon="10.479662">
        <ele>615.601781</ele>
        <time>2020-09-10T13:59:32.612Z</time>
      </trkpt>
      <trkpt lat="48.106065" lon="10.479692">
        <ele>615.597454</ele>
        <time>2020-09-10T13:59:35.612Z</time>
      </trkpt>
      <trkpt lat="48.105974" lon="10.479743">
        <ele>615.593822</ele>
        <time>2020-09-10T13:59:37.611Z</time>
      </trkpt>
      <trkpt lat="48.105865" lon="10.479813">
        <ele>615.589389</ele>
        <time>2020-09-10T13:59:39.618Z</time>
      </trkpt>
      <trkpt lat="48.105748" lon="10.479905">
        <ele>615.584449</ele>
        <time>2020-09-10T13:59:41.599Z</time>
      </trkpt>
      <trkpt lat="48.105640" lon="10.479991">
        <ele>615.590179</ele>
        <time>2020-09-10T13:59:43.607Z</time>
      </trkpt>
      <trkpt lat="48.105548" lon="10.480093">
        <ele>615.597783</ele>
        <time>2020-09-10T13:59:45.611Z</time>
      </trkpt>
      <trkpt lat="48.105471" lon="10.480222">
        <ele>615.605457</ele>
        <time>2020-09-10T13:59:47.607Z</time>
      </trkpt>
      <trkpt lat="48.105391" lon="10.480367">
        <ele>615.613800</ele>
        <time>2020-09-10T13:59:49.603Z</time>
      </trkpt>
      <trkpt lat="48.105319" lon="10.480516">
        <ele>615.621958</ele>
        <time>2020-09-10T13:59:51.598Z</time>
      </trkpt>
      <trkpt lat="48.105254" lon="10.480647">
        <ele>615.629198</ele>
        <time>2020-09-10T13:59:53.615Z</time>
      </trkpt>
      <trkpt lat="48.105185" lon="10.480769">
        <ele>615.636289</ele>
        <time>2020-09-10T13:59:55.613Z</time>
      </trkpt>
      <trkpt lat="48.105112" lon="10.480873">
        <ele>615.642982</ele>
        <time>2020-09-10T13:59:57.603Z</time>
      </trkpt>
      <trkpt lat="48.105017" lon="10.480960">
        <ele>615.650379</ele>
        <time>2020-09-10T13:59:59.608Z</time>
      </trkpt>
      <trkpt lat="48.104912" lon="10.481034">
        <ele>615.658087</ele>
        <time>2020-09-10T14:00:01.601Z</time>
      </trkpt>
      <trkpt lat="48.104813" lon="10.481096">
        <ele>615.665215</ele>
        <time>2020-09-10T14:00:03.615Z</time>
      </trkpt>
      <trkpt lat="48.104700" lon="10.481142">
        <ele>615.672994</ele>
        <time>2020-09-10T14:00:05.626Z</time>
      </trkpt>
      <trkpt lat="48.104596" lon="10.481192">
        <ele>615.680249</ele>
        <time>2020-09-10T14:00:07.620Z</time>
      </trkpt>
      <trkpt lat="48.104493" lon="10.481239">
        <ele>615.687402</ele>
        <time>2020-09-10T14:00:09.623Z</time>
      </trkpt>
      <trkpt lat="48.104387" lon="10.481284">
        <ele>615.694720</ele>
        <time>2020-09-10T14:00:11.624Z</time>
      </trkpt>
      <trkpt lat="48.104290" lon="10.481320">
        <ele>615.701358</ele>
        <time>2020-09-10T14:00:13.612Z</time>
      </trkpt>
      <trkpt lat="48.104173" lon="10.481375">
        <ele>615.914274</ele>
        <time>2020-09-10T14:00:16.611Z</time>
      </trkpt>
      <trkpt lat="48.104086" lon="10.481268">
        <ele>616.159470</ele>
        <time>2020-09-10T14:00:19.604Z</time>
      </trkpt>
      <trkpt lat="48.104059" lon="10.481119">
        <ele>616.384012</ele>
        <time>2020-09-10T14:00:21.618Z</time>
      </trkpt>
      <trkpt lat="48.104014" lon="10.480951">
        <ele>616.647274</ele>
        <time>2020-09-10T14:00:23.609Z</time>
      </trkpt>
      <trkpt lat="48.103955" lon="10.480786">
        <ele>616.919487</ele>
        <time>2020-09-10T14:00:25.601Z</time>
      </trkpt>
      <trkpt lat="48.103877" lon="10.480605">
        <ele>617.232789</ele>
        <time>2020-09-10T14:00:27.600Z</time>
      </trkpt>
      <trkpt lat="48.103802" lon="10.480446">
        <ele>617.515912</ele>
        <time>2020-09-10T14:00:29.617Z</time>
      </trkpt>
      <trkpt lat="48.103723" lon="10.480309">
        <ele>617.779173</ele>
        <time>2020-09-10T14:00:31.599Z</time>
      </trkpt>
      <trkpt lat="48.103645" lon="10.480171">
        <ele>618.042123</ele>
        <time>2020-09-10T14:00:33.617Z</time>
      </trkpt>
      <trkpt lat="48.103552" lon="10.480053">
        <ele>618.307604</ele>
        <time>2020-09-10T14:00:35.620Z</time>
      </trkpt>
      <trkpt lat="48.103464" lon="10.479941">
        <ele>618.559135</ele>
        <time>2020-09-10T14:00:37.617Z</time>
      </trkpt>
      <trkpt lat="48.103363" lon="10.479845">
        <ele>618.819679</ele>
        <time>2020-09-10T14:00:39.598Z</time>
      </trkpt>
      <trkpt lat="48.103256" lon="10.479753">
        <ele>619.088403</ele>
        <time>2020-09-10T14:00:41.625Z</time>
      </trkpt>
      <trkpt lat="48.103153" lon="10.479675">
        <ele>619.339786</ele>
        <time>2020-09-10T14:00:43.624Z</time>
      </trkpt>
      <trkpt lat="48.103041" lon="10.479598">
        <ele>619.608197</ele>
        <time>2020-09-10T14:00:45.611Z</time>
      </trkpt>
      <trkpt lat="48.102932" lon="10.479535">
        <ele>619.608088</ele>
        <time>2020-09-10T14:00:47.618Z</time>
      </trkpt>
      <trkpt lat="48.102828" lon="10.479489">
        <ele>619.596056</ele>
        <time>2020-09-10T14:00:49.611Z</time>
      </trkpt>
      <trkpt lat="48.102725" lon="10.479459">
        <ele>619.584414</ele>
        <time>2020-09-10T14:00:51.610Z</time>
      </trkpt>
      <trkpt lat="48.102621" lon="10.479425">
        <ele>619.572603</ele>
        <time>2020-09-10T14:00:53.614Z</time>
      </trkpt>
      <trkpt lat="48.102513" lon="10.479391">
        <ele>619.560358</ele>
        <time>2020-09-10T14:00:55.614Z</time>
      </trkpt>
      <trkpt lat="48.102403" lon="10.479358">
        <ele>619.547910</ele>
        <time>2020-09-10T14:00:57.609Z</time>
      </trkpt>
      <trkpt lat="48.102285" lon="10.479322">
        <ele>619.534549</ele>
        <time>2020-09-10T14:00:59.616Z</time>
      </trkpt>
      <trkpt lat="48.102154" lon="10.479275">
        <ele>619.519602</ele>
        <time>2020-09-10T14:01:01.617Z</time>
      </trkpt>
      <trkpt lat="48.102028" lon="10.479230">
        <ele>619.505230</ele>
        <time>2020-09-10T14:01:03.614Z</time>
      </trkpt>
      <trkpt lat="48.101898" lon="10.479186">
        <ele>619.490442</ele>
        <time>2020-09-10T14:01:05.623Z</time>
      </trkpt>
      <trkpt lat="48.101769" lon="10.479153">
        <ele>619.475922</ele>
        <time>2020-09-10T14:01:07.618Z</time>
      </trkpt>
      <trkpt lat="48.101638" lon="10.479127">
        <ele>619.461260</ele>
        <time>2020-09-10T14:01:09.618Z</time>
      </trkpt>
      <trkpt lat="48.101516" lon="10.479109">
        <ele>619.447658</ele>
        <time>2020-09-10T14:01:11.617Z</time>
      </trkpt>
      <trkpt lat="48.101398" lon="10.479092">
        <ele>619.434505</ele>
        <time>2020-09-10T14:01:13.617Z</time>
      </trkpt>
      <trkpt lat="48.101276" lon="10.479070">
        <ele>619.420870</ele>
        <time>2020-09-10T14:01:15.616Z</time>
      </trkpt>
      <trkpt lat="48.101148" lon="10.479056">
        <ele>619.440142</ele>
        <time>2020-09-10T14:01:17.620Z</time>
      </trkpt>
      <trkpt lat="48.101015" lon="10.479040">
        <ele>619.460198</ele>
        <time>2020-09-10T14:01:19.620Z</time>
      </trkpt>
      <trkpt lat="48.100885" lon="10.479024">
        <ele>619.479805</ele>
        <time>2020-09-10T14:01:21.611Z</time>
      </trkpt>
      <trkpt lat="48.100758" lon="10.479007">
        <ele>619.498971</ele>
        <time>2020-09-10T14:01:23.614Z</time>
      </trkpt>
      <trkpt lat="48.100639" lon="10.478994">
        <ele>619.516906</ele>
        <time>2020-09-10T14:01:25.621Z</time>
      </trkpt>
      <trkpt lat="48.100523" lon="10.478970">
        <ele>619.534508</ele>
        <time>2020-09-10T14:01:27.615Z</time>
      </trkpt>
      <trkpt lat="48.100402" lon="10.478957">
        <ele>619.552743</ele>
        <time>2020-09-10T14:01:29.615Z</time>
      </trkpt>
      <trkpt lat="48.100275" lon="10.478938">
        <ele>619.571928</ele>
        <time>2020-09-10T14:01:31.616Z</time>
      </trkpt>
      <trkpt lat="48.100144" lon="10.478927">
        <ele>619.591651</ele>
        <time>2020-09-10T14:01:33.620Z</time>
      </trkpt>
      <trkpt lat="48.100015" lon="10.478918">
        <ele>619.611062</ele>
        <time>2020-09-10T14:01:35.617Z</time>
      </trkpt>
      <trkpt lat="48.099891" lon="10.478900">
        <ele>619.629789</ele>
        <time>2020-09-10T14:01:37.611Z</time>
      </trkpt>
      <trkpt lat="48.099768" lon="10.478878">
        <ele>619.648409</ele>
        <time>2020-09-10T14:01:39.632Z</time>
      </trkpt>
      <trkpt lat="48.099647" lon="10.478863">
        <ele>619.666659</ele>
        <time>2020-09-10T14:01:41.631Z</time>
      </trkpt>
      <trkpt lat="48.099522" lon="10.478839">
        <ele>619.685602</ele>
        <time>2020-09-10T14:01:43.621Z</time>
      </trkpt>
      <trkpt lat="48.099404" lon="10.478816">
        <ele>619.702087</ele>
        <time>2020-09-10T14:01:45.606Z</time>
      </trkpt>
      <trkpt lat="48.099295" lon="10.478789">
        <ele>619.716794</ele>
        <time>2020-09-10T14:01:47.619Z</time>
      </trkpt>
      <trkpt lat="48.099182" lon="10.478751">
        <ele>619.732212</ele>
        <time>2020-09-10T14:01:49.620Z</time>
      </trkpt>
      <trkpt lat="48.099062" lon="10.478716">
        <ele>619.748487</ele>
        <time>2020-09-10T14:01:51.626Z</time>
      </trkpt>
      <trkpt lat="48.098937" lon="10.478681">
        <ele>619.765415</ele>
        <time>2020-09-10T14:01:53.624Z</time>
      </trkpt>
      <trkpt lat="48.098806" lon="10.478663">
        <ele>619.782928</ele>
        <time>2020-09-10T14:01:55.616Z</time>
      </trkpt>
      <trkpt lat="48.098678" lon="10.478645">
        <ele>619.800042</ele>
        <time>2020-09-10T14:01:57.617Z</time>
      </trkpt>
      <trkpt lat="48.098551" lon="10.478635">
        <ele>619.816972</ele>
        <time>2020-09-10T14:01:59.612Z</time>
      </trkpt>
      <trkpt lat="48.098425" lon="10.478612">
        <ele>619.833870</ele>
        <time>2020-09-10T14:02:01.615Z</time>
      </trkpt>
      <trkpt lat="48.098286" lon="10.478599">
        <ele>619.852410</ele>
        <time>2020-09-10T14:02:03.609Z</time>
      </trkpt>
      <trkpt lat="48.098164" lon="10.478583">
        <ele>619.868713</ele>
        <time>2020-09-10T14:02:05.611Z</time>
      </trkpt>
      <trkpt lat="48.098042" lon="10.478555">
        <ele>619.885143</ele>
        <time>2020-09-10T14:02:07.619Z</time>
      </trkpt>
      <trkpt lat="48.097940" lon="10.478535">
        <ele>619.898838</ele>
        <time>2020-09-10T14:02:09.616Z</time>
      </trkpt>
      <trkpt lat="48.097851" lon="10.478664">
        <ele>619.915327</ele>
        <time>2020-09-10T14:02:12.606Z</time>
      </trkpt>
      <trkpt lat="48.097844" lon="10.478805">
        <ele>619.927898</ele>
        <time>2020-09-10T14:02:14.607Z</time>
      </trkpt>
      <trkpt lat="48.097763" lon="10.478880">
        <ele>619.949687</ele>
        <time>2020-09-10T14:02:16.620Z</time>
      </trkpt>
      <trkpt lat="48.097657" lon="10.478837">
        <ele>619.977746</ele>
        <time>2020-09-10T14:02:18.627Z</time>
      </trkpt>
      <trkpt lat="48.097533" lon="10.478830">
        <ele>620.009449</ele>
        <time>2020-09-10T14:02:20.612Z</time>
      </trkpt>
      <trkpt lat="48.097406" lon="10.478806">
        <ele>620.042154</ele>
        <time>2020-09-10T14:02:22.620Z</time>
      </trkpt>
      <trkpt lat="48.097278" lon="10.478791">
        <ele>620.074958</ele>
        <time>2020-09-10T14:02:24.619Z</time>
      </trkpt>
      <trkpt lat="48.097157" lon="10.478773">
        <ele>620.106024</ele>
        <time>2020-09-10T14:02:26.615Z</time>
      </trkpt>
      <trkpt lat="48.097041" lon="10.478756">
        <ele>620.135803</ele>
        <time>2020-09-10T14:02:28.612Z</time>
      </trkpt>
      <trkpt lat="48.096936" lon="10.478735">
        <ele>620.162868</ele>
        <time>2020-09-10T14:02:30.619Z</time>
      </trkpt>
      <trkpt lat="48.096846" lon="10.478704">
        <ele>620.186463</ele>
        <time>2020-09-10T14:02:32.616Z</time>
      </trkpt>
      <trkpt lat="48.096742" lon="10.478676">
        <ele>620.213461</ele>
        <time>2020-09-10T14:02:34.615Z</time>
      </trkpt>
      <trkpt lat="48.096630" lon="10.478632">
        <ele>620.243045</ele>
        <time>2020-09-10T14:02:36.611Z</time>
      </trkpt>
      <trkpt lat="48.096513" lon="10.478595">
        <ele>620.273597</ele>
        <time>2020-09-10T14:02:38.613Z</time>
      </trkpt>
      <trkpt lat="48.096400" lon="10.478548">
        <ele>620.303561</ele>
        <time>2020-09-10T14:02:40.606Z</time>
      </trkpt>
      <trkpt lat="48.096303" lon="10.478501">
        <ele>620.329609</ele>
        <time>2020-09-10T14:02:42.621Z</time>
      </trkpt>
      <trkpt lat="48.096217" lon="10.478444">
        <ele>620.353638</ele>
        <time>2020-09-10T14:02:44.605Z</time>
      </trkpt>
      <trkpt lat="48.096128" lon="10.478381">
        <ele>620.378790</ele>
        <time>2020-09-10T14:02:46.615Z</time>
      </trkpt>
      <trkpt lat="48.096036" lon="10.478285">
        <ele>620.420505</ele>
        <time>2020-09-10T14:02:48.625Z</time>
      </trkpt>
      <trkpt lat="48.095954" lon="10.478169">
        <ele>620.471176</ele>
        <time>2020-09-10T14:02:50.624Z</time>
      </trkpt>
      <trkpt lat="48.095878" lon="10.478054">
        <ele>620.519709</ele>
        <time>2020-09-10T14:02:52.612Z</time>
      </trkpt>
      <trkpt lat="48.095797" lon="10.477916">
        <ele>620.574823</ele>
        <time>2020-09-10T14:02:54.623Z</time>
      </trkpt>
      <trkpt lat="48.095724" lon="10.477771">
        <ele>620.629295</ele>
        <time>2020-09-10T14:02:56.619Z</time>
      </trkpt>
      <trkpt lat="48.095665" lon="10.477627">
        <ele>620.679975</ele>
        <time>2020-09-10T14:02:58.614Z</time>
      </trkpt>
      <trkpt lat="48.095622" lon="10.477447">
        <ele>620.737324</ele>
        <time>2020-09-10T14:03:00.605Z</time>
      </trkpt>
      <trkpt lat="48.095592" lon="10.477240">
        <ele>620.800867</ele>
        <time>2020-09-10T14:03:02.596Z</time>
      </trkpt>
      <trkpt lat="48.095569" lon="10.477050">
        <ele>620.858795</ele>
        <time>2020-09-10T14:03:04.609Z</time>
      </trkpt>
      <trkpt lat="48.095551" lon="10.476851">
        <ele>620.919038</ele>
        <time>2020-09-10T14:03:06.625Z</time>
      </trkpt>
      <trkpt lat="48.095537" lon="10.476658">
        <ele>620.977277</ele>
        <time>2020-09-10T14:03:08.610Z</time>
      </trkpt>
      <trkpt lat="48.095517" lon="10.476474">
        <ele>621.033202</ele>
        <time>2020-09-10T14:03:10.611Z</time>
      </trkpt>
      <trkpt lat="48.095503" lon="10.476297">
        <ele>621.086672</ele>
        <time>2020-09-10T14:03:12.613Z</time>
      </trkpt>
      <trkpt lat="48.095488" lon="10.476134">
        <ele>621.136033</ele>
        <time>2020-09-10T14:03:14.610Z</time>
      </trkpt>
      <trkpt lat="48.095470" lon="10.475965">
        <ele>621.187373</ele>
        <time>2020-09-10T14:03:16.611Z</time>
      </trkpt>
      <trkpt lat="48.095455" lon="10.475797">
        <ele>621.270509</ele>
        <time>2020-09-10T14:03:18.622Z</time>
      </trkpt>
      <trkpt lat="48.095439" lon="10.475636">
        <ele>621.358633</ele>
        <time>2020-09-10T14:03:20.619Z</time>
      </trkpt>
      <trkpt lat="48.095419" lon="10.475468">
        <ele>621.451020</ele>
        <time>2020-09-10T14:03:22.612Z</time>
      </trkpt>
      <trkpt lat="48.095398" lon="10.475333">
        <ele>621.526064</ele>
        <time>2020-09-10T14:03:24.623Z</time>
      </trkpt>
      <trkpt lat="48.095379" lon="10.475188">
        <ele>621.606062</ele>
        <time>2020-09-10T14:03:26.607Z</time>
      </trkpt>
      <trkpt lat="48.095363" lon="10.475038">
        <ele>621.688300</ele>
        <time>2020-09-10T14:03:28.611Z</time>
      </trkpt>
      <trkpt lat="48.095343" lon="10.474894">
        <ele>621.767929</ele>
        <time>2020-09-10T14:03:30.609Z</time>
      </trkpt>
      <trkpt lat="48.095318" lon="10.474749">
        <ele>621.849004</ele>
        <time>2020-09-10T14:03:32.613Z</time>
      </trkpt>
      <trkpt lat="48.095289" lon="10.474594">
        <ele>621.936150</ele>
        <time>2020-09-10T14:03:34.614Z</time>
      </trkpt>
      <trkpt lat="48.095260" lon="10.474442">
        <ele>622.021734</ele>
        <time>2020-09-10T14:03:36.613Z</time>
      </trkpt>
      <trkpt lat="48.095232" lon="10.474303">
        <ele>622.100336</ele>
        <time>2020-09-10T14:03:38.609Z</time>
      </trkpt>
      <trkpt lat="48.095205" lon="10.474172">
        <ele>622.174558</ele>
        <time>2020-09-10T14:03:40.610Z</time>
      </trkpt>
      <trkpt lat="48.095178" lon="10.474027">
        <ele>622.256054</ele>
        <time>2020-09-10T14:03:42.615Z</time>
      </trkpt>
      <trkpt lat="48.095147" lon="10.473881">
        <ele>622.338996</ele>
        <time>2020-09-10T14:03:44.610Z</time>
      </trkpt>
      <trkpt lat="48.095112" lon="10.473750">
        <ele>622.415383</ele>
        <time>2020-09-10T14:03:46.617Z</time>
      </trkpt>
      <trkpt lat="48.095074" lon="10.473569">
        <ele>622.518103</ele>
        <time>2020-09-10T14:03:49.615Z</time>
      </trkpt>
      <trkpt lat="48.095021" lon="10.473456">
        <ele>622.592858</ele>
        <time>2020-09-10T14:03:51.638Z</time>
      </trkpt>
      <trkpt lat="48.094937" lon="10.473393">
        <ele>622.659204</ele>
        <time>2020-09-10T14:03:53.595Z</time>
      </trkpt>
      <trkpt lat="48.094854" lon="10.473325">
        <ele>622.677778</ele>
        <time>2020-09-10T14:03:55.609Z</time>
      </trkpt>
      <trkpt lat="48.094771" lon="10.473246">
        <ele>622.697086</ele>
        <time>2020-09-10T14:03:57.681Z</time>
      </trkpt>
      <trkpt lat="48.094675" lon="10.473179">
        <ele>622.717879</ele>
        <time>2020-09-10T14:03:59.621Z</time>
      </trkpt>
      <trkpt lat="48.094575" lon="10.473114">
        <ele>622.739280</ele>
        <time>2020-09-10T14:04:01.615Z</time>
      </trkpt>
      <trkpt lat="48.094454" lon="10.473042">
        <ele>622.764842</ele>
        <time>2020-09-10T14:04:03.610Z</time>
      </trkpt>
      <trkpt lat="48.094342" lon="10.472963">
        <ele>622.789147</ele>
        <time>2020-09-10T14:04:05.612Z</time>
      </trkpt>
      <trkpt lat="48.094241" lon="10.472888">
        <ele>622.811279</ele>
        <time>2020-09-10T14:04:07.612Z</time>
      </trkpt>
      <trkpt lat="48.094154" lon="10.472823">
        <ele>622.830367</ele>
        <time>2020-09-10T14:04:09.616Z</time>
      </trkpt>
      <trkpt lat="48.094060" lon="10.472769">
        <ele>622.850132</ele>
        <time>2020-09-10T14:04:11.616Z</time>
      </trkpt>
      <trkpt lat="48.093970" lon="10.472714">
        <ele>622.869216</ele>
        <time>2020-09-10T14:04:13.619Z</time>
      </trkpt>
      <trkpt lat="48.093864" lon="10.472650">
        <ele>622.891653</ele>
        <time>2020-09-10T14:04:16.607Z</time>
      </trkpt>
      <trkpt lat="48.093765" lon="10.472691">
        <ele>622.911818</ele>
        <time>2020-09-10T14:04:20.597Z</time>
      </trkpt>
      <trkpt lat="48.093774" lon="10.472888">
        <ele>622.937710</ele>
        <time>2020-09-10T14:04:23.656Z</time>
      </trkpt>
      <trkpt lat="48.093777" lon="10.473028">
        <ele>622.956076</ele>
        <time>2020-09-10T14:04:25.610Z</time>
      </trkpt>
      <trkpt lat="48.093780" lon="10.473197">
        <ele>622.978243</ele>
        <time>2020-09-10T14:04:27.612Z</time>
      </trkpt>
      <trkpt lat="48.093782" lon="10.473366">
        <ele>623.000406</ele>
        <time>2020-09-10T14:04:29.609Z</time>
      </trkpt>
      <trkpt lat="48.093789" lon="10.473544">
        <ele>622.983301</ele>
        <time>2020-09-10T14:04:31.623Z</time>
      </trkpt>
      <trkpt lat="48.093796" lon="10.473711">
        <ele>622.944476</ele>
        <time>2020-09-10T14:04:33.627Z</time>
      </trkpt>
      <trkpt lat="48.093798" lon="10.473873">
        <ele>622.906881</ele>
        <time>2020-09-10T14:04:35.611Z</time>
      </trkpt>
      <trkpt lat="48.093800" lon="10.474018">
        <ele>622.873230</ele>
        <time>2020-09-10T14:04:37.626Z</time>
      </trkpt>
      <trkpt lat="48.093742" lon="10.474121">
        <ele>622.841971</ele>
        <time>2020-09-10T14:04:39.609Z</time>
      </trkpt>
      <trkpt lat="48.093652" lon="10.474160">
        <ele>622.809422</ele>
        <time>2020-09-10T14:04:41.603Z</time>
      </trkpt>
      <trkpt lat="48.093558" lon="10.474159">
        <ele>622.776766</ele>
        <time>2020-09-10T14:04:43.598Z</time>
      </trkpt>
      <trkpt lat="48.093462" lon="10.474168">
        <ele>622.743351</ele>
        <time>2020-09-10T14:04:45.603Z</time>
      </trkpt>
      <trkpt lat="48.093357" lon="10.474189">
        <ele>622.706551</ele>
        <time>2020-09-10T14:04:47.617Z</time>
      </trkpt>
      <trkpt lat="48.093248" lon="10.474207">
        <ele>622.668456</ele>
        <time>2020-09-10T14:04:49.620Z</time>
      </trkpt>
      <trkpt lat="48.093139" lon="10.474222">
        <ele>622.630430</ele>
        <time>2020-09-10T14:04:51.616Z</time>
      </trkpt>
      <trkpt lat="48.093040" lon="10.474250">
        <ele>622.595430</ele>
        <time>2020-09-10T14:04:53.617Z</time>
      </trkpt>
      <trkpt lat="48.092943" lon="10.474271">
        <ele>622.561382</ele>
        <time>2020-09-10T14:04:55.611Z</time>
      </trkpt>
      <trkpt lat="48.092845" lon="10.474292">
        <ele>622.526991</ele>
        <time>2020-09-10T14:04:57.616Z</time>
      </trkpt>
      <trkpt lat="48.092745" lon="10.474304">
        <ele>622.492140</ele>
        <time>2020-09-10T14:04:59.634Z</time>
      </trkpt>
      <trkpt lat="48.092637" lon="10.474338">
        <ele>622.453801</ele>
        <time>2020-09-10T14:05:01.617Z</time>
      </trkpt>
      <trkpt lat="48.092531" lon="10.474358">
        <ele>622.416686</ele>
        <time>2020-09-10T14:05:03.610Z</time>
      </trkpt>
      <trkpt lat="48.092429" lon="10.474370">
        <ele>622.390823</ele>
        <time>2020-09-10T14:05:05.613Z</time>
      </trkpt>
      <trkpt lat="48.092327" lon="10.474393">
        <ele>622.463758</ele>
        <time>2020-09-10T14:05:07.616Z</time>
      </trkpt>
      <trkpt lat="48.092187" lon="10.474431">
        <ele>622.564361</ele>
        <time>2020-09-10T14:05:10.615Z</time>
      </trkpt>
      <trkpt lat="48.092085" lon="10.474448">
        <ele>622.636928</ele>
        <time>2020-09-10T14:05:12.612Z</time>
      </trkpt>
      <trkpt lat="48.091979" lon="10.474473">
        <ele>622.712802</ele>
        <time>2020-09-10T14:05:14.610Z</time>
      </trkpt>
      <trkpt lat="48.091882" lon="10.474496">
        <ele>622.782243</ele>
        <time>2020-09-10T14:05:16.615Z</time>
      </trkpt>
      <trkpt lat="48.091784" lon="10.474524">
        <ele>622.852786</ele>
        <time>2020-09-10T14:05:18.630Z</time>
      </trkpt>
      <trkpt lat="48.091679" lon="10.474558">
        <ele>622.928745</ele>
        <time>2020-09-10T14:05:20.614Z</time>
      </trkpt>
      <trkpt lat="48.091575" lon="10.474577">
        <ele>623.002826</ele>
        <time>2020-09-10T14:05:22.611Z</time>
      </trkpt>
      <trkpt lat="48.091474" lon="10.474605">
        <ele>623.075454</ele>
        <time>2020-09-10T14:05:24.614Z</time>
      </trkpt>
      <trkpt lat="48.091373" lon="10.474628">
        <ele>623.147690</ele>
        <time>2020-09-10T14:05:26.608Z</time>
      </trkpt>
      <trkpt lat="48.091270" lon="10.474658">
        <ele>623.221884</ele>
        <time>2020-09-10T14:05:28.612Z</time>
      </trkpt>
      <trkpt lat="48.091171" lon="10.474678">
        <ele>623.292518</ele>
        <time>2020-09-10T14:05:30.610Z</time>
      </trkpt>
      <trkpt lat="48.091079" lon="10.474691">
        <ele>623.357858</ele>
        <time>2020-09-10T14:05:32.619Z</time>
      </trkpt>
      <trkpt lat="48.090981" lon="10.474716">
        <ele>623.428150</ele>
        <time>2020-09-10T14:05:34.609Z</time>
      </trkpt>
      <trkpt lat="48.090882" lon="10.474741">
        <ele>623.499138</ele>
        <time>2020-09-10T14:05:36.610Z</time>
      </trkpt>
      <trkpt lat="48.090774" lon="10.474766">
        <ele>623.576410</ele>
        <time>2020-09-10T14:05:38.614Z</time>
      </trkpt>
      <trkpt lat="48.090671" lon="10.474785">
        <ele>623.649789</ele>
        <time>2020-09-10T14:05:40.621Z</time>
      </trkpt>
      <trkpt lat="48.090569" lon="10.474805">
        <ele>623.726293</ele>
        <time>2020-09-10T14:05:42.609Z</time>
      </trkpt>
      <trkpt lat="48.090464" lon="10.474818">
        <ele>623.805014</ele>
        <time>2020-09-10T14:05:44.607Z</time>
      </trkpt>
      <trkpt lat="48.090354" lon="10.474837">
        <ele>623.887749</ele>
        <time>2020-09-10T14:05:46.616Z</time>
      </trkpt>
      <trkpt lat="48.090248" lon="10.474851">
        <ele>623.967257</ele>
        <time>2020-09-10T14:05:48.619Z</time>
      </trkpt>
      <trkpt lat="48.090145" lon="10.474868">
        <ele>624.044682</ele>
        <time>2020-09-10T14:05:50.612Z</time>
      </trkpt>
      <trkpt lat="48.090049" lon="10.474889">
        <ele>624.117172</ele>
        <time>2020-09-10T14:05:52.607Z</time>
      </trkpt>
      <trkpt lat="48.089949" lon="10.474910">
        <ele>624.192621</ele>
        <time>2020-09-10T14:05:54.611Z</time>
      </trkpt>
      <trkpt lat="48.089842" lon="10.474933">
        <ele>624.273389</ele>
        <time>2020-09-10T14:05:56.612Z</time>
      </trkpt>
      <trkpt lat="48.089742" lon="10.474956">
        <ele>624.348983</ele>
        <time>2020-09-10T14:05:58.610Z</time>
      </trkpt>
      <trkpt lat="48.089645" lon="10.474979">
        <ele>624.422362</ele>
        <time>2020-09-10T14:06:00.617Z</time>
      </trkpt>
      <trkpt lat="48.089542" lon="10.475002">
        <ele>624.500172</ele>
        <time>2020-09-10T14:06:02.611Z</time>
      </trkpt>
      <trkpt lat="48.089431" lon="10.475025">
        <ele>624.583899</ele>
        <time>2020-09-10T14:06:04.612Z</time>
      </trkpt>
      <trkpt lat="48.089314" lon="10.475042">
        <ele>624.671729</ele>
        <time>2020-09-10T14:06:06.605Z</time>
      </trkpt>
      <trkpt lat="48.089202" lon="10.475069">
        <ele>624.756491</ele>
        <time>2020-09-10T14:06:08.625Z</time>
      </trkpt>
      <trkpt lat="48.089096" lon="10.475095">
        <ele>624.836747</ele>
        <time>2020-09-10T14:06:10.614Z</time>
      </trkpt>
      <trkpt lat="48.088992" lon="10.475115">
        <ele>624.915092</ele>
        <time>2020-09-10T14:06:12.618Z</time>
      </trkpt>
      <trkpt lat="48.088885" lon="10.475131">
        <ele>624.995437</ele>
        <time>2020-09-10T14:06:14.611Z</time>
      </trkpt>
      <trkpt lat="48.088774" lon="10.475157">
        <ele>625.004732</ele>
        <time>2020-09-10T14:06:16.608Z</time>
      </trkpt>
      <trkpt lat="48.088657" lon="10.475179">
        <ele>625.009983</ele>
        <time>2020-09-10T14:06:18.628Z</time>
      </trkpt>
      <trkpt lat="48.088538" lon="10.475202">
        <ele>625.015327</ele>
        <time>2020-09-10T14:06:20.612Z</time>
      </trkpt>
      <trkpt lat="48.088428" lon="10.475229">
        <ele>625.020291</ele>
        <time>2020-09-10T14:06:22.607Z</time>
      </trkpt>
      <trkpt lat="48.088322" lon="10.475262">
        <ele>625.025113</ele>
        <time>2020-09-10T14:06:24.623Z</time>
      </trkpt>
      <trkpt lat="48.088206" lon="10.475285">
        <ele>625.030324</ele>
        <time>2020-09-10T14:06:26.614Z</time>
      </trkpt>
      <trkpt lat="48.088086" lon="10.475315">
        <ele>625.035743</ele>
        <time>2020-09-10T14:06:28.610Z</time>
      </trkpt>
      <trkpt lat="48.087970" lon="10.475343">
        <ele>625.040976</ele>
        <time>2020-09-10T14:06:30.612Z</time>
      </trkpt>
      <trkpt lat="48.087862" lon="10.475365">
        <ele>625.045830</ele>
        <time>2020-09-10T14:06:32.618Z</time>
      </trkpt>
      <trkpt lat="48.087751" lon="10.475399">
        <ele>625.050876</ele>
        <time>2020-09-10T14:06:34.611Z</time>
      </trkpt>
      <trkpt lat="48.087644" lon="10.475426">
        <ele>625.055708</ele>
        <time>2020-09-10T14:06:36.619Z</time>
      </trkpt>
      <trkpt lat="48.087542" lon="10.475460">
        <ele>625.060362</ele>
        <time>2020-09-10T14:06:38.615Z</time>
      </trkpt>
      <trkpt lat="48.087432" lon="10.475490">
        <ele>625.065342</ele>
        <time>2020-09-10T14:06:40.612Z</time>
      </trkpt>
      <trkpt lat="48.087314" lon="10.475522">
        <ele>625.070682</ele>
        <time>2020-09-10T14:06:42.623Z</time>
      </trkpt>
      <trkpt lat="48.087194" lon="10.475562">
        <ele>625.076158</ele>
        <time>2020-09-10T14:06:44.608Z</time>
      </trkpt>
      <trkpt lat="48.087081" lon="10.475599">
        <ele>625.093050</ele>
        <time>2020-09-10T14:06:46.610Z</time>
      </trkpt>
      <trkpt lat="48.086971" lon="10.475631">
        <ele>625.146660</ele>
        <time>2020-09-10T14:06:48.622Z</time>
      </trkpt>
      <trkpt lat="48.086865" lon="10.475676">
        <ele>625.199372</ele>
        <time>2020-09-10T14:06:50.627Z</time>
      </trkpt>
      <trkpt lat="48.086757" lon="10.475734">
        <ele>625.254264</ele>
        <time>2020-09-10T14:06:52.612Z</time>
      </trkpt>
      <trkpt lat="48.086651" lon="10.475792">
        <ele>625.308258</ele>
        <time>2020-09-10T14:06:54.622Z</time>
      </trkpt>
      <trkpt lat="48.086544" lon="10.475845">
        <ele>625.362177</ele>
        <time>2020-09-10T14:06:56.609Z</time>
      </trkpt>
      <trkpt lat="48.086443" lon="10.475907">
        <ele>625.414402</ele>
        <time>2020-09-10T14:06:58.608Z</time>
      </trkpt>
      <trkpt lat="48.086339" lon="10.475973">
        <ele>625.468443</ele>
        <time>2020-09-10T14:07:00.613Z</time>
      </trkpt>
      <trkpt lat="48.086242" lon="10.476034">
        <ele>625.518778</ele>
        <time>2020-09-10T14:07:02.613Z</time>
      </trkpt>
      <trkpt lat="48.086139" lon="10.476099">
        <ele>625.572254</ele>
        <time>2020-09-10T14:07:04.616Z</time>
      </trkpt>
      <trkpt lat="48.086036" lon="10.476170">
        <ele>625.626504</ele>
        <time>2020-09-10T14:07:06.617Z</time>
      </trkpt>
      <trkpt lat="48.085929" lon="10.476228">
        <ele>625.680947</ele>
        <time>2020-09-10T14:07:08.616Z</time>
      </trkpt>
      <trkpt lat="48.085829" lon="10.476294">
        <ele>625.733232</ele>
        <time>2020-09-10T14:07:10.615Z</time>
      </trkpt>
      <trkpt lat="48.085729" lon="10.476359">
        <ele>625.785388</ele>
        <time>2020-09-10T14:07:12.604Z</time>
      </trkpt>
      <trkpt lat="48.085631" lon="10.476414">
        <ele>625.835460</ele>
        <time>2020-09-10T14:07:14.613Z</time>
      </trkpt>
      <trkpt lat="48.085524" lon="10.476472">
        <ele>625.889902</ele>
        <time>2020-09-10T14:07:16.603Z</time>
      </trkpt>
      <trkpt lat="48.085424" lon="10.476535">
        <ele>625.941281</ele>
        <time>2020-09-10T14:07:18.625Z</time>
      </trkpt>
      <trkpt lat="48.085328" lon="10.476598">
        <ele>625.969568</ele>
        <time>2020-09-10T14:07:20.607Z</time>
      </trkpt>
      <trkpt lat="48.085228" lon="10.476660">
        <ele>625.998777</ele>
        <time>2020-09-10T14:07:22.611Z</time>
      </trkpt>
      <trkpt lat="48.085131" lon="10.476712">
        <ele>626.026581</ele>
        <time>2020-09-10T14:07:24.614Z</time>
      </trkpt>
      <trkpt lat="48.085038" lon="10.476773">
        <ele>626.053981</ele>
        <time>2020-09-10T14:07:26.618Z</time>
      </trkpt>
      <trkpt lat="48.084939" lon="10.476831">
        <ele>626.082670</ele>
        <time>2020-09-10T14:07:28.611Z</time>
      </trkpt>
      <trkpt lat="48.084834" lon="10.476889">
        <ele>626.112873</ele>
        <time>2020-09-10T14:07:30.612Z</time>
      </trkpt>
      <trkpt lat="48.084725" lon="10.476958">
        <ele>626.144809</ele>
        <time>2020-09-10T14:07:32.609Z</time>
      </trkpt>
      <trkpt lat="48.084623" lon="10.477018">
        <ele>626.174384</ele>
        <time>2020-09-10T14:07:34.611Z</time>
      </trkpt>
      <trkpt lat="48.084518" lon="10.477081">
        <ele>626.204910</ele>
        <time>2020-09-10T14:07:36.612Z</time>
      </trkpt>
      <trkpt lat="48.084417" lon="10.477144">
        <ele>626.234438</ele>
        <time>2020-09-10T14:07:38.610Z</time>
      </trkpt>
      <trkpt lat="48.084309" lon="10.477206">
        <ele>626.265652</ele>
        <time>2020-09-10T14:07:40.613Z</time>
      </trkpt>
      <trkpt lat="48.084206" lon="10.477274">
        <ele>626.296031</ele>
        <time>2020-09-10T14:07:42.614Z</time>
      </trkpt>
      <trkpt lat="48.084104" lon="10.477328">
        <ele>626.325227</ele>
        <time>2020-09-10T14:07:44.616Z</time>
      </trkpt>
      <trkpt lat="48.084008" lon="10.477391">
        <ele>626.353514</ele>
        <time>2020-09-10T14:07:46.615Z</time>
      </trkpt>
      <trkpt lat="48.083902" lon="10.477459">
        <ele>626.384635</ele>
        <time>2020-09-10T14:07:48.619Z</time>
      </trkpt>
      <trkpt lat="48.083797" lon="10.477524">
        <ele>626.415298</ele>
        <time>2020-09-10T14:07:50.622Z</time>
      </trkpt>
      <trkpt lat="48.083689" lon="10.477581">
        <ele>626.499521</ele>
        <time>2020-09-10T14:07:52.619Z</time>
      </trkpt>
      <trkpt lat="48.083587" lon="10.477646">
        <ele>626.608317</ele>
        <time>2020-09-10T14:07:54.636Z</time>
      </trkpt>
      <trkpt lat="48.083482" lon="10.477711">
        <ele>626.719828</ele>
        <time>2020-09-10T14:07:56.607Z</time>
      </trkpt>
      <trkpt lat="48.083378" lon="10.477766">
        <ele>626.828076</ele>
        <time>2020-09-10T14:07:58.621Z</time>
      </trkpt>
      <trkpt lat="48.083281" lon="10.477831">
        <ele>626.932376</ele>
        <time>2020-09-10T14:08:00.612Z</time>
      </trkpt>
      <trkpt lat="48.083191" lon="10.477918">
        <ele>627.037518</ele>
        <time>2020-09-10T14:08:02.608Z</time>
      </trkpt>
      <trkpt lat="48.083097" lon="10.478013">
        <ele>627.148827</ele>
        <time>2020-09-10T14:08:04.592Z</time>
      </trkpt>
      <trkpt lat="48.082998" lon="10.478121">
        <ele>627.269050</ele>
        <time>2020-09-10T14:08:06.612Z</time>
      </trkpt>
      <trkpt lat="48.082909" lon="10.478232">
        <ele>627.382739</ele>
        <time>2020-09-10T14:08:08.614Z</time>
      </trkpt>
      <trkpt lat="48.082830" lon="10.478326">
        <ele>627.481780</ele>
        <time>2020-09-10T14:08:10.608Z</time>
      </trkpt>
      <trkpt lat="48.082746" lon="10.478413">
        <ele>627.582028</ele>
        <time>2020-09-10T14:08:12.611Z</time>
      </trkpt>
      <trkpt lat="48.082660" lon="10.478512">
        <ele>627.688500</ele>
        <time>2020-09-10T14:08:14.617Z</time>
      </trkpt>
      <trkpt lat="48.082573" lon="10.478616">
        <ele>627.797768</ele>
        <time>2020-09-10T14:08:16.611Z</time>
      </trkpt>
      <trkpt lat="48.082485" lon="10.478711">
        <ele>627.904248</ele>
        <time>2020-09-10T14:08:18.617Z</time>
      </trkpt>
      <trkpt lat="48.082398" lon="10.478812">
        <ele>628.012299</ele>
        <time>2020-09-10T14:08:20.622Z</time>
      </trkpt>
      <trkpt lat="48.082305" lon="10.478914">
        <ele>628.125447</ele>
        <time>2020-09-10T14:08:22.611Z</time>
      </trkpt>
      <trkpt lat="48.082203" lon="10.479025">
        <ele>628.255184</ele>
        <time>2020-09-10T14:08:24.618Z</time>
      </trkpt>
      <trkpt lat="48.082111" lon="10.479135">
        <ele>628.382638</ele>
        <time>2020-09-10T14:08:26.613Z</time>
      </trkpt>
      <trkpt lat="48.082023" lon="10.479238">
        <ele>628.503557</ele>
        <time>2020-09-10T14:08:28.621Z</time>
      </trkpt>
      <trkpt lat="48.081937" lon="10.479333">
        <ele>628.619251</ele>
        <time>2020-09-10T14:08:30.622Z</time>
      </trkpt>
      <trkpt lat="48.081847" lon="10.479426">
        <ele>628.737630</ele>
        <time>2020-09-10T14:08:32.603Z</time>
      </trkpt>
      <trkpt lat="48.081753" lon="10.479533">
        <ele>628.865458</ele>
        <time>2020-09-10T14:08:34.616Z</time>
      </trkpt>
      <trkpt lat="48.081655" lon="10.479640">
        <ele>628.996759</ele>
        <time>2020-09-10T14:08:36.609Z</time>
      </trkpt>
      <trkpt lat="48.081562" lon="10.479749">
        <ele>629.124614</ele>
        <time>2020-09-10T14:08:38.611Z</time>
      </trkpt>
      <trkpt lat="48.081474" lon="10.479856">
        <ele>629.247336</ele>
        <time>2020-09-10T14:08:40.608Z</time>
      </trkpt>
      <trkpt lat="48.081380" lon="10.479954">
        <ele>629.371333</ele>
        <time>2020-09-10T14:08:42.618Z</time>
      </trkpt>
      <trkpt lat="48.081284" lon="10.480058">
        <ele>629.499608</ele>
        <time>2020-09-10T14:08:44.610Z</time>
      </trkpt>
      <trkpt lat="48.081191" lon="10.480158">
        <ele>629.623557</ele>
        <time>2020-09-10T14:08:46.610Z</time>
      </trkpt>
      <trkpt lat="48.081101" lon="10.480253">
        <ele>629.742764</ele>
        <time>2020-09-10T14:08:48.612Z</time>
      </trkpt>
      <trkpt lat="48.081010" lon="10.480347">
        <ele>629.862444</ele>
        <time>2020-09-10T14:08:50.608Z</time>
      </trkpt>
      <trkpt lat="48.080915" lon="10.480454">
        <ele>629.991137</ele>
        <time>2020-09-10T14:08:52.618Z</time>
      </trkpt>
      <trkpt lat="48.080821" lon="10.480564">
        <ele>630.120291</ele>
        <time>2020-09-10T14:08:54.613Z</time>
      </trkpt>
      <trkpt lat="48.080724" lon="10.480675">
        <ele>630.144285</ele>
        <time>2020-09-10T14:08:56.618Z</time>
      </trkpt>
      <trkpt lat="48.080627" lon="10.480784">
        <ele>630.151395</ele>
        <time>2020-09-10T14:08:58.623Z</time>
      </trkpt>
      <trkpt lat="48.080529" lon="10.480890">
        <ele>630.158483</ele>
        <time>2020-09-10T14:09:00.615Z</time>
      </trkpt>
      <trkpt lat="48.080426" lon="10.480995">
        <ele>630.165788</ele>
        <time>2020-09-10T14:09:02.615Z</time>
      </trkpt>
      <trkpt lat="48.080328" lon="10.481104">
        <ele>630.172945</ele>
        <time>2020-09-10T14:09:04.619Z</time>
      </trkpt>
      <trkpt lat="48.080225" lon="10.481193">
        <ele>630.179917</ele>
        <time>2020-09-10T14:09:06.624Z</time>
      </trkpt>
      <trkpt lat="48.080118" lon="10.481264">
        <ele>630.186778</ele>
        <time>2020-09-10T14:09:08.592Z</time>
      </trkpt>
      <trkpt lat="48.080018" lon="10.481330">
        <ele>630.193184</ele>
        <time>2020-09-10T14:09:10.612Z</time>
      </trkpt>
      <trkpt lat="48.079911" lon="10.481398">
        <ele>630.199999</ele>
        <time>2020-09-10T14:09:12.608Z</time>
      </trkpt>
      <trkpt lat="48.079807" lon="10.481459">
        <ele>630.206546</ele>
        <time>2020-09-10T14:09:14.612Z</time>
      </trkpt>
      <trkpt lat="48.079712" lon="10.481515">
        <ele>630.212531</ele>
        <time>2020-09-10T14:09:16.611Z</time>
      </trkpt>
      <trkpt lat="48.079623" lon="10.481572">
        <ele>630.218206</ele>
        <time>2020-09-10T14:09:18.622Z</time>
      </trkpt>
      <trkpt lat="48.079524" lon="10.481638">
        <ele>630.224559</ele>
        <time>2020-09-10T14:09:20.616Z</time>
      </trkpt>
      <trkpt lat="48.079423" lon="10.481709">
        <ele>630.231100</ele>
        <time>2020-09-10T14:09:22.609Z</time>
      </trkpt>
      <trkpt lat="48.079318" lon="10.481771">
        <ele>630.237717</ele>
        <time>2020-09-10T14:09:24.614Z</time>
      </trkpt>
      <trkpt lat="48.079210" lon="10.481839">
        <ele>630.255076</ele>
        <time>2020-09-10T14:09:26.621Z</time>
      </trkpt>
      <trkpt lat="48.079095" lon="10.481907">
        <ele>630.334218</ele>
        <time>2020-09-10T14:09:28.617Z</time>
      </trkpt>
      <trkpt lat="48.078987" lon="10.481977">
        <ele>630.409547</ele>
        <time>2020-09-10T14:09:30.612Z</time>
      </trkpt>
      <trkpt lat="48.078884" lon="10.482045">
        <ele>630.481601</ele>
        <time>2020-09-10T14:09:32.613Z</time>
      </trkpt>
      <trkpt lat="48.078794" lon="10.482103">
        <ele>630.544319</ele>
        <time>2020-09-10T14:09:34.617Z</time>
      </trkpt>
      <trkpt lat="48.078693" lon="10.482155">
        <ele>630.612683</ele>
        <time>2020-09-10T14:09:37.618Z</time>
      </trkpt>
      <trkpt lat="48.078578" lon="10.482192">
        <ele>630.687971</ele>
        <time>2020-09-10T14:09:40.578Z</time>
      </trkpt>
      <trkpt lat="48.078473" lon="10.482237">
        <ele>630.757878</ele>
        <time>2020-09-10T14:09:42.612Z</time>
      </trkpt>
      <trkpt lat="48.078345" lon="10.482282">
        <ele>630.842035</ele>
        <time>2020-09-10T14:09:44.610Z</time>
      </trkpt>
      <trkpt lat="48.078214" lon="10.482329">
        <ele>630.928258</ele>
        <time>2020-09-10T14:09:46.608Z</time>
      </trkpt>
      <trkpt lat="48.078081" lon="10.482368">
        <ele>631.015004</ele>
        <time>2020-09-10T14:09:48.605Z</time>
      </trkpt>
      <trkpt lat="48.077958" lon="10.482409">
        <ele>631.095660</ele>
        <time>2020-09-10T14:09:50.609Z</time>
      </trkpt>
      <trkpt lat="48.077841" lon="10.482449">
        <ele>631.172475</ele>
        <time>2020-09-10T14:09:52.607Z</time>
      </trkpt>
      <trkpt lat="48.077726" lon="10.482481">
        <ele>631.247343</ele>
        <time>2020-09-10T14:09:54.609Z</time>
      </trkpt>
      <trkpt lat="48.077609" lon="10.482527">
        <ele>631.324771</ele>
        <time>2020-09-10T14:09:56.612Z</time>
      </trkpt>
      <trkpt lat="48.077492" lon="10.482572">
        <ele>631.392634</ele>
        <time>2020-09-10T14:09:58.609Z</time>
      </trkpt>
      <trkpt lat="48.077376" lon="10.482603">
        <ele>631.370702</ele>
        <time>2020-09-10T14:10:00.612Z</time>
      </trkpt>
      <trkpt lat="48.077264" lon="10.482638">
        <ele>631.349407</ele>
        <time>2020-09-10T14:10:02.612Z</time>
      </trkpt>
      <trkpt lat="48.077155" lon="10.482674">
        <ele>631.328632</ele>
        <time>2020-09-10T14:10:04.613Z</time>
      </trkpt>
      <trkpt lat="48.077039" lon="10.482715">
        <ele>631.306448</ele>
        <time>2020-09-10T14:10:06.612Z</time>
      </trkpt>
      <trkpt lat="48.076917" lon="10.482760">
        <ele>631.283062</ele>
        <time>2020-09-10T14:10:08.610Z</time>
      </trkpt>
      <trkpt lat="48.076800" lon="10.482792">
        <ele>631.260925</ele>
        <time>2020-09-10T14:10:10.601Z</time>
      </trkpt>
      <trkpt lat="48.076687" lon="10.482827">
        <ele>631.239448</ele>
        <time>2020-09-10T14:10:12.613Z</time>
      </trkpt>
      <trkpt lat="48.076581" lon="10.482862">
        <ele>631.219244</ele>
        <time>2020-09-10T14:10:14.618Z</time>
      </trkpt>
      <trkpt lat="48.076467" lon="10.482896">
        <ele>631.197609</ele>
        <time>2020-09-10T14:10:16.607Z</time>
      </trkpt>
      <trkpt lat="48.076345" lon="10.482937">
        <ele>631.174337</ele>
        <time>2020-09-10T14:10:18.628Z</time>
      </trkpt>
      <trkpt lat="48.076219" lon="10.482979">
        <ele>631.150311</ele>
        <time>2020-09-10T14:10:20.617Z</time>
      </trkpt>
      <trkpt lat="48.076095" lon="10.483017">
        <ele>631.126753</ele>
        <time>2020-09-10T14:10:22.610Z</time>
      </trkpt>
      <trkpt lat="48.075979" lon="10.483053">
        <ele>631.104704</ele>
        <time>2020-09-10T14:10:24.607Z</time>
      </trkpt>
      <trkpt lat="48.075867" lon="10.483092">
        <ele>631.083302</ele>
        <time>2020-09-10T14:10:26.608Z</time>
      </trkpt>
      <trkpt lat="48.075750" lon="10.483139">
        <ele>631.060755</ele>
        <time>2020-09-10T14:10:28.636Z</time>
      </trkpt>
      <trkpt lat="48.075633" lon="10.483175">
        <ele>631.032588</ele>
        <time>2020-09-10T14:10:30.614Z</time>
      </trkpt>
      <trkpt lat="48.075520" lon="10.483213">
        <ele>631.005075</ele>
        <time>2020-09-10T14:10:32.610Z</time>
      </trkpt>
      <trkpt lat="48.075403" lon="10.483251">
        <ele>630.976634</ele>
        <time>2020-09-10T14:10:34.612Z</time>
      </trkpt>
      <trkpt lat="48.075279" lon="10.483287">
        <ele>630.946628</ele>
        <time>2020-09-10T14:10:36.613Z</time>
      </trkpt>
      <trkpt lat="48.075159" lon="10.483319">
        <ele>630.917672</ele>
        <time>2020-09-10T14:10:38.637Z</time>
      </trkpt>
      <trkpt lat="48.075046" lon="10.483328">
        <ele>630.890790</ele>
        <time>2020-09-10T14:10:40.619Z</time>
      </trkpt>
      <trkpt lat="48.074940" lon="10.483317">
        <ele>630.865549</ele>
        <time>2020-09-10T14:10:42.598Z</time>
      </trkpt>
      <trkpt lat="48.074830" lon="10.483306">
        <ele>630.839359</ele>
        <time>2020-09-10T14:10:44.614Z</time>
      </trkpt>
      <trkpt lat="48.074709" lon="10.483289">
        <ele>630.810489</ele>
        <time>2020-09-10T14:10:46.615Z</time>
      </trkpt>
      <trkpt lat="48.074585" lon="10.483266">
        <ele>630.780806</ele>
        <time>2020-09-10T14:10:48.610Z</time>
      </trkpt>
      <trkpt lat="48.074447" lon="10.483251">
        <ele>630.747937</ele>
        <time>2020-09-10T14:10:50.612Z</time>
      </trkpt>
      <trkpt lat="48.074306" lon="10.483229">
        <ele>630.714260</ele>
        <time>2020-09-10T14:10:52.600Z</time>
      </trkpt>
      <trkpt lat="48.074170" lon="10.483205">
        <ele>630.681729</ele>
        <time>2020-09-10T14:10:54.616Z</time>
      </trkpt>
      <trkpt lat="48.074038" lon="10.483212">
        <ele>630.650352</ele>
        <time>2020-09-10T14:10:56.619Z</time>
      </trkpt>
      <trkpt lat="48.073923" lon="10.483288">
        <ele>630.656545</ele>
        <time>2020-09-10T14:10:58.612Z</time>
      </trkpt>
      <trkpt lat="48.073828" lon="10.483408">
        <ele>630.714076</ele>
        <time>2020-09-10T14:11:00.599Z</time>
      </trkpt>
      <trkpt lat="48.073724" lon="10.483514">
        <ele>630.772307</ele>
        <time>2020-09-10T14:11:02.613Z</time>
      </trkpt>
      <trkpt lat="48.073613" lon="10.483609">
        <ele>630.831482</ele>
        <time>2020-09-10T14:11:04.611Z</time>
      </trkpt>
      <trkpt lat="48.073515" lon="10.483708">
        <ele>630.886200</ele>
        <time>2020-09-10T14:11:06.609Z</time>
      </trkpt>
      <trkpt lat="48.073414" lon="10.483794">
        <ele>630.939977</ele>
        <time>2020-09-10T14:11:08.611Z</time>
      </trkpt>
      <trkpt lat="48.073311" lon="10.483874">
        <ele>630.993681</ele>
        <time>2020-09-10T14:11:10.619Z</time>
      </trkpt>
      <trkpt lat="48.073194" lon="10.483932">
        <ele>631.050720</ele>
        <time>2020-09-10T14:11:12.613Z</time>
      </trkpt>
      <trkpt lat="48.073077" lon="10.483956">
        <ele>631.105372</ele>
        <time>2020-09-10T14:11:14.585Z</time>
      </trkpt>
      <trkpt lat="48.072971" lon="10.483989">
        <ele>631.155477</ele>
        <time>2020-09-10T14:11:16.601Z</time>
      </trkpt>
      <trkpt lat="48.072862" lon="10.484014">
        <ele>631.206510</ele>
        <time>2020-09-10T14:11:18.622Z</time>
      </trkpt>
      <trkpt lat="48.072753" lon="10.484041">
        <ele>631.257640</ele>
        <time>2020-09-10T14:11:20.617Z</time>
      </trkpt>
      <trkpt lat="48.072635" lon="10.484057">
        <ele>631.312472</ele>
        <time>2020-09-10T14:11:22.610Z</time>
      </trkpt>
      <trkpt lat="48.072514" lon="10.484086">
        <ele>631.369183</ele>
        <time>2020-09-10T14:11:24.612Z</time>
      </trkpt>
      <trkpt lat="48.072386" lon="10.484107">
        <ele>631.428774</ele>
        <time>2020-09-10T14:11:26.619Z</time>
      </trkpt>
      <trkpt lat="48.072261" lon="10.484129">
        <ele>631.508238</ele>
        <time>2020-09-10T14:11:28.614Z</time>
      </trkpt>
      <trkpt lat="48.072133" lon="10.484163">
        <ele>631.626644</ele>
        <time>2020-09-10T14:11:30.604Z</time>
      </trkpt>
      <trkpt lat="48.072011" lon="10.484207">
        <ele>631.740943</ele>
        <time>2020-09-10T14:11:32.621Z</time>
      </trkpt>
      <trkpt lat="48.071897" lon="10.484232">
        <ele>631.845884</ele>
        <time>2020-09-10T14:11:34.622Z</time>
      </trkpt>
      <trkpt lat="48.071787" lon="10.484252">
        <ele>631.946809</ele>
        <time>2020-09-10T14:11:36.610Z</time>
      </trkpt>
      <trkpt lat="48.071675" lon="10.484277">
        <ele>632.049948</ele>
        <time>2020-09-10T14:11:38.613Z</time>
      </trkpt>
      <trkpt lat="48.071566" lon="10.484297">
        <ele>632.149969</ele>
        <time>2020-09-10T14:11:40.607Z</time>
      </trkpt>
      <trkpt lat="48.071459" lon="10.484322">
        <ele>632.248606</ele>
        <time>2020-09-10T14:11:42.612Z</time>
      </trkpt>
      <trkpt lat="48.071370" lon="10.484349">
        <ele>632.331316</ele>
        <time>2020-09-10T14:11:44.612Z</time>
      </trkpt>
      <trkpt lat="48.071250" lon="10.484381">
        <ele>632.442334</ele>
        <time>2020-09-10T14:11:47.610Z</time>
      </trkpt>
      <trkpt lat="48.071146" lon="10.484397">
        <ele>632.537557</ele>
        <time>2020-09-10T14:11:50.621Z</time>
      </trkpt>
      <trkpt lat="48.071051" lon="10.484414">
        <ele>632.624700</ele>
        <time>2020-09-10T14:11:53.614Z</time>
      </trkpt>
      <trkpt lat="48.070961" lon="10.484439">
        <ele>632.708073</ele>
        <time>2020-09-10T14:11:57.608Z</time>
      </trkpt>
      <trkpt lat="48.070827" lon="10.484482">
        <ele>632.832895</ele>
        <time>2020-09-10T14:13:41.609Z</time>
      </trkpt>
      <trkpt lat="48.070723" lon="10.484504">
        <ele>632.928560</ele>
        <time>2020-09-10T14:13:44.601Z</time>
      </trkpt>
      <trkpt lat="48.070627" lon="10.484519">
        <ele>633.016473</ele>
        <time>2020-09-10T14:13:46.607Z</time>
      </trkpt>
      <trkpt lat="48.070533" lon="10.484544">
        <ele>633.103376</ele>
        <time>2020-09-10T14:13:48.610Z</time>
      </trkpt>
      <trkpt lat="48.070423" lon="10.484573">
        <ele>633.155556</ele>
        <time>2020-09-10T14:13:51.609Z</time>
      </trkpt>
      <trkpt lat="48.070317" lon="10.484597">
        <ele>633.205640</ele>
        <time>2020-09-10T14:13:55.611Z</time>
      </trkpt>
      <trkpt lat="48.070200" lon="10.484630">
        <ele>633.261262</ele>
        <time>2020-09-10T14:13:59.609Z</time>
      </trkpt>
      <trkpt lat="48.070086" lon="10.484655">
        <ele>633.315088</ele>
        <time>2020-09-10T14:14:02.608Z</time>
      </trkpt>
      <trkpt lat="48.069978" lon="10.484677">
        <ele>633.366008</ele>
        <time>2020-09-10T14:14:05.597Z</time>
      </trkpt>
      <trkpt lat="48.069854" lon="10.484696">
        <ele>633.424241</ele>
        <time>2020-09-10T14:14:08.598Z</time>
      </trkpt>
      <trkpt lat="48.069729" lon="10.484723">
        <ele>633.483243</ele>
        <time>2020-09-10T14:14:11.600Z</time>
      </trkpt>
      <trkpt lat="48.069639" lon="10.484743">
        <ele>633.525749</ele>
        <time>2020-09-10T14:14:13.606Z</time>
      </trkpt>
      <trkpt lat="48.069544" lon="10.484764">
        <ele>633.570612</ele>
        <time>2020-09-10T14:14:15.606Z</time>
      </trkpt>
      <trkpt lat="48.069455" lon="10.484782">
        <ele>633.612569</ele>
        <time>2020-09-10T14:14:17.608Z</time>
      </trkpt>
      <trkpt lat="48.069362" lon="10.484805">
        <ele>633.656605</ele>
        <time>2020-09-10T14:14:19.612Z</time>
      </trkpt>
      <trkpt lat="48.069260" lon="10.484834">
        <ele>633.705109</ele>
        <time>2020-09-10T14:14:21.604Z</time>
      </trkpt>
      <trkpt lat="48.069165" lon="10.484855">
        <ele>633.749972</ele>
        <time>2020-09-10T14:14:23.613Z</time>
      </trkpt>
      <trkpt lat="48.069029" lon="10.484870">
        <ele>633.813680</ele>
        <time>2020-09-10T14:14:26.607Z</time>
      </trkpt>
      <trkpt lat="48.068937" lon="10.484879">
        <ele>633.856752</ele>
        <time>2020-09-10T14:14:28.618Z</time>
      </trkpt>
      <trkpt lat="48.068840" lon="10.484892">
        <ele>633.902249</ele>
        <time>2020-09-10T14:14:30.638Z</time>
      </trkpt>
      <trkpt lat="48.068740" lon="10.484910">
        <ele>633.953136</ele>
        <time>2020-09-10T14:14:32.613Z</time>
      </trkpt>
      <trkpt lat="48.068634" lon="10.484923">
        <ele>634.036202</ele>
        <time>2020-09-10T14:14:34.611Z</time>
      </trkpt>
      <trkpt lat="48.068532" lon="10.484938">
        <ele>634.116250</ele>
        <time>2020-09-10T14:14:36.612Z</time>
      </trkpt>
      <trkpt lat="48.068437" lon="10.484952">
        <ele>634.190807</ele>
        <time>2020-09-10T14:14:38.585Z</time>
      </trkpt>
      <trkpt lat="48.068342" lon="10.484967">
        <ele>634.265416</ele>
        <time>2020-09-10T14:14:40.603Z</time>
      </trkpt>
      <trkpt lat="48.068234" lon="10.484978">
        <ele>634.349961</ele>
        <time>2020-09-10T14:14:42.609Z</time>
      </trkpt>
      <trkpt lat="48.068131" lon="10.484987">
        <ele>634.430544</ele>
        <time>2020-09-10T14:14:44.592Z</time>
      </trkpt>
      <trkpt lat="48.068023" lon="10.485004">
        <ele>634.515360</ele>
        <time>2020-09-10T14:14:46.610Z</time>
      </trkpt>
      <trkpt lat="48.067919" lon="10.485019">
        <ele>634.596963</ele>
        <time>2020-09-10T14:14:48.600Z</time>
      </trkpt>
      <trkpt lat="48.067820" lon="10.485039">
        <ele>634.674985</ele>
        <time>2020-09-10T14:14:50.605Z</time>
      </trkpt>
      <trkpt lat="48.067717" lon="10.485047">
        <ele>634.755539</ele>
        <time>2020-09-10T14:14:52.600Z</time>
      </trkpt>
      <trkpt lat="48.067608" lon="10.485060">
        <ele>634.840941</ele>
        <time>2020-09-10T14:14:54.599Z</time>
      </trkpt>
      <trkpt lat="48.067503" lon="10.485076">
        <ele>634.923372</ele>
        <time>2020-09-10T14:14:56.600Z</time>
      </trkpt>
      <trkpt lat="48.067405" lon="10.485091">
        <ele>635.000312</ele>
        <time>2020-09-10T14:14:58.604Z</time>
      </trkpt>
      <trkpt lat="48.067302" lon="10.485105">
        <ele>635.081089</ele>
        <time>2020-09-10T14:15:00.613Z</time>
      </trkpt>
      <trkpt lat="48.067197" lon="10.485117">
        <ele>635.163335</ele>
        <time>2020-09-10T14:15:02.607Z</time>
      </trkpt>
      <trkpt lat="48.067088" lon="10.485141">
        <ele>635.249383</ele>
        <time>2020-09-10T14:15:04.610Z</time>
      </trkpt>
      <trkpt lat="48.066972" lon="10.485158">
        <ele>635.340415</ele>
        <time>2020-09-10T14:15:06.611Z</time>
      </trkpt>
      <trkpt lat="48.066851" lon="10.485173">
        <ele>635.517992</ele>
        <time>2020-09-10T14:15:08.611Z</time>
      </trkpt>
      <trkpt lat="48.066732" lon="10.485202">
        <ele>635.701865</ele>
        <time>2020-09-10T14:15:10.609Z</time>
      </trkpt>
      <trkpt lat="48.066619" lon="10.485230">
        <ele>635.876543</ele>
        <time>2020-09-10T14:15:12.611Z</time>
      </trkpt>
      <trkpt lat="48.066508" lon="10.485252">
        <ele>636.047303</ele>
        <time>2020-09-10T14:15:14.610Z</time>
      </trkpt>
      <trkpt lat="48.066400" lon="10.485271">
        <ele>636.213143</ele>
        <time>2020-09-10T14:15:16.605Z</time>
      </trkpt>
      <trkpt lat="48.066287" lon="10.485297">
        <ele>636.387500</ele>
        <time>2020-09-10T14:15:18.630Z</time>
      </trkpt>
      <trkpt lat="48.066179" lon="10.485321">
        <ele>636.554013</ele>
        <time>2020-09-10T14:15:20.611Z</time>
      </trkpt>
      <trkpt lat="48.066069" lon="10.485344">
        <ele>636.723399</ele>
        <time>2020-09-10T14:15:22.612Z</time>
      </trkpt>
      <trkpt lat="48.065970" lon="10.485369">
        <ele>636.876514</ele>
        <time>2020-09-10T14:15:24.613Z</time>
      </trkpt>
      <trkpt lat="48.065864" lon="10.485394">
        <ele>637.040166</ele>
        <time>2020-09-10T14:15:26.609Z</time>
      </trkpt>
      <trkpt lat="48.065755" lon="10.485423">
        <ele>637.209004</ele>
        <time>2020-09-10T14:15:28.610Z</time>
      </trkpt>
      <trkpt lat="48.065651" lon="10.485442">
        <ele>637.368788</ele>
        <time>2020-09-10T14:15:30.613Z</time>
      </trkpt>
      <trkpt lat="48.065550" lon="10.485468">
        <ele>637.525081</ele>
        <time>2020-09-10T14:15:32.598Z</time>
      </trkpt>
      <trkpt lat="48.065453" lon="10.485487">
        <ele>637.674274</ele>
        <time>2020-09-10T14:15:34.601Z</time>
      </trkpt>
      <trkpt lat="48.065359" lon="10.485512">
        <ele>637.819876</ele>
        <time>2020-09-10T14:15:36.613Z</time>
      </trkpt>
      <trkpt lat="48.065265" lon="10.485532">
        <ele>637.964673</ele>
        <time>2020-09-10T14:15:38.598Z</time>
      </trkpt>
      <trkpt lat="48.065170" lon="10.485553">
        <ele>638.112999</ele>
        <time>2020-09-10T14:15:40.599Z</time>
      </trkpt>
      <trkpt lat="48.065077" lon="10.485575">
        <ele>638.270230</ele>
        <time>2020-09-10T14:15:42.608Z</time>
      </trkpt>
      <trkpt lat="48.064973" lon="10.485597">
        <ele>638.445629</ele>
        <time>2020-09-10T14:15:44.609Z</time>
      </trkpt>
      <trkpt lat="48.064877" lon="10.485632">
        <ele>638.610631</ele>
        <time>2020-09-10T14:15:46.603Z</time>
      </trkpt>
      <trkpt lat="48.064777" lon="10.485671">
        <ele>638.783202</ele>
        <time>2020-09-10T14:15:48.606Z</time>
      </trkpt>
      <trkpt lat="48.064667" lon="10.485704">
        <ele>638.970548</ele>
        <time>2020-09-10T14:15:50.613Z</time>
      </trkpt>
      <trkpt lat="48.064549" lon="10.485717">
        <ele>639.168132</ele>
        <time>2020-09-10T14:15:52.609Z</time>
      </trkpt>
      <trkpt lat="48.064438" lon="10.485732">
        <ele>639.354248</ele>
        <time>2020-09-10T14:15:54.612Z</time>
      </trkpt>
      <trkpt lat="48.064337" lon="10.485745">
        <ele>639.523533</ele>
        <time>2020-09-10T14:15:56.613Z</time>
      </trkpt>
      <trkpt lat="48.064231" lon="10.485765">
        <ele>639.701946</ele>
        <time>2020-09-10T14:15:58.611Z</time>
      </trkpt>
      <trkpt lat="48.064125" lon="10.485782">
        <ele>639.879972</ele>
        <time>2020-09-10T14:16:00.612Z</time>
      </trkpt>
      <trkpt lat="48.064014" lon="10.485806">
        <ele>640.067258</ele>
        <time>2020-09-10T14:16:02.612Z</time>
      </trkpt>
      <trkpt lat="48.063904" lon="10.485829">
        <ele>640.252734</ele>
        <time>2020-09-10T14:16:04.608Z</time>
      </trkpt>
      <trkpt lat="48.063792" lon="10.485852">
        <ele>640.441518</ele>
        <time>2020-09-10T14:16:06.610Z</time>
      </trkpt>
      <trkpt lat="48.063684" lon="10.485888">
        <ele>640.626291</ele>
        <time>2020-09-10T14:16:08.606Z</time>
      </trkpt>
      <trkpt lat="48.063578" lon="10.485902">
        <ele>640.803991</ele>
        <time>2020-09-10T14:16:10.610Z</time>
      </trkpt>
      <trkpt lat="48.063476" lon="10.485912">
        <ele>640.974688</ele>
        <time>2020-09-10T14:16:12.597Z</time>
      </trkpt>
      <trkpt lat="48.063375" lon="10.485934">
        <ele>641.125180</ele>
        <time>2020-09-10T14:16:14.611Z</time>
      </trkpt>
      <trkpt lat="48.063244" lon="10.485921">
        <ele>641.257163</ele>
        <time>2020-09-10T14:16:17.606Z</time>
      </trkpt>
      <trkpt lat="48.063140" lon="10.485936">
        <ele>641.362199</ele>
        <time>2020-09-10T14:16:20.602Z</time>
      </trkpt>
      <trkpt lat="48.063009" lon="10.485971">
        <ele>641.495976</ele>
        <time>2020-09-10T14:16:23.605Z</time>
      </trkpt>
      <trkpt lat="48.062904" lon="10.486017">
        <ele>641.605964</ele>
        <time>2020-09-10T14:16:25.612Z</time>
      </trkpt>
      <trkpt lat="48.062789" lon="10.486059">
        <ele>641.724968</ele>
        <time>2020-09-10T14:16:27.611Z</time>
      </trkpt>
      <trkpt lat="48.062699" lon="10.486082">
        <ele>641.816755</ele>
        <time>2020-09-10T14:16:29.599Z</time>
      </trkpt>
      <trkpt lat="48.062604" lon="10.486101">
        <ele>641.913108</ele>
        <time>2020-09-10T14:16:31.606Z</time>
      </trkpt>
      <trkpt lat="48.062507" lon="10.486124">
        <ele>642.011839</ele>
        <time>2020-09-10T14:16:33.608Z</time>
      </trkpt>
      <trkpt lat="48.062404" lon="10.486154">
        <ele>642.117328</ele>
        <time>2020-09-10T14:16:35.611Z</time>
      </trkpt>
      <trkpt lat="48.062301" lon="10.486165">
        <ele>642.221138</ele>
        <time>2020-09-10T14:16:37.608Z</time>
      </trkpt>
      <trkpt lat="48.062204" lon="10.486189">
        <ele>642.319976</ele>
        <time>2020-09-10T14:16:39.607Z</time>
      </trkpt>
      <trkpt lat="48.062073" lon="10.486221">
        <ele>642.453414</ele>
        <time>2020-09-10T14:16:42.611Z</time>
      </trkpt>
      <trkpt lat="48.061941" lon="10.486246">
        <ele>642.587172</ele>
        <time>2020-09-10T14:16:45.609Z</time>
      </trkpt>
      <trkpt lat="48.061843" lon="10.486274">
        <ele>642.687472</ele>
        <time>2020-09-10T14:16:47.615Z</time>
      </trkpt>
      <trkpt lat="48.061749" lon="10.486295">
        <ele>642.783017</ele>
        <time>2020-09-10T14:16:49.616Z</time>
      </trkpt>
      <trkpt lat="48.061647" lon="10.486322">
        <ele>642.887150</ele>
        <time>2020-09-10T14:16:51.615Z</time>
      </trkpt>
      <trkpt lat="48.061541" lon="10.486345">
        <ele>642.796597</ele>
        <time>2020-09-10T14:16:53.594Z</time>
      </trkpt>
      <trkpt lat="48.061442" lon="10.486368">
        <ele>642.679456</ele>
        <time>2020-09-10T14:16:55.582Z</time>
      </trkpt>
      <trkpt lat="48.061349" lon="10.486392">
        <ele>642.569111</ele>
        <time>2020-09-10T14:16:57.615Z</time>
      </trkpt>
      <trkpt lat="48.061252" lon="10.486417">
        <ele>642.454026</ele>
        <time>2020-09-10T14:16:59.602Z</time>
      </trkpt>
      <trkpt lat="48.061152" lon="10.486436">
        <ele>642.336164</ele>
        <time>2020-09-10T14:17:01.617Z</time>
      </trkpt>
      <trkpt lat="48.061046" lon="10.486455">
        <ele>642.211339</ele>
        <time>2020-09-10T14:17:03.603Z</time>
      </trkpt>
      <trkpt lat="48.060927" lon="10.486482">
        <ele>642.070610</ele>
        <time>2020-09-10T14:17:05.611Z</time>
      </trkpt>
      <trkpt lat="48.060815" lon="10.486510">
        <ele>641.937840</ele>
        <time>2020-09-10T14:17:07.605Z</time>
      </trkpt>
      <trkpt lat="48.060705" lon="10.486533">
        <ele>641.807975</ele>
        <time>2020-09-10T14:17:09.604Z</time>
      </trkpt>
      <trkpt lat="48.060587" lon="10.486556">
        <ele>641.668840</ele>
        <time>2020-09-10T14:17:11.607Z</time>
      </trkpt>
      <trkpt lat="48.060461" lon="10.486583">
        <ele>641.520013</ele>
        <time>2020-09-10T14:17:13.611Z</time>
      </trkpt>
      <trkpt lat="48.060335" lon="10.486608">
        <ele>641.371400</ele>
        <time>2020-09-10T14:17:15.605Z</time>
      </trkpt>
      <trkpt lat="48.060203" lon="10.486634">
        <ele>641.215730</ele>
        <time>2020-09-10T14:17:17.608Z</time>
      </trkpt>
      <trkpt lat="48.060080" lon="10.486651">
        <ele>641.071302</ele>
        <time>2020-09-10T14:17:19.609Z</time>
      </trkpt>
      <trkpt lat="48.059971" lon="10.486652">
        <ele>640.943854</ele>
        <time>2020-09-10T14:17:21.603Z</time>
      </trkpt>
      <trkpt lat="48.059867" lon="10.486640">
        <ele>640.821892</ele>
        <time>2020-09-10T14:17:23.612Z</time>
      </trkpt>
      <trkpt lat="48.059757" lon="10.486627">
        <ele>640.884487</ele>
        <time>2020-09-10T14:17:25.609Z</time>
      </trkpt>
      <trkpt lat="48.059643" lon="10.486610">
        <ele>640.989793</ele>
        <time>2020-09-10T14:17:27.613Z</time>
      </trkpt>
      <trkpt lat="48.059529" lon="10.486593">
        <ele>641.095099</ele>
        <time>2020-09-10T14:17:29.611Z</time>
      </trkpt>
      <trkpt lat="48.059421" lon="10.486571">
        <ele>641.195286</ele>
        <time>2020-09-10T14:17:31.616Z</time>
      </trkpt>
      <trkpt lat="48.059310" lon="10.486566">
        <ele>641.297362</ele>
        <time>2020-09-10T14:17:33.619Z</time>
      </trkpt>
      <trkpt lat="48.059195" lon="10.486549">
        <ele>641.403583</ele>
        <time>2020-09-10T14:17:35.605Z</time>
      </trkpt>
      <trkpt lat="48.059085" lon="10.486531">
        <ele>641.505296</ele>
        <time>2020-09-10T14:17:37.599Z</time>
      </trkpt>
      <trkpt lat="48.058979" lon="10.486511">
        <ele>641.603501</ele>
        <time>2020-09-10T14:17:39.597Z</time>
      </trkpt>
      <trkpt lat="48.058884" lon="10.486499">
        <ele>641.691134</ele>
        <time>2020-09-10T14:17:41.603Z</time>
      </trkpt>
      <trkpt lat="48.058790" lon="10.486485">
        <ele>641.777964</ele>
        <time>2020-09-10T14:17:43.610Z</time>
      </trkpt>
      <trkpt lat="48.058663" lon="10.486473">
        <ele>641.894933</ele>
        <time>2020-09-10T14:17:46.609Z</time>
      </trkpt>
      <trkpt lat="48.058566" lon="10.486445">
        <ele>641.985738</ele>
        <time>2020-09-10T14:17:48.602Z</time>
      </trkpt>
      <trkpt lat="48.058466" lon="10.486433">
        <ele>642.077952</ele>
        <time>2020-09-10T14:17:50.607Z</time>
      </trkpt>
      <trkpt lat="48.058373" lon="10.486418">
        <ele>642.163931</ele>
        <time>2020-09-10T14:17:52.609Z</time>
      </trkpt>
      <trkpt lat="48.058275" lon="10.486412">
        <ele>642.254086</ele>
        <time>2020-09-10T14:17:54.608Z</time>
      </trkpt>
      <trkpt lat="48.058165" lon="10.486397">
        <ele>642.355615</ele>
        <time>2020-09-10T14:17:56.606Z</time>
      </trkpt>
      <trkpt lat="48.058053" lon="10.486382">
        <ele>642.461165</ele>
        <time>2020-09-10T14:17:58.609Z</time>
      </trkpt>
      <trkpt lat="48.057938" lon="10.486362">
        <ele>642.609641</ele>
        <time>2020-09-10T14:18:00.608Z</time>
      </trkpt>
      <trkpt lat="48.057837" lon="10.486335">
        <ele>642.741220</ele>
        <time>2020-09-10T14:18:02.606Z</time>
      </trkpt>
      <trkpt lat="48.057745" lon="10.486324">
        <ele>642.859582</ele>
        <time>2020-09-10T14:18:04.612Z</time>
      </trkpt>
      <trkpt lat="48.057655" lon="10.486329">
        <ele>642.975083</ele>
        <time>2020-09-10T14:18:06.606Z</time>
      </trkpt>
      <trkpt lat="48.057525" lon="10.486349">
        <ele>643.142681</ele>
        <time>2020-09-10T14:18:09.607Z</time>
      </trkpt>
      <trkpt lat="48.057426" lon="10.486356">
        <ele>643.269786</ele>
        <time>2020-09-10T14:18:11.594Z</time>
      </trkpt>
      <trkpt lat="48.057317" lon="10.486356">
        <ele>643.409574</ele>
        <time>2020-09-10T14:18:13.614Z</time>
      </trkpt>
      <trkpt lat="48.057220" lon="10.486370">
        <ele>643.534549</ele>
        <time>2020-09-10T14:18:15.586Z</time>
      </trkpt>
      <trkpt lat="48.057117" lon="10.486363">
        <ele>643.666778</ele>
        <time>2020-09-10T14:18:17.603Z</time>
      </trkpt>
      <trkpt lat="48.057010" lon="10.486363">
        <ele>643.804001</ele>
        <time>2020-09-10T14:18:19.603Z</time>
      </trkpt>
      <trkpt lat="48.056900" lon="10.486365">
        <ele>643.945082</ele>
        <time>2020-09-10T14:18:21.607Z</time>
      </trkpt>
      <trkpt lat="48.056796" lon="10.486376">
        <ele>644.078790</ele>
        <time>2020-09-10T14:18:23.606Z</time>
      </trkpt>
      <trkpt lat="48.056693" lon="10.486385">
        <ele>644.211108</ele>
        <time>2020-09-10T14:18:25.611Z</time>
      </trkpt>
      <trkpt lat="48.056578" lon="10.486402">
        <ele>644.359308</ele>
        <time>2020-09-10T14:18:27.606Z</time>
      </trkpt>
      <trkpt lat="48.056472" lon="10.486426">
        <ele>644.496797</ele>
        <time>2020-09-10T14:18:29.606Z</time>
      </trkpt>
      <trkpt lat="48.056373" lon="10.486458">
        <ele>644.626689</ele>
        <time>2020-09-10T14:18:31.608Z</time>
      </trkpt>
      <trkpt lat="48.056281" lon="10.486477">
        <ele>644.745794</ele>
        <time>2020-09-10T14:18:33.609Z</time>
      </trkpt>
      <trkpt lat="48.056189" lon="10.486490">
        <ele>644.744373</ele>
        <time>2020-09-10T14:18:35.596Z</time>
      </trkpt>
      <trkpt lat="48.056077" lon="10.486518">
        <ele>644.722371</ele>
        <time>2020-09-10T14:18:37.607Z</time>
      </trkpt>
      <trkpt lat="48.055961" lon="10.486549">
        <ele>644.699539</ele>
        <time>2020-09-10T14:18:39.612Z</time>
      </trkpt>
      <trkpt lat="48.055844" lon="10.486576">
        <ele>644.676600</ele>
        <time>2020-09-10T14:18:41.608Z</time>
      </trkpt>
      <trkpt lat="48.055740" lon="10.486602">
        <ele>644.656170</ele>
        <time>2020-09-10T14:18:43.609Z</time>
      </trkpt>
      <trkpt lat="48.055641" lon="10.486637">
        <ele>644.636459</ele>
        <time>2020-09-10T14:18:45.609Z</time>
      </trkpt>
      <trkpt lat="48.055537" lon="10.486657">
        <ele>644.616142</ele>
        <time>2020-09-10T14:18:47.615Z</time>
      </trkpt>
      <trkpt lat="48.055428" lon="10.486675">
        <ele>644.594893</ele>
        <time>2020-09-10T14:18:49.611Z</time>
      </trkpt>
      <trkpt lat="48.055318" lon="10.486699">
        <ele>644.573354</ele>
        <time>2020-09-10T14:18:51.608Z</time>
      </trkpt>
      <trkpt lat="48.055208" lon="10.486718">
        <ele>644.551898</ele>
        <time>2020-09-10T14:18:53.612Z</time>
      </trkpt>
      <trkpt lat="48.055102" lon="10.486733">
        <ele>644.531268</ele>
        <time>2020-09-10T14:18:55.599Z</time>
      </trkpt>
      <trkpt lat="48.054997" lon="10.486731">
        <ele>644.510921</ele>
        <time>2020-09-10T14:18:57.603Z</time>
      </trkpt>
      <trkpt lat="48.054902" lon="10.486717">
        <ele>644.492424</ele>
        <time>2020-09-10T14:18:59.586Z</time>
      </trkpt>
      <trkpt lat="48.054812" lon="10.486662">
        <ele>644.473587</ele>
        <time>2020-09-10T14:19:01.599Z</time>
      </trkpt>
      <trkpt lat="48.054736" lon="10.486559">
        <ele>644.453717</ele>
        <time>2020-09-10T14:19:03.593Z</time>
      </trkpt>
      <trkpt lat="48.054635" lon="10.486445">
        <ele>644.429202</ele>
        <time>2020-09-10T14:19:05.591Z</time>
      </trkpt>
      <trkpt lat="48.054542" lon="10.486336">
        <ele>644.431037</ele>
        <time>2020-09-10T14:19:07.605Z</time>
      </trkpt>
      <trkpt lat="48.054454" lon="10.486225">
        <ele>644.512908</ele>
        <time>2020-09-10T14:19:09.610Z</time>
      </trkpt>
      <trkpt lat="48.054351" lon="10.486127">
        <ele>644.599731</ele>
        <time>2020-09-10T14:19:11.604Z</time>
      </trkpt>
      <trkpt lat="48.054228" lon="10.486073">
        <ele>644.690908</ele>
        <time>2020-09-10T14:19:13.609Z</time>
      </trkpt>
      <trkpt lat="48.054112" lon="10.486039">
        <ele>644.774985</ele>
        <time>2020-09-10T14:19:15.607Z</time>
      </trkpt>
      <trkpt lat="48.053999" lon="10.486012">
        <ele>644.856378</ele>
        <time>2020-09-10T14:19:17.606Z</time>
      </trkpt>
      <trkpt lat="48.053895" lon="10.485988">
        <ele>644.931226</ele>
        <time>2020-09-10T14:19:19.611Z</time>
      </trkpt>
      <trkpt lat="48.053797" lon="10.485992">
        <ele>645.000958</ele>
        <time>2020-09-10T14:19:21.588Z</time>
      </trkpt>
      <trkpt lat="48.053704" lon="10.485969">
        <ele>645.068005</ele>
        <time>2020-09-10T14:19:23.603Z</time>
      </trkpt>
      <trkpt lat="48.053603" lon="10.485944">
        <ele>645.140821</ele>
        <time>2020-09-10T14:19:25.590Z</time>
      </trkpt>
      <trkpt lat="48.053504" lon="10.485899">
        <ele>645.214416</ele>
        <time>2020-09-10T14:19:27.606Z</time>
      </trkpt>
      <trkpt lat="48.053401" lon="10.485866">
        <ele>645.289339</ele>
        <time>2020-09-10T14:19:29.597Z</time>
      </trkpt>
      <trkpt lat="48.053305" lon="10.485838">
        <ele>645.358907</ele>
        <time>2020-09-10T14:19:31.613Z</time>
      </trkpt>
      <trkpt lat="48.053210" lon="10.485807">
        <ele>645.428068</ele>
        <time>2020-09-10T14:19:33.594Z</time>
      </trkpt>
      <trkpt lat="48.053112" lon="10.485771">
        <ele>645.499844</ele>
        <time>2020-09-10T14:19:35.611Z</time>
      </trkpt>
      <trkpt lat="48.052999" lon="10.485737">
        <ele>645.581828</ele>
        <time>2020-09-10T14:19:37.600Z</time>
      </trkpt>
      <trkpt lat="48.052908" lon="10.485715">
        <ele>645.647394</ele>
        <time>2020-09-10T14:19:39.605Z</time>
      </trkpt>
      <trkpt lat="48.052791" lon="10.485710">
        <ele>645.730654</ele>
        <time>2020-09-10T14:19:42.607Z</time>
      </trkpt>
      <trkpt lat="48.052653" lon="10.485711">
        <ele>645.828827</ele>
        <time>2020-09-10T14:19:45.603Z</time>
      </trkpt>
      <trkpt lat="48.052547" lon="10.485727">
        <ele>645.904617</ele>
        <time>2020-09-10T14:19:47.612Z</time>
      </trkpt>
      <trkpt lat="48.052437" lon="10.485753">
        <ele>645.983841</ele>
        <time>2020-09-10T14:19:49.608Z</time>
      </trkpt>
      <trkpt lat="48.052340" lon="10.485798">
        <ele>646.056087</ele>
        <time>2020-09-10T14:19:51.608Z</time>
      </trkpt>
      <trkpt lat="48.052247" lon="10.485850">
        <ele>646.126717</ele>
        <time>2020-09-10T14:19:53.612Z</time>
      </trkpt>
      <trkpt lat="48.052145" lon="10.485860">
        <ele>646.199434</ele>
        <time>2020-09-10T14:19:55.591Z</time>
      </trkpt>
      <trkpt lat="48.052036" lon="10.485867">
        <ele>646.277047</ele>
        <time>2020-09-10T14:19:57.605Z</time>
      </trkpt>
      <trkpt lat="48.051926" lon="10.485862">
        <ele>646.355336</ele>
        <time>2020-09-10T14:19:59.611Z</time>
      </trkpt>
      <trkpt lat="48.051821" lon="10.485842">
        <ele>646.430635</ele>
        <time>2020-09-10T14:20:01.606Z</time>
      </trkpt>
      <trkpt lat="48.051712" lon="10.485803">
        <ele>646.510363</ele>
        <time>2020-09-10T14:20:03.594Z</time>
      </trkpt>
      <trkpt lat="48.051607" lon="10.485756">
        <ele>646.588331</ele>
        <time>2020-09-10T14:20:05.592Z</time>
      </trkpt>
      <trkpt lat="48.051515" lon="10.485696">
        <ele>646.659728</ele>
        <time>2020-09-10T14:20:07.610Z</time>
      </trkpt>
      <trkpt lat="48.051412" lon="10.485647">
        <ele>646.736617</ele>
        <time>2020-09-10T14:20:09.614Z</time>
      </trkpt>
      <trkpt lat="48.051311" lon="10.485606">
        <ele>646.811066</ele>
        <time>2020-09-10T14:20:11.595Z</time>
      </trkpt>
      <trkpt lat="48.051215" lon="10.485589">
        <ele>646.879836</ele>
        <time>2020-09-10T14:20:13.596Z</time>
      </trkpt>
      <trkpt lat="48.051088" lon="10.485565">
        <ele>646.971612</ele>
        <time>2020-09-10T14:20:16.593Z</time>
      </trkpt>
      <trkpt lat="48.050996" lon="10.485527">
        <ele>647.154345</ele>
        <time>2020-09-10T14:20:19.585Z</time>
      </trkpt>
      <trkpt lat="48.050893" lon="10.485482">
        <ele>647.359786</ele>
        <time>2020-09-10T14:20:30.586Z</time>
      </trkpt>
      <trkpt lat="48.050797" lon="10.485518">
        <ele>647.549274</ele>
        <time>2020-09-10T14:20:33.596Z</time>
      </trkpt>
      <trkpt lat="48.050708" lon="10.485569">
        <ele>647.731746</ele>
        <time>2020-09-10T14:20:35.590Z</time>
      </trkpt>
      <trkpt lat="48.050586" lon="10.485629">
        <ele>647.977625</ele>
        <time>2020-09-10T14:20:38.603Z</time>
      </trkpt>
      <trkpt lat="48.050464" lon="10.485674">
        <ele>648.218201</ele>
        <time>2020-09-10T14:20:41.606Z</time>
      </trkpt>
      <trkpt lat="48.050338" lon="10.485731">
        <ele>648.470229</ele>
        <time>2020-09-10T14:20:44.601Z</time>
      </trkpt>
      <trkpt lat="48.050242" lon="10.485774">
        <ele>648.662092</ele>
        <time>2020-09-10T14:20:46.606Z</time>
      </trkpt>
      <trkpt lat="48.050147" lon="10.485821">
        <ele>648.853667</ele>
        <time>2020-09-10T14:20:48.608Z</time>
      </trkpt>
      <trkpt lat="48.050040" lon="10.485863">
        <ele>649.065463</ele>
        <time>2020-09-10T14:20:50.608Z</time>
      </trkpt>
      <trkpt lat="48.049928" lon="10.485880">
        <ele>649.280999</ele>
        <time>2020-09-10T14:20:52.611Z</time>
      </trkpt>
      <trkpt lat="48.049834" lon="10.485923">
        <ele>649.469197</ele>
        <time>2020-09-10T14:20:54.607Z</time>
      </trkpt>
      <trkpt lat="48.049723" lon="10.485949">
        <ele>649.684306</ele>
        <time>2020-09-10T14:20:56.595Z</time>
      </trkpt>
      <trkpt lat="48.049607" lon="10.485962">
        <ele>649.907021</ele>
        <time>2020-09-10T14:20:58.597Z</time>
      </trkpt>
      <trkpt lat="48.049502" lon="10.485976">
        <ele>650.108850</ele>
        <time>2020-09-10T14:21:00.595Z</time>
      </trkpt>
      <trkpt lat="48.049402" lon="10.485999">
        <ele>650.302559</ele>
        <time>2020-09-10T14:21:02.614Z</time>
      </trkpt>
      <trkpt lat="48.049293" lon="10.486010">
        <ele>650.482664</ele>
        <time>2020-09-10T14:21:04.594Z</time>
      </trkpt>
      <trkpt lat="48.049184" lon="10.486031">
        <ele>650.630414</ele>
        <time>2020-09-10T14:21:06.596Z</time>
      </trkpt>
      <trkpt lat="48.049089" lon="10.486078">
        <ele>650.764936</ele>
        <time>2020-09-10T14:21:08.598Z</time>
      </trkpt>
      <trkpt lat="48.048985" lon="10.486137">
        <ele>650.914470</ele>
        <time>2020-09-10T14:21:10.601Z</time>
      </trkpt>
      <trkpt lat="48.048900" lon="10.486217">
        <ele>651.049481</ele>
        <time>2020-09-10T14:21:12.604Z</time>
      </trkpt>
      <trkpt lat="48.048809" lon="10.486287">
        <ele>651.187049</ele>
        <time>2020-09-10T14:21:14.603Z</time>
      </trkpt>
      <trkpt lat="48.048724" lon="10.486365">
        <ele>651.321111</ele>
        <time>2020-09-10T14:21:16.601Z</time>
      </trkpt>
      <trkpt lat="48.048636" lon="10.486425">
        <ele>651.451128</ele>
        <time>2020-09-10T14:21:18.621Z</time>
      </trkpt>
      <trkpt lat="48.048519" lon="10.486518">
        <ele>651.629250</ele>
        <time>2020-09-10T14:21:21.606Z</time>
      </trkpt>
      <trkpt lat="48.048404" lon="10.486604">
        <ele>651.802100</ele>
        <time>2020-09-10T14:21:24.605Z</time>
      </trkpt>
      <trkpt lat="48.048321" lon="10.486660">
        <ele>651.924510</ele>
        <time>2020-09-10T14:21:26.603Z</time>
      </trkpt>
      <trkpt lat="48.048202" lon="10.486733">
        <ele>652.097424</ele>
        <time>2020-09-10T14:21:29.602Z</time>
      </trkpt>
      <trkpt lat="48.048105" lon="10.486804">
        <ele>652.242606</ele>
        <time>2020-09-10T14:21:32.610Z</time>
      </trkpt>
      <trkpt lat="48.048013" lon="10.486853">
        <ele>652.373896</ele>
        <time>2020-09-10T14:21:37.588Z</time>
      </trkpt>
      <trkpt lat="48.047924" lon="10.486893">
        <ele>652.498832</ele>
        <time>2020-09-10T14:21:42.605Z</time>
      </trkpt>
      <trkpt lat="48.047909" lon="10.487057">
        <ele>652.647599</ele>
        <time>2020-09-10T14:21:46.585Z</time>
      </trkpt>
      <trkpt lat="48.047815" lon="10.487129">
        <ele>652.789577</ele>
        <time>2020-09-10T14:21:51.593Z</time>
      </trkpt>
      <trkpt lat="48.047665" lon="10.487119">
        <ele>653.110993</ele>
        <time>2020-09-10T14:21:57.612Z</time>
      </trkpt>
      <trkpt lat="48.047580" lon="10.487181">
        <ele>653.333610</ele>
        <time>2020-09-10T14:22:01.594Z</time>
      </trkpt>
      <trkpt lat="48.047517" lon="10.487290">
        <ele>653.560367</ele>
        <time>2020-09-10T14:22:05.602Z</time>
      </trkpt>
      <trkpt lat="48.047426" lon="10.487384">
        <ele>653.820700</ele>
        <time>2020-09-10T14:22:09.612Z</time>
      </trkpt>
      <trkpt lat="48.047348" lon="10.487482">
        <ele>654.060492</ele>
        <time>2020-09-10T14:22:15.610Z</time>
      </trkpt>
      <trkpt lat="48.047247" lon="10.487532">
        <ele>654.310934</ele>
        <time>2020-09-10T14:22:19.590Z</time>
      </trkpt>
      <trkpt lat="48.047157" lon="10.487589">
        <ele>654.541007</ele>
        <time>2020-09-10T14:22:24.590Z</time>
      </trkpt>
      <trkpt lat="48.047061" lon="10.487644">
        <ele>654.783005</ele>
        <time>2020-09-10T14:22:29.608Z</time>
      </trkpt>
      <trkpt lat="48.046957" lon="10.487707">
        <ele>655.047141</ele>
        <time>2020-09-10T14:22:34.597Z</time>
      </trkpt>
      <trkpt lat="48.046866" lon="10.487802">
        <ele>655.308372</ele>
        <time>2020-09-10T14:22:39.594Z</time>
      </trkpt>
      <trkpt lat="48.046780" lon="10.487851">
        <ele>655.525010</ele>
        <time>2020-09-10T14:22:43.601Z</time>
      </trkpt>
      <trkpt lat="48.046686" lon="10.487919">
        <ele>655.770810</ele>
        <time>2020-09-10T14:22:47.589Z</time>
      </trkpt>
      <trkpt lat="48.046609" lon="10.487994">
        <ele>655.987114</ele>
        <time>2020-09-10T14:22:53.599Z</time>
      </trkpt>
      <trkpt lat="48.046511" lon="10.488044">
        <ele>656.230862</ele>
        <time>2020-09-10T14:22:58.606Z</time>
      </trkpt>
      <trkpt lat="48.046415" lon="10.488062">
        <ele>656.458620</ele>
        <time>2020-09-10T14:23:02.590Z</time>
      </trkpt>
      <trkpt lat="48.046426" lon="10.488248">
        <ele>656.752482</ele>
        <time>2020-09-10T14:23:32.606Z</time>
      </trkpt>
      <trkpt lat="48.046463" lon="10.488404">
        <ele>657.012980</ele>
        <time>2020-09-10T14:23:36.600Z</time>
      </trkpt>
      <trkpt lat="48.046516" lon="10.488603">
        <ele>657.203035</ele>
        <time>2020-09-10T14:24:33.580Z</time>
      </trkpt>
      <trkpt lat="48.046526" lon="10.488723">
        <ele>657.294711</ele>
        <time>2020-09-10T14:50:19.743Z</time>
      </trkpt>
      <trkpt lat="48.046452" lon="10.488861">
        <ele>657.428824</ele>
        <time>2020-09-10T14:56:32.582Z</time>
      </trkpt>
      <trkpt lat="48.046481" lon="10.489006">
        <ele>657.543562</ele>
        <time>2020-09-10T14:56:36.572Z</time>
      </trkpt>
      <trkpt lat="48.046522" lon="10.489141">
        <ele>657.655971</ele>
        <time>2020-09-10T14:56:40.562Z</time>
      </trkpt>
      <trkpt lat="48.046550" lon="10.489281">
        <ele>657.766752</ele>
        <time>2020-09-10T14:56:44.566Z</time>
      </trkpt>
      <trkpt lat="48.046587" lon="10.489404">
        <ele>657.869003</ele>
        <time>2020-09-10T14:56:47.570Z</time>
      </trkpt>
      <trkpt lat="48.046622" lon="10.489539">
        <ele>657.978773</ele>
        <time>2020-09-10T14:56:50.571Z</time>
      </trkpt>
      <trkpt lat="48.046654" lon="10.489671">
        <ele>658.085218</ele>
        <time>2020-09-10T14:56:53.577Z</time>
      </trkpt>
      <trkpt lat="48.046688" lon="10.489802">
        <ele>658.191750</ele>
        <time>2020-09-10T14:56:56.574Z</time>
      </trkpt>
      <trkpt lat="48.046717" lon="10.489953">
        <ele>658.310852</ele>
        <time>2020-09-10T14:57:00.575Z</time>
      </trkpt>
      <trkpt lat="48.046756" lon="10.490113">
        <ele>658.439958</ele>
        <time>2020-09-10T14:57:04.572Z</time>
      </trkpt>
      <trkpt lat="48.046786" lon="10.490245">
        <ele>658.545651</ele>
        <time>2020-09-10T14:57:07.601Z</time>
      </trkpt>
      <trkpt lat="48.046810" lon="10.490389">
        <ele>658.658158</ele>
        <time>2020-09-10T14:57:10.610Z</time>
      </trkpt>
      <trkpt lat="48.046844" lon="10.490552">
        <ele>658.787602</ele>
        <time>2020-09-10T14:57:14.598Z</time>
      </trkpt>
      <trkpt lat="48.046885" lon="10.490687">
        <ele>658.900011</ele>
        <time>2020-09-10T14:57:18.578Z</time>
      </trkpt>
      <trkpt lat="48.046924" lon="10.490849">
        <ele>659.030542</ele>
        <time>2020-09-10T14:57:24.599Z</time>
      </trkpt>
      <trkpt lat="48.046928" lon="10.491018">
        <ele>659.036990</ele>
        <time>2020-09-10T14:57:28.607Z</time>
      </trkpt>
      <trkpt lat="48.046840" lon="10.491090">
        <ele>658.888249</ele>
        <time>2020-09-10T14:57:33.584Z</time>
      </trkpt>
      <trkpt lat="48.046848" lon="10.491306">
        <ele>658.673788</ele>
        <time>2020-09-10T14:57:53.598Z</time>
      </trkpt>
      <trkpt lat="48.046893" lon="10.491440">
        <ele>658.525128</ele>
        <time>2020-09-10T14:57:58.591Z</time>
      </trkpt>
      <trkpt lat="48.046916" lon="10.491570">
        <ele>658.391815</ele>
        <time>2020-09-10T14:58:01.600Z</time>
      </trkpt>
      <trkpt lat="48.046929" lon="10.491716">
        <ele>658.245799</ele>
        <time>2020-09-10T14:58:04.600Z</time>
      </trkpt>
      <trkpt lat="48.046941" lon="10.491860">
        <ele>658.101939</ele>
        <time>2020-09-10T14:58:07.606Z</time>
      </trkpt>
      <trkpt lat="48.046965" lon="10.492022">
        <ele>657.937444</ele>
        <time>2020-09-10T14:58:10.598Z</time>
      </trkpt>
      <trkpt lat="48.046976" lon="10.492174">
        <ele>657.785878</ele>
        <time>2020-09-10T14:58:13.607Z</time>
      </trkpt>
      <trkpt lat="48.046993" lon="10.492336">
        <ele>657.623312</ele>
        <time>2020-09-10T14:58:16.596Z</time>
      </trkpt>
      <trkpt lat="48.047021" lon="10.492517">
        <ele>657.439136</ele>
        <time>2020-09-10T14:58:19.592Z</time>
      </trkpt>
      <trkpt lat="48.047050" lon="10.492655">
        <ele>657.295729</ele>
        <time>2020-09-10T14:58:21.594Z</time>
      </trkpt>
      <trkpt lat="48.047073" lon="10.492797">
        <ele>657.150884</ele>
        <time>2020-09-10T14:58:23.589Z</time>
      </trkpt>
      <trkpt lat="48.047086" lon="10.492945">
        <ele>657.002903</ele>
        <time>2020-09-10T14:58:25.594Z</time>
      </trkpt>
      <trkpt lat="48.047121" lon="10.493138">
        <ele>656.804658</ele>
        <time>2020-09-10T14:58:28.604Z</time>
      </trkpt>
      <trkpt lat="48.047157" lon="10.493326">
        <ele>656.610789</ele>
        <time>2020-09-10T14:58:31.597Z</time>
      </trkpt>
      <trkpt lat="48.047195" lon="10.493484">
        <ele>656.444328</ele>
        <time>2020-09-10T14:58:34.596Z</time>
      </trkpt>
      <trkpt lat="48.047224" lon="10.493657">
        <ele>656.408378</ele>
        <time>2020-09-10T14:58:37.594Z</time>
      </trkpt>
      <trkpt lat="48.047257" lon="10.493847">
        <ele>656.373846</ele>
        <time>2020-09-10T14:58:40.599Z</time>
      </trkpt>
      <trkpt lat="48.047280" lon="10.493994">
        <ele>656.347289</ele>
        <time>2020-09-10T14:58:42.606Z</time>
      </trkpt>
      <trkpt lat="48.047302" lon="10.494140">
        <ele>656.320963</ele>
        <time>2020-09-10T14:58:44.598Z</time>
      </trkpt>
      <trkpt lat="48.047323" lon="10.494272">
        <ele>656.297095</ele>
        <time>2020-09-10T14:58:46.599Z</time>
      </trkpt>
      <trkpt lat="48.047356" lon="10.494430">
        <ele>656.267977</ele>
        <time>2020-09-10T14:58:49.580Z</time>
      </trkpt>
      <trkpt lat="48.047397" lon="10.494610">
        <ele>656.234526</ele>
        <time>2020-09-10T14:58:52.606Z</time>
      </trkpt>
      <trkpt lat="48.047427" lon="10.494752">
        <ele>656.208330</ele>
        <time>2020-09-10T14:58:54.601Z</time>
      </trkpt>
      <trkpt lat="48.047451" lon="10.494898">
        <ele>656.181883</ele>
        <time>2020-09-10T14:58:56.604Z</time>
      </trkpt>
      <trkpt lat="48.047472" lon="10.495068">
        <ele>656.151473</ele>
        <time>2020-09-10T14:58:58.593Z</time>
      </trkpt>
      <trkpt lat="48.047495" lon="10.495243">
        <ele>656.120100</ele>
        <time>2020-09-10T14:59:00.594Z</time>
      </trkpt>
      <trkpt lat="48.047531" lon="10.495407">
        <ele>656.089737</ele>
        <time>2020-09-10T14:59:02.602Z</time>
      </trkpt>
      <trkpt lat="48.047572" lon="10.495573">
        <ele>656.058607</ele>
        <time>2020-09-10T14:59:04.592Z</time>
      </trkpt>
      <trkpt lat="48.047608" lon="10.495736">
        <ele>656.028410</ele>
        <time>2020-09-10T14:59:06.591Z</time>
      </trkpt>
      <trkpt lat="48.047644" lon="10.495908">
        <ele>655.996707</ele>
        <time>2020-09-10T14:59:08.596Z</time>
      </trkpt>
      <trkpt lat="48.047680" lon="10.496072">
        <ele>655.966343</ele>
        <time>2020-09-10T14:59:10.574Z</time>
      </trkpt>
      <trkpt lat="48.047719" lon="10.496232">
        <ele>655.956604</ele>
        <time>2020-09-10T14:59:12.598Z</time>
      </trkpt>
      <trkpt lat="48.047757" lon="10.496392">
        <ele>655.947485</ele>
        <time>2020-09-10T14:59:14.570Z</time>
      </trkpt>
      <trkpt lat="48.047788" lon="10.496540">
        <ele>655.939155</ele>
        <time>2020-09-10T14:59:16.594Z</time>
      </trkpt>
      <trkpt lat="48.047809" lon="10.496684">
        <ele>655.931239</ele>
        <time>2020-09-10T14:59:18.596Z</time>
      </trkpt>
      <trkpt lat="48.047835" lon="10.496831">
        <ele>655.923072</ele>
        <time>2020-09-10T14:59:20.592Z</time>
      </trkpt>
      <trkpt lat="48.047862" lon="10.496991">
        <ele>655.914209</ele>
        <time>2020-09-10T14:59:22.602Z</time>
      </trkpt>
      <trkpt lat="48.047887" lon="10.497145">
        <ele>655.905697</ele>
        <time>2020-09-10T14:59:24.587Z</time>
      </trkpt>
      <trkpt lat="48.047917" lon="10.497309">
        <ele>655.896565</ele>
        <time>2020-09-10T14:59:26.597Z</time>
      </trkpt>
      <trkpt lat="48.047949" lon="10.497469">
        <ele>655.887596</ele>
        <time>2020-09-10T14:59:28.605Z</time>
      </trkpt>
      <trkpt lat="48.047973" lon="10.497622">
        <ele>655.879155</ele>
        <time>2020-09-10T14:59:30.595Z</time>
      </trkpt>
      <trkpt lat="48.047996" lon="10.497770">
        <ele>655.870994</ele>
        <time>2020-09-10T14:59:32.576Z</time>
      </trkpt>
      <trkpt lat="48.048028" lon="10.497924">
        <ele>655.862333</ele>
        <time>2020-09-10T14:59:34.599Z</time>
      </trkpt>
      <trkpt lat="48.048054" lon="10.498072">
        <ele>655.854114</ele>
        <time>2020-09-10T14:59:36.597Z</time>
      </trkpt>
      <trkpt lat="48.048077" lon="10.498214">
        <ele>655.846267</ele>
        <time>2020-09-10T14:59:38.603Z</time>
      </trkpt>
      <trkpt lat="48.048112" lon="10.498390">
        <ele>655.836405</ele>
        <time>2020-09-10T14:59:41.593Z</time>
      </trkpt>
      <trkpt lat="48.048141" lon="10.498523">
        <ele>655.828891</ele>
        <time>2020-09-10T14:59:43.595Z</time>
      </trkpt>
      <trkpt lat="48.048183" lon="10.498654">
        <ele>655.821088</ele>
        <time>2020-09-10T14:59:45.593Z</time>
      </trkpt>
      <trkpt lat="48.048198" lon="10.498810">
        <ele>655.842845</ele>
        <time>2020-09-10T14:59:47.590Z</time>
      </trkpt>
      <trkpt lat="48.048215" lon="10.498952">
        <ele>655.863096</ele>
        <time>2020-09-10T14:59:49.596Z</time>
      </trkpt>
      <trkpt lat="48.048232" lon="10.499093">
        <ele>655.883209</ele>
        <time>2020-09-10T14:59:51.592Z</time>
      </trkpt>
      <trkpt lat="48.048260" lon="10.499284">
        <ele>655.910659</ele>
        <time>2020-09-10T14:59:54.590Z</time>
      </trkpt>
      <trkpt lat="48.048287" lon="10.499413">
        <ele>655.929635</ele>
        <time>2020-09-10T14:59:56.588Z</time>
      </trkpt>
      <trkpt lat="48.048315" lon="10.499555">
        <ele>655.950418</ele>
        <time>2020-09-10T14:59:58.591Z</time>
      </trkpt>
      <trkpt lat="48.048329" lon="10.499693">
        <ele>655.970013</ele>
        <time>2020-09-10T15:00:00.590Z</time>
      </trkpt>
      <trkpt lat="48.048347" lon="10.499842">
        <ele>655.991268</ele>
        <time>2020-09-10T15:00:02.599Z</time>
      </trkpt>
      <trkpt lat="48.048354" lon="10.499993">
        <ele>656.012517</ele>
        <time>2020-09-10T15:00:04.599Z</time>
      </trkpt>
      <trkpt lat="48.048348" lon="10.500153">
        <ele>656.035013</ele>
        <time>2020-09-10T15:00:06.610Z</time>
      </trkpt>
      <trkpt lat="48.048352" lon="10.500307">
        <ele>656.056648</ele>
        <time>2020-09-10T15:00:08.595Z</time>
      </trkpt>
      <trkpt lat="48.048346" lon="10.500464">
        <ele>656.078724</ele>
        <time>2020-09-10T15:00:10.572Z</time>
      </trkpt>
      <trkpt lat="48.048342" lon="10.500625">
        <ele>656.101341</ele>
        <time>2020-09-10T15:00:12.599Z</time>
      </trkpt>
      <trkpt lat="48.048331" lon="10.500799">
        <ele>656.125876</ele>
        <time>2020-09-10T15:00:14.599Z</time>
      </trkpt>
      <trkpt lat="48.048308" lon="10.500966">
        <ele>656.149813</ele>
        <time>2020-09-10T15:00:16.604Z</time>
      </trkpt>
      <trkpt lat="48.048284" lon="10.501140">
        <ele>656.174753</ele>
        <time>2020-09-10T15:00:18.597Z</time>
      </trkpt>
      <trkpt lat="48.048261" lon="10.501317">
        <ele>656.198638</ele>
        <time>2020-09-10T15:00:20.577Z</time>
      </trkpt>
      <trkpt lat="48.048235" lon="10.501496">
        <ele>656.197688</ele>
        <time>2020-09-10T15:00:22.599Z</time>
      </trkpt>
      <trkpt lat="48.048207" lon="10.501681">
        <ele>656.196703</ele>
        <time>2020-09-10T15:00:24.584Z</time>
      </trkpt>
      <trkpt lat="48.048186" lon="10.501858">
        <ele>656.195771</ele>
        <time>2020-09-10T15:00:26.604Z</time>
      </trkpt>
      <trkpt lat="48.048171" lon="10.502038">
        <ele>656.194829</ele>
        <time>2020-09-10T15:00:28.596Z</time>
      </trkpt>
      <trkpt lat="48.048150" lon="10.502216">
        <ele>656.193891</ele>
        <time>2020-09-10T15:00:30.568Z</time>
      </trkpt>
      <trkpt lat="48.048129" lon="10.502390">
        <ele>656.192974</ele>
        <time>2020-09-10T15:00:32.592Z</time>
      </trkpt>
      <trkpt lat="48.048095" lon="10.502529">
        <ele>656.192205</ele>
        <time>2020-09-10T15:00:34.587Z</time>
      </trkpt>
      <trkpt lat="48.048061" lon="10.502727">
        <ele>656.191145</ele>
        <time>2020-09-10T15:00:37.596Z</time>
      </trkpt>
      <trkpt lat="48.048057" lon="10.502888">
        <ele>656.190308</ele>
        <time>2020-09-10T15:00:39.578Z</time>
      </trkpt>
      <trkpt lat="48.048060" lon="10.503043">
        <ele>656.189504</ele>
        <time>2020-09-10T15:00:41.576Z</time>
      </trkpt>
      <trkpt lat="48.048050" lon="10.503202">
        <ele>656.188675</ele>
        <time>2020-09-10T15:00:43.606Z</time>
      </trkpt>
      <trkpt lat="48.048062" lon="10.503353">
        <ele>656.187886</ele>
        <time>2020-09-10T15:00:45.589Z</time>
      </trkpt>
      <trkpt lat="48.048076" lon="10.503501">
        <ele>656.187110</ele>
        <time>2020-09-10T15:00:47.595Z</time>
      </trkpt>
      <trkpt lat="48.048096" lon="10.503653">
        <ele>656.186306</ele>
        <time>2020-09-10T15:00:49.598Z</time>
      </trkpt>
      <trkpt lat="48.048101" lon="10.503810">
        <ele>656.185491</ele>
        <time>2020-09-10T15:00:51.599Z</time>
      </trkpt>
      <trkpt lat="48.048107" lon="10.503972">
        <ele>656.185783</ele>
        <time>2020-09-10T15:00:53.598Z</time>
      </trkpt>
      <trkpt lat="48.048111" lon="10.504143">
        <ele>656.197801</ele>
        <time>2020-09-10T15:00:55.593Z</time>
      </trkpt>
      <trkpt lat="48.048121" lon="10.504335">
        <ele>656.211327</ele>
        <time>2020-09-10T15:00:57.601Z</time>
      </trkpt>
      <trkpt lat="48.048110" lon="10.504529">
        <ele>656.225001</ele>
        <time>2020-09-10T15:00:59.593Z</time>
      </trkpt>
      <trkpt lat="48.048089" lon="10.504698">
        <ele>656.237074</ele>
        <time>2020-09-10T15:01:01.587Z</time>
      </trkpt>
      <trkpt lat="48.048078" lon="10.504865">
        <ele>656.248860</ele>
        <time>2020-09-10T15:01:03.569Z</time>
      </trkpt>
      <trkpt lat="48.048063" lon="10.505034">
        <ele>656.260833</ele>
        <time>2020-09-10T15:01:05.597Z</time>
      </trkpt>
      <trkpt lat="48.048046" lon="10.505204">
        <ele>656.272906</ele>
        <time>2020-09-10T15:01:07.599Z</time>
      </trkpt>
      <trkpt lat="48.048030" lon="10.505364">
        <ele>656.284269</ele>
        <time>2020-09-10T15:01:09.599Z</time>
      </trkpt>
      <trkpt lat="48.048016" lon="10.505532">
        <ele>656.296159</ele>
        <time>2020-09-10T15:01:11.590Z</time>
      </trkpt>
      <trkpt lat="48.048010" lon="10.505685">
        <ele>656.306924</ele>
        <time>2020-09-10T15:01:13.603Z</time>
      </trkpt>
      <trkpt lat="48.048031" lon="10.505821">
        <ele>656.316727</ele>
        <time>2020-09-10T15:01:15.575Z</time>
      </trkpt>
      <trkpt lat="48.048088" lon="10.505998">
        <ele>656.330526</ele>
        <time>2020-09-10T15:01:18.575Z</time>
      </trkpt>
      <trkpt lat="48.048128" lon="10.506188">
        <ele>656.344516</ele>
        <time>2020-09-10T15:01:21.594Z</time>
      </trkpt>
      <trkpt lat="48.048148" lon="10.506328">
        <ele>656.354571</ele>
        <time>2020-09-10T15:01:23.601Z</time>
      </trkpt>
      <trkpt lat="48.048165" lon="10.506462">
        <ele>656.364150</ele>
        <time>2020-09-10T15:01:25.591Z</time>
      </trkpt>
      <trkpt lat="48.048173" lon="10.506602">
        <ele>656.377528</ele>
        <time>2020-09-10T15:01:27.594Z</time>
      </trkpt>
      <trkpt lat="48.048177" lon="10.506741">
        <ele>656.492959</ele>
        <time>2020-09-10T15:01:29.600Z</time>
      </trkpt>
      <trkpt lat="48.048171" lon="10.506940">
        <ele>656.658230</ele>
        <time>2020-09-10T15:01:32.595Z</time>
      </trkpt>
      <trkpt lat="48.048167" lon="10.507124">
        <ele>656.810969</ele>
        <time>2020-09-10T15:01:35.594Z</time>
      </trkpt>
      <trkpt lat="48.048168" lon="10.507316">
        <ele>656.970270</ele>
        <time>2020-09-10T15:01:38.598Z</time>
      </trkpt>
      <trkpt lat="48.048159" lon="10.507455">
        <ele>657.086133</ele>
        <time>2020-09-10T15:01:40.607Z</time>
      </trkpt>
      <trkpt lat="48.048159" lon="10.507602">
        <ele>657.208094</ele>
        <time>2020-09-10T15:01:42.603Z</time>
      </trkpt>
      <trkpt lat="48.048154" lon="10.507743">
        <ele>657.325242</ele>
        <time>2020-09-10T15:01:44.592Z</time>
      </trkpt>
      <trkpt lat="48.048139" lon="10.507893">
        <ele>657.451076</ele>
        <time>2020-09-10T15:01:48.591Z</time>
      </trkpt>
      <trkpt lat="48.048130" lon="10.508054">
        <ele>657.585119</ele>
        <time>2020-09-10T15:02:50.587Z</time>
      </trkpt>
      <trkpt lat="48.048132" lon="10.508205">
        <ele>657.710423</ele>
        <time>2020-09-10T15:02:53.595Z</time>
      </trkpt>
      <trkpt lat="48.048155" lon="10.508389">
        <ele>657.865727</ele>
        <time>2020-09-10T15:02:56.593Z</time>
      </trkpt>
      <trkpt lat="48.048176" lon="10.508593">
        <ele>658.036974</ele>
        <time>2020-09-10T15:02:59.598Z</time>
      </trkpt>
      <trkpt lat="48.048183" lon="10.508746">
        <ele>658.164210</ele>
        <time>2020-09-10T15:03:01.612Z</time>
      </trkpt>
      <trkpt lat="48.048182" lon="10.508908">
        <ele>658.298622</ele>
        <time>2020-09-10T15:03:03.597Z</time>
      </trkpt>
      <trkpt lat="48.048184" lon="10.509058">
        <ele>658.423096</ele>
        <time>2020-09-10T15:03:05.596Z</time>
      </trkpt>
      <trkpt lat="48.048192" lon="10.509212">
        <ele>658.551250</ele>
        <time>2020-09-10T15:03:07.600Z</time>
      </trkpt>
      <trkpt lat="48.048197" lon="10.509369">
        <ele>658.529322</ele>
        <time>2020-09-10T15:03:09.601Z</time>
      </trkpt>
      <trkpt lat="48.048203" lon="10.509521">
        <ele>658.401465</ele>
        <time>2020-09-10T15:03:11.596Z</time>
      </trkpt>
      <trkpt lat="48.048208" lon="10.509665">
        <ele>658.280384</ele>
        <time>2020-09-10T15:03:13.598Z</time>
      </trkpt>
      <trkpt lat="48.048209" lon="10.509814">
        <ele>658.155262</ele>
        <time>2020-09-10T15:03:15.590Z</time>
      </trkpt>
      <trkpt lat="48.048208" lon="10.509968">
        <ele>658.025941</ele>
        <time>2020-09-10T15:03:17.596Z</time>
      </trkpt>
      <trkpt lat="48.048200" lon="10.510111">
        <ele>657.905443</ele>
        <time>2020-09-10T15:03:19.592Z</time>
      </trkpt>
      <trkpt lat="48.048194" lon="10.510254">
        <ele>657.785129</ele>
        <time>2020-09-10T15:03:21.589Z</time>
      </trkpt>
      <trkpt lat="48.048184" lon="10.510398">
        <ele>657.663561</ele>
        <time>2020-09-10T15:03:23.594Z</time>
      </trkpt>
      <trkpt lat="48.048163" lon="10.510551">
        <ele>657.532406</ele>
        <time>2020-09-10T15:03:25.592Z</time>
      </trkpt>
      <trkpt lat="48.048139" lon="10.510714">
        <ele>657.392253</ele>
        <time>2020-09-10T15:03:27.591Z</time>
      </trkpt>
      <trkpt lat="48.048118" lon="10.510884">
        <ele>657.247087</ele>
        <time>2020-09-10T15:03:29.594Z</time>
      </trkpt>
      <trkpt lat="48.048098" lon="10.511048">
        <ele>657.107102</ele>
        <time>2020-09-10T15:03:31.595Z</time>
      </trkpt>
      <trkpt lat="48.048079" lon="10.511200">
        <ele>656.977255</ele>
        <time>2020-09-10T15:03:33.603Z</time>
      </trkpt>
      <trkpt lat="48.048055" lon="10.511345">
        <ele>656.851821</ele>
        <time>2020-09-10T15:03:35.596Z</time>
      </trkpt>
      <trkpt lat="48.048024" lon="10.511498">
        <ele>656.717574</ele>
        <time>2020-09-10T15:03:37.591Z</time>
      </trkpt>
      <trkpt lat="48.047999" lon="10.511654">
        <ele>656.582868</ele>
        <time>2020-09-10T15:03:39.598Z</time>
      </trkpt>
      <trkpt lat="48.047975" lon="10.511806">
        <ele>656.451721</ele>
        <time>2020-09-10T15:03:41.594Z</time>
      </trkpt>
      <trkpt lat="48.047957" lon="10.511943">
        <ele>656.354672</ele>
        <time>2020-09-10T15:03:43.592Z</time>
      </trkpt>
      <trkpt lat="48.047937" lon="10.512088">
        <ele>656.436074</ele>
        <time>2020-09-10T15:03:45.599Z</time>
      </trkpt>
      <trkpt lat="48.047913" lon="10.512242">
        <ele>656.523015</ele>
        <time>2020-09-10T15:03:47.596Z</time>
      </trkpt>
      <trkpt lat="48.047887" lon="10.512399">
        <ele>656.611944</ele>
        <time>2020-09-10T15:03:49.584Z</time>
      </trkpt>
      <trkpt lat="48.047859" lon="10.512555">
        <ele>656.700752</ele>
        <time>2020-09-10T15:03:51.595Z</time>
      </trkpt>
      <trkpt lat="48.047837" lon="10.512700">
        <ele>656.782502</ele>
        <time>2020-09-10T15:03:53.593Z</time>
      </trkpt>
      <trkpt lat="48.047807" lon="10.512845">
        <ele>656.865956</ele>
        <time>2020-09-10T15:03:55.597Z</time>
      </trkpt>
      <trkpt lat="48.047792" lon="10.512989">
        <ele>656.946084</ele>
        <time>2020-09-10T15:03:57.596Z</time>
      </trkpt>
      <trkpt lat="48.047775" lon="10.513181">
        <ele>657.052570</ele>
        <time>2020-09-10T15:04:00.592Z</time>
      </trkpt>
      <trkpt lat="48.047747" lon="10.513379">
        <ele>657.163841</ele>
        <time>2020-09-10T15:04:03.592Z</time>
      </trkpt>
      <trkpt lat="48.047721" lon="10.513519">
        <ele>657.243730</ele>
        <time>2020-09-10T15:04:05.593Z</time>
      </trkpt>
      <trkpt lat="48.047692" lon="10.513670">
        <ele>657.330110</ele>
        <time>2020-09-10T15:04:07.594Z</time>
      </trkpt>
      <trkpt lat="48.047664" lon="10.513812">
        <ele>657.411509</ele>
        <time>2020-09-10T15:04:09.578Z</time>
      </trkpt>
      <trkpt lat="48.047637" lon="10.513950">
        <ele>657.490566</ele>
        <time>2020-09-10T15:04:11.590Z</time>
      </trkpt>
      <trkpt lat="48.047612" lon="10.514082">
        <ele>657.565997</ele>
        <time>2020-09-10T15:04:13.594Z</time>
      </trkpt>
      <trkpt lat="48.047583" lon="10.514219">
        <ele>657.645008</ele>
        <time>2020-09-10T15:04:15.590Z</time>
      </trkpt>
      <trkpt lat="48.047554" lon="10.514367">
        <ele>657.729803</ele>
        <time>2020-09-10T15:04:17.592Z</time>
      </trkpt>
      <trkpt lat="48.047525" lon="10.514509">
        <ele>657.811439</ele>
        <time>2020-09-10T15:04:19.592Z</time>
      </trkpt>
      <trkpt lat="48.047496" lon="10.514643">
        <ele>657.835493</ele>
        <time>2020-09-10T15:04:21.592Z</time>
      </trkpt>
      <trkpt lat="48.047454" lon="10.514785">
        <ele>657.848424</ele>
        <time>2020-09-10T15:04:23.596Z</time>
      </trkpt>
      <trkpt lat="48.047409" lon="10.514939">
        <ele>657.862421</ele>
        <time>2020-09-10T15:04:25.600Z</time>
      </trkpt>
      <trkpt lat="48.047370" lon="10.515090">
        <ele>657.875902</ele>
        <time>2020-09-10T15:04:27.592Z</time>
      </trkpt>
      <trkpt lat="48.047331" lon="10.515251">
        <ele>657.890163</ele>
        <time>2020-09-10T15:04:29.589Z</time>
      </trkpt>
      <trkpt lat="48.047296" lon="10.515397">
        <ele>657.903080</ele>
        <time>2020-09-10T15:04:31.593Z</time>
      </trkpt>
      <trkpt lat="48.047257" lon="10.515552">
        <ele>657.916872</ele>
        <time>2020-09-10T15:04:33.595Z</time>
      </trkpt>
      <trkpt lat="48.047223" lon="10.515704">
        <ele>657.930220</ele>
        <time>2020-09-10T15:04:35.596Z</time>
      </trkpt>
      <trkpt lat="48.047188" lon="10.515862">
        <ele>657.944082</ele>
        <time>2020-09-10T15:04:37.596Z</time>
      </trkpt>
      <trkpt lat="48.047151" lon="10.516025">
        <ele>657.958418</ele>
        <time>2020-09-10T15:04:39.587Z</time>
      </trkpt>
      <trkpt lat="48.047116" lon="10.516188">
        <ele>657.972675</ele>
        <time>2020-09-10T15:04:41.595Z</time>
      </trkpt>
      <trkpt lat="48.047080" lon="10.516348">
        <ele>657.986734</ele>
        <time>2020-09-10T15:04:43.591Z</time>
      </trkpt>
      <trkpt lat="48.047053" lon="10.516504">
        <ele>658.000154</ele>
        <time>2020-09-10T15:04:45.591Z</time>
      </trkpt>
      <trkpt lat="48.047021" lon="10.516659">
        <ele>658.013664</ele>
        <time>2020-09-10T15:04:47.589Z</time>
      </trkpt>
      <trkpt lat="48.046989" lon="10.516810">
        <ele>658.026856</ele>
        <time>2020-09-10T15:04:49.591Z</time>
      </trkpt>
      <trkpt lat="48.046963" lon="10.516971">
        <ele>658.040650</ele>
        <time>2020-09-10T15:04:51.601Z</time>
      </trkpt>
      <trkpt lat="48.046938" lon="10.517124">
        <ele>658.154018</ele>
        <time>2020-09-10T15:04:53.590Z</time>
      </trkpt>
      <trkpt lat="48.046919" lon="10.517282">
        <ele>658.525666</ele>
        <time>2020-09-10T15:04:55.590Z</time>
      </trkpt>
      <trkpt lat="48.046901" lon="10.517436">
        <ele>658.887591</ele>
        <time>2020-09-10T15:04:57.594Z</time>
      </trkpt>
      <trkpt lat="48.046884" lon="10.517588">
        <ele>659.244369</ele>
        <time>2020-09-10T15:04:59.593Z</time>
      </trkpt>
      <trkpt lat="48.046868" lon="10.517736">
        <ele>659.591447</ele>
        <time>2020-09-10T15:05:01.591Z</time>
      </trkpt>
      <trkpt lat="48.046856" lon="10.517885">
        <ele>659.938883</ele>
        <time>2020-09-10T15:05:03.593Z</time>
      </trkpt>
      <trkpt lat="48.046841" lon="10.518027">
        <ele>660.271699</ele>
        <time>2020-09-10T15:05:05.590Z</time>
      </trkpt>
      <trkpt lat="48.046830" lon="10.518174">
        <ele>660.614136</ele>
        <time>2020-09-10T15:05:07.591Z</time>
      </trkpt>
      <trkpt lat="48.046818" lon="10.518317">
        <ele>660.947786</ele>
        <time>2020-09-10T15:05:09.591Z</time>
      </trkpt>
      <trkpt lat="48.046805" lon="10.518512">
        <ele>661.401460</ele>
        <time>2020-09-10T15:05:12.591Z</time>
      </trkpt>
      <trkpt lat="48.046798" lon="10.518691">
        <ele>661.816563</ele>
        <time>2020-09-10T15:05:15.579Z</time>
      </trkpt>
      <trkpt lat="48.046791" lon="10.518853">
        <ele>662.192384</ele>
        <time>2020-09-10T15:05:18.592Z</time>
      </trkpt>
      <trkpt lat="48.046784" lon="10.519012">
        <ele>662.561274</ele>
        <time>2020-09-10T15:05:21.592Z</time>
      </trkpt>
      <trkpt lat="48.046783" lon="10.519166">
        <ele>662.917809</ele>
        <time>2020-09-10T15:05:24.578Z</time>
      </trkpt>
      <trkpt lat="48.046780" lon="10.519316">
        <ele>663.265222</ele>
        <time>2020-09-10T15:05:27.566Z</time>
      </trkpt>
      <trkpt lat="48.046783" lon="10.519491">
        <ele>663.670489</ele>
        <time>2020-09-10T15:05:30.593Z</time>
      </trkpt>
      <trkpt lat="48.046779" lon="10.519648">
        <ele>664.034216</ele>
        <time>2020-09-10T15:05:33.599Z</time>
      </trkpt>
      <trkpt lat="48.046772" lon="10.519785">
        <ele>664.433261</ele>
        <time>2020-09-10T15:05:36.589Z</time>
      </trkpt>
      <trkpt lat="48.046766" lon="10.519934">
        <ele>665.158434</ele>
        <time>2020-09-10T15:05:39.587Z</time>
      </trkpt>
      <trkpt lat="48.046760" lon="10.520086">
        <ele>665.898155</ele>
        <time>2020-09-10T15:05:42.588Z</time>
      </trkpt>
      <trkpt lat="48.046754" lon="10.520230">
        <ele>666.599083</ele>
        <time>2020-09-10T15:05:45.589Z</time>
      </trkpt>
      <trkpt lat="48.046754" lon="10.520368">
        <ele>667.269505</ele>
        <time>2020-09-10T15:05:48.576Z</time>
      </trkpt>
      <trkpt lat="48.046749" lon="10.520543">
        <ele>668.120453</ele>
        <time>2020-09-10T15:05:52.599Z</time>
      </trkpt>
      <trkpt lat="48.046744" lon="10.520702">
        <ele>668.893750</ele>
        <time>2020-09-10T15:05:56.595Z</time>
      </trkpt>
      <trkpt lat="48.046734" lon="10.520872">
        <ele>669.722823</ele>
        <time>2020-09-10T15:06:00.591Z</time>
      </trkpt>
      <trkpt lat="48.046731" lon="10.521045">
        <ele>670.563562</ele>
        <time>2020-09-10T15:06:04.600Z</time>
      </trkpt>
      <trkpt lat="48.046726" lon="10.521220">
        <ele>671.414511</ele>
        <time>2020-09-10T15:06:08.592Z</time>
      </trkpt>
      <trkpt lat="48.046712" lon="10.521364">
        <ele>672.121441</ele>
        <time>2020-09-10T15:06:12.589Z</time>
      </trkpt>
      <trkpt lat="48.046703" lon="10.521533">
        <ele>672.945066</ele>
        <time>2020-09-10T15:06:16.601Z</time>
      </trkpt>
      <trkpt lat="48.046707" lon="10.521673">
        <ele>673.625826</ele>
        <time>2020-09-10T15:06:19.593Z</time>
      </trkpt>
      <trkpt lat="48.046711" lon="10.521825">
        <ele>674.364834</ele>
        <time>2020-09-10T15:06:23.596Z</time>
      </trkpt>
      <trkpt lat="48.046702" lon="10.521998">
        <ele>675.207831</ele>
        <time>2020-09-10T15:06:27.586Z</time>
      </trkpt>
      <trkpt lat="48.046690" lon="10.522160">
        <ele>675.999666</ele>
        <time>2020-09-10T15:06:31.587Z</time>
      </trkpt>
      <trkpt lat="48.046677" lon="10.522337">
        <ele>676.864729</ele>
        <time>2020-09-10T15:06:35.591Z</time>
      </trkpt>
      <trkpt lat="48.046668" lon="10.522493">
        <ele>677.658868</ele>
        <time>2020-09-10T15:06:39.594Z</time>
      </trkpt>
      <trkpt lat="48.046660" lon="10.522645">
        <ele>678.489317</ele>
        <time>2020-09-10T15:06:43.601Z</time>
      </trkpt>
      <trkpt lat="48.046656" lon="10.522817">
        <ele>679.426703</ele>
        <time>2020-09-10T15:06:47.593Z</time>
      </trkpt>
      <trkpt lat="48.046652" lon="10.522996">
        <ele>680.402193</ele>
        <time>2020-09-10T15:06:51.597Z</time>
      </trkpt>
      <trkpt lat="48.046647" lon="10.523164">
        <ele>681.318132</ele>
        <time>2020-09-10T15:06:55.591Z</time>
      </trkpt>
      <trkpt lat="48.046648" lon="10.523311">
        <ele>682.118828</ele>
        <time>2020-09-10T15:06:59.591Z</time>
      </trkpt>
      <trkpt lat="48.046633" lon="10.523463">
        <ele>682.955686</ele>
        <time>2020-09-10T15:07:03.584Z</time>
      </trkpt>
      <trkpt lat="48.046625" lon="10.523635">
        <ele>683.894771</ele>
        <time>2020-09-10T15:07:07.591Z</time>
      </trkpt>
      <trkpt lat="48.046613" lon="10.523775">
        <ele>684.663541</ele>
        <time>2020-09-10T15:07:11.598Z</time>
      </trkpt>
      <trkpt lat="48.046600" lon="10.523923">
        <ele>685.476570</ele>
        <time>2020-09-10T15:07:15.596Z</time>
      </trkpt>
      <trkpt lat="48.046586" lon="10.524091">
        <ele>686.398686</ele>
        <time>2020-09-10T15:07:20.593Z</time>
      </trkpt>
      <trkpt lat="48.046563" lon="10.524237">
        <ele>687.215674</ele>
        <time>2020-09-10T15:07:24.572Z</time>
      </trkpt>
      <trkpt lat="48.046553" lon="10.524377">
        <ele>687.982543</ele>
        <time>2020-09-10T15:07:28.589Z</time>
      </trkpt>
      <trkpt lat="48.046534" lon="10.524513">
        <ele>688.739287</ele>
        <time>2020-09-10T15:07:32.589Z</time>
      </trkpt>
      <trkpt lat="48.046529" lon="10.524667">
        <ele>689.579058</ele>
        <time>2020-09-10T15:07:36.586Z</time>
      </trkpt>
      <trkpt lat="48.046525" lon="10.524808">
        <ele>690.347725</ele>
        <time>2020-09-10T15:07:40.594Z</time>
      </trkpt>
      <trkpt lat="48.046515" lon="10.524959">
        <ele>691.174193</ele>
        <time>2020-09-10T15:07:44.594Z</time>
      </trkpt>
      <trkpt lat="48.046499" lon="10.525101">
        <ele>691.958524</ele>
        <time>2020-09-10T15:07:48.564Z</time>
      </trkpt>
      <trkpt lat="48.046483" lon="10.525258">
        <ele>692.868624</ele>
        <time>2020-09-10T15:07:52.593Z</time>
      </trkpt>
      <trkpt lat="48.046467" lon="10.525393">
        <ele>693.656441</ele>
        <time>2020-09-10T15:07:55.596Z</time>
      </trkpt>
      <trkpt lat="48.046459" lon="10.525556">
        <ele>694.595573</ele>
        <time>2020-09-10T15:07:59.590Z</time>
      </trkpt>
      <trkpt lat="48.046449" lon="10.525721">
        <ele>695.547564</ele>
        <time>2020-09-10T15:08:03.570Z</time>
      </trkpt>
      <trkpt lat="48.046447" lon="10.525867">
        <ele>696.386669</ele>
        <time>2020-09-10T15:08:07.598Z</time>
      </trkpt>
      <trkpt lat="48.046438" lon="10.526012">
        <ele>697.223434</ele>
        <time>2020-09-10T15:08:11.587Z</time>
      </trkpt>
      <trkpt lat="48.046424" lon="10.526148">
        <ele>698.014112</ele>
        <time>2020-09-10T15:08:15.585Z</time>
      </trkpt>
      <trkpt lat="48.046412" lon="10.526298">
        <ele>698.882174</ele>
        <time>2020-09-10T15:08:19.588Z</time>
      </trkpt>
      <trkpt lat="48.046394" lon="10.526431">
        <ele>699.661907</ele>
        <time>2020-09-10T15:08:23.594Z</time>
      </trkpt>
      <trkpt lat="48.046371" lon="10.526586">
        <ele>700.574227</ele>
        <time>2020-09-10T15:08:27.590Z</time>
      </trkpt>
      <trkpt lat="48.046358" lon="10.526737">
        <ele>701.449052</ele>
        <time>2020-09-10T15:08:31.582Z</time>
      </trkpt>
      <trkpt lat="48.046349" lon="10.526890">
        <ele>702.331601</ele>
        <time>2020-09-10T15:08:35.595Z</time>
      </trkpt>
      <trkpt lat="48.046335" lon="10.527030">
        <ele>703.145004</ele>
        <time>2020-09-10T15:08:39.589Z</time>
      </trkpt>
      <trkpt lat="48.046326" lon="10.527191">
        <ele>704.073354</ele>
        <time>2020-09-10T15:08:43.590Z</time>
      </trkpt>
      <trkpt lat="48.046314" lon="10.527348">
        <ele>704.981368</ele>
        <time>2020-09-10T15:08:47.590Z</time>
      </trkpt>
      <trkpt lat="48.046302" lon="10.527518">
        <ele>705.963635</ele>
        <time>2020-09-10T15:08:51.593Z</time>
      </trkpt>
      <trkpt lat="48.046295" lon="10.527658">
        <ele>706.770336</ele>
        <time>2020-09-10T15:08:54.598Z</time>
      </trkpt>
      <trkpt lat="48.046279" lon="10.527804">
        <ele>707.546432</ele>
        <time>2020-09-10T15:08:57.573Z</time>
      </trkpt>
      <trkpt lat="48.046267" lon="10.527954">
        <ele>708.006980</ele>
        <time>2020-09-10T15:09:00.588Z</time>
      </trkpt>
      <trkpt lat="48.046256" lon="10.528105">
        <ele>708.470039</ele>
        <time>2020-09-10T15:09:03.586Z</time>
      </trkpt>
      <trkpt lat="48.046251" lon="10.528264">
        <ele>708.955298</ele>
        <time>2020-09-10T15:09:06.565Z</time>
      </trkpt>
      <trkpt lat="48.046218" lon="10.528442">
        <ele>709.518423</ele>
        <time>2020-09-10T15:09:09.583Z</time>
      </trkpt>
      <trkpt lat="48.046207" lon="10.528631">
        <ele>710.096783</ele>
        <time>2020-09-10T15:09:12.585Z</time>
      </trkpt>
      <trkpt lat="48.046200" lon="10.528793">
        <ele>710.591683</ele>
        <time>2020-09-10T15:09:15.592Z</time>
      </trkpt>
      <trkpt lat="48.046188" lon="10.528938">
        <ele>711.037100</ele>
        <time>2020-09-10T15:09:18.591Z</time>
      </trkpt>
      <trkpt lat="48.046170" lon="10.529094">
        <ele>711.519710</ele>
        <time>2020-09-10T15:09:21.595Z</time>
      </trkpt>
      <trkpt lat="48.046153" lon="10.529259">
        <ele>712.028664</ele>
        <time>2020-09-10T15:09:24.599Z</time>
      </trkpt>
      <trkpt lat="48.046132" lon="10.529446">
        <ele>712.606735</ele>
        <time>2020-09-10T15:09:27.597Z</time>
      </trkpt>
      <trkpt lat="48.046124" lon="10.529624">
        <ele>713.150607</ele>
        <time>2020-09-10T15:09:30.587Z</time>
      </trkpt>
      <trkpt lat="48.046115" lon="10.529803">
        <ele>713.697844</ele>
        <time>2020-09-10T15:09:33.591Z</time>
      </trkpt>
      <trkpt lat="48.046107" lon="10.529941">
        <ele>714.120127</ele>
        <time>2020-09-10T15:09:35.597Z</time>
      </trkpt>
      <trkpt lat="48.046094" lon="10.530123">
        <ele>714.678127</ele>
        <time>2020-09-10T15:09:38.601Z</time>
      </trkpt>
      <trkpt lat="48.046088" lon="10.530261">
        <ele>715.099720</ele>
        <time>2020-09-10T15:09:40.609Z</time>
      </trkpt>
      <trkpt lat="48.046080" lon="10.530408">
        <ele>715.549344</ele>
        <time>2020-09-10T15:09:42.590Z</time>
      </trkpt>
      <trkpt lat="48.046069" lon="10.530546">
        <ele>715.635197</ele>
        <time>2020-09-10T15:09:44.586Z</time>
      </trkpt>
      <trkpt lat="48.046065" lon="10.530743">
        <ele>715.577540</ele>
        <time>2020-09-10T15:09:47.585Z</time>
      </trkpt>
      <trkpt lat="48.046061" lon="10.530938">
        <ele>715.520469</ele>
        <time>2020-09-10T15:09:50.586Z</time>
      </trkpt>
      <trkpt lat="48.046047" lon="10.531131">
        <ele>715.463678</ele>
        <time>2020-09-10T15:09:53.595Z</time>
      </trkpt>
      <trkpt lat="48.046026" lon="10.531321">
        <ele>715.407341</ele>
        <time>2020-09-10T15:09:56.586Z</time>
      </trkpt>
      <trkpt lat="48.046006" lon="10.531454">
        <ele>715.367461</ele>
        <time>2020-09-10T15:09:58.589Z</time>
      </trkpt>
      <trkpt lat="48.045989" lon="10.531649">
        <ele>715.309934</ele>
        <time>2020-09-10T15:10:01.591Z</time>
      </trkpt>
      <trkpt lat="48.045976" lon="10.531784">
        <ele>715.270033</ele>
        <time>2020-09-10T15:10:03.590Z</time>
      </trkpt>
      <trkpt lat="48.045960" lon="10.531978">
        <ele>715.212851</ele>
        <time>2020-09-10T15:10:06.586Z</time>
      </trkpt>
      <trkpt lat="48.045949" lon="10.532128">
        <ele>715.168707</ele>
        <time>2020-09-10T15:10:08.593Z</time>
      </trkpt>
      <trkpt lat="48.045935" lon="10.532269">
        <ele>715.127007</ele>
        <time>2020-09-10T15:10:10.591Z</time>
      </trkpt>
      <trkpt lat="48.045921" lon="10.532407">
        <ele>715.086174</ele>
        <time>2020-09-10T15:10:12.597Z</time>
      </trkpt>
      <trkpt lat="48.045906" lon="10.532605">
        <ele>715.027881</ele>
        <time>2020-09-10T15:10:15.591Z</time>
      </trkpt>
      <trkpt lat="48.045900" lon="10.532750">
        <ele>714.985382</ele>
        <time>2020-09-10T15:10:17.591Z</time>
      </trkpt>
      <trkpt lat="48.045894" lon="10.532895">
        <ele>714.942883</ele>
        <time>2020-09-10T15:10:19.592Z</time>
      </trkpt>
      <trkpt lat="48.045887" lon="10.533046">
        <ele>714.898604</ele>
        <time>2020-09-10T15:10:21.585Z</time>
      </trkpt>
      <trkpt lat="48.045881" lon="10.533208">
        <ele>714.783966</ele>
        <time>2020-09-10T15:10:23.605Z</time>
      </trkpt>
      <trkpt lat="48.045860" lon="10.533384">
        <ele>714.599515</ele>
        <time>2020-09-10T15:10:25.583Z</time>
      </trkpt>
      <trkpt lat="48.045845" lon="10.533576">
        <ele>714.400078</ele>
        <time>2020-09-10T15:10:27.582Z</time>
      </trkpt>
      <trkpt lat="48.045835" lon="10.533760">
        <ele>714.209616</ele>
        <time>2020-09-10T15:10:29.586Z</time>
      </trkpt>
      <trkpt lat="48.045820" lon="10.533934">
        <ele>714.028612</ele>
        <time>2020-09-10T15:10:31.584Z</time>
      </trkpt>
      <trkpt lat="48.045802" lon="10.534109">
        <ele>713.845937</ele>
        <time>2020-09-10T15:10:33.593Z</time>
      </trkpt>
      <trkpt lat="48.045790" lon="10.534280">
        <ele>713.668544</ele>
        <time>2020-09-10T15:10:35.585Z</time>
      </trkpt>
      <trkpt lat="48.045767" lon="10.534450">
        <ele>713.489597</ele>
        <time>2020-09-10T15:10:37.592Z</time>
      </trkpt>
      <trkpt lat="48.045740" lon="10.534627">
        <ele>713.302290</ele>
        <time>2020-09-10T15:10:39.596Z</time>
      </trkpt>
      <trkpt lat="48.045727" lon="10.534818">
        <ele>713.104214</ele>
        <time>2020-09-10T15:10:41.584Z</time>
      </trkpt>
      <trkpt lat="48.045712" lon="10.535014">
        <ele>712.900676</ele>
        <time>2020-09-10T15:10:43.593Z</time>
      </trkpt>
      <trkpt lat="48.045699" lon="10.535210">
        <ele>712.697467</ele>
        <time>2020-09-10T15:10:45.588Z</time>
      </trkpt>
      <trkpt lat="48.045684" lon="10.535403">
        <ele>712.497005</ele>
        <time>2020-09-10T15:10:47.589Z</time>
      </trkpt>
      <trkpt lat="48.045672" lon="10.535603">
        <ele>712.289832</ele>
        <time>2020-09-10T15:10:49.586Z</time>
      </trkpt>
      <trkpt lat="48.045657" lon="10.535793">
        <ele>712.093431</ele>
        <time>2020-09-10T15:10:51.590Z</time>
      </trkpt>
      <trkpt lat="48.045641" lon="10.535972">
        <ele>711.926415</ele>
        <time>2020-09-10T15:10:53.591Z</time>
      </trkpt>
      <trkpt lat="48.045625" lon="10.536166">
        <ele>711.745640</ele>
        <time>2020-09-10T15:10:55.592Z</time>
      </trkpt>
      <trkpt lat="48.045610" lon="10.536351">
        <ele>711.573294</ele>
        <time>2020-09-10T15:10:57.576Z</time>
      </trkpt>
      <trkpt lat="48.045586" lon="10.536530">
        <ele>711.404455</ele>
        <time>2020-09-10T15:10:59.568Z</time>
      </trkpt>
      <trkpt lat="48.045572" lon="10.536699">
        <ele>711.246964</ele>
        <time>2020-09-10T15:11:01.583Z</time>
      </trkpt>
      <trkpt lat="48.045555" lon="10.536859">
        <ele>711.097136</ele>
        <time>2020-09-10T15:11:03.591Z</time>
      </trkpt>
      <trkpt lat="48.045536" lon="10.537019">
        <ele>710.946848</ele>
        <time>2020-09-10T15:11:05.582Z</time>
      </trkpt>
      <trkpt lat="48.045515" lon="10.537195">
        <ele>710.781507</ele>
        <time>2020-09-10T15:11:07.580Z</time>
      </trkpt>
      <trkpt lat="48.045489" lon="10.537379">
        <ele>710.607580</ele>
        <time>2020-09-10T15:11:09.577Z</time>
      </trkpt>
      <trkpt lat="48.045474" lon="10.537567">
        <ele>710.432479</ele>
        <time>2020-09-10T15:11:11.590Z</time>
      </trkpt>
      <trkpt lat="48.045467" lon="10.537750">
        <ele>710.262960</ele>
        <time>2020-09-10T15:11:13.597Z</time>
      </trkpt>
      <trkpt lat="48.045450" lon="10.537926">
        <ele>710.098501</ele>
        <time>2020-09-10T15:11:15.591Z</time>
      </trkpt>
      <trkpt lat="48.045418" lon="10.538084">
        <ele>709.945820</ele>
        <time>2020-09-10T15:11:17.566Z</time>
      </trkpt>
      <trkpt lat="48.045351" lon="10.538216">
        <ele>709.792545</ele>
        <time>2020-09-10T15:11:19.563Z</time>
      </trkpt>
      <trkpt lat="48.045285" lon="10.538348">
        <ele>709.640103</ele>
        <time>2020-09-10T15:11:21.593Z</time>
      </trkpt>
      <trkpt lat="48.045248" lon="10.538494">
        <ele>709.553659</ele>
        <time>2020-09-10T15:11:23.569Z</time>
      </trkpt>
      <trkpt lat="48.045218" lon="10.538661">
        <ele>709.472199</ele>
        <time>2020-09-10T15:11:25.574Z</time>
      </trkpt>
      <trkpt lat="48.045186" lon="10.538813">
        <ele>709.397129</ele>
        <time>2020-09-10T15:11:27.569Z</time>
      </trkpt>
      <trkpt lat="48.045149" lon="10.538990">
        <ele>709.309767</ele>
        <time>2020-09-10T15:11:29.604Z</time>
      </trkpt>
      <trkpt lat="48.045116" lon="10.539169">
        <ele>709.222297</ele>
        <time>2020-09-10T15:11:31.583Z</time>
      </trkpt>
      <trkpt lat="48.045101" lon="10.539347">
        <ele>709.137781</ele>
        <time>2020-09-10T15:11:33.569Z</time>
      </trkpt>
      <trkpt lat="48.045066" lon="10.539528">
        <ele>709.049021</ele>
        <time>2020-09-10T15:11:35.591Z</time>
      </trkpt>
      <trkpt lat="48.045024" lon="10.539702">
        <ele>708.961874</ele>
        <time>2020-09-10T15:11:37.587Z</time>
      </trkpt>
      <trkpt lat="48.044970" lon="10.539858">
        <ele>708.879119</ele>
        <time>2020-09-10T15:11:39.588Z</time>
      </trkpt>
      <trkpt lat="48.044905" lon="10.540029">
        <ele>708.786454</ele>
        <time>2020-09-10T15:11:41.562Z</time>
      </trkpt>
      <trkpt lat="48.044815" lon="10.540203">
        <ele>708.682818</ele>
        <time>2020-09-10T15:11:43.558Z</time>
      </trkpt>
      <trkpt lat="48.044743" lon="10.540373">
        <ele>708.588017</ele>
        <time>2020-09-10T15:11:45.596Z</time>
      </trkpt>
      <trkpt lat="48.044681" lon="10.540548">
        <ele>708.494717</ele>
        <time>2020-09-10T15:11:47.579Z</time>
      </trkpt>
      <trkpt lat="48.044624" lon="10.540737">
        <ele>708.397043</ele>
        <time>2020-09-10T15:11:49.587Z</time>
      </trkpt>
      <trkpt lat="48.044576" lon="10.540939">
        <ele>708.216615</ele>
        <time>2020-09-10T15:11:51.594Z</time>
      </trkpt>
      <trkpt lat="48.044521" lon="10.541134">
        <ele>707.959759</ele>
        <time>2020-09-10T15:11:53.589Z</time>
      </trkpt>
      <trkpt lat="48.044482" lon="10.541328">
        <ele>707.713901</ele>
        <time>2020-09-10T15:11:55.599Z</time>
      </trkpt>
      <trkpt lat="48.044441" lon="10.541507">
        <ele>707.484266</ele>
        <time>2020-09-10T15:11:57.592Z</time>
      </trkpt>
      <trkpt lat="48.044386" lon="10.541696">
        <ele>707.234102</ele>
        <time>2020-09-10T15:11:59.590Z</time>
      </trkpt>
      <trkpt lat="48.044335" lon="10.541882">
        <ele>706.990119</ele>
        <time>2020-09-10T15:12:01.587Z</time>
      </trkpt>
      <trkpt lat="48.044285" lon="10.542075">
        <ele>706.738917</ele>
        <time>2020-09-10T15:12:03.586Z</time>
      </trkpt>
      <trkpt lat="48.044234" lon="10.542258">
        <ele>706.498298</ele>
        <time>2020-09-10T15:12:05.586Z</time>
      </trkpt>
      <trkpt lat="48.044183" lon="10.542430">
        <ele>706.269944</ele>
        <time>2020-09-10T15:12:07.594Z</time>
      </trkpt>
      <trkpt lat="48.044126" lon="10.542606">
        <ele>706.032601</ele>
        <time>2020-09-10T15:12:09.589Z</time>
      </trkpt>
      <trkpt lat="48.044055" lon="10.542795">
        <ele>705.769493</ele>
        <time>2020-09-10T15:12:11.587Z</time>
      </trkpt>
      <trkpt lat="48.043997" lon="10.542978">
        <ele>705.523704</ele>
        <time>2020-09-10T15:12:13.582Z</time>
      </trkpt>
      <trkpt lat="48.043953" lon="10.543173">
        <ele>705.273929</ele>
        <time>2020-09-10T15:12:15.589Z</time>
      </trkpt>
      <trkpt lat="48.043906" lon="10.543376">
        <ele>704.904162</ele>
        <time>2020-09-10T15:12:17.589Z</time>
      </trkpt>
      <trkpt lat="48.043874" lon="10.543612">
        <ele>704.144338</ele>
        <time>2020-09-10T15:12:19.584Z</time>
      </trkpt>
      <trkpt lat="48.043814" lon="10.543857">
        <ele>703.321044</ele>
        <time>2020-09-10T15:12:21.590Z</time>
      </trkpt>
      <trkpt lat="48.043768" lon="10.543978">
        <ele>702.881836</ele>
        <time>2020-09-10T15:12:22.588Z</time>
      </trkpt>
      <trkpt lat="48.043671" lon="10.544202">
        <ele>702.039725</ele>
        <time>2020-09-10T15:12:24.572Z</time>
      </trkpt>
      <trkpt lat="48.043576" lon="10.544429">
        <ele>701.194699</ele>
        <time>2020-09-10T15:12:26.579Z</time>
      </trkpt>
      <trkpt lat="48.043523" lon="10.544538">
        <ele>700.769421</ele>
        <time>2020-09-10T15:12:27.594Z</time>
      </trkpt>
      <trkpt lat="48.043467" lon="10.544649">
        <ele>700.330642</ele>
        <time>2020-09-10T15:12:28.576Z</time>
      </trkpt>
      <trkpt lat="48.043417" lon="10.544759">
        <ele>699.910929</ele>
        <time>2020-09-10T15:12:29.575Z</time>
      </trkpt>
      <trkpt lat="48.043323" lon="10.544990">
        <ele>699.057638</ele>
        <time>2020-09-10T15:12:31.584Z</time>
      </trkpt>
      <trkpt lat="48.043276" lon="10.545106">
        <ele>698.629643</ele>
        <time>2020-09-10T15:12:32.591Z</time>
      </trkpt>
      <trkpt lat="48.043183" lon="10.545340">
        <ele>697.770672</ele>
        <time>2020-09-10T15:12:34.585Z</time>
      </trkpt>
      <trkpt lat="48.043132" lon="10.545451">
        <ele>697.345688</ele>
        <time>2020-09-10T15:12:35.583Z</time>
      </trkpt>
      <trkpt lat="48.043050" lon="10.545640">
        <ele>696.634750</ele>
        <time>2020-09-10T15:12:37.583Z</time>
      </trkpt>
      <trkpt lat="48.042971" lon="10.545752">
        <ele>696.649625</ele>
        <time>2020-09-10T15:12:40.564Z</time>
      </trkpt>
      <trkpt lat="48.042914" lon="10.545875">
        <ele>696.706890</ele>
        <time>2020-09-10T15:12:44.583Z</time>
      </trkpt>
      <trkpt lat="48.042866" lon="10.546002">
        <ele>696.762713</ele>
        <time>2020-09-10T15:12:46.593Z</time>
      </trkpt>
      <trkpt lat="48.042781" lon="10.546145">
        <ele>696.835928</ele>
        <time>2020-09-10T15:12:48.589Z</time>
      </trkpt>
      <trkpt lat="48.042675" lon="10.546281">
        <ele>696.915856</ele>
        <time>2020-09-10T15:12:50.601Z</time>
      </trkpt>
      <trkpt lat="48.042575" lon="10.546429">
        <ele>696.996370</ele>
        <time>2020-09-10T15:12:52.587Z</time>
      </trkpt>
      <trkpt lat="48.042519" lon="10.546622">
        <ele>697.076875</ele>
        <time>2020-09-10T15:12:54.568Z</time>
      </trkpt>
      <trkpt lat="48.042532" lon="10.546816">
        <ele>697.151479</ele>
        <time>2020-09-10T15:12:56.583Z</time>
      </trkpt>
      <trkpt lat="48.042578" lon="10.546962">
        <ele>697.213237</ele>
        <time>2020-09-10T15:12:58.592Z</time>
      </trkpt>
      <trkpt lat="48.042657" lon="10.547073">
        <ele>697.275271</ele>
        <time>2020-09-10T15:13:00.581Z</time>
      </trkpt>
      <trkpt lat="48.042719" lon="10.547172">
        <ele>697.327176</ele>
        <time>2020-09-10T15:13:02.582Z</time>
      </trkpt>
      <trkpt lat="48.042778" lon="10.547303">
        <ele>697.387614</ele>
        <time>2020-09-10T15:13:04.572Z</time>
      </trkpt>
      <trkpt lat="48.042789" lon="10.547449">
        <ele>697.443833</ele>
        <time>2020-09-10T15:13:06.591Z</time>
      </trkpt>
      <trkpt lat="48.042752" lon="10.547583">
        <ele>697.499307</ele>
        <time>2020-09-10T15:13:08.580Z</time>
      </trkpt>
      <trkpt lat="48.042701" lon="10.547700">
        <ele>697.552751</ele>
        <time>2020-09-10T15:13:10.573Z</time>
      </trkpt>
      <trkpt lat="48.042638" lon="10.547847">
        <ele>697.619563</ele>
        <time>2020-09-10T15:13:13.584Z</time>
      </trkpt>
      <trkpt lat="48.042597" lon="10.548005">
        <ele>698.323398</ele>
        <time>2020-09-10T15:13:16.579Z</time>
      </trkpt>
      <trkpt lat="48.042572" lon="10.548153">
        <ele>698.978433</ele>
        <time>2020-09-10T15:13:19.570Z</time>
      </trkpt>
      <trkpt lat="48.042556" lon="10.548308">
        <ele>699.651430</ele>
        <time>2020-09-10T15:13:22.583Z</time>
      </trkpt>
      <trkpt lat="48.042544" lon="10.548467">
        <ele>700.338044</ele>
        <time>2020-09-10T15:13:25.583Z</time>
      </trkpt>
      <trkpt lat="48.042544" lon="10.548636">
        <ele>701.063236</ele>
        <time>2020-09-10T15:13:28.583Z</time>
      </trkpt>
      <trkpt lat="48.042540" lon="10.548815">
        <ele>701.831767</ele>
        <time>2020-09-10T15:13:31.582Z</time>
      </trkpt>
      <trkpt lat="48.042542" lon="10.548997">
        <ele>702.612848</ele>
        <time>2020-09-10T15:13:34.590Z</time>
      </trkpt>
      <trkpt lat="48.042540" lon="10.549178">
        <ele>703.389639</ele>
        <time>2020-09-10T15:13:37.590Z</time>
      </trkpt>
      <trkpt lat="48.042539" lon="10.549364">
        <ele>704.187804</ele>
        <time>2020-09-10T15:13:40.587Z</time>
      </trkpt>
      <trkpt lat="48.042537" lon="10.549553">
        <ele>704.998919</ele>
        <time>2020-09-10T15:13:43.587Z</time>
      </trkpt>
      <trkpt lat="48.042536" lon="10.549734">
        <ele>705.775630</ele>
        <time>2020-09-10T15:13:46.590Z</time>
      </trkpt>
      <trkpt lat="48.042549" lon="10.549905">
        <ele>706.514133</ele>
        <time>2020-09-10T15:13:49.571Z</time>
      </trkpt>
      <trkpt lat="48.042551" lon="10.550086">
        <ele>707.290923</ele>
        <time>2020-09-10T15:13:52.588Z</time>
      </trkpt>
      <trkpt lat="48.042547" lon="10.550223">
        <ele>707.879361</ele>
        <time>2020-09-10T15:13:54.579Z</time>
      </trkpt>
      <trkpt lat="48.042544" lon="10.550411">
        <ele>708.686312</ele>
        <time>2020-09-10T15:13:57.577Z</time>
      </trkpt>
      <trkpt lat="48.042535" lon="10.550555">
        <ele>709.176991</ele>
        <time>2020-09-10T15:13:59.582Z</time>
      </trkpt>
      <trkpt lat="48.042538" lon="10.550698">
        <ele>709.225200</ele>
        <time>2020-09-10T15:14:01.581Z</time>
      </trkpt>
      <trkpt lat="48.042546" lon="10.550843">
        <ele>709.274225</ele>
        <time>2020-09-10T15:14:03.582Z</time>
      </trkpt>
      <trkpt lat="48.042541" lon="10.550984">
        <ele>709.321804</ele>
        <time>2020-09-10T15:14:05.582Z</time>
      </trkpt>
      <trkpt lat="48.042546" lon="10.551139">
        <ele>709.374094</ele>
        <time>2020-09-10T15:14:07.590Z</time>
      </trkpt>
      <trkpt lat="48.042553" lon="10.551287">
        <ele>709.424089</ele>
        <time>2020-09-10T15:14:09.581Z</time>
      </trkpt>
      <trkpt lat="48.042571" lon="10.551451">
        <ele>709.480090</ele>
        <time>2020-09-10T15:14:11.587Z</time>
      </trkpt>
      <trkpt lat="48.042585" lon="10.551607">
        <ele>709.533127</ele>
        <time>2020-09-10T15:14:13.590Z</time>
      </trkpt>
      <trkpt lat="48.042589" lon="10.551763">
        <ele>709.585732</ele>
        <time>2020-09-10T15:14:15.586Z</time>
      </trkpt>
      <trkpt lat="48.042604" lon="10.551920">
        <ele>709.639172</ele>
        <time>2020-09-10T15:14:17.582Z</time>
      </trkpt>
      <trkpt lat="48.042615" lon="10.552069">
        <ele>709.689685</ele>
        <time>2020-09-10T15:14:19.584Z</time>
      </trkpt>
      <trkpt lat="48.042646" lon="10.552238">
        <ele>709.748735</ele>
        <time>2020-09-10T15:14:21.573Z</time>
      </trkpt>
      <trkpt lat="48.042675" lon="10.552419">
        <ele>709.811452</ele>
        <time>2020-09-10T15:14:23.585Z</time>
      </trkpt>
      <trkpt lat="48.042689" lon="10.552608">
        <ele>709.875528</ele>
        <time>2020-09-10T15:14:25.588Z</time>
      </trkpt>
      <trkpt lat="48.042711" lon="10.552802">
        <ele>709.941832</ele>
        <time>2020-09-10T15:14:27.590Z</time>
      </trkpt>
      <trkpt lat="48.042734" lon="10.552996">
        <ele>710.008222</ele>
        <time>2020-09-10T15:14:29.579Z</time>
      </trkpt>
      <trkpt lat="48.042752" lon="10.553187">
        <ele>710.070691</ele>
        <time>2020-09-10T15:14:31.592Z</time>
      </trkpt>
      <trkpt lat="48.042766" lon="10.553366">
        <ele>709.936806</ele>
        <time>2020-09-10T15:14:33.593Z</time>
      </trkpt>
      <trkpt lat="48.042769" lon="10.553550">
        <ele>709.800072</ele>
        <time>2020-09-10T15:14:35.605Z</time>
      </trkpt>
      <trkpt lat="48.042769" lon="10.553729">
        <ele>709.667094</ele>
        <time>2020-09-10T15:14:37.592Z</time>
      </trkpt>
      <trkpt lat="48.042781" lon="10.553912">
        <ele>709.530492</ele>
        <time>2020-09-10T15:14:39.593Z</time>
      </trkpt>
      <trkpt lat="48.042801" lon="10.554091">
        <ele>709.395670</ele>
        <time>2020-09-10T15:14:41.594Z</time>
      </trkpt>
      <trkpt lat="48.042810" lon="10.554286">
        <ele>709.250461</ele>
        <time>2020-09-10T15:14:43.590Z</time>
      </trkpt>
      <trkpt lat="48.042821" lon="10.554493">
        <ele>709.096197</ele>
        <time>2020-09-10T15:14:45.591Z</time>
      </trkpt>
      <trkpt lat="48.042838" lon="10.554680">
        <ele>708.955997</ele>
        <time>2020-09-10T15:14:47.603Z</time>
      </trkpt>
      <trkpt lat="48.042849" lon="10.554846">
        <ele>708.832073</ele>
        <time>2020-09-10T15:14:49.586Z</time>
      </trkpt>
      <trkpt lat="48.042868" lon="10.555019">
        <ele>708.701829</ele>
        <time>2020-09-10T15:14:51.591Z</time>
      </trkpt>
      <trkpt lat="48.042880" lon="10.555192">
        <ele>708.572619</ele>
        <time>2020-09-10T15:14:53.588Z</time>
      </trkpt>
      <trkpt lat="48.042891" lon="10.555373">
        <ele>708.437601</ele>
        <time>2020-09-10T15:14:55.617Z</time>
      </trkpt>
      <trkpt lat="48.042907" lon="10.555544">
        <ele>708.309328</ele>
        <time>2020-09-10T15:14:57.599Z</time>
      </trkpt>
      <trkpt lat="48.042918" lon="10.555728">
        <ele>708.172091</ele>
        <time>2020-09-10T15:14:59.595Z</time>
      </trkpt>
      <trkpt lat="48.042925" lon="10.555912">
        <ele>708.010692</ele>
        <time>2020-09-10T15:15:01.586Z</time>
      </trkpt>
      <trkpt lat="48.042940" lon="10.556108">
        <ele>707.771336</ele>
        <time>2020-09-10T15:15:03.589Z</time>
      </trkpt>
      <trkpt lat="48.042950" lon="10.556291">
        <ele>707.548565</ele>
        <time>2020-09-10T15:15:05.585Z</time>
      </trkpt>
      <trkpt lat="48.042960" lon="10.556475">
        <ele>707.324585</ele>
        <time>2020-09-10T15:15:07.586Z</time>
      </trkpt>
      <trkpt lat="48.042978" lon="10.556645">
        <ele>707.115757</ele>
        <time>2020-09-10T15:15:09.593Z</time>
      </trkpt>
      <trkpt lat="48.042990" lon="10.556819">
        <ele>706.903526</ele>
        <time>2020-09-10T15:15:11.586Z</time>
      </trkpt>
      <trkpt lat="48.043011" lon="10.556984">
        <ele>706.699740</ele>
        <time>2020-09-10T15:15:13.590Z</time>
      </trkpt>
      <trkpt lat="48.043092" lon="10.557096">
        <ele>706.499559</ele>
        <time>2020-09-10T15:15:15.586Z</time>
      </trkpt>
      <trkpt lat="48.043225" lon="10.557157">
        <ele>706.247108</ele>
        <time>2020-09-10T15:15:17.580Z</time>
      </trkpt>
      <trkpt lat="48.043374" lon="10.557204">
        <ele>705.970765</ele>
        <time>2020-09-10T15:15:19.574Z</time>
      </trkpt>
      <trkpt lat="48.043513" lon="10.557302">
        <ele>705.691899</ele>
        <time>2020-09-10T15:15:21.592Z</time>
      </trkpt>
      <trkpt lat="48.043622" lon="10.557481">
        <ele>705.398145</ele>
        <time>2020-09-10T15:15:23.579Z</time>
      </trkpt>
      <trkpt lat="48.043661" lon="10.557620">
        <ele>705.215252</ele>
        <time>2020-09-10T15:15:24.591Z</time>
      </trkpt>
      <trkpt lat="48.043672" lon="10.557881">
        <ele>704.897962</ele>
        <time>2020-09-10T15:15:26.568Z</time>
      </trkpt>
      <trkpt lat="48.043655" lon="10.558135">
        <ele>704.612852</ele>
        <time>2020-09-10T15:15:28.569Z</time>
      </trkpt>
      <trkpt lat="48.043625" lon="10.558338">
        <ele>704.388622</ele>
        <time>2020-09-10T15:15:30.582Z</time>
      </trkpt>
      <trkpt lat="48.043598" lon="10.558529">
        <ele>704.178065</ele>
        <time>2020-09-10T15:15:32.579Z</time>
      </trkpt>
      <trkpt lat="48.043560" lon="10.558713">
        <ele>703.970360</ele>
        <time>2020-09-10T15:15:34.587Z</time>
      </trkpt>
      <trkpt lat="48.043513" lon="10.558896">
        <ele>703.758923</ele>
        <time>2020-09-10T15:15:36.582Z</time>
      </trkpt>
      <trkpt lat="48.043491" lon="10.559071">
        <ele>703.566869</ele>
        <time>2020-09-10T15:15:38.584Z</time>
      </trkpt>
      <trkpt lat="48.043472" lon="10.559249">
        <ele>703.372456</ele>
        <time>2020-09-10T15:15:40.590Z</time>
      </trkpt>
      <trkpt lat="48.043472" lon="10.559439">
        <ele>703.167531</ele>
        <time>2020-09-10T15:15:42.595Z</time>
      </trkpt>
      <trkpt lat="48.043478" lon="10.559641">
        <ele>702.949450</ele>
        <time>2020-09-10T15:15:44.582Z</time>
      </trkpt>
      <trkpt lat="48.043490" lon="10.559840">
        <ele>702.733947</ele>
        <time>2020-09-10T15:15:46.584Z</time>
      </trkpt>
      <trkpt lat="48.043494" lon="10.560036">
        <ele>702.522453</ele>
        <time>2020-09-10T15:15:48.582Z</time>
      </trkpt>
      <trkpt lat="48.043490" lon="10.560248">
        <ele>702.293710</ele>
        <time>2020-09-10T15:15:50.592Z</time>
      </trkpt>
      <trkpt lat="48.043459" lon="10.560440">
        <ele>702.080675</ele>
        <time>2020-09-10T15:15:52.589Z</time>
      </trkpt>
      <trkpt lat="48.043430" lon="10.560617">
        <ele>701.920693</ele>
        <time>2020-09-10T15:15:54.610Z</time>
      </trkpt>
      <trkpt lat="48.043406" lon="10.560796">
        <ele>702.023167</ele>
        <time>2020-09-10T15:15:56.592Z</time>
      </trkpt>
      <trkpt lat="48.043380" lon="10.560931">
        <ele>702.102024</ele>
        <time>2020-09-10T15:15:58.592Z</time>
      </trkpt>
      <trkpt lat="48.043344" lon="10.561067">
        <ele>702.184126</ele>
        <time>2020-09-10T15:16:00.597Z</time>
      </trkpt>
      <trkpt lat="48.043313" lon="10.561200">
        <ele>702.263186</ele>
        <time>2020-09-10T15:16:02.593Z</time>
      </trkpt>
      <trkpt lat="48.043277" lon="10.561372">
        <ele>702.364350</ele>
        <time>2020-09-10T15:16:05.561Z</time>
      </trkpt>
      <trkpt lat="48.043280" lon="10.561525">
        <ele>702.450266</ele>
        <time>2020-09-10T15:16:08.578Z</time>
      </trkpt>
      <trkpt lat="48.043286" lon="10.561692">
        <ele>702.544139</ele>
        <time>2020-09-10T15:16:11.588Z</time>
      </trkpt>
      <trkpt lat="48.043283" lon="10.561862">
        <ele>702.639594</ele>
        <time>2020-09-10T15:16:14.582Z</time>
      </trkpt>
      <trkpt lat="48.043284" lon="10.562052">
        <ele>702.746244</ele>
        <time>2020-09-10T15:16:17.585Z</time>
      </trkpt>
      <trkpt lat="48.043281" lon="10.562194">
        <ele>702.825989</ele>
        <time>2020-09-10T15:16:19.603Z</time>
      </trkpt>
      <trkpt lat="48.043266" lon="10.562396">
        <ele>702.940069</ele>
        <time>2020-09-10T15:16:22.589Z</time>
      </trkpt>
      <trkpt lat="48.043240" lon="10.562587">
        <ele>703.049478</ele>
        <time>2020-09-10T15:16:25.586Z</time>
      </trkpt>
      <trkpt lat="48.043225" lon="10.562719">
        <ele>703.124632</ele>
        <time>2020-09-10T15:16:27.587Z</time>
      </trkpt>
      <trkpt lat="48.043221" lon="10.562860">
        <ele>703.203847</ele>
        <time>2020-09-10T15:16:29.591Z</time>
      </trkpt>
      <trkpt lat="48.043216" lon="10.563000">
        <ele>703.282542</ele>
        <time>2020-09-10T15:16:31.558Z</time>
      </trkpt>
      <trkpt lat="48.043205" lon="10.563151">
        <ele>703.367800</ele>
        <time>2020-09-10T15:16:33.595Z</time>
      </trkpt>
      <trkpt lat="48.043191" lon="10.563317">
        <ele>703.104909</ele>
        <time>2020-09-10T15:16:35.582Z</time>
      </trkpt>
      <trkpt lat="48.043168" lon="10.563498">
        <ele>702.359583</ele>
        <time>2020-09-10T15:16:37.589Z</time>
      </trkpt>
      <trkpt lat="48.043142" lon="10.563699">
        <ele>701.531378</ele>
        <time>2020-09-10T15:16:39.589Z</time>
      </trkpt>
      <trkpt lat="48.043093" lon="10.563895">
        <ele>700.684858</ele>
        <time>2020-09-10T15:16:41.575Z</time>
      </trkpt>
      <trkpt lat="48.043037" lon="10.564092">
        <ele>699.818867</ele>
        <time>2020-09-10T15:16:43.558Z</time>
      </trkpt>
      <trkpt lat="48.042959" lon="10.564306">
        <ele>698.832855</ele>
        <time>2020-09-10T15:16:45.576Z</time>
      </trkpt>
      <trkpt lat="48.042887" lon="10.564539">
        <ele>697.794461</ele>
        <time>2020-09-10T15:16:47.593Z</time>
      </trkpt>
      <trkpt lat="48.042820" lon="10.564784">
        <ele>696.723625</ele>
        <time>2020-09-10T15:16:49.593Z</time>
      </trkpt>
      <trkpt lat="48.042791" lon="10.564917">
        <ele>696.157691</ele>
        <time>2020-09-10T15:16:50.610Z</time>
      </trkpt>
      <trkpt lat="48.042762" lon="10.565053">
        <ele>695.580207</ele>
        <time>2020-09-10T15:16:51.591Z</time>
      </trkpt>
      <trkpt lat="48.042730" lon="10.565191">
        <ele>694.989312</ele>
        <time>2020-09-10T15:16:52.561Z</time>
      </trkpt>
      <trkpt lat="48.042699" lon="10.565338">
        <ele>694.365752</ele>
        <time>2020-09-10T15:16:53.599Z</time>
      </trkpt>
      <trkpt lat="48.042669" lon="10.565490">
        <ele>693.724611</ele>
        <time>2020-09-10T15:16:54.595Z</time>
      </trkpt>
      <trkpt lat="48.042639" lon="10.565635">
        <ele>693.110576</ele>
        <time>2020-09-10T15:16:55.592Z</time>
      </trkpt>
      <trkpt lat="48.042610" lon="10.565774">
        <ele>692.530017</ele>
        <time>2020-09-10T15:16:56.591Z</time>
      </trkpt>
      <trkpt lat="48.042588" lon="10.565912">
        <ele>692.318810</ele>
        <time>2020-09-10T15:16:57.591Z</time>
      </trkpt>
      <trkpt lat="48.042565" lon="10.566048">
        <ele>692.109962</ele>
        <time>2020-09-10T15:16:58.580Z</time>
      </trkpt>
      <trkpt lat="48.042541" lon="10.566178">
        <ele>691.909181</ele>
        <time>2020-09-10T15:16:59.592Z</time>
      </trkpt>
      <trkpt lat="48.042503" lon="10.566430">
        <ele>691.524591</ele>
        <time>2020-09-10T15:17:01.593Z</time>
      </trkpt>
      <trkpt lat="48.042470" lon="10.566666">
        <ele>691.165643</ele>
        <time>2020-09-10T15:17:03.587Z</time>
      </trkpt>
      <trkpt lat="48.042445" lon="10.566880">
        <ele>690.842222</ele>
        <time>2020-09-10T15:17:05.582Z</time>
      </trkpt>
      <trkpt lat="48.042428" lon="10.567080">
        <ele>690.542074</ele>
        <time>2020-09-10T15:17:07.584Z</time>
      </trkpt>
      <trkpt lat="48.042422" lon="10.567248">
        <ele>690.291606</ele>
        <time>2020-09-10T15:17:10.586Z</time>
      </trkpt>
      <trkpt lat="48.042399" lon="10.567398">
        <ele>690.062495</ele>
        <time>2020-09-10T15:17:15.592Z</time>
      </trkpt>
      <trkpt lat="48.042427" lon="10.567267">
        <ele>689.857744</ele>
        <time>2020-09-10T15:17:54.578Z</time>
      </trkpt>
      <trkpt lat="48.042289" lon="10.567311">
        <ele>689.543549</ele>
        <time>2020-09-10T15:18:19.578Z</time>
      </trkpt>
      <trkpt lat="48.042228" lon="10.567425">
        <ele>689.326167</ele>
        <time>2020-09-10T15:18:27.580Z</time>
      </trkpt>
      <trkpt lat="48.042124" lon="10.567541">
        <ele>689.037283</ele>
        <time>2020-09-10T15:18:30.584Z</time>
      </trkpt>
      <trkpt lat="48.042040" lon="10.567603">
        <ele>688.828701</ele>
        <time>2020-09-10T15:18:32.585Z</time>
      </trkpt>
      <trkpt lat="48.041950" lon="10.567666">
        <ele>688.607432</ele>
        <time>2020-09-10T15:18:34.601Z</time>
      </trkpt>
      <trkpt lat="48.041866" lon="10.567746">
        <ele>688.500516</ele>
        <time>2020-09-10T15:18:36.597Z</time>
      </trkpt>
      <trkpt lat="48.041777" lon="10.567825">
        <ele>688.453627</ele>
        <time>2020-09-10T15:18:38.588Z</time>
      </trkpt>
      <trkpt lat="48.041676" lon="10.567925">
        <ele>688.398749</ele>
        <time>2020-09-10T15:18:41.584Z</time>
      </trkpt>
      <trkpt lat="48.041579" lon="10.568024">
        <ele>688.345545</ele>
        <time>2020-09-10T15:18:45.582Z</time>
      </trkpt>
      <trkpt lat="48.041471" lon="10.568122">
        <ele>688.288313</ele>
        <time>2020-09-10T15:18:48.592Z</time>
      </trkpt>
      <trkpt lat="48.041367" lon="10.568227">
        <ele>688.231464</ele>
        <time>2020-09-10T15:18:51.584Z</time>
      </trkpt>
      <trkpt lat="48.041286" lon="10.568374">
        <ele>688.173761</ele>
        <time>2020-09-10T15:18:54.584Z</time>
      </trkpt>
      <trkpt lat="48.041258" lon="10.568511">
        <ele>688.130366</ele>
        <time>2020-09-10T15:18:56.570Z</time>
      </trkpt>
      <trkpt lat="48.041248" lon="10.568665">
        <ele>688.083497</ele>
        <time>2020-09-10T15:18:58.572Z</time>
      </trkpt>
      <trkpt lat="48.041245" lon="10.568821">
        <ele>688.036222</ele>
        <time>2020-09-10T15:19:00.588Z</time>
      </trkpt>
      <trkpt lat="48.041240" lon="10.568971">
        <ele>687.990728</ele>
        <time>2020-09-10T15:19:02.591Z</time>
      </trkpt>
      <trkpt lat="48.041237" lon="10.569117">
        <ele>687.946481</ele>
        <time>2020-09-10T15:19:04.587Z</time>
      </trkpt>
      <trkpt lat="48.041233" lon="10.569271">
        <ele>687.899797</ele>
        <time>2020-09-10T15:19:06.580Z</time>
      </trkpt>
      <trkpt lat="48.041230" lon="10.569437">
        <ele>687.849494</ele>
        <time>2020-09-10T15:19:08.590Z</time>
      </trkpt>
      <trkpt lat="48.041238" lon="10.569610">
        <ele>687.796964</ele>
        <time>2020-09-10T15:19:10.597Z</time>
      </trkpt>
      <trkpt lat="48.041248" lon="10.569772">
        <ele>687.747683</ele>
        <time>2020-09-10T15:19:12.587Z</time>
      </trkpt>
      <trkpt lat="48.041258" lon="10.569922">
        <ele>687.591002</ele>
        <time>2020-09-10T15:19:14.590Z</time>
      </trkpt>
      <trkpt lat="48.041271" lon="10.570066">
        <ele>687.168892</ele>
        <time>2020-09-10T15:19:16.593Z</time>
      </trkpt>
      <trkpt lat="48.041289" lon="10.570222">
        <ele>686.709020</ele>
        <time>2020-09-10T15:19:18.591Z</time>
      </trkpt>
      <trkpt lat="48.041312" lon="10.570388">
        <ele>686.216552</ele>
        <time>2020-09-10T15:19:20.601Z</time>
      </trkpt>
      <trkpt lat="48.041345" lon="10.570574">
        <ele>685.657531</ele>
        <time>2020-09-10T15:19:22.580Z</time>
      </trkpt>
      <trkpt lat="48.041384" lon="10.570757">
        <ele>685.099572</ele>
        <time>2020-09-10T15:19:24.582Z</time>
      </trkpt>
      <trkpt lat="48.041427" lon="10.570957">
        <ele>684.489281</ele>
        <time>2020-09-10T15:19:26.586Z</time>
      </trkpt>
      <trkpt lat="48.041465" lon="10.571146">
        <ele>683.915959</ele>
        <time>2020-09-10T15:19:28.582Z</time>
      </trkpt>
      <trkpt lat="48.041509" lon="10.571339">
        <ele>683.323607</ele>
        <time>2020-09-10T15:19:30.586Z</time>
      </trkpt>
      <trkpt lat="48.041563" lon="10.571553">
        <ele>682.659148</ele>
        <time>2020-09-10T15:19:32.589Z</time>
      </trkpt>
      <trkpt lat="48.041612" lon="10.571772">
        <ele>681.988288</ele>
        <time>2020-09-10T15:19:34.586Z</time>
      </trkpt>
      <trkpt lat="48.041663" lon="10.571996">
        <ele>681.300888</ele>
        <time>2020-09-10T15:19:36.585Z</time>
      </trkpt>
      <trkpt lat="48.041710" lon="10.572222">
        <ele>680.613347</ele>
        <time>2020-09-10T15:19:38.587Z</time>
      </trkpt>
      <trkpt lat="48.041732" lon="10.572434">
        <ele>679.990127</ele>
        <time>2020-09-10T15:19:40.587Z</time>
      </trkpt>
      <trkpt lat="48.041734" lon="10.572657">
        <ele>679.574890</ele>
        <time>2020-09-10T15:19:42.563Z</time>
      </trkpt>
      <trkpt lat="48.041725" lon="10.572886">
        <ele>679.186407</ele>
        <time>2020-09-10T15:19:44.590Z</time>
      </trkpt>
      <trkpt lat="48.041713" lon="10.573118">
        <ele>678.792340</ele>
        <time>2020-09-10T15:19:46.558Z</time>
      </trkpt>
      <trkpt lat="48.041707" lon="10.573352">
        <ele>678.395768</ele>
        <time>2020-09-10T15:19:48.561Z</time>
      </trkpt>
      <trkpt lat="48.041702" lon="10.573587">
        <ele>677.997592</ele>
        <time>2020-09-10T15:19:50.584Z</time>
      </trkpt>
      <trkpt lat="48.041682" lon="10.573816">
        <ele>677.606484</ele>
        <time>2020-09-10T15:19:52.585Z</time>
      </trkpt>
      <trkpt lat="48.041678" lon="10.574048">
        <ele>677.213460</ele>
        <time>2020-09-10T15:19:54.588Z</time>
      </trkpt>
      <trkpt lat="48.041696" lon="10.574287">
        <ele>676.806152</ele>
        <time>2020-09-10T15:19:56.597Z</time>
      </trkpt>
      <trkpt lat="48.041711" lon="10.574526">
        <ele>676.399624</ele>
        <time>2020-09-10T15:19:58.589Z</time>
      </trkpt>
      <trkpt lat="48.041736" lon="10.574761">
        <ele>675.996644</ele>
        <time>2020-09-10T15:20:00.592Z</time>
      </trkpt>
      <trkpt lat="48.041760" lon="10.574997">
        <ele>675.592379</ele>
        <time>2020-09-10T15:20:02.591Z</time>
      </trkpt>
      <trkpt lat="48.041774" lon="10.575237">
        <ele>675.051490</ele>
        <time>2020-09-10T15:20:04.592Z</time>
      </trkpt>
      <trkpt lat="48.041743" lon="10.575458">
        <ele>674.351037</ele>
        <time>2020-09-10T15:20:06.578Z</time>
      </trkpt>
      <trkpt lat="48.041688" lon="10.575668">
        <ele>673.651432</ele>
        <time>2020-09-10T15:20:08.578Z</time>
      </trkpt>
      <trkpt lat="48.041625" lon="10.575862">
        <ele>672.982425</ele>
        <time>2020-09-10T15:20:10.582Z</time>
      </trkpt>
      <trkpt lat="48.041558" lon="10.576044">
        <ele>672.337949</ele>
        <time>2020-09-10T15:20:12.584Z</time>
      </trkpt>
      <trkpt lat="48.041483" lon="10.576234">
        <ele>671.653524</ele>
        <time>2020-09-10T15:20:14.585Z</time>
      </trkpt>
      <trkpt lat="48.041395" lon="10.576403">
        <ele>670.989062</ele>
        <time>2020-09-10T15:20:16.582Z</time>
      </trkpt>
      <trkpt lat="48.041294" lon="10.576561">
        <ele>670.310985</ele>
        <time>2020-09-10T15:20:18.591Z</time>
      </trkpt>
      <trkpt lat="48.041172" lon="10.576712">
        <ele>669.576289</ele>
        <time>2020-09-10T15:20:20.567Z</time>
      </trkpt>
      <trkpt lat="48.041099" lon="10.576794">
        <ele>669.152723</ele>
        <time>2020-09-10T15:20:21.582Z</time>
      </trkpt>
      <trkpt lat="48.040953" lon="10.576951">
        <ele>668.318449</ele>
        <time>2020-09-10T15:20:23.555Z</time>
      </trkpt>
      <trkpt lat="48.040877" lon="10.577032">
        <ele>667.885480</ele>
        <time>2020-09-10T15:20:24.590Z</time>
      </trkpt>
      <trkpt lat="48.040793" lon="10.577121">
        <ele>667.407880</ele>
        <time>2020-09-10T15:20:25.586Z</time>
      </trkpt>
      <trkpt lat="48.040706" lon="10.577204">
        <ele>666.950019</ele>
        <time>2020-09-10T15:20:26.580Z</time>
      </trkpt>
      <trkpt lat="48.040621" lon="10.577283">
        <ele>666.623929</ele>
        <time>2020-09-10T15:20:27.587Z</time>
      </trkpt>
      <trkpt lat="48.040540" lon="10.577358">
        <ele>666.313509</ele>
        <time>2020-09-10T15:20:28.588Z</time>
      </trkpt>
      <trkpt lat="48.040454" lon="10.577431">
        <ele>665.991296</ele>
        <time>2020-09-10T15:20:29.587Z</time>
      </trkpt>
      <trkpt lat="48.040368" lon="10.577505">
        <ele>665.668002</ele>
        <time>2020-09-10T15:20:30.585Z</time>
      </trkpt>
      <trkpt lat="48.040286" lon="10.577574">
        <ele>665.361423</ele>
        <time>2020-09-10T15:20:31.588Z</time>
      </trkpt>
      <trkpt lat="48.040130" lon="10.577697">
        <ele>664.786793</ele>
        <time>2020-09-10T15:20:33.589Z</time>
      </trkpt>
      <trkpt lat="48.039981" lon="10.577820">
        <ele>664.232238</ele>
        <time>2020-09-10T15:20:35.584Z</time>
      </trkpt>
      <trkpt lat="48.039852" lon="10.577937">
        <ele>663.740646</ele>
        <time>2020-09-10T15:20:37.589Z</time>
      </trkpt>
      <trkpt lat="48.039745" lon="10.578018">
        <ele>663.349874</ele>
        <time>2020-09-10T15:20:39.587Z</time>
      </trkpt>
      <trkpt lat="48.039656" lon="10.578085">
        <ele>663.025206</ele>
        <time>2020-09-10T15:20:44.565Z</time>
      </trkpt>
      <trkpt lat="48.039629" lon="10.578245">
        <ele>662.665688</ele>
        <time>2020-09-10T15:20:48.582Z</time>
      </trkpt>
      <trkpt lat="48.039616" lon="10.578389">
        <ele>662.349114</ele>
        <time>2020-09-10T15:20:50.582Z</time>
      </trkpt>
      <trkpt lat="48.039592" lon="10.578543">
        <ele>662.004606</ele>
        <time>2020-09-10T15:20:52.561Z</time>
      </trkpt>
      <trkpt lat="48.039540" lon="10.578666">
        <ele>661.687555</ele>
        <time>2020-09-10T15:20:54.582Z</time>
      </trkpt>
      <trkpt lat="48.039433" lon="10.578715">
        <ele>661.322922</ele>
        <time>2020-09-10T15:20:56.576Z</time>
      </trkpt>
      <trkpt lat="48.039313" lon="10.578729">
        <ele>661.093354</ele>
        <time>2020-09-10T15:20:58.563Z</time>
      </trkpt>
      <trkpt lat="48.039196" lon="10.578775">
        <ele>661.007684</ele>
        <time>2020-09-10T15:21:00.592Z</time>
      </trkpt>
      <trkpt lat="48.039102" lon="10.578876">
        <ele>660.925719</ele>
        <time>2020-09-10T15:21:02.567Z</time>
      </trkpt>
      <trkpt lat="48.039030" lon="10.579025">
        <ele>660.838672</ele>
        <time>2020-09-10T15:21:05.567Z</time>
      </trkpt>
      <trkpt lat="48.038965" lon="10.579121">
        <ele>660.773980</ele>
        <time>2020-09-10T15:21:10.561Z</time>
      </trkpt>
      <trkpt lat="48.038909" lon="10.579236">
        <ele>660.706618</ele>
        <time>2020-09-10T15:21:49.573Z</time>
      </trkpt>
      <trkpt lat="48.038856" lon="10.579365">
        <ele>660.634927</ele>
        <time>2020-09-10T15:21:52.597Z</time>
      </trkpt>
      <trkpt lat="48.038793" lon="10.579484">
        <ele>660.563057</ele>
        <time>2020-09-10T15:21:54.585Z</time>
      </trkpt>
      <trkpt lat="48.038728" lon="10.579581">
        <ele>660.498031</ele>
        <time>2020-09-10T15:21:56.584Z</time>
      </trkpt>
      <trkpt lat="48.038665" lon="10.579682">
        <ele>660.432629</ele>
        <time>2020-09-10T15:21:58.570Z</time>
      </trkpt>
      <trkpt lat="48.038592" lon="10.579777">
        <ele>660.364102</ele>
        <time>2020-09-10T15:22:00.587Z</time>
      </trkpt>
      <trkpt lat="48.038512" lon="10.579881">
        <ele>660.289039</ele>
        <time>2020-09-10T15:22:02.584Z</time>
      </trkpt>
      <trkpt lat="48.038432" lon="10.579990">
        <ele>660.212401</ele>
        <time>2020-09-10T15:22:04.586Z</time>
      </trkpt>
      <trkpt lat="48.038349" lon="10.580094">
        <ele>660.135722</ele>
        <time>2020-09-10T15:22:06.597Z</time>
      </trkpt>
      <trkpt lat="48.038261" lon="10.580192">
        <ele>660.058025</ele>
        <time>2020-09-10T15:22:08.588Z</time>
      </trkpt>
      <trkpt lat="48.038163" lon="10.580266">
        <ele>659.980281</ele>
        <time>2020-09-10T15:22:10.589Z</time>
      </trkpt>
      <trkpt lat="48.038070" lon="10.580325">
        <ele>659.908742</ele>
        <time>2020-09-10T15:22:12.595Z</time>
      </trkpt>
      <trkpt lat="48.037974" lon="10.580275">
        <ele>659.914365</ele>
        <time>2020-09-10T15:22:15.573Z</time>
      </trkpt>
      <trkpt lat="48.037936" lon="10.580112">
        <ele>660.058960</ele>
        <time>2020-09-10T15:22:18.561Z</time>
      </trkpt>
      <trkpt lat="48.037909" lon="10.579970">
        <ele>660.182620</ele>
        <time>2020-09-10T15:22:20.570Z</time>
      </trkpt>
      <trkpt lat="48.037857" lon="10.579842">
        <ele>660.308076</ele>
        <time>2020-09-10T15:22:22.563Z</time>
      </trkpt>
      <trkpt lat="48.037759" lon="10.579794">
        <ele>660.437262</ele>
        <time>2020-09-10T15:22:24.571Z</time>
      </trkpt>
      <trkpt lat="48.037650" lon="10.579768">
        <ele>660.575537</ele>
        <time>2020-09-10T15:22:26.561Z</time>
      </trkpt>
      <trkpt lat="48.037550" lon="10.579738">
        <ele>660.703307</ele>
        <time>2020-09-10T15:22:28.591Z</time>
      </trkpt>
      <trkpt lat="48.037456" lon="10.579719">
        <ele>660.822136</ele>
        <time>2020-09-10T15:22:30.595Z</time>
      </trkpt>
      <trkpt lat="48.037362" lon="10.579691">
        <ele>660.942207</ele>
        <time>2020-09-10T15:22:32.593Z</time>
      </trkpt>
      <trkpt lat="48.037266" lon="10.579656">
        <ele>661.065993</ele>
        <time>2020-09-10T15:22:34.586Z</time>
      </trkpt>
      <trkpt lat="48.037164" lon="10.579602">
        <ele>661.201543</ele>
        <time>2020-09-10T15:22:36.582Z</time>
      </trkpt>
      <trkpt lat="48.037067" lon="10.579543">
        <ele>661.332725</ele>
        <time>2020-09-10T15:22:38.585Z</time>
      </trkpt>
      <trkpt lat="48.036965" lon="10.579502">
        <ele>661.465040</ele>
        <time>2020-09-10T15:22:40.563Z</time>
      </trkpt>
      <trkpt lat="48.036864" lon="10.579469">
        <ele>661.594552</ele>
        <time>2020-09-10T15:22:42.582Z</time>
      </trkpt>
      <trkpt lat="48.036758" lon="10.579450">
        <ele>661.728293</ele>
        <time>2020-09-10T15:22:44.584Z</time>
      </trkpt>
      <trkpt lat="48.036663" lon="10.579434">
        <ele>661.848057</ele>
        <time>2020-09-10T15:22:46.571Z</time>
      </trkpt>
      <trkpt lat="48.036573" lon="10.579403">
        <ele>661.963756</ele>
        <time>2020-09-10T15:22:48.592Z</time>
      </trkpt>
      <trkpt lat="48.036458" lon="10.579341">
        <ele>662.116897</ele>
        <time>2020-09-10T15:22:51.558Z</time>
      </trkpt>
      <trkpt lat="48.036361" lon="10.579251">
        <ele>662.092093</ele>
        <time>2020-09-10T15:22:55.586Z</time>
      </trkpt>
      <trkpt lat="48.036266" lon="10.579291">
        <ele>662.069491</ele>
        <time>2020-09-10T15:22:58.561Z</time>
      </trkpt>
      <trkpt lat="48.036175" lon="10.579386">
        <ele>662.044075</ele>
        <time>2020-09-10T15:23:01.565Z</time>
      </trkpt>
      <trkpt lat="48.036101" lon="10.579478">
        <ele>662.022038</ele>
        <time>2020-09-10T15:23:03.580Z</time>
      </trkpt>
      <trkpt lat="48.036033" lon="10.579602">
        <ele>661.997480</ele>
        <time>2020-09-10T15:23:05.559Z</time>
      </trkpt>
      <trkpt lat="48.035963" lon="10.579725">
        <ele>661.972747</ele>
        <time>2020-09-10T15:23:07.582Z</time>
      </trkpt>
      <trkpt lat="48.035887" lon="10.579856">
        <ele>661.946188</ele>
        <time>2020-09-10T15:23:09.584Z</time>
      </trkpt>
      <trkpt lat="48.035808" lon="10.579980">
        <ele>661.919961</ele>
        <time>2020-09-10T15:23:11.584Z</time>
      </trkpt>
      <trkpt lat="48.035730" lon="10.580112">
        <ele>661.892986</ele>
        <time>2020-09-10T15:23:13.593Z</time>
      </trkpt>
      <trkpt lat="48.035647" lon="10.580249">
        <ele>661.864676</ele>
        <time>2020-09-10T15:23:15.587Z</time>
      </trkpt>
      <trkpt lat="48.035573" lon="10.580394">
        <ele>661.836744</ele>
        <time>2020-09-10T15:23:17.559Z</time>
      </trkpt>
      <trkpt lat="48.035505" lon="10.580548">
        <ele>661.808483</ele>
        <time>2020-09-10T15:23:19.578Z</time>
      </trkpt>
      <trkpt lat="48.035435" lon="10.580698">
        <ele>661.780472</ele>
        <time>2020-09-10T15:23:21.584Z</time>
      </trkpt>
      <trkpt lat="48.035356" lon="10.580845">
        <ele>661.751593</ele>
        <time>2020-09-10T15:23:23.584Z</time>
      </trkpt>
      <trkpt lat="48.035271" lon="10.580983">
        <ele>661.722861</ele>
        <time>2020-09-10T15:23:25.582Z</time>
      </trkpt>
      <trkpt lat="48.035200" lon="10.581123">
        <ele>661.664174</ele>
        <time>2020-09-10T15:23:27.584Z</time>
      </trkpt>
      <trkpt lat="48.035141" lon="10.581275">
        <ele>661.553111</ele>
        <time>2020-09-10T15:23:29.559Z</time>
      </trkpt>
      <trkpt lat="48.035087" lon="10.581427">
        <ele>661.444344</ele>
        <time>2020-09-10T15:23:31.559Z</time>
      </trkpt>
      <trkpt lat="48.035040" lon="10.581592">
        <ele>661.331009</ele>
        <time>2020-09-10T15:23:33.587Z</time>
      </trkpt>
      <trkpt lat="48.034995" lon="10.581756">
        <ele>661.218987</ele>
        <time>2020-09-10T15:23:35.587Z</time>
      </trkpt>
      <trkpt lat="48.034953" lon="10.581919">
        <ele>661.108600</ele>
        <time>2020-09-10T15:23:37.580Z</time>
      </trkpt>
      <trkpt lat="48.034910" lon="10.582080">
        <ele>660.999045</ele>
        <time>2020-09-10T15:23:39.590Z</time>
      </trkpt>
      <trkpt lat="48.034864" lon="10.582237">
        <ele>660.890726</ele>
        <time>2020-09-10T15:23:41.586Z</time>
      </trkpt>
      <trkpt lat="48.034816" lon="10.582383">
        <ele>660.787916</ele>
        <time>2020-09-10T15:23:43.580Z</time>
      </trkpt>
      <trkpt lat="48.034749" lon="10.582505">
        <ele>660.688152</ele>
        <time>2020-09-10T15:23:45.582Z</time>
      </trkpt>
      <trkpt lat="48.034648" lon="10.582595">
        <ele>660.577043</ele>
        <time>2020-09-10T15:23:47.568Z</time>
      </trkpt>
      <trkpt lat="48.034542" lon="10.582669">
        <ele>660.466491</ele>
        <time>2020-09-10T15:23:49.580Z</time>
      </trkpt>
      <trkpt lat="48.034443" lon="10.582743">
        <ele>660.361896</ele>
        <time>2020-09-10T15:23:51.595Z</time>
      </trkpt>
      <trkpt lat="48.034338" lon="10.582822">
        <ele>660.250816</ele>
        <time>2020-09-10T15:23:53.582Z</time>
      </trkpt>
      <trkpt lat="48.034239" lon="10.582899">
        <ele>660.145360</ele>
        <time>2020-09-10T15:23:55.580Z</time>
      </trkpt>
      <trkpt lat="48.034148" lon="10.582980">
        <ele>660.045281</ele>
        <time>2020-09-10T15:23:57.576Z</time>
      </trkpt>
      <trkpt lat="48.034066" lon="10.583066">
        <ele>659.969108</ele>
        <time>2020-09-10T15:23:59.593Z</time>
      </trkpt>
      <trkpt lat="48.033967" lon="10.583149">
        <ele>659.897434</ele>
        <time>2020-09-10T15:24:01.580Z</time>
      </trkpt>
      <trkpt lat="48.033859" lon="10.583223">
        <ele>659.822412</ele>
        <time>2020-09-10T15:24:03.559Z</time>
      </trkpt>
      <trkpt lat="48.033752" lon="10.583306">
        <ele>659.746291</ele>
        <time>2020-09-10T15:24:05.585Z</time>
      </trkpt>
      <trkpt lat="48.033645" lon="10.583381">
        <ele>659.671665</ele>
        <time>2020-09-10T15:24:07.572Z</time>
      </trkpt>
      <trkpt lat="48.033542" lon="10.583449">
        <ele>659.600563</ele>
        <time>2020-09-10T15:24:09.582Z</time>
      </trkpt>
      <trkpt lat="48.033444" lon="10.583519">
        <ele>659.531977</ele>
        <time>2020-09-10T15:24:11.584Z</time>
      </trkpt>
      <trkpt lat="48.033343" lon="10.583592">
        <ele>659.461136</ele>
        <time>2020-09-10T15:24:13.580Z</time>
      </trkpt>
      <trkpt lat="48.033240" lon="10.583657">
        <ele>659.390535</ele>
        <time>2020-09-10T15:24:15.582Z</time>
      </trkpt>
      <trkpt lat="48.033133" lon="10.583713">
        <ele>659.318945</ele>
        <time>2020-09-10T15:24:17.557Z</time>
      </trkpt>
      <trkpt lat="48.033019" lon="10.583748">
        <ele>659.245451</ele>
        <time>2020-09-10T15:24:19.580Z</time>
      </trkpt>
      <trkpt lat="48.032908" lon="10.583761">
        <ele>659.175139</ele>
        <time>2020-09-10T15:24:21.582Z</time>
      </trkpt>
      <trkpt lat="48.032807" lon="10.583774">
        <ele>659.111120</ele>
        <time>2020-09-10T15:24:23.592Z</time>
      </trkpt>
      <trkpt lat="48.032713" lon="10.583782">
        <ele>659.051662</ele>
        <time>2020-09-10T15:24:25.585Z</time>
      </trkpt>
      <trkpt lat="48.032609" lon="10.583788">
        <ele>658.985936</ele>
        <time>2020-09-10T15:24:27.572Z</time>
      </trkpt>
      <trkpt lat="48.032496" lon="10.583786">
        <ele>658.914570</ele>
        <time>2020-09-10T15:24:29.595Z</time>
      </trkpt>
      <trkpt lat="48.032382" lon="10.583787">
        <ele>658.852667</ele>
        <time>2020-09-10T15:24:31.561Z</time>
      </trkpt>
      <trkpt lat="48.032272" lon="10.583802">
        <ele>658.808156</ele>
        <time>2020-09-10T15:24:33.574Z</time>
      </trkpt>
      <trkpt lat="48.032155" lon="10.583808">
        <ele>658.760980</ele>
        <time>2020-09-10T15:24:35.573Z</time>
      </trkpt>
      <trkpt lat="48.032034" lon="10.583824">
        <ele>658.712030</ele>
        <time>2020-09-10T15:24:37.585Z</time>
      </trkpt>
      <trkpt lat="48.031917" lon="10.583825">
        <ele>658.664881</ele>
        <time>2020-09-10T15:24:39.609Z</time>
      </trkpt>
      <trkpt lat="48.031802" lon="10.583836">
        <ele>658.618444</ele>
        <time>2020-09-10T15:24:41.584Z</time>
      </trkpt>
      <trkpt lat="48.031699" lon="10.583853">
        <ele>658.576685</ele>
        <time>2020-09-10T15:24:43.580Z</time>
      </trkpt>
      <trkpt lat="48.031586" lon="10.583856">
        <ele>658.531141</ele>
        <time>2020-09-10T15:24:45.559Z</time>
      </trkpt>
      <trkpt lat="48.031463" lon="10.583861">
        <ele>658.481557</ele>
        <time>2020-09-10T15:24:47.587Z</time>
      </trkpt>
      <trkpt lat="48.031353" lon="10.583875">
        <ele>658.437069</ele>
        <time>2020-09-10T15:24:49.569Z</time>
      </trkpt>
      <trkpt lat="48.031242" lon="10.583886">
        <ele>658.392241</ele>
        <time>2020-09-10T15:24:51.578Z</time>
      </trkpt>
      <trkpt lat="48.031128" lon="10.583890">
        <ele>658.346289</ele>
        <time>2020-09-10T15:24:53.580Z</time>
      </trkpt>
      <trkpt lat="48.031017" lon="10.583904">
        <ele>658.301399</ele>
        <time>2020-09-10T15:24:55.585Z</time>
      </trkpt>
      <trkpt lat="48.030912" lon="10.583916">
        <ele>658.258964</ele>
        <time>2020-09-10T15:24:57.582Z</time>
      </trkpt>
      <trkpt lat="48.030805" lon="10.583923">
        <ele>658.215804</ele>
        <time>2020-09-10T15:24:59.582Z</time>
      </trkpt>
      <trkpt lat="48.030694" lon="10.583927">
        <ele>658.171060</ele>
        <time>2020-09-10T15:25:01.580Z</time>
      </trkpt>
      <trkpt lat="48.030589" lon="10.583943">
        <ele>658.187661</ele>
        <time>2020-09-10T15:25:03.585Z</time>
      </trkpt>
      <trkpt lat="48.030473" lon="10.583960">
        <ele>658.302912</ele>
        <time>2020-09-10T15:25:05.597Z</time>
      </trkpt>
      <trkpt lat="48.030364" lon="10.583977">
        <ele>658.411277</ele>
        <time>2020-09-10T15:25:07.588Z</time>
      </trkpt>
      <trkpt lat="48.030259" lon="10.583983">
        <ele>658.515177</ele>
        <time>2020-09-10T15:25:09.584Z</time>
      </trkpt>
      <trkpt lat="48.030152" lon="10.584007">
        <ele>658.622163</ele>
        <time>2020-09-10T15:25:11.580Z</time>
      </trkpt>
      <trkpt lat="48.030046" lon="10.584035">
        <ele>658.728600</ele>
        <time>2020-09-10T15:25:13.578Z</time>
      </trkpt>
      <trkpt lat="48.029934" lon="10.584068">
        <ele>658.841475</ele>
        <time>2020-09-10T15:25:15.575Z</time>
      </trkpt>
      <trkpt lat="48.029812" lon="10.584110">
        <ele>658.965266</ele>
        <time>2020-09-10T15:25:17.582Z</time>
      </trkpt>
      <trkpt lat="48.029692" lon="10.584157">
        <ele>659.087925</ele>
        <time>2020-09-10T15:25:19.582Z</time>
      </trkpt>
      <trkpt lat="48.029574" lon="10.584192">
        <ele>659.206878</ele>
        <time>2020-09-10T15:25:21.586Z</time>
      </trkpt>
      <trkpt lat="48.029457" lon="10.584233">
        <ele>659.325702</ele>
        <time>2020-09-10T15:25:23.592Z</time>
      </trkpt>
      <trkpt lat="48.029334" lon="10.584266">
        <ele>659.449268</ele>
        <time>2020-09-10T15:25:25.582Z</time>
      </trkpt>
      <trkpt lat="48.029205" lon="10.584303">
        <ele>659.579149</ele>
        <time>2020-09-10T15:25:27.588Z</time>
      </trkpt>
      <trkpt lat="48.029075" lon="10.584339">
        <ele>659.709880</ele>
        <time>2020-09-10T15:25:29.585Z</time>
      </trkpt>
      <trkpt lat="48.028947" lon="10.584371">
        <ele>659.838204</ele>
        <time>2020-09-10T15:25:31.597Z</time>
      </trkpt>
      <trkpt lat="48.028820" lon="10.584408">
        <ele>659.940469</ele>
        <time>2020-09-10T15:25:33.595Z</time>
      </trkpt>
      <trkpt lat="48.028695" lon="10.584452">
        <ele>659.989791</ele>
        <time>2020-09-10T15:25:35.586Z</time>
      </trkpt>
      <trkpt lat="48.028578" lon="10.584501">
        <ele>660.036457</ele>
        <time>2020-09-10T15:25:37.582Z</time>
      </trkpt>
      <trkpt lat="48.028460" lon="10.584534">
        <ele>660.082564</ele>
        <time>2020-09-10T15:25:39.580Z</time>
      </trkpt>
      <trkpt lat="48.028349" lon="10.584571">
        <ele>660.126244</ele>
        <time>2020-09-10T15:25:41.582Z</time>
      </trkpt>
      <trkpt lat="48.028231" lon="10.584599">
        <ele>660.172132</ele>
        <time>2020-09-10T15:25:43.580Z</time>
      </trkpt>
      <trkpt lat="48.028112" lon="10.584641">
        <ele>660.219093</ele>
        <time>2020-09-10T15:25:45.585Z</time>
      </trkpt>
      <trkpt lat="48.027990" lon="10.584685">
        <ele>660.267295</ele>
        <time>2020-09-10T15:25:47.580Z</time>
      </trkpt>
      <trkpt lat="48.027868" lon="10.584718">
        <ele>660.314913</ele>
        <time>2020-09-10T15:25:49.582Z</time>
      </trkpt>
      <trkpt lat="48.027753" lon="10.584747">
        <ele>660.359706</ele>
        <time>2020-09-10T15:25:51.590Z</time>
      </trkpt>
      <trkpt lat="48.027641" lon="10.584779">
        <ele>660.403501</ele>
        <time>2020-09-10T15:25:53.578Z</time>
      </trkpt>
      <trkpt lat="48.027527" lon="10.584808">
        <ele>660.447915</ele>
        <time>2020-09-10T15:25:55.595Z</time>
      </trkpt>
      <trkpt lat="48.027406" lon="10.584843">
        <ele>660.495250</ele>
        <time>2020-09-10T15:25:57.592Z</time>
      </trkpt>
      <trkpt lat="48.027282" lon="10.584879">
        <ele>660.543765</ele>
        <time>2020-09-10T15:25:59.571Z</time>
      </trkpt>
      <trkpt lat="48.027167" lon="10.584909">
        <ele>660.588601</ele>
        <time>2020-09-10T15:26:01.578Z</time>
      </trkpt>
      <trkpt lat="48.027052" lon="10.584948">
        <ele>660.638059</ele>
        <time>2020-09-10T15:26:03.582Z</time>
      </trkpt>
      <trkpt lat="48.026936" lon="10.584989">
        <ele>660.693929</ele>
        <time>2020-09-10T15:26:05.589Z</time>
      </trkpt>
      <trkpt lat="48.026814" lon="10.585031">
        <ele>660.752609</ele>
        <time>2020-09-10T15:26:07.586Z</time>
      </trkpt>
      <trkpt lat="48.026684" lon="10.585071">
        <ele>660.814820</ele>
        <time>2020-09-10T15:26:09.582Z</time>
      </trkpt>
      <trkpt lat="48.026550" lon="10.585108">
        <ele>660.878690</ele>
        <time>2020-09-10T15:26:11.585Z</time>
      </trkpt>
      <trkpt lat="48.026423" lon="10.585142">
        <ele>660.939164</ele>
        <time>2020-09-10T15:26:13.585Z</time>
      </trkpt>
      <trkpt lat="48.026307" lon="10.585178">
        <ele>660.994695</ele>
        <time>2020-09-10T15:26:15.575Z</time>
      </trkpt>
      <trkpt lat="48.026184" lon="10.585206">
        <ele>661.053012</ele>
        <time>2020-09-10T15:26:17.588Z</time>
      </trkpt>
      <trkpt lat="48.026065" lon="10.585238">
        <ele>661.109684</ele>
        <time>2020-09-10T15:26:19.588Z</time>
      </trkpt>
      <trkpt lat="48.025944" lon="10.585272">
        <ele>661.167392</ele>
        <time>2020-09-10T15:26:21.584Z</time>
      </trkpt>
      <trkpt lat="48.025817" lon="10.585305">
        <ele>661.227812</ele>
        <time>2020-09-10T15:26:23.585Z</time>
      </trkpt>
      <trkpt lat="48.025692" lon="10.585350">
        <ele>661.288076</ele>
        <time>2020-09-10T15:26:25.585Z</time>
      </trkpt>
      <trkpt lat="48.025564" lon="10.585401">
        <ele>661.350166</ele>
        <time>2020-09-10T15:26:27.601Z</time>
      </trkpt>
      <trkpt lat="48.025438" lon="10.585443">
        <ele>661.410675</ele>
        <time>2020-09-10T15:26:29.584Z</time>
      </trkpt>
      <trkpt lat="48.025316" lon="10.585484">
        <ele>661.461430</ele>
        <time>2020-09-10T15:26:31.584Z</time>
      </trkpt>
      <trkpt lat="48.025188" lon="10.585518">
        <ele>661.479785</ele>
        <time>2020-09-10T15:26:33.584Z</time>
      </trkpt>
      <trkpt lat="48.025061" lon="10.585558">
        <ele>661.498110</ele>
        <time>2020-09-10T15:26:35.586Z</time>
      </trkpt>
      <trkpt lat="48.024931" lon="10.585591">
        <ele>661.516728</ele>
        <time>2020-09-10T15:26:37.584Z</time>
      </trkpt>
      <trkpt lat="48.024806" lon="10.585627">
        <ele>661.534701</ele>
        <time>2020-09-10T15:26:39.578Z</time>
      </trkpt>
      <trkpt lat="48.024690" lon="10.585665">
        <ele>661.551468</ele>
        <time>2020-09-10T15:26:41.593Z</time>
      </trkpt>
      <trkpt lat="48.024578" lon="10.585699">
        <ele>661.567604</ele>
        <time>2020-09-10T15:26:43.582Z</time>
      </trkpt>
      <trkpt lat="48.024464" lon="10.585729">
        <ele>661.583947</ele>
        <time>2020-09-10T15:26:45.565Z</time>
      </trkpt>
      <trkpt lat="48.024349" lon="10.585763">
        <ele>661.600499</ele>
        <time>2020-09-10T15:26:47.569Z</time>
      </trkpt>
      <trkpt lat="48.024244" lon="10.585797">
        <ele>661.615668</ele>
        <time>2020-09-10T15:26:49.578Z</time>
      </trkpt>
      <trkpt lat="48.024137" lon="10.585823">
        <ele>661.630974</ele>
        <time>2020-09-10T15:26:51.588Z</time>
      </trkpt>
      <trkpt lat="48.024043" lon="10.585843">
        <ele>661.644379</ele>
        <time>2020-09-10T15:26:53.582Z</time>
      </trkpt>
      <trkpt lat="48.023950" lon="10.585870">
        <ele>661.657755</ele>
        <time>2020-09-10T15:26:55.592Z</time>
      </trkpt>
      <trkpt lat="48.023858" lon="10.585897">
        <ele>661.670993</ele>
        <time>2020-09-10T15:26:57.599Z</time>
      </trkpt>
      <trkpt lat="48.023768" lon="10.585918">
        <ele>661.683854</ele>
        <time>2020-09-10T15:26:59.592Z</time>
      </trkpt>
      <trkpt lat="48.023673" lon="10.585951">
        <ele>661.697625</ele>
        <time>2020-09-10T15:27:01.556Z</time>
      </trkpt>
      <trkpt lat="48.023574" lon="10.585987">
        <ele>661.712086</ele>
        <time>2020-09-10T15:27:03.587Z</time>
      </trkpt>
      <trkpt lat="48.023474" lon="10.586026">
        <ele>661.816503</ele>
        <time>2020-09-10T15:27:05.582Z</time>
      </trkpt>
      <trkpt lat="48.023371" lon="10.586056">
        <ele>661.922525</ele>
        <time>2020-09-10T15:27:07.591Z</time>
      </trkpt>
      <trkpt lat="48.023262" lon="10.586087">
        <ele>662.034629</ele>
        <time>2020-09-10T15:27:09.586Z</time>
      </trkpt>
      <trkpt lat="48.023152" lon="10.586145">
        <ele>662.152476</ele>
        <time>2020-09-10T15:27:11.584Z</time>
      </trkpt>
      <trkpt lat="48.023061" lon="10.586235">
        <ele>662.262713</ele>
        <time>2020-09-10T15:27:13.580Z</time>
      </trkpt>
      <trkpt lat="48.022968" lon="10.586329">
        <ele>662.376133</ele>
        <time>2020-09-10T15:27:15.589Z</time>
      </trkpt>
      <trkpt lat="48.022868" lon="10.586426">
        <ele>662.496568</ele>
        <time>2020-09-10T15:27:17.587Z</time>
      </trkpt>
      <trkpt lat="48.022768" lon="10.586521">
        <ele>662.616274</ele>
        <time>2020-09-10T15:27:19.580Z</time>
      </trkpt>
      <trkpt lat="48.022675" lon="10.586612">
        <ele>662.728571</ele>
        <time>2020-09-10T15:27:21.590Z</time>
      </trkpt>
      <trkpt lat="48.022583" lon="10.586702">
        <ele>662.839652</ele>
        <time>2020-09-10T15:27:23.580Z</time>
      </trkpt>
      <trkpt lat="48.022498" lon="10.586788">
        <ele>662.943348</ele>
        <time>2020-09-10T15:27:25.580Z</time>
      </trkpt>
      <trkpt lat="48.022412" lon="10.586864">
        <ele>663.044282</ele>
        <time>2020-09-10T15:27:27.589Z</time>
      </trkpt>
      <trkpt lat="48.022327" lon="10.586945">
        <ele>663.146123</ele>
        <time>2020-09-10T15:27:29.582Z</time>
      </trkpt>
      <trkpt lat="48.022234" lon="10.587033">
        <ele>663.257323</ele>
        <time>2020-09-10T15:27:31.592Z</time>
      </trkpt>
      <trkpt lat="48.022143" lon="10.587138">
        <ele>663.373461</ele>
        <time>2020-09-10T15:27:33.582Z</time>
      </trkpt>
      <trkpt lat="48.022067" lon="10.587262">
        <ele>663.487118</ele>
        <time>2020-09-10T15:27:35.582Z</time>
      </trkpt>
      <trkpt lat="48.021992" lon="10.587389">
        <ele>663.557256</ele>
        <time>2020-09-10T15:27:37.578Z</time>
      </trkpt>
      <trkpt lat="48.021917" lon="10.587508">
        <ele>663.600009</ele>
        <time>2020-09-10T15:27:39.588Z</time>
      </trkpt>
      <trkpt lat="48.021840" lon="10.587617">
        <ele>663.641462</ele>
        <time>2020-09-10T15:27:41.582Z</time>
      </trkpt>
      <trkpt lat="48.021760" lon="10.587718">
        <ele>663.682395</ele>
        <time>2020-09-10T15:27:43.565Z</time>
      </trkpt>
      <trkpt lat="48.021681" lon="10.587825">
        <ele>663.724067</ele>
        <time>2020-09-10T15:27:45.587Z</time>
      </trkpt>
      <trkpt lat="48.021595" lon="10.587924">
        <ele>663.766498</ele>
        <time>2020-09-10T15:27:47.580Z</time>
      </trkpt>
      <trkpt lat="48.021511" lon="10.588030">
        <ele>663.809470</ele>
        <time>2020-09-10T15:27:49.593Z</time>
      </trkpt>
      <trkpt lat="48.021425" lon="10.588132">
        <ele>663.852384</ele>
        <time>2020-09-10T15:27:51.589Z</time>
      </trkpt>
      <trkpt lat="48.021341" lon="10.588218">
        <ele>663.892183</ele>
        <time>2020-09-10T15:27:53.588Z</time>
      </trkpt>
      <trkpt lat="48.021246" lon="10.588309">
        <ele>663.936290</ele>
        <time>2020-09-10T15:27:55.586Z</time>
      </trkpt>
      <trkpt lat="48.021147" lon="10.588397">
        <ele>663.981316</ele>
        <time>2020-09-10T15:27:57.584Z</time>
      </trkpt>
      <trkpt lat="48.021054" lon="10.588489">
        <ele>664.024911</ele>
        <time>2020-09-10T15:27:59.585Z</time>
      </trkpt>
      <trkpt lat="48.020963" lon="10.588565">
        <ele>664.065660</ele>
        <time>2020-09-10T15:28:01.589Z</time>
      </trkpt>
      <trkpt lat="48.020875" lon="10.588635">
        <ele>664.104628</ele>
        <time>2020-09-10T15:28:03.568Z</time>
      </trkpt>
      <trkpt lat="48.020791" lon="10.588693">
        <ele>664.140799</ele>
        <time>2020-09-10T15:28:05.576Z</time>
      </trkpt>
      <trkpt lat="48.020692" lon="10.588718">
        <ele>664.180049</ele>
        <time>2020-09-10T15:28:07.561Z</time>
      </trkpt>
      <trkpt lat="48.020589" lon="10.588736">
        <ele>664.220589</ele>
        <time>2020-09-10T15:28:09.563Z</time>
      </trkpt>
      <trkpt lat="48.020488" lon="10.588760">
        <ele>664.224865</ele>
        <time>2020-09-10T15:28:11.553Z</time>
      </trkpt>
      <trkpt lat="48.020383" lon="10.588776">
        <ele>664.213810</ele>
        <time>2020-09-10T15:28:13.584Z</time>
      </trkpt>
      <trkpt lat="48.020282" lon="10.588797">
        <ele>664.203128</ele>
        <time>2020-09-10T15:28:15.580Z</time>
      </trkpt>
      <trkpt lat="48.020183" lon="10.588803">
        <ele>664.192749</ele>
        <time>2020-09-10T15:28:17.582Z</time>
      </trkpt>
      <trkpt lat="48.020078" lon="10.588821">
        <ele>664.181678</ele>
        <time>2020-09-10T15:28:19.578Z</time>
      </trkpt>
      <trkpt lat="48.019985" lon="10.588850">
        <ele>664.171726</ele>
        <time>2020-09-10T15:28:21.582Z</time>
      </trkpt>
      <trkpt lat="48.019862" lon="10.588893">
        <ele>664.158494</ele>
        <time>2020-09-10T15:28:24.582Z</time>
      </trkpt>
      <trkpt lat="48.019752" lon="10.589003">
        <ele>664.144631</ele>
        <time>2020-09-10T15:28:27.567Z</time>
      </trkpt>
      <trkpt lat="48.019652" lon="10.589078">
        <ele>664.132912</ele>
        <time>2020-09-10T15:28:29.580Z</time>
      </trkpt>
      <trkpt lat="48.019550" lon="10.589141">
        <ele>664.121351</ele>
        <time>2020-09-10T15:28:31.582Z</time>
      </trkpt>
      <trkpt lat="48.019458" lon="10.589194">
        <ele>664.111024</ele>
        <time>2020-09-10T15:28:33.582Z</time>
      </trkpt>
      <trkpt lat="48.019335" lon="10.589266">
        <ele>664.097187</ele>
        <time>2020-09-10T15:28:36.587Z</time>
      </trkpt>
      <trkpt lat="48.019244" lon="10.589312">
        <ele>664.087124</ele>
        <time>2020-09-10T15:28:38.592Z</time>
      </trkpt>
      <trkpt lat="48.019153" lon="10.589362">
        <ele>664.076968</ele>
        <time>2020-09-10T15:28:40.590Z</time>
      </trkpt>
      <trkpt lat="48.019055" lon="10.589414">
        <ele>664.066075</ele>
        <time>2020-09-10T15:28:42.587Z</time>
      </trkpt>
      <trkpt lat="48.018959" lon="10.589459">
        <ele>664.055536</ele>
        <time>2020-09-10T15:28:44.584Z</time>
      </trkpt>
      <trkpt lat="48.018866" lon="10.589506">
        <ele>664.045253</ele>
        <time>2020-09-10T15:28:46.587Z</time>
      </trkpt>
      <trkpt lat="48.018771" lon="10.589556">
        <ele>663.985194</ele>
        <time>2020-09-10T15:28:48.587Z</time>
      </trkpt>
      <trkpt lat="48.018678" lon="10.589605">
        <ele>663.919855</ele>
        <time>2020-09-10T15:28:50.585Z</time>
      </trkpt>
      <trkpt lat="48.018586" lon="10.589657">
        <ele>663.854684</ele>
        <time>2020-09-10T15:28:52.598Z</time>
      </trkpt>
      <trkpt lat="48.018495" lon="10.589705">
        <ele>663.790743</ele>
        <time>2020-09-10T15:28:54.586Z</time>
      </trkpt>
      <trkpt lat="48.018394" lon="10.589734">
        <ele>663.722596</ele>
        <time>2020-09-10T15:28:56.581Z</time>
      </trkpt>
      <trkpt lat="48.018287" lon="10.589751">
        <ele>663.651297</ele>
        <time>2020-09-10T15:28:58.580Z</time>
      </trkpt>
      <trkpt lat="48.018174" lon="10.589750">
        <ele>663.576420</ele>
        <time>2020-09-10T15:29:00.579Z</time>
      </trkpt>
      <trkpt lat="48.018066" lon="10.589765">
        <ele>663.504549</ele>
        <time>2020-09-10T15:29:02.599Z</time>
      </trkpt>
      <trkpt lat="48.017932" lon="10.589773">
        <ele>663.415688</ele>
        <time>2020-09-10T15:29:05.582Z</time>
      </trkpt>
      <trkpt lat="48.017841" lon="10.589787">
        <ele>663.355072</ele>
        <time>2020-09-10T15:29:07.584Z</time>
      </trkpt>
      <trkpt lat="48.017745" lon="10.589799">
        <ele>663.291239</ele>
        <time>2020-09-10T15:29:09.580Z</time>
      </trkpt>
      <trkpt lat="48.017651" lon="10.589815">
        <ele>663.228551</ele>
        <time>2020-09-10T15:29:11.582Z</time>
      </trkpt>
      <trkpt lat="48.017527" lon="10.589856">
        <ele>663.144401</ele>
        <time>2020-09-10T15:29:14.583Z</time>
      </trkpt>
      <trkpt lat="48.017435" lon="10.589884">
        <ele>663.082190</ele>
        <time>2020-09-10T15:29:16.583Z</time>
      </trkpt>
      <trkpt lat="48.017334" lon="10.589916">
        <ele>663.013779</ele>
        <time>2020-09-10T15:29:18.584Z</time>
      </trkpt>
      <trkpt lat="48.017227" lon="10.589950">
        <ele>662.941296</ele>
        <time>2020-09-10T15:29:20.586Z</time>
      </trkpt>
      <trkpt lat="48.017124" lon="10.589988">
        <ele>662.870999</ele>
        <time>2020-09-10T15:29:22.562Z</time>
      </trkpt>
      <trkpt lat="48.017024" lon="10.590026">
        <ele>662.974888</ele>
        <time>2020-09-10T15:29:24.582Z</time>
      </trkpt>
      <trkpt lat="48.016927" lon="10.590068">
        <ele>663.140546</ele>
        <time>2020-09-10T15:29:26.582Z</time>
      </trkpt>
      <trkpt lat="48.016829" lon="10.590105">
        <ele>663.306352</ele>
        <time>2020-09-10T15:29:28.582Z</time>
      </trkpt>
      <trkpt lat="48.016731" lon="10.590134">
        <ele>663.470230</ele>
        <time>2020-09-10T15:29:30.588Z</time>
      </trkpt>
      <trkpt lat="48.016624" lon="10.590174">
        <ele>663.651157</ele>
        <time>2020-09-10T15:29:32.586Z</time>
      </trkpt>
      <trkpt lat="48.016521" lon="10.590216">
        <ele>663.826290</ele>
        <time>2020-09-10T15:29:34.591Z</time>
      </trkpt>
      <trkpt lat="48.016421" lon="10.590247">
        <ele>663.993820</ele>
        <time>2020-09-10T15:29:36.584Z</time>
      </trkpt>
      <trkpt lat="48.016319" lon="10.590287">
        <ele>664.166801</ele>
        <time>2020-09-10T15:29:38.577Z</time>
      </trkpt>
      <trkpt lat="48.016218" lon="10.590318">
        <ele>664.335937</ele>
        <time>2020-09-10T15:29:40.581Z</time>
      </trkpt>
      <trkpt lat="48.016125" lon="10.590362">
        <ele>664.495951</ele>
        <time>2020-09-10T15:29:42.580Z</time>
      </trkpt>
      <trkpt lat="48.016018" lon="10.590403">
        <ele>664.677148</ele>
        <time>2020-09-10T15:29:44.578Z</time>
      </trkpt>
      <trkpt lat="48.015907" lon="10.590437">
        <ele>664.863014</ele>
        <time>2020-09-10T15:29:46.582Z</time>
      </trkpt>
      <trkpt lat="48.015792" lon="10.590478">
        <ele>665.056950</ele>
        <time>2020-09-10T15:29:48.583Z</time>
      </trkpt>
      <trkpt lat="48.015679" lon="10.590512">
        <ele>665.246032</ele>
        <time>2020-09-10T15:29:50.576Z</time>
      </trkpt>
      <trkpt lat="48.015578" lon="10.590546">
        <ele>665.415861</ele>
        <time>2020-09-10T15:29:52.584Z</time>
      </trkpt>
      <trkpt lat="48.015478" lon="10.590575">
        <ele>665.582959</ele>
        <time>2020-09-10T15:29:54.581Z</time>
      </trkpt>
      <trkpt lat="48.015373" lon="10.590613">
        <ele>665.760176</ele>
        <time>2020-09-10T15:29:56.580Z</time>
      </trkpt>
      <trkpt lat="48.015263" lon="10.590645">
        <ele>665.863093</ele>
        <time>2020-09-10T15:29:58.580Z</time>
      </trkpt>
      <trkpt lat="48.015155" lon="10.590678">
        <ele>665.940393</ele>
        <time>2020-09-10T15:30:00.579Z</time>
      </trkpt>
      <trkpt lat="48.015044" lon="10.590714">
        <ele>666.020042</ele>
        <time>2020-09-10T15:30:02.582Z</time>
      </trkpt>
      <trkpt lat="48.014937" lon="10.590750">
        <ele>666.096953</ele>
        <time>2020-09-10T15:30:04.583Z</time>
      </trkpt>
      <trkpt lat="48.014830" lon="10.590790">
        <ele>666.174296</ele>
        <time>2020-09-10T15:30:06.582Z</time>
      </trkpt>
      <trkpt lat="48.014718" lon="10.590828">
        <ele>666.254833</ele>
        <time>2020-09-10T15:30:08.589Z</time>
      </trkpt>
      <trkpt lat="48.014616" lon="10.590874">
        <ele>666.329544</ele>
        <time>2020-09-10T15:30:10.582Z</time>
      </trkpt>
      <trkpt lat="48.014524" lon="10.590928">
        <ele>666.398854</ele>
        <time>2020-09-10T15:30:12.600Z</time>
      </trkpt>
      <trkpt lat="48.014432" lon="10.590968">
        <ele>666.466042</ele>
        <time>2020-09-10T15:30:14.577Z</time>
      </trkpt>
      <trkpt lat="48.014336" lon="10.591002">
        <ele>666.535225</ele>
        <time>2020-09-10T15:30:16.586Z</time>
      </trkpt>
      <trkpt lat="48.014221" lon="10.591055">
        <ele>666.619614</ele>
        <time>2020-09-10T15:30:18.585Z</time>
      </trkpt>
      <trkpt lat="48.014110" lon="10.591120">
        <ele>666.703211</ele>
        <time>2020-09-10T15:30:20.580Z</time>
      </trkpt>
      <trkpt lat="48.014010" lon="10.591181">
        <ele>666.778949</ele>
        <time>2020-09-10T15:30:22.582Z</time>
      </trkpt>
      <trkpt lat="48.013911" lon="10.591236">
        <ele>666.853012</ele>
        <time>2020-09-10T15:30:24.586Z</time>
      </trkpt>
      <trkpt lat="48.013825" lon="10.591284">
        <ele>666.917385</ele>
        <time>2020-09-10T15:30:26.586Z</time>
      </trkpt>
      <trkpt lat="48.013736" lon="10.591313">
        <ele>666.981261</ele>
        <time>2020-09-10T15:30:28.582Z</time>
      </trkpt>
      <trkpt lat="48.013640" lon="10.591320">
        <ele>667.048661</ele>
        <time>2020-09-10T15:30:30.565Z</time>
      </trkpt>
      <trkpt lat="48.013531" lon="10.591305">
        <ele>667.198167</ele>
        <time>2020-09-10T15:30:32.555Z</time>
      </trkpt>
      <trkpt lat="48.013429" lon="10.591271">
        <ele>667.358206</ele>
        <time>2020-09-10T15:30:34.578Z</time>
      </trkpt>
      <trkpt lat="48.013327" lon="10.591236">
        <ele>667.518471</ele>
        <time>2020-09-10T15:30:36.586Z</time>
      </trkpt>
      <trkpt lat="48.013231" lon="10.591195">
        <ele>667.671367</ele>
        <time>2020-09-10T15:30:38.577Z</time>
      </trkpt>
      <trkpt lat="48.013136" lon="10.591170">
        <ele>667.819087</ele>
        <time>2020-09-10T15:30:40.581Z</time>
      </trkpt>
      <trkpt lat="48.013017" lon="10.591135">
        <ele>668.004817</ele>
        <time>2020-09-10T15:30:43.581Z</time>
      </trkpt>
      <trkpt lat="48.012890" lon="10.591104">
        <ele>668.201880</ele>
        <time>2020-09-10T15:30:46.572Z</time>
      </trkpt>
      <trkpt lat="48.012758" lon="10.591094">
        <ele>668.404284</ele>
        <time>2020-09-10T15:30:49.576Z</time>
      </trkpt>
      <trkpt lat="48.012669" lon="10.591065">
        <ele>668.543778</ele>
        <time>2020-09-10T15:30:51.567Z</time>
      </trkpt>
      <trkpt lat="48.012554" lon="10.591076">
        <ele>668.720249</ele>
        <time>2020-09-10T15:30:54.568Z</time>
      </trkpt>
      <trkpt lat="48.012427" lon="10.591116">
        <ele>668.919006</ele>
        <time>2020-09-10T15:30:57.564Z</time>
      </trkpt>
      <trkpt lat="48.012294" lon="10.591137">
        <ele>669.123815</ele>
        <time>2020-09-10T15:31:00.580Z</time>
      </trkpt>
      <trkpt lat="48.012199" lon="10.591154">
        <ele>669.270337</ele>
        <time>2020-09-10T15:31:02.586Z</time>
      </trkpt>
      <trkpt lat="48.012103" lon="10.591190">
        <ele>669.421906</ele>
        <time>2020-09-10T15:31:04.594Z</time>
      </trkpt>
      <trkpt lat="48.012012" lon="10.591241">
        <ele>669.570736</ele>
        <time>2020-09-10T15:31:06.584Z</time>
      </trkpt>
      <trkpt lat="48.011911" lon="10.591275">
        <ele>669.729280</ele>
        <time>2020-09-10T15:31:08.579Z</time>
      </trkpt>
      <trkpt lat="48.011803" lon="10.591315">
        <ele>669.974169</ele>
        <time>2020-09-10T15:31:10.584Z</time>
      </trkpt>
      <trkpt lat="48.011693" lon="10.591355">
        <ele>670.306458</ele>
        <time>2020-09-10T15:31:12.587Z</time>
      </trkpt>
      <trkpt lat="48.011596" lon="10.591406">
        <ele>670.608272</ele>
        <time>2020-09-10T15:31:14.583Z</time>
      </trkpt>
      <trkpt lat="48.011493" lon="10.591452">
        <ele>670.923803</ele>
        <time>2020-09-10T15:31:16.587Z</time>
      </trkpt>
      <trkpt lat="48.011394" lon="10.591488">
        <ele>671.222863</ele>
        <time>2020-09-10T15:31:18.582Z</time>
      </trkpt>
      <trkpt lat="48.011301" lon="10.591520">
        <ele>671.502976</ele>
        <time>2020-09-10T15:31:20.590Z</time>
      </trkpt>
      <trkpt lat="48.011181" lon="10.591571">
        <ele>671.869161</ele>
        <time>2020-09-10T15:31:23.580Z</time>
      </trkpt>
      <trkpt lat="48.011087" lon="10.591613">
        <ele>672.157133</ele>
        <time>2020-09-10T15:31:25.574Z</time>
      </trkpt>
      <trkpt lat="48.010981" lon="10.591660">
        <ele>672.481665</ele>
        <time>2020-09-10T15:31:27.578Z</time>
      </trkpt>
      <trkpt lat="48.010876" lon="10.591698">
        <ele>672.798766</ele>
        <time>2020-09-10T15:31:29.580Z</time>
      </trkpt>
      <trkpt lat="48.010749" lon="10.591707">
        <ele>673.171956</ele>
        <time>2020-09-10T15:31:32.575Z</time>
      </trkpt>
      <trkpt lat="48.010654" lon="10.591690">
        <ele>673.452792</ele>
        <time>2020-09-10T15:31:34.573Z</time>
      </trkpt>
      <trkpt lat="48.010558" lon="10.591676">
        <ele>673.735910</ele>
        <time>2020-09-10T15:31:36.580Z</time>
      </trkpt>
      <trkpt lat="48.010457" lon="10.591676">
        <ele>674.032366</ele>
        <time>2020-09-10T15:31:38.598Z</time>
      </trkpt>
      <trkpt lat="48.010341" lon="10.591697">
        <ele>674.375338</ele>
        <time>2020-09-10T15:31:40.584Z</time>
      </trkpt>
      <trkpt lat="48.010235" lon="10.591728">
        <ele>674.692370</ele>
        <time>2020-09-10T15:31:42.601Z</time>
      </trkpt>
      <trkpt lat="48.010138" lon="10.591753">
        <ele>674.981286</ele>
        <time>2020-09-10T15:31:44.588Z</time>
      </trkpt>
      <trkpt lat="48.010040" lon="10.591791">
        <ele>675.126583</ele>
        <time>2020-09-10T15:31:46.576Z</time>
      </trkpt>
      <trkpt lat="48.009945" lon="10.591837">
        <ele>675.173284</ele>
        <time>2020-09-10T15:31:48.573Z</time>
      </trkpt>
      <trkpt lat="48.009838" lon="10.591860">
        <ele>675.223838</ele>
        <time>2020-09-10T15:31:50.586Z</time>
      </trkpt>
      <trkpt lat="48.009730" lon="10.591885">
        <ele>675.274948</ele>
        <time>2020-09-10T15:31:52.587Z</time>
      </trkpt>
      <trkpt lat="48.009631" lon="10.591912">
        <ele>675.322011</ele>
        <time>2020-09-10T15:31:54.596Z</time>
      </trkpt>
      <trkpt lat="48.009528" lon="10.591954">
        <ele>675.371940</ele>
        <time>2020-09-10T15:31:56.591Z</time>
      </trkpt>
      <trkpt lat="48.009439" lon="10.591998">
        <ele>675.415780</ele>
        <time>2020-09-10T15:31:58.586Z</time>
      </trkpt>
      <trkpt lat="48.009334" lon="10.592033">
        <ele>675.466090</ele>
        <time>2020-09-10T15:32:00.585Z</time>
      </trkpt>
      <trkpt lat="48.009223" lon="10.592059">
        <ele>675.518634</ele>
        <time>2020-09-10T15:32:02.588Z</time>
      </trkpt>
      <trkpt lat="48.009128" lon="10.592089">
        <ele>675.564043</ele>
        <time>2020-09-10T15:32:04.576Z</time>
      </trkpt>
      <trkpt lat="48.009030" lon="10.592119">
        <ele>675.610825</ele>
        <time>2020-09-10T15:32:06.575Z</time>
      </trkpt>
      <trkpt lat="48.008898" lon="10.592149">
        <ele>675.673266</ele>
        <time>2020-09-10T15:32:09.578Z</time>
      </trkpt>
      <trkpt lat="48.008811" lon="10.592204">
        <ele>675.717442</ele>
        <time>2020-09-10T15:32:11.579Z</time>
      </trkpt>
      <trkpt lat="48.008708" lon="10.592239">
        <ele>675.766840</ele>
        <time>2020-09-10T15:32:13.581Z</time>
      </trkpt>
      <trkpt lat="48.008600" lon="10.592252">
        <ele>675.817511</ele>
        <time>2020-09-10T15:32:15.573Z</time>
      </trkpt>
      <trkpt lat="48.008501" lon="10.592247">
        <ele>675.863836</ele>
        <time>2020-09-10T15:32:17.583Z</time>
      </trkpt>
      <trkpt lat="48.008363" lon="10.592313">
        <ele>675.931597</ele>
        <time>2020-09-10T15:32:22.566Z</time>
      </trkpt>
      <trkpt lat="48.008252" lon="10.592350">
        <ele>676.186423</ele>
        <time>2020-09-10T15:32:24.601Z</time>
      </trkpt>
      <trkpt lat="48.008144" lon="10.592372">
        <ele>676.461691</ele>
        <time>2020-09-10T15:32:26.581Z</time>
      </trkpt>
      <trkpt lat="48.008049" lon="10.592400">
        <ele>676.706227</ele>
        <time>2020-09-10T15:32:28.581Z</time>
      </trkpt>
      <trkpt lat="48.007956" lon="10.592418">
        <ele>676.943053</ele>
        <time>2020-09-10T15:32:30.580Z</time>
      </trkpt>
      <trkpt lat="48.007865" lon="10.592436">
        <ele>677.174871</ele>
        <time>2020-09-10T15:32:32.587Z</time>
      </trkpt>
      <trkpt lat="48.007756" lon="10.592444">
        <ele>677.450475</ele>
        <time>2020-09-10T15:32:35.582Z</time>
      </trkpt>
      <trkpt lat="48.007665" lon="10.592411">
        <ele>677.686956</ele>
        <time>2020-09-10T15:32:38.582Z</time>
      </trkpt>
      <trkpt lat="48.007550" lon="10.592408">
        <ele>677.977425</ele>
        <time>2020-09-10T15:32:41.587Z</time>
      </trkpt>
      <trkpt lat="48.007410" lon="10.592410">
        <ele>678.331002</ele>
        <time>2020-09-10T15:32:44.584Z</time>
      </trkpt>
      <trkpt lat="48.007316" lon="10.592394">
        <ele>678.569927</ele>
        <time>2020-09-10T15:32:46.589Z</time>
      </trkpt>
      <trkpt lat="48.007200" lon="10.592336">
        <ele>678.878833</ele>
        <time>2020-09-10T15:32:49.589Z</time>
      </trkpt>
      <trkpt lat="48.007103" lon="10.592299">
        <ele>679.131651</ele>
        <time>2020-09-10T15:32:54.585Z</time>
      </trkpt>
      <trkpt lat="48.007002" lon="10.592223">
        <ele>679.417220</ele>
        <time>2020-09-10T15:33:03.568Z</time>
      </trkpt>
      <trkpt lat="48.006913" lon="10.592132">
        <ele>679.689542</ele>
        <time>2020-09-10T15:33:06.583Z</time>
      </trkpt>
      <trkpt lat="48.006822" lon="10.592118">
        <ele>679.920570</ele>
        <time>2020-09-10T15:33:09.560Z</time>
      </trkpt>
      <trkpt lat="48.006735" lon="10.592079">
        <ele>680.149952</ele>
        <time>2020-09-10T15:33:12.566Z</time>
      </trkpt>
      <trkpt lat="48.006645" lon="10.591993">
        <ele>680.419720</ele>
        <time>2020-09-10T15:33:15.563Z</time>
      </trkpt>
      <trkpt lat="48.006543" lon="10.591892">
        <ele>680.642572</ele>
        <time>2020-09-10T15:33:18.582Z</time>
      </trkpt>
      <trkpt lat="48.006433" lon="10.591804">
        <ele>680.847951</ele>
        <time>2020-09-10T15:33:21.583Z</time>
      </trkpt>
      <trkpt lat="48.006319" lon="10.591730">
        <ele>681.052543</ele>
        <time>2020-09-10T15:33:24.598Z</time>
      </trkpt>
      <trkpt lat="48.006229" lon="10.591671">
        <ele>681.214318</ele>
        <time>2020-09-10T15:33:26.591Z</time>
      </trkpt>
      <trkpt lat="48.006123" lon="10.591556">
        <ele>681.429929</ele>
        <time>2020-09-10T15:33:29.584Z</time>
      </trkpt>
      <trkpt lat="48.006013" lon="10.591478">
        <ele>681.630347</ele>
        <time>2020-09-10T15:33:32.584Z</time>
      </trkpt>
      <trkpt lat="48.005888" lon="10.591420">
        <ele>681.845800</ele>
        <time>2020-09-10T15:33:35.583Z</time>
      </trkpt>
      <trkpt lat="48.005785" lon="10.591349">
        <ele>682.032514</ele>
        <time>2020-09-10T15:33:38.590Z</time>
      </trkpt>
      <trkpt lat="48.005693" lon="10.591252">
        <ele>682.217846</ele>
        <time>2020-09-10T15:33:41.578Z</time>
      </trkpt>
      <trkpt lat="48.005616" lon="10.591181">
        <ele>682.366777</ele>
        <time>2020-09-10T15:33:43.572Z</time>
      </trkpt>
      <trkpt lat="48.005502" lon="10.591082">
        <ele>682.583812</ele>
        <time>2020-09-10T15:33:46.571Z</time>
      </trkpt>
      <trkpt lat="48.005384" lon="10.590987">
        <ele>682.804442</ele>
        <time>2020-09-10T15:33:49.576Z</time>
      </trkpt>
      <trkpt lat="48.005256" lon="10.590925">
        <ele>683.025935</ele>
        <time>2020-09-10T15:33:52.580Z</time>
      </trkpt>
      <trkpt lat="48.005143" lon="10.590891">
        <ele>683.215679</ele>
        <time>2020-09-10T15:33:55.566Z</time>
      </trkpt>
      <trkpt lat="48.005045" lon="10.590852">
        <ele>683.382620</ele>
        <time>2020-09-10T15:33:58.583Z</time>
      </trkpt>
      <trkpt lat="48.004943" lon="10.590802">
        <ele>683.372263</ele>
        <time>2020-09-10T15:34:01.580Z</time>
      </trkpt>
      <trkpt lat="48.004843" lon="10.590743">
        <ele>683.266822</ele>
        <time>2020-09-10T15:34:04.582Z</time>
      </trkpt>
      <trkpt lat="48.004757" lon="10.590699">
        <ele>683.177671</ele>
        <time>2020-09-10T15:34:07.583Z</time>
      </trkpt>
      <trkpt lat="48.004556" lon="10.590639">
        <ele>682.976644</ele>
        <time>2020-09-10T15:35:24.583Z</time>
      </trkpt>
      <trkpt lat="48.004468" lon="10.590582">
        <ele>682.882581</ele>
        <time>2020-09-10T15:35:27.589Z</time>
      </trkpt>
      <trkpt lat="48.004360" lon="10.590524">
        <ele>682.770028</ele>
        <time>2020-09-10T15:35:31.581Z</time>
      </trkpt>
      <trkpt lat="48.004247" lon="10.590485">
        <ele>682.656285</ele>
        <time>2020-09-10T15:35:35.578Z</time>
      </trkpt>
      <trkpt lat="48.004149" lon="10.590432">
        <ele>682.554072</ele>
        <time>2020-09-10T15:35:38.587Z</time>
      </trkpt>
      <trkpt lat="48.004052" lon="10.590350">
        <ele>682.444775</ele>
        <time>2020-09-10T15:35:41.553Z</time>
      </trkpt>
      <trkpt lat="48.003971" lon="10.590282">
        <ele>682.353659</ele>
        <time>2020-09-10T15:35:44.593Z</time>
      </trkpt>
      <trkpt lat="48.003872" lon="10.590205">
        <ele>682.244202</ele>
        <time>2020-09-10T15:35:47.586Z</time>
      </trkpt>
      <trkpt lat="48.003768" lon="10.590133">
        <ele>682.131792</ele>
        <time>2020-09-10T15:35:50.587Z</time>
      </trkpt>
      <trkpt lat="48.003675" lon="10.590071">
        <ele>682.031918</ele>
        <time>2020-09-10T15:35:54.587Z</time>
      </trkpt>
      <trkpt lat="48.003563" lon="10.590003">
        <ele>681.913355</ele>
        <time>2020-09-10T15:35:58.596Z</time>
      </trkpt>
      <trkpt lat="48.003451" lon="10.590027">
        <ele>681.802386</ele>
        <time>2020-09-10T15:36:01.571Z</time>
      </trkpt>
      <trkpt lat="48.003334" lon="10.590071">
        <ele>681.684060</ele>
        <time>2020-09-10T15:36:04.593Z</time>
      </trkpt>
      <trkpt lat="48.003252" lon="10.590157">
        <ele>681.930761</ele>
        <time>2020-09-10T15:36:07.580Z</time>
      </trkpt>
      <trkpt lat="48.003184" lon="10.590245">
        <ele>682.172424</ele>
        <time>2020-09-10T15:36:10.551Z</time>
      </trkpt>
      <trkpt lat="48.003088" lon="10.590196">
        <ele>682.444970</ele>
        <time>2020-09-10T15:36:18.584Z</time>
      </trkpt>
      <trkpt lat="48.002954" lon="10.590017">
        <ele>682.927825</ele>
        <time>2020-09-10T15:37:04.556Z</time>
      </trkpt>
      <trkpt lat="48.002917" lon="10.589883">
        <ele>683.188412</ele>
        <time>2020-09-10T15:37:07.565Z</time>
      </trkpt>
      <trkpt lat="48.002880" lon="10.589737">
        <ele>683.469061</ele>
        <time>2020-09-10T15:37:10.583Z</time>
      </trkpt>
      <trkpt lat="48.002850" lon="10.589581">
        <ele>683.760845</ele>
        <time>2020-09-10T15:37:13.585Z</time>
      </trkpt>
      <trkpt lat="48.002820" lon="10.589411">
        <ele>684.076892</ele>
        <time>2020-09-10T15:37:17.586Z</time>
      </trkpt>
      <trkpt lat="48.002796" lon="10.589264">
        <ele>684.348898</ele>
        <time>2020-09-10T15:37:20.584Z</time>
      </trkpt>
      <trkpt lat="48.002770" lon="10.589128">
        <ele>684.603160</ele>
        <time>2020-09-10T15:37:23.591Z</time>
      </trkpt>
      <trkpt lat="48.002750" lon="10.588992">
        <ele>684.853473</ele>
        <time>2020-09-10T15:37:26.586Z</time>
      </trkpt>
      <trkpt lat="48.002726" lon="10.588843">
        <ele>685.128973</ele>
        <time>2020-09-10T15:37:29.614Z</time>
      </trkpt>
      <trkpt lat="48.002710" lon="10.588704">
        <ele>685.382515</ele>
        <time>2020-09-10T15:37:32.587Z</time>
      </trkpt>
      <trkpt lat="48.002675" lon="10.588544">
        <ele>685.685118</ele>
        <time>2020-09-10T15:37:36.580Z</time>
      </trkpt>
      <trkpt lat="48.002632" lon="10.588410">
        <ele>685.952272</ele>
        <time>2020-09-10T15:37:39.578Z</time>
      </trkpt>
      <trkpt lat="48.002608" lon="10.588280">
        <ele>686.194698</ele>
        <time>2020-09-10T15:37:42.581Z</time>
      </trkpt>
      <trkpt lat="48.002578" lon="10.588103">
        <ele>686.508626</ele>
        <time>2020-09-10T15:37:46.579Z</time>
      </trkpt>
      <trkpt lat="48.002552" lon="10.587956">
        <ele>686.469557</ele>
        <time>2020-09-10T15:37:49.576Z</time>
      </trkpt>
      <trkpt lat="48.002516" lon="10.587807">
        <ele>686.428852</ele>
        <time>2020-09-10T15:37:52.584Z</time>
      </trkpt>
      <trkpt lat="48.002491" lon="10.587666">
        <ele>686.391371</ele>
        <time>2020-09-10T15:37:55.582Z</time>
      </trkpt>
      <trkpt lat="48.002474" lon="10.587522">
        <ele>686.353799</ele>
        <time>2020-09-10T15:37:58.577Z</time>
      </trkpt>
      <trkpt lat="48.002450" lon="10.587376">
        <ele>686.315168</ele>
        <time>2020-09-10T15:38:01.575Z</time>
      </trkpt>
      <trkpt lat="48.002408" lon="10.587222">
        <ele>686.272437</ele>
        <time>2020-09-10T15:38:04.586Z</time>
      </trkpt>
      <trkpt lat="48.002361" lon="10.587080">
        <ele>686.231729</ele>
        <time>2020-09-10T15:38:07.585Z</time>
      </trkpt>
      <trkpt lat="48.002321" lon="10.586948">
        <ele>686.194495</ele>
        <time>2020-09-10T15:38:10.596Z</time>
      </trkpt>
      <trkpt lat="48.002282" lon="10.586809">
        <ele>686.155766</ele>
        <time>2020-09-10T15:38:13.583Z</time>
      </trkpt>
      <trkpt lat="48.002242" lon="10.586680">
        <ele>686.119232</ele>
        <time>2020-09-10T15:38:16.585Z</time>
      </trkpt>
      <trkpt lat="48.002200" lon="10.586537">
        <ele>686.079104</ele>
        <time>2020-09-10T15:38:19.586Z</time>
      </trkpt>
      <trkpt lat="48.002148" lon="10.586420">
        <ele>686.043013</ele>
        <time>2020-09-10T15:38:22.574Z</time>
      </trkpt>
      <trkpt lat="48.002075" lon="10.586321">
        <ele>686.005157</ele>
        <time>2020-09-10T15:38:25.560Z</time>
      </trkpt>
      <trkpt lat="48.002011" lon="10.586209">
        <ele>685.967312</ele>
        <time>2020-09-10T15:38:28.585Z</time>
      </trkpt>
      <trkpt lat="48.001930" lon="10.586085">
        <ele>685.922783</ele>
        <time>2020-09-10T15:38:31.584Z</time>
      </trkpt>
      <trkpt lat="48.001853" lon="10.585978">
        <ele>685.882406</ele>
        <time>2020-09-10T15:38:34.588Z</time>
      </trkpt>
      <trkpt lat="48.001783" lon="10.585880">
        <ele>685.845572</ele>
        <time>2020-09-10T15:38:37.578Z</time>
      </trkpt>
      <trkpt lat="48.001694" lon="10.585759">
        <ele>685.884221</ele>
        <time>2020-09-10T15:38:40.578Z</time>
      </trkpt>
      <trkpt lat="48.001603" lon="10.585644">
        <ele>686.029558</ele>
        <time>2020-09-10T15:38:43.587Z</time>
      </trkpt>
      <trkpt lat="48.001497" lon="10.585520">
        <ele>686.193723</ele>
        <time>2020-09-10T15:38:46.585Z</time>
      </trkpt>
      <trkpt lat="48.001429" lon="10.585425">
        <ele>686.307244</ele>
        <time>2020-09-10T15:38:48.581Z</time>
      </trkpt>
      <trkpt lat="48.001362" lon="10.585331">
        <ele>686.419317</ele>
        <time>2020-09-10T15:38:50.586Z</time>
      </trkpt>
      <trkpt lat="48.001272" lon="10.585200">
        <ele>686.572531</ele>
        <time>2020-09-10T15:38:53.585Z</time>
      </trkpt>
      <trkpt lat="48.001191" lon="10.585097">
        <ele>686.702234</ele>
        <time>2020-09-10T15:38:56.586Z</time>
      </trkpt>
      <trkpt lat="48.001112" lon="10.584994">
        <ele>686.830089</ele>
        <time>2020-09-10T15:38:59.578Z</time>
      </trkpt>
      <trkpt lat="48.001004" lon="10.584889">
        <ele>686.987218</ele>
        <time>2020-09-10T15:39:02.590Z</time>
      </trkpt>
      <trkpt lat="48.000920" lon="10.584753">
        <ele>687.138251</ele>
        <time>2020-09-10T15:39:05.581Z</time>
      </trkpt>
      <trkpt lat="48.000861" lon="10.584651">
        <ele>687.248276</ele>
        <time>2020-09-10T15:39:07.582Z</time>
      </trkpt>
      <trkpt lat="48.000798" lon="10.584546">
        <ele>687.363362</ele>
        <time>2020-09-10T15:39:09.581Z</time>
      </trkpt>
      <trkpt lat="48.000744" lon="10.584439">
        <ele>687.472728</ele>
        <time>2020-09-10T15:39:11.591Z</time>
      </trkpt>
      <trkpt lat="48.000669" lon="10.584281">
        <ele>687.630810</ele>
        <time>2020-09-10T15:39:14.582Z</time>
      </trkpt>
      <trkpt lat="48.000598" lon="10.584099">
        <ele>687.802726</ele>
        <time>2020-09-10T15:39:17.573Z</time>
      </trkpt>
      <trkpt lat="48.000542" lon="10.583976">
        <ele>687.924130</ele>
        <time>2020-09-10T15:39:19.582Z</time>
      </trkpt>
      <trkpt lat="48.000489" lon="10.583865">
        <ele>688.013236</ele>
        <time>2020-09-10T15:39:21.586Z</time>
      </trkpt>
      <trkpt lat="48.000405" lon="10.583749">
        <ele>688.013236</ele>
        <time>2020-09-10T15:39:24.580Z</time>
      </trkpt>
      <trkpt lat="48.000316" lon="10.583626">
        <ele>688.013236</ele>
        <time>2020-09-10T15:39:27.591Z</time>
      </trkpt>
      <trkpt lat="48.000235" lon="10.583517">
        <ele>688.013236</ele>
        <time>2020-09-10T15:39:30.583Z</time>
      </trkpt>
      <trkpt lat="48.000150" lon="10.583401">
        <ele>688.013236</ele>
        <time>2020-09-10T15:39:34.578Z</time>
      </trkpt>
      <trkpt lat="48.000059" lon="10.583293">
        <ele>688.013236</ele>
        <time>2020-09-10T15:39:37.590Z</time>
      </trkpt>
      <trkpt lat="47.999972" lon="10.583145">
        <ele>688.013236</ele>
        <time>2020-09-10T15:39:40.585Z</time>
      </trkpt>
      <trkpt lat="47.999863" lon="10.583032">
        <ele>688.013236</ele>
        <time>2020-09-10T15:39:43.580Z</time>
      </trkpt>
      <trkpt lat="47.999781" lon="10.582940">
        <ele>688.013236</ele>
        <time>2020-09-10T15:39:45.578Z</time>
      </trkpt>
      <trkpt lat="47.999709" lon="10.582847">
        <ele>688.013236</ele>
        <time>2020-09-10T15:39:47.577Z</time>
      </trkpt>
      <trkpt lat="47.999640" lon="10.582758">
        <ele>688.013236</ele>
        <time>2020-09-10T15:39:49.597Z</time>
      </trkpt>
      <trkpt lat="47.999572" lon="10.582664">
        <ele>688.013236</ele>
        <time>2020-09-10T15:39:51.578Z</time>
      </trkpt>
      <trkpt lat="47.999468" lon="10.582547">
        <ele>688.013236</ele>
        <time>2020-09-10T15:39:54.579Z</time>
      </trkpt>
      <trkpt lat="47.999385" lon="10.582463">
        <ele>688.013236</ele>
        <time>2020-09-10T15:39:57.576Z</time>
      </trkpt>
      <trkpt lat="47.999295" lon="10.582383">
        <ele>688.013236</ele>
        <time>2020-09-10T15:40:03.590Z</time>
      </trkpt>
      <trkpt lat="47.999222" lon="10.582477">
        <ele>688.013236</ele>
        <time>2020-09-10T15:40:10.567Z</time>
      </trkpt>
      <trkpt lat="47.999215" lon="10.582618">
        <ele>688.013236</ele>
        <time>2020-09-10T15:41:06.982Z</time>
      </trkpt>
    </trkseg>
  </trk>
</gpx>